<?xml version="1.0" encoding="UTF-8" standalone="no" ?>
<gpx xmlns="http://www.topografix.com/GPX/1/1" xmlns:xsi="http://www.w3.org/2001/XMLSchema-instance" xsi:schemaLocation="http://www.topografix.com/GPX/1/1 http://www.topografix.com/GPX/1/1/gpx.xsd" version="1.1" creator="VisuGPX - https://www.visugpx.com">
  <metadata>
    <name>trip parpaillon 10/22 Jour 1</name>
  </metadata>
  <trk>
    <name><![CDATA[2022-10-08 09:08:31 Jour]]></name>
    <trkseg>
      <trkpt lat="43.34715" lon="5.45116">
        <ele>57.37</ele>
        <time>2022-10-08T07:08:31Z</time>
      </trkpt>
      <trkpt lat="43.34898" lon="5.45634">
        <ele>57.37</ele>
        <time>2022-10-08T07:08:33Z</time>
      </trkpt>
      <trkpt lat="43.34968" lon="5.45524">
        <ele>58.68</ele>
        <time>2022-10-08T07:09:05Z</time>
      </trkpt>
      <trkpt lat="43.34968" lon="5.45524">
        <ele>59.63</ele>
        <time>2022-10-08T07:09:20Z</time>
      </trkpt>
      <trkpt lat="43.3497" lon="5.4553">
        <ele>59.77</ele>
        <time>2022-10-08T07:09:23Z</time>
      </trkpt>
      <trkpt lat="43.34972" lon="5.45533">
        <ele>59.8</ele>
        <time>2022-10-08T07:09:24Z</time>
      </trkpt>
      <trkpt lat="43.34976" lon="5.45536">
        <ele>60.01</ele>
        <time>2022-10-08T07:09:25Z</time>
      </trkpt>
      <trkpt lat="43.34981" lon="5.4554">
        <ele>59.96</ele>
        <time>2022-10-08T07:09:26Z</time>
      </trkpt>
      <trkpt lat="43.34986" lon="5.45544">
        <ele>60.02</ele>
        <time>2022-10-08T07:09:27Z</time>
      </trkpt>
      <trkpt lat="43.34991" lon="5.45548">
        <ele>60.2</ele>
        <time>2022-10-08T07:09:28Z</time>
      </trkpt>
      <trkpt lat="43.35013" lon="5.45566">
        <ele>62.68</ele>
        <time>2022-10-08T07:09:32Z</time>
      </trkpt>
      <trkpt lat="43.35042" lon="5.45589">
        <ele>64.05</ele>
        <time>2022-10-08T07:09:37Z</time>
      </trkpt>
      <trkpt lat="43.35048" lon="5.45591">
        <ele>64.11</ele>
        <time>2022-10-08T07:09:38Z</time>
      </trkpt>
      <trkpt lat="43.35093" lon="5.45609">
        <ele>67.33</ele>
        <time>2022-10-08T07:09:45Z</time>
      </trkpt>
      <trkpt lat="43.351" lon="5.45612">
        <ele>67.4</ele>
        <time>2022-10-08T07:09:46Z</time>
      </trkpt>
      <trkpt lat="43.35178" lon="5.45654">
        <ele>69.56</ele>
        <time>2022-10-08T07:09:59Z</time>
      </trkpt>
      <trkpt lat="43.35183" lon="5.45658">
        <ele>69.63</ele>
        <time>2022-10-08T07:10:00Z</time>
      </trkpt>
      <trkpt lat="43.35185" lon="5.45664">
        <ele>69.69</ele>
        <time>2022-10-08T07:10:01Z</time>
      </trkpt>
      <trkpt lat="43.35186" lon="5.45671">
        <ele>69.75</ele>
        <time>2022-10-08T07:10:02Z</time>
      </trkpt>
      <trkpt lat="43.35186" lon="5.45679">
        <ele>69.79</ele>
        <time>2022-10-08T07:10:03Z</time>
      </trkpt>
      <trkpt lat="43.35186" lon="5.45688">
        <ele>69.87</ele>
        <time>2022-10-08T07:10:04Z</time>
      </trkpt>
      <trkpt lat="43.35187" lon="5.45697">
        <ele>69.91</ele>
        <time>2022-10-08T07:10:05Z</time>
      </trkpt>
      <trkpt lat="43.35189" lon="5.45708">
        <ele>69.95</ele>
        <time>2022-10-08T07:10:06Z</time>
      </trkpt>
      <trkpt lat="43.3519" lon="5.45719">
        <ele>70</ele>
        <time>2022-10-08T07:10:07Z</time>
      </trkpt>
      <trkpt lat="43.35193" lon="5.4573">
        <ele>70.06</ele>
        <time>2022-10-08T07:10:08Z</time>
      </trkpt>
      <trkpt lat="43.35202" lon="5.45763">
        <ele>67.53</ele>
        <time>2022-10-08T07:10:11Z</time>
      </trkpt>
      <trkpt lat="43.35204" lon="5.45773">
        <ele>65.86</ele>
        <time>2022-10-08T07:10:12Z</time>
      </trkpt>
      <trkpt lat="43.35205" lon="5.45784">
        <ele>65.81</ele>
        <time>2022-10-08T07:10:13Z</time>
      </trkpt>
      <trkpt lat="43.35205" lon="5.45794">
        <ele>64.21</ele>
        <time>2022-10-08T07:10:14Z</time>
      </trkpt>
      <trkpt lat="43.35203" lon="5.45803">
        <ele>63.69</ele>
        <time>2022-10-08T07:10:15Z</time>
      </trkpt>
      <trkpt lat="43.35199" lon="5.45812">
        <ele>63.74</ele>
        <time>2022-10-08T07:10:16Z</time>
      </trkpt>
      <trkpt lat="43.35194" lon="5.4582">
        <ele>62.72</ele>
        <time>2022-10-08T07:10:17Z</time>
      </trkpt>
      <trkpt lat="43.35188" lon="5.45829">
        <ele>62.72</ele>
        <time>2022-10-08T07:10:18Z</time>
      </trkpt>
      <trkpt lat="43.35182" lon="5.45837">
        <ele>60.85</ele>
        <time>2022-10-08T07:10:19Z</time>
      </trkpt>
      <trkpt lat="43.35175" lon="5.45844">
        <ele>60.89</ele>
        <time>2022-10-08T07:10:20Z</time>
      </trkpt>
      <trkpt lat="43.35161" lon="5.45858">
        <ele>58.64</ele>
        <time>2022-10-08T07:10:22Z</time>
      </trkpt>
      <trkpt lat="43.35154" lon="5.45863">
        <ele>57.17</ele>
        <time>2022-10-08T07:10:23Z</time>
      </trkpt>
      <trkpt lat="43.35139" lon="5.45871">
        <ele>55.15</ele>
        <time>2022-10-08T07:10:25Z</time>
      </trkpt>
      <trkpt lat="43.35133" lon="5.45878">
        <ele>55.21</ele>
        <time>2022-10-08T07:10:26Z</time>
      </trkpt>
      <trkpt lat="43.35129" lon="5.45886">
        <ele>53.19</ele>
        <time>2022-10-08T07:10:27Z</time>
      </trkpt>
      <trkpt lat="43.35125" lon="5.45897">
        <ele>52.06</ele>
        <time>2022-10-08T07:10:28Z</time>
      </trkpt>
      <trkpt lat="43.35121" lon="5.45909">
        <ele>51.36</ele>
        <time>2022-10-08T07:10:29Z</time>
      </trkpt>
      <trkpt lat="43.35117" lon="5.45921">
        <ele>50.32</ele>
        <time>2022-10-08T07:10:30Z</time>
      </trkpt>
      <trkpt lat="43.35111" lon="5.45932">
        <ele>50.3</ele>
        <time>2022-10-08T07:10:31Z</time>
      </trkpt>
      <trkpt lat="43.35103" lon="5.45941">
        <ele>49</ele>
        <time>2022-10-08T07:10:32Z</time>
      </trkpt>
      <trkpt lat="43.35095" lon="5.4595">
        <ele>48.97</ele>
        <time>2022-10-08T07:10:33Z</time>
      </trkpt>
      <trkpt lat="43.35047" lon="5.46003">
        <ele>48.96</ele>
        <time>2022-10-08T07:10:40Z</time>
      </trkpt>
      <trkpt lat="43.35041" lon="5.46013">
        <ele>49.01</ele>
        <time>2022-10-08T07:10:41Z</time>
      </trkpt>
      <trkpt lat="43.34977" lon="5.4612">
        <ele>46.17</ele>
        <time>2022-10-08T07:10:50Z</time>
      </trkpt>
      <trkpt lat="43.34949" lon="5.46146">
        <ele>44.69</ele>
        <time>2022-10-08T07:10:53Z</time>
      </trkpt>
      <trkpt lat="43.34913" lon="5.46171">
        <ele>42.3</ele>
        <time>2022-10-08T07:10:57Z</time>
      </trkpt>
      <trkpt lat="43.34896" lon="5.46181">
        <ele>40.77</ele>
        <time>2022-10-08T07:10:59Z</time>
      </trkpt>
      <trkpt lat="43.34872" lon="5.46198">
        <ele>38.55</ele>
        <time>2022-10-08T07:11:02Z</time>
      </trkpt>
      <trkpt lat="43.34853" lon="5.46215">
        <ele>36.38</ele>
        <time>2022-10-08T07:11:05Z</time>
      </trkpt>
      <trkpt lat="43.34832" lon="5.46234">
        <ele>34.67</ele>
        <time>2022-10-08T07:11:08Z</time>
      </trkpt>
      <trkpt lat="43.34809" lon="5.46265">
        <ele>31.98</ele>
        <time>2022-10-08T07:11:12Z</time>
      </trkpt>
      <trkpt lat="43.34801" lon="5.46278">
        <ele>30.63</ele>
        <time>2022-10-08T07:11:14Z</time>
      </trkpt>
      <trkpt lat="43.34766" lon="5.46342">
        <ele>28.27</ele>
        <time>2022-10-08T07:11:22Z</time>
      </trkpt>
      <trkpt lat="43.34757" lon="5.46356">
        <ele>27.23</ele>
        <time>2022-10-08T07:11:29Z</time>
      </trkpt>
      <trkpt lat="43.34755" lon="5.46356">
        <ele>28.89</ele>
        <time>2022-10-08T07:12:00Z</time>
      </trkpt>
      <trkpt lat="43.34755" lon="5.46358">
        <ele>28.95</ele>
        <time>2022-10-08T07:12:01Z</time>
      </trkpt>
      <trkpt lat="43.34754" lon="5.4636">
        <ele>29</ele>
        <time>2022-10-08T07:12:02Z</time>
      </trkpt>
      <trkpt lat="43.34753" lon="5.46363">
        <ele>29.06</ele>
        <time>2022-10-08T07:12:03Z</time>
      </trkpt>
      <trkpt lat="43.34753" lon="5.46368">
        <ele>29.1</ele>
        <time>2022-10-08T07:12:04Z</time>
      </trkpt>
      <trkpt lat="43.34753" lon="5.46374">
        <ele>29.17</ele>
        <time>2022-10-08T07:12:05Z</time>
      </trkpt>
      <trkpt lat="43.34754" lon="5.4638">
        <ele>29.22</ele>
        <time>2022-10-08T07:12:06Z</time>
      </trkpt>
      <trkpt lat="43.34758" lon="5.46385">
        <ele>29.26</ele>
        <time>2022-10-08T07:12:07Z</time>
      </trkpt>
      <trkpt lat="43.34762" lon="5.46391">
        <ele>29.31</ele>
        <time>2022-10-08T07:12:08Z</time>
      </trkpt>
      <trkpt lat="43.34787" lon="5.46422">
        <ele>29.57</ele>
        <time>2022-10-08T07:12:13Z</time>
      </trkpt>
      <trkpt lat="43.34792" lon="5.46432">
        <ele>29.66</ele>
        <time>2022-10-08T07:12:14Z</time>
      </trkpt>
      <trkpt lat="43.34825" lon="5.46503">
        <ele>29</ele>
        <time>2022-10-08T07:12:21Z</time>
      </trkpt>
      <trkpt lat="43.3483" lon="5.46516">
        <ele>29.06</ele>
        <time>2022-10-08T07:12:22Z</time>
      </trkpt>
      <trkpt lat="43.34878" lon="5.46701">
        <ele>29.77</ele>
        <time>2022-10-08T07:12:35Z</time>
      </trkpt>
      <trkpt lat="43.34891" lon="5.46761">
        <ele>30.12</ele>
        <time>2022-10-08T07:12:42Z</time>
      </trkpt>
      <trkpt lat="43.34892" lon="5.46762">
        <ele>29.63</ele>
        <time>2022-10-08T07:12:50Z</time>
      </trkpt>
      <trkpt lat="43.34904" lon="5.46797">
        <ele>30.88</ele>
        <time>2022-10-08T07:13:13Z</time>
      </trkpt>
      <trkpt lat="43.34909" lon="5.46819">
        <ele>33.38</ele>
        <time>2022-10-08T07:13:15Z</time>
      </trkpt>
      <trkpt lat="43.34925" lon="5.46885">
        <ele>35.44</ele>
        <time>2022-10-08T07:13:20Z</time>
      </trkpt>
      <trkpt lat="43.34951" lon="5.46951">
        <ele>36.65</ele>
        <time>2022-10-08T07:13:27Z</time>
      </trkpt>
      <trkpt lat="43.34967" lon="5.46983">
        <ele>37.83</ele>
        <time>2022-10-08T07:13:31Z</time>
      </trkpt>
      <trkpt lat="43.34979" lon="5.47008">
        <ele>39.04</ele>
        <time>2022-10-08T07:13:33Z</time>
      </trkpt>
      <trkpt lat="43.34987" lon="5.47021">
        <ele>39.91</ele>
        <time>2022-10-08T07:13:34Z</time>
      </trkpt>
      <trkpt lat="43.35006" lon="5.47047">
        <ele>41.04</ele>
        <time>2022-10-08T07:13:36Z</time>
      </trkpt>
      <trkpt lat="43.35123" lon="5.47194">
        <ele>42.27</ele>
        <time>2022-10-08T07:13:47Z</time>
      </trkpt>
      <trkpt lat="43.35168" lon="5.47272">
        <ele>43.37</ele>
        <time>2022-10-08T07:13:52Z</time>
      </trkpt>
      <trkpt lat="43.35174" lon="5.4729">
        <ele>43.4</ele>
        <time>2022-10-08T07:13:53Z</time>
      </trkpt>
      <trkpt lat="43.35179" lon="5.47308">
        <ele>43.49</ele>
        <time>2022-10-08T07:13:54Z</time>
      </trkpt>
      <trkpt lat="43.35182" lon="5.47327">
        <ele>43.54</ele>
        <time>2022-10-08T07:13:55Z</time>
      </trkpt>
      <trkpt lat="43.35184" lon="5.47347">
        <ele>43.58</ele>
        <time>2022-10-08T07:13:56Z</time>
      </trkpt>
      <trkpt lat="43.35185" lon="5.47366">
        <ele>43.61</ele>
        <time>2022-10-08T07:13:57Z</time>
      </trkpt>
      <trkpt lat="43.35192" lon="5.47541">
        <ele>46.77</ele>
        <time>2022-10-08T07:14:06Z</time>
      </trkpt>
      <trkpt lat="43.35199" lon="5.47715">
        <ele>48.72</ele>
        <time>2022-10-08T07:14:15Z</time>
      </trkpt>
      <trkpt lat="43.35204" lon="5.47829">
        <ele>50.16</ele>
        <time>2022-10-08T07:14:21Z</time>
      </trkpt>
      <trkpt lat="43.35234" lon="5.48063">
        <ele>52.57</ele>
        <time>2022-10-08T07:14:34Z</time>
      </trkpt>
      <trkpt lat="43.35266" lon="5.48194">
        <ele>54.81</ele>
        <time>2022-10-08T07:14:42Z</time>
      </trkpt>
      <trkpt lat="43.35303" lon="5.48342">
        <ele>56.82</ele>
        <time>2022-10-08T07:14:50Z</time>
      </trkpt>
      <trkpt lat="43.35352" lon="5.48424">
        <ele>57.86</ele>
        <time>2022-10-08T07:14:56Z</time>
      </trkpt>
      <trkpt lat="43.35363" lon="5.48434">
        <ele>57.94</ele>
        <time>2022-10-08T07:14:57Z</time>
      </trkpt>
      <trkpt lat="43.35373" lon="5.48442">
        <ele>57.99</ele>
        <time>2022-10-08T07:14:58Z</time>
      </trkpt>
      <trkpt lat="43.35421" lon="5.48469">
        <ele>58.25</ele>
        <time>2022-10-08T07:15:03Z</time>
      </trkpt>
      <trkpt lat="43.35427" lon="5.48477">
        <ele>58.31</ele>
        <time>2022-10-08T07:15:04Z</time>
      </trkpt>
      <trkpt lat="43.35449" lon="5.48515">
        <ele>59.34</ele>
        <time>2022-10-08T07:15:08Z</time>
      </trkpt>
      <trkpt lat="43.35454" lon="5.48526">
        <ele>59.37</ele>
        <time>2022-10-08T07:15:09Z</time>
      </trkpt>
      <trkpt lat="43.35474" lon="5.48574">
        <ele>59.55</ele>
        <time>2022-10-08T07:15:13Z</time>
      </trkpt>
      <trkpt lat="43.35481" lon="5.48586">
        <ele>59.6</ele>
        <time>2022-10-08T07:15:14Z</time>
      </trkpt>
      <trkpt lat="43.3549" lon="5.48596">
        <ele>59.68</ele>
        <time>2022-10-08T07:15:15Z</time>
      </trkpt>
      <trkpt lat="43.35499" lon="5.48605">
        <ele>59.73</ele>
        <time>2022-10-08T07:15:16Z</time>
      </trkpt>
      <trkpt lat="43.35509" lon="5.48612">
        <ele>59.75</ele>
        <time>2022-10-08T07:15:17Z</time>
      </trkpt>
      <trkpt lat="43.3552" lon="5.48619">
        <ele>59.86</ele>
        <time>2022-10-08T07:15:18Z</time>
      </trkpt>
      <trkpt lat="43.35593" lon="5.48668">
        <ele>60.32</ele>
        <time>2022-10-08T07:15:27Z</time>
      </trkpt>
      <trkpt lat="43.356" lon="5.48674">
        <ele>60.47</ele>
        <time>2022-10-08T07:15:29Z</time>
      </trkpt>
      <trkpt lat="43.35603" lon="5.4868">
        <ele>60.52</ele>
        <time>2022-10-08T07:15:30Z</time>
      </trkpt>
      <trkpt lat="43.35611" lon="5.48693">
        <ele>61.64</ele>
        <time>2022-10-08T07:15:32Z</time>
      </trkpt>
      <trkpt lat="43.35616" lon="5.487">
        <ele>61.69</ele>
        <time>2022-10-08T07:15:33Z</time>
      </trkpt>
      <trkpt lat="43.35653" lon="5.48743">
        <ele>64.01</ele>
        <time>2022-10-08T07:15:38Z</time>
      </trkpt>
      <trkpt lat="43.35707" lon="5.48814">
        <ele>64.52</ele>
        <time>2022-10-08T07:15:46Z</time>
      </trkpt>
      <trkpt lat="43.35711" lon="5.48823">
        <ele>64.6</ele>
        <time>2022-10-08T07:15:47Z</time>
      </trkpt>
      <trkpt lat="43.35716" lon="5.48843">
        <ele>65.4</ele>
        <time>2022-10-08T07:15:49Z</time>
      </trkpt>
      <trkpt lat="43.35731" lon="5.48897">
        <ele>67.76</ele>
        <time>2022-10-08T07:15:53Z</time>
      </trkpt>
      <trkpt lat="43.35746" lon="5.48968">
        <ele>69.21</ele>
        <time>2022-10-08T07:15:57Z</time>
      </trkpt>
      <trkpt lat="43.35774" lon="5.49081">
        <ele>71.48</ele>
        <time>2022-10-08T07:16:03Z</time>
      </trkpt>
      <trkpt lat="43.35885" lon="5.49326">
        <ele>73.79</ele>
        <time>2022-10-08T07:16:18Z</time>
      </trkpt>
      <trkpt lat="43.35893" lon="5.4934">
        <ele>74.96</ele>
        <time>2022-10-08T07:16:19Z</time>
      </trkpt>
      <trkpt lat="43.35902" lon="5.49353">
        <ele>75.02</ele>
        <time>2022-10-08T07:16:20Z</time>
      </trkpt>
      <trkpt lat="43.35912" lon="5.49365">
        <ele>75.07</ele>
        <time>2022-10-08T07:16:21Z</time>
      </trkpt>
      <trkpt lat="43.35922" lon="5.49376">
        <ele>75.11</ele>
        <time>2022-10-08T07:16:22Z</time>
      </trkpt>
      <trkpt lat="43.35933" lon="5.49387">
        <ele>75.17</ele>
        <time>2022-10-08T07:16:23Z</time>
      </trkpt>
      <trkpt lat="43.35945" lon="5.49395">
        <ele>76.19</ele>
        <time>2022-10-08T07:16:24Z</time>
      </trkpt>
      <trkpt lat="43.35958" lon="5.49402">
        <ele>76.25</ele>
        <time>2022-10-08T07:16:25Z</time>
      </trkpt>
      <trkpt lat="43.35971" lon="5.49407">
        <ele>77.07</ele>
        <time>2022-10-08T07:16:26Z</time>
      </trkpt>
      <trkpt lat="43.35985" lon="5.4941">
        <ele>77.12</ele>
        <time>2022-10-08T07:16:27Z</time>
      </trkpt>
      <trkpt lat="43.36" lon="5.49413">
        <ele>77.21</ele>
        <time>2022-10-08T07:16:28Z</time>
      </trkpt>
      <trkpt lat="43.36069" lon="5.49414">
        <ele>78.48</ele>
        <time>2022-10-08T07:16:33Z</time>
      </trkpt>
      <trkpt lat="43.36159" lon="5.49389">
        <ele>80.51</ele>
        <time>2022-10-08T07:16:40Z</time>
      </trkpt>
      <trkpt lat="43.36172" lon="5.49391">
        <ele>81.44</ele>
        <time>2022-10-08T07:16:41Z</time>
      </trkpt>
      <trkpt lat="43.36259" lon="5.49418">
        <ele>83.74</ele>
        <time>2022-10-08T07:16:48Z</time>
      </trkpt>
      <trkpt lat="43.36271" lon="5.49425">
        <ele>83.79</ele>
        <time>2022-10-08T07:16:49Z</time>
      </trkpt>
      <trkpt lat="43.36281" lon="5.49435">
        <ele>83.85</ele>
        <time>2022-10-08T07:16:50Z</time>
      </trkpt>
      <trkpt lat="43.36289" lon="5.49447">
        <ele>83.92</ele>
        <time>2022-10-08T07:16:51Z</time>
      </trkpt>
      <trkpt lat="43.36296" lon="5.49461">
        <ele>83.92</ele>
        <time>2022-10-08T07:16:52Z</time>
      </trkpt>
      <trkpt lat="43.36301" lon="5.49476">
        <ele>83.99</ele>
        <time>2022-10-08T07:16:53Z</time>
      </trkpt>
      <trkpt lat="43.36305" lon="5.49493">
        <ele>85.53</ele>
        <time>2022-10-08T07:16:54Z</time>
      </trkpt>
      <trkpt lat="43.36308" lon="5.4951">
        <ele>85.61</ele>
        <time>2022-10-08T07:16:55Z</time>
      </trkpt>
      <trkpt lat="43.36311" lon="5.49526">
        <ele>85.64</ele>
        <time>2022-10-08T07:16:56Z</time>
      </trkpt>
      <trkpt lat="43.36315" lon="5.49543">
        <ele>86.5</ele>
        <time>2022-10-08T07:16:57Z</time>
      </trkpt>
      <trkpt lat="43.36321" lon="5.49558">
        <ele>86.55</ele>
        <time>2022-10-08T07:16:58Z</time>
      </trkpt>
      <trkpt lat="43.36328" lon="5.49571">
        <ele>86.58</ele>
        <time>2022-10-08T07:16:59Z</time>
      </trkpt>
      <trkpt lat="43.36337" lon="5.49584">
        <ele>86.63</ele>
        <time>2022-10-08T07:17:00Z</time>
      </trkpt>
      <trkpt lat="43.36348" lon="5.49596">
        <ele>86.68</ele>
        <time>2022-10-08T07:17:01Z</time>
      </trkpt>
      <trkpt lat="43.3639" lon="5.49646">
        <ele>89</ele>
        <time>2022-10-08T07:17:05Z</time>
      </trkpt>
      <trkpt lat="43.36399" lon="5.49659">
        <ele>89.07</ele>
        <time>2022-10-08T07:17:06Z</time>
      </trkpt>
      <trkpt lat="43.36406" lon="5.49674">
        <ele>89.93</ele>
        <time>2022-10-08T07:17:07Z</time>
      </trkpt>
      <trkpt lat="43.36411" lon="5.4969">
        <ele>89.97</ele>
        <time>2022-10-08T07:17:08Z</time>
      </trkpt>
      <trkpt lat="43.36415" lon="5.49708">
        <ele>90.06</ele>
        <time>2022-10-08T07:17:09Z</time>
      </trkpt>
      <trkpt lat="43.36418" lon="5.49726">
        <ele>91.09</ele>
        <time>2022-10-08T07:17:10Z</time>
      </trkpt>
      <trkpt lat="43.3642" lon="5.49745">
        <ele>91.13</ele>
        <time>2022-10-08T07:17:11Z</time>
      </trkpt>
      <trkpt lat="43.36424" lon="5.49785">
        <ele>92.35</ele>
        <time>2022-10-08T07:17:13Z</time>
      </trkpt>
      <trkpt lat="43.36434" lon="5.49849">
        <ele>94.12</ele>
        <time>2022-10-08T07:17:16Z</time>
      </trkpt>
      <trkpt lat="43.36451" lon="5.49913">
        <ele>95.49</ele>
        <time>2022-10-08T07:17:19Z</time>
      </trkpt>
      <trkpt lat="43.36465" lon="5.49954">
        <ele>95.6</ele>
        <time>2022-10-08T07:17:21Z</time>
      </trkpt>
      <trkpt lat="43.36475" lon="5.49973">
        <ele>96.47</ele>
        <time>2022-10-08T07:17:22Z</time>
      </trkpt>
      <trkpt lat="43.36485" lon="5.49992">
        <ele>96.48</ele>
        <time>2022-10-08T07:17:23Z</time>
      </trkpt>
      <trkpt lat="43.3652" lon="5.50043">
        <ele>98.19</ele>
        <time>2022-10-08T07:17:26Z</time>
      </trkpt>
      <trkpt lat="43.36541" lon="5.50079">
        <ele>98.7</ele>
        <time>2022-10-08T07:17:28Z</time>
      </trkpt>
      <trkpt lat="43.36581" lon="5.5017">
        <ele>98.95</ele>
        <time>2022-10-08T07:17:33Z</time>
      </trkpt>
      <trkpt lat="43.36585" lon="5.50189">
        <ele>99.01</ele>
        <time>2022-10-08T07:17:34Z</time>
      </trkpt>
      <trkpt lat="43.36587" lon="5.50207">
        <ele>100.31</ele>
        <time>2022-10-08T07:17:35Z</time>
      </trkpt>
      <trkpt lat="43.36587" lon="5.50226">
        <ele>100.37</ele>
        <time>2022-10-08T07:17:36Z</time>
      </trkpt>
      <trkpt lat="43.36585" lon="5.50245">
        <ele>100.41</ele>
        <time>2022-10-08T07:17:37Z</time>
      </trkpt>
      <trkpt lat="43.36582" lon="5.50264">
        <ele>101.4</ele>
        <time>2022-10-08T07:17:38Z</time>
      </trkpt>
      <trkpt lat="43.3658" lon="5.503">
        <ele>103.23</ele>
        <time>2022-10-08T07:17:40Z</time>
      </trkpt>
      <trkpt lat="43.36582" lon="5.50318">
        <ele>103.23</ele>
        <time>2022-10-08T07:17:41Z</time>
      </trkpt>
      <trkpt lat="43.36587" lon="5.50335">
        <ele>104.46</ele>
        <time>2022-10-08T07:17:42Z</time>
      </trkpt>
      <trkpt lat="43.36593" lon="5.5035">
        <ele>104.48</ele>
        <time>2022-10-08T07:17:43Z</time>
      </trkpt>
      <trkpt lat="43.36602" lon="5.50363">
        <ele>105.49</ele>
        <time>2022-10-08T07:17:44Z</time>
      </trkpt>
      <trkpt lat="43.36612" lon="5.50372">
        <ele>105.57</ele>
        <time>2022-10-08T07:17:45Z</time>
      </trkpt>
      <trkpt lat="43.36624" lon="5.50376">
        <ele>106.8</ele>
        <time>2022-10-08T07:17:46Z</time>
      </trkpt>
      <trkpt lat="43.36636" lon="5.50375">
        <ele>106.83</ele>
        <time>2022-10-08T07:17:47Z</time>
      </trkpt>
      <trkpt lat="43.36646" lon="5.50371">
        <ele>106.92</ele>
        <time>2022-10-08T07:17:48Z</time>
      </trkpt>
      <trkpt lat="43.36656" lon="5.50363">
        <ele>106.95</ele>
        <time>2022-10-08T07:17:49Z</time>
      </trkpt>
      <trkpt lat="43.36663" lon="5.50352">
        <ele>107.03</ele>
        <time>2022-10-08T07:17:50Z</time>
      </trkpt>
      <trkpt lat="43.36667" lon="5.50338">
        <ele>108.34</ele>
        <time>2022-10-08T07:17:51Z</time>
      </trkpt>
      <trkpt lat="43.36669" lon="5.50322">
        <ele>108.42</ele>
        <time>2022-10-08T07:17:52Z</time>
      </trkpt>
      <trkpt lat="43.3667" lon="5.50305">
        <ele>109.64</ele>
        <time>2022-10-08T07:17:53Z</time>
      </trkpt>
      <trkpt lat="43.36672" lon="5.50289">
        <ele>109.69</ele>
        <time>2022-10-08T07:17:54Z</time>
      </trkpt>
      <trkpt lat="43.36675" lon="5.50275">
        <ele>110.78</ele>
        <time>2022-10-08T07:17:55Z</time>
      </trkpt>
      <trkpt lat="43.36679" lon="5.50262">
        <ele>110.82</ele>
        <time>2022-10-08T07:17:56Z</time>
      </trkpt>
      <trkpt lat="43.36692" lon="5.50231">
        <ele>111.07</ele>
        <time>2022-10-08T07:18:00Z</time>
      </trkpt>
      <trkpt lat="43.36707" lon="5.50203">
        <ele>111.46</ele>
        <time>2022-10-08T07:18:10Z</time>
      </trkpt>
      <trkpt lat="43.3671" lon="5.50206">
        <ele>112.73</ele>
        <time>2022-10-08T07:18:37Z</time>
      </trkpt>
      <trkpt lat="43.36709" lon="5.50204">
        <ele>115.77</ele>
        <time>2022-10-08T07:19:37Z</time>
      </trkpt>
      <trkpt lat="43.36714" lon="5.50203">
        <ele>116.01</ele>
        <time>2022-10-08T07:19:42Z</time>
      </trkpt>
      <trkpt lat="43.36735" lon="5.50199">
        <ele>116.97</ele>
        <time>2022-10-08T07:19:45Z</time>
      </trkpt>
      <trkpt lat="43.36754" lon="5.50198">
        <ele>118.39</ele>
        <time>2022-10-08T07:19:47Z</time>
      </trkpt>
      <trkpt lat="43.36764" lon="5.50199">
        <ele>118.44</ele>
        <time>2022-10-08T07:19:48Z</time>
      </trkpt>
      <trkpt lat="43.36774" lon="5.50201">
        <ele>118.48</ele>
        <time>2022-10-08T07:19:49Z</time>
      </trkpt>
      <trkpt lat="43.36784" lon="5.50205">
        <ele>118.56</ele>
        <time>2022-10-08T07:19:50Z</time>
      </trkpt>
      <trkpt lat="43.36792" lon="5.50212">
        <ele>118.62</ele>
        <time>2022-10-08T07:19:51Z</time>
      </trkpt>
      <trkpt lat="43.36799" lon="5.50221">
        <ele>118.7</ele>
        <time>2022-10-08T07:19:52Z</time>
      </trkpt>
      <trkpt lat="43.36806" lon="5.50233">
        <ele>119.78</ele>
        <time>2022-10-08T07:19:53Z</time>
      </trkpt>
      <trkpt lat="43.36819" lon="5.50256">
        <ele>120.69</ele>
        <time>2022-10-08T07:19:55Z</time>
      </trkpt>
      <trkpt lat="43.36826" lon="5.50265">
        <ele>120.77</ele>
        <time>2022-10-08T07:19:56Z</time>
      </trkpt>
      <trkpt lat="43.36835" lon="5.50269">
        <ele>122.08</ele>
        <time>2022-10-08T07:19:57Z</time>
      </trkpt>
      <trkpt lat="43.36845" lon="5.5027">
        <ele>122.09</ele>
        <time>2022-10-08T07:19:58Z</time>
      </trkpt>
      <trkpt lat="43.36855" lon="5.50269">
        <ele>122.17</ele>
        <time>2022-10-08T07:19:59Z</time>
      </trkpt>
      <trkpt lat="43.36865" lon="5.50267">
        <ele>122.21</ele>
        <time>2022-10-08T07:20:00Z</time>
      </trkpt>
      <trkpt lat="43.36885" lon="5.50268">
        <ele>122.33</ele>
        <time>2022-10-08T07:20:02Z</time>
      </trkpt>
      <trkpt lat="43.36893" lon="5.50273">
        <ele>122.37</ele>
        <time>2022-10-08T07:20:03Z</time>
      </trkpt>
      <trkpt lat="43.36898" lon="5.50281">
        <ele>122.44</ele>
        <time>2022-10-08T07:20:04Z</time>
      </trkpt>
      <trkpt lat="43.369" lon="5.50293">
        <ele>123.68</ele>
        <time>2022-10-08T07:20:05Z</time>
      </trkpt>
      <trkpt lat="43.36899" lon="5.50306">
        <ele>123.75</ele>
        <time>2022-10-08T07:20:06Z</time>
      </trkpt>
      <trkpt lat="43.36897" lon="5.50319">
        <ele>123.81</ele>
        <time>2022-10-08T07:20:07Z</time>
      </trkpt>
      <trkpt lat="43.36893" lon="5.50333">
        <ele>124.83</ele>
        <time>2022-10-08T07:20:08Z</time>
      </trkpt>
      <trkpt lat="43.36888" lon="5.50348">
        <ele>124.9</ele>
        <time>2022-10-08T07:20:09Z</time>
      </trkpt>
      <trkpt lat="43.36879" lon="5.50376">
        <ele>125.92</ele>
        <time>2022-10-08T07:20:11Z</time>
      </trkpt>
      <trkpt lat="43.36878" lon="5.50391">
        <ele>125.93</ele>
        <time>2022-10-08T07:20:12Z</time>
      </trkpt>
      <trkpt lat="43.36881" lon="5.50406">
        <ele>127.02</ele>
        <time>2022-10-08T07:20:13Z</time>
      </trkpt>
      <trkpt lat="43.36887" lon="5.50421">
        <ele>127.12</ele>
        <time>2022-10-08T07:20:14Z</time>
      </trkpt>
      <trkpt lat="43.36894" lon="5.50434">
        <ele>127.15</ele>
        <time>2022-10-08T07:20:15Z</time>
      </trkpt>
      <trkpt lat="43.36902" lon="5.50447">
        <ele>127.16</ele>
        <time>2022-10-08T07:20:16Z</time>
      </trkpt>
      <trkpt lat="43.36909" lon="5.50462">
        <ele>128.46</ele>
        <time>2022-10-08T07:20:17Z</time>
      </trkpt>
      <trkpt lat="43.36916" lon="5.50478">
        <ele>128.58</ele>
        <time>2022-10-08T07:20:18Z</time>
      </trkpt>
      <trkpt lat="43.36921" lon="5.50494">
        <ele>129.33</ele>
        <time>2022-10-08T07:20:19Z</time>
      </trkpt>
      <trkpt lat="43.36925" lon="5.5051">
        <ele>129.37</ele>
        <time>2022-10-08T07:20:20Z</time>
      </trkpt>
      <trkpt lat="43.36935" lon="5.50534">
        <ele>129.45</ele>
        <time>2022-10-08T07:20:22Z</time>
      </trkpt>
      <trkpt lat="43.36943" lon="5.50541">
        <ele>129.52</ele>
        <time>2022-10-08T07:20:23Z</time>
      </trkpt>
      <trkpt lat="43.36953" lon="5.50541">
        <ele>129.56</ele>
        <time>2022-10-08T07:20:24Z</time>
      </trkpt>
      <trkpt lat="43.36962" lon="5.50535">
        <ele>129.64</ele>
        <time>2022-10-08T07:20:25Z</time>
      </trkpt>
      <trkpt lat="43.3697" lon="5.50527">
        <ele>130.48</ele>
        <time>2022-10-08T07:20:26Z</time>
      </trkpt>
      <trkpt lat="43.36978" lon="5.50516">
        <ele>130.53</ele>
        <time>2022-10-08T07:20:27Z</time>
      </trkpt>
      <trkpt lat="43.36986" lon="5.50505">
        <ele>131.36</ele>
        <time>2022-10-08T07:20:28Z</time>
      </trkpt>
      <trkpt lat="43.37011" lon="5.50481">
        <ele>131.46</ele>
        <time>2022-10-08T07:20:31Z</time>
      </trkpt>
      <trkpt lat="43.3702" lon="5.50482">
        <ele>131.5</ele>
        <time>2022-10-08T07:20:32Z</time>
      </trkpt>
      <trkpt lat="43.37029" lon="5.50487">
        <ele>131.56</ele>
        <time>2022-10-08T07:20:33Z</time>
      </trkpt>
      <trkpt lat="43.37037" lon="5.50495">
        <ele>133.06</ele>
        <time>2022-10-08T07:20:34Z</time>
      </trkpt>
      <trkpt lat="43.37044" lon="5.50507">
        <ele>133.07</ele>
        <time>2022-10-08T07:20:35Z</time>
      </trkpt>
      <trkpt lat="43.37051" lon="5.5052">
        <ele>133.12</ele>
        <time>2022-10-08T07:20:36Z</time>
      </trkpt>
      <trkpt lat="43.37056" lon="5.50535">
        <ele>134.08</ele>
        <time>2022-10-08T07:20:37Z</time>
      </trkpt>
      <trkpt lat="43.3706" lon="5.50552">
        <ele>134.15</ele>
        <time>2022-10-08T07:20:38Z</time>
      </trkpt>
      <trkpt lat="43.37062" lon="5.50571">
        <ele>135.08</ele>
        <time>2022-10-08T07:20:39Z</time>
      </trkpt>
      <trkpt lat="43.37062" lon="5.5059">
        <ele>135.14</ele>
        <time>2022-10-08T07:20:40Z</time>
      </trkpt>
      <trkpt lat="43.3706" lon="5.50609">
        <ele>136.11</ele>
        <time>2022-10-08T07:20:41Z</time>
      </trkpt>
      <trkpt lat="43.37059" lon="5.50629">
        <ele>137.35</ele>
        <time>2022-10-08T07:20:42Z</time>
      </trkpt>
      <trkpt lat="43.37056" lon="5.50684">
        <ele>137.67</ele>
        <time>2022-10-08T07:20:45Z</time>
      </trkpt>
      <trkpt lat="43.37058" lon="5.50699">
        <ele>137.71</ele>
        <time>2022-10-08T07:20:46Z</time>
      </trkpt>
      <trkpt lat="43.37063" lon="5.50712">
        <ele>137.79</ele>
        <time>2022-10-08T07:20:47Z</time>
      </trkpt>
      <trkpt lat="43.3707" lon="5.50723">
        <ele>137.83</ele>
        <time>2022-10-08T07:20:48Z</time>
      </trkpt>
      <trkpt lat="43.37079" lon="5.50734">
        <ele>137.96</ele>
        <time>2022-10-08T07:20:49Z</time>
      </trkpt>
      <trkpt lat="43.37088" lon="5.50744">
        <ele>137.98</ele>
        <time>2022-10-08T07:20:50Z</time>
      </trkpt>
      <trkpt lat="43.37096" lon="5.50756">
        <ele>138.5</ele>
        <time>2022-10-08T07:20:51Z</time>
      </trkpt>
      <trkpt lat="43.37101" lon="5.50771">
        <ele>138.5</ele>
        <time>2022-10-08T07:20:52Z</time>
      </trkpt>
      <trkpt lat="43.37109" lon="5.50803">
        <ele>139.56</ele>
        <time>2022-10-08T07:20:54Z</time>
      </trkpt>
      <trkpt lat="43.37115" lon="5.50817">
        <ele>139.59</ele>
        <time>2022-10-08T07:20:55Z</time>
      </trkpt>
      <trkpt lat="43.3712" lon="5.50831">
        <ele>139.66</ele>
        <time>2022-10-08T07:20:56Z</time>
      </trkpt>
      <trkpt lat="43.37123" lon="5.50844">
        <ele>139.69</ele>
        <time>2022-10-08T07:20:57Z</time>
      </trkpt>
      <trkpt lat="43.37123" lon="5.50858">
        <ele>139.71</ele>
        <time>2022-10-08T07:20:58Z</time>
      </trkpt>
      <trkpt lat="43.37121" lon="5.50872">
        <ele>141.1</ele>
        <time>2022-10-08T07:20:59Z</time>
      </trkpt>
      <trkpt lat="43.37116" lon="5.50886">
        <ele>141.16</ele>
        <time>2022-10-08T07:21:00Z</time>
      </trkpt>
      <trkpt lat="43.37111" lon="5.50901">
        <ele>142.44</ele>
        <time>2022-10-08T07:21:01Z</time>
      </trkpt>
      <trkpt lat="43.37105" lon="5.50917">
        <ele>142.49</ele>
        <time>2022-10-08T07:21:02Z</time>
      </trkpt>
      <trkpt lat="43.37081" lon="5.50977">
        <ele>143.73</ele>
        <time>2022-10-08T07:21:06Z</time>
      </trkpt>
      <trkpt lat="43.37078" lon="5.50993">
        <ele>143.75</ele>
        <time>2022-10-08T07:21:07Z</time>
      </trkpt>
      <trkpt lat="43.37078" lon="5.5101">
        <ele>143.8</ele>
        <time>2022-10-08T07:21:08Z</time>
      </trkpt>
      <trkpt lat="43.37078" lon="5.51026">
        <ele>144.66</ele>
        <time>2022-10-08T07:21:09Z</time>
      </trkpt>
      <trkpt lat="43.37078" lon="5.51042">
        <ele>144.72</ele>
        <time>2022-10-08T07:21:10Z</time>
      </trkpt>
      <trkpt lat="43.37076" lon="5.51057">
        <ele>144.73</ele>
        <time>2022-10-08T07:21:11Z</time>
      </trkpt>
      <trkpt lat="43.37072" lon="5.51071">
        <ele>144.81</ele>
        <time>2022-10-08T07:21:12Z</time>
      </trkpt>
      <trkpt lat="43.37065" lon="5.51085">
        <ele>145.97</ele>
        <time>2022-10-08T07:21:13Z</time>
      </trkpt>
      <trkpt lat="43.37056" lon="5.51098">
        <ele>146.01</ele>
        <time>2022-10-08T07:21:14Z</time>
      </trkpt>
      <trkpt lat="43.3704" lon="5.51124">
        <ele>147.65</ele>
        <time>2022-10-08T07:21:16Z</time>
      </trkpt>
      <trkpt lat="43.37033" lon="5.51135">
        <ele>147.68</ele>
        <time>2022-10-08T07:21:17Z</time>
      </trkpt>
      <trkpt lat="43.37024" lon="5.51142">
        <ele>147.45</ele>
        <time>2022-10-08T07:21:18Z</time>
      </trkpt>
      <trkpt lat="43.37015" lon="5.51145">
        <ele>147.47</ele>
        <time>2022-10-08T07:21:19Z</time>
      </trkpt>
      <trkpt lat="43.37006" lon="5.51143">
        <ele>147.51</ele>
        <time>2022-10-08T07:21:20Z</time>
      </trkpt>
      <trkpt lat="43.36998" lon="5.51138">
        <ele>147.54</ele>
        <time>2022-10-08T07:21:21Z</time>
      </trkpt>
      <trkpt lat="43.3699" lon="5.5113">
        <ele>147.59</ele>
        <time>2022-10-08T07:21:22Z</time>
      </trkpt>
      <trkpt lat="43.36981" lon="5.51123">
        <ele>148.49</ele>
        <time>2022-10-08T07:21:23Z</time>
      </trkpt>
      <trkpt lat="43.36971" lon="5.5112">
        <ele>148.54</ele>
        <time>2022-10-08T07:21:24Z</time>
      </trkpt>
      <trkpt lat="43.36959" lon="5.5112">
        <ele>148.59</ele>
        <time>2022-10-08T07:21:25Z</time>
      </trkpt>
      <trkpt lat="43.36948" lon="5.51125">
        <ele>150.03</ele>
        <time>2022-10-08T07:21:26Z</time>
      </trkpt>
      <trkpt lat="43.36937" lon="5.51133">
        <ele>150.1</ele>
        <time>2022-10-08T07:21:27Z</time>
      </trkpt>
      <trkpt lat="43.36926" lon="5.51144">
        <ele>151.11</ele>
        <time>2022-10-08T07:21:28Z</time>
      </trkpt>
      <trkpt lat="43.36917" lon="5.51158">
        <ele>151.11</ele>
        <time>2022-10-08T07:21:29Z</time>
      </trkpt>
      <trkpt lat="43.36907" lon="5.51172">
        <ele>152.67</ele>
        <time>2022-10-08T07:21:30Z</time>
      </trkpt>
      <trkpt lat="43.36896" lon="5.51186">
        <ele>152.71</ele>
        <time>2022-10-08T07:21:31Z</time>
      </trkpt>
      <trkpt lat="43.36884" lon="5.51199">
        <ele>152.74</ele>
        <time>2022-10-08T07:21:32Z</time>
      </trkpt>
      <trkpt lat="43.36871" lon="5.51208">
        <ele>152.77</ele>
        <time>2022-10-08T07:21:33Z</time>
      </trkpt>
      <trkpt lat="43.36858" lon="5.51214">
        <ele>152.83</ele>
        <time>2022-10-08T07:21:34Z</time>
      </trkpt>
      <trkpt lat="43.36843" lon="5.51218">
        <ele>154.07</ele>
        <time>2022-10-08T07:21:35Z</time>
      </trkpt>
      <trkpt lat="43.36828" lon="5.5122">
        <ele>154.14</ele>
        <time>2022-10-08T07:21:36Z</time>
      </trkpt>
      <trkpt lat="43.36814" lon="5.51223">
        <ele>154.2</ele>
        <time>2022-10-08T07:21:37Z</time>
      </trkpt>
      <trkpt lat="43.36799" lon="5.51229">
        <ele>155.47</ele>
        <time>2022-10-08T07:21:38Z</time>
      </trkpt>
      <trkpt lat="43.36786" lon="5.51237">
        <ele>155.55</ele>
        <time>2022-10-08T07:21:39Z</time>
      </trkpt>
      <trkpt lat="43.36774" lon="5.51249">
        <ele>155.58</ele>
        <time>2022-10-08T07:21:40Z</time>
      </trkpt>
      <trkpt lat="43.36764" lon="5.51263">
        <ele>155.66</ele>
        <time>2022-10-08T07:21:41Z</time>
      </trkpt>
      <trkpt lat="43.36756" lon="5.5128">
        <ele>156.54</ele>
        <time>2022-10-08T07:21:42Z</time>
      </trkpt>
      <trkpt lat="43.36749" lon="5.51297">
        <ele>156.58</ele>
        <time>2022-10-08T07:21:43Z</time>
      </trkpt>
      <trkpt lat="43.36742" lon="5.51313">
        <ele>156.31</ele>
        <time>2022-10-08T07:21:44Z</time>
      </trkpt>
      <trkpt lat="43.36729" lon="5.51341">
        <ele>157.37</ele>
        <time>2022-10-08T07:21:46Z</time>
      </trkpt>
      <trkpt lat="43.36726" lon="5.51355">
        <ele>157.43</ele>
        <time>2022-10-08T07:21:47Z</time>
      </trkpt>
      <trkpt lat="43.36725" lon="5.5137">
        <ele>157.46</ele>
        <time>2022-10-08T07:21:48Z</time>
      </trkpt>
      <trkpt lat="43.36728" lon="5.51385">
        <ele>157.53</ele>
        <time>2022-10-08T07:21:49Z</time>
      </trkpt>
      <trkpt lat="43.36732" lon="5.51401">
        <ele>157.57</ele>
        <time>2022-10-08T07:21:50Z</time>
      </trkpt>
      <trkpt lat="43.36736" lon="5.51415">
        <ele>157.62</ele>
        <time>2022-10-08T07:21:51Z</time>
      </trkpt>
      <trkpt lat="43.36741" lon="5.51427">
        <ele>157.66</ele>
        <time>2022-10-08T07:21:52Z</time>
      </trkpt>
      <trkpt lat="43.36748" lon="5.51435">
        <ele>157.7</ele>
        <time>2022-10-08T07:21:53Z</time>
      </trkpt>
      <trkpt lat="43.36756" lon="5.51438">
        <ele>158.85</ele>
        <time>2022-10-08T07:21:54Z</time>
      </trkpt>
      <trkpt lat="43.36764" lon="5.51434">
        <ele>158.87</ele>
        <time>2022-10-08T07:21:55Z</time>
      </trkpt>
      <trkpt lat="43.3677" lon="5.51426">
        <ele>158.92</ele>
        <time>2022-10-08T07:21:56Z</time>
      </trkpt>
      <trkpt lat="43.36772" lon="5.51415">
        <ele>160.06</ele>
        <time>2022-10-08T07:21:57Z</time>
      </trkpt>
      <trkpt lat="43.36772" lon="5.51402">
        <ele>160.12</ele>
        <time>2022-10-08T07:21:58Z</time>
      </trkpt>
      <trkpt lat="43.36772" lon="5.51389">
        <ele>160.11</ele>
        <time>2022-10-08T07:21:59Z</time>
      </trkpt>
      <trkpt lat="43.36775" lon="5.51377">
        <ele>160.13</ele>
        <time>2022-10-08T07:22:00Z</time>
      </trkpt>
      <trkpt lat="43.3678" lon="5.51368">
        <ele>160.15</ele>
        <time>2022-10-08T07:22:01Z</time>
      </trkpt>
      <trkpt lat="43.36787" lon="5.51362">
        <ele>160.19</ele>
        <time>2022-10-08T07:22:02Z</time>
      </trkpt>
      <trkpt lat="43.36795" lon="5.51361">
        <ele>160.25</ele>
        <time>2022-10-08T07:22:03Z</time>
      </trkpt>
      <trkpt lat="43.36803" lon="5.51365">
        <ele>160.34</ele>
        <time>2022-10-08T07:22:04Z</time>
      </trkpt>
      <trkpt lat="43.36809" lon="5.51374">
        <ele>161.46</ele>
        <time>2022-10-08T07:22:05Z</time>
      </trkpt>
      <trkpt lat="43.36815" lon="5.51386">
        <ele>161.52</ele>
        <time>2022-10-08T07:22:06Z</time>
      </trkpt>
      <trkpt lat="43.36822" lon="5.514">
        <ele>162.43</ele>
        <time>2022-10-08T07:22:07Z</time>
      </trkpt>
      <trkpt lat="43.36857" lon="5.51471">
        <ele>163.38</ele>
        <time>2022-10-08T07:22:12Z</time>
      </trkpt>
      <trkpt lat="43.36859" lon="5.51484">
        <ele>163.44</ele>
        <time>2022-10-08T07:22:13Z</time>
      </trkpt>
      <trkpt lat="43.3686" lon="5.51498">
        <ele>163.48</ele>
        <time>2022-10-08T07:22:14Z</time>
      </trkpt>
      <trkpt lat="43.3686" lon="5.51511">
        <ele>163.52</ele>
        <time>2022-10-08T07:22:15Z</time>
      </trkpt>
      <trkpt lat="43.36859" lon="5.51525">
        <ele>165.41</ele>
        <time>2022-10-08T07:22:16Z</time>
      </trkpt>
      <trkpt lat="43.36859" lon="5.51541">
        <ele>165.46</ele>
        <time>2022-10-08T07:22:17Z</time>
      </trkpt>
      <trkpt lat="43.36861" lon="5.51558">
        <ele>166.49</ele>
        <time>2022-10-08T07:22:18Z</time>
      </trkpt>
      <trkpt lat="43.36875" lon="5.51626">
        <ele>166.72</ele>
        <time>2022-10-08T07:22:22Z</time>
      </trkpt>
      <trkpt lat="43.36884" lon="5.51653">
        <ele>166.77</ele>
        <time>2022-10-08T07:22:24Z</time>
      </trkpt>
      <trkpt lat="43.36884" lon="5.51667">
        <ele>166.8</ele>
        <time>2022-10-08T07:22:25Z</time>
      </trkpt>
      <trkpt lat="43.36882" lon="5.51681">
        <ele>167.6</ele>
        <time>2022-10-08T07:22:26Z</time>
      </trkpt>
      <trkpt lat="43.36878" lon="5.51692">
        <ele>167.61</ele>
        <time>2022-10-08T07:22:27Z</time>
      </trkpt>
      <trkpt lat="43.3687" lon="5.51701">
        <ele>167.69</ele>
        <time>2022-10-08T07:22:28Z</time>
      </trkpt>
      <trkpt lat="43.3686" lon="5.51708">
        <ele>168.71</ele>
        <time>2022-10-08T07:22:29Z</time>
      </trkpt>
      <trkpt lat="43.36849" lon="5.51715">
        <ele>168.81</ele>
        <time>2022-10-08T07:22:30Z</time>
      </trkpt>
      <trkpt lat="43.36838" lon="5.51724">
        <ele>169.59</ele>
        <time>2022-10-08T07:22:31Z</time>
      </trkpt>
      <trkpt lat="43.36828" lon="5.51736">
        <ele>170.79</ele>
        <time>2022-10-08T07:22:32Z</time>
      </trkpt>
      <trkpt lat="43.36818" lon="5.51749">
        <ele>170.88</ele>
        <time>2022-10-08T07:22:33Z</time>
      </trkpt>
      <trkpt lat="43.3681" lon="5.51763">
        <ele>171.85</ele>
        <time>2022-10-08T07:22:34Z</time>
      </trkpt>
      <trkpt lat="43.36805" lon="5.51779">
        <ele>171.6</ele>
        <time>2022-10-08T07:22:35Z</time>
      </trkpt>
      <trkpt lat="43.368" lon="5.51795">
        <ele>171.63</ele>
        <time>2022-10-08T07:22:36Z</time>
      </trkpt>
      <trkpt lat="43.36795" lon="5.51808">
        <ele>171.68</ele>
        <time>2022-10-08T07:22:37Z</time>
      </trkpt>
      <trkpt lat="43.36788" lon="5.51818">
        <ele>171.71</ele>
        <time>2022-10-08T07:22:38Z</time>
      </trkpt>
      <trkpt lat="43.36778" lon="5.51826">
        <ele>171.79</ele>
        <time>2022-10-08T07:22:39Z</time>
      </trkpt>
      <trkpt lat="43.36757" lon="5.51839">
        <ele>173.01</ele>
        <time>2022-10-08T07:22:41Z</time>
      </trkpt>
      <trkpt lat="43.36748" lon="5.51849">
        <ele>173.06</ele>
        <time>2022-10-08T07:22:42Z</time>
      </trkpt>
      <trkpt lat="43.3674" lon="5.51862">
        <ele>173.11</ele>
        <time>2022-10-08T07:22:43Z</time>
      </trkpt>
      <trkpt lat="43.36738" lon="5.51876">
        <ele>173.16</ele>
        <time>2022-10-08T07:22:44Z</time>
      </trkpt>
      <trkpt lat="43.36741" lon="5.51888">
        <ele>174.16</ele>
        <time>2022-10-08T07:22:45Z</time>
      </trkpt>
      <trkpt lat="43.36748" lon="5.51899">
        <ele>174.14</ele>
        <time>2022-10-08T07:22:46Z</time>
      </trkpt>
      <trkpt lat="43.36757" lon="5.51906">
        <ele>174.17</ele>
        <time>2022-10-08T07:22:47Z</time>
      </trkpt>
      <trkpt lat="43.36767" lon="5.51912">
        <ele>175.17</ele>
        <time>2022-10-08T07:22:48Z</time>
      </trkpt>
      <trkpt lat="43.36777" lon="5.51914">
        <ele>175.22</ele>
        <time>2022-10-08T07:22:49Z</time>
      </trkpt>
      <trkpt lat="43.36786" lon="5.51911">
        <ele>175.24</ele>
        <time>2022-10-08T07:22:50Z</time>
      </trkpt>
      <trkpt lat="43.36793" lon="5.51903">
        <ele>175.29</ele>
        <time>2022-10-08T07:22:51Z</time>
      </trkpt>
      <trkpt lat="43.36799" lon="5.51891">
        <ele>176.27</ele>
        <time>2022-10-08T07:22:52Z</time>
      </trkpt>
      <trkpt lat="43.36804" lon="5.5188">
        <ele>176.3</ele>
        <time>2022-10-08T07:22:53Z</time>
      </trkpt>
      <trkpt lat="43.36811" lon="5.5187">
        <ele>176.38</ele>
        <time>2022-10-08T07:22:54Z</time>
      </trkpt>
      <trkpt lat="43.36818" lon="5.51864">
        <ele>176.46</ele>
        <time>2022-10-08T07:22:55Z</time>
      </trkpt>
      <trkpt lat="43.36826" lon="5.51864">
        <ele>177.28</ele>
        <time>2022-10-08T07:22:56Z</time>
      </trkpt>
      <trkpt lat="43.36833" lon="5.51868">
        <ele>177.38</ele>
        <time>2022-10-08T07:22:57Z</time>
      </trkpt>
      <trkpt lat="43.36839" lon="5.51877">
        <ele>177.35</ele>
        <time>2022-10-08T07:22:58Z</time>
      </trkpt>
      <trkpt lat="43.36841" lon="5.51889">
        <ele>178.43</ele>
        <time>2022-10-08T07:22:59Z</time>
      </trkpt>
      <trkpt lat="43.3684" lon="5.51902">
        <ele>179.68</ele>
        <time>2022-10-08T07:23:00Z</time>
      </trkpt>
      <trkpt lat="43.36836" lon="5.51917">
        <ele>179.72</ele>
        <time>2022-10-08T07:23:01Z</time>
      </trkpt>
      <trkpt lat="43.3683" lon="5.51933">
        <ele>181.62</ele>
        <time>2022-10-08T07:23:02Z</time>
      </trkpt>
      <trkpt lat="43.3682" lon="5.51969">
        <ele>183.01</ele>
        <time>2022-10-08T07:23:04Z</time>
      </trkpt>
      <trkpt lat="43.36817" lon="5.51988">
        <ele>183.91</ele>
        <time>2022-10-08T07:23:05Z</time>
      </trkpt>
      <trkpt lat="43.36816" lon="5.52006">
        <ele>183.92</ele>
        <time>2022-10-08T07:23:06Z</time>
      </trkpt>
      <trkpt lat="43.36817" lon="5.52023">
        <ele>183.96</ele>
        <time>2022-10-08T07:23:07Z</time>
      </trkpt>
      <trkpt lat="43.36821" lon="5.52037">
        <ele>183.99</ele>
        <time>2022-10-08T07:23:08Z</time>
      </trkpt>
      <trkpt lat="43.36828" lon="5.52049">
        <ele>185.23</ele>
        <time>2022-10-08T07:23:09Z</time>
      </trkpt>
      <trkpt lat="43.36838" lon="5.52058">
        <ele>186.25</ele>
        <time>2022-10-08T07:23:10Z</time>
      </trkpt>
      <trkpt lat="43.36849" lon="5.52066">
        <ele>186.35</ele>
        <time>2022-10-08T07:23:11Z</time>
      </trkpt>
      <trkpt lat="43.36858" lon="5.52074">
        <ele>186.39</ele>
        <time>2022-10-08T07:23:12Z</time>
      </trkpt>
      <trkpt lat="43.36864" lon="5.52085">
        <ele>186.4</ele>
        <time>2022-10-08T07:23:13Z</time>
      </trkpt>
      <trkpt lat="43.36868" lon="5.52096">
        <ele>186.44</ele>
        <time>2022-10-08T07:23:14Z</time>
      </trkpt>
      <trkpt lat="43.36869" lon="5.52109">
        <ele>187.52</ele>
        <time>2022-10-08T07:23:15Z</time>
      </trkpt>
      <trkpt lat="43.36866" lon="5.52121">
        <ele>187.6</ele>
        <time>2022-10-08T07:23:16Z</time>
      </trkpt>
      <trkpt lat="43.36859" lon="5.52132">
        <ele>187.63</ele>
        <time>2022-10-08T07:23:17Z</time>
      </trkpt>
      <trkpt lat="43.3685" lon="5.52143">
        <ele>189.42</ele>
        <time>2022-10-08T07:23:18Z</time>
      </trkpt>
      <trkpt lat="43.36842" lon="5.52156">
        <ele>189.51</ele>
        <time>2022-10-08T07:23:19Z</time>
      </trkpt>
      <trkpt lat="43.36834" lon="5.52171">
        <ele>191.11</ele>
        <time>2022-10-08T07:23:20Z</time>
      </trkpt>
      <trkpt lat="43.36829" lon="5.52189">
        <ele>192.28</ele>
        <time>2022-10-08T07:23:21Z</time>
      </trkpt>
      <trkpt lat="43.36824" lon="5.52208">
        <ele>193.16</ele>
        <time>2022-10-08T07:23:22Z</time>
      </trkpt>
      <trkpt lat="43.3682" lon="5.52229">
        <ele>194.33</ele>
        <time>2022-10-08T07:23:23Z</time>
      </trkpt>
      <trkpt lat="43.36812" lon="5.52285">
        <ele>195</ele>
        <time>2022-10-08T07:23:26Z</time>
      </trkpt>
      <trkpt lat="43.36815" lon="5.52302">
        <ele>196.12</ele>
        <time>2022-10-08T07:23:27Z</time>
      </trkpt>
      <trkpt lat="43.3682" lon="5.52319">
        <ele>196.2</ele>
        <time>2022-10-08T07:23:28Z</time>
      </trkpt>
      <trkpt lat="43.3683" lon="5.52349">
        <ele>196.28</ele>
        <time>2022-10-08T07:23:30Z</time>
      </trkpt>
      <trkpt lat="43.3683" lon="5.52364">
        <ele>197.67</ele>
        <time>2022-10-08T07:23:31Z</time>
      </trkpt>
      <trkpt lat="43.36827" lon="5.52379">
        <ele>197.68</ele>
        <time>2022-10-08T07:23:32Z</time>
      </trkpt>
      <trkpt lat="43.36821" lon="5.52395">
        <ele>199.36</ele>
        <time>2022-10-08T07:23:33Z</time>
      </trkpt>
      <trkpt lat="43.36815" lon="5.5241">
        <ele>199.46</ele>
        <time>2022-10-08T07:23:34Z</time>
      </trkpt>
      <trkpt lat="43.36808" lon="5.52425">
        <ele>199.49</ele>
        <time>2022-10-08T07:23:35Z</time>
      </trkpt>
      <trkpt lat="43.368" lon="5.52438">
        <ele>200.98</ele>
        <time>2022-10-08T07:23:36Z</time>
      </trkpt>
      <trkpt lat="43.3679" lon="5.52449">
        <ele>201</ele>
        <time>2022-10-08T07:23:37Z</time>
      </trkpt>
      <trkpt lat="43.36769" lon="5.5247">
        <ele>202.78</ele>
        <time>2022-10-08T07:23:39Z</time>
      </trkpt>
      <trkpt lat="43.36761" lon="5.52482">
        <ele>202.81</ele>
        <time>2022-10-08T07:23:40Z</time>
      </trkpt>
      <trkpt lat="43.36755" lon="5.52495">
        <ele>202.89</ele>
        <time>2022-10-08T07:23:41Z</time>
      </trkpt>
      <trkpt lat="43.36754" lon="5.52509">
        <ele>202.92</ele>
        <time>2022-10-08T07:23:42Z</time>
      </trkpt>
      <trkpt lat="43.36756" lon="5.52523">
        <ele>204.12</ele>
        <time>2022-10-08T07:23:43Z</time>
      </trkpt>
      <trkpt lat="43.36762" lon="5.52536">
        <ele>205.29</ele>
        <time>2022-10-08T07:23:44Z</time>
      </trkpt>
      <trkpt lat="43.36771" lon="5.52547">
        <ele>205.4</ele>
        <time>2022-10-08T07:23:45Z</time>
      </trkpt>
      <trkpt lat="43.36782" lon="5.52554">
        <ele>206.26</ele>
        <time>2022-10-08T07:23:46Z</time>
      </trkpt>
      <trkpt lat="43.36795" lon="5.52557">
        <ele>206.4</ele>
        <time>2022-10-08T07:23:47Z</time>
      </trkpt>
      <trkpt lat="43.36808" lon="5.52558">
        <ele>207.79</ele>
        <time>2022-10-08T07:23:48Z</time>
      </trkpt>
      <trkpt lat="43.36821" lon="5.52561">
        <ele>208.85</ele>
        <time>2022-10-08T07:23:49Z</time>
      </trkpt>
      <trkpt lat="43.36835" lon="5.52567">
        <ele>208.89</ele>
        <time>2022-10-08T07:23:50Z</time>
      </trkpt>
      <trkpt lat="43.36861" lon="5.52579">
        <ele>210.51</ele>
        <time>2022-10-08T07:23:52Z</time>
      </trkpt>
      <trkpt lat="43.36883" lon="5.52592">
        <ele>210.63</ele>
        <time>2022-10-08T07:23:54Z</time>
      </trkpt>
      <trkpt lat="43.3689" lon="5.526">
        <ele>210.67</ele>
        <time>2022-10-08T07:23:55Z</time>
      </trkpt>
      <trkpt lat="43.36893" lon="5.52611">
        <ele>210.73</ele>
        <time>2022-10-08T07:23:56Z</time>
      </trkpt>
      <trkpt lat="43.36892" lon="5.52623">
        <ele>210.81</ele>
        <time>2022-10-08T07:23:57Z</time>
      </trkpt>
      <trkpt lat="43.36887" lon="5.52634">
        <ele>212.2</ele>
        <time>2022-10-08T07:23:58Z</time>
      </trkpt>
      <trkpt lat="43.3688" lon="5.52646">
        <ele>212.27</ele>
        <time>2022-10-08T07:23:59Z</time>
      </trkpt>
      <trkpt lat="43.36873" lon="5.5266">
        <ele>213.86</ele>
        <time>2022-10-08T07:24:00Z</time>
      </trkpt>
      <trkpt lat="43.36866" lon="5.52675">
        <ele>214.83</ele>
        <time>2022-10-08T07:24:01Z</time>
      </trkpt>
      <trkpt lat="43.3686" lon="5.52692">
        <ele>215.75</ele>
        <time>2022-10-08T07:24:02Z</time>
      </trkpt>
      <trkpt lat="43.36856" lon="5.5271">
        <ele>215.83</ele>
        <time>2022-10-08T07:24:03Z</time>
      </trkpt>
      <trkpt lat="43.36854" lon="5.52728">
        <ele>215.87</ele>
        <time>2022-10-08T07:24:04Z</time>
      </trkpt>
      <trkpt lat="43.36856" lon="5.52745">
        <ele>215.86</ele>
        <time>2022-10-08T07:24:05Z</time>
      </trkpt>
      <trkpt lat="43.36862" lon="5.52763">
        <ele>217.28</ele>
        <time>2022-10-08T07:24:06Z</time>
      </trkpt>
      <trkpt lat="43.3687" lon="5.5278">
        <ele>217.28</ele>
        <time>2022-10-08T07:24:07Z</time>
      </trkpt>
      <trkpt lat="43.3688" lon="5.52797">
        <ele>218.46</ele>
        <time>2022-10-08T07:24:08Z</time>
      </trkpt>
      <trkpt lat="43.36892" lon="5.52814">
        <ele>218.61</ele>
        <time>2022-10-08T07:24:09Z</time>
      </trkpt>
      <trkpt lat="43.36904" lon="5.5283">
        <ele>219.5</ele>
        <time>2022-10-08T07:24:10Z</time>
      </trkpt>
      <trkpt lat="43.36917" lon="5.52844">
        <ele>219.65</ele>
        <time>2022-10-08T07:24:11Z</time>
      </trkpt>
      <trkpt lat="43.3698" lon="5.52915">
        <ele>220.79</ele>
        <time>2022-10-08T07:24:16Z</time>
      </trkpt>
      <trkpt lat="43.36989" lon="5.52932">
        <ele>220.86</ele>
        <time>2022-10-08T07:24:17Z</time>
      </trkpt>
      <trkpt lat="43.36996" lon="5.5295">
        <ele>220.88</ele>
        <time>2022-10-08T07:24:18Z</time>
      </trkpt>
      <trkpt lat="43.37002" lon="5.52968">
        <ele>220.9</ele>
        <time>2022-10-08T07:24:19Z</time>
      </trkpt>
      <trkpt lat="43.37004" lon="5.52986">
        <ele>220.95</ele>
        <time>2022-10-08T07:24:20Z</time>
      </trkpt>
      <trkpt lat="43.37004" lon="5.53007">
        <ele>220.99</ele>
        <time>2022-10-08T07:24:21Z</time>
      </trkpt>
      <trkpt lat="43.37002" lon="5.53028">
        <ele>222.58</ele>
        <time>2022-10-08T07:24:22Z</time>
      </trkpt>
      <trkpt lat="43.37" lon="5.53072">
        <ele>223.72</ele>
        <time>2022-10-08T07:24:24Z</time>
      </trkpt>
      <trkpt lat="43.36999" lon="5.53184">
        <ele>225.83</ele>
        <time>2022-10-08T07:24:29Z</time>
      </trkpt>
      <trkpt lat="43.37002" lon="5.53203">
        <ele>225.88</ele>
        <time>2022-10-08T07:24:30Z</time>
      </trkpt>
      <trkpt lat="43.37007" lon="5.5322">
        <ele>225.92</ele>
        <time>2022-10-08T07:24:31Z</time>
      </trkpt>
      <trkpt lat="43.37016" lon="5.53235">
        <ele>225.98</ele>
        <time>2022-10-08T07:24:32Z</time>
      </trkpt>
      <trkpt lat="43.37027" lon="5.53246">
        <ele>226.81</ele>
        <time>2022-10-08T07:24:33Z</time>
      </trkpt>
      <trkpt lat="43.37039" lon="5.53255">
        <ele>226.86</ele>
        <time>2022-10-08T07:24:34Z</time>
      </trkpt>
      <trkpt lat="43.37053" lon="5.53264">
        <ele>226.92</ele>
        <time>2022-10-08T07:24:35Z</time>
      </trkpt>
      <trkpt lat="43.37065" lon="5.53274">
        <ele>227.94</ele>
        <time>2022-10-08T07:24:36Z</time>
      </trkpt>
      <trkpt lat="43.37077" lon="5.53287">
        <ele>228.06</ele>
        <time>2022-10-08T07:24:37Z</time>
      </trkpt>
      <trkpt lat="43.37086" lon="5.53303">
        <ele>229.28</ele>
        <time>2022-10-08T07:24:38Z</time>
      </trkpt>
      <trkpt lat="43.37094" lon="5.5332">
        <ele>229.37</ele>
        <time>2022-10-08T07:24:39Z</time>
      </trkpt>
      <trkpt lat="43.37101" lon="5.53339">
        <ele>229.41</ele>
        <time>2022-10-08T07:24:40Z</time>
      </trkpt>
      <trkpt lat="43.37106" lon="5.53358">
        <ele>230.25</ele>
        <time>2022-10-08T07:24:41Z</time>
      </trkpt>
      <trkpt lat="43.37108" lon="5.53378">
        <ele>230.34</ele>
        <time>2022-10-08T07:24:42Z</time>
      </trkpt>
      <trkpt lat="43.37108" lon="5.53398">
        <ele>231.72</ele>
        <time>2022-10-08T07:24:43Z</time>
      </trkpt>
      <trkpt lat="43.37107" lon="5.53418">
        <ele>232.67</ele>
        <time>2022-10-08T07:24:44Z</time>
      </trkpt>
      <trkpt lat="43.37107" lon="5.53438">
        <ele>232.76</ele>
        <time>2022-10-08T07:24:45Z</time>
      </trkpt>
      <trkpt lat="43.37109" lon="5.53478">
        <ele>234.08</ele>
        <time>2022-10-08T07:24:47Z</time>
      </trkpt>
      <trkpt lat="43.37112" lon="5.53497">
        <ele>234.97</ele>
        <time>2022-10-08T07:24:48Z</time>
      </trkpt>
      <trkpt lat="43.37115" lon="5.53515">
        <ele>235.05</ele>
        <time>2022-10-08T07:24:49Z</time>
      </trkpt>
      <trkpt lat="43.3712" lon="5.53531">
        <ele>235.12</ele>
        <time>2022-10-08T07:24:50Z</time>
      </trkpt>
      <trkpt lat="43.37126" lon="5.53545">
        <ele>235.21</ele>
        <time>2022-10-08T07:24:51Z</time>
      </trkpt>
      <trkpt lat="43.37134" lon="5.53556">
        <ele>235.2</ele>
        <time>2022-10-08T07:24:52Z</time>
      </trkpt>
      <trkpt lat="43.37144" lon="5.53564">
        <ele>235.29</ele>
        <time>2022-10-08T07:24:53Z</time>
      </trkpt>
      <trkpt lat="43.37156" lon="5.53567">
        <ele>236.39</ele>
        <time>2022-10-08T07:24:54Z</time>
      </trkpt>
      <trkpt lat="43.37168" lon="5.53569">
        <ele>237.29</ele>
        <time>2022-10-08T07:24:55Z</time>
      </trkpt>
      <trkpt lat="43.37181" lon="5.5357">
        <ele>237.33</ele>
        <time>2022-10-08T07:24:56Z</time>
      </trkpt>
      <trkpt lat="43.37206" lon="5.53575">
        <ele>239.06</ele>
        <time>2022-10-08T07:24:58Z</time>
      </trkpt>
      <trkpt lat="43.37218" lon="5.5358">
        <ele>239.13</ele>
        <time>2022-10-08T07:24:59Z</time>
      </trkpt>
      <trkpt lat="43.37229" lon="5.53588">
        <ele>240.27</ele>
        <time>2022-10-08T07:25:00Z</time>
      </trkpt>
      <trkpt lat="43.37237" lon="5.536">
        <ele>240.27</ele>
        <time>2022-10-08T07:25:01Z</time>
      </trkpt>
      <trkpt lat="43.37244" lon="5.53614">
        <ele>241.16</ele>
        <time>2022-10-08T07:25:02Z</time>
      </trkpt>
      <trkpt lat="43.3725" lon="5.53631">
        <ele>242.41</ele>
        <time>2022-10-08T07:25:03Z</time>
      </trkpt>
      <trkpt lat="43.37256" lon="5.53649">
        <ele>242.45</ele>
        <time>2022-10-08T07:25:04Z</time>
      </trkpt>
      <trkpt lat="43.37277" lon="5.53705">
        <ele>245.05</ele>
        <time>2022-10-08T07:25:07Z</time>
      </trkpt>
      <trkpt lat="43.37288" lon="5.53742">
        <ele>246.2</ele>
        <time>2022-10-08T07:25:09Z</time>
      </trkpt>
      <trkpt lat="43.37299" lon="5.53773">
        <ele>246.33</ele>
        <time>2022-10-08T07:25:11Z</time>
      </trkpt>
      <trkpt lat="43.37307" lon="5.53784">
        <ele>247.84</ele>
        <time>2022-10-08T07:25:12Z</time>
      </trkpt>
      <trkpt lat="43.37317" lon="5.53791">
        <ele>247.82</ele>
        <time>2022-10-08T07:25:13Z</time>
      </trkpt>
      <trkpt lat="43.3733" lon="5.53794">
        <ele>248.71</ele>
        <time>2022-10-08T07:25:14Z</time>
      </trkpt>
      <trkpt lat="43.37343" lon="5.53793">
        <ele>250.04</ele>
        <time>2022-10-08T07:25:15Z</time>
      </trkpt>
      <trkpt lat="43.37358" lon="5.5379">
        <ele>250.06</ele>
        <time>2022-10-08T07:25:16Z</time>
      </trkpt>
      <trkpt lat="43.37373" lon="5.53786">
        <ele>251.24</ele>
        <time>2022-10-08T07:25:17Z</time>
      </trkpt>
      <trkpt lat="43.37404" lon="5.53775">
        <ele>252.47</ele>
        <time>2022-10-08T07:25:19Z</time>
      </trkpt>
      <trkpt lat="43.37448" lon="5.53753">
        <ele>253.47</ele>
        <time>2022-10-08T07:25:22Z</time>
      </trkpt>
      <trkpt lat="43.37462" lon="5.53748">
        <ele>254.57</ele>
        <time>2022-10-08T07:25:23Z</time>
      </trkpt>
      <trkpt lat="43.37476" lon="5.53747">
        <ele>254.58</ele>
        <time>2022-10-08T07:25:24Z</time>
      </trkpt>
      <trkpt lat="43.3749" lon="5.53749">
        <ele>254.63</ele>
        <time>2022-10-08T07:25:25Z</time>
      </trkpt>
      <trkpt lat="43.37504" lon="5.53753">
        <ele>255.71</ele>
        <time>2022-10-08T07:25:26Z</time>
      </trkpt>
      <trkpt lat="43.37518" lon="5.5376">
        <ele>256.1</ele>
        <time>2022-10-08T07:25:27Z</time>
      </trkpt>
      <trkpt lat="43.37533" lon="5.53768">
        <ele>256.07</ele>
        <time>2022-10-08T07:25:28Z</time>
      </trkpt>
      <trkpt lat="43.37546" lon="5.53778">
        <ele>256.16</ele>
        <time>2022-10-08T07:25:29Z</time>
      </trkpt>
      <trkpt lat="43.3756" lon="5.5379">
        <ele>257.06</ele>
        <time>2022-10-08T07:25:30Z</time>
      </trkpt>
      <trkpt lat="43.37572" lon="5.53804">
        <ele>257.14</ele>
        <time>2022-10-08T07:25:31Z</time>
      </trkpt>
      <trkpt lat="43.37644" lon="5.5387">
        <ele>259.55</ele>
        <time>2022-10-08T07:25:36Z</time>
      </trkpt>
      <trkpt lat="43.37704" lon="5.53911">
        <ele>259.75</ele>
        <time>2022-10-08T07:25:40Z</time>
      </trkpt>
      <trkpt lat="43.37718" lon="5.53916">
        <ele>259.81</ele>
        <time>2022-10-08T07:25:41Z</time>
      </trkpt>
      <trkpt lat="43.37732" lon="5.53916">
        <ele>259.84</ele>
        <time>2022-10-08T07:25:42Z</time>
      </trkpt>
      <trkpt lat="43.37746" lon="5.53911">
        <ele>260.89</ele>
        <time>2022-10-08T07:25:43Z</time>
      </trkpt>
      <trkpt lat="43.37758" lon="5.53901">
        <ele>260.94</ele>
        <time>2022-10-08T07:25:44Z</time>
      </trkpt>
      <trkpt lat="43.37769" lon="5.53889">
        <ele>260.99</ele>
        <time>2022-10-08T07:25:45Z</time>
      </trkpt>
      <trkpt lat="43.3778" lon="5.53878">
        <ele>261.91</ele>
        <time>2022-10-08T07:25:46Z</time>
      </trkpt>
      <trkpt lat="43.37792" lon="5.5387">
        <ele>261.94</ele>
        <time>2022-10-08T07:25:47Z</time>
      </trkpt>
      <trkpt lat="43.37803" lon="5.53866">
        <ele>261.96</ele>
        <time>2022-10-08T07:25:48Z</time>
      </trkpt>
      <trkpt lat="43.37815" lon="5.53866">
        <ele>262.01</ele>
        <time>2022-10-08T07:25:49Z</time>
      </trkpt>
      <trkpt lat="43.37828" lon="5.53872">
        <ele>262.95</ele>
        <time>2022-10-08T07:25:50Z</time>
      </trkpt>
      <trkpt lat="43.37838" lon="5.53882">
        <ele>263</ele>
        <time>2022-10-08T07:25:51Z</time>
      </trkpt>
      <trkpt lat="43.37846" lon="5.53895">
        <ele>262.99</ele>
        <time>2022-10-08T07:25:52Z</time>
      </trkpt>
      <trkpt lat="43.37849" lon="5.5391">
        <ele>263.89</ele>
        <time>2022-10-08T07:25:53Z</time>
      </trkpt>
      <trkpt lat="43.37849" lon="5.53927">
        <ele>263.89</ele>
        <time>2022-10-08T07:25:54Z</time>
      </trkpt>
      <trkpt lat="43.37848" lon="5.53945">
        <ele>263.98</ele>
        <time>2022-10-08T07:25:55Z</time>
      </trkpt>
      <trkpt lat="43.37846" lon="5.53965">
        <ele>265.12</ele>
        <time>2022-10-08T07:25:56Z</time>
      </trkpt>
      <trkpt lat="43.37845" lon="5.54029">
        <ele>268.14</ele>
        <time>2022-10-08T07:25:59Z</time>
      </trkpt>
      <trkpt lat="43.37847" lon="5.54051">
        <ele>269.58</ele>
        <time>2022-10-08T07:26:00Z</time>
      </trkpt>
      <trkpt lat="43.37852" lon="5.54073">
        <ele>269.61</ele>
        <time>2022-10-08T07:26:01Z</time>
      </trkpt>
      <trkpt lat="43.3786" lon="5.54093">
        <ele>270.73</ele>
        <time>2022-10-08T07:26:02Z</time>
      </trkpt>
      <trkpt lat="43.37871" lon="5.54112">
        <ele>270.81</ele>
        <time>2022-10-08T07:26:03Z</time>
      </trkpt>
      <trkpt lat="43.37883" lon="5.54128">
        <ele>272.11</ele>
        <time>2022-10-08T07:26:04Z</time>
      </trkpt>
      <trkpt lat="43.37897" lon="5.54143">
        <ele>272.15</ele>
        <time>2022-10-08T07:26:05Z</time>
      </trkpt>
      <trkpt lat="43.37912" lon="5.54156">
        <ele>273.87</ele>
        <time>2022-10-08T07:26:06Z</time>
      </trkpt>
      <trkpt lat="43.37928" lon="5.54167">
        <ele>273.96</ele>
        <time>2022-10-08T07:26:07Z</time>
      </trkpt>
      <trkpt lat="43.37944" lon="5.54178">
        <ele>274.98</ele>
        <time>2022-10-08T07:26:08Z</time>
      </trkpt>
      <trkpt lat="43.37975" lon="5.54201">
        <ele>275.92</ele>
        <time>2022-10-08T07:26:10Z</time>
      </trkpt>
      <trkpt lat="43.37989" lon="5.54217">
        <ele>276.79</ele>
        <time>2022-10-08T07:26:11Z</time>
      </trkpt>
      <trkpt lat="43.38" lon="5.54237">
        <ele>276.82</ele>
        <time>2022-10-08T07:26:12Z</time>
      </trkpt>
      <trkpt lat="43.38009" lon="5.54259">
        <ele>276.92</ele>
        <time>2022-10-08T07:26:13Z</time>
      </trkpt>
      <trkpt lat="43.38016" lon="5.54282">
        <ele>278.27</ele>
        <time>2022-10-08T07:26:14Z</time>
      </trkpt>
      <trkpt lat="43.3802" lon="5.54305">
        <ele>279.35</ele>
        <time>2022-10-08T07:26:15Z</time>
      </trkpt>
      <trkpt lat="43.38025" lon="5.54328">
        <ele>279.43</ele>
        <time>2022-10-08T07:26:16Z</time>
      </trkpt>
      <trkpt lat="43.38032" lon="5.5435">
        <ele>280.79</ele>
        <time>2022-10-08T07:26:17Z</time>
      </trkpt>
      <trkpt lat="43.38041" lon="5.54369">
        <ele>280.86</ele>
        <time>2022-10-08T07:26:18Z</time>
      </trkpt>
      <trkpt lat="43.38052" lon="5.54386">
        <ele>280.85</ele>
        <time>2022-10-08T07:26:19Z</time>
      </trkpt>
      <trkpt lat="43.38064" lon="5.54401">
        <ele>282.64</ele>
        <time>2022-10-08T07:26:20Z</time>
      </trkpt>
      <trkpt lat="43.38078" lon="5.54413">
        <ele>282.72</ele>
        <time>2022-10-08T07:26:21Z</time>
      </trkpt>
      <trkpt lat="43.38093" lon="5.54423">
        <ele>284.58</ele>
        <time>2022-10-08T07:26:22Z</time>
      </trkpt>
      <trkpt lat="43.38108" lon="5.54432">
        <ele>284.59</ele>
        <time>2022-10-08T07:26:23Z</time>
      </trkpt>
      <trkpt lat="43.38123" lon="5.54442">
        <ele>285.06</ele>
        <time>2022-10-08T07:26:24Z</time>
      </trkpt>
      <trkpt lat="43.38136" lon="5.54455">
        <ele>285.1</ele>
        <time>2022-10-08T07:26:25Z</time>
      </trkpt>
      <trkpt lat="43.38146" lon="5.54471">
        <ele>286.2</ele>
        <time>2022-10-08T07:26:26Z</time>
      </trkpt>
      <trkpt lat="43.38156" lon="5.54489">
        <ele>287.06</ele>
        <time>2022-10-08T07:26:27Z</time>
      </trkpt>
      <trkpt lat="43.38165" lon="5.54508">
        <ele>287.1</ele>
        <time>2022-10-08T07:26:28Z</time>
      </trkpt>
      <trkpt lat="43.38182" lon="5.54548">
        <ele>288.58</ele>
        <time>2022-10-08T07:26:30Z</time>
      </trkpt>
      <trkpt lat="43.38199" lon="5.54584">
        <ele>290.07</ele>
        <time>2022-10-08T07:26:32Z</time>
      </trkpt>
      <trkpt lat="43.38215" lon="5.54615">
        <ele>291.1</ele>
        <time>2022-10-08T07:26:34Z</time>
      </trkpt>
      <trkpt lat="43.38225" lon="5.54626">
        <ele>291.18</ele>
        <time>2022-10-08T07:26:35Z</time>
      </trkpt>
      <trkpt lat="43.38236" lon="5.54632">
        <ele>291.14</ele>
        <time>2022-10-08T07:26:36Z</time>
      </trkpt>
      <trkpt lat="43.38257" lon="5.54643">
        <ele>292.16</ele>
        <time>2022-10-08T07:26:38Z</time>
      </trkpt>
      <trkpt lat="43.38265" lon="5.54652">
        <ele>292.24</ele>
        <time>2022-10-08T07:26:39Z</time>
      </trkpt>
      <trkpt lat="43.3827" lon="5.54665">
        <ele>293.2</ele>
        <time>2022-10-08T07:26:40Z</time>
      </trkpt>
      <trkpt lat="43.38272" lon="5.54681">
        <ele>293.28</ele>
        <time>2022-10-08T07:26:41Z</time>
      </trkpt>
      <trkpt lat="43.38272" lon="5.54699">
        <ele>294.4</ele>
        <time>2022-10-08T07:26:42Z</time>
      </trkpt>
      <trkpt lat="43.38271" lon="5.54717">
        <ele>295.57</ele>
        <time>2022-10-08T07:26:43Z</time>
      </trkpt>
      <trkpt lat="43.38271" lon="5.54735">
        <ele>295.66</ele>
        <time>2022-10-08T07:26:44Z</time>
      </trkpt>
      <trkpt lat="43.38272" lon="5.54752">
        <ele>296.51</ele>
        <time>2022-10-08T07:26:45Z</time>
      </trkpt>
      <trkpt lat="43.38276" lon="5.54768">
        <ele>296.53</ele>
        <time>2022-10-08T07:26:46Z</time>
      </trkpt>
      <trkpt lat="43.38282" lon="5.54782">
        <ele>297.49</ele>
        <time>2022-10-08T07:26:47Z</time>
      </trkpt>
      <trkpt lat="43.38291" lon="5.54793">
        <ele>297.47</ele>
        <time>2022-10-08T07:26:48Z</time>
      </trkpt>
      <trkpt lat="43.383" lon="5.54803">
        <ele>297.94</ele>
        <time>2022-10-08T07:26:49Z</time>
      </trkpt>
      <trkpt lat="43.3831" lon="5.54811">
        <ele>297.94</ele>
        <time>2022-10-08T07:26:50Z</time>
      </trkpt>
      <trkpt lat="43.38321" lon="5.54816">
        <ele>298.95</ele>
        <time>2022-10-08T07:26:51Z</time>
      </trkpt>
      <trkpt lat="43.38332" lon="5.54817">
        <ele>298.99</ele>
        <time>2022-10-08T07:26:52Z</time>
      </trkpt>
      <trkpt lat="43.38342" lon="5.54812">
        <ele>299.02</ele>
        <time>2022-10-08T07:26:53Z</time>
      </trkpt>
      <trkpt lat="43.3835" lon="5.54803">
        <ele>300.11</ele>
        <time>2022-10-08T07:26:54Z</time>
      </trkpt>
      <trkpt lat="43.38358" lon="5.54793">
        <ele>300.19</ele>
        <time>2022-10-08T07:26:55Z</time>
      </trkpt>
      <trkpt lat="43.38367" lon="5.54784">
        <ele>300.22</ele>
        <time>2022-10-08T07:26:56Z</time>
      </trkpt>
      <trkpt lat="43.38375" lon="5.54779">
        <ele>301.17</ele>
        <time>2022-10-08T07:26:57Z</time>
      </trkpt>
      <trkpt lat="43.38384" lon="5.54779">
        <ele>301.16</ele>
        <time>2022-10-08T07:26:58Z</time>
      </trkpt>
      <trkpt lat="43.38393" lon="5.54784">
        <ele>301.29</ele>
        <time>2022-10-08T07:26:59Z</time>
      </trkpt>
      <trkpt lat="43.38402" lon="5.54791">
        <ele>303.12</ele>
        <time>2022-10-08T07:27:00Z</time>
      </trkpt>
      <trkpt lat="43.38411" lon="5.548">
        <ele>303.19</ele>
        <time>2022-10-08T07:27:01Z</time>
      </trkpt>
      <trkpt lat="43.3842" lon="5.54811">
        <ele>303.19</ele>
        <time>2022-10-08T07:27:02Z</time>
      </trkpt>
      <trkpt lat="43.38427" lon="5.54824">
        <ele>304.11</ele>
        <time>2022-10-08T07:27:03Z</time>
      </trkpt>
      <trkpt lat="43.38434" lon="5.54839">
        <ele>305.78</ele>
        <time>2022-10-08T07:27:04Z</time>
      </trkpt>
      <trkpt lat="43.38441" lon="5.54854">
        <ele>305.79</ele>
        <time>2022-10-08T07:27:05Z</time>
      </trkpt>
      <trkpt lat="43.38448" lon="5.54868">
        <ele>305.82</ele>
        <time>2022-10-08T07:27:06Z</time>
      </trkpt>
      <trkpt lat="43.38458" lon="5.54881">
        <ele>307.5</ele>
        <time>2022-10-08T07:27:07Z</time>
      </trkpt>
      <trkpt lat="43.38468" lon="5.5489">
        <ele>308.39</ele>
        <time>2022-10-08T07:27:08Z</time>
      </trkpt>
      <trkpt lat="43.38479" lon="5.54898">
        <ele>308.44</ele>
        <time>2022-10-08T07:27:09Z</time>
      </trkpt>
      <trkpt lat="43.38488" lon="5.54905">
        <ele>308.47</ele>
        <time>2022-10-08T07:27:10Z</time>
      </trkpt>
      <trkpt lat="43.38496" lon="5.54914">
        <ele>308.48</ele>
        <time>2022-10-08T07:27:11Z</time>
      </trkpt>
      <trkpt lat="43.38501" lon="5.54924">
        <ele>308.56</ele>
        <time>2022-10-08T07:27:12Z</time>
      </trkpt>
      <trkpt lat="43.38502" lon="5.54936">
        <ele>308.56</ele>
        <time>2022-10-08T07:27:13Z</time>
      </trkpt>
      <trkpt lat="43.38499" lon="5.54947">
        <ele>308.6</ele>
        <time>2022-10-08T07:27:14Z</time>
      </trkpt>
      <trkpt lat="43.38492" lon="5.54956">
        <ele>310.29</ele>
        <time>2022-10-08T07:27:15Z</time>
      </trkpt>
      <trkpt lat="43.38483" lon="5.54962">
        <ele>310.36</ele>
        <time>2022-10-08T07:27:16Z</time>
      </trkpt>
      <trkpt lat="43.38473" lon="5.5497">
        <ele>311.63</ele>
        <time>2022-10-08T07:27:17Z</time>
      </trkpt>
      <trkpt lat="43.38462" lon="5.54979">
        <ele>312.77</ele>
        <time>2022-10-08T07:27:18Z</time>
      </trkpt>
      <trkpt lat="43.38452" lon="5.54989">
        <ele>312.8</ele>
        <time>2022-10-08T07:27:19Z</time>
      </trkpt>
      <trkpt lat="43.38443" lon="5.55">
        <ele>312.84</ele>
        <time>2022-10-08T07:27:20Z</time>
      </trkpt>
      <trkpt lat="43.38436" lon="5.55013">
        <ele>314.29</ele>
        <time>2022-10-08T07:27:21Z</time>
      </trkpt>
      <trkpt lat="43.38431" lon="5.55026">
        <ele>314.26</ele>
        <time>2022-10-08T07:27:22Z</time>
      </trkpt>
      <trkpt lat="43.3843" lon="5.55041">
        <ele>315.35</ele>
        <time>2022-10-08T07:27:23Z</time>
      </trkpt>
      <trkpt lat="43.38431" lon="5.55057">
        <ele>315.43</ele>
        <time>2022-10-08T07:27:24Z</time>
      </trkpt>
      <trkpt lat="43.38436" lon="5.55073">
        <ele>316.61</ele>
        <time>2022-10-08T07:27:25Z</time>
      </trkpt>
      <trkpt lat="43.38443" lon="5.55092">
        <ele>318.3</ele>
        <time>2022-10-08T07:27:26Z</time>
      </trkpt>
      <trkpt lat="43.38456" lon="5.55136">
        <ele>321.78</ele>
        <time>2022-10-08T07:27:28Z</time>
      </trkpt>
      <trkpt lat="43.3847" lon="5.55183">
        <ele>322.83</ele>
        <time>2022-10-08T07:27:30Z</time>
      </trkpt>
      <trkpt lat="43.38486" lon="5.55245">
        <ele>323.14</ele>
        <time>2022-10-08T07:27:33Z</time>
      </trkpt>
      <trkpt lat="43.38487" lon="5.55263">
        <ele>322.95</ele>
        <time>2022-10-08T07:27:34Z</time>
      </trkpt>
      <trkpt lat="43.38485" lon="5.55281">
        <ele>322.99</ele>
        <time>2022-10-08T07:27:35Z</time>
      </trkpt>
      <trkpt lat="43.38479" lon="5.55297">
        <ele>323.88</ele>
        <time>2022-10-08T07:27:36Z</time>
      </trkpt>
      <trkpt lat="43.38471" lon="5.55313">
        <ele>324.76</ele>
        <time>2022-10-08T07:27:37Z</time>
      </trkpt>
      <trkpt lat="43.38462" lon="5.55328">
        <ele>324.79</ele>
        <time>2022-10-08T07:27:38Z</time>
      </trkpt>
      <trkpt lat="43.38444" lon="5.55362">
        <ele>326.85</ele>
        <time>2022-10-08T07:27:40Z</time>
      </trkpt>
      <trkpt lat="43.38422" lon="5.55417">
        <ele>329.29</ele>
        <time>2022-10-08T07:27:43Z</time>
      </trkpt>
      <trkpt lat="43.38417" lon="5.55438">
        <ele>329.32</ele>
        <time>2022-10-08T07:27:44Z</time>
      </trkpt>
      <trkpt lat="43.38413" lon="5.55458">
        <ele>329.38</ele>
        <time>2022-10-08T07:27:45Z</time>
      </trkpt>
      <trkpt lat="43.38411" lon="5.55477">
        <ele>329.36</ele>
        <time>2022-10-08T07:27:46Z</time>
      </trkpt>
      <trkpt lat="43.38412" lon="5.55496">
        <ele>329.41</ele>
        <time>2022-10-08T07:27:47Z</time>
      </trkpt>
      <trkpt lat="43.38414" lon="5.55515">
        <ele>329.45</ele>
        <time>2022-10-08T07:27:48Z</time>
      </trkpt>
      <trkpt lat="43.38419" lon="5.55534">
        <ele>329.48</ele>
        <time>2022-10-08T07:27:49Z</time>
      </trkpt>
      <trkpt lat="43.38424" lon="5.55551">
        <ele>329.51</ele>
        <time>2022-10-08T07:27:50Z</time>
      </trkpt>
      <trkpt lat="43.38432" lon="5.55585">
        <ele>329.6</ele>
        <time>2022-10-08T07:27:52Z</time>
      </trkpt>
      <trkpt lat="43.38433" lon="5.55601">
        <ele>326.87</ele>
        <time>2022-10-08T07:27:53Z</time>
      </trkpt>
      <trkpt lat="43.38432" lon="5.55617">
        <ele>326.91</ele>
        <time>2022-10-08T07:27:54Z</time>
      </trkpt>
      <trkpt lat="43.3843" lon="5.55632">
        <ele>326.9</ele>
        <time>2022-10-08T07:27:55Z</time>
      </trkpt>
      <trkpt lat="43.38426" lon="5.55646">
        <ele>325.91</ele>
        <time>2022-10-08T07:27:56Z</time>
      </trkpt>
      <trkpt lat="43.38422" lon="5.55659">
        <ele>325.92</ele>
        <time>2022-10-08T07:27:57Z</time>
      </trkpt>
      <trkpt lat="43.38393" lon="5.55737">
        <ele>324.98</ele>
        <time>2022-10-08T07:28:03Z</time>
      </trkpt>
      <trkpt lat="43.38389" lon="5.55752">
        <ele>323.78</ele>
        <time>2022-10-08T07:28:04Z</time>
      </trkpt>
      <trkpt lat="43.38389" lon="5.55768">
        <ele>323.85</ele>
        <time>2022-10-08T07:28:05Z</time>
      </trkpt>
      <trkpt lat="43.38392" lon="5.55784">
        <ele>324.18</ele>
        <time>2022-10-08T07:28:06Z</time>
      </trkpt>
      <trkpt lat="43.38396" lon="5.55799">
        <ele>322.94</ele>
        <time>2022-10-08T07:28:07Z</time>
      </trkpt>
      <trkpt lat="43.38401" lon="5.55815">
        <ele>323.01</ele>
        <time>2022-10-08T07:28:08Z</time>
      </trkpt>
      <trkpt lat="43.38424" lon="5.55891">
        <ele>319.91</ele>
        <time>2022-10-08T07:28:13Z</time>
      </trkpt>
      <trkpt lat="43.38429" lon="5.55905">
        <ele>319.96</ele>
        <time>2022-10-08T07:28:14Z</time>
      </trkpt>
      <trkpt lat="43.38447" lon="5.55955">
        <ele>318.12</ele>
        <time>2022-10-08T07:28:18Z</time>
      </trkpt>
      <trkpt lat="43.38454" lon="5.55964">
        <ele>317.26</ele>
        <time>2022-10-08T07:28:19Z</time>
      </trkpt>
      <trkpt lat="43.38463" lon="5.5597">
        <ele>317.29</ele>
        <time>2022-10-08T07:28:20Z</time>
      </trkpt>
      <trkpt lat="43.38473" lon="5.55971">
        <ele>317.26</ele>
        <time>2022-10-08T07:28:21Z</time>
      </trkpt>
      <trkpt lat="43.38483" lon="5.55969">
        <ele>317.26</ele>
        <time>2022-10-08T07:28:22Z</time>
      </trkpt>
      <trkpt lat="43.38493" lon="5.55966">
        <ele>316.05</ele>
        <time>2022-10-08T07:28:23Z</time>
      </trkpt>
      <trkpt lat="43.38512" lon="5.55962">
        <ele>314.97</ele>
        <time>2022-10-08T07:28:25Z</time>
      </trkpt>
      <trkpt lat="43.3853" lon="5.55957">
        <ele>314.11</ele>
        <time>2022-10-08T07:28:27Z</time>
      </trkpt>
      <trkpt lat="43.38539" lon="5.55952">
        <ele>314.1</ele>
        <time>2022-10-08T07:28:28Z</time>
      </trkpt>
      <trkpt lat="43.38548" lon="5.55945">
        <ele>314.13</ele>
        <time>2022-10-08T07:28:29Z</time>
      </trkpt>
      <trkpt lat="43.38555" lon="5.55935">
        <ele>314.19</ele>
        <time>2022-10-08T07:28:30Z</time>
      </trkpt>
      <trkpt lat="43.3856" lon="5.55921">
        <ele>313.26</ele>
        <time>2022-10-08T07:28:31Z</time>
      </trkpt>
      <trkpt lat="43.38563" lon="5.55906">
        <ele>313.21</ele>
        <time>2022-10-08T07:28:32Z</time>
      </trkpt>
      <trkpt lat="43.38563" lon="5.55889">
        <ele>312.04</ele>
        <time>2022-10-08T07:28:33Z</time>
      </trkpt>
      <trkpt lat="43.38562" lon="5.55871">
        <ele>312.07</ele>
        <time>2022-10-08T07:28:34Z</time>
      </trkpt>
      <trkpt lat="43.38563" lon="5.55853">
        <ele>312.06</ele>
        <time>2022-10-08T07:28:35Z</time>
      </trkpt>
      <trkpt lat="43.38567" lon="5.55836">
        <ele>310.66</ele>
        <time>2022-10-08T07:28:36Z</time>
      </trkpt>
      <trkpt lat="43.38574" lon="5.5582">
        <ele>310.69</ele>
        <time>2022-10-08T07:28:37Z</time>
      </trkpt>
      <trkpt lat="43.38582" lon="5.55805">
        <ele>310.64</ele>
        <time>2022-10-08T07:28:38Z</time>
      </trkpt>
      <trkpt lat="43.38592" lon="5.55792">
        <ele>308.8</ele>
        <time>2022-10-08T07:28:39Z</time>
      </trkpt>
      <trkpt lat="43.38602" lon="5.55778">
        <ele>308.83</ele>
        <time>2022-10-08T07:28:40Z</time>
      </trkpt>
      <trkpt lat="43.38668" lon="5.55663">
        <ele>306.24</ele>
        <time>2022-10-08T07:28:47Z</time>
      </trkpt>
      <trkpt lat="43.38689" lon="5.55603">
        <ele>304</ele>
        <time>2022-10-08T07:28:50Z</time>
      </trkpt>
      <trkpt lat="43.38719" lon="5.55494">
        <ele>300.24</ele>
        <time>2022-10-08T07:28:55Z</time>
      </trkpt>
      <trkpt lat="43.38726" lon="5.55472">
        <ele>299.77</ele>
        <time>2022-10-08T07:28:56Z</time>
      </trkpt>
      <trkpt lat="43.38744" lon="5.55431">
        <ele>298.97</ele>
        <time>2022-10-08T07:28:58Z</time>
      </trkpt>
      <trkpt lat="43.38784" lon="5.55353">
        <ele>296.57</ele>
        <time>2022-10-08T07:29:02Z</time>
      </trkpt>
      <trkpt lat="43.38818" lon="5.55297">
        <ele>293.84</ele>
        <time>2022-10-08T07:29:05Z</time>
      </trkpt>
      <trkpt lat="43.38841" lon="5.55261">
        <ele>292.19</ele>
        <time>2022-10-08T07:29:07Z</time>
      </trkpt>
      <trkpt lat="43.38854" lon="5.55245">
        <ele>290.63</ele>
        <time>2022-10-08T07:29:08Z</time>
      </trkpt>
      <trkpt lat="43.38869" lon="5.55231">
        <ele>289.64</ele>
        <time>2022-10-08T07:29:09Z</time>
      </trkpt>
      <trkpt lat="43.38884" lon="5.55219">
        <ele>289.72</ele>
        <time>2022-10-08T07:29:10Z</time>
      </trkpt>
      <trkpt lat="43.3894" lon="5.55168">
        <ele>285.75</ele>
        <time>2022-10-08T07:29:14Z</time>
      </trkpt>
      <trkpt lat="43.38963" lon="5.5514">
        <ele>284.96</ele>
        <time>2022-10-08T07:29:16Z</time>
      </trkpt>
      <trkpt lat="43.38987" lon="5.55116">
        <ele>281.93</ele>
        <time>2022-10-08T07:29:18Z</time>
      </trkpt>
      <trkpt lat="43.39011" lon="5.55096">
        <ele>280.67</ele>
        <time>2022-10-08T07:29:20Z</time>
      </trkpt>
      <trkpt lat="43.39061" lon="5.55072">
        <ele>277.8</ele>
        <time>2022-10-08T07:29:24Z</time>
      </trkpt>
      <trkpt lat="43.39095" lon="5.55066">
        <ele>275.63</ele>
        <time>2022-10-08T07:29:27Z</time>
      </trkpt>
      <trkpt lat="43.39105" lon="5.55067">
        <ele>274.78</ele>
        <time>2022-10-08T07:29:28Z</time>
      </trkpt>
      <trkpt lat="43.39112" lon="5.55071">
        <ele>274.81</ele>
        <time>2022-10-08T07:29:29Z</time>
      </trkpt>
      <trkpt lat="43.39117" lon="5.55079">
        <ele>273.51</ele>
        <time>2022-10-08T07:29:30Z</time>
      </trkpt>
      <trkpt lat="43.39121" lon="5.55087">
        <ele>273.55</ele>
        <time>2022-10-08T07:29:31Z</time>
      </trkpt>
      <trkpt lat="43.39125" lon="5.55096">
        <ele>273.6</ele>
        <time>2022-10-08T07:29:32Z</time>
      </trkpt>
      <trkpt lat="43.39131" lon="5.55103">
        <ele>273.59</ele>
        <time>2022-10-08T07:29:33Z</time>
      </trkpt>
      <trkpt lat="43.39138" lon="5.55109">
        <ele>272.77</ele>
        <time>2022-10-08T07:29:34Z</time>
      </trkpt>
      <trkpt lat="43.39146" lon="5.55114">
        <ele>272.8</ele>
        <time>2022-10-08T07:29:35Z</time>
      </trkpt>
      <trkpt lat="43.39155" lon="5.55119">
        <ele>272.88</ele>
        <time>2022-10-08T07:29:36Z</time>
      </trkpt>
      <trkpt lat="43.39164" lon="5.55127">
        <ele>271.95</ele>
        <time>2022-10-08T07:29:37Z</time>
      </trkpt>
      <trkpt lat="43.39174" lon="5.55134">
        <ele>271.92</ele>
        <time>2022-10-08T07:29:38Z</time>
      </trkpt>
      <trkpt lat="43.39184" lon="5.55139">
        <ele>271.99</ele>
        <time>2022-10-08T07:29:39Z</time>
      </trkpt>
      <trkpt lat="43.39195" lon="5.55139">
        <ele>270.9</ele>
        <time>2022-10-08T07:29:40Z</time>
      </trkpt>
      <trkpt lat="43.39205" lon="5.55136">
        <ele>270.91</ele>
        <time>2022-10-08T07:29:41Z</time>
      </trkpt>
      <trkpt lat="43.39215" lon="5.5513">
        <ele>270.96</ele>
        <time>2022-10-08T07:29:42Z</time>
      </trkpt>
      <trkpt lat="43.39225" lon="5.55123">
        <ele>270.14</ele>
        <time>2022-10-08T07:29:43Z</time>
      </trkpt>
      <trkpt lat="43.39235" lon="5.55118">
        <ele>269.73</ele>
        <time>2022-10-08T07:29:44Z</time>
      </trkpt>
      <trkpt lat="43.39245" lon="5.55116">
        <ele>268.36</ele>
        <time>2022-10-08T07:29:45Z</time>
      </trkpt>
      <trkpt lat="43.39255" lon="5.55117">
        <ele>267.46</ele>
        <time>2022-10-08T07:29:46Z</time>
      </trkpt>
      <trkpt lat="43.39266" lon="5.55121">
        <ele>267.46</ele>
        <time>2022-10-08T07:29:47Z</time>
      </trkpt>
      <trkpt lat="43.39276" lon="5.55128">
        <ele>267.49</ele>
        <time>2022-10-08T07:29:48Z</time>
      </trkpt>
      <trkpt lat="43.39286" lon="5.55135">
        <ele>266.64</ele>
        <time>2022-10-08T07:29:49Z</time>
      </trkpt>
      <trkpt lat="43.39296" lon="5.5514">
        <ele>266.67</ele>
        <time>2022-10-08T07:29:50Z</time>
      </trkpt>
      <trkpt lat="43.39306" lon="5.55144">
        <ele>265.53</ele>
        <time>2022-10-08T07:29:51Z</time>
      </trkpt>
      <trkpt lat="43.39315" lon="5.55144">
        <ele>264.65</ele>
        <time>2022-10-08T07:29:52Z</time>
      </trkpt>
      <trkpt lat="43.39326" lon="5.55142">
        <ele>264.68</ele>
        <time>2022-10-08T07:29:53Z</time>
      </trkpt>
      <trkpt lat="43.39337" lon="5.5514">
        <ele>264.66</ele>
        <time>2022-10-08T07:29:54Z</time>
      </trkpt>
      <trkpt lat="43.39368" lon="5.55133">
        <ele>262.19</ele>
        <time>2022-10-08T07:29:57Z</time>
      </trkpt>
      <trkpt lat="43.39376" lon="5.55132">
        <ele>261.16</ele>
        <time>2022-10-08T07:29:58Z</time>
      </trkpt>
      <trkpt lat="43.39384" lon="5.55135">
        <ele>261.12</ele>
        <time>2022-10-08T07:29:59Z</time>
      </trkpt>
      <trkpt lat="43.3939" lon="5.55142">
        <ele>259.88</ele>
        <time>2022-10-08T07:30:00Z</time>
      </trkpt>
      <trkpt lat="43.39395" lon="5.55152">
        <ele>259.87</ele>
        <time>2022-10-08T07:30:01Z</time>
      </trkpt>
      <trkpt lat="43.39399" lon="5.55164">
        <ele>259.92</ele>
        <time>2022-10-08T07:30:02Z</time>
      </trkpt>
      <trkpt lat="43.39403" lon="5.55177">
        <ele>259.93</ele>
        <time>2022-10-08T07:30:03Z</time>
      </trkpt>
      <trkpt lat="43.39406" lon="5.55191">
        <ele>259.96</ele>
        <time>2022-10-08T07:30:04Z</time>
      </trkpt>
      <trkpt lat="43.39409" lon="5.55205">
        <ele>260.04</ele>
        <time>2022-10-08T07:30:05Z</time>
      </trkpt>
      <trkpt lat="43.3941" lon="5.55221">
        <ele>260.03</ele>
        <time>2022-10-08T07:30:06Z</time>
      </trkpt>
      <trkpt lat="43.39413" lon="5.55304">
        <ele>256.4</ele>
        <time>2022-10-08T07:30:11Z</time>
      </trkpt>
      <trkpt lat="43.39414" lon="5.55319">
        <ele>256.43</ele>
        <time>2022-10-08T07:30:12Z</time>
      </trkpt>
      <trkpt lat="43.39423" lon="5.55374">
        <ele>254.62</ele>
        <time>2022-10-08T07:30:16Z</time>
      </trkpt>
      <trkpt lat="43.39427" lon="5.55386">
        <ele>254.67</ele>
        <time>2022-10-08T07:30:17Z</time>
      </trkpt>
      <trkpt lat="43.39432" lon="5.55397">
        <ele>253.72</ele>
        <time>2022-10-08T07:30:18Z</time>
      </trkpt>
      <trkpt lat="43.39439" lon="5.55406">
        <ele>252.71</ele>
        <time>2022-10-08T07:30:19Z</time>
      </trkpt>
      <trkpt lat="43.39448" lon="5.55411">
        <ele>252.69</ele>
        <time>2022-10-08T07:30:20Z</time>
      </trkpt>
      <trkpt lat="43.39458" lon="5.55414">
        <ele>252.73</ele>
        <time>2022-10-08T07:30:21Z</time>
      </trkpt>
      <trkpt lat="43.39468" lon="5.55415">
        <ele>251.57</ele>
        <time>2022-10-08T07:30:22Z</time>
      </trkpt>
      <trkpt lat="43.39478" lon="5.55412">
        <ele>251.56</ele>
        <time>2022-10-08T07:30:23Z</time>
      </trkpt>
      <trkpt lat="43.39488" lon="5.55406">
        <ele>251.57</ele>
        <time>2022-10-08T07:30:24Z</time>
      </trkpt>
      <trkpt lat="43.39498" lon="5.55398">
        <ele>250.75</ele>
        <time>2022-10-08T07:30:25Z</time>
      </trkpt>
      <trkpt lat="43.3953" lon="5.55376">
        <ele>249.57</ele>
        <time>2022-10-08T07:30:28Z</time>
      </trkpt>
      <trkpt lat="43.39542" lon="5.55371">
        <ele>249.57</ele>
        <time>2022-10-08T07:30:29Z</time>
      </trkpt>
      <trkpt lat="43.39554" lon="5.55368">
        <ele>248.15</ele>
        <time>2022-10-08T07:30:30Z</time>
      </trkpt>
      <trkpt lat="43.39566" lon="5.55367">
        <ele>248.09</ele>
        <time>2022-10-08T07:30:31Z</time>
      </trkpt>
      <trkpt lat="43.39578" lon="5.55369">
        <ele>247.19</ele>
        <time>2022-10-08T07:30:32Z</time>
      </trkpt>
      <trkpt lat="43.39589" lon="5.55373">
        <ele>247.73</ele>
        <time>2022-10-08T07:30:33Z</time>
      </trkpt>
      <trkpt lat="43.39601" lon="5.5538">
        <ele>246.76</ele>
        <time>2022-10-08T07:30:34Z</time>
      </trkpt>
      <trkpt lat="43.39612" lon="5.5539">
        <ele>246.72</ele>
        <time>2022-10-08T07:30:35Z</time>
      </trkpt>
      <trkpt lat="43.39622" lon="5.55402">
        <ele>246.75</ele>
        <time>2022-10-08T07:30:36Z</time>
      </trkpt>
      <trkpt lat="43.39632" lon="5.55415">
        <ele>245.91</ele>
        <time>2022-10-08T07:30:37Z</time>
      </trkpt>
      <trkpt lat="43.39652" lon="5.55437">
        <ele>244.59</ele>
        <time>2022-10-08T07:30:39Z</time>
      </trkpt>
      <trkpt lat="43.39663" lon="5.55445">
        <ele>244.57</ele>
        <time>2022-10-08T07:30:40Z</time>
      </trkpt>
      <trkpt lat="43.39674" lon="5.55448">
        <ele>242.89</ele>
        <time>2022-10-08T07:30:41Z</time>
      </trkpt>
      <trkpt lat="43.39686" lon="5.5545">
        <ele>241.8</ele>
        <time>2022-10-08T07:30:42Z</time>
      </trkpt>
      <trkpt lat="43.39697" lon="5.55455">
        <ele>241.82</ele>
        <time>2022-10-08T07:30:43Z</time>
      </trkpt>
      <trkpt lat="43.39705" lon="5.55463">
        <ele>240.68</ele>
        <time>2022-10-08T07:30:44Z</time>
      </trkpt>
      <trkpt lat="43.39711" lon="5.55475">
        <ele>240.65</ele>
        <time>2022-10-08T07:30:45Z</time>
      </trkpt>
      <trkpt lat="43.39714" lon="5.5549">
        <ele>239.42</ele>
        <time>2022-10-08T07:30:46Z</time>
      </trkpt>
      <trkpt lat="43.39717" lon="5.55507">
        <ele>239.43</ele>
        <time>2022-10-08T07:30:47Z</time>
      </trkpt>
      <trkpt lat="43.39722" lon="5.55525">
        <ele>239.47</ele>
        <time>2022-10-08T07:30:48Z</time>
      </trkpt>
      <trkpt lat="43.3973" lon="5.55541">
        <ele>239.52</ele>
        <time>2022-10-08T07:30:49Z</time>
      </trkpt>
      <trkpt lat="43.39741" lon="5.55556">
        <ele>238.45</ele>
        <time>2022-10-08T07:30:50Z</time>
      </trkpt>
      <trkpt lat="43.39754" lon="5.55569">
        <ele>238.43</ele>
        <time>2022-10-08T07:30:51Z</time>
      </trkpt>
      <trkpt lat="43.39769" lon="5.5558">
        <ele>238.43</ele>
        <time>2022-10-08T07:30:52Z</time>
      </trkpt>
      <trkpt lat="43.39842" lon="5.55633">
        <ele>234.33</ele>
        <time>2022-10-08T07:30:57Z</time>
      </trkpt>
      <trkpt lat="43.39856" lon="5.55643">
        <ele>234.37</ele>
        <time>2022-10-08T07:30:58Z</time>
      </trkpt>
      <trkpt lat="43.39895" lon="5.55673">
        <ele>230.75</ele>
        <time>2022-10-08T07:31:01Z</time>
      </trkpt>
      <trkpt lat="43.39906" lon="5.55684">
        <ele>229.47</ele>
        <time>2022-10-08T07:31:02Z</time>
      </trkpt>
      <trkpt lat="43.39948" lon="5.55735">
        <ele>225.58</ele>
        <time>2022-10-08T07:31:06Z</time>
      </trkpt>
      <trkpt lat="43.39982" lon="5.55776">
        <ele>221.82</ele>
        <time>2022-10-08T07:31:10Z</time>
      </trkpt>
      <trkpt lat="43.39988" lon="5.55783">
        <ele>221.75</ele>
        <time>2022-10-08T07:31:11Z</time>
      </trkpt>
      <trkpt lat="43.39995" lon="5.55792">
        <ele>220.27</ele>
        <time>2022-10-08T07:31:13Z</time>
      </trkpt>
      <trkpt lat="43.39999" lon="5.55798">
        <ele>219.57</ele>
        <time>2022-10-08T07:31:16Z</time>
      </trkpt>
      <trkpt lat="43.4" lon="5.55801">
        <ele>219.6</ele>
        <time>2022-10-08T07:31:17Z</time>
      </trkpt>
      <trkpt lat="43.40001" lon="5.55807">
        <ele>219.57</ele>
        <time>2022-10-08T07:31:18Z</time>
      </trkpt>
      <trkpt lat="43.40003" lon="5.55819">
        <ele>218.88</ele>
        <time>2022-10-08T07:31:20Z</time>
      </trkpt>
      <trkpt lat="43.40005" lon="5.55826">
        <ele>218.77</ele>
        <time>2022-10-08T07:31:21Z</time>
      </trkpt>
      <trkpt lat="43.4001" lon="5.55832">
        <ele>219.63</ele>
        <time>2022-10-08T07:31:22Z</time>
      </trkpt>
      <trkpt lat="43.4002" lon="5.55846">
        <ele>219.66</ele>
        <time>2022-10-08T07:31:24Z</time>
      </trkpt>
      <trkpt lat="43.40024" lon="5.55855">
        <ele>218.81</ele>
        <time>2022-10-08T07:31:25Z</time>
      </trkpt>
      <trkpt lat="43.40027" lon="5.55865">
        <ele>218.8</ele>
        <time>2022-10-08T07:31:26Z</time>
      </trkpt>
      <trkpt lat="43.40035" lon="5.55918">
        <ele>218.96</ele>
        <time>2022-10-08T07:31:30Z</time>
      </trkpt>
      <trkpt lat="43.40035" lon="5.55934">
        <ele>217.94</ele>
        <time>2022-10-08T07:31:31Z</time>
      </trkpt>
      <trkpt lat="43.40034" lon="5.55949">
        <ele>217.96</ele>
        <time>2022-10-08T07:31:32Z</time>
      </trkpt>
      <trkpt lat="43.40032" lon="5.55965">
        <ele>217.94</ele>
        <time>2022-10-08T07:31:33Z</time>
      </trkpt>
      <trkpt lat="43.4003" lon="5.55981">
        <ele>218.02</ele>
        <time>2022-10-08T07:31:34Z</time>
      </trkpt>
      <trkpt lat="43.40027" lon="5.56013">
        <ele>218.07</ele>
        <time>2022-10-08T07:31:36Z</time>
      </trkpt>
      <trkpt lat="43.40027" lon="5.56031">
        <ele>216.94</ele>
        <time>2022-10-08T07:31:37Z</time>
      </trkpt>
      <trkpt lat="43.40028" lon="5.56049">
        <ele>216.95</ele>
        <time>2022-10-08T07:31:38Z</time>
      </trkpt>
      <trkpt lat="43.40031" lon="5.56067">
        <ele>216.11</ele>
        <time>2022-10-08T07:31:39Z</time>
      </trkpt>
      <trkpt lat="43.40035" lon="5.56084">
        <ele>216.12</ele>
        <time>2022-10-08T07:31:40Z</time>
      </trkpt>
      <trkpt lat="43.40041" lon="5.561">
        <ele>214.73</ele>
        <time>2022-10-08T07:31:41Z</time>
      </trkpt>
      <trkpt lat="43.40047" lon="5.56116">
        <ele>214.71</ele>
        <time>2022-10-08T07:31:42Z</time>
      </trkpt>
      <trkpt lat="43.40067" lon="5.56178">
        <ele>211.88</ele>
        <time>2022-10-08T07:31:46Z</time>
      </trkpt>
      <trkpt lat="43.40086" lon="5.56242">
        <ele>210.62</ele>
        <time>2022-10-08T07:31:50Z</time>
      </trkpt>
      <trkpt lat="43.40089" lon="5.56259">
        <ele>209.36</ele>
        <time>2022-10-08T07:31:51Z</time>
      </trkpt>
      <trkpt lat="43.4009" lon="5.56276">
        <ele>209.39</ele>
        <time>2022-10-08T07:31:52Z</time>
      </trkpt>
      <trkpt lat="43.4009" lon="5.56293">
        <ele>209.43</ele>
        <time>2022-10-08T07:31:53Z</time>
      </trkpt>
      <trkpt lat="43.40089" lon="5.5631">
        <ele>209.46</ele>
        <time>2022-10-08T07:31:54Z</time>
      </trkpt>
      <trkpt lat="43.40101" lon="5.56416">
        <ele>209.7</ele>
        <time>2022-10-08T07:32:01Z</time>
      </trkpt>
      <trkpt lat="43.40106" lon="5.56428">
        <ele>212.05</ele>
        <time>2022-10-08T07:32:02Z</time>
      </trkpt>
      <trkpt lat="43.40113" lon="5.56437">
        <ele>212.09</ele>
        <time>2022-10-08T07:32:03Z</time>
      </trkpt>
      <trkpt lat="43.40121" lon="5.56441">
        <ele>212.15</ele>
        <time>2022-10-08T07:32:04Z</time>
      </trkpt>
      <trkpt lat="43.40131" lon="5.56441">
        <ele>212.2</ele>
        <time>2022-10-08T07:32:05Z</time>
      </trkpt>
      <trkpt lat="43.40139" lon="5.56437">
        <ele>212.28</ele>
        <time>2022-10-08T07:32:06Z</time>
      </trkpt>
      <trkpt lat="43.40148" lon="5.56434">
        <ele>212.32</ele>
        <time>2022-10-08T07:32:07Z</time>
      </trkpt>
      <trkpt lat="43.40155" lon="5.56434">
        <ele>212.35</ele>
        <time>2022-10-08T07:32:08Z</time>
      </trkpt>
      <trkpt lat="43.40162" lon="5.56438">
        <ele>212.38</ele>
        <time>2022-10-08T07:32:09Z</time>
      </trkpt>
      <trkpt lat="43.40167" lon="5.56445">
        <ele>213.3</ele>
        <time>2022-10-08T07:32:10Z</time>
      </trkpt>
      <trkpt lat="43.40172" lon="5.56455">
        <ele>213.33</ele>
        <time>2022-10-08T07:32:11Z</time>
      </trkpt>
      <trkpt lat="43.40175" lon="5.56467">
        <ele>214.4</ele>
        <time>2022-10-08T07:32:12Z</time>
      </trkpt>
      <trkpt lat="43.40178" lon="5.56482">
        <ele>214.44</ele>
        <time>2022-10-08T07:32:13Z</time>
      </trkpt>
      <trkpt lat="43.40187" lon="5.56513">
        <ele>216.54</ele>
        <time>2022-10-08T07:32:15Z</time>
      </trkpt>
      <trkpt lat="43.40193" lon="5.56529">
        <ele>216.53</ele>
        <time>2022-10-08T07:32:16Z</time>
      </trkpt>
      <trkpt lat="43.40216" lon="5.56573">
        <ele>217.62</ele>
        <time>2022-10-08T07:32:19Z</time>
      </trkpt>
      <trkpt lat="43.40225" lon="5.56585">
        <ele>218.56</ele>
        <time>2022-10-08T07:32:20Z</time>
      </trkpt>
      <trkpt lat="43.40236" lon="5.56596">
        <ele>218.63</ele>
        <time>2022-10-08T07:32:21Z</time>
      </trkpt>
      <trkpt lat="43.40248" lon="5.56604">
        <ele>219.74</ele>
        <time>2022-10-08T07:32:22Z</time>
      </trkpt>
      <trkpt lat="43.40261" lon="5.56609">
        <ele>219.77</ele>
        <time>2022-10-08T07:32:23Z</time>
      </trkpt>
      <trkpt lat="43.40275" lon="5.56612">
        <ele>220.95</ele>
        <time>2022-10-08T07:32:24Z</time>
      </trkpt>
      <trkpt lat="43.4029" lon="5.56613">
        <ele>222.13</ele>
        <time>2022-10-08T07:32:25Z</time>
      </trkpt>
      <trkpt lat="43.40304" lon="5.56613">
        <ele>222.21</ele>
        <time>2022-10-08T07:32:26Z</time>
      </trkpt>
      <trkpt lat="43.40357" lon="5.56615">
        <ele>224.15</ele>
        <time>2022-10-08T07:32:30Z</time>
      </trkpt>
      <trkpt lat="43.40368" lon="5.5662">
        <ele>224.18</ele>
        <time>2022-10-08T07:32:31Z</time>
      </trkpt>
      <trkpt lat="43.40378" lon="5.56627">
        <ele>224.21</ele>
        <time>2022-10-08T07:32:32Z</time>
      </trkpt>
      <trkpt lat="43.40386" lon="5.56638">
        <ele>225.14</ele>
        <time>2022-10-08T07:32:33Z</time>
      </trkpt>
      <trkpt lat="43.40393" lon="5.5665">
        <ele>226.16</ele>
        <time>2022-10-08T07:32:34Z</time>
      </trkpt>
      <trkpt lat="43.40401" lon="5.56662">
        <ele>226.36</ele>
        <time>2022-10-08T07:32:35Z</time>
      </trkpt>
      <trkpt lat="43.40411" lon="5.56671">
        <ele>226.31</ele>
        <time>2022-10-08T07:32:36Z</time>
      </trkpt>
      <trkpt lat="43.40422" lon="5.56675">
        <ele>227.4</ele>
        <time>2022-10-08T07:32:37Z</time>
      </trkpt>
      <trkpt lat="43.40434" lon="5.56675">
        <ele>228.3</ele>
        <time>2022-10-08T07:32:38Z</time>
      </trkpt>
      <trkpt lat="43.40446" lon="5.5667">
        <ele>228.37</ele>
        <time>2022-10-08T07:32:39Z</time>
      </trkpt>
      <trkpt lat="43.40459" lon="5.56664">
        <ele>229.6</ele>
        <time>2022-10-08T07:32:40Z</time>
      </trkpt>
      <trkpt lat="43.4047" lon="5.56657">
        <ele>229.61</ele>
        <time>2022-10-08T07:32:41Z</time>
      </trkpt>
      <trkpt lat="43.4051" lon="5.56635">
        <ele>230.3</ele>
        <time>2022-10-08T07:32:45Z</time>
      </trkpt>
      <trkpt lat="43.40518" lon="5.56634">
        <ele>230.29</ele>
        <time>2022-10-08T07:32:46Z</time>
      </trkpt>
      <trkpt lat="43.40525" lon="5.56635">
        <ele>230.36</ele>
        <time>2022-10-08T07:32:47Z</time>
      </trkpt>
      <trkpt lat="43.4053" lon="5.5664">
        <ele>230.38</ele>
        <time>2022-10-08T07:32:48Z</time>
      </trkpt>
      <trkpt lat="43.40532" lon="5.56648">
        <ele>230.44</ele>
        <time>2022-10-08T07:32:49Z</time>
      </trkpt>
      <trkpt lat="43.40532" lon="5.56657">
        <ele>230.48</ele>
        <time>2022-10-08T07:32:50Z</time>
      </trkpt>
      <trkpt lat="43.40528" lon="5.56667">
        <ele>231.25</ele>
        <time>2022-10-08T07:32:51Z</time>
      </trkpt>
      <trkpt lat="43.40523" lon="5.56675">
        <ele>232.2</ele>
        <time>2022-10-08T07:32:52Z</time>
      </trkpt>
      <trkpt lat="43.40515" lon="5.56684">
        <ele>232.22</ele>
        <time>2022-10-08T07:32:53Z</time>
      </trkpt>
      <trkpt lat="43.405" lon="5.56707">
        <ele>233.43</ele>
        <time>2022-10-08T07:32:55Z</time>
      </trkpt>
      <trkpt lat="43.40493" lon="5.56721">
        <ele>235.12</ele>
        <time>2022-10-08T07:32:56Z</time>
      </trkpt>
      <trkpt lat="43.40488" lon="5.56736">
        <ele>236.08</ele>
        <time>2022-10-08T07:32:57Z</time>
      </trkpt>
      <trkpt lat="43.40484" lon="5.56753">
        <ele>236.07</ele>
        <time>2022-10-08T07:32:58Z</time>
      </trkpt>
      <trkpt lat="43.4048" lon="5.56772">
        <ele>237.62</ele>
        <time>2022-10-08T07:32:59Z</time>
      </trkpt>
      <trkpt lat="43.40477" lon="5.56791">
        <ele>237.61</ele>
        <time>2022-10-08T07:33:00Z</time>
      </trkpt>
      <trkpt lat="43.40471" lon="5.56831">
        <ele>239.38</ele>
        <time>2022-10-08T07:33:02Z</time>
      </trkpt>
      <trkpt lat="43.40469" lon="5.56851">
        <ele>240.74</ele>
        <time>2022-10-08T07:33:03Z</time>
      </trkpt>
      <trkpt lat="43.40469" lon="5.56871">
        <ele>241.58</ele>
        <time>2022-10-08T07:33:04Z</time>
      </trkpt>
      <trkpt lat="43.40469" lon="5.56913">
        <ele>242.62</ele>
        <time>2022-10-08T07:33:06Z</time>
      </trkpt>
      <trkpt lat="43.40468" lon="5.56934">
        <ele>243.62</ele>
        <time>2022-10-08T07:33:07Z</time>
      </trkpt>
      <trkpt lat="43.40465" lon="5.56954">
        <ele>244.67</ele>
        <time>2022-10-08T07:33:08Z</time>
      </trkpt>
      <trkpt lat="43.40461" lon="5.56973">
        <ele>245.25</ele>
        <time>2022-10-08T07:33:09Z</time>
      </trkpt>
      <trkpt lat="43.40457" lon="5.56991">
        <ele>245.28</ele>
        <time>2022-10-08T07:33:10Z</time>
      </trkpt>
      <trkpt lat="43.40447" lon="5.57044">
        <ele>247.01</ele>
        <time>2022-10-08T07:33:13Z</time>
      </trkpt>
      <trkpt lat="43.40448" lon="5.57062">
        <ele>248.06</ele>
        <time>2022-10-08T07:33:14Z</time>
      </trkpt>
      <trkpt lat="43.40451" lon="5.57079">
        <ele>248.08</ele>
        <time>2022-10-08T07:33:15Z</time>
      </trkpt>
      <trkpt lat="43.40457" lon="5.57097">
        <ele>250.25</ele>
        <time>2022-10-08T07:33:16Z</time>
      </trkpt>
      <trkpt lat="43.40464" lon="5.57114">
        <ele>250.27</ele>
        <time>2022-10-08T07:33:17Z</time>
      </trkpt>
      <trkpt lat="43.40487" lon="5.57167">
        <ele>252.2</ele>
        <time>2022-10-08T07:33:20Z</time>
      </trkpt>
      <trkpt lat="43.40504" lon="5.57203">
        <ele>253.65</ele>
        <time>2022-10-08T07:33:22Z</time>
      </trkpt>
      <trkpt lat="43.40525" lon="5.57254">
        <ele>255.51</ele>
        <time>2022-10-08T07:33:25Z</time>
      </trkpt>
      <trkpt lat="43.4053" lon="5.57271">
        <ele>255.57</ele>
        <time>2022-10-08T07:33:26Z</time>
      </trkpt>
      <trkpt lat="43.40547" lon="5.57325">
        <ele>258.26</ele>
        <time>2022-10-08T07:33:29Z</time>
      </trkpt>
      <trkpt lat="43.40555" lon="5.57342">
        <ele>260.51</ele>
        <time>2022-10-08T07:33:30Z</time>
      </trkpt>
      <trkpt lat="43.40565" lon="5.57358">
        <ele>260.57</ele>
        <time>2022-10-08T07:33:31Z</time>
      </trkpt>
      <trkpt lat="43.40585" lon="5.57387">
        <ele>262.27</ele>
        <time>2022-10-08T07:33:33Z</time>
      </trkpt>
      <trkpt lat="43.40601" lon="5.57415">
        <ele>262.33</ele>
        <time>2022-10-08T07:33:35Z</time>
      </trkpt>
      <trkpt lat="43.40607" lon="5.5743">
        <ele>261.85</ele>
        <time>2022-10-08T07:33:36Z</time>
      </trkpt>
      <trkpt lat="43.40611" lon="5.57446">
        <ele>261.89</ele>
        <time>2022-10-08T07:33:37Z</time>
      </trkpt>
      <trkpt lat="43.40612" lon="5.57463">
        <ele>261.91</ele>
        <time>2022-10-08T07:33:38Z</time>
      </trkpt>
      <trkpt lat="43.40612" lon="5.57482">
        <ele>261.93</ele>
        <time>2022-10-08T07:33:39Z</time>
      </trkpt>
      <trkpt lat="43.40611" lon="5.57501">
        <ele>263.01</ele>
        <time>2022-10-08T07:33:40Z</time>
      </trkpt>
      <trkpt lat="43.40602" lon="5.57614">
        <ele>263.16</ele>
        <time>2022-10-08T07:33:48Z</time>
      </trkpt>
      <trkpt lat="43.406" lon="5.57631">
        <ele>263.31</ele>
        <time>2022-10-08T07:33:55Z</time>
      </trkpt>
      <trkpt lat="43.406" lon="5.57632">
        <ele>263.49</ele>
        <time>2022-10-08T07:34:01Z</time>
      </trkpt>
      <trkpt lat="43.40601" lon="5.57636">
        <ele>263.52</ele>
        <time>2022-10-08T07:34:02Z</time>
      </trkpt>
      <trkpt lat="43.40604" lon="5.5764">
        <ele>263.54</ele>
        <time>2022-10-08T07:34:03Z</time>
      </trkpt>
      <trkpt lat="43.40609" lon="5.57644">
        <ele>263.57</ele>
        <time>2022-10-08T07:34:04Z</time>
      </trkpt>
      <trkpt lat="43.40617" lon="5.57647">
        <ele>263.6</ele>
        <time>2022-10-08T07:34:05Z</time>
      </trkpt>
      <trkpt lat="43.40626" lon="5.5765">
        <ele>264.81</ele>
        <time>2022-10-08T07:34:06Z</time>
      </trkpt>
      <trkpt lat="43.40635" lon="5.57655">
        <ele>264.84</ele>
        <time>2022-10-08T07:34:07Z</time>
      </trkpt>
      <trkpt lat="43.40667" lon="5.57674">
        <ele>266.88</ele>
        <time>2022-10-08T07:34:10Z</time>
      </trkpt>
      <trkpt lat="43.40705" lon="5.57697">
        <ele>269.57</ele>
        <time>2022-10-08T07:34:13Z</time>
      </trkpt>
      <trkpt lat="43.40733" lon="5.57715">
        <ele>271.9</ele>
        <time>2022-10-08T07:34:15Z</time>
      </trkpt>
      <trkpt lat="43.40762" lon="5.57732">
        <ele>273.13</ele>
        <time>2022-10-08T07:34:17Z</time>
      </trkpt>
      <trkpt lat="43.40789" lon="5.5775">
        <ele>274.38</ele>
        <time>2022-10-08T07:34:19Z</time>
      </trkpt>
      <trkpt lat="43.40816" lon="5.57762">
        <ele>275.3</ele>
        <time>2022-10-08T07:34:21Z</time>
      </trkpt>
      <trkpt lat="43.40829" lon="5.57763">
        <ele>275.32</ele>
        <time>2022-10-08T07:34:22Z</time>
      </trkpt>
      <trkpt lat="43.40842" lon="5.5776">
        <ele>275.41</ele>
        <time>2022-10-08T07:34:23Z</time>
      </trkpt>
      <trkpt lat="43.40854" lon="5.57755">
        <ele>275.44</ele>
        <time>2022-10-08T07:34:24Z</time>
      </trkpt>
      <trkpt lat="43.40865" lon="5.57747">
        <ele>276.5</ele>
        <time>2022-10-08T07:34:25Z</time>
      </trkpt>
      <trkpt lat="43.40876" lon="5.57738">
        <ele>276.63</ele>
        <time>2022-10-08T07:34:26Z</time>
      </trkpt>
      <trkpt lat="43.40897" lon="5.57722">
        <ele>277.06</ele>
        <time>2022-10-08T07:34:28Z</time>
      </trkpt>
      <trkpt lat="43.40907" lon="5.57717">
        <ele>278.01</ele>
        <time>2022-10-08T07:34:29Z</time>
      </trkpt>
      <trkpt lat="43.40918" lon="5.57714">
        <ele>278.03</ele>
        <time>2022-10-08T07:34:30Z</time>
      </trkpt>
      <trkpt lat="43.40929" lon="5.57714">
        <ele>279.08</ele>
        <time>2022-10-08T07:34:31Z</time>
      </trkpt>
      <trkpt lat="43.4094" lon="5.57717">
        <ele>279.1</ele>
        <time>2022-10-08T07:34:32Z</time>
      </trkpt>
      <trkpt lat="43.4095" lon="5.57722">
        <ele>279.17</ele>
        <time>2022-10-08T07:34:33Z</time>
      </trkpt>
      <trkpt lat="43.40959" lon="5.5773">
        <ele>280.53</ele>
        <time>2022-10-08T07:34:34Z</time>
      </trkpt>
      <trkpt lat="43.40968" lon="5.5774">
        <ele>280.56</ele>
        <time>2022-10-08T07:34:35Z</time>
      </trkpt>
      <trkpt lat="43.40977" lon="5.5775">
        <ele>281.79</ele>
        <time>2022-10-08T07:34:36Z</time>
      </trkpt>
      <trkpt lat="43.40985" lon="5.57761">
        <ele>281.82</ele>
        <time>2022-10-08T07:34:37Z</time>
      </trkpt>
      <trkpt lat="43.40995" lon="5.57771">
        <ele>282.91</ele>
        <time>2022-10-08T07:34:38Z</time>
      </trkpt>
      <trkpt lat="43.41006" lon="5.57779">
        <ele>282.91</ele>
        <time>2022-10-08T07:34:39Z</time>
      </trkpt>
      <trkpt lat="43.41018" lon="5.57784">
        <ele>284.27</ele>
        <time>2022-10-08T07:34:40Z</time>
      </trkpt>
      <trkpt lat="43.41032" lon="5.57787">
        <ele>284.34</ele>
        <time>2022-10-08T07:34:41Z</time>
      </trkpt>
      <trkpt lat="43.41046" lon="5.57787">
        <ele>286.08</ele>
        <time>2022-10-08T07:34:42Z</time>
      </trkpt>
      <trkpt lat="43.41062" lon="5.57786">
        <ele>286.15</ele>
        <time>2022-10-08T07:34:43Z</time>
      </trkpt>
      <trkpt lat="43.41078" lon="5.57784">
        <ele>287.72</ele>
        <time>2022-10-08T07:34:44Z</time>
      </trkpt>
      <trkpt lat="43.41132" lon="5.57777">
        <ele>289.94</ele>
        <time>2022-10-08T07:34:47Z</time>
      </trkpt>
      <trkpt lat="43.41189" lon="5.57771">
        <ele>292.91</ele>
        <time>2022-10-08T07:34:50Z</time>
      </trkpt>
      <trkpt lat="43.41264" lon="5.57752">
        <ele>295.91</ele>
        <time>2022-10-08T07:34:54Z</time>
      </trkpt>
      <trkpt lat="43.41336" lon="5.57715">
        <ele>298.35</ele>
        <time>2022-10-08T07:34:58Z</time>
      </trkpt>
      <trkpt lat="43.41404" lon="5.57678">
        <ele>300.53</ele>
        <time>2022-10-08T07:35:02Z</time>
      </trkpt>
      <trkpt lat="43.41467" lon="5.57653">
        <ele>302.75</ele>
        <time>2022-10-08T07:35:07Z</time>
      </trkpt>
      <trkpt lat="43.41476" lon="5.57654">
        <ele>302.78</ele>
        <time>2022-10-08T07:35:08Z</time>
      </trkpt>
      <trkpt lat="43.41484" lon="5.57658">
        <ele>302.85</ele>
        <time>2022-10-08T07:35:09Z</time>
      </trkpt>
      <trkpt lat="43.41492" lon="5.57662">
        <ele>302.85</ele>
        <time>2022-10-08T07:35:10Z</time>
      </trkpt>
      <trkpt lat="43.415" lon="5.57664">
        <ele>303.75</ele>
        <time>2022-10-08T07:35:11Z</time>
      </trkpt>
      <trkpt lat="43.41508" lon="5.57661">
        <ele>303.81</ele>
        <time>2022-10-08T07:35:12Z</time>
      </trkpt>
      <trkpt lat="43.41547" lon="5.57638">
        <ele>306.24</ele>
        <time>2022-10-08T07:35:17Z</time>
      </trkpt>
      <trkpt lat="43.41558" lon="5.57643">
        <ele>307.29</ele>
        <time>2022-10-08T07:35:18Z</time>
      </trkpt>
      <trkpt lat="43.4157" lon="5.57647">
        <ele>308.59</ele>
        <time>2022-10-08T07:35:19Z</time>
      </trkpt>
      <trkpt lat="43.41583" lon="5.57649">
        <ele>308.66</ele>
        <time>2022-10-08T07:35:20Z</time>
      </trkpt>
      <trkpt lat="43.41611" lon="5.57646">
        <ele>310.3</ele>
        <time>2022-10-08T07:35:22Z</time>
      </trkpt>
      <trkpt lat="43.41625" lon="5.57641">
        <ele>311.44</ele>
        <time>2022-10-08T07:35:23Z</time>
      </trkpt>
      <trkpt lat="43.4164" lon="5.57633">
        <ele>311.45</ele>
        <time>2022-10-08T07:35:24Z</time>
      </trkpt>
      <trkpt lat="43.41654" lon="5.57625">
        <ele>312.94</ele>
        <time>2022-10-08T07:35:25Z</time>
      </trkpt>
      <trkpt lat="43.41669" lon="5.57616">
        <ele>312.99</ele>
        <time>2022-10-08T07:35:26Z</time>
      </trkpt>
      <trkpt lat="43.41768" lon="5.57557">
        <ele>310.76</ele>
        <time>2022-10-08T07:35:34Z</time>
      </trkpt>
      <trkpt lat="43.41793" lon="5.57542">
        <ele>308.42</ele>
        <time>2022-10-08T07:35:38Z</time>
      </trkpt>
      <trkpt lat="43.418" lon="5.57536">
        <ele>307.83</ele>
        <time>2022-10-08T07:35:45Z</time>
      </trkpt>
      <trkpt lat="43.41824" lon="5.57522">
        <ele>308.32</ele>
        <time>2022-10-08T07:36:04Z</time>
      </trkpt>
      <trkpt lat="43.41909" lon="5.57458">
        <ele>308.48</ele>
        <time>2022-10-08T07:36:11Z</time>
      </trkpt>
      <trkpt lat="43.41979" lon="5.57418">
        <ele>307.42</ele>
        <time>2022-10-08T07:36:17Z</time>
      </trkpt>
      <trkpt lat="43.41988" lon="5.57417">
        <ele>305.94</ele>
        <time>2022-10-08T07:36:18Z</time>
      </trkpt>
      <trkpt lat="43.41996" lon="5.57419">
        <ele>305.93</ele>
        <time>2022-10-08T07:36:19Z</time>
      </trkpt>
      <trkpt lat="43.42028" lon="5.57467">
        <ele>305.98</ele>
        <time>2022-10-08T07:36:24Z</time>
      </trkpt>
      <trkpt lat="43.4203" lon="5.57483">
        <ele>305.94</ele>
        <time>2022-10-08T07:36:25Z</time>
      </trkpt>
      <trkpt lat="43.42035" lon="5.57528">
        <ele>306.03</ele>
        <time>2022-10-08T07:36:28Z</time>
      </trkpt>
      <trkpt lat="43.4203" lon="5.57575">
        <ele>306.09</ele>
        <time>2022-10-08T07:36:32Z</time>
      </trkpt>
      <trkpt lat="43.42045" lon="5.57611">
        <ele>305.54</ele>
        <time>2022-10-08T07:36:37Z</time>
      </trkpt>
      <trkpt lat="43.42064" lon="5.57581">
        <ele>305.64</ele>
        <time>2022-10-08T07:36:41Z</time>
      </trkpt>
      <trkpt lat="43.42112" lon="5.57527">
        <ele>305.76</ele>
        <time>2022-10-08T07:36:46Z</time>
      </trkpt>
      <trkpt lat="43.42145" lon="5.57515">
        <ele>305.8</ele>
        <time>2022-10-08T07:36:48Z</time>
      </trkpt>
      <trkpt lat="43.42243" lon="5.57497">
        <ele>301.8</ele>
        <time>2022-10-08T07:36:53Z</time>
      </trkpt>
      <trkpt lat="43.42263" lon="5.57494">
        <ele>301.82</ele>
        <time>2022-10-08T07:36:54Z</time>
      </trkpt>
      <trkpt lat="43.42504" lon="5.57479">
        <ele>299.53</ele>
        <time>2022-10-08T07:37:05Z</time>
      </trkpt>
      <trkpt lat="43.4257" lon="5.57476">
        <ele>297.76</ele>
        <time>2022-10-08T07:37:08Z</time>
      </trkpt>
      <trkpt lat="43.42766" lon="5.57469">
        <ele>293.84</ele>
        <time>2022-10-08T07:37:17Z</time>
      </trkpt>
      <trkpt lat="43.42788" lon="5.57469">
        <ele>293.8</ele>
        <time>2022-10-08T07:37:18Z</time>
      </trkpt>
      <trkpt lat="43.42831" lon="5.57468">
        <ele>292.49</ele>
        <time>2022-10-08T07:37:20Z</time>
      </trkpt>
      <trkpt lat="43.42874" lon="5.57467">
        <ele>290.99</ele>
        <time>2022-10-08T07:37:22Z</time>
      </trkpt>
      <trkpt lat="43.42981" lon="5.57465">
        <ele>287.93</ele>
        <time>2022-10-08T07:37:27Z</time>
      </trkpt>
      <trkpt lat="43.43002" lon="5.57465">
        <ele>287.91</ele>
        <time>2022-10-08T07:37:28Z</time>
      </trkpt>
      <trkpt lat="43.43066" lon="5.57463">
        <ele>285.43</ele>
        <time>2022-10-08T07:37:31Z</time>
      </trkpt>
      <trkpt lat="43.43109" lon="5.57462">
        <ele>284.17</ele>
        <time>2022-10-08T07:37:33Z</time>
      </trkpt>
      <trkpt lat="43.43174" lon="5.57461">
        <ele>281.86</ele>
        <time>2022-10-08T07:37:36Z</time>
      </trkpt>
      <trkpt lat="43.43217" lon="5.57461">
        <ele>280.51</ele>
        <time>2022-10-08T07:37:38Z</time>
      </trkpt>
      <trkpt lat="43.43261" lon="5.57461">
        <ele>279.03</ele>
        <time>2022-10-08T07:37:40Z</time>
      </trkpt>
      <trkpt lat="43.43348" lon="5.57461">
        <ele>275.49</ele>
        <time>2022-10-08T07:37:44Z</time>
      </trkpt>
      <trkpt lat="43.43369" lon="5.57462">
        <ele>275.51</ele>
        <time>2022-10-08T07:37:45Z</time>
      </trkpt>
      <trkpt lat="43.43413" lon="5.57462">
        <ele>274.05</ele>
        <time>2022-10-08T07:37:47Z</time>
      </trkpt>
      <trkpt lat="43.43478" lon="5.57463">
        <ele>272.04</ele>
        <time>2022-10-08T07:37:50Z</time>
      </trkpt>
      <trkpt lat="43.43565" lon="5.57465">
        <ele>269.56</ele>
        <time>2022-10-08T07:37:54Z</time>
      </trkpt>
      <trkpt lat="43.43629" lon="5.57468">
        <ele>268.23</ele>
        <time>2022-10-08T07:37:57Z</time>
      </trkpt>
      <trkpt lat="43.43715" lon="5.5747">
        <ele>264.54</ele>
        <time>2022-10-08T07:38:01Z</time>
      </trkpt>
      <trkpt lat="43.43737" lon="5.57471">
        <ele>264.58</ele>
        <time>2022-10-08T07:38:02Z</time>
      </trkpt>
      <trkpt lat="43.43907" lon="5.57478">
        <ele>260.65</ele>
        <time>2022-10-08T07:38:10Z</time>
      </trkpt>
      <trkpt lat="43.43928" lon="5.57479">
        <ele>260.65</ele>
        <time>2022-10-08T07:38:11Z</time>
      </trkpt>
      <trkpt lat="43.44013" lon="5.57483">
        <ele>258.63</ele>
        <time>2022-10-08T07:38:15Z</time>
      </trkpt>
      <trkpt lat="43.44098" lon="5.57487">
        <ele>257.34</ele>
        <time>2022-10-08T07:38:19Z</time>
      </trkpt>
      <trkpt lat="43.44141" lon="5.57489">
        <ele>255.88</ele>
        <time>2022-10-08T07:38:21Z</time>
      </trkpt>
      <trkpt lat="43.44333" lon="5.57498">
        <ele>251.95</ele>
        <time>2022-10-08T07:38:30Z</time>
      </trkpt>
      <trkpt lat="43.44702" lon="5.57499">
        <ele>249.16</ele>
        <time>2022-10-08T07:38:47Z</time>
      </trkpt>
      <trkpt lat="43.44891" lon="5.57427">
        <ele>248.6</ele>
        <time>2022-10-08T07:38:56Z</time>
      </trkpt>
      <trkpt lat="43.45089" lon="5.57294">
        <ele>244.82</ele>
        <time>2022-10-08T07:39:06Z</time>
      </trkpt>
      <trkpt lat="43.4519" lon="5.57222">
        <ele>241.11</ele>
        <time>2022-10-08T07:39:11Z</time>
      </trkpt>
      <trkpt lat="43.45211" lon="5.57207">
        <ele>241.13</ele>
        <time>2022-10-08T07:39:12Z</time>
      </trkpt>
      <trkpt lat="43.45292" lon="5.57149">
        <ele>238.59</ele>
        <time>2022-10-08T07:39:16Z</time>
      </trkpt>
      <trkpt lat="43.45352" lon="5.57108">
        <ele>236.05</ele>
        <time>2022-10-08T07:39:19Z</time>
      </trkpt>
      <trkpt lat="43.45431" lon="5.57056">
        <ele>233.42</ele>
        <time>2022-10-08T07:39:23Z</time>
      </trkpt>
      <trkpt lat="43.45472" lon="5.57032">
        <ele>231.7</ele>
        <time>2022-10-08T07:39:25Z</time>
      </trkpt>
      <trkpt lat="43.45576" lon="5.56979">
        <ele>228.4</ele>
        <time>2022-10-08T07:39:30Z</time>
      </trkpt>
      <trkpt lat="43.45685" lon="5.5694">
        <ele>226.45</ele>
        <time>2022-10-08T07:39:35Z</time>
      </trkpt>
      <trkpt lat="43.45774" lon="5.56915">
        <ele>224.17</ele>
        <time>2022-10-08T07:39:39Z</time>
      </trkpt>
      <trkpt lat="43.45865" lon="5.56896">
        <ele>220.63</ele>
        <time>2022-10-08T07:39:43Z</time>
      </trkpt>
      <trkpt lat="43.45934" lon="5.56882">
        <ele>218.78</ele>
        <time>2022-10-08T07:39:46Z</time>
      </trkpt>
      <trkpt lat="43.46003" lon="5.56867">
        <ele>215.56</ele>
        <time>2022-10-08T07:39:49Z</time>
      </trkpt>
      <trkpt lat="43.4605" lon="5.56858">
        <ele>214.4</ele>
        <time>2022-10-08T07:39:51Z</time>
      </trkpt>
      <trkpt lat="43.46097" lon="5.56848">
        <ele>212.47</ele>
        <time>2022-10-08T07:39:53Z</time>
      </trkpt>
      <trkpt lat="43.46144" lon="5.56839">
        <ele>209.26</ele>
        <time>2022-10-08T07:39:55Z</time>
      </trkpt>
      <trkpt lat="43.46191" lon="5.5683">
        <ele>206.26</ele>
        <time>2022-10-08T07:39:57Z</time>
      </trkpt>
      <trkpt lat="43.46214" lon="5.56825">
        <ele>206.28</ele>
        <time>2022-10-08T07:39:58Z</time>
      </trkpt>
      <trkpt lat="43.46285" lon="5.5681">
        <ele>201.31</ele>
        <time>2022-10-08T07:40:01Z</time>
      </trkpt>
      <trkpt lat="43.46355" lon="5.56795">
        <ele>198.03</ele>
        <time>2022-10-08T07:40:04Z</time>
      </trkpt>
      <trkpt lat="43.46379" lon="5.5679">
        <ele>197.94</ele>
        <time>2022-10-08T07:40:05Z</time>
      </trkpt>
      <trkpt lat="43.46426" lon="5.5678">
        <ele>194.87</ele>
        <time>2022-10-08T07:40:07Z</time>
      </trkpt>
      <trkpt lat="43.46474" lon="5.5677">
        <ele>193.69</ele>
        <time>2022-10-08T07:40:09Z</time>
      </trkpt>
      <trkpt lat="43.46521" lon="5.5676">
        <ele>190.43</ele>
        <time>2022-10-08T07:40:11Z</time>
      </trkpt>
      <trkpt lat="43.46592" lon="5.56744">
        <ele>187.66</ele>
        <time>2022-10-08T07:40:14Z</time>
      </trkpt>
      <trkpt lat="43.46662" lon="5.56729">
        <ele>183.83</ele>
        <time>2022-10-08T07:40:17Z</time>
      </trkpt>
      <trkpt lat="43.46732" lon="5.56712">
        <ele>181.64</ele>
        <time>2022-10-08T07:40:20Z</time>
      </trkpt>
      <trkpt lat="43.46778" lon="5.56701">
        <ele>179.85</ele>
        <time>2022-10-08T07:40:22Z</time>
      </trkpt>
      <trkpt lat="43.46823" lon="5.5669">
        <ele>178.27</ele>
        <time>2022-10-08T07:40:24Z</time>
      </trkpt>
      <trkpt lat="43.46869" lon="5.56679">
        <ele>176.56</ele>
        <time>2022-10-08T07:40:26Z</time>
      </trkpt>
      <trkpt lat="43.4698" lon="5.56649">
        <ele>173.22</ele>
        <time>2022-10-08T07:40:31Z</time>
      </trkpt>
      <trkpt lat="43.47003" lon="5.56643">
        <ele>173.24</ele>
        <time>2022-10-08T07:40:32Z</time>
      </trkpt>
      <trkpt lat="43.47158" lon="5.56599">
        <ele>169.51</ele>
        <time>2022-10-08T07:40:39Z</time>
      </trkpt>
      <trkpt lat="43.47203" lon="5.56587">
        <ele>168.67</ele>
        <time>2022-10-08T07:40:41Z</time>
      </trkpt>
      <trkpt lat="43.4727" lon="5.56567">
        <ele>167.15</ele>
        <time>2022-10-08T07:40:44Z</time>
      </trkpt>
      <trkpt lat="43.47404" lon="5.56527">
        <ele>164.12</ele>
        <time>2022-10-08T07:40:50Z</time>
      </trkpt>
      <trkpt lat="43.47471" lon="5.56507">
        <ele>162.52</ele>
        <time>2022-10-08T07:40:53Z</time>
      </trkpt>
      <trkpt lat="43.47583" lon="5.56473">
        <ele>160.33</ele>
        <time>2022-10-08T07:40:58Z</time>
      </trkpt>
      <trkpt lat="43.47651" lon="5.56454">
        <ele>157.86</ele>
        <time>2022-10-08T07:41:01Z</time>
      </trkpt>
      <trkpt lat="43.47784" lon="5.56413">
        <ele>154.78</ele>
        <time>2022-10-08T07:41:07Z</time>
      </trkpt>
      <trkpt lat="43.47891" lon="5.56381">
        <ele>152.51</ele>
        <time>2022-10-08T07:41:12Z</time>
      </trkpt>
      <trkpt lat="43.48109" lon="5.56314">
        <ele>154.85</ele>
        <time>2022-10-08T07:41:23Z</time>
      </trkpt>
      <trkpt lat="43.48221" lon="5.56263">
        <ele>156.14</ele>
        <time>2022-10-08T07:41:30Z</time>
      </trkpt>
      <trkpt lat="43.48235" lon="5.56249">
        <ele>156.17</ele>
        <time>2022-10-08T07:41:31Z</time>
      </trkpt>
      <trkpt lat="43.48248" lon="5.56232">
        <ele>156.21</ele>
        <time>2022-10-08T07:41:32Z</time>
      </trkpt>
      <trkpt lat="43.48259" lon="5.56213">
        <ele>156.23</ele>
        <time>2022-10-08T07:41:33Z</time>
      </trkpt>
      <trkpt lat="43.48269" lon="5.56191">
        <ele>156.25</ele>
        <time>2022-10-08T07:41:34Z</time>
      </trkpt>
      <trkpt lat="43.48277" lon="5.56167">
        <ele>156.26</ele>
        <time>2022-10-08T07:41:35Z</time>
      </trkpt>
      <trkpt lat="43.48282" lon="5.56142">
        <ele>156.28</ele>
        <time>2022-10-08T07:41:36Z</time>
      </trkpt>
      <trkpt lat="43.48285" lon="5.56116">
        <ele>153.74</ele>
        <time>2022-10-08T07:41:37Z</time>
      </trkpt>
      <trkpt lat="43.48286" lon="5.5609">
        <ele>153.69</ele>
        <time>2022-10-08T07:41:38Z</time>
      </trkpt>
      <trkpt lat="43.48284" lon="5.56063">
        <ele>152.35</ele>
        <time>2022-10-08T07:41:39Z</time>
      </trkpt>
      <trkpt lat="43.48279" lon="5.56037">
        <ele>152.29</ele>
        <time>2022-10-08T07:41:40Z</time>
      </trkpt>
      <trkpt lat="43.48272" lon="5.56012">
        <ele>152.3</ele>
        <time>2022-10-08T07:41:41Z</time>
      </trkpt>
      <trkpt lat="43.48264" lon="5.55988">
        <ele>151.11</ele>
        <time>2022-10-08T07:41:42Z</time>
      </trkpt>
      <trkpt lat="43.48255" lon="5.55963">
        <ele>151.08</ele>
        <time>2022-10-08T07:41:43Z</time>
      </trkpt>
      <trkpt lat="43.48183" lon="5.55734">
        <ele>149.97</ele>
        <time>2022-10-08T07:41:52Z</time>
      </trkpt>
      <trkpt lat="43.48184" lon="5.55454">
        <ele>148.3</ele>
        <time>2022-10-08T07:42:02Z</time>
      </trkpt>
      <trkpt lat="43.48195" lon="5.54897">
        <ele>147.61</ele>
        <time>2022-10-08T07:42:21Z</time>
      </trkpt>
      <trkpt lat="43.48221" lon="5.54551">
        <ele>145.84</ele>
        <time>2022-10-08T07:42:33Z</time>
      </trkpt>
      <trkpt lat="43.48273" lon="5.54326">
        <ele>144.94</ele>
        <time>2022-10-08T07:42:43Z</time>
      </trkpt>
      <trkpt lat="43.48312" lon="5.54184">
        <ele>143.04</ele>
        <time>2022-10-08T07:42:51Z</time>
      </trkpt>
      <trkpt lat="43.48323" lon="5.54141">
        <ele>142.12</ele>
        <time>2022-10-08T07:42:57Z</time>
      </trkpt>
      <trkpt lat="43.48323" lon="5.54142">
        <ele>141.41</ele>
        <time>2022-10-08T07:43:07Z</time>
      </trkpt>
      <trkpt lat="43.48324" lon="5.54135">
        <ele>141.85</ele>
        <time>2022-10-08T07:43:31Z</time>
      </trkpt>
      <trkpt lat="43.48329" lon="5.54131">
        <ele>142.33</ele>
        <time>2022-10-08T07:44:00Z</time>
      </trkpt>
      <trkpt lat="43.4833" lon="5.54127">
        <ele>142.34</ele>
        <time>2022-10-08T07:44:01Z</time>
      </trkpt>
      <trkpt lat="43.48333" lon="5.54118">
        <ele>142.37</ele>
        <time>2022-10-08T07:44:02Z</time>
      </trkpt>
      <trkpt lat="43.48335" lon="5.54107">
        <ele>142.39</ele>
        <time>2022-10-08T07:44:03Z</time>
      </trkpt>
      <trkpt lat="43.48337" lon="5.54094">
        <ele>142.4</ele>
        <time>2022-10-08T07:44:04Z</time>
      </trkpt>
      <trkpt lat="43.48366" lon="5.53958">
        <ele>142.56</ele>
        <time>2022-10-08T07:44:12Z</time>
      </trkpt>
      <trkpt lat="43.48379" lon="5.53898">
        <ele>145.04</ele>
        <time>2022-10-08T07:44:15Z</time>
      </trkpt>
      <trkpt lat="43.48441" lon="5.53659">
        <ele>146.05</ele>
        <time>2022-10-08T07:44:26Z</time>
      </trkpt>
      <trkpt lat="43.48527" lon="5.53453">
        <ele>148.87</ele>
        <time>2022-10-08T07:44:34Z</time>
      </trkpt>
      <trkpt lat="43.48609" lon="5.53295">
        <ele>152.3</ele>
        <time>2022-10-08T07:44:40Z</time>
      </trkpt>
      <trkpt lat="43.48638" lon="5.53245">
        <ele>153.69</ele>
        <time>2022-10-08T07:44:42Z</time>
      </trkpt>
      <trkpt lat="43.48685" lon="5.53174">
        <ele>155.67</ele>
        <time>2022-10-08T07:44:45Z</time>
      </trkpt>
      <trkpt lat="43.48768" lon="5.53062">
        <ele>157.75</ele>
        <time>2022-10-08T07:44:50Z</time>
      </trkpt>
      <trkpt lat="43.48976" lon="5.52848">
        <ele>159.84</ele>
        <time>2022-10-08T07:45:01Z</time>
      </trkpt>
      <trkpt lat="43.49103" lon="5.52752">
        <ele>157.3</ele>
        <time>2022-10-08T07:45:07Z</time>
      </trkpt>
      <trkpt lat="43.49342" lon="5.52627">
        <ele>155.59</ele>
        <time>2022-10-08T07:45:18Z</time>
      </trkpt>
      <trkpt lat="43.49665" lon="5.52499">
        <ele>157.78</ele>
        <time>2022-10-08T07:45:33Z</time>
      </trkpt>
      <trkpt lat="43.49886" lon="5.52356">
        <ele>159.98</ele>
        <time>2022-10-08T07:45:44Z</time>
      </trkpt>
      <trkpt lat="43.49926" lon="5.52324">
        <ele>161.3</ele>
        <time>2022-10-08T07:45:46Z</time>
      </trkpt>
      <trkpt lat="43.50107" lon="5.52131">
        <ele>161.32</ele>
        <time>2022-10-08T07:45:56Z</time>
      </trkpt>
      <trkpt lat="43.50123" lon="5.5211">
        <ele>158.1</ele>
        <time>2022-10-08T07:45:57Z</time>
      </trkpt>
      <trkpt lat="43.50139" lon="5.52088">
        <ele>158.09</ele>
        <time>2022-10-08T07:45:58Z</time>
      </trkpt>
      <trkpt lat="43.50243" lon="5.51923">
        <ele>154.63</ele>
        <time>2022-10-08T07:46:05Z</time>
      </trkpt>
      <trkpt lat="43.50257" lon="5.51897">
        <ele>154.64</ele>
        <time>2022-10-08T07:46:06Z</time>
      </trkpt>
      <trkpt lat="43.50284" lon="5.51846">
        <ele>153.24</ele>
        <time>2022-10-08T07:46:08Z</time>
      </trkpt>
      <trkpt lat="43.50321" lon="5.51767">
        <ele>152.02</ele>
        <time>2022-10-08T07:46:11Z</time>
      </trkpt>
      <trkpt lat="43.50343" lon="5.51711">
        <ele>150.73</ele>
        <time>2022-10-08T07:46:13Z</time>
      </trkpt>
      <trkpt lat="43.50407" lon="5.5151">
        <ele>147.55</ele>
        <time>2022-10-08T07:46:20Z</time>
      </trkpt>
      <trkpt lat="43.50516" lon="5.51103">
        <ele>146.21</ele>
        <time>2022-10-08T07:46:34Z</time>
      </trkpt>
      <trkpt lat="43.50636" lon="5.50761">
        <ele>146.51</ele>
        <time>2022-10-08T07:46:47Z</time>
      </trkpt>
      <trkpt lat="43.50709" lon="5.50555">
        <ele>143.48</ele>
        <time>2022-10-08T07:46:55Z</time>
      </trkpt>
      <trkpt lat="43.50748" lon="5.50388">
        <ele>139.77</ele>
        <time>2022-10-08T07:47:01Z</time>
      </trkpt>
      <trkpt lat="43.50754" lon="5.5036">
        <ele>139.74</ele>
        <time>2022-10-08T07:47:02Z</time>
      </trkpt>
      <trkpt lat="43.50829" lon="5.50085">
        <ele>136.32</ele>
        <time>2022-10-08T07:47:12Z</time>
      </trkpt>
      <trkpt lat="43.50933" lon="5.49897">
        <ele>134.98</ele>
        <time>2022-10-08T07:47:20Z</time>
      </trkpt>
      <trkpt lat="43.5108" lon="5.49707">
        <ele>131.9</ele>
        <time>2022-10-08T07:47:29Z</time>
      </trkpt>
      <trkpt lat="43.51096" lon="5.49686">
        <ele>131.88</ele>
        <time>2022-10-08T07:47:30Z</time>
      </trkpt>
      <trkpt lat="43.51225" lon="5.49479">
        <ele>131.24</ele>
        <time>2022-10-08T07:47:39Z</time>
      </trkpt>
      <trkpt lat="43.51289" lon="5.49259">
        <ele>131.56</ele>
        <time>2022-10-08T07:47:47Z</time>
      </trkpt>
      <trkpt lat="43.51297" lon="5.492">
        <ele>134.09</ele>
        <time>2022-10-08T07:47:49Z</time>
      </trkpt>
      <trkpt lat="43.51296" lon="5.48957">
        <ele>135.09</ele>
        <time>2022-10-08T07:47:57Z</time>
      </trkpt>
      <trkpt lat="43.51284" lon="5.48769">
        <ele>132.75</ele>
        <time>2022-10-08T07:48:03Z</time>
      </trkpt>
      <trkpt lat="43.51282" lon="5.48676">
        <ele>131.25</ele>
        <time>2022-10-08T07:48:06Z</time>
      </trkpt>
      <trkpt lat="43.51288" lon="5.48493">
        <ele>129.17</ele>
        <time>2022-10-08T07:48:12Z</time>
      </trkpt>
      <trkpt lat="43.51316" lon="5.48119">
        <ele>125.27</ele>
        <time>2022-10-08T07:48:25Z</time>
      </trkpt>
      <trkpt lat="43.51339" lon="5.47493">
        <ele>123.78</ele>
        <time>2022-10-08T07:48:46Z</time>
      </trkpt>
      <trkpt lat="43.51328" lon="5.47049">
        <ele>122.65</ele>
        <time>2022-10-08T07:49:01Z</time>
      </trkpt>
      <trkpt lat="43.51317" lon="5.46871">
        <ele>121.13</ele>
        <time>2022-10-08T07:49:07Z</time>
      </trkpt>
      <trkpt lat="43.51288" lon="5.46573">
        <ele>118.71</ele>
        <time>2022-10-08T07:49:17Z</time>
      </trkpt>
      <trkpt lat="43.51251" lon="5.46219">
        <ele>114.82</ele>
        <time>2022-10-08T07:49:29Z</time>
      </trkpt>
      <trkpt lat="43.51249" lon="5.4619">
        <ele>114.83</ele>
        <time>2022-10-08T07:49:30Z</time>
      </trkpt>
      <trkpt lat="43.51221" lon="5.45713">
        <ele>112.4</ele>
        <time>2022-10-08T07:49:46Z</time>
      </trkpt>
      <trkpt lat="43.51215" lon="5.45533">
        <ele>109.62</ele>
        <time>2022-10-08T07:49:52Z</time>
      </trkpt>
      <trkpt lat="43.5121" lon="5.45357">
        <ele>108.57</ele>
        <time>2022-10-08T07:49:58Z</time>
      </trkpt>
      <trkpt lat="43.51194" lon="5.44916">
        <ele>106.85</ele>
        <time>2022-10-08T07:50:13Z</time>
      </trkpt>
      <trkpt lat="43.51185" lon="5.4477">
        <ele>105.74</ele>
        <time>2022-10-08T07:50:18Z</time>
      </trkpt>
      <trkpt lat="43.51187" lon="5.44454">
        <ele>104.8</ele>
        <time>2022-10-08T07:50:29Z</time>
      </trkpt>
      <trkpt lat="43.51218" lon="5.44117">
        <ele>101.77</ele>
        <time>2022-10-08T07:50:41Z</time>
      </trkpt>
      <trkpt lat="43.51223" lon="5.4409">
        <ele>101.79</ele>
        <time>2022-10-08T07:50:42Z</time>
      </trkpt>
      <trkpt lat="43.51251" lon="5.43959">
        <ele>104.8</ele>
        <time>2022-10-08T07:50:47Z</time>
      </trkpt>
      <trkpt lat="43.51265" lon="5.43908">
        <ele>106.12</ele>
        <time>2022-10-08T07:50:49Z</time>
      </trkpt>
      <trkpt lat="43.51292" lon="5.43834">
        <ele>107.4</ele>
        <time>2022-10-08T07:50:52Z</time>
      </trkpt>
      <trkpt lat="43.51377" lon="5.43671">
        <ele>107.69</ele>
        <time>2022-10-08T07:51:00Z</time>
      </trkpt>
      <trkpt lat="43.51438" lon="5.43579">
        <ele>109.21</ele>
        <time>2022-10-08T07:51:06Z</time>
      </trkpt>
      <trkpt lat="43.51508" lon="5.43481">
        <ele>111.87</ele>
        <time>2022-10-08T07:51:12Z</time>
      </trkpt>
      <trkpt lat="43.51619" lon="5.43328">
        <ele>115.3</ele>
        <time>2022-10-08T07:51:22Z</time>
      </trkpt>
      <trkpt lat="43.51703" lon="5.43212">
        <ele>118.63</ele>
        <time>2022-10-08T07:51:29Z</time>
      </trkpt>
      <trkpt lat="43.51761" lon="5.43128">
        <ele>120.8</ele>
        <time>2022-10-08T07:51:34Z</time>
      </trkpt>
      <trkpt lat="43.51783" lon="5.43094">
        <ele>122.01</ele>
        <time>2022-10-08T07:51:36Z</time>
      </trkpt>
      <trkpt lat="43.5184" lon="5.42999">
        <ele>125.3</ele>
        <time>2022-10-08T07:51:42Z</time>
      </trkpt>
      <trkpt lat="43.51849" lon="5.42983">
        <ele>125.3</ele>
        <time>2022-10-08T07:51:43Z</time>
      </trkpt>
      <trkpt lat="43.51965" lon="5.42843">
        <ele>127.21</ele>
        <time>2022-10-08T07:51:53Z</time>
      </trkpt>
      <trkpt lat="43.52033" lon="5.42803">
        <ele>124.26</ele>
        <time>2022-10-08T07:51:57Z</time>
      </trkpt>
      <trkpt lat="43.5227" lon="5.42703">
        <ele>124.43</ele>
        <time>2022-10-08T07:52:10Z</time>
      </trkpt>
      <trkpt lat="43.52346" lon="5.4268">
        <ele>127.1</ele>
        <time>2022-10-08T07:52:14Z</time>
      </trkpt>
      <trkpt lat="43.52404" lon="5.42671">
        <ele>129</ele>
        <time>2022-10-08T07:52:17Z</time>
      </trkpt>
      <trkpt lat="43.52443" lon="5.42667">
        <ele>130.32</ele>
        <time>2022-10-08T07:52:19Z</time>
      </trkpt>
      <trkpt lat="43.52503" lon="5.42667">
        <ele>132.95</ele>
        <time>2022-10-08T07:52:22Z</time>
      </trkpt>
      <trkpt lat="43.52606" lon="5.4268">
        <ele>137.32</ele>
        <time>2022-10-08T07:52:27Z</time>
      </trkpt>
      <trkpt lat="43.52646" lon="5.42689">
        <ele>138.22</ele>
        <time>2022-10-08T07:52:29Z</time>
      </trkpt>
      <trkpt lat="43.52814" lon="5.42756">
        <ele>141.82</ele>
        <time>2022-10-08T07:52:38Z</time>
      </trkpt>
      <trkpt lat="43.52832" lon="5.42764">
        <ele>141.83</ele>
        <time>2022-10-08T07:52:39Z</time>
      </trkpt>
      <trkpt lat="43.52926" lon="5.42812">
        <ele>145.3</ele>
        <time>2022-10-08T07:52:44Z</time>
      </trkpt>
      <trkpt lat="43.52945" lon="5.42822">
        <ele>145.31</ele>
        <time>2022-10-08T07:52:45Z</time>
      </trkpt>
      <trkpt lat="43.53021" lon="5.42861">
        <ele>146.91</ele>
        <time>2022-10-08T07:52:49Z</time>
      </trkpt>
      <trkpt lat="43.53158" lon="5.42929">
        <ele>151.33</ele>
        <time>2022-10-08T07:52:56Z</time>
      </trkpt>
      <trkpt lat="43.53199" lon="5.4295">
        <ele>152.5</ele>
        <time>2022-10-08T07:52:58Z</time>
      </trkpt>
      <trkpt lat="43.53293" lon="5.42999">
        <ele>154</ele>
        <time>2022-10-08T07:53:03Z</time>
      </trkpt>
      <trkpt lat="43.53349" lon="5.43027">
        <ele>157.41</ele>
        <time>2022-10-08T07:53:06Z</time>
      </trkpt>
      <trkpt lat="43.53405" lon="5.43056">
        <ele>161.88</ele>
        <time>2022-10-08T07:53:09Z</time>
      </trkpt>
      <trkpt lat="43.53444" lon="5.43076">
        <ele>163.75</ele>
        <time>2022-10-08T07:53:11Z</time>
      </trkpt>
      <trkpt lat="43.53482" lon="5.43095">
        <ele>167.05</ele>
        <time>2022-10-08T07:53:13Z</time>
      </trkpt>
      <trkpt lat="43.53521" lon="5.43115">
        <ele>170.06</ele>
        <time>2022-10-08T07:53:15Z</time>
      </trkpt>
      <trkpt lat="43.53579" lon="5.43145">
        <ele>174.08</ele>
        <time>2022-10-08T07:53:18Z</time>
      </trkpt>
      <trkpt lat="43.53618" lon="5.43164">
        <ele>175.3</ele>
        <time>2022-10-08T07:53:20Z</time>
      </trkpt>
      <trkpt lat="43.53637" lon="5.43174">
        <ele>178.4</ele>
        <time>2022-10-08T07:53:21Z</time>
      </trkpt>
      <trkpt lat="43.53676" lon="5.43193">
        <ele>181.8</ele>
        <time>2022-10-08T07:53:23Z</time>
      </trkpt>
      <trkpt lat="43.53734" lon="5.43223">
        <ele>185.69</ele>
        <time>2022-10-08T07:53:26Z</time>
      </trkpt>
      <trkpt lat="43.53771" lon="5.43241">
        <ele>189.25</ele>
        <time>2022-10-08T07:53:28Z</time>
      </trkpt>
      <trkpt lat="43.53826" lon="5.43264">
        <ele>193.2</ele>
        <time>2022-10-08T07:53:31Z</time>
      </trkpt>
      <trkpt lat="43.53862" lon="5.43274">
        <ele>196.63</ele>
        <time>2022-10-08T07:53:33Z</time>
      </trkpt>
      <trkpt lat="43.53915" lon="5.43284">
        <ele>199.51</ele>
        <time>2022-10-08T07:53:36Z</time>
      </trkpt>
      <trkpt lat="43.53968" lon="5.43286">
        <ele>204.07</ele>
        <time>2022-10-08T07:53:39Z</time>
      </trkpt>
      <trkpt lat="43.54005" lon="5.43284">
        <ele>207.75</ele>
        <time>2022-10-08T07:53:41Z</time>
      </trkpt>
      <trkpt lat="43.54042" lon="5.43278">
        <ele>211.1</ele>
        <time>2022-10-08T07:53:43Z</time>
      </trkpt>
      <trkpt lat="43.54061" lon="5.43274">
        <ele>211.11</ele>
        <time>2022-10-08T07:53:44Z</time>
      </trkpt>
      <trkpt lat="43.54098" lon="5.43263">
        <ele>214.85</ele>
        <time>2022-10-08T07:53:46Z</time>
      </trkpt>
      <trkpt lat="43.54116" lon="5.43255">
        <ele>214.98</ele>
        <time>2022-10-08T07:53:47Z</time>
      </trkpt>
      <trkpt lat="43.54165" lon="5.4323">
        <ele>218.13</ele>
        <time>2022-10-08T07:53:50Z</time>
      </trkpt>
      <trkpt lat="43.54196" lon="5.43212">
        <ele>221.28</ele>
        <time>2022-10-08T07:53:52Z</time>
      </trkpt>
      <trkpt lat="43.54243" lon="5.43183">
        <ele>225.31</ele>
        <time>2022-10-08T07:53:55Z</time>
      </trkpt>
      <trkpt lat="43.54289" lon="5.43155">
        <ele>229.14</ele>
        <time>2022-10-08T07:53:58Z</time>
      </trkpt>
      <trkpt lat="43.54332" lon="5.43127">
        <ele>230.86</ele>
        <time>2022-10-08T07:54:01Z</time>
      </trkpt>
      <trkpt lat="43.54361" lon="5.43107">
        <ele>232.95</ele>
        <time>2022-10-08T07:54:03Z</time>
      </trkpt>
      <trkpt lat="43.54404" lon="5.43079">
        <ele>236.9</ele>
        <time>2022-10-08T07:54:06Z</time>
      </trkpt>
      <trkpt lat="43.54446" lon="5.4305">
        <ele>239.12</ele>
        <time>2022-10-08T07:54:09Z</time>
      </trkpt>
      <trkpt lat="43.545" lon="5.43014">
        <ele>242.88</ele>
        <time>2022-10-08T07:54:13Z</time>
      </trkpt>
      <trkpt lat="43.54513" lon="5.43005">
        <ele>242.79</ele>
        <time>2022-10-08T07:54:14Z</time>
      </trkpt>
      <trkpt lat="43.54555" lon="5.42978">
        <ele>244.33</ele>
        <time>2022-10-08T07:54:17Z</time>
      </trkpt>
      <trkpt lat="43.54608" lon="5.42943">
        <ele>246.02</ele>
        <time>2022-10-08T07:54:21Z</time>
      </trkpt>
      <trkpt lat="43.54654" lon="5.42915">
        <ele>248.69</ele>
        <time>2022-10-08T07:54:24Z</time>
      </trkpt>
      <trkpt lat="43.54714" lon="5.42877">
        <ele>251.48</ele>
        <time>2022-10-08T07:54:28Z</time>
      </trkpt>
      <trkpt lat="43.54756" lon="5.4285">
        <ele>253.84</ele>
        <time>2022-10-08T07:54:31Z</time>
      </trkpt>
      <trkpt lat="43.54796" lon="5.42824">
        <ele>257.28</ele>
        <time>2022-10-08T07:54:34Z</time>
      </trkpt>
      <trkpt lat="43.5481" lon="5.42816">
        <ele>257.3</ele>
        <time>2022-10-08T07:54:35Z</time>
      </trkpt>
      <trkpt lat="43.54847" lon="5.42796">
        <ele>260.13</ele>
        <time>2022-10-08T07:54:38Z</time>
      </trkpt>
      <trkpt lat="43.5486" lon="5.42792">
        <ele>261.47</ele>
        <time>2022-10-08T07:54:39Z</time>
      </trkpt>
      <trkpt lat="43.54873" lon="5.42791">
        <ele>261.48</ele>
        <time>2022-10-08T07:54:40Z</time>
      </trkpt>
      <trkpt lat="43.54887" lon="5.42792">
        <ele>263.01</ele>
        <time>2022-10-08T07:54:41Z</time>
      </trkpt>
      <trkpt lat="43.549" lon="5.42794">
        <ele>263.78</ele>
        <time>2022-10-08T07:54:42Z</time>
      </trkpt>
      <trkpt lat="43.54913" lon="5.42797">
        <ele>264.84</ele>
        <time>2022-10-08T07:54:43Z</time>
      </trkpt>
      <trkpt lat="43.54938" lon="5.42807">
        <ele>266</ele>
        <time>2022-10-08T07:54:45Z</time>
      </trkpt>
      <trkpt lat="43.5495" lon="5.42814">
        <ele>267.31</ele>
        <time>2022-10-08T07:54:46Z</time>
      </trkpt>
      <trkpt lat="43.5496" lon="5.42825">
        <ele>268.69</ele>
        <time>2022-10-08T07:54:47Z</time>
      </trkpt>
      <trkpt lat="43.54969" lon="5.42838">
        <ele>269.76</ele>
        <time>2022-10-08T07:54:48Z</time>
      </trkpt>
      <trkpt lat="43.54977" lon="5.42853">
        <ele>270.72</ele>
        <time>2022-10-08T07:54:49Z</time>
      </trkpt>
      <trkpt lat="43.54983" lon="5.42869">
        <ele>271.97</ele>
        <time>2022-10-08T07:54:50Z</time>
      </trkpt>
      <trkpt lat="43.54987" lon="5.42888">
        <ele>273.55</ele>
        <time>2022-10-08T07:54:51Z</time>
      </trkpt>
      <trkpt lat="43.54989" lon="5.42907">
        <ele>274.36</ele>
        <time>2022-10-08T07:54:52Z</time>
      </trkpt>
      <trkpt lat="43.54989" lon="5.42926">
        <ele>274.37</ele>
        <time>2022-10-08T07:54:53Z</time>
      </trkpt>
      <trkpt lat="43.54988" lon="5.42945">
        <ele>275.9</ele>
        <time>2022-10-08T07:54:54Z</time>
      </trkpt>
      <trkpt lat="43.54988" lon="5.43005">
        <ele>279.92</ele>
        <time>2022-10-08T07:54:57Z</time>
      </trkpt>
      <trkpt lat="43.5499" lon="5.43025">
        <ele>279.82</ele>
        <time>2022-10-08T07:54:58Z</time>
      </trkpt>
      <trkpt lat="43.55001" lon="5.43087">
        <ele>283.89</ele>
        <time>2022-10-08T07:55:01Z</time>
      </trkpt>
      <trkpt lat="43.55015" lon="5.43148">
        <ele>287.45</ele>
        <time>2022-10-08T07:55:04Z</time>
      </trkpt>
      <trkpt lat="43.55029" lon="5.43211">
        <ele>290.33</ele>
        <time>2022-10-08T07:55:07Z</time>
      </trkpt>
      <trkpt lat="43.55042" lon="5.4327">
        <ele>293.82</ele>
        <time>2022-10-08T07:55:10Z</time>
      </trkpt>
      <trkpt lat="43.55056" lon="5.43325">
        <ele>295.88</ele>
        <time>2022-10-08T07:55:13Z</time>
      </trkpt>
      <trkpt lat="43.55074" lon="5.43377">
        <ele>298.93</ele>
        <time>2022-10-08T07:55:16Z</time>
      </trkpt>
      <trkpt lat="43.55101" lon="5.43423">
        <ele>301.94</ele>
        <time>2022-10-08T07:55:19Z</time>
      </trkpt>
      <trkpt lat="43.55111" lon="5.43436">
        <ele>304.07</ele>
        <time>2022-10-08T07:55:20Z</time>
      </trkpt>
      <trkpt lat="43.55123" lon="5.43447">
        <ele>305.38</ele>
        <time>2022-10-08T07:55:21Z</time>
      </trkpt>
      <trkpt lat="43.55135" lon="5.43458">
        <ele>306.6</ele>
        <time>2022-10-08T07:55:22Z</time>
      </trkpt>
      <trkpt lat="43.55148" lon="5.43467">
        <ele>308.24</ele>
        <time>2022-10-08T07:55:23Z</time>
      </trkpt>
      <trkpt lat="43.55161" lon="5.43475">
        <ele>309.08</ele>
        <time>2022-10-08T07:55:24Z</time>
      </trkpt>
      <trkpt lat="43.55175" lon="5.43482">
        <ele>309.19</ele>
        <time>2022-10-08T07:55:25Z</time>
      </trkpt>
      <trkpt lat="43.5519" lon="5.43488">
        <ele>310.69</ele>
        <time>2022-10-08T07:55:26Z</time>
      </trkpt>
      <trkpt lat="43.55235" lon="5.43507">
        <ele>314.44</ele>
        <time>2022-10-08T07:55:29Z</time>
      </trkpt>
      <trkpt lat="43.5525" lon="5.43514">
        <ele>314.55</ele>
        <time>2022-10-08T07:55:30Z</time>
      </trkpt>
      <trkpt lat="43.55295" lon="5.43538">
        <ele>317.03</ele>
        <time>2022-10-08T07:55:33Z</time>
      </trkpt>
      <trkpt lat="43.55336" lon="5.43577">
        <ele>319.54</ele>
        <time>2022-10-08T07:55:36Z</time>
      </trkpt>
      <trkpt lat="43.55361" lon="5.4361">
        <ele>321.39</ele>
        <time>2022-10-08T07:55:38Z</time>
      </trkpt>
      <trkpt lat="43.55393" lon="5.43668">
        <ele>323.6</ele>
        <time>2022-10-08T07:55:41Z</time>
      </trkpt>
      <trkpt lat="43.55469" lon="5.43878">
        <ele>323.57</ele>
        <time>2022-10-08T07:55:50Z</time>
      </trkpt>
      <trkpt lat="43.55522" lon="5.44031">
        <ele>320.08</ele>
        <time>2022-10-08T07:55:56Z</time>
      </trkpt>
      <trkpt lat="43.55541" lon="5.44084">
        <ele>319.03</ele>
        <time>2022-10-08T07:55:58Z</time>
      </trkpt>
      <trkpt lat="43.55568" lon="5.44164">
        <ele>315.28</ele>
        <time>2022-10-08T07:56:01Z</time>
      </trkpt>
      <trkpt lat="43.55596" lon="5.44245">
        <ele>311.68</ele>
        <time>2022-10-08T07:56:04Z</time>
      </trkpt>
      <trkpt lat="43.55625" lon="5.44327">
        <ele>308.2</ele>
        <time>2022-10-08T07:56:07Z</time>
      </trkpt>
      <trkpt lat="43.55651" lon="5.44405">
        <ele>304.57</ele>
        <time>2022-10-08T07:56:10Z</time>
      </trkpt>
      <trkpt lat="43.5566" lon="5.44431">
        <ele>304.47</ele>
        <time>2022-10-08T07:56:11Z</time>
      </trkpt>
      <trkpt lat="43.55688" lon="5.4451">
        <ele>303.17</ele>
        <time>2022-10-08T07:56:14Z</time>
      </trkpt>
      <trkpt lat="43.5579" lon="5.44803">
        <ele>301.11</ele>
        <time>2022-10-08T07:56:25Z</time>
      </trkpt>
      <trkpt lat="43.55807" lon="5.44853">
        <ele>299.49</ele>
        <time>2022-10-08T07:56:27Z</time>
      </trkpt>
      <trkpt lat="43.55855" lon="5.44978">
        <ele>297.04</ele>
        <time>2022-10-08T07:56:32Z</time>
      </trkpt>
      <trkpt lat="43.55889" lon="5.45051">
        <ele>294.49</ele>
        <time>2022-10-08T07:56:35Z</time>
      </trkpt>
      <trkpt lat="43.55913" lon="5.45102">
        <ele>292.48</ele>
        <time>2022-10-08T07:56:37Z</time>
      </trkpt>
      <trkpt lat="43.55966" lon="5.45202">
        <ele>288.25</ele>
        <time>2022-10-08T07:56:41Z</time>
      </trkpt>
      <trkpt lat="43.56005" lon="5.45277">
        <ele>285.14</ele>
        <time>2022-10-08T07:56:44Z</time>
      </trkpt>
      <trkpt lat="43.56031" lon="5.45326">
        <ele>283.61</ele>
        <time>2022-10-08T07:56:46Z</time>
      </trkpt>
      <trkpt lat="43.56069" lon="5.45399">
        <ele>282.31</ele>
        <time>2022-10-08T07:56:49Z</time>
      </trkpt>
      <trkpt lat="43.56104" lon="5.45473">
        <ele>280.27</ele>
        <time>2022-10-08T07:56:52Z</time>
      </trkpt>
      <trkpt lat="43.56228" lon="5.45815">
        <ele>280.59</ele>
        <time>2022-10-08T07:57:05Z</time>
      </trkpt>
      <trkpt lat="43.56328" lon="5.46097">
        <ele>283.29</ele>
        <time>2022-10-08T07:57:16Z</time>
      </trkpt>
      <trkpt lat="43.56445" lon="5.463">
        <ele>285.81</ele>
        <time>2022-10-08T07:57:25Z</time>
      </trkpt>
      <trkpt lat="43.5651" lon="5.46375">
        <ele>288.14</ele>
        <time>2022-10-08T07:57:29Z</time>
      </trkpt>
      <trkpt lat="43.56581" lon="5.46437">
        <ele>289.71</ele>
        <time>2022-10-08T07:57:33Z</time>
      </trkpt>
      <trkpt lat="43.56657" lon="5.46488">
        <ele>293.19</ele>
        <time>2022-10-08T07:57:37Z</time>
      </trkpt>
      <trkpt lat="43.56676" lon="5.465">
        <ele>293.17</ele>
        <time>2022-10-08T07:57:38Z</time>
      </trkpt>
      <trkpt lat="43.56799" lon="5.46568">
        <ele>295.57</ele>
        <time>2022-10-08T07:57:44Z</time>
      </trkpt>
      <trkpt lat="43.5684" lon="5.4659">
        <ele>296.78</ele>
        <time>2022-10-08T07:57:46Z</time>
      </trkpt>
      <trkpt lat="43.56944" lon="5.46647">
        <ele>298.09</ele>
        <time>2022-10-08T07:57:51Z</time>
      </trkpt>
      <trkpt lat="43.57004" lon="5.4668">
        <ele>299.46</ele>
        <time>2022-10-08T07:57:54Z</time>
      </trkpt>
      <trkpt lat="43.57082" lon="5.46724">
        <ele>300.5</ele>
        <time>2022-10-08T07:57:58Z</time>
      </trkpt>
      <trkpt lat="43.57177" lon="5.4678">
        <ele>302.13</ele>
        <time>2022-10-08T07:58:03Z</time>
      </trkpt>
      <trkpt lat="43.57329" lon="5.46915">
        <ele>302.8</ele>
        <time>2022-10-08T07:58:12Z</time>
      </trkpt>
      <trkpt lat="43.57421" lon="5.47029">
        <ele>306.32</ele>
        <time>2022-10-08T07:58:18Z</time>
      </trkpt>
      <trkpt lat="43.57437" lon="5.47049">
        <ele>306.38</ele>
        <time>2022-10-08T07:58:19Z</time>
      </trkpt>
      <trkpt lat="43.57546" lon="5.47186">
        <ele>310.33</ele>
        <time>2022-10-08T07:58:26Z</time>
      </trkpt>
      <trkpt lat="43.57562" lon="5.47205">
        <ele>310.34</ele>
        <time>2022-10-08T07:58:27Z</time>
      </trkpt>
      <trkpt lat="43.57775" lon="5.47419">
        <ele>309.41</ele>
        <time>2022-10-08T07:58:39Z</time>
      </trkpt>
      <trkpt lat="43.57962" lon="5.47529">
        <ele>306.16</ele>
        <time>2022-10-08T07:58:48Z</time>
      </trkpt>
      <trkpt lat="43.5817" lon="5.47601">
        <ele>304.87</ele>
        <time>2022-10-08T07:58:58Z</time>
      </trkpt>
      <trkpt lat="43.5858" lon="5.47738">
        <ele>304.11</ele>
        <time>2022-10-08T07:59:18Z</time>
      </trkpt>
      <trkpt lat="43.58621" lon="5.47758">
        <ele>306.73</ele>
        <time>2022-10-08T07:59:20Z</time>
      </trkpt>
      <trkpt lat="43.58702" lon="5.47802">
        <ele>310.83</ele>
        <time>2022-10-08T07:59:24Z</time>
      </trkpt>
      <trkpt lat="43.58722" lon="5.47813">
        <ele>310.86</ele>
        <time>2022-10-08T07:59:25Z</time>
      </trkpt>
      <trkpt lat="43.58881" lon="5.47916">
        <ele>312.42</ele>
        <time>2022-10-08T07:59:33Z</time>
      </trkpt>
      <trkpt lat="43.59071" lon="5.48081">
        <ele>314.75</ele>
        <time>2022-10-08T07:59:43Z</time>
      </trkpt>
      <trkpt lat="43.5916" lon="5.48176">
        <ele>316.17</ele>
        <time>2022-10-08T07:59:48Z</time>
      </trkpt>
      <trkpt lat="43.59244" lon="5.48274">
        <ele>317.41</ele>
        <time>2022-10-08T07:59:53Z</time>
      </trkpt>
      <trkpt lat="43.59396" lon="5.48484">
        <ele>319.97</ele>
        <time>2022-10-08T08:00:03Z</time>
      </trkpt>
      <trkpt lat="43.59439" lon="5.48549">
        <ele>321.66</ele>
        <time>2022-10-08T08:00:06Z</time>
      </trkpt>
      <trkpt lat="43.59466" lon="5.48593">
        <ele>323.14</ele>
        <time>2022-10-08T08:00:08Z</time>
      </trkpt>
      <trkpt lat="43.59507" lon="5.48659">
        <ele>326.16</ele>
        <time>2022-10-08T08:00:11Z</time>
      </trkpt>
      <trkpt lat="43.59548" lon="5.48726">
        <ele>328.58</ele>
        <time>2022-10-08T08:00:14Z</time>
      </trkpt>
      <trkpt lat="43.59575" lon="5.48771">
        <ele>331.8</ele>
        <time>2022-10-08T08:00:16Z</time>
      </trkpt>
      <trkpt lat="43.59602" lon="5.48815">
        <ele>332.96</ele>
        <time>2022-10-08T08:00:18Z</time>
      </trkpt>
      <trkpt lat="43.5963" lon="5.48861">
        <ele>334.59</ele>
        <time>2022-10-08T08:00:20Z</time>
      </trkpt>
      <trkpt lat="43.59657" lon="5.48906">
        <ele>336.46</ele>
        <time>2022-10-08T08:00:22Z</time>
      </trkpt>
      <trkpt lat="43.59685" lon="5.48951">
        <ele>337.9</ele>
        <time>2022-10-08T08:00:24Z</time>
      </trkpt>
      <trkpt lat="43.59769" lon="5.49091">
        <ele>341.49</ele>
        <time>2022-10-08T08:00:30Z</time>
      </trkpt>
      <trkpt lat="43.59901" lon="5.49308">
        <ele>337.68</ele>
        <time>2022-10-08T08:00:39Z</time>
      </trkpt>
      <trkpt lat="43.59916" lon="5.49331">
        <ele>337.69</ele>
        <time>2022-10-08T08:00:40Z</time>
      </trkpt>
      <trkpt lat="43.5998" lon="5.49419">
        <ele>335.03</ele>
        <time>2022-10-08T08:00:44Z</time>
      </trkpt>
      <trkpt lat="43.60031" lon="5.49481">
        <ele>330.65</ele>
        <time>2022-10-08T08:00:47Z</time>
      </trkpt>
      <trkpt lat="43.60106" lon="5.49555">
        <ele>326.65</ele>
        <time>2022-10-08T08:00:51Z</time>
      </trkpt>
      <trkpt lat="43.60147" lon="5.49587">
        <ele>324.61</ele>
        <time>2022-10-08T08:00:53Z</time>
      </trkpt>
      <trkpt lat="43.6019" lon="5.49616">
        <ele>321.81</ele>
        <time>2022-10-08T08:00:55Z</time>
      </trkpt>
      <trkpt lat="43.60232" lon="5.49641">
        <ele>320.34</ele>
        <time>2022-10-08T08:00:57Z</time>
      </trkpt>
      <trkpt lat="43.60276" lon="5.49662">
        <ele>319.06</ele>
        <time>2022-10-08T08:00:59Z</time>
      </trkpt>
      <trkpt lat="43.60319" lon="5.49679">
        <ele>317.59</ele>
        <time>2022-10-08T08:01:01Z</time>
      </trkpt>
      <trkpt lat="43.60385" lon="5.49699">
        <ele>315.8</ele>
        <time>2022-10-08T08:01:04Z</time>
      </trkpt>
      <trkpt lat="43.60519" lon="5.49721">
        <ele>311.08</ele>
        <time>2022-10-08T08:01:10Z</time>
      </trkpt>
      <trkpt lat="43.60542" lon="5.49723">
        <ele>311.1</ele>
        <time>2022-10-08T08:01:11Z</time>
      </trkpt>
      <trkpt lat="43.60655" lon="5.49734">
        <ele>307.91</ele>
        <time>2022-10-08T08:01:16Z</time>
      </trkpt>
      <trkpt lat="43.60723" lon="5.49739">
        <ele>305.26</ele>
        <time>2022-10-08T08:01:19Z</time>
      </trkpt>
      <trkpt lat="43.6077" lon="5.49743">
        <ele>303.9</ele>
        <time>2022-10-08T08:01:21Z</time>
      </trkpt>
      <trkpt lat="43.6084" lon="5.4975">
        <ele>301.4</ele>
        <time>2022-10-08T08:01:24Z</time>
      </trkpt>
      <trkpt lat="43.60911" lon="5.49758">
        <ele>297.59</ele>
        <time>2022-10-08T08:01:27Z</time>
      </trkpt>
      <trkpt lat="43.60978" lon="5.49765">
        <ele>293.82</ele>
        <time>2022-10-08T08:01:30Z</time>
      </trkpt>
      <trkpt lat="43.61001" lon="5.49766">
        <ele>293.9</ele>
        <time>2022-10-08T08:01:31Z</time>
      </trkpt>
      <trkpt lat="43.61047" lon="5.49768">
        <ele>290.33</ele>
        <time>2022-10-08T08:01:33Z</time>
      </trkpt>
      <trkpt lat="43.61117" lon="5.49768">
        <ele>287.77</ele>
        <time>2022-10-08T08:01:36Z</time>
      </trkpt>
      <trkpt lat="43.61187" lon="5.49763">
        <ele>283.02</ele>
        <time>2022-10-08T08:01:39Z</time>
      </trkpt>
      <trkpt lat="43.61257" lon="5.4975">
        <ele>280.17</ele>
        <time>2022-10-08T08:01:42Z</time>
      </trkpt>
      <trkpt lat="43.61303" lon="5.49738">
        <ele>276.8</ele>
        <time>2022-10-08T08:01:44Z</time>
      </trkpt>
      <trkpt lat="43.61372" lon="5.49714">
        <ele>273.47</ele>
        <time>2022-10-08T08:01:47Z</time>
      </trkpt>
      <trkpt lat="43.61418" lon="5.49696">
        <ele>269.73</ele>
        <time>2022-10-08T08:01:49Z</time>
      </trkpt>
      <trkpt lat="43.61486" lon="5.49665">
        <ele>266.54</ele>
        <time>2022-10-08T08:01:52Z</time>
      </trkpt>
      <trkpt lat="43.61553" lon="5.49632">
        <ele>263.11</ele>
        <time>2022-10-08T08:01:55Z</time>
      </trkpt>
      <trkpt lat="43.61619" lon="5.49599">
        <ele>260.88</ele>
        <time>2022-10-08T08:01:58Z</time>
      </trkpt>
      <trkpt lat="43.61662" lon="5.49577">
        <ele>258.82</ele>
        <time>2022-10-08T08:02:00Z</time>
      </trkpt>
      <trkpt lat="43.61727" lon="5.49544">
        <ele>255.3</ele>
        <time>2022-10-08T08:02:03Z</time>
      </trkpt>
      <trkpt lat="43.6177" lon="5.49523">
        <ele>254.34</ele>
        <time>2022-10-08T08:02:05Z</time>
      </trkpt>
      <trkpt lat="43.61833" lon="5.49491">
        <ele>251.61</ele>
        <time>2022-10-08T08:02:08Z</time>
      </trkpt>
      <trkpt lat="43.61876" lon="5.49469">
        <ele>250.08</ele>
        <time>2022-10-08T08:02:10Z</time>
      </trkpt>
      <trkpt lat="43.6196" lon="5.49427">
        <ele>248.23</ele>
        <time>2022-10-08T08:02:14Z</time>
      </trkpt>
      <trkpt lat="43.62045" lon="5.49385">
        <ele>244.8</ele>
        <time>2022-10-08T08:02:18Z</time>
      </trkpt>
      <trkpt lat="43.62131" lon="5.49342">
        <ele>241.61</ele>
        <time>2022-10-08T08:02:22Z</time>
      </trkpt>
      <trkpt lat="43.62152" lon="5.49331">
        <ele>241.62</ele>
        <time>2022-10-08T08:02:23Z</time>
      </trkpt>
      <trkpt lat="43.62283" lon="5.49277">
        <ele>239.15</ele>
        <time>2022-10-08T08:02:29Z</time>
      </trkpt>
      <trkpt lat="43.62327" lon="5.49263">
        <ele>237.72</ele>
        <time>2022-10-08T08:02:31Z</time>
      </trkpt>
      <trkpt lat="43.62416" lon="5.49242">
        <ele>235.87</ele>
        <time>2022-10-08T08:02:35Z</time>
      </trkpt>
      <trkpt lat="43.6246" lon="5.49237">
        <ele>233.99</ele>
        <time>2022-10-08T08:02:37Z</time>
      </trkpt>
      <trkpt lat="43.62505" lon="5.49236">
        <ele>232.64</ele>
        <time>2022-10-08T08:02:39Z</time>
      </trkpt>
      <trkpt lat="43.62661" lon="5.49253">
        <ele>229.88</ele>
        <time>2022-10-08T08:02:46Z</time>
      </trkpt>
      <trkpt lat="43.62813" lon="5.49299">
        <ele>226.7</ele>
        <time>2022-10-08T08:02:53Z</time>
      </trkpt>
      <trkpt lat="43.62835" lon="5.49307">
        <ele>226.73</ele>
        <time>2022-10-08T08:02:54Z</time>
      </trkpt>
      <trkpt lat="43.62985" lon="5.49364">
        <ele>224.09</ele>
        <time>2022-10-08T08:03:01Z</time>
      </trkpt>
      <trkpt lat="43.63114" lon="5.49412">
        <ele>221.94</ele>
        <time>2022-10-08T08:03:07Z</time>
      </trkpt>
      <trkpt lat="43.63312" lon="5.49456">
        <ele>218.47</ele>
        <time>2022-10-08T08:03:16Z</time>
      </trkpt>
      <trkpt lat="43.63446" lon="5.49452">
        <ele>216.12</ele>
        <time>2022-10-08T08:03:22Z</time>
      </trkpt>
      <trkpt lat="43.63557" lon="5.49427">
        <ele>214.88</ele>
        <time>2022-10-08T08:03:27Z</time>
      </trkpt>
      <trkpt lat="43.63644" lon="5.49398">
        <ele>212.77</ele>
        <time>2022-10-08T08:03:31Z</time>
      </trkpt>
      <trkpt lat="43.63731" lon="5.49363">
        <ele>209.54</ele>
        <time>2022-10-08T08:03:35Z</time>
      </trkpt>
      <trkpt lat="43.63753" lon="5.49354">
        <ele>209.55</ele>
        <time>2022-10-08T08:03:36Z</time>
      </trkpt>
      <trkpt lat="43.63819" lon="5.49328">
        <ele>208.15</ele>
        <time>2022-10-08T08:03:39Z</time>
      </trkpt>
      <trkpt lat="43.63884" lon="5.49302">
        <ele>206.7</ele>
        <time>2022-10-08T08:03:42Z</time>
      </trkpt>
      <trkpt lat="43.63949" lon="5.49276">
        <ele>203.7</ele>
        <time>2022-10-08T08:03:45Z</time>
      </trkpt>
      <trkpt lat="43.6397" lon="5.49269">
        <ele>203.66</ele>
        <time>2022-10-08T08:03:46Z</time>
      </trkpt>
      <trkpt lat="43.64013" lon="5.49253">
        <ele>201.92</ele>
        <time>2022-10-08T08:03:48Z</time>
      </trkpt>
      <trkpt lat="43.64078" lon="5.49233">
        <ele>200.57</ele>
        <time>2022-10-08T08:03:51Z</time>
      </trkpt>
      <trkpt lat="43.64143" lon="5.49216">
        <ele>198.67</ele>
        <time>2022-10-08T08:03:54Z</time>
      </trkpt>
      <trkpt lat="43.64232" lon="5.49201">
        <ele>195.57</ele>
        <time>2022-10-08T08:03:58Z</time>
      </trkpt>
      <trkpt lat="43.64254" lon="5.49198">
        <ele>196.24</ele>
        <time>2022-10-08T08:03:59Z</time>
      </trkpt>
      <trkpt lat="43.64322" lon="5.49194">
        <ele>193.6</ele>
        <time>2022-10-08T08:04:02Z</time>
      </trkpt>
      <trkpt lat="43.64367" lon="5.49193">
        <ele>192.28</ele>
        <time>2022-10-08T08:04:04Z</time>
      </trkpt>
      <trkpt lat="43.6446" lon="5.49198">
        <ele>189.81</ele>
        <time>2022-10-08T08:04:08Z</time>
      </trkpt>
      <trkpt lat="43.6453" lon="5.49206">
        <ele>187.74</ele>
        <time>2022-10-08T08:04:11Z</time>
      </trkpt>
      <trkpt lat="43.64599" lon="5.49217">
        <ele>185.65</ele>
        <time>2022-10-08T08:04:14Z</time>
      </trkpt>
      <trkpt lat="43.64644" lon="5.49224">
        <ele>184.17</ele>
        <time>2022-10-08T08:04:16Z</time>
      </trkpt>
      <trkpt lat="43.64689" lon="5.49231">
        <ele>182.82</ele>
        <time>2022-10-08T08:04:18Z</time>
      </trkpt>
      <trkpt lat="43.64777" lon="5.49246">
        <ele>181.29</ele>
        <time>2022-10-08T08:04:22Z</time>
      </trkpt>
      <trkpt lat="43.64821" lon="5.49254">
        <ele>179.89</ele>
        <time>2022-10-08T08:04:24Z</time>
      </trkpt>
      <trkpt lat="43.64997" lon="5.49284">
        <ele>176.77</ele>
        <time>2022-10-08T08:04:32Z</time>
      </trkpt>
      <trkpt lat="43.65194" lon="5.49323">
        <ele>173.64</ele>
        <time>2022-10-08T08:04:41Z</time>
      </trkpt>
      <trkpt lat="43.65491" lon="5.49425">
        <ele>171.79</ele>
        <time>2022-10-08T08:04:55Z</time>
      </trkpt>
      <trkpt lat="43.65699" lon="5.4957">
        <ele>170.88</ele>
        <time>2022-10-08T08:05:06Z</time>
      </trkpt>
      <trkpt lat="43.65881" lon="5.49775">
        <ele>173.34</ele>
        <time>2022-10-08T08:05:17Z</time>
      </trkpt>
      <trkpt lat="43.65981" lon="5.49938">
        <ele>173.37</ele>
        <time>2022-10-08T08:05:25Z</time>
      </trkpt>
      <trkpt lat="43.66002" lon="5.49979">
        <ele>171</ele>
        <time>2022-10-08T08:05:27Z</time>
      </trkpt>
      <trkpt lat="43.66072" lon="5.50169">
        <ele>171.05</ele>
        <time>2022-10-08T08:05:36Z</time>
      </trkpt>
      <trkpt lat="43.66117" lon="5.50335">
        <ele>169.92</ele>
        <time>2022-10-08T08:05:46Z</time>
      </trkpt>
      <trkpt lat="43.6612" lon="5.50345">
        <ele>169.9</ele>
        <time>2022-10-08T08:05:47Z</time>
      </trkpt>
      <trkpt lat="43.66124" lon="5.50362">
        <ele>169.05</ele>
        <time>2022-10-08T08:05:53Z</time>
      </trkpt>
      <trkpt lat="43.66125" lon="5.50357">
        <ele>168.61</ele>
        <time>2022-10-08T08:06:18Z</time>
      </trkpt>
      <trkpt lat="43.66126" lon="5.50359">
        <ele>168.63</ele>
        <time>2022-10-08T08:06:23Z</time>
      </trkpt>
      <trkpt lat="43.66126" lon="5.50362">
        <ele>168.65</ele>
        <time>2022-10-08T08:06:24Z</time>
      </trkpt>
      <trkpt lat="43.66128" lon="5.50369">
        <ele>168.69</ele>
        <time>2022-10-08T08:06:25Z</time>
      </trkpt>
      <trkpt lat="43.6613" lon="5.50391">
        <ele>168.85</ele>
        <time>2022-10-08T08:06:27Z</time>
      </trkpt>
      <trkpt lat="43.6613" lon="5.50407">
        <ele>168.85</ele>
        <time>2022-10-08T08:06:28Z</time>
      </trkpt>
      <trkpt lat="43.66129" lon="5.50439">
        <ele>171.52</ele>
        <time>2022-10-08T08:06:30Z</time>
      </trkpt>
      <trkpt lat="43.66125" lon="5.50505">
        <ele>171.44</ele>
        <time>2022-10-08T08:06:35Z</time>
      </trkpt>
      <trkpt lat="43.66126" lon="5.50515">
        <ele>168.67</ele>
        <time>2022-10-08T08:06:36Z</time>
      </trkpt>
      <trkpt lat="43.66127" lon="5.50522">
        <ele>168.68</ele>
        <time>2022-10-08T08:06:37Z</time>
      </trkpt>
      <trkpt lat="43.66134" lon="5.50541">
        <ele>167.58</ele>
        <time>2022-10-08T08:06:45Z</time>
      </trkpt>
      <trkpt lat="43.66133" lon="5.5054">
        <ele>260.89</ele>
        <time>2022-10-08T08:06:50Z</time>
      </trkpt>
      <trkpt lat="43.66141" lon="5.50586">
        <ele>174.7</ele>
        <time>2022-10-08T08:26:01Z</time>
      </trkpt>
      <trkpt lat="43.66166" lon="5.50684">
        <ele>180.61</ele>
        <time>2022-10-08T08:26:08Z</time>
      </trkpt>
      <trkpt lat="43.66169" lon="5.50701">
        <ele>180.94</ele>
        <time>2022-10-08T08:26:09Z</time>
      </trkpt>
      <trkpt lat="43.66176" lon="5.50804">
        <ele>183.15</ele>
        <time>2022-10-08T08:26:14Z</time>
      </trkpt>
      <trkpt lat="43.66173" lon="5.50971">
        <ele>185.61</ele>
        <time>2022-10-08T08:26:21Z</time>
      </trkpt>
      <trkpt lat="43.66152" lon="5.51154">
        <ele>187.55</ele>
        <time>2022-10-08T08:26:28Z</time>
      </trkpt>
      <trkpt lat="43.66078" lon="5.51445">
        <ele>190.62</ele>
        <time>2022-10-08T08:26:39Z</time>
      </trkpt>
      <trkpt lat="43.65966" lon="5.51701">
        <ele>189.97</ele>
        <time>2022-10-08T08:26:49Z</time>
      </trkpt>
      <trkpt lat="43.65799" lon="5.52033">
        <ele>192.73</ele>
        <time>2022-10-08T08:27:02Z</time>
      </trkpt>
      <trkpt lat="43.65705" lon="5.52316">
        <ele>193.79</ele>
        <time>2022-10-08T08:27:12Z</time>
      </trkpt>
      <trkpt lat="43.65656" lon="5.5262">
        <ele>193.84</ele>
        <time>2022-10-08T08:27:22Z</time>
      </trkpt>
      <trkpt lat="43.65654" lon="5.52937">
        <ele>193.87</ele>
        <time>2022-10-08T08:27:32Z</time>
      </trkpt>
      <trkpt lat="43.65662" lon="5.53032">
        <ele>195.26</ele>
        <time>2022-10-08T08:27:35Z</time>
      </trkpt>
      <trkpt lat="43.65731" lon="5.53506">
        <ele>195.23</ele>
        <time>2022-10-08T08:27:50Z</time>
      </trkpt>
      <trkpt lat="43.65795" lon="5.5409">
        <ele>197.16</ele>
        <time>2022-10-08T08:28:08Z</time>
      </trkpt>
      <trkpt lat="43.65818" lon="5.54437">
        <ele>195.42</ele>
        <time>2022-10-08T08:28:19Z</time>
      </trkpt>
      <trkpt lat="43.65837" lon="5.54793">
        <ele>198.82</ele>
        <time>2022-10-08T08:28:30Z</time>
      </trkpt>
      <trkpt lat="43.6584" lon="5.54859">
        <ele>199.62</ele>
        <time>2022-10-08T08:28:32Z</time>
      </trkpt>
      <trkpt lat="43.65851" lon="5.55539">
        <ele>199.51</ele>
        <time>2022-10-08T08:28:53Z</time>
      </trkpt>
      <trkpt lat="43.65852" lon="5.55754">
        <ele>199.53</ele>
        <time>2022-10-08T08:29:01Z</time>
      </trkpt>
      <trkpt lat="43.65852" lon="5.558">
        <ele>196.77</ele>
        <time>2022-10-08T08:29:03Z</time>
      </trkpt>
      <trkpt lat="43.65854" lon="5.56032">
        <ele>196.7</ele>
        <time>2022-10-08T08:29:12Z</time>
      </trkpt>
      <trkpt lat="43.65858" lon="5.56274">
        <ele>200.65</ele>
        <time>2022-10-08T08:29:21Z</time>
      </trkpt>
      <trkpt lat="43.65858" lon="5.56307">
        <ele>200.7</ele>
        <time>2022-10-08T08:29:22Z</time>
      </trkpt>
      <trkpt lat="43.65858" lon="5.56376">
        <ele>202.38</ele>
        <time>2022-10-08T08:29:24Z</time>
      </trkpt>
      <trkpt lat="43.6586" lon="5.56586">
        <ele>205.17</ele>
        <time>2022-10-08T08:29:30Z</time>
      </trkpt>
      <trkpt lat="43.65869" lon="5.57483">
        <ele>206.29</ele>
        <time>2022-10-08T08:29:56Z</time>
      </trkpt>
      <trkpt lat="43.65853" lon="5.58093">
        <ele>206.16</ele>
        <time>2022-10-08T08:30:13Z</time>
      </trkpt>
      <trkpt lat="43.65792" lon="5.58831">
        <ele>208.83</ele>
        <time>2022-10-08T08:30:33Z</time>
      </trkpt>
      <trkpt lat="43.657" lon="5.59484">
        <ele>210.83</ele>
        <time>2022-10-08T08:30:51Z</time>
      </trkpt>
      <trkpt lat="43.65577" lon="5.60371">
        <ele>212.43</ele>
        <time>2022-10-08T08:31:16Z</time>
      </trkpt>
      <trkpt lat="43.65569" lon="5.60799">
        <ele>212.36</ele>
        <time>2022-10-08T08:31:28Z</time>
      </trkpt>
      <trkpt lat="43.65589" lon="5.61047">
        <ele>213.57</ele>
        <time>2022-10-08T08:31:35Z</time>
      </trkpt>
      <trkpt lat="43.65664" lon="5.6146">
        <ele>214.65</ele>
        <time>2022-10-08T08:31:47Z</time>
      </trkpt>
      <trkpt lat="43.65778" lon="5.61814">
        <ele>214.61</ele>
        <time>2022-10-08T08:31:58Z</time>
      </trkpt>
      <trkpt lat="43.65968" lon="5.6223">
        <ele>214.58</ele>
        <time>2022-10-08T08:32:12Z</time>
      </trkpt>
      <trkpt lat="43.66273" lon="5.62822">
        <ele>217.45</ele>
        <time>2022-10-08T08:32:33Z</time>
      </trkpt>
      <trkpt lat="43.66302" lon="5.62878">
        <ele>218.85</ele>
        <time>2022-10-08T08:32:35Z</time>
      </trkpt>
      <trkpt lat="43.66611" lon="5.63476">
        <ele>219.43</ele>
        <time>2022-10-08T08:32:56Z</time>
      </trkpt>
      <trkpt lat="43.67007" lon="5.64247">
        <ele>219.59</ele>
        <time>2022-10-08T08:33:23Z</time>
      </trkpt>
      <trkpt lat="43.67152" lon="5.64526">
        <ele>220.87</ele>
        <time>2022-10-08T08:33:33Z</time>
      </trkpt>
      <trkpt lat="43.67347" lon="5.64836">
        <ele>221.89</ele>
        <time>2022-10-08T08:33:45Z</time>
      </trkpt>
      <trkpt lat="43.67403" lon="5.64902">
        <ele>223.18</ele>
        <time>2022-10-08T08:33:48Z</time>
      </trkpt>
      <trkpt lat="43.67609" lon="5.65082">
        <ele>224.79</ele>
        <time>2022-10-08T08:33:58Z</time>
      </trkpt>
      <trkpt lat="43.68061" lon="5.6541">
        <ele>225.71</ele>
        <time>2022-10-08T08:34:19Z</time>
      </trkpt>
      <trkpt lat="43.68383" lon="5.65674">
        <ele>226.47</ele>
        <time>2022-10-08T08:34:34Z</time>
      </trkpt>
      <trkpt lat="43.68526" lon="5.65874">
        <ele>227.31</ele>
        <time>2022-10-08T08:34:42Z</time>
      </trkpt>
      <trkpt lat="43.68631" lon="5.66123">
        <ele>227.25</ele>
        <time>2022-10-08T08:34:50Z</time>
      </trkpt>
      <trkpt lat="43.68699" lon="5.66437">
        <ele>228.41</ele>
        <time>2022-10-08T08:34:59Z</time>
      </trkpt>
      <trkpt lat="43.68727" lon="5.66614">
        <ele>229.77</ele>
        <time>2022-10-08T08:35:04Z</time>
      </trkpt>
      <trkpt lat="43.68812" lon="5.6706">
        <ele>230.8</ele>
        <time>2022-10-08T08:35:17Z</time>
      </trkpt>
      <trkpt lat="43.68894" lon="5.6728">
        <ele>228.41</ele>
        <time>2022-10-08T08:35:24Z</time>
      </trkpt>
      <trkpt lat="43.69058" lon="5.67635">
        <ele>228.48</ele>
        <time>2022-10-08T08:35:36Z</time>
      </trkpt>
      <trkpt lat="43.69102" lon="5.67845">
        <ele>231.03</ele>
        <time>2022-10-08T08:35:42Z</time>
      </trkpt>
      <trkpt lat="43.69108" lon="5.68099">
        <ele>231.73</ele>
        <time>2022-10-08T08:35:49Z</time>
      </trkpt>
      <trkpt lat="43.69066" lon="5.68419">
        <ele>233.66</ele>
        <time>2022-10-08T08:35:58Z</time>
      </trkpt>
      <trkpt lat="43.69021" lon="5.6888">
        <ele>233.62</ele>
        <time>2022-10-08T08:36:11Z</time>
      </trkpt>
      <trkpt lat="43.68971" lon="5.69635">
        <ele>234.42</ele>
        <time>2022-10-08T08:36:32Z</time>
      </trkpt>
      <trkpt lat="43.68903" lon="5.70683">
        <ele>235.28</ele>
        <time>2022-10-08T08:37:01Z</time>
      </trkpt>
      <trkpt lat="43.689" lon="5.71084">
        <ele>236.97</ele>
        <time>2022-10-08T08:37:12Z</time>
      </trkpt>
      <trkpt lat="43.68949" lon="5.71405">
        <ele>236.98</ele>
        <time>2022-10-08T08:37:21Z</time>
      </trkpt>
      <trkpt lat="43.69009" lon="5.7161">
        <ele>238.47</ele>
        <time>2022-10-08T08:37:27Z</time>
      </trkpt>
      <trkpt lat="43.69138" lon="5.71896">
        <ele>238.5</ele>
        <time>2022-10-08T08:37:36Z</time>
      </trkpt>
      <trkpt lat="43.69302" lon="5.72135">
        <ele>239.59</ele>
        <time>2022-10-08T08:37:45Z</time>
      </trkpt>
      <trkpt lat="43.69516" lon="5.72344">
        <ele>239.53</ele>
        <time>2022-10-08T08:37:55Z</time>
      </trkpt>
      <trkpt lat="43.6978" lon="5.72534">
        <ele>239.62</ele>
        <time>2022-10-08T08:38:06Z</time>
      </trkpt>
      <trkpt lat="43.69833" lon="5.7257">
        <ele>241.36</ele>
        <time>2022-10-08T08:38:08Z</time>
      </trkpt>
      <trkpt lat="43.70245" lon="5.7286">
        <ele>241.2</ele>
        <time>2022-10-08T08:38:24Z</time>
      </trkpt>
      <trkpt lat="43.70589" lon="5.73176">
        <ele>241.28</ele>
        <time>2022-10-08T08:38:39Z</time>
      </trkpt>
      <trkpt lat="43.70826" lon="5.73388">
        <ele>241.2</ele>
        <time>2022-10-08T08:38:50Z</time>
      </trkpt>
      <trkpt lat="43.70889" lon="5.73435">
        <ele>238.88</ele>
        <time>2022-10-08T08:38:53Z</time>
      </trkpt>
      <trkpt lat="43.70999" lon="5.73507">
        <ele>241.46</ele>
        <time>2022-10-08T08:38:58Z</time>
      </trkpt>
      <trkpt lat="43.711" lon="5.73557">
        <ele>242.77</ele>
        <time>2022-10-08T08:39:02Z</time>
      </trkpt>
      <trkpt lat="43.71183" lon="5.73588">
        <ele>246.44</ele>
        <time>2022-10-08T08:39:05Z</time>
      </trkpt>
      <trkpt lat="43.71212" lon="5.73598">
        <ele>246.4</ele>
        <time>2022-10-08T08:39:06Z</time>
      </trkpt>
      <trkpt lat="43.71467" lon="5.7365">
        <ele>247.09</ele>
        <time>2022-10-08T08:39:15Z</time>
      </trkpt>
      <trkpt lat="43.7169" lon="5.73671">
        <ele>249.18</ele>
        <time>2022-10-08T08:39:23Z</time>
      </trkpt>
      <trkpt lat="43.71941" lon="5.73694">
        <ele>246.37</ele>
        <time>2022-10-08T08:39:32Z</time>
      </trkpt>
      <trkpt lat="43.72137" lon="5.73722">
        <ele>244.65</ele>
        <time>2022-10-08T08:39:39Z</time>
      </trkpt>
      <trkpt lat="43.72384" lon="5.73808">
        <ele>244.67</ele>
        <time>2022-10-08T08:39:48Z</time>
      </trkpt>
      <trkpt lat="43.72588" lon="5.73936">
        <ele>247.51</ele>
        <time>2022-10-08T08:39:56Z</time>
      </trkpt>
      <trkpt lat="43.72838" lon="5.74176">
        <ele>247.5</ele>
        <time>2022-10-08T08:40:07Z</time>
      </trkpt>
      <trkpt lat="43.7321" lon="5.74628">
        <ele>249.25</ele>
        <time>2022-10-08T08:40:25Z</time>
      </trkpt>
      <trkpt lat="43.73591" lon="5.75103">
        <ele>251.29</ele>
        <time>2022-10-08T08:40:44Z</time>
      </trkpt>
      <trkpt lat="43.73751" lon="5.75303">
        <ele>254.41</ele>
        <time>2022-10-08T08:40:52Z</time>
      </trkpt>
      <trkpt lat="43.74174" lon="5.75787">
        <ele>256.85</ele>
        <time>2022-10-08T08:41:12Z</time>
      </trkpt>
      <trkpt lat="43.74565" lon="5.76201">
        <ele>258.64</ele>
        <time>2022-10-08T08:41:30Z</time>
      </trkpt>
      <trkpt lat="43.75063" lon="5.76727">
        <ele>259.77</ele>
        <time>2022-10-08T08:41:53Z</time>
      </trkpt>
      <trkpt lat="43.75604" lon="5.77301">
        <ele>261.9</ele>
        <time>2022-10-08T08:42:18Z</time>
      </trkpt>
      <trkpt lat="43.76011" lon="5.77728">
        <ele>262.72</ele>
        <time>2022-10-08T08:42:37Z</time>
      </trkpt>
      <trkpt lat="43.76056" lon="5.7777">
        <ele>264</ele>
        <time>2022-10-08T08:42:39Z</time>
      </trkpt>
      <trkpt lat="43.76148" lon="5.77849">
        <ele>265.33</ele>
        <time>2022-10-08T08:42:43Z</time>
      </trkpt>
      <trkpt lat="43.76269" lon="5.77939">
        <ele>267.55</ele>
        <time>2022-10-08T08:42:48Z</time>
      </trkpt>
      <trkpt lat="43.76565" lon="5.78187">
        <ele>269.18</ele>
        <time>2022-10-08T08:43:01Z</time>
      </trkpt>
      <trkpt lat="43.76703" lon="5.78391">
        <ele>270.91</ele>
        <time>2022-10-08T08:43:09Z</time>
      </trkpt>
      <trkpt lat="43.76848" lon="5.78714">
        <ele>270.88</ele>
        <time>2022-10-08T08:43:20Z</time>
      </trkpt>
      <trkpt lat="43.76992" lon="5.79046">
        <ele>268.1</ele>
        <time>2022-10-08T08:43:31Z</time>
      </trkpt>
      <trkpt lat="43.77219" lon="5.79524">
        <ele>268.11</ele>
        <time>2022-10-08T08:43:47Z</time>
      </trkpt>
      <trkpt lat="43.77322" lon="5.79686">
        <ele>270.85</ele>
        <time>2022-10-08T08:43:53Z</time>
      </trkpt>
      <trkpt lat="43.77536" lon="5.79952">
        <ele>271.75</ele>
        <time>2022-10-08T08:44:04Z</time>
      </trkpt>
      <trkpt lat="43.77778" lon="5.80164">
        <ele>272.65</ele>
        <time>2022-10-08T08:44:15Z</time>
      </trkpt>
      <trkpt lat="43.78039" lon="5.80319">
        <ele>273.34</ele>
        <time>2022-10-08T08:44:26Z</time>
      </trkpt>
      <trkpt lat="43.78525" lon="5.80535">
        <ele>275.16</ele>
        <time>2022-10-08T08:44:46Z</time>
      </trkpt>
      <trkpt lat="43.78598" lon="5.80568">
        <ele>276.43</ele>
        <time>2022-10-08T08:44:49Z</time>
      </trkpt>
      <trkpt lat="43.78923" lon="5.8071">
        <ele>277.76</ele>
        <time>2022-10-08T08:45:02Z</time>
      </trkpt>
      <trkpt lat="43.79005" lon="5.80745">
        <ele>280.1</ele>
        <time>2022-10-08T08:45:05Z</time>
      </trkpt>
      <trkpt lat="43.79416" lon="5.80948">
        <ele>282.17</ele>
        <time>2022-10-08T08:45:20Z</time>
      </trkpt>
      <trkpt lat="43.79788" lon="5.81204">
        <ele>282.98</ele>
        <time>2022-10-08T08:45:35Z</time>
      </trkpt>
      <trkpt lat="43.80267" lon="5.81533">
        <ele>283.99</ele>
        <time>2022-10-08T08:45:55Z</time>
      </trkpt>
      <trkpt lat="43.80602" lon="5.81677">
        <ele>284.82</ele>
        <time>2022-10-08T08:46:08Z</time>
      </trkpt>
      <trkpt lat="43.8083" lon="5.81757">
        <ele>281.47</ele>
        <time>2022-10-08T08:46:17Z</time>
      </trkpt>
      <trkpt lat="43.80853" lon="5.81765">
        <ele>281.48</ele>
        <time>2022-10-08T08:46:18Z</time>
      </trkpt>
      <trkpt lat="43.80971" lon="5.81808">
        <ele>285.27</ele>
        <time>2022-10-08T08:46:23Z</time>
      </trkpt>
      <trkpt lat="43.80996" lon="5.81819">
        <ele>285.27</ele>
        <time>2022-10-08T08:46:24Z</time>
      </trkpt>
      <trkpt lat="43.81072" lon="5.81856">
        <ele>289.23</ele>
        <time>2022-10-08T08:46:27Z</time>
      </trkpt>
      <trkpt lat="43.81098" lon="5.8187">
        <ele>289.28</ele>
        <time>2022-10-08T08:46:28Z</time>
      </trkpt>
      <trkpt lat="43.81352" lon="5.82047">
        <ele>289.55</ele>
        <time>2022-10-08T08:46:38Z</time>
      </trkpt>
      <trkpt lat="43.81584" lon="5.82275">
        <ele>290.04</ele>
        <time>2022-10-08T08:46:48Z</time>
      </trkpt>
      <trkpt lat="43.81804" lon="5.8258">
        <ele>293.17</ele>
        <time>2022-10-08T08:46:59Z</time>
      </trkpt>
      <trkpt lat="43.81822" lon="5.8261">
        <ele>293.17</ele>
        <time>2022-10-08T08:47:00Z</time>
      </trkpt>
      <trkpt lat="43.81876" lon="5.82701">
        <ele>290.77</ele>
        <time>2022-10-08T08:47:03Z</time>
      </trkpt>
      <trkpt lat="43.82188" lon="5.83255">
        <ele>293.16</ele>
        <time>2022-10-08T08:47:21Z</time>
      </trkpt>
      <trkpt lat="43.82476" lon="5.8373">
        <ele>294.8</ele>
        <time>2022-10-08T08:47:37Z</time>
      </trkpt>
      <trkpt lat="43.82715" lon="5.83995">
        <ele>296.33</ele>
        <time>2022-10-08T08:47:48Z</time>
      </trkpt>
      <trkpt lat="43.83024" lon="5.8425">
        <ele>297.31</ele>
        <time>2022-10-08T08:48:01Z</time>
      </trkpt>
      <trkpt lat="43.83332" lon="5.84436">
        <ele>299.03</ele>
        <time>2022-10-08T08:48:13Z</time>
      </trkpt>
      <trkpt lat="43.83862" lon="5.84715">
        <ele>300.69</ele>
        <time>2022-10-08T08:48:33Z</time>
      </trkpt>
      <trkpt lat="43.84171" lon="5.84911">
        <ele>303.78</ele>
        <time>2022-10-08T08:48:45Z</time>
      </trkpt>
      <trkpt lat="43.84197" lon="5.84927">
        <ele>303.83</ele>
        <time>2022-10-08T08:48:46Z</time>
      </trkpt>
      <trkpt lat="43.84349" lon="5.85022">
        <ele>305.53</ele>
        <time>2022-10-08T08:48:52Z</time>
      </trkpt>
      <trkpt lat="43.84719" lon="5.85286">
        <ele>305.59</ele>
        <time>2022-10-08T08:49:07Z</time>
      </trkpt>
      <trkpt lat="43.84832" lon="5.85398">
        <ele>308.27</ele>
        <time>2022-10-08T08:49:12Z</time>
      </trkpt>
      <trkpt lat="43.84999" lon="5.85603">
        <ele>311.31</ele>
        <time>2022-10-08T08:49:20Z</time>
      </trkpt>
      <trkpt lat="43.85226" lon="5.859">
        <ele>313.45</ele>
        <time>2022-10-08T08:49:31Z</time>
      </trkpt>
      <trkpt lat="43.85405" lon="5.86033">
        <ele>313.35</ele>
        <time>2022-10-08T08:49:38Z</time>
      </trkpt>
      <trkpt lat="43.85461" lon="5.86059">
        <ele>310.77</ele>
        <time>2022-10-08T08:49:40Z</time>
      </trkpt>
      <trkpt lat="43.85781" lon="5.86193">
        <ele>308.23</ele>
        <time>2022-10-08T08:49:52Z</time>
      </trkpt>
      <trkpt lat="43.8605" lon="5.86348">
        <ele>308.21</ele>
        <time>2022-10-08T08:50:03Z</time>
      </trkpt>
      <trkpt lat="43.86168" lon="5.8644">
        <ele>310.71</ele>
        <time>2022-10-08T08:50:08Z</time>
      </trkpt>
      <trkpt lat="43.86552" lon="5.86748">
        <ele>312.57</ele>
        <time>2022-10-08T08:50:25Z</time>
      </trkpt>
      <trkpt lat="43.8684" lon="5.86992">
        <ele>312.49</ele>
        <time>2022-10-08T08:50:39Z</time>
      </trkpt>
      <trkpt lat="43.87101" lon="5.87216">
        <ele>313.32</ele>
        <time>2022-10-08T08:50:52Z</time>
      </trkpt>
      <trkpt lat="43.87403" lon="5.87434">
        <ele>313.3</ele>
        <time>2022-10-08T08:51:07Z</time>
      </trkpt>
      <trkpt lat="43.87686" lon="5.87635">
        <ele>316.35</ele>
        <time>2022-10-08T08:51:22Z</time>
      </trkpt>
      <trkpt lat="43.87707" lon="5.87649">
        <ele>316.33</ele>
        <time>2022-10-08T08:51:23Z</time>
      </trkpt>
      <trkpt lat="43.87973" lon="5.87797">
        <ele>319.11</ele>
        <time>2022-10-08T08:51:34Z</time>
      </trkpt>
      <trkpt lat="43.88241" lon="5.87924">
        <ele>318.75</ele>
        <time>2022-10-08T08:51:45Z</time>
      </trkpt>
      <trkpt lat="43.8834" lon="5.87963">
        <ele>321.95</ele>
        <time>2022-10-08T08:51:49Z</time>
      </trkpt>
      <trkpt lat="43.88392" lon="5.87985">
        <ele>323.15</ele>
        <time>2022-10-08T08:51:51Z</time>
      </trkpt>
      <trkpt lat="43.88717" lon="5.88107">
        <ele>324.99</ele>
        <time>2022-10-08T08:52:03Z</time>
      </trkpt>
      <trkpt lat="43.89298" lon="5.88265">
        <ele>326.68</ele>
        <time>2022-10-08T08:52:24Z</time>
      </trkpt>
      <trkpt lat="43.89353" lon="5.88274">
        <ele>327.92</ele>
        <time>2022-10-08T08:52:26Z</time>
      </trkpt>
      <trkpt lat="43.89733" lon="5.88367">
        <ele>329.5</ele>
        <time>2022-10-08T08:52:40Z</time>
      </trkpt>
      <trkpt lat="43.89972" lon="5.88433">
        <ele>332.57</ele>
        <time>2022-10-08T08:52:49Z</time>
      </trkpt>
      <trkpt lat="43.89998" lon="5.8844">
        <ele>332.6</ele>
        <time>2022-10-08T08:52:50Z</time>
      </trkpt>
      <trkpt lat="43.90052" lon="5.88451">
        <ele>335.66</ele>
        <time>2022-10-08T08:52:52Z</time>
      </trkpt>
      <trkpt lat="43.90106" lon="5.8846">
        <ele>336.5</ele>
        <time>2022-10-08T08:52:54Z</time>
      </trkpt>
      <trkpt lat="43.90186" lon="5.88474">
        <ele>339.08</ele>
        <time>2022-10-08T08:52:57Z</time>
      </trkpt>
      <trkpt lat="43.9024" lon="5.88483">
        <ele>343.31</ele>
        <time>2022-10-08T08:52:59Z</time>
      </trkpt>
      <trkpt lat="43.90267" lon="5.88488">
        <ele>343.31</ele>
        <time>2022-10-08T08:53:00Z</time>
      </trkpt>
      <trkpt lat="43.90428" lon="5.88528">
        <ele>346.36</ele>
        <time>2022-10-08T08:53:06Z</time>
      </trkpt>
      <trkpt lat="43.90716" lon="5.88647">
        <ele>343.25</ele>
        <time>2022-10-08T08:53:17Z</time>
      </trkpt>
      <trkpt lat="43.90742" lon="5.88659">
        <ele>343.26</ele>
        <time>2022-10-08T08:53:18Z</time>
      </trkpt>
      <trkpt lat="43.90847" lon="5.88705">
        <ele>341.09</ele>
        <time>2022-10-08T08:53:22Z</time>
      </trkpt>
      <trkpt lat="43.90979" lon="5.88756">
        <ele>338.06</ele>
        <time>2022-10-08T08:53:27Z</time>
      </trkpt>
      <trkpt lat="43.91083" lon="5.88793">
        <ele>335.82</ele>
        <time>2022-10-08T08:53:31Z</time>
      </trkpt>
      <trkpt lat="43.9121" lon="5.88832">
        <ele>334.18</ele>
        <time>2022-10-08T08:53:36Z</time>
      </trkpt>
      <trkpt lat="43.91689" lon="5.88987">
        <ele>334.67</ele>
        <time>2022-10-08T08:53:55Z</time>
      </trkpt>
      <trkpt lat="43.91834" lon="5.89066">
        <ele>337.61</ele>
        <time>2022-10-08T08:54:01Z</time>
      </trkpt>
      <trkpt lat="43.92087" lon="5.89259">
        <ele>339.32</ele>
        <time>2022-10-08T08:54:12Z</time>
      </trkpt>
      <trkpt lat="43.92382" lon="5.89514">
        <ele>340.27</ele>
        <time>2022-10-08T08:54:25Z</time>
      </trkpt>
      <trkpt lat="43.9259" lon="5.89599">
        <ele>341.39</ele>
        <time>2022-10-08T08:54:33Z</time>
      </trkpt>
      <trkpt lat="43.9281" lon="5.89605">
        <ele>342.37</ele>
        <time>2022-10-08T08:54:41Z</time>
      </trkpt>
      <trkpt lat="43.93107" lon="5.89536">
        <ele>345.7</ele>
        <time>2022-10-08T08:54:52Z</time>
      </trkpt>
      <trkpt lat="43.93237" lon="5.8948">
        <ele>348.87</ele>
        <time>2022-10-08T08:54:57Z</time>
      </trkpt>
      <trkpt lat="43.93262" lon="5.89465">
        <ele>348.84</ele>
        <time>2022-10-08T08:54:58Z</time>
      </trkpt>
      <trkpt lat="43.93335" lon="5.89413">
        <ele>350.61</ele>
        <time>2022-10-08T08:55:01Z</time>
      </trkpt>
      <trkpt lat="43.93383" lon="5.89378">
        <ele>352.1</ele>
        <time>2022-10-08T08:55:03Z</time>
      </trkpt>
      <trkpt lat="43.93432" lon="5.89343">
        <ele>353.57</ele>
        <time>2022-10-08T08:55:05Z</time>
      </trkpt>
      <trkpt lat="43.93481" lon="5.89308">
        <ele>355.01</ele>
        <time>2022-10-08T08:55:07Z</time>
      </trkpt>
      <trkpt lat="43.93556" lon="5.89262">
        <ele>357.02</ele>
        <time>2022-10-08T08:55:10Z</time>
      </trkpt>
      <trkpt lat="43.93661" lon="5.89212">
        <ele>358.86</ele>
        <time>2022-10-08T08:55:14Z</time>
      </trkpt>
      <trkpt lat="43.93883" lon="5.89167">
        <ele>360.09</ele>
        <time>2022-10-08T08:55:22Z</time>
      </trkpt>
      <trkpt lat="43.94083" lon="5.89188">
        <ele>360.14</ele>
        <time>2022-10-08T08:55:29Z</time>
      </trkpt>
      <trkpt lat="43.94167" lon="5.89212">
        <ele>357.71</ele>
        <time>2022-10-08T08:55:32Z</time>
      </trkpt>
      <trkpt lat="43.94221" lon="5.89235">
        <ele>355.88</ele>
        <time>2022-10-08T08:55:34Z</time>
      </trkpt>
      <trkpt lat="43.94426" lon="5.89362">
        <ele>352.77</ele>
        <time>2022-10-08T08:55:42Z</time>
      </trkpt>
      <trkpt lat="43.94721" lon="5.89566">
        <ele>355.36</ele>
        <time>2022-10-08T08:55:54Z</time>
      </trkpt>
      <trkpt lat="43.94795" lon="5.89613">
        <ele>357.17</ele>
        <time>2022-10-08T08:55:57Z</time>
      </trkpt>
      <trkpt lat="43.95017" lon="5.89735">
        <ele>361.2</ele>
        <time>2022-10-08T08:56:06Z</time>
      </trkpt>
      <trkpt lat="43.95043" lon="5.89746">
        <ele>361.24</ele>
        <time>2022-10-08T08:56:07Z</time>
      </trkpt>
      <trkpt lat="43.95093" lon="5.89768">
        <ele>362.47</ele>
        <time>2022-10-08T08:56:09Z</time>
      </trkpt>
      <trkpt lat="43.953" lon="5.89844">
        <ele>364.46</ele>
        <time>2022-10-08T08:56:17Z</time>
      </trkpt>
      <trkpt lat="43.95406" lon="5.89871">
        <ele>365.77</ele>
        <time>2022-10-08T08:56:21Z</time>
      </trkpt>
      <trkpt lat="43.95728" lon="5.8996">
        <ele>369.07</ele>
        <time>2022-10-08T08:56:33Z</time>
      </trkpt>
      <trkpt lat="43.95754" lon="5.8997">
        <ele>369.07</ele>
        <time>2022-10-08T08:56:34Z</time>
      </trkpt>
      <trkpt lat="43.96033" lon="5.9011">
        <ele>368.87</ele>
        <time>2022-10-08T08:56:45Z</time>
      </trkpt>
      <trkpt lat="43.96207" lon="5.90178">
        <ele>373.95</ele>
        <time>2022-10-08T08:56:52Z</time>
      </trkpt>
      <trkpt lat="43.96233" lon="5.90187">
        <ele>373.95</ele>
        <time>2022-10-08T08:56:53Z</time>
      </trkpt>
      <trkpt lat="43.96677" lon="5.90325">
        <ele>374.77</ele>
        <time>2022-10-08T08:57:10Z</time>
      </trkpt>
      <trkpt lat="43.96755" lon="5.9036">
        <ele>372.39</ele>
        <time>2022-10-08T08:57:13Z</time>
      </trkpt>
      <trkpt lat="43.96832" lon="5.90404">
        <ele>370.76</ele>
        <time>2022-10-08T08:57:16Z</time>
      </trkpt>
      <trkpt lat="43.9693" lon="5.90474">
        <ele>369.11</ele>
        <time>2022-10-08T08:57:20Z</time>
      </trkpt>
      <trkpt lat="43.97026" lon="5.90552">
        <ele>366.83</ele>
        <time>2022-10-08T08:57:24Z</time>
      </trkpt>
      <trkpt lat="43.97073" lon="5.90592">
        <ele>365.57</ele>
        <time>2022-10-08T08:57:26Z</time>
      </trkpt>
      <trkpt lat="43.97121" lon="5.90631">
        <ele>364.06</ele>
        <time>2022-10-08T08:57:28Z</time>
      </trkpt>
      <trkpt lat="43.97218" lon="5.9071">
        <ele>361.67</ele>
        <time>2022-10-08T08:57:32Z</time>
      </trkpt>
      <trkpt lat="43.9758" lon="5.90979">
        <ele>361.71</ele>
        <time>2022-10-08T08:57:47Z</time>
      </trkpt>
      <trkpt lat="43.97787" lon="5.91047">
        <ele>360.65</ele>
        <time>2022-10-08T08:57:55Z</time>
      </trkpt>
      <trkpt lat="43.97948" lon="5.91061">
        <ele>362.94</ele>
        <time>2022-10-08T08:58:01Z</time>
      </trkpt>
      <trkpt lat="43.98267" lon="5.91118">
        <ele>362.97</ele>
        <time>2022-10-08T08:58:13Z</time>
      </trkpt>
      <trkpt lat="43.98472" lon="5.91222">
        <ele>364.29</ele>
        <time>2022-10-08T08:58:21Z</time>
      </trkpt>
      <trkpt lat="43.98549" lon="5.91263">
        <ele>368.03</ele>
        <time>2022-10-08T08:58:24Z</time>
      </trkpt>
      <trkpt lat="43.986" lon="5.9129">
        <ele>369.29</ele>
        <time>2022-10-08T08:58:26Z</time>
      </trkpt>
      <trkpt lat="43.98651" lon="5.9132">
        <ele>366.53</ele>
        <time>2022-10-08T08:58:28Z</time>
      </trkpt>
      <trkpt lat="43.99007" lon="5.91527">
        <ele>368.8</ele>
        <time>2022-10-08T08:58:42Z</time>
      </trkpt>
      <trkpt lat="43.99402" lon="5.91772">
        <ele>371</ele>
        <time>2022-10-08T08:58:58Z</time>
      </trkpt>
      <trkpt lat="43.999" lon="5.92086">
        <ele>371</ele>
        <time>2022-10-08T08:59:18Z</time>
      </trkpt>
      <trkpt lat="44.00074" lon="5.92267">
        <ele>371.78</ele>
        <time>2022-10-08T08:59:26Z</time>
      </trkpt>
      <trkpt lat="44.003" lon="5.926">
        <ele>372.59</ele>
        <time>2022-10-08T08:59:38Z</time>
      </trkpt>
      <trkpt lat="44.00619" lon="5.92981">
        <ele>374.5</ele>
        <time>2022-10-08T08:59:53Z</time>
      </trkpt>
      <trkpt lat="44.0109" lon="5.9352">
        <ele>375.2</ele>
        <time>2022-10-08T09:00:15Z</time>
      </trkpt>
      <trkpt lat="44.01513" lon="5.93996">
        <ele>377.23</ele>
        <time>2022-10-08T09:00:36Z</time>
      </trkpt>
      <trkpt lat="44.01554" lon="5.94044">
        <ele>379.05</ele>
        <time>2022-10-08T09:00:38Z</time>
      </trkpt>
      <trkpt lat="44.01824" lon="5.94353">
        <ele>384.62</ele>
        <time>2022-10-08T09:00:51Z</time>
      </trkpt>
      <trkpt lat="44.01845" lon="5.94376">
        <ele>384.58</ele>
        <time>2022-10-08T09:00:52Z</time>
      </trkpt>
      <trkpt lat="44.021" lon="5.94666">
        <ele>382.24</ele>
        <time>2022-10-08T09:01:04Z</time>
      </trkpt>
      <trkpt lat="44.02644" lon="5.95286">
        <ele>382.11</ele>
        <time>2022-10-08T09:01:29Z</time>
      </trkpt>
      <trkpt lat="44.02794" lon="5.95456">
        <ele>384.75</ele>
        <time>2022-10-08T09:01:36Z</time>
      </trkpt>
      <trkpt lat="44.02921" lon="5.95602">
        <ele>386.2</ele>
        <time>2022-10-08T09:01:42Z</time>
      </trkpt>
      <trkpt lat="44.03026" lon="5.95722">
        <ele>387.36</ele>
        <time>2022-10-08T09:01:47Z</time>
      </trkpt>
      <trkpt lat="44.03371" lon="5.96091">
        <ele>389.15</ele>
        <time>2022-10-08T09:02:03Z</time>
      </trkpt>
      <trkpt lat="44.03584" lon="5.96243">
        <ele>390.4</ele>
        <time>2022-10-08T09:02:12Z</time>
      </trkpt>
      <trkpt lat="44.03631" lon="5.96275">
        <ele>392.12</ele>
        <time>2022-10-08T09:02:14Z</time>
      </trkpt>
      <trkpt lat="44.03811" lon="5.96422">
        <ele>395.12</ele>
        <time>2022-10-08T09:02:22Z</time>
      </trkpt>
      <trkpt lat="44.03879" lon="5.96483">
        <ele>396.46</ele>
        <time>2022-10-08T09:02:25Z</time>
      </trkpt>
      <trkpt lat="44.03925" lon="5.96527">
        <ele>400.5</ele>
        <time>2022-10-08T09:02:27Z</time>
      </trkpt>
      <trkpt lat="44.03971" lon="5.9657">
        <ele>404.11</ele>
        <time>2022-10-08T09:02:29Z</time>
      </trkpt>
      <trkpt lat="44.04016" lon="5.96614">
        <ele>406.14</ele>
        <time>2022-10-08T09:02:31Z</time>
      </trkpt>
      <trkpt lat="44.04039" lon="5.96636">
        <ele>402.37</ele>
        <time>2022-10-08T09:02:32Z</time>
      </trkpt>
      <trkpt lat="44.04153" lon="5.9675">
        <ele>406.3</ele>
        <time>2022-10-08T09:02:37Z</time>
      </trkpt>
      <trkpt lat="44.04176" lon="5.96772">
        <ele>406.38</ele>
        <time>2022-10-08T09:02:38Z</time>
      </trkpt>
      <trkpt lat="44.04292" lon="5.9688">
        <ele>409.46</ele>
        <time>2022-10-08T09:02:43Z</time>
      </trkpt>
      <trkpt lat="44.04315" lon="5.96901">
        <ele>409.41</ele>
        <time>2022-10-08T09:02:44Z</time>
      </trkpt>
      <trkpt lat="44.04388" lon="5.96957">
        <ele>410.77</ele>
        <time>2022-10-08T09:02:47Z</time>
      </trkpt>
      <trkpt lat="44.04572" lon="5.97047">
        <ele>413.4</ele>
        <time>2022-10-08T09:02:54Z</time>
      </trkpt>
      <trkpt lat="44.04705" lon="5.97075">
        <ele>415.73</ele>
        <time>2022-10-08T09:02:59Z</time>
      </trkpt>
      <trkpt lat="44.04784" lon="5.97077">
        <ele>417.52</ele>
        <time>2022-10-08T09:03:02Z</time>
      </trkpt>
      <trkpt lat="44.04864" lon="5.9707">
        <ele>419.62</ele>
        <time>2022-10-08T09:03:05Z</time>
      </trkpt>
      <trkpt lat="44.04943" lon="5.97052">
        <ele>424.02</ele>
        <time>2022-10-08T09:03:08Z</time>
      </trkpt>
      <trkpt lat="44.04968" lon="5.97044">
        <ele>424.02</ele>
        <time>2022-10-08T09:03:09Z</time>
      </trkpt>
      <trkpt lat="44.05019" lon="5.97026">
        <ele>425.28</ele>
        <time>2022-10-08T09:03:11Z</time>
      </trkpt>
      <trkpt lat="44.05093" lon="5.96989">
        <ele>429.02</ele>
        <time>2022-10-08T09:03:14Z</time>
      </trkpt>
      <trkpt lat="44.05141" lon="5.96958">
        <ele>432.14</ele>
        <time>2022-10-08T09:03:16Z</time>
      </trkpt>
      <trkpt lat="44.05231" lon="5.96889">
        <ele>436.72</ele>
        <time>2022-10-08T09:03:20Z</time>
      </trkpt>
      <trkpt lat="44.05273" lon="5.96849">
        <ele>440.43</ele>
        <time>2022-10-08T09:03:22Z</time>
      </trkpt>
      <trkpt lat="44.05334" lon="5.96786">
        <ele>444.35</ele>
        <time>2022-10-08T09:03:25Z</time>
      </trkpt>
      <trkpt lat="44.05374" lon="5.96744">
        <ele>447.87</ele>
        <time>2022-10-08T09:03:27Z</time>
      </trkpt>
      <trkpt lat="44.05413" lon="5.96701">
        <ele>451.12</ele>
        <time>2022-10-08T09:03:29Z</time>
      </trkpt>
      <trkpt lat="44.05471" lon="5.96636">
        <ele>455.42</ele>
        <time>2022-10-08T09:03:32Z</time>
      </trkpt>
      <trkpt lat="44.0551" lon="5.96592">
        <ele>460.3</ele>
        <time>2022-10-08T09:03:34Z</time>
      </trkpt>
      <trkpt lat="44.0557" lon="5.96527">
        <ele>464.56</ele>
        <time>2022-10-08T09:03:37Z</time>
      </trkpt>
      <trkpt lat="44.05612" lon="5.96485">
        <ele>467.85</ele>
        <time>2022-10-08T09:03:39Z</time>
      </trkpt>
      <trkpt lat="44.05655" lon="5.96445">
        <ele>471.04</ele>
        <time>2022-10-08T09:03:41Z</time>
      </trkpt>
      <trkpt lat="44.057" lon="5.96408">
        <ele>474.87</ele>
        <time>2022-10-08T09:03:43Z</time>
      </trkpt>
      <trkpt lat="44.05747" lon="5.96376">
        <ele>478.74</ele>
        <time>2022-10-08T09:03:45Z</time>
      </trkpt>
      <trkpt lat="44.05797" lon="5.9635">
        <ele>482.56</ele>
        <time>2022-10-08T09:03:47Z</time>
      </trkpt>
      <trkpt lat="44.05847" lon="5.9633">
        <ele>486.74</ele>
        <time>2022-10-08T09:03:49Z</time>
      </trkpt>
      <trkpt lat="44.05925" lon="5.9631">
        <ele>491.29</ele>
        <time>2022-10-08T09:03:52Z</time>
      </trkpt>
      <trkpt lat="44.05977" lon="5.96305">
        <ele>495.36</ele>
        <time>2022-10-08T09:03:54Z</time>
      </trkpt>
      <trkpt lat="44.06056" lon="5.9631">
        <ele>499.64</ele>
        <time>2022-10-08T09:03:57Z</time>
      </trkpt>
      <trkpt lat="44.06109" lon="5.96323">
        <ele>502.7</ele>
        <time>2022-10-08T09:03:59Z</time>
      </trkpt>
      <trkpt lat="44.0616" lon="5.96342">
        <ele>506.06</ele>
        <time>2022-10-08T09:04:01Z</time>
      </trkpt>
      <trkpt lat="44.06236" lon="5.96381">
        <ele>509.86</ele>
        <time>2022-10-08T09:04:04Z</time>
      </trkpt>
      <trkpt lat="44.06261" lon="5.96397">
        <ele>509.86</ele>
        <time>2022-10-08T09:04:05Z</time>
      </trkpt>
      <trkpt lat="44.06308" lon="5.96435">
        <ele>512.95</ele>
        <time>2022-10-08T09:04:07Z</time>
      </trkpt>
      <trkpt lat="44.06332" lon="5.96456">
        <ele>512.92</ele>
        <time>2022-10-08T09:04:08Z</time>
      </trkpt>
      <trkpt lat="44.06378" lon="5.96498">
        <ele>514.8</ele>
        <time>2022-10-08T09:04:10Z</time>
      </trkpt>
      <trkpt lat="44.06658" lon="5.9678">
        <ele>512.89</ele>
        <time>2022-10-08T09:04:22Z</time>
      </trkpt>
      <trkpt lat="44.06724" lon="5.96862">
        <ele>509.23</ele>
        <time>2022-10-08T09:04:25Z</time>
      </trkpt>
      <trkpt lat="44.06766" lon="5.9692">
        <ele>507.26</ele>
        <time>2022-10-08T09:04:27Z</time>
      </trkpt>
      <trkpt lat="44.06805" lon="5.96981">
        <ele>503.21</ele>
        <time>2022-10-08T09:04:29Z</time>
      </trkpt>
      <trkpt lat="44.06841" lon="5.97042">
        <ele>499.85</ele>
        <time>2022-10-08T09:04:31Z</time>
      </trkpt>
      <trkpt lat="44.06873" lon="5.97103">
        <ele>495.68</ele>
        <time>2022-10-08T09:04:33Z</time>
      </trkpt>
      <trkpt lat="44.06903" lon="5.97163">
        <ele>491.39</ele>
        <time>2022-10-08T09:04:35Z</time>
      </trkpt>
      <trkpt lat="44.06931" lon="5.97224">
        <ele>486.58</ele>
        <time>2022-10-08T09:04:37Z</time>
      </trkpt>
      <trkpt lat="44.06957" lon="5.97287">
        <ele>482.31</ele>
        <time>2022-10-08T09:04:39Z</time>
      </trkpt>
      <trkpt lat="44.0697" lon="5.97319">
        <ele>482.31</ele>
        <time>2022-10-08T09:04:40Z</time>
      </trkpt>
      <trkpt lat="44.06995" lon="5.97384">
        <ele>479.04</ele>
        <time>2022-10-08T09:04:42Z</time>
      </trkpt>
      <trkpt lat="44.07033" lon="5.97481">
        <ele>476.8</ele>
        <time>2022-10-08T09:04:45Z</time>
      </trkpt>
      <trkpt lat="44.07059" lon="5.97545">
        <ele>475.03</ele>
        <time>2022-10-08T09:04:47Z</time>
      </trkpt>
      <trkpt lat="44.0715" lon="5.97719">
        <ele>478.45</ele>
        <time>2022-10-08T09:04:53Z</time>
      </trkpt>
      <trkpt lat="44.07205" lon="5.97795">
        <ele>482.21</ele>
        <time>2022-10-08T09:04:56Z</time>
      </trkpt>
      <trkpt lat="44.07247" lon="5.97842">
        <ele>485.84</ele>
        <time>2022-10-08T09:04:58Z</time>
      </trkpt>
      <trkpt lat="44.07291" lon="5.97885">
        <ele>489.8</ele>
        <time>2022-10-08T09:05:00Z</time>
      </trkpt>
      <trkpt lat="44.07339" lon="5.97923">
        <ele>493.39</ele>
        <time>2022-10-08T09:05:02Z</time>
      </trkpt>
      <trkpt lat="44.07389" lon="5.97959">
        <ele>496.93</ele>
        <time>2022-10-08T09:05:04Z</time>
      </trkpt>
      <trkpt lat="44.07441" lon="5.97991">
        <ele>500.6</ele>
        <time>2022-10-08T09:05:06Z</time>
      </trkpt>
      <trkpt lat="44.07494" lon="5.98021">
        <ele>503.63</ele>
        <time>2022-10-08T09:05:08Z</time>
      </trkpt>
      <trkpt lat="44.07548" lon="5.98046">
        <ele>507.26</ele>
        <time>2022-10-08T09:05:10Z</time>
      </trkpt>
      <trkpt lat="44.07602" lon="5.98069">
        <ele>510.5</ele>
        <time>2022-10-08T09:05:12Z</time>
      </trkpt>
      <trkpt lat="44.07657" lon="5.98092">
        <ele>513.95</ele>
        <time>2022-10-08T09:05:14Z</time>
      </trkpt>
      <trkpt lat="44.07711" lon="5.98117">
        <ele>517.24</ele>
        <time>2022-10-08T09:05:16Z</time>
      </trkpt>
      <trkpt lat="44.07792" lon="5.98155">
        <ele>520.72</ele>
        <time>2022-10-08T09:05:19Z</time>
      </trkpt>
      <trkpt lat="44.07872" lon="5.98196">
        <ele>524.2</ele>
        <time>2022-10-08T09:05:22Z</time>
      </trkpt>
      <trkpt lat="44.07899" lon="5.9821">
        <ele>524.14</ele>
        <time>2022-10-08T09:05:23Z</time>
      </trkpt>
      <trkpt lat="44.07978" lon="5.98257">
        <ele>527.54</ele>
        <time>2022-10-08T09:05:26Z</time>
      </trkpt>
      <trkpt lat="44.08004" lon="5.98273">
        <ele>527.57</ele>
        <time>2022-10-08T09:05:27Z</time>
      </trkpt>
      <trkpt lat="44.0811" lon="5.98335">
        <ele>528.78</ele>
        <time>2022-10-08T09:05:31Z</time>
      </trkpt>
      <trkpt lat="44.08576" lon="5.98608">
        <ele>526.09</ele>
        <time>2022-10-08T09:05:49Z</time>
      </trkpt>
      <trkpt lat="44.08928" lon="5.98849">
        <ele>524.21</ele>
        <time>2022-10-08T09:06:03Z</time>
      </trkpt>
      <trkpt lat="44.09214" lon="5.99131">
        <ele>521.55</ele>
        <time>2022-10-08T09:06:16Z</time>
      </trkpt>
      <trkpt lat="44.09284" lon="5.99185">
        <ele>520.27</ele>
        <time>2022-10-08T09:06:19Z</time>
      </trkpt>
      <trkpt lat="44.09508" lon="5.99313">
        <ele>518.61</ele>
        <time>2022-10-08T09:06:28Z</time>
      </trkpt>
      <trkpt lat="44.09562" lon="5.99334">
        <ele>517.18</ele>
        <time>2022-10-08T09:06:30Z</time>
      </trkpt>
      <trkpt lat="44.09616" lon="5.99354">
        <ele>515.71</ele>
        <time>2022-10-08T09:06:32Z</time>
      </trkpt>
      <trkpt lat="44.09699" lon="5.99384">
        <ele>511.89</ele>
        <time>2022-10-08T09:06:35Z</time>
      </trkpt>
      <trkpt lat="44.09782" lon="5.99412">
        <ele>508.87</ele>
        <time>2022-10-08T09:06:38Z</time>
      </trkpt>
      <trkpt lat="44.09862" lon="5.99435">
        <ele>505.42</ele>
        <time>2022-10-08T09:06:41Z</time>
      </trkpt>
      <trkpt lat="44.09914" lon="5.99447">
        <ele>504.09</ele>
        <time>2022-10-08T09:06:43Z</time>
      </trkpt>
      <trkpt lat="44.09992" lon="5.99461">
        <ele>501.75</ele>
        <time>2022-10-08T09:06:46Z</time>
      </trkpt>
      <trkpt lat="44.10149" lon="5.99475">
        <ele>500.34</ele>
        <time>2022-10-08T09:06:52Z</time>
      </trkpt>
      <trkpt lat="44.10415" lon="5.99445">
        <ele>500.47</ele>
        <time>2022-10-08T09:07:02Z</time>
      </trkpt>
      <trkpt lat="44.10594" lon="5.99354">
        <ele>499.71</ele>
        <time>2022-10-08T09:07:09Z</time>
      </trkpt>
      <trkpt lat="44.10798" lon="5.99168">
        <ele>499.73</ele>
        <time>2022-10-08T09:07:18Z</time>
      </trkpt>
      <trkpt lat="44.10863" lon="5.99104">
        <ele>502.08</ele>
        <time>2022-10-08T09:07:21Z</time>
      </trkpt>
      <trkpt lat="44.1095" lon="5.99018">
        <ele>505.46</ele>
        <time>2022-10-08T09:07:25Z</time>
      </trkpt>
      <trkpt lat="44.10972" lon="5.98997">
        <ele>505.47</ele>
        <time>2022-10-08T09:07:26Z</time>
      </trkpt>
      <trkpt lat="44.11104" lon="5.98873">
        <ele>509.37</ele>
        <time>2022-10-08T09:07:32Z</time>
      </trkpt>
      <trkpt lat="44.11414" lon="5.98634">
        <ele>511.14</ele>
        <time>2022-10-08T09:07:45Z</time>
      </trkpt>
      <trkpt lat="44.11543" lon="5.98553">
        <ele>507.55</ele>
        <time>2022-10-08T09:07:50Z</time>
      </trkpt>
      <trkpt lat="44.11569" lon="5.98536">
        <ele>507.54</ele>
        <time>2022-10-08T09:07:51Z</time>
      </trkpt>
      <trkpt lat="44.11643" lon="5.9848">
        <ele>504.09</ele>
        <time>2022-10-08T09:07:54Z</time>
      </trkpt>
      <trkpt lat="44.11691" lon="5.98441">
        <ele>503.16</ele>
        <time>2022-10-08T09:07:56Z</time>
      </trkpt>
      <trkpt lat="44.1174" lon="5.984">
        <ele>499.91</ele>
        <time>2022-10-08T09:07:58Z</time>
      </trkpt>
      <trkpt lat="44.11764" lon="5.98379">
        <ele>499.91</ele>
        <time>2022-10-08T09:07:59Z</time>
      </trkpt>
      <trkpt lat="44.11813" lon="5.98336">
        <ele>496.22</ele>
        <time>2022-10-08T09:08:01Z</time>
      </trkpt>
      <trkpt lat="44.11837" lon="5.98315">
        <ele>496.22</ele>
        <time>2022-10-08T09:08:02Z</time>
      </trkpt>
      <trkpt lat="44.11888" lon="5.98276">
        <ele>491.64</ele>
        <time>2022-10-08T09:08:04Z</time>
      </trkpt>
      <trkpt lat="44.11941" lon="5.98242">
        <ele>488.01</ele>
        <time>2022-10-08T09:08:06Z</time>
      </trkpt>
      <trkpt lat="44.11993" lon="5.98215">
        <ele>484.12</ele>
        <time>2022-10-08T09:08:08Z</time>
      </trkpt>
      <trkpt lat="44.12045" lon="5.98194">
        <ele>480.81</ele>
        <time>2022-10-08T09:08:10Z</time>
      </trkpt>
      <trkpt lat="44.12123" lon="5.98169">
        <ele>475.98</ele>
        <time>2022-10-08T09:08:13Z</time>
      </trkpt>
      <trkpt lat="44.12174" lon="5.98153">
        <ele>472.25</ele>
        <time>2022-10-08T09:08:15Z</time>
      </trkpt>
      <trkpt lat="44.12251" lon="5.9813">
        <ele>467.9</ele>
        <time>2022-10-08T09:08:18Z</time>
      </trkpt>
      <trkpt lat="44.12328" lon="5.98108">
        <ele>463.74</ele>
        <time>2022-10-08T09:08:21Z</time>
      </trkpt>
      <trkpt lat="44.12405" lon="5.9809">
        <ele>459.78</ele>
        <time>2022-10-08T09:08:24Z</time>
      </trkpt>
      <trkpt lat="44.12458" lon="5.98084">
        <ele>456.34</ele>
        <time>2022-10-08T09:08:26Z</time>
      </trkpt>
      <trkpt lat="44.12484" lon="5.98083">
        <ele>456.19</ele>
        <time>2022-10-08T09:08:27Z</time>
      </trkpt>
      <trkpt lat="44.12564" lon="5.98089">
        <ele>453.79</ele>
        <time>2022-10-08T09:08:30Z</time>
      </trkpt>
      <trkpt lat="44.12617" lon="5.98098">
        <ele>452.53</ele>
        <time>2022-10-08T09:08:32Z</time>
      </trkpt>
      <trkpt lat="44.12669" lon="5.9811">
        <ele>451.01</ele>
        <time>2022-10-08T09:08:34Z</time>
      </trkpt>
      <trkpt lat="44.12748" lon="5.98129">
        <ele>449.09</ele>
        <time>2022-10-08T09:08:37Z</time>
      </trkpt>
      <trkpt lat="44.12982" lon="5.98153">
        <ele>447.15</ele>
        <time>2022-10-08T09:08:46Z</time>
      </trkpt>
      <trkpt lat="44.13161" lon="5.98096">
        <ele>445.78</ele>
        <time>2022-10-08T09:08:53Z</time>
      </trkpt>
      <trkpt lat="44.13299" lon="5.97995">
        <ele>443.01</ele>
        <time>2022-10-08T09:08:59Z</time>
      </trkpt>
      <trkpt lat="44.13511" lon="5.97746">
        <ele>440.69</ele>
        <time>2022-10-08T09:09:09Z</time>
      </trkpt>
      <trkpt lat="44.13757" lon="5.97441">
        <ele>437.68</ele>
        <time>2022-10-08T09:09:21Z</time>
      </trkpt>
      <trkpt lat="44.13951" lon="5.9725">
        <ele>437.78</ele>
        <time>2022-10-08T09:09:30Z</time>
      </trkpt>
      <trkpt lat="44.14115" lon="5.97142">
        <ele>440.35</ele>
        <time>2022-10-08T09:09:37Z</time>
      </trkpt>
      <trkpt lat="44.14186" lon="5.97099">
        <ele>441.61</ele>
        <time>2022-10-08T09:09:40Z</time>
      </trkpt>
      <trkpt lat="44.14347" lon="5.96989">
        <ele>444.29</ele>
        <time>2022-10-08T09:09:47Z</time>
      </trkpt>
      <trkpt lat="44.14548" lon="5.96808">
        <ele>447.4</ele>
        <time>2022-10-08T09:09:56Z</time>
      </trkpt>
      <trkpt lat="44.1457" lon="5.96786">
        <ele>447.42</ele>
        <time>2022-10-08T09:09:57Z</time>
      </trkpt>
      <trkpt lat="44.14654" lon="5.96691">
        <ele>449.48</ele>
        <time>2022-10-08T09:10:01Z</time>
      </trkpt>
      <trkpt lat="44.14823" lon="5.96502">
        <ele>451.93</ele>
        <time>2022-10-08T09:10:09Z</time>
      </trkpt>
      <trkpt lat="44.14968" lon="5.96404">
        <ele>449.47</ele>
        <time>2022-10-08T09:10:15Z</time>
      </trkpt>
      <trkpt lat="44.15021" lon="5.96384">
        <ele>447.28</ele>
        <time>2022-10-08T09:10:17Z</time>
      </trkpt>
      <trkpt lat="44.1513" lon="5.96364">
        <ele>443.31</ele>
        <time>2022-10-08T09:10:21Z</time>
      </trkpt>
      <trkpt lat="44.15158" lon="5.96363">
        <ele>443.29</ele>
        <time>2022-10-08T09:10:22Z</time>
      </trkpt>
      <trkpt lat="44.15293" lon="5.96382">
        <ele>446.51</ele>
        <time>2022-10-08T09:10:27Z</time>
      </trkpt>
      <trkpt lat="44.15344" lon="5.96394">
        <ele>447.98</ele>
        <time>2022-10-08T09:10:29Z</time>
      </trkpt>
      <trkpt lat="44.15395" lon="5.96406">
        <ele>451.53</ele>
        <time>2022-10-08T09:10:31Z</time>
      </trkpt>
      <trkpt lat="44.1547" lon="5.96419">
        <ele>455.8</ele>
        <time>2022-10-08T09:10:34Z</time>
      </trkpt>
      <trkpt lat="44.15495" lon="5.96421">
        <ele>455.87</ele>
        <time>2022-10-08T09:10:35Z</time>
      </trkpt>
      <trkpt lat="44.15545" lon="5.9642">
        <ele>458.99</ele>
        <time>2022-10-08T09:10:37Z</time>
      </trkpt>
      <trkpt lat="44.15619" lon="5.96406">
        <ele>462.82</ele>
        <time>2022-10-08T09:10:40Z</time>
      </trkpt>
      <trkpt lat="44.15692" lon="5.9638">
        <ele>464.83</ele>
        <time>2022-10-08T09:10:43Z</time>
      </trkpt>
      <trkpt lat="44.15763" lon="5.96341">
        <ele>466.13</ele>
        <time>2022-10-08T09:10:46Z</time>
      </trkpt>
      <trkpt lat="44.15915" lon="5.96195">
        <ele>468.36</ele>
        <time>2022-10-08T09:10:53Z</time>
      </trkpt>
      <trkpt lat="44.16098" lon="5.95956">
        <ele>465</ele>
        <time>2022-10-08T09:11:02Z</time>
      </trkpt>
      <trkpt lat="44.1612" lon="5.95931">
        <ele>464.99</ele>
        <time>2022-10-08T09:11:03Z</time>
      </trkpt>
      <trkpt lat="44.16289" lon="5.95789">
        <ele>462.51</ele>
        <time>2022-10-08T09:11:10Z</time>
      </trkpt>
      <trkpt lat="44.16315" lon="5.95774">
        <ele>462.5</ele>
        <time>2022-10-08T09:11:11Z</time>
      </trkpt>
      <trkpt lat="44.16472" lon="5.95688">
        <ele>459.95</ele>
        <time>2022-10-08T09:11:17Z</time>
      </trkpt>
      <trkpt lat="44.16767" lon="5.95571">
        <ele>457.17</ele>
        <time>2022-10-08T09:11:28Z</time>
      </trkpt>
      <trkpt lat="44.1722" lon="5.95424">
        <ele>461.27</ele>
        <time>2022-10-08T09:11:45Z</time>
      </trkpt>
      <trkpt lat="44.17247" lon="5.95416">
        <ele>461.29</ele>
        <time>2022-10-08T09:11:46Z</time>
      </trkpt>
      <trkpt lat="44.17353" lon="5.9539">
        <ele>463.51</ele>
        <time>2022-10-08T09:11:50Z</time>
      </trkpt>
      <trkpt lat="44.17542" lon="5.95395">
        <ele>464.2</ele>
        <time>2022-10-08T09:11:57Z</time>
      </trkpt>
      <trkpt lat="44.17733" lon="5.95446">
        <ele>460.44</ele>
        <time>2022-10-08T09:12:04Z</time>
      </trkpt>
      <trkpt lat="44.17761" lon="5.95453">
        <ele>460.43</ele>
        <time>2022-10-08T09:12:05Z</time>
      </trkpt>
      <trkpt lat="44.17901" lon="5.95493">
        <ele>457.42</ele>
        <time>2022-10-08T09:12:10Z</time>
      </trkpt>
      <trkpt lat="44.18015" lon="5.9552">
        <ele>454.85</ele>
        <time>2022-10-08T09:12:14Z</time>
      </trkpt>
      <trkpt lat="44.18389" lon="5.95545">
        <ele>454.16</ele>
        <time>2022-10-08T09:12:27Z</time>
      </trkpt>
      <trkpt lat="44.18839" lon="5.95533">
        <ele>453.45</ele>
        <time>2022-10-08T09:12:43Z</time>
      </trkpt>
      <trkpt lat="44.19204" lon="5.95421">
        <ele>452.75</ele>
        <time>2022-10-08T09:12:57Z</time>
      </trkpt>
      <trkpt lat="44.19339" lon="5.95324">
        <ele>452.65</ele>
        <time>2022-10-08T09:13:03Z</time>
      </trkpt>
      <trkpt lat="44.19522" lon="5.95132">
        <ele>451.64</ele>
        <time>2022-10-08T09:13:12Z</time>
      </trkpt>
      <trkpt lat="44.19759" lon="5.94912">
        <ele>449.53</ele>
        <time>2022-10-08T09:13:24Z</time>
      </trkpt>
      <trkpt lat="44.20077" lon="5.94698">
        <ele>449.93</ele>
        <time>2022-10-08T09:13:39Z</time>
      </trkpt>
      <trkpt lat="44.20178" lon="5.94597">
        <ele>449.96</ele>
        <time>2022-10-08T09:13:44Z</time>
      </trkpt>
      <trkpt lat="44.20249" lon="5.94532">
        <ele>453.37</ele>
        <time>2022-10-08T09:13:47Z</time>
      </trkpt>
      <trkpt lat="44.2027" lon="5.94509">
        <ele>453.38</ele>
        <time>2022-10-08T09:13:48Z</time>
      </trkpt>
      <trkpt lat="44.20418" lon="5.94282">
        <ele>456.4</ele>
        <time>2022-10-08T09:13:56Z</time>
      </trkpt>
      <trkpt lat="44.2056" lon="5.9404">
        <ele>458.7</ele>
        <time>2022-10-08T09:14:04Z</time>
      </trkpt>
      <trkpt lat="44.20715" lon="5.93818">
        <ele>462</ele>
        <time>2022-10-08T09:14:12Z</time>
      </trkpt>
      <trkpt lat="44.2091" lon="5.93601">
        <ele>465.42</ele>
        <time>2022-10-08T09:14:21Z</time>
      </trkpt>
      <trkpt lat="44.20955" lon="5.93555">
        <ele>466.79</ele>
        <time>2022-10-08T09:14:23Z</time>
      </trkpt>
      <trkpt lat="44.21109" lon="5.93392">
        <ele>469.68</ele>
        <time>2022-10-08T09:14:30Z</time>
      </trkpt>
      <trkpt lat="44.21172" lon="5.93315">
        <ele>471.06</ele>
        <time>2022-10-08T09:14:33Z</time>
      </trkpt>
      <trkpt lat="44.21211" lon="5.93261">
        <ele>472.31</ele>
        <time>2022-10-08T09:14:35Z</time>
      </trkpt>
      <trkpt lat="44.21249" lon="5.93202">
        <ele>473.67</ele>
        <time>2022-10-08T09:14:37Z</time>
      </trkpt>
      <trkpt lat="44.21285" lon="5.93141">
        <ele>474.9</ele>
        <time>2022-10-08T09:14:39Z</time>
      </trkpt>
      <trkpt lat="44.21366" lon="5.92975">
        <ele>477.66</ele>
        <time>2022-10-08T09:14:44Z</time>
      </trkpt>
      <trkpt lat="44.21427" lon="5.92837">
        <ele>479.85</ele>
        <time>2022-10-08T09:14:48Z</time>
      </trkpt>
      <trkpt lat="44.21625" lon="5.92414">
        <ele>483.37</ele>
        <time>2022-10-08T09:15:01Z</time>
      </trkpt>
      <trkpt lat="44.21656" lon="5.92351">
        <ele>484.31</ele>
        <time>2022-10-08T09:15:03Z</time>
      </trkpt>
      <trkpt lat="44.21829" lon="5.92064">
        <ele>486.07</ele>
        <time>2022-10-08T09:15:13Z</time>
      </trkpt>
      <trkpt lat="44.21988" lon="5.91926">
        <ele>487.34</ele>
        <time>2022-10-08T09:15:20Z</time>
      </trkpt>
      <trkpt lat="44.22013" lon="5.91912">
        <ele>487.39</ele>
        <time>2022-10-08T09:15:21Z</time>
      </trkpt>
      <trkpt lat="44.22194" lon="5.91852">
        <ele>488.52</ele>
        <time>2022-10-08T09:15:28Z</time>
      </trkpt>
      <trkpt lat="44.22409" lon="5.91865">
        <ele>489.33</ele>
        <time>2022-10-08T09:15:36Z</time>
      </trkpt>
      <trkpt lat="44.22596" lon="5.91886">
        <ele>491.69</ele>
        <time>2022-10-08T09:15:43Z</time>
      </trkpt>
      <trkpt lat="44.22836" lon="5.91863">
        <ele>492.88</ele>
        <time>2022-10-08T09:15:52Z</time>
      </trkpt>
      <trkpt lat="44.23124" lon="5.91758">
        <ele>494.66</ele>
        <time>2022-10-08T09:16:03Z</time>
      </trkpt>
      <trkpt lat="44.23597" lon="5.91571">
        <ele>497.97</ele>
        <time>2022-10-08T09:16:21Z</time>
      </trkpt>
      <trkpt lat="44.24095" lon="5.91376">
        <ele>501.15</ele>
        <time>2022-10-08T09:16:40Z</time>
      </trkpt>
      <trkpt lat="44.24121" lon="5.91365">
        <ele>501.14</ele>
        <time>2022-10-08T09:16:41Z</time>
      </trkpt>
      <trkpt lat="44.24545" lon="5.91199">
        <ele>504.27</ele>
        <time>2022-10-08T09:16:57Z</time>
      </trkpt>
      <trkpt lat="44.2474" lon="5.91122">
        <ele>506.42</ele>
        <time>2022-10-08T09:17:04Z</time>
      </trkpt>
      <trkpt lat="44.25181" lon="5.90963">
        <ele>509.48</ele>
        <time>2022-10-08T09:17:20Z</time>
      </trkpt>
      <trkpt lat="44.25367" lon="5.90908">
        <ele>511.89</ele>
        <time>2022-10-08T09:17:27Z</time>
      </trkpt>
      <trkpt lat="44.25556" lon="5.90862">
        <ele>514.92</ele>
        <time>2022-10-08T09:17:34Z</time>
      </trkpt>
      <trkpt lat="44.25693" lon="5.90831">
        <ele>517.05</ele>
        <time>2022-10-08T09:17:39Z</time>
      </trkpt>
      <trkpt lat="44.25804" lon="5.90812">
        <ele>519.47</ele>
        <time>2022-10-08T09:17:43Z</time>
      </trkpt>
      <trkpt lat="44.26075" lon="5.90756">
        <ele>523.36</ele>
        <time>2022-10-08T09:17:53Z</time>
      </trkpt>
      <trkpt lat="44.26207" lon="5.90712">
        <ele>525.89</ele>
        <time>2022-10-08T09:17:58Z</time>
      </trkpt>
      <trkpt lat="44.26508" lon="5.90565">
        <ele>528.49</ele>
        <time>2022-10-08T09:18:10Z</time>
      </trkpt>
      <trkpt lat="44.27031" lon="5.90249">
        <ele>531.17</ele>
        <time>2022-10-08T09:18:31Z</time>
      </trkpt>
      <trkpt lat="44.27408" lon="5.90052">
        <ele>532.16</ele>
        <time>2022-10-08T09:18:46Z</time>
      </trkpt>
      <trkpt lat="44.27671" lon="5.89991">
        <ele>535.18</ele>
        <time>2022-10-08T09:18:56Z</time>
      </trkpt>
      <trkpt lat="44.27802" lon="5.89965">
        <ele>537.11</ele>
        <time>2022-10-08T09:19:01Z</time>
      </trkpt>
      <trkpt lat="44.28063" lon="5.89914">
        <ele>540.2</ele>
        <time>2022-10-08T09:19:11Z</time>
      </trkpt>
      <trkpt lat="44.28143" lon="5.89907">
        <ele>541.64</ele>
        <time>2022-10-08T09:19:14Z</time>
      </trkpt>
      <trkpt lat="44.28351" lon="5.89941">
        <ele>544</ele>
        <time>2022-10-08T09:19:22Z</time>
      </trkpt>
      <trkpt lat="44.28546" lon="5.90046">
        <ele>546.93</ele>
        <time>2022-10-08T09:19:30Z</time>
      </trkpt>
      <trkpt lat="44.28658" lon="5.90138">
        <ele>550.43</ele>
        <time>2022-10-08T09:19:35Z</time>
      </trkpt>
      <trkpt lat="44.2868" lon="5.90157">
        <ele>550.43</ele>
        <time>2022-10-08T09:19:36Z</time>
      </trkpt>
      <trkpt lat="44.28771" lon="5.90226">
        <ele>552.14</ele>
        <time>2022-10-08T09:19:40Z</time>
      </trkpt>
      <trkpt lat="44.28921" lon="5.90282">
        <ele>555.36</ele>
        <time>2022-10-08T09:19:46Z</time>
      </trkpt>
      <trkpt lat="44.28947" lon="5.90285">
        <ele>555.33</ele>
        <time>2022-10-08T09:19:47Z</time>
      </trkpt>
      <trkpt lat="44.29104" lon="5.9026">
        <ele>556.35</ele>
        <time>2022-10-08T09:19:53Z</time>
      </trkpt>
      <trkpt lat="44.29254" lon="5.90169">
        <ele>556.1</ele>
        <time>2022-10-08T09:19:59Z</time>
      </trkpt>
      <trkpt lat="44.29463" lon="5.90058">
        <ele>556.94</ele>
        <time>2022-10-08T09:20:07Z</time>
      </trkpt>
      <trkpt lat="44.2966" lon="5.90026">
        <ele>558.84</ele>
        <time>2022-10-08T09:20:14Z</time>
      </trkpt>
      <trkpt lat="44.29998" lon="5.90021">
        <ele>561.2</ele>
        <time>2022-10-08T09:20:26Z</time>
      </trkpt>
      <trkpt lat="44.30296" lon="5.90019">
        <ele>564.26</ele>
        <time>2022-10-08T09:20:37Z</time>
      </trkpt>
      <trkpt lat="44.3035" lon="5.9002">
        <ele>565.3</ele>
        <time>2022-10-08T09:20:39Z</time>
      </trkpt>
      <trkpt lat="44.30432" lon="5.90021">
        <ele>567.23</ele>
        <time>2022-10-08T09:20:42Z</time>
      </trkpt>
      <trkpt lat="44.30543" lon="5.90026">
        <ele>569.65</ele>
        <time>2022-10-08T09:20:46Z</time>
      </trkpt>
      <trkpt lat="44.30627" lon="5.90028">
        <ele>571.93</ele>
        <time>2022-10-08T09:20:49Z</time>
      </trkpt>
      <trkpt lat="44.3074" lon="5.90034">
        <ele>574.22</ele>
        <time>2022-10-08T09:20:53Z</time>
      </trkpt>
      <trkpt lat="44.30987" lon="5.90002">
        <ele>575.2</ele>
        <time>2022-10-08T09:21:02Z</time>
      </trkpt>
      <trkpt lat="44.31155" lon="5.89886">
        <ele>571.51</ele>
        <time>2022-10-08T09:21:09Z</time>
      </trkpt>
      <trkpt lat="44.31199" lon="5.89845">
        <ele>570.48</ele>
        <time>2022-10-08T09:21:11Z</time>
      </trkpt>
      <trkpt lat="44.31288" lon="5.89762">
        <ele>567.77</ele>
        <time>2022-10-08T09:21:15Z</time>
      </trkpt>
      <trkpt lat="44.31333" lon="5.89721">
        <ele>566.43</ele>
        <time>2022-10-08T09:21:17Z</time>
      </trkpt>
      <trkpt lat="44.31378" lon="5.8968">
        <ele>564.72</ele>
        <time>2022-10-08T09:21:19Z</time>
      </trkpt>
      <trkpt lat="44.31764" lon="5.89352">
        <ele>562.07</ele>
        <time>2022-10-08T09:21:36Z</time>
      </trkpt>
      <trkpt lat="44.31901" lon="5.89244">
        <ele>560.49</ele>
        <time>2022-10-08T09:21:42Z</time>
      </trkpt>
      <trkpt lat="44.31978" lon="5.89209">
        <ele>558.47</ele>
        <time>2022-10-08T09:21:45Z</time>
      </trkpt>
      <trkpt lat="44.3214" lon="5.89195">
        <ele>557.46</ele>
        <time>2022-10-08T09:21:51Z</time>
      </trkpt>
      <trkpt lat="44.32356" lon="5.89257">
        <ele>557.56</ele>
        <time>2022-10-08T09:21:59Z</time>
      </trkpt>
      <trkpt lat="44.32652" lon="5.8938">
        <ele>557.74</ele>
        <time>2022-10-08T09:22:10Z</time>
      </trkpt>
      <trkpt lat="44.32767" lon="5.89481">
        <ele>555.57</ele>
        <time>2022-10-08T09:22:15Z</time>
      </trkpt>
      <trkpt lat="44.32931" lon="5.89599">
        <ele>552.22</ele>
        <time>2022-10-08T09:22:22Z</time>
      </trkpt>
      <trkpt lat="44.32955" lon="5.89612">
        <ele>552.23</ele>
        <time>2022-10-08T09:22:23Z</time>
      </trkpt>
      <trkpt lat="44.33204" lon="5.89719">
        <ele>548.83</ele>
        <time>2022-10-08T09:22:33Z</time>
      </trkpt>
      <trkpt lat="44.33462" lon="5.89815">
        <ele>551.38</ele>
        <time>2022-10-08T09:22:43Z</time>
      </trkpt>
      <trkpt lat="44.33586" lon="5.89868">
        <ele>555.39</ele>
        <time>2022-10-08T09:22:48Z</time>
      </trkpt>
      <trkpt lat="44.3361" lon="5.8988">
        <ele>555.46</ele>
        <time>2022-10-08T09:22:49Z</time>
      </trkpt>
      <trkpt lat="44.33681" lon="5.89922">
        <ele>559.52</ele>
        <time>2022-10-08T09:22:52Z</time>
      </trkpt>
      <trkpt lat="44.33705" lon="5.89938">
        <ele>559.53</ele>
        <time>2022-10-08T09:22:53Z</time>
      </trkpt>
      <trkpt lat="44.33753" lon="5.89973">
        <ele>561.77</ele>
        <time>2022-10-08T09:22:55Z</time>
      </trkpt>
      <trkpt lat="44.33802" lon="5.90012">
        <ele>563.31</ele>
        <time>2022-10-08T09:22:57Z</time>
      </trkpt>
      <trkpt lat="44.33872" lon="5.90077">
        <ele>565.12</ele>
        <time>2022-10-08T09:23:00Z</time>
      </trkpt>
      <trkpt lat="44.34137" lon="5.90357">
        <ele>564.66</ele>
        <time>2022-10-08T09:23:12Z</time>
      </trkpt>
      <trkpt lat="44.34159" lon="5.9038">
        <ele>564.58</ele>
        <time>2022-10-08T09:23:13Z</time>
      </trkpt>
      <trkpt lat="44.34222" lon="5.90448">
        <ele>563.1</ele>
        <time>2022-10-08T09:23:16Z</time>
      </trkpt>
      <trkpt lat="44.34286" lon="5.90516">
        <ele>560.24</ele>
        <time>2022-10-08T09:23:19Z</time>
      </trkpt>
      <trkpt lat="44.34534" lon="5.90743">
        <ele>556.44</ele>
        <time>2022-10-08T09:23:30Z</time>
      </trkpt>
      <trkpt lat="44.35068" lon="5.91193">
        <ele>556.64</ele>
        <time>2022-10-08T09:23:53Z</time>
      </trkpt>
      <trkpt lat="44.35514" lon="5.91545">
        <ele>556.7</ele>
        <time>2022-10-08T09:24:12Z</time>
      </trkpt>
      <trkpt lat="44.35586" lon="5.91593">
        <ele>559.25</ele>
        <time>2022-10-08T09:24:15Z</time>
      </trkpt>
      <trkpt lat="44.35729" lon="5.91686">
        <ele>561.66</ele>
        <time>2022-10-08T09:24:21Z</time>
      </trkpt>
      <trkpt lat="44.36226" lon="5.92029">
        <ele>563.62</ele>
        <time>2022-10-08T09:24:42Z</time>
      </trkpt>
      <trkpt lat="44.36322" lon="5.921">
        <ele>561.18</ele>
        <time>2022-10-08T09:24:46Z</time>
      </trkpt>
      <trkpt lat="44.367" lon="5.92332">
        <ele>558.53</ele>
        <time>2022-10-08T09:25:01Z</time>
      </trkpt>
      <trkpt lat="44.3696" lon="5.92475">
        <ele>558.58</ele>
        <time>2022-10-08T09:25:11Z</time>
      </trkpt>
      <trkpt lat="44.37191" lon="5.92672">
        <ele>556.95</ele>
        <time>2022-10-08T09:25:21Z</time>
      </trkpt>
      <trkpt lat="44.37394" lon="5.92828">
        <ele>559.58</ele>
        <time>2022-10-08T09:25:30Z</time>
      </trkpt>
      <trkpt lat="44.37441" lon="5.9286">
        <ele>561.25</ele>
        <time>2022-10-08T09:25:32Z</time>
      </trkpt>
      <trkpt lat="44.37975" lon="5.93228">
        <ele>564.71</ele>
        <time>2022-10-08T09:25:55Z</time>
      </trkpt>
      <trkpt lat="44.37998" lon="5.93244">
        <ele>564.7</ele>
        <time>2022-10-08T09:25:56Z</time>
      </trkpt>
      <trkpt lat="44.38569" lon="5.93636">
        <ele>564.72</ele>
        <time>2022-10-08T09:26:20Z</time>
      </trkpt>
      <trkpt lat="44.38618" lon="5.93673">
        <ele>562.46</ele>
        <time>2022-10-08T09:26:22Z</time>
      </trkpt>
      <trkpt lat="44.39021" lon="5.94004">
        <ele>562.5</ele>
        <time>2022-10-08T09:26:38Z</time>
      </trkpt>
      <trkpt lat="44.39329" lon="5.94263">
        <ele>561.42</ele>
        <time>2022-10-08T09:26:51Z</time>
      </trkpt>
      <trkpt lat="44.39693" lon="5.94591">
        <ele>560.63</ele>
        <time>2022-10-08T09:27:07Z</time>
      </trkpt>
      <trkpt lat="44.40045" lon="5.94918">
        <ele>560.58</ele>
        <time>2022-10-08T09:27:23Z</time>
      </trkpt>
      <trkpt lat="44.40222" lon="5.9514">
        <ele>559.68</ele>
        <time>2022-10-08T09:27:32Z</time>
      </trkpt>
      <trkpt lat="44.40435" lon="5.95474">
        <ele>558.83</ele>
        <time>2022-10-08T09:27:44Z</time>
      </trkpt>
      <trkpt lat="44.40671" lon="5.95744">
        <ele>557.86</ele>
        <time>2022-10-08T09:27:55Z</time>
      </trkpt>
      <trkpt lat="44.40846" lon="5.95978">
        <ele>560.5</ele>
        <time>2022-10-08T09:28:04Z</time>
      </trkpt>
      <trkpt lat="44.40862" lon="5.96005">
        <ele>560.52</ele>
        <time>2022-10-08T09:28:05Z</time>
      </trkpt>
      <trkpt lat="44.40911" lon="5.96086">
        <ele>564.38</ele>
        <time>2022-10-08T09:28:08Z</time>
      </trkpt>
      <trkpt lat="44.4096" lon="5.96167">
        <ele>566.73</ele>
        <time>2022-10-08T09:28:11Z</time>
      </trkpt>
      <trkpt lat="44.41013" lon="5.96248">
        <ele>568.18</ele>
        <time>2022-10-08T09:28:14Z</time>
      </trkpt>
      <trkpt lat="44.41234" lon="5.96535">
        <ele>566.8</ele>
        <time>2022-10-08T09:28:25Z</time>
      </trkpt>
      <trkpt lat="44.41256" lon="5.96559">
        <ele>566.69</ele>
        <time>2022-10-08T09:28:26Z</time>
      </trkpt>
      <trkpt lat="44.41299" lon="5.96607">
        <ele>565.22</ele>
        <time>2022-10-08T09:28:28Z</time>
      </trkpt>
      <trkpt lat="44.41545" lon="5.96838">
        <ele>562.23</ele>
        <time>2022-10-08T09:28:39Z</time>
      </trkpt>
      <trkpt lat="44.41629" lon="5.96929">
        <ele>560.78</ele>
        <time>2022-10-08T09:28:43Z</time>
      </trkpt>
      <trkpt lat="44.41733" lon="5.97107">
        <ele>560.86</ele>
        <time>2022-10-08T09:28:49Z</time>
      </trkpt>
      <trkpt lat="44.41796" lon="5.97328">
        <ele>563.52</ele>
        <time>2022-10-08T09:28:55Z</time>
      </trkpt>
      <trkpt lat="44.41801" lon="5.97367">
        <ele>563.52</ele>
        <time>2022-10-08T09:28:56Z</time>
      </trkpt>
      <trkpt lat="44.41808" lon="5.97599">
        <ele>563.59</ele>
        <time>2022-10-08T09:29:02Z</time>
      </trkpt>
      <trkpt lat="44.41793" lon="5.97935">
        <ele>566.81</ele>
        <time>2022-10-08T09:29:11Z</time>
      </trkpt>
      <trkpt lat="44.41793" lon="5.97971">
        <ele>566.77</ele>
        <time>2022-10-08T09:29:12Z</time>
      </trkpt>
      <trkpt lat="44.41819" lon="5.98411">
        <ele>567.7</ele>
        <time>2022-10-08T09:29:24Z</time>
      </trkpt>
      <trkpt lat="44.41872" lon="5.99161">
        <ele>569.72</ele>
        <time>2022-10-08T09:29:44Z</time>
      </trkpt>
      <trkpt lat="44.41924" lon="5.99491">
        <ele>569.72</ele>
        <time>2022-10-08T09:29:53Z</time>
      </trkpt>
      <trkpt lat="44.41995" lon="5.99735">
        <ele>567.13</ele>
        <time>2022-10-08T09:30:00Z</time>
      </trkpt>
      <trkpt lat="44.42181" lon="6.00368">
        <ele>565.1</ele>
        <time>2022-10-08T09:30:18Z</time>
      </trkpt>
      <trkpt lat="44.4223" lon="6.00547">
        <ele>562.97</ele>
        <time>2022-10-08T09:30:23Z</time>
      </trkpt>
      <trkpt lat="44.42249" lon="6.00616">
        <ele>561.77</ele>
        <time>2022-10-08T09:30:25Z</time>
      </trkpt>
      <trkpt lat="44.42356" lon="6.00879">
        <ele>560.88</ele>
        <time>2022-10-08T09:30:33Z</time>
      </trkpt>
      <trkpt lat="44.42553" lon="6.01239">
        <ele>559.1</ele>
        <time>2022-10-08T09:30:45Z</time>
      </trkpt>
      <trkpt lat="44.42715" lon="6.01526">
        <ele>562.22</ele>
        <time>2022-10-08T09:30:55Z</time>
      </trkpt>
      <trkpt lat="44.42732" lon="6.01556">
        <ele>562.29</ele>
        <time>2022-10-08T09:30:56Z</time>
      </trkpt>
      <trkpt lat="44.428" lon="6.01674">
        <ele>565.44</ele>
        <time>2022-10-08T09:31:00Z</time>
      </trkpt>
      <trkpt lat="44.42817" lon="6.01705">
        <ele>565.44</ele>
        <time>2022-10-08T09:31:01Z</time>
      </trkpt>
      <trkpt lat="44.43089" lon="6.02139">
        <ele>566.43</ele>
        <time>2022-10-08T09:31:16Z</time>
      </trkpt>
      <trkpt lat="44.43306" lon="6.0236">
        <ele>566.33</ele>
        <time>2022-10-08T09:31:26Z</time>
      </trkpt>
      <trkpt lat="44.4359" lon="6.0264">
        <ele>568.49</ele>
        <time>2022-10-08T09:31:39Z</time>
      </trkpt>
      <trkpt lat="44.43743" lon="6.02858">
        <ele>568.46</ele>
        <time>2022-10-08T09:31:48Z</time>
      </trkpt>
      <trkpt lat="44.43774" lon="6.02896">
        <ele>568.46</ele>
        <time>2022-10-08T09:31:50Z</time>
      </trkpt>
      <trkpt lat="44.4379" lon="6.02911">
        <ele>568.44</ele>
        <time>2022-10-08T09:31:51Z</time>
      </trkpt>
      <trkpt lat="44.43806" lon="6.02923">
        <ele>568.44</ele>
        <time>2022-10-08T09:31:52Z</time>
      </trkpt>
      <trkpt lat="44.43823" lon="6.02932">
        <ele>565.73</ele>
        <time>2022-10-08T09:31:53Z</time>
      </trkpt>
      <trkpt lat="44.4384" lon="6.02939">
        <ele>565.74</ele>
        <time>2022-10-08T09:31:54Z</time>
      </trkpt>
      <trkpt lat="44.43856" lon="6.02944">
        <ele>565.73</ele>
        <time>2022-10-08T09:31:55Z</time>
      </trkpt>
      <trkpt lat="44.43889" lon="6.0295">
        <ele>565.75</ele>
        <time>2022-10-08T09:31:57Z</time>
      </trkpt>
      <trkpt lat="44.43905" lon="6.0295">
        <ele>565.76</ele>
        <time>2022-10-08T09:31:58Z</time>
      </trkpt>
      <trkpt lat="44.4392" lon="6.02948">
        <ele>565.76</ele>
        <time>2022-10-08T09:31:59Z</time>
      </trkpt>
      <trkpt lat="44.44036" lon="6.02913">
        <ele>565.79</ele>
        <time>2022-10-08T09:32:08Z</time>
      </trkpt>
      <trkpt lat="44.44052" lon="6.02906">
        <ele>564.73</ele>
        <time>2022-10-08T09:32:14Z</time>
      </trkpt>
      <trkpt lat="44.44053" lon="6.02908">
        <ele>564.08</ele>
        <time>2022-10-08T09:32:56Z</time>
      </trkpt>
      <trkpt lat="44.44055" lon="6.02906">
        <ele>564.11</ele>
        <time>2022-10-08T09:32:57Z</time>
      </trkpt>
      <trkpt lat="44.4406" lon="6.02903">
        <ele>564.11</ele>
        <time>2022-10-08T09:32:58Z</time>
      </trkpt>
      <trkpt lat="44.44067" lon="6.02899">
        <ele>564.11</ele>
        <time>2022-10-08T09:32:59Z</time>
      </trkpt>
      <trkpt lat="44.44075" lon="6.02893">
        <ele>564.12</ele>
        <time>2022-10-08T09:33:00Z</time>
      </trkpt>
      <trkpt lat="44.44166" lon="6.02836">
        <ele>564.15</ele>
        <time>2022-10-08T09:33:10Z</time>
      </trkpt>
      <trkpt lat="44.44173" lon="6.02835">
        <ele>564.15</ele>
        <time>2022-10-08T09:33:11Z</time>
      </trkpt>
      <trkpt lat="44.44181" lon="6.02836">
        <ele>564.16</ele>
        <time>2022-10-08T09:33:12Z</time>
      </trkpt>
      <trkpt lat="44.44188" lon="6.02839">
        <ele>564.16</ele>
        <time>2022-10-08T09:33:13Z</time>
      </trkpt>
      <trkpt lat="44.44194" lon="6.02845">
        <ele>564.17</ele>
        <time>2022-10-08T09:33:14Z</time>
      </trkpt>
      <trkpt lat="44.44201" lon="6.02852">
        <ele>564.17</ele>
        <time>2022-10-08T09:33:15Z</time>
      </trkpt>
      <trkpt lat="44.44207" lon="6.02861">
        <ele>564.17</ele>
        <time>2022-10-08T09:33:16Z</time>
      </trkpt>
      <trkpt lat="44.44211" lon="6.02873">
        <ele>564.18</ele>
        <time>2022-10-08T09:33:17Z</time>
      </trkpt>
      <trkpt lat="44.44215" lon="6.02886">
        <ele>566.59</ele>
        <time>2022-10-08T09:33:18Z</time>
      </trkpt>
      <trkpt lat="44.44218" lon="6.02901">
        <ele>566.61</ele>
        <time>2022-10-08T09:33:19Z</time>
      </trkpt>
      <trkpt lat="44.44221" lon="6.02915">
        <ele>566.6</ele>
        <time>2022-10-08T09:33:20Z</time>
      </trkpt>
      <trkpt lat="44.44241" lon="6.03014">
        <ele>569.93</ele>
        <time>2022-10-08T09:33:27Z</time>
      </trkpt>
      <trkpt lat="44.44277" lon="6.03114">
        <ele>571.17</ele>
        <time>2022-10-08T09:33:35Z</time>
      </trkpt>
      <trkpt lat="44.44285" lon="6.03124">
        <ele>571.16</ele>
        <time>2022-10-08T09:33:36Z</time>
      </trkpt>
      <trkpt lat="44.44293" lon="6.03133">
        <ele>571.18</ele>
        <time>2022-10-08T09:33:37Z</time>
      </trkpt>
      <trkpt lat="44.44302" lon="6.03142">
        <ele>571.18</ele>
        <time>2022-10-08T09:33:38Z</time>
      </trkpt>
      <trkpt lat="44.44312" lon="6.0315">
        <ele>571.19</ele>
        <time>2022-10-08T09:33:39Z</time>
      </trkpt>
      <trkpt lat="44.44323" lon="6.03157">
        <ele>572.38</ele>
        <time>2022-10-08T09:33:40Z</time>
      </trkpt>
      <trkpt lat="44.44334" lon="6.03163">
        <ele>572.39</ele>
        <time>2022-10-08T09:33:41Z</time>
      </trkpt>
      <trkpt lat="44.44346" lon="6.03168">
        <ele>572.41</ele>
        <time>2022-10-08T09:33:42Z</time>
      </trkpt>
      <trkpt lat="44.44358" lon="6.03172">
        <ele>573.44</ele>
        <time>2022-10-08T09:33:43Z</time>
      </trkpt>
      <trkpt lat="44.44371" lon="6.03175">
        <ele>573.43</ele>
        <time>2022-10-08T09:33:44Z</time>
      </trkpt>
      <trkpt lat="44.44384" lon="6.03177">
        <ele>574.54</ele>
        <time>2022-10-08T09:33:45Z</time>
      </trkpt>
      <trkpt lat="44.44458" lon="6.03188">
        <ele>576.27</ele>
        <time>2022-10-08T09:33:50Z</time>
      </trkpt>
      <trkpt lat="44.44507" lon="6.03196">
        <ele>577.51</ele>
        <time>2022-10-08T09:33:53Z</time>
      </trkpt>
      <trkpt lat="44.44676" lon="6.03223">
        <ele>577.2</ele>
        <time>2022-10-08T09:34:03Z</time>
      </trkpt>
      <trkpt lat="44.44705" lon="6.03228">
        <ele>574.61</ele>
        <time>2022-10-08T09:34:05Z</time>
      </trkpt>
      <trkpt lat="44.4473" lon="6.03233">
        <ele>573.37</ele>
        <time>2022-10-08T09:34:07Z</time>
      </trkpt>
      <trkpt lat="44.44741" lon="6.03239">
        <ele>573.34</ele>
        <time>2022-10-08T09:34:08Z</time>
      </trkpt>
      <trkpt lat="44.4475" lon="6.03248">
        <ele>573.31</ele>
        <time>2022-10-08T09:34:09Z</time>
      </trkpt>
      <trkpt lat="44.4476" lon="6.03262">
        <ele>573.31</ele>
        <time>2022-10-08T09:34:10Z</time>
      </trkpt>
      <trkpt lat="44.44769" lon="6.03279">
        <ele>573.29</ele>
        <time>2022-10-08T09:34:11Z</time>
      </trkpt>
      <trkpt lat="44.44778" lon="6.03297">
        <ele>573.35</ele>
        <time>2022-10-08T09:34:12Z</time>
      </trkpt>
      <trkpt lat="44.44808" lon="6.03359">
        <ele>575.87</ele>
        <time>2022-10-08T09:34:15Z</time>
      </trkpt>
      <trkpt lat="44.44839" lon="6.03426">
        <ele>577.81</ele>
        <time>2022-10-08T09:34:18Z</time>
      </trkpt>
      <trkpt lat="44.44955" lon="6.03653">
        <ele>579.56</ele>
        <time>2022-10-08T09:34:28Z</time>
      </trkpt>
      <trkpt lat="44.45029" lon="6.03753">
        <ele>580.77</ele>
        <time>2022-10-08T09:34:33Z</time>
      </trkpt>
      <trkpt lat="44.45169" lon="6.04003">
        <ele>581.9</ele>
        <time>2022-10-08T09:34:44Z</time>
      </trkpt>
      <trkpt lat="44.45376" lon="6.04349">
        <ele>581.91</ele>
        <time>2022-10-08T09:35:00Z</time>
      </trkpt>
      <trkpt lat="44.45562" lon="6.04624">
        <ele>581.87</ele>
        <time>2022-10-08T09:35:16Z</time>
      </trkpt>
      <trkpt lat="44.45654" lon="6.04751">
        <ele>582.03</ele>
        <time>2022-10-08T09:35:26Z</time>
      </trkpt>
      <trkpt lat="44.4578" lon="6.04932">
        <ele>583</ele>
        <time>2022-10-08T09:35:41Z</time>
      </trkpt>
      <trkpt lat="44.45839" lon="6.05019">
        <ele>583.03</ele>
        <time>2022-10-08T09:35:50Z</time>
      </trkpt>
      <trkpt lat="44.45844" lon="6.05022">
        <ele>583.04</ele>
        <time>2022-10-08T09:35:51Z</time>
      </trkpt>
      <trkpt lat="44.45848" lon="6.05022">
        <ele>583.05</ele>
        <time>2022-10-08T09:35:52Z</time>
      </trkpt>
      <trkpt lat="44.45852" lon="6.05011">
        <ele>583.06</ele>
        <time>2022-10-08T09:35:54Z</time>
      </trkpt>
      <trkpt lat="44.45851" lon="6.05004">
        <ele>583.08</ele>
        <time>2022-10-08T09:35:55Z</time>
      </trkpt>
      <trkpt lat="44.45849" lon="6.04999">
        <ele>583.08</ele>
        <time>2022-10-08T09:35:56Z</time>
      </trkpt>
      <trkpt lat="44.45847" lon="6.04995">
        <ele>583.09</ele>
        <time>2022-10-08T09:35:57Z</time>
      </trkpt>
      <trkpt lat="44.45845" lon="6.04993">
        <ele>583.1</ele>
        <time>2022-10-08T09:35:58Z</time>
      </trkpt>
      <trkpt lat="44.45845" lon="6.04988">
        <ele>583.16</ele>
        <time>2022-10-08T09:36:14Z</time>
      </trkpt>
      <trkpt lat="44.45845" lon="6.04985">
        <ele>588.45</ele>
        <time>2022-10-08T09:36:31Z</time>
      </trkpt>
      <trkpt lat="44.45834" lon="6.04975">
        <ele>582.56</ele>
        <time>2022-10-08T09:38:41Z</time>
      </trkpt>
      <trkpt lat="44.45837" lon="6.04981">
        <ele>582.77</ele>
        <time>2022-10-08T09:39:26Z</time>
      </trkpt>
      <trkpt lat="44.45829" lon="6.0498">
        <ele>582.82</ele>
        <time>2022-10-08T09:39:29Z</time>
      </trkpt>
      <trkpt lat="44.45826" lon="6.0499">
        <ele>582.83</ele>
        <time>2022-10-08T09:39:36Z</time>
      </trkpt>
      <trkpt lat="44.45826" lon="6.0499">
        <ele>582.84</ele>
        <time>2022-10-08T09:39:38Z</time>
      </trkpt>
      <trkpt lat="44.45826" lon="6.04995">
        <ele>582.79</ele>
        <time>2022-10-08T09:39:40Z</time>
      </trkpt>
      <trkpt lat="44.45827" lon="6.05001">
        <ele>582.8</ele>
        <time>2022-10-08T09:39:41Z</time>
      </trkpt>
      <trkpt lat="44.45831" lon="6.05008">
        <ele>582.88</ele>
        <time>2022-10-08T09:39:42Z</time>
      </trkpt>
      <trkpt lat="44.45837" lon="6.05016">
        <ele>582.88</ele>
        <time>2022-10-08T09:39:43Z</time>
      </trkpt>
      <trkpt lat="44.45859" lon="6.05047">
        <ele>585.25</ele>
        <time>2022-10-08T09:39:46Z</time>
      </trkpt>
      <trkpt lat="44.45894" lon="6.05096">
        <ele>586.58</ele>
        <time>2022-10-08T09:39:50Z</time>
      </trkpt>
      <trkpt lat="44.45921" lon="6.05135">
        <ele>587.86</ele>
        <time>2022-10-08T09:39:53Z</time>
      </trkpt>
      <trkpt lat="44.46004" lon="6.0531">
        <ele>589.69</ele>
        <time>2022-10-08T09:40:04Z</time>
      </trkpt>
      <trkpt lat="44.46012" lon="6.05324">
        <ele>589.72</ele>
        <time>2022-10-08T09:40:05Z</time>
      </trkpt>
      <trkpt lat="44.46021" lon="6.05338">
        <ele>589.54</ele>
        <time>2022-10-08T09:40:06Z</time>
      </trkpt>
      <trkpt lat="44.46126" lon="6.05491">
        <ele>589.53</ele>
        <time>2022-10-08T09:40:19Z</time>
      </trkpt>
      <trkpt lat="44.46138" lon="6.05507">
        <ele>587.03</ele>
        <time>2022-10-08T09:40:21Z</time>
      </trkpt>
      <trkpt lat="44.46146" lon="6.05513">
        <ele>587.03</ele>
        <time>2022-10-08T09:40:22Z</time>
      </trkpt>
      <trkpt lat="44.46155" lon="6.05517">
        <ele>586.99</ele>
        <time>2022-10-08T09:40:23Z</time>
      </trkpt>
      <trkpt lat="44.46165" lon="6.05519">
        <ele>587.02</ele>
        <time>2022-10-08T09:40:24Z</time>
      </trkpt>
      <trkpt lat="44.46175" lon="6.0552">
        <ele>586.99</ele>
        <time>2022-10-08T09:40:25Z</time>
      </trkpt>
      <trkpt lat="44.46203" lon="6.05526">
        <ele>585.55</ele>
        <time>2022-10-08T09:40:30Z</time>
      </trkpt>
      <trkpt lat="44.46205" lon="6.05527">
        <ele>585.82</ele>
        <time>2022-10-08T09:40:31Z</time>
      </trkpt>
      <trkpt lat="44.46208" lon="6.0553">
        <ele>585.81</ele>
        <time>2022-10-08T09:40:32Z</time>
      </trkpt>
      <trkpt lat="44.46247" lon="6.05569">
        <ele>585.83</ele>
        <time>2022-10-08T09:40:38Z</time>
      </trkpt>
      <trkpt lat="44.46323" lon="6.05636">
        <ele>584.79</ele>
        <time>2022-10-08T09:40:48Z</time>
      </trkpt>
      <trkpt lat="44.46397" lon="6.05707">
        <ele>584.84</ele>
        <time>2022-10-08T09:40:59Z</time>
      </trkpt>
      <trkpt lat="44.46473" lon="6.05797">
        <ele>583.26</ele>
        <time>2022-10-08T09:41:07Z</time>
      </trkpt>
      <trkpt lat="44.46484" lon="6.05808">
        <ele>583.25</ele>
        <time>2022-10-08T09:41:08Z</time>
      </trkpt>
      <trkpt lat="44.46552" lon="6.05869">
        <ele>581.15</ele>
        <time>2022-10-08T09:41:14Z</time>
      </trkpt>
      <trkpt lat="44.46681" lon="6.05956">
        <ele>580.32</ele>
        <time>2022-10-08T09:41:24Z</time>
      </trkpt>
      <trkpt lat="44.46743" lon="6.06022">
        <ele>577.91</ele>
        <time>2022-10-08T09:41:30Z</time>
      </trkpt>
      <trkpt lat="44.46806" lon="6.06166">
        <ele>577.98</ele>
        <time>2022-10-08T09:41:41Z</time>
      </trkpt>
      <trkpt lat="44.46839" lon="6.0629">
        <ele>581.3</ele>
        <time>2022-10-08T09:41:50Z</time>
      </trkpt>
      <trkpt lat="44.46842" lon="6.06308">
        <ele>581.32</ele>
        <time>2022-10-08T09:41:51Z</time>
      </trkpt>
      <trkpt lat="44.46846" lon="6.06367">
        <ele>583.08</ele>
        <time>2022-10-08T09:41:54Z</time>
      </trkpt>
      <trkpt lat="44.46835" lon="6.065">
        <ele>585.63</ele>
        <time>2022-10-08T09:42:00Z</time>
      </trkpt>
      <trkpt lat="44.46814" lon="6.06622">
        <ele>587.09</ele>
        <time>2022-10-08T09:42:05Z</time>
      </trkpt>
      <trkpt lat="44.4681" lon="6.06672">
        <ele>588.45</ele>
        <time>2022-10-08T09:42:07Z</time>
      </trkpt>
      <trkpt lat="44.46813" lon="6.06722">
        <ele>589.77</ele>
        <time>2022-10-08T09:42:09Z</time>
      </trkpt>
      <trkpt lat="44.46816" lon="6.06746">
        <ele>591.07</ele>
        <time>2022-10-08T09:42:10Z</time>
      </trkpt>
      <trkpt lat="44.46821" lon="6.0677">
        <ele>591.08</ele>
        <time>2022-10-08T09:42:11Z</time>
      </trkpt>
      <trkpt lat="44.46828" lon="6.06793">
        <ele>592.36</ele>
        <time>2022-10-08T09:42:12Z</time>
      </trkpt>
      <trkpt lat="44.46835" lon="6.06815">
        <ele>592.39</ele>
        <time>2022-10-08T09:42:13Z</time>
      </trkpt>
      <trkpt lat="44.46843" lon="6.06834">
        <ele>593.36</ele>
        <time>2022-10-08T09:42:14Z</time>
      </trkpt>
      <trkpt lat="44.46852" lon="6.06852">
        <ele>592.88</ele>
        <time>2022-10-08T09:42:15Z</time>
      </trkpt>
      <trkpt lat="44.46885" lon="6.06921">
        <ele>595.82</ele>
        <time>2022-10-08T09:42:19Z</time>
      </trkpt>
      <trkpt lat="44.46904" lon="6.06954">
        <ele>597.29</ele>
        <time>2022-10-08T09:42:21Z</time>
      </trkpt>
      <trkpt lat="44.46928" lon="6.06984">
        <ele>599.48</ele>
        <time>2022-10-08T09:42:23Z</time>
      </trkpt>
      <trkpt lat="44.46964" lon="6.07031">
        <ele>600.75</ele>
        <time>2022-10-08T09:42:26Z</time>
      </trkpt>
      <trkpt lat="44.47002" lon="6.07079">
        <ele>602.07</ele>
        <time>2022-10-08T09:42:29Z</time>
      </trkpt>
      <trkpt lat="44.47038" lon="6.0713">
        <ele>604.07</ele>
        <time>2022-10-08T09:42:32Z</time>
      </trkpt>
      <trkpt lat="44.47132" lon="6.07283">
        <ele>606.04</ele>
        <time>2022-10-08T09:42:41Z</time>
      </trkpt>
      <trkpt lat="44.47287" lon="6.07493">
        <ele>606.91</ele>
        <time>2022-10-08T09:42:53Z</time>
      </trkpt>
      <trkpt lat="44.47314" lon="6.07531">
        <ele>604.28</ele>
        <time>2022-10-08T09:42:55Z</time>
      </trkpt>
      <trkpt lat="44.47469" lon="6.07737">
        <ele>602.27</ele>
        <time>2022-10-08T09:43:07Z</time>
      </trkpt>
      <trkpt lat="44.47581" lon="6.07815">
        <ele>600.08</ele>
        <time>2022-10-08T09:43:13Z</time>
      </trkpt>
      <trkpt lat="44.47664" lon="6.0787">
        <ele>597.4</ele>
        <time>2022-10-08T09:43:17Z</time>
      </trkpt>
      <trkpt lat="44.47724" lon="6.07914">
        <ele>594.73</ele>
        <time>2022-10-08T09:43:20Z</time>
      </trkpt>
      <trkpt lat="44.47793" lon="6.07979">
        <ele>591.99</ele>
        <time>2022-10-08T09:43:24Z</time>
      </trkpt>
      <trkpt lat="44.47868" lon="6.08112">
        <ele>594.92</ele>
        <time>2022-10-08T09:43:30Z</time>
      </trkpt>
      <trkpt lat="44.47877" lon="6.08136">
        <ele>594.89</ele>
        <time>2022-10-08T09:43:31Z</time>
      </trkpt>
      <trkpt lat="44.47907" lon="6.08229">
        <ele>594.9</ele>
        <time>2022-10-08T09:43:35Z</time>
      </trkpt>
      <trkpt lat="44.47911" lon="6.08253">
        <ele>594.94</ele>
        <time>2022-10-08T09:43:36Z</time>
      </trkpt>
      <trkpt lat="44.47913" lon="6.08279">
        <ele>594.98</ele>
        <time>2022-10-08T09:43:37Z</time>
      </trkpt>
      <trkpt lat="44.47914" lon="6.08305">
        <ele>594.99</ele>
        <time>2022-10-08T09:43:38Z</time>
      </trkpt>
      <trkpt lat="44.47913" lon="6.08333">
        <ele>595.03</ele>
        <time>2022-10-08T09:43:39Z</time>
      </trkpt>
      <trkpt lat="44.47914" lon="6.08446">
        <ele>597.15</ele>
        <time>2022-10-08T09:43:43Z</time>
      </trkpt>
      <trkpt lat="44.47921" lon="6.08503">
        <ele>599.08</ele>
        <time>2022-10-08T09:43:45Z</time>
      </trkpt>
      <trkpt lat="44.47948" lon="6.08707">
        <ele>602.11</ele>
        <time>2022-10-08T09:43:52Z</time>
      </trkpt>
      <trkpt lat="44.47986" lon="6.09061">
        <ele>605.66</ele>
        <time>2022-10-08T09:44:04Z</time>
      </trkpt>
      <trkpt lat="44.47988" lon="6.09089">
        <ele>605.67</ele>
        <time>2022-10-08T09:44:05Z</time>
      </trkpt>
      <trkpt lat="44.47987" lon="6.09118">
        <ele>605.7</ele>
        <time>2022-10-08T09:44:06Z</time>
      </trkpt>
      <trkpt lat="44.47984" lon="6.09146">
        <ele>605.71</ele>
        <time>2022-10-08T09:44:07Z</time>
      </trkpt>
      <trkpt lat="44.47978" lon="6.09173">
        <ele>606.71</ele>
        <time>2022-10-08T09:44:08Z</time>
      </trkpt>
      <trkpt lat="44.4797" lon="6.09199">
        <ele>606.73</ele>
        <time>2022-10-08T09:44:09Z</time>
      </trkpt>
      <trkpt lat="44.4796" lon="6.09223">
        <ele>606.73</ele>
        <time>2022-10-08T09:44:10Z</time>
      </trkpt>
      <trkpt lat="44.47949" lon="6.09245">
        <ele>607.63</ele>
        <time>2022-10-08T09:44:11Z</time>
      </trkpt>
      <trkpt lat="44.47936" lon="6.09265">
        <ele>607.62</ele>
        <time>2022-10-08T09:44:12Z</time>
      </trkpt>
      <trkpt lat="44.47923" lon="6.09286">
        <ele>607.65</ele>
        <time>2022-10-08T09:44:13Z</time>
      </trkpt>
      <trkpt lat="44.47898" lon="6.09329">
        <ele>608.72</ele>
        <time>2022-10-08T09:44:15Z</time>
      </trkpt>
      <trkpt lat="44.47889" lon="6.09354">
        <ele>608.8</ele>
        <time>2022-10-08T09:44:16Z</time>
      </trkpt>
      <trkpt lat="44.47829" lon="6.09573">
        <ele>610.81</ele>
        <time>2022-10-08T09:44:25Z</time>
      </trkpt>
      <trkpt lat="44.47818" lon="6.09713">
        <ele>610.86</ele>
        <time>2022-10-08T09:44:32Z</time>
      </trkpt>
      <trkpt lat="44.47819" lon="6.09727">
        <ele>610.85</ele>
        <time>2022-10-08T09:44:33Z</time>
      </trkpt>
      <trkpt lat="44.47823" lon="6.09739">
        <ele>610.86</ele>
        <time>2022-10-08T09:44:34Z</time>
      </trkpt>
      <trkpt lat="44.4783" lon="6.09746">
        <ele>610.87</ele>
        <time>2022-10-08T09:44:35Z</time>
      </trkpt>
      <trkpt lat="44.47841" lon="6.09749">
        <ele>610.88</ele>
        <time>2022-10-08T09:44:36Z</time>
      </trkpt>
      <trkpt lat="44.47854" lon="6.09749">
        <ele>610.88</ele>
        <time>2022-10-08T09:44:37Z</time>
      </trkpt>
      <trkpt lat="44.47883" lon="6.09751">
        <ele>612.52</ele>
        <time>2022-10-08T09:44:39Z</time>
      </trkpt>
      <trkpt lat="44.47933" lon="6.09765">
        <ele>616.06</ele>
        <time>2022-10-08T09:44:42Z</time>
      </trkpt>
      <trkpt lat="44.47981" lon="6.09784">
        <ele>620.1</ele>
        <time>2022-10-08T09:44:45Z</time>
      </trkpt>
      <trkpt lat="44.48028" lon="6.09815">
        <ele>623.83</ele>
        <time>2022-10-08T09:44:48Z</time>
      </trkpt>
      <trkpt lat="44.4807" lon="6.09857">
        <ele>626.42</ele>
        <time>2022-10-08T09:44:51Z</time>
      </trkpt>
      <trkpt lat="44.48095" lon="6.09892">
        <ele>628.63</ele>
        <time>2022-10-08T09:44:53Z</time>
      </trkpt>
      <trkpt lat="44.4813" lon="6.09946">
        <ele>632.29</ele>
        <time>2022-10-08T09:44:56Z</time>
      </trkpt>
      <trkpt lat="44.48141" lon="6.09964">
        <ele>632.41</ele>
        <time>2022-10-08T09:44:57Z</time>
      </trkpt>
      <trkpt lat="44.48164" lon="6.1">
        <ele>633.71</ele>
        <time>2022-10-08T09:44:59Z</time>
      </trkpt>
      <trkpt lat="44.48261" lon="6.10134">
        <ele>637.37</ele>
        <time>2022-10-08T09:45:07Z</time>
      </trkpt>
      <trkpt lat="44.48339" lon="6.10242">
        <ele>639.24</ele>
        <time>2022-10-08T09:45:14Z</time>
      </trkpt>
      <trkpt lat="44.48384" lon="6.10369">
        <ele>642.45</ele>
        <time>2022-10-08T09:45:20Z</time>
      </trkpt>
      <trkpt lat="44.48392" lon="6.10391">
        <ele>642.46</ele>
        <time>2022-10-08T09:45:21Z</time>
      </trkpt>
      <trkpt lat="44.4841" lon="6.10436">
        <ele>644.09</ele>
        <time>2022-10-08T09:45:23Z</time>
      </trkpt>
      <trkpt lat="44.48442" lon="6.10502">
        <ele>646.22</ele>
        <time>2022-10-08T09:45:26Z</time>
      </trkpt>
      <trkpt lat="44.48487" lon="6.10588">
        <ele>648.88</ele>
        <time>2022-10-08T09:45:30Z</time>
      </trkpt>
      <trkpt lat="44.48519" lon="6.10651">
        <ele>653.15</ele>
        <time>2022-10-08T09:45:33Z</time>
      </trkpt>
      <trkpt lat="44.48535" lon="6.10693">
        <ele>654.36</ele>
        <time>2022-10-08T09:45:35Z</time>
      </trkpt>
      <trkpt lat="44.48541" lon="6.10714">
        <ele>655.86</ele>
        <time>2022-10-08T09:45:36Z</time>
      </trkpt>
      <trkpt lat="44.48545" lon="6.10736">
        <ele>655.97</ele>
        <time>2022-10-08T09:45:37Z</time>
      </trkpt>
      <trkpt lat="44.48558" lon="6.10801">
        <ele>660.18</ele>
        <time>2022-10-08T09:45:40Z</time>
      </trkpt>
      <trkpt lat="44.48569" lon="6.10845">
        <ele>663.23</ele>
        <time>2022-10-08T09:45:42Z</time>
      </trkpt>
      <trkpt lat="44.4859" lon="6.10914">
        <ele>665.76</ele>
        <time>2022-10-08T09:45:45Z</time>
      </trkpt>
      <trkpt lat="44.48613" lon="6.10984">
        <ele>668.1</ele>
        <time>2022-10-08T09:45:48Z</time>
      </trkpt>
      <trkpt lat="44.48629" lon="6.11028">
        <ele>669.65</ele>
        <time>2022-10-08T09:45:50Z</time>
      </trkpt>
      <trkpt lat="44.48658" lon="6.11087">
        <ele>671.69</ele>
        <time>2022-10-08T09:45:53Z</time>
      </trkpt>
      <trkpt lat="44.48682" lon="6.11124">
        <ele>673.2</ele>
        <time>2022-10-08T09:45:55Z</time>
      </trkpt>
      <trkpt lat="44.4872" lon="6.11178">
        <ele>675.17</ele>
        <time>2022-10-08T09:45:58Z</time>
      </trkpt>
      <trkpt lat="44.4877" lon="6.11252">
        <ele>677.75</ele>
        <time>2022-10-08T09:46:02Z</time>
      </trkpt>
      <trkpt lat="44.48781" lon="6.11272">
        <ele>678.64</ele>
        <time>2022-10-08T09:46:03Z</time>
      </trkpt>
      <trkpt lat="44.48789" lon="6.11293">
        <ele>678.91</ele>
        <time>2022-10-08T09:46:04Z</time>
      </trkpt>
      <trkpt lat="44.48797" lon="6.11315">
        <ele>679.97</ele>
        <time>2022-10-08T09:46:05Z</time>
      </trkpt>
      <trkpt lat="44.48802" lon="6.11338">
        <ele>680.92</ele>
        <time>2022-10-08T09:46:06Z</time>
      </trkpt>
      <trkpt lat="44.48807" lon="6.11362">
        <ele>680.91</ele>
        <time>2022-10-08T09:46:07Z</time>
      </trkpt>
      <trkpt lat="44.4881" lon="6.11387">
        <ele>681.72</ele>
        <time>2022-10-08T09:46:08Z</time>
      </trkpt>
      <trkpt lat="44.48824" lon="6.1146">
        <ele>683.31</ele>
        <time>2022-10-08T09:46:11Z</time>
      </trkpt>
      <trkpt lat="44.48832" lon="6.11482">
        <ele>685.19</ele>
        <time>2022-10-08T09:46:12Z</time>
      </trkpt>
      <trkpt lat="44.48841" lon="6.11504">
        <ele>685.3</ele>
        <time>2022-10-08T09:46:13Z</time>
      </trkpt>
      <trkpt lat="44.48873" lon="6.11565">
        <ele>687.57</ele>
        <time>2022-10-08T09:46:16Z</time>
      </trkpt>
      <trkpt lat="44.48911" lon="6.11616">
        <ele>684.48</ele>
        <time>2022-10-08T09:46:19Z</time>
      </trkpt>
      <trkpt lat="44.48952" lon="6.11664">
        <ele>681.19</ele>
        <time>2022-10-08T09:46:22Z</time>
      </trkpt>
      <trkpt lat="44.48978" lon="6.11701">
        <ele>678.71</ele>
        <time>2022-10-08T09:46:24Z</time>
      </trkpt>
      <trkpt lat="44.4899" lon="6.11723">
        <ele>677.11</ele>
        <time>2022-10-08T09:46:25Z</time>
      </trkpt>
      <trkpt lat="44.49" lon="6.11746">
        <ele>676.14</ele>
        <time>2022-10-08T09:46:26Z</time>
      </trkpt>
      <trkpt lat="44.49019" lon="6.11795">
        <ele>674.8</ele>
        <time>2022-10-08T09:46:28Z</time>
      </trkpt>
      <trkpt lat="44.49035" lon="6.11844">
        <ele>673.47</ele>
        <time>2022-10-08T09:46:30Z</time>
      </trkpt>
      <trkpt lat="44.49146" lon="6.12155">
        <ele>672.64</ele>
        <time>2022-10-08T09:46:44Z</time>
      </trkpt>
      <trkpt lat="44.49157" lon="6.12168">
        <ele>672.67</ele>
        <time>2022-10-08T09:46:45Z</time>
      </trkpt>
      <trkpt lat="44.49168" lon="6.12181">
        <ele>672.68</ele>
        <time>2022-10-08T09:46:46Z</time>
      </trkpt>
      <trkpt lat="44.49201" lon="6.12219">
        <ele>675.33</ele>
        <time>2022-10-08T09:46:49Z</time>
      </trkpt>
      <trkpt lat="44.49209" lon="6.12235">
        <ele>675.35</ele>
        <time>2022-10-08T09:46:50Z</time>
      </trkpt>
      <trkpt lat="44.49214" lon="6.12253">
        <ele>675.41</ele>
        <time>2022-10-08T09:46:51Z</time>
      </trkpt>
      <trkpt lat="44.49215" lon="6.12273">
        <ele>676.96</ele>
        <time>2022-10-08T09:46:52Z</time>
      </trkpt>
      <trkpt lat="44.49213" lon="6.12293">
        <ele>676.77</ele>
        <time>2022-10-08T09:46:53Z</time>
      </trkpt>
      <trkpt lat="44.49208" lon="6.12312">
        <ele>676.77</ele>
        <time>2022-10-08T09:46:54Z</time>
      </trkpt>
      <trkpt lat="44.49199" lon="6.12329">
        <ele>676.79</ele>
        <time>2022-10-08T09:46:55Z</time>
      </trkpt>
      <trkpt lat="44.49188" lon="6.12345">
        <ele>676.79</ele>
        <time>2022-10-08T09:46:56Z</time>
      </trkpt>
      <trkpt lat="44.49177" lon="6.1236">
        <ele>676.81</ele>
        <time>2022-10-08T09:46:57Z</time>
      </trkpt>
      <trkpt lat="44.49154" lon="6.12387">
        <ele>673.06</ele>
        <time>2022-10-08T09:46:59Z</time>
      </trkpt>
      <trkpt lat="44.49143" lon="6.12401">
        <ele>673.07</ele>
        <time>2022-10-08T09:47:00Z</time>
      </trkpt>
      <trkpt lat="44.49123" lon="6.12433">
        <ele>671.5</ele>
        <time>2022-10-08T09:47:02Z</time>
      </trkpt>
      <trkpt lat="44.49115" lon="6.12452">
        <ele>670.08</ele>
        <time>2022-10-08T09:47:03Z</time>
      </trkpt>
      <trkpt lat="44.49109" lon="6.12472">
        <ele>670.06</ele>
        <time>2022-10-08T09:47:04Z</time>
      </trkpt>
      <trkpt lat="44.49106" lon="6.12492">
        <ele>668.27</ele>
        <time>2022-10-08T09:47:05Z</time>
      </trkpt>
      <trkpt lat="44.49105" lon="6.12513">
        <ele>668.21</ele>
        <time>2022-10-08T09:47:06Z</time>
      </trkpt>
      <trkpt lat="44.49106" lon="6.12535">
        <ele>666.01</ele>
        <time>2022-10-08T09:47:07Z</time>
      </trkpt>
      <trkpt lat="44.49108" lon="6.12557">
        <ele>665.98</ele>
        <time>2022-10-08T09:47:08Z</time>
      </trkpt>
      <trkpt lat="44.49113" lon="6.12579">
        <ele>664.22</ele>
        <time>2022-10-08T09:47:09Z</time>
      </trkpt>
      <trkpt lat="44.49118" lon="6.12598">
        <ele>663.4</ele>
        <time>2022-10-08T09:47:10Z</time>
      </trkpt>
      <trkpt lat="44.49125" lon="6.12617">
        <ele>662.25</ele>
        <time>2022-10-08T09:47:11Z</time>
      </trkpt>
      <trkpt lat="44.49132" lon="6.12635">
        <ele>662.28</ele>
        <time>2022-10-08T09:47:12Z</time>
      </trkpt>
      <trkpt lat="44.4923" lon="6.12852">
        <ele>661.46</ele>
        <time>2022-10-08T09:47:23Z</time>
      </trkpt>
      <trkpt lat="44.49349" lon="6.13113">
        <ele>661.71</ele>
        <time>2022-10-08T09:47:35Z</time>
      </trkpt>
      <trkpt lat="44.49386" lon="6.1326">
        <ele>663.93</ele>
        <time>2022-10-08T09:47:41Z</time>
      </trkpt>
      <trkpt lat="44.49412" lon="6.13357">
        <ele>665.73</ele>
        <time>2022-10-08T09:47:45Z</time>
      </trkpt>
      <trkpt lat="44.49442" lon="6.1348">
        <ele>668.41</ele>
        <time>2022-10-08T09:47:50Z</time>
      </trkpt>
      <trkpt lat="44.49458" lon="6.13612">
        <ele>669.88</ele>
        <time>2022-10-08T09:47:55Z</time>
      </trkpt>
      <trkpt lat="44.49474" lon="6.13775">
        <ele>672.51</ele>
        <time>2022-10-08T09:48:01Z</time>
      </trkpt>
      <trkpt lat="44.49512" lon="6.14193">
        <ele>671.03</ele>
        <time>2022-10-08T09:48:16Z</time>
      </trkpt>
      <trkpt lat="44.49513" lon="6.14519">
        <ele>669.27</ele>
        <time>2022-10-08T09:48:28Z</time>
      </trkpt>
      <trkpt lat="44.49515" lon="6.14619">
        <ele>672.45</ele>
        <time>2022-10-08T09:48:32Z</time>
      </trkpt>
      <trkpt lat="44.4952" lon="6.14644">
        <ele>672.45</ele>
        <time>2022-10-08T09:48:33Z</time>
      </trkpt>
      <trkpt lat="44.49526" lon="6.14669">
        <ele>673.37</ele>
        <time>2022-10-08T09:48:34Z</time>
      </trkpt>
      <trkpt lat="44.49535" lon="6.14691">
        <ele>674.31</ele>
        <time>2022-10-08T09:48:35Z</time>
      </trkpt>
      <trkpt lat="44.49546" lon="6.14712">
        <ele>674.35</ele>
        <time>2022-10-08T09:48:36Z</time>
      </trkpt>
      <trkpt lat="44.49558" lon="6.14732">
        <ele>676.66</ele>
        <time>2022-10-08T09:48:37Z</time>
      </trkpt>
      <trkpt lat="44.49571" lon="6.14751">
        <ele>676.74</ele>
        <time>2022-10-08T09:48:38Z</time>
      </trkpt>
      <trkpt lat="44.49597" lon="6.1479">
        <ele>678.62</ele>
        <time>2022-10-08T09:48:40Z</time>
      </trkpt>
      <trkpt lat="44.49705" lon="6.14988">
        <ele>678.7</ele>
        <time>2022-10-08T09:48:50Z</time>
      </trkpt>
      <trkpt lat="44.49812" lon="6.15165">
        <ele>680.6</ele>
        <time>2022-10-08T09:48:59Z</time>
      </trkpt>
      <trkpt lat="44.49849" lon="6.15204">
        <ele>682.57</ele>
        <time>2022-10-08T09:49:01Z</time>
      </trkpt>
      <trkpt lat="44.49904" lon="6.15265">
        <ele>684.99</ele>
        <time>2022-10-08T09:49:04Z</time>
      </trkpt>
      <trkpt lat="44.49939" lon="6.15302">
        <ele>686.69</ele>
        <time>2022-10-08T09:49:06Z</time>
      </trkpt>
      <trkpt lat="44.49971" lon="6.15335">
        <ele>687.97</ele>
        <time>2022-10-08T09:49:08Z</time>
      </trkpt>
      <trkpt lat="44.50092" lon="6.1546">
        <ele>691.18</ele>
        <time>2022-10-08T09:49:17Z</time>
      </trkpt>
      <trkpt lat="44.50223" lon="6.15629">
        <ele>692.66</ele>
        <time>2022-10-08T09:49:27Z</time>
      </trkpt>
      <trkpt lat="44.50377" lon="6.1584">
        <ele>693.88</ele>
        <time>2022-10-08T09:49:39Z</time>
      </trkpt>
      <trkpt lat="44.504" lon="6.15872">
        <ele>694.74</ele>
        <time>2022-10-08T09:49:41Z</time>
      </trkpt>
      <trkpt lat="44.50439" lon="6.15918">
        <ele>696.23</ele>
        <time>2022-10-08T09:49:44Z</time>
      </trkpt>
      <trkpt lat="44.50574" lon="6.16027">
        <ele>693.62</ele>
        <time>2022-10-08T09:49:53Z</time>
      </trkpt>
      <trkpt lat="44.50616" lon="6.16058">
        <ele>692.38</ele>
        <time>2022-10-08T09:49:56Z</time>
      </trkpt>
      <trkpt lat="44.50798" lon="6.16197">
        <ele>692.5</ele>
        <time>2022-10-08T09:50:09Z</time>
      </trkpt>
      <trkpt lat="44.5084" lon="6.16226">
        <ele>696.06</ele>
        <time>2022-10-08T09:50:13Z</time>
      </trkpt>
      <trkpt lat="44.50865" lon="6.16245">
        <ele>697.09</ele>
        <time>2022-10-08T09:50:15Z</time>
      </trkpt>
      <trkpt lat="44.50916" lon="6.16284">
        <ele>698.58</ele>
        <time>2022-10-08T09:50:19Z</time>
      </trkpt>
      <trkpt lat="44.51009" lon="6.16364">
        <ele>698.68</ele>
        <time>2022-10-08T09:50:27Z</time>
      </trkpt>
      <trkpt lat="44.51123" lon="6.16473">
        <ele>701.37</ele>
        <time>2022-10-08T09:50:35Z</time>
      </trkpt>
      <trkpt lat="44.51142" lon="6.16491">
        <ele>704.76</ele>
        <time>2022-10-08T09:50:36Z</time>
      </trkpt>
      <trkpt lat="44.51162" lon="6.16511">
        <ele>704.65</ele>
        <time>2022-10-08T09:50:37Z</time>
      </trkpt>
      <trkpt lat="44.51222" lon="6.16572">
        <ele>706.51</ele>
        <time>2022-10-08T09:50:40Z</time>
      </trkpt>
      <trkpt lat="44.51477" lon="6.16817">
        <ele>710.39</ele>
        <time>2022-10-08T09:50:53Z</time>
      </trkpt>
      <trkpt lat="44.51532" lon="6.1687">
        <ele>712.43</ele>
        <time>2022-10-08T09:50:56Z</time>
      </trkpt>
      <trkpt lat="44.51569" lon="6.16906">
        <ele>714.05</ele>
        <time>2022-10-08T09:50:58Z</time>
      </trkpt>
      <trkpt lat="44.51623" lon="6.16959">
        <ele>717.68</ele>
        <time>2022-10-08T09:51:01Z</time>
      </trkpt>
      <trkpt lat="44.51641" lon="6.16976">
        <ele>717.63</ele>
        <time>2022-10-08T09:51:02Z</time>
      </trkpt>
      <trkpt lat="44.51695" lon="6.17027">
        <ele>721.08</ele>
        <time>2022-10-08T09:51:05Z</time>
      </trkpt>
      <trkpt lat="44.51732" lon="6.17055">
        <ele>721.94</ele>
        <time>2022-10-08T09:51:07Z</time>
      </trkpt>
      <trkpt lat="44.51752" lon="6.17066">
        <ele>722.03</ele>
        <time>2022-10-08T09:51:08Z</time>
      </trkpt>
      <trkpt lat="44.51772" lon="6.17075">
        <ele>723.57</ele>
        <time>2022-10-08T09:51:09Z</time>
      </trkpt>
      <trkpt lat="44.51792" lon="6.17081">
        <ele>723.67</ele>
        <time>2022-10-08T09:51:10Z</time>
      </trkpt>
      <trkpt lat="44.51916" lon="6.17118">
        <ele>725.27</ele>
        <time>2022-10-08T09:51:16Z</time>
      </trkpt>
      <trkpt lat="44.5209" lon="6.17231">
        <ele>727.53</ele>
        <time>2022-10-08T09:51:25Z</time>
      </trkpt>
      <trkpt lat="44.52232" lon="6.17389">
        <ele>730.75</ele>
        <time>2022-10-08T09:51:33Z</time>
      </trkpt>
      <trkpt lat="44.5239" lon="6.17602">
        <ele>730.79</ele>
        <time>2022-10-08T09:51:43Z</time>
      </trkpt>
      <trkpt lat="44.5258" lon="6.1778">
        <ele>728.39</ele>
        <time>2022-10-08T09:51:53Z</time>
      </trkpt>
      <trkpt lat="44.52675" lon="6.17879">
        <ele>727.7</ele>
        <time>2022-10-08T09:51:59Z</time>
      </trkpt>
      <trkpt lat="44.52686" lon="6.179">
        <ele>727.69</ele>
        <time>2022-10-08T09:52:00Z</time>
      </trkpt>
      <trkpt lat="44.52696" lon="6.17923">
        <ele>727.69</ele>
        <time>2022-10-08T09:52:01Z</time>
      </trkpt>
      <trkpt lat="44.52707" lon="6.17946">
        <ele>727.7</ele>
        <time>2022-10-08T09:52:02Z</time>
      </trkpt>
      <trkpt lat="44.52719" lon="6.17967">
        <ele>727.71</ele>
        <time>2022-10-08T09:52:03Z</time>
      </trkpt>
      <trkpt lat="44.52733" lon="6.17986">
        <ele>730.23</ele>
        <time>2022-10-08T09:52:04Z</time>
      </trkpt>
      <trkpt lat="44.52748" lon="6.18003">
        <ele>730.24</ele>
        <time>2022-10-08T09:52:05Z</time>
      </trkpt>
      <trkpt lat="44.52765" lon="6.18017">
        <ele>731.37</ele>
        <time>2022-10-08T09:52:06Z</time>
      </trkpt>
      <trkpt lat="44.52783" lon="6.18028">
        <ele>731.39</ele>
        <time>2022-10-08T09:52:07Z</time>
      </trkpt>
      <trkpt lat="44.52801" lon="6.18038">
        <ele>731.4</ele>
        <time>2022-10-08T09:52:08Z</time>
      </trkpt>
      <trkpt lat="44.52838" lon="6.1806">
        <ele>731.41</ele>
        <time>2022-10-08T09:52:10Z</time>
      </trkpt>
      <trkpt lat="44.52855" lon="6.18073">
        <ele>731.42</ele>
        <time>2022-10-08T09:52:11Z</time>
      </trkpt>
      <trkpt lat="44.5287" lon="6.18087">
        <ele>731.42</ele>
        <time>2022-10-08T09:52:12Z</time>
      </trkpt>
      <trkpt lat="44.52883" lon="6.18103">
        <ele>731.43</ele>
        <time>2022-10-08T09:52:13Z</time>
      </trkpt>
      <trkpt lat="44.52895" lon="6.18119">
        <ele>731.45</ele>
        <time>2022-10-08T09:52:14Z</time>
      </trkpt>
      <trkpt lat="44.52905" lon="6.18135">
        <ele>731.45</ele>
        <time>2022-10-08T09:52:15Z</time>
      </trkpt>
      <trkpt lat="44.52914" lon="6.18152">
        <ele>731.48</ele>
        <time>2022-10-08T09:52:16Z</time>
      </trkpt>
      <trkpt lat="44.52955" lon="6.18243">
        <ele>734.04</ele>
        <time>2022-10-08T09:52:21Z</time>
      </trkpt>
      <trkpt lat="44.53003" lon="6.18336">
        <ele>736.64</ele>
        <time>2022-10-08T09:52:26Z</time>
      </trkpt>
      <trkpt lat="44.53015" lon="6.18351">
        <ele>736.67</ele>
        <time>2022-10-08T09:52:27Z</time>
      </trkpt>
      <trkpt lat="44.53028" lon="6.18365">
        <ele>737.81</ele>
        <time>2022-10-08T09:52:28Z</time>
      </trkpt>
      <trkpt lat="44.53043" lon="6.18378">
        <ele>738.65</ele>
        <time>2022-10-08T09:52:29Z</time>
      </trkpt>
      <trkpt lat="44.53061" lon="6.1839">
        <ele>740.13</ele>
        <time>2022-10-08T09:52:30Z</time>
      </trkpt>
      <trkpt lat="44.53119" lon="6.18434">
        <ele>742.68</ele>
        <time>2022-10-08T09:52:33Z</time>
      </trkpt>
      <trkpt lat="44.53251" lon="6.18569">
        <ele>742.69</ele>
        <time>2022-10-08T09:52:41Z</time>
      </trkpt>
      <trkpt lat="44.53458" lon="6.18787">
        <ele>742.54</ele>
        <time>2022-10-08T09:52:55Z</time>
      </trkpt>
      <trkpt lat="44.53484" lon="6.18811">
        <ele>740.25</ele>
        <time>2022-10-08T09:52:57Z</time>
      </trkpt>
      <trkpt lat="44.53656" lon="6.18948">
        <ele>740.26</ele>
        <time>2022-10-08T09:53:09Z</time>
      </trkpt>
      <trkpt lat="44.53792" lon="6.19103">
        <ele>740.45</ele>
        <time>2022-10-08T09:53:19Z</time>
      </trkpt>
      <trkpt lat="44.53827" lon="6.19156">
        <ele>742.91</ele>
        <time>2022-10-08T09:53:22Z</time>
      </trkpt>
      <trkpt lat="44.53894" lon="6.19248">
        <ele>746.19</ele>
        <time>2022-10-08T09:53:28Z</time>
      </trkpt>
      <trkpt lat="44.53907" lon="6.1926">
        <ele>746.25</ele>
        <time>2022-10-08T09:53:29Z</time>
      </trkpt>
      <trkpt lat="44.53936" lon="6.19281">
        <ele>747.96</ele>
        <time>2022-10-08T09:53:31Z</time>
      </trkpt>
      <trkpt lat="44.54" lon="6.1931">
        <ele>749.71</ele>
        <time>2022-10-08T09:53:35Z</time>
      </trkpt>
      <trkpt lat="44.54095" lon="6.19355">
        <ele>749.43</ele>
        <time>2022-10-08T09:53:41Z</time>
      </trkpt>
      <trkpt lat="44.5411" lon="6.19368">
        <ele>750.3</ele>
        <time>2022-10-08T09:53:42Z</time>
      </trkpt>
      <trkpt lat="44.54125" lon="6.19383">
        <ele>750.34</ele>
        <time>2022-10-08T09:53:43Z</time>
      </trkpt>
      <trkpt lat="44.54138" lon="6.194">
        <ele>750.35</ele>
        <time>2022-10-08T09:53:44Z</time>
      </trkpt>
      <trkpt lat="44.54151" lon="6.19418">
        <ele>751.53</ele>
        <time>2022-10-08T09:53:45Z</time>
      </trkpt>
      <trkpt lat="44.54164" lon="6.19438">
        <ele>751.54</ele>
        <time>2022-10-08T09:53:46Z</time>
      </trkpt>
      <trkpt lat="44.54175" lon="6.19457">
        <ele>751.53</ele>
        <time>2022-10-08T09:53:47Z</time>
      </trkpt>
      <trkpt lat="44.54318" lon="6.19675">
        <ele>753.52</ele>
        <time>2022-10-08T09:53:59Z</time>
      </trkpt>
      <trkpt lat="44.54365" lon="6.19706">
        <ele>756.26</ele>
        <time>2022-10-08T09:54:02Z</time>
      </trkpt>
      <trkpt lat="44.5443" lon="6.19734">
        <ele>758.24</ele>
        <time>2022-10-08T09:54:06Z</time>
      </trkpt>
      <trkpt lat="44.54534" lon="6.19818">
        <ele>761.01</ele>
        <time>2022-10-08T09:54:13Z</time>
      </trkpt>
      <trkpt lat="44.54745" lon="6.19986">
        <ele>763.16</ele>
        <time>2022-10-08T09:54:26Z</time>
      </trkpt>
      <trkpt lat="44.54777" lon="6.2001">
        <ele>764.41</ele>
        <time>2022-10-08T09:54:28Z</time>
      </trkpt>
      <trkpt lat="44.54967" lon="6.20152">
        <ele>768.12</ele>
        <time>2022-10-08T09:54:40Z</time>
      </trkpt>
      <trkpt lat="44.55036" lon="6.20221">
        <ele>769.03</ele>
        <time>2022-10-08T09:54:45Z</time>
      </trkpt>
      <trkpt lat="44.55048" lon="6.2024">
        <ele>769.03</ele>
        <time>2022-10-08T09:54:46Z</time>
      </trkpt>
      <trkpt lat="44.55059" lon="6.2026">
        <ele>769.9</ele>
        <time>2022-10-08T09:54:47Z</time>
      </trkpt>
      <trkpt lat="44.55138" lon="6.20429">
        <ele>771.63</ele>
        <time>2022-10-08T09:54:55Z</time>
      </trkpt>
      <trkpt lat="44.55168" lon="6.20495">
        <ele>773.4</ele>
        <time>2022-10-08T09:54:58Z</time>
      </trkpt>
      <trkpt lat="44.55219" lon="6.20609">
        <ele>776.62</ele>
        <time>2022-10-08T09:55:03Z</time>
      </trkpt>
      <trkpt lat="44.55269" lon="6.20743">
        <ele>778.93</ele>
        <time>2022-10-08T09:55:09Z</time>
      </trkpt>
      <trkpt lat="44.55284" lon="6.2079">
        <ele>780.2</ele>
        <time>2022-10-08T09:55:11Z</time>
      </trkpt>
      <trkpt lat="44.55322" lon="6.20939">
        <ele>783.03</ele>
        <time>2022-10-08T09:55:17Z</time>
      </trkpt>
      <trkpt lat="44.55358" lon="6.2109">
        <ele>786.38</ele>
        <time>2022-10-08T09:55:23Z</time>
      </trkpt>
      <trkpt lat="44.55363" lon="6.21116">
        <ele>786.38</ele>
        <time>2022-10-08T09:55:24Z</time>
      </trkpt>
      <trkpt lat="44.55454" lon="6.21474">
        <ele>786.51</ele>
        <time>2022-10-08T09:55:38Z</time>
      </trkpt>
      <trkpt lat="44.55559" lon="6.21668">
        <ele>787.5</ele>
        <time>2022-10-08T09:55:47Z</time>
      </trkpt>
      <trkpt lat="44.5569" lon="6.21829">
        <ele>787.59</ele>
        <time>2022-10-08T09:55:57Z</time>
      </trkpt>
      <trkpt lat="44.55837" lon="6.22002">
        <ele>787.8</ele>
        <time>2022-10-08T09:56:10Z</time>
      </trkpt>
      <trkpt lat="44.55882" lon="6.22058">
        <ele>787.79</ele>
        <time>2022-10-08T09:56:17Z</time>
      </trkpt>
      <trkpt lat="44.55902" lon="6.22085">
        <ele>787.87</ele>
        <time>2022-10-08T09:56:26Z</time>
      </trkpt>
      <trkpt lat="44.55902" lon="6.22085">
        <ele>788.87</ele>
        <time>2022-10-08T09:56:46Z</time>
      </trkpt>
      <trkpt lat="44.55908" lon="6.22097">
        <ele>788.89</ele>
        <time>2022-10-08T09:56:49Z</time>
      </trkpt>
      <trkpt lat="44.55909" lon="6.22103">
        <ele>788.89</ele>
        <time>2022-10-08T09:56:50Z</time>
      </trkpt>
      <trkpt lat="44.55909" lon="6.2211">
        <ele>788.89</ele>
        <time>2022-10-08T09:56:51Z</time>
      </trkpt>
      <trkpt lat="44.55909" lon="6.22117">
        <ele>788.87</ele>
        <time>2022-10-08T09:56:52Z</time>
      </trkpt>
      <trkpt lat="44.55907" lon="6.22125">
        <ele>788.89</ele>
        <time>2022-10-08T09:56:53Z</time>
      </trkpt>
      <trkpt lat="44.55892" lon="6.22229">
        <ele>788.99</ele>
        <time>2022-10-08T09:57:01Z</time>
      </trkpt>
      <trkpt lat="44.55869" lon="6.22385">
        <ele>786.39</ele>
        <time>2022-10-08T09:57:09Z</time>
      </trkpt>
      <trkpt lat="44.55832" lon="6.22652">
        <ele>786.51</ele>
        <time>2022-10-08T09:57:20Z</time>
      </trkpt>
      <trkpt lat="44.55814" lon="6.22784">
        <ele>789.04</ele>
        <time>2022-10-08T09:57:25Z</time>
      </trkpt>
      <trkpt lat="44.55787" lon="6.22972">
        <ele>791.1</ele>
        <time>2022-10-08T09:57:32Z</time>
      </trkpt>
      <trkpt lat="44.55742" lon="6.23302">
        <ele>792.91</ele>
        <time>2022-10-08T09:57:45Z</time>
      </trkpt>
      <trkpt lat="44.55735" lon="6.2335">
        <ele>794.27</ele>
        <time>2022-10-08T09:57:47Z</time>
      </trkpt>
      <trkpt lat="44.5571" lon="6.23532">
        <ele>797.61</ele>
        <time>2022-10-08T09:57:55Z</time>
      </trkpt>
      <trkpt lat="44.55706" lon="6.23557">
        <ele>797.61</ele>
        <time>2022-10-08T09:57:56Z</time>
      </trkpt>
      <trkpt lat="44.55687" lon="6.23677">
        <ele>800.78</ele>
        <time>2022-10-08T09:58:01Z</time>
      </trkpt>
      <trkpt lat="44.55676" lon="6.23725">
        <ele>801.6</ele>
        <time>2022-10-08T09:58:03Z</time>
      </trkpt>
      <trkpt lat="44.55656" lon="6.23795">
        <ele>803.69</ele>
        <time>2022-10-08T09:58:06Z</time>
      </trkpt>
      <trkpt lat="44.55631" lon="6.23868">
        <ele>805.61</ele>
        <time>2022-10-08T09:58:09Z</time>
      </trkpt>
      <trkpt lat="44.55611" lon="6.23914">
        <ele>806.79</ele>
        <time>2022-10-08T09:58:11Z</time>
      </trkpt>
      <trkpt lat="44.55537" lon="6.24028">
        <ele>810.19</ele>
        <time>2022-10-08T09:58:17Z</time>
      </trkpt>
      <trkpt lat="44.55495" lon="6.24086">
        <ele>811.89</ele>
        <time>2022-10-08T09:58:20Z</time>
      </trkpt>
      <trkpt lat="44.55467" lon="6.24126">
        <ele>813.81</ele>
        <time>2022-10-08T09:58:22Z</time>
      </trkpt>
      <trkpt lat="44.55438" lon="6.24164">
        <ele>815.17</ele>
        <time>2022-10-08T09:58:24Z</time>
      </trkpt>
      <trkpt lat="44.55398" lon="6.2422">
        <ele>816.39</ele>
        <time>2022-10-08T09:58:27Z</time>
      </trkpt>
      <trkpt lat="44.55373" lon="6.24259">
        <ele>818.2</ele>
        <time>2022-10-08T09:58:29Z</time>
      </trkpt>
      <trkpt lat="44.55349" lon="6.24302">
        <ele>819.55</ele>
        <time>2022-10-08T09:58:31Z</time>
      </trkpt>
      <trkpt lat="44.55327" lon="6.24346">
        <ele>820.98</ele>
        <time>2022-10-08T09:58:33Z</time>
      </trkpt>
      <trkpt lat="44.553" lon="6.24416">
        <ele>822.74</ele>
        <time>2022-10-08T09:58:36Z</time>
      </trkpt>
      <trkpt lat="44.55254" lon="6.24593">
        <ele>825.97</ele>
        <time>2022-10-08T09:58:43Z</time>
      </trkpt>
      <trkpt lat="44.55229" lon="6.24696">
        <ele>827.44</ele>
        <time>2022-10-08T09:58:47Z</time>
      </trkpt>
      <trkpt lat="44.55217" lon="6.24749">
        <ele>828.96</ele>
        <time>2022-10-08T09:58:49Z</time>
      </trkpt>
      <trkpt lat="44.55198" lon="6.2483">
        <ele>832.82</ele>
        <time>2022-10-08T09:58:52Z</time>
      </trkpt>
      <trkpt lat="44.55193" lon="6.24857">
        <ele>832.81</ele>
        <time>2022-10-08T09:58:53Z</time>
      </trkpt>
      <trkpt lat="44.55182" lon="6.24936">
        <ele>834.6</ele>
        <time>2022-10-08T09:58:56Z</time>
      </trkpt>
      <trkpt lat="44.5518" lon="6.24986">
        <ele>836.17</ele>
        <time>2022-10-08T09:58:58Z</time>
      </trkpt>
      <trkpt lat="44.55177" lon="6.25034">
        <ele>837.89</ele>
        <time>2022-10-08T09:59:00Z</time>
      </trkpt>
      <trkpt lat="44.55174" lon="6.2508">
        <ele>839.16</ele>
        <time>2022-10-08T09:59:02Z</time>
      </trkpt>
      <trkpt lat="44.55164" lon="6.25285">
        <ele>842.91</ele>
        <time>2022-10-08T09:59:11Z</time>
      </trkpt>
      <trkpt lat="44.5516" lon="6.25381">
        <ele>844.36</ele>
        <time>2022-10-08T09:59:15Z</time>
      </trkpt>
      <trkpt lat="44.55152" lon="6.25551">
        <ele>844.49</ele>
        <time>2022-10-08T09:59:23Z</time>
      </trkpt>
      <trkpt lat="44.55136" lon="6.25799">
        <ele>845.48</ele>
        <time>2022-10-08T09:59:33Z</time>
      </trkpt>
      <trkpt lat="44.5508" lon="6.25997">
        <ele>845.56</ele>
        <time>2022-10-08T09:59:41Z</time>
      </trkpt>
      <trkpt lat="44.55049" lon="6.2609">
        <ele>849.41</ele>
        <time>2022-10-08T09:59:44Z</time>
      </trkpt>
      <trkpt lat="44.55037" lon="6.26125">
        <ele>849.35</ele>
        <time>2022-10-08T09:59:45Z</time>
      </trkpt>
      <trkpt lat="44.54941" lon="6.26397">
        <ele>846.69</ele>
        <time>2022-10-08T09:59:53Z</time>
      </trkpt>
      <trkpt lat="44.54833" lon="6.26713">
        <ele>843.18</ele>
        <time>2022-10-08T10:00:04Z</time>
      </trkpt>
      <trkpt lat="44.54762" lon="6.26922">
        <ele>842.08</ele>
        <time>2022-10-08T10:00:14Z</time>
      </trkpt>
      <trkpt lat="44.54737" lon="6.26993">
        <ele>841.04</ele>
        <time>2022-10-08T10:00:20Z</time>
      </trkpt>
      <trkpt lat="44.54704" lon="6.27081">
        <ele>843.68</ele>
        <time>2022-10-08T10:00:27Z</time>
      </trkpt>
      <trkpt lat="44.54698" lon="6.27094">
        <ele>843.7</ele>
        <time>2022-10-08T10:00:28Z</time>
      </trkpt>
      <trkpt lat="44.54661" lon="6.27163">
        <ele>843.78</ele>
        <time>2022-10-08T10:00:34Z</time>
      </trkpt>
      <trkpt lat="44.54653" lon="6.27169">
        <ele>843.79</ele>
        <time>2022-10-08T10:00:35Z</time>
      </trkpt>
      <trkpt lat="44.54646" lon="6.27173">
        <ele>843.8</ele>
        <time>2022-10-08T10:00:36Z</time>
      </trkpt>
      <trkpt lat="44.54638" lon="6.27177">
        <ele>843.79</ele>
        <time>2022-10-08T10:00:37Z</time>
      </trkpt>
      <trkpt lat="44.54632" lon="6.27182">
        <ele>843.79</ele>
        <time>2022-10-08T10:00:38Z</time>
      </trkpt>
      <trkpt lat="44.54628" lon="6.27191">
        <ele>843.79</ele>
        <time>2022-10-08T10:00:39Z</time>
      </trkpt>
      <trkpt lat="44.54627" lon="6.27202">
        <ele>843.83</ele>
        <time>2022-10-08T10:00:40Z</time>
      </trkpt>
      <trkpt lat="44.54625" lon="6.27215">
        <ele>843.85</ele>
        <time>2022-10-08T10:00:41Z</time>
      </trkpt>
      <trkpt lat="44.54621" lon="6.27229">
        <ele>844.79</ele>
        <time>2022-10-08T10:00:42Z</time>
      </trkpt>
      <trkpt lat="44.54615" lon="6.27241">
        <ele>844.86</ele>
        <time>2022-10-08T10:00:43Z</time>
      </trkpt>
      <trkpt lat="44.54609" lon="6.27254">
        <ele>844.89</ele>
        <time>2022-10-08T10:00:44Z</time>
      </trkpt>
      <trkpt lat="44.54576" lon="6.27311">
        <ele>848.98</ele>
        <time>2022-10-08T10:00:48Z</time>
      </trkpt>
      <trkpt lat="44.54564" lon="6.27328">
        <ele>849.23</ele>
        <time>2022-10-08T10:00:49Z</time>
      </trkpt>
      <trkpt lat="44.54536" lon="6.27362">
        <ele>850.3</ele>
        <time>2022-10-08T10:00:51Z</time>
      </trkpt>
      <trkpt lat="44.54389" lon="6.27488">
        <ele>850.16</ele>
        <time>2022-10-08T10:01:00Z</time>
      </trkpt>
      <trkpt lat="44.5432" lon="6.27538">
        <ele>847.74</ele>
        <time>2022-10-08T10:01:04Z</time>
      </trkpt>
      <trkpt lat="44.54252" lon="6.27601">
        <ele>844.64</ele>
        <time>2022-10-08T10:01:08Z</time>
      </trkpt>
      <trkpt lat="44.54236" lon="6.27621">
        <ele>844.43</ele>
        <time>2022-10-08T10:01:09Z</time>
      </trkpt>
      <trkpt lat="44.54146" lon="6.27789">
        <ele>842.44</ele>
        <time>2022-10-08T10:01:16Z</time>
      </trkpt>
      <trkpt lat="44.54111" lon="6.27992">
        <ele>846.24</ele>
        <time>2022-10-08T10:01:23Z</time>
      </trkpt>
      <trkpt lat="44.5411" lon="6.28022">
        <ele>846.24</ele>
        <time>2022-10-08T10:01:24Z</time>
      </trkpt>
      <trkpt lat="44.54113" lon="6.28082">
        <ele>849.97</ele>
        <time>2022-10-08T10:01:26Z</time>
      </trkpt>
      <trkpt lat="44.54119" lon="6.28143">
        <ele>851.19</ele>
        <time>2022-10-08T10:01:28Z</time>
      </trkpt>
      <trkpt lat="44.54125" lon="6.28203">
        <ele>854.26</ele>
        <time>2022-10-08T10:01:30Z</time>
      </trkpt>
      <trkpt lat="44.54128" lon="6.28232">
        <ele>854.34</ele>
        <time>2022-10-08T10:01:31Z</time>
      </trkpt>
      <trkpt lat="44.54133" lon="6.2829">
        <ele>856.49</ele>
        <time>2022-10-08T10:01:33Z</time>
      </trkpt>
      <trkpt lat="44.54137" lon="6.28348">
        <ele>859.55</ele>
        <time>2022-10-08T10:01:35Z</time>
      </trkpt>
      <trkpt lat="44.54136" lon="6.28406">
        <ele>860.82</ele>
        <time>2022-10-08T10:01:37Z</time>
      </trkpt>
      <trkpt lat="44.54131" lon="6.28463">
        <ele>862.18</ele>
        <time>2022-10-08T10:01:39Z</time>
      </trkpt>
      <trkpt lat="44.54114" lon="6.28549">
        <ele>865.73</ele>
        <time>2022-10-08T10:01:42Z</time>
      </trkpt>
      <trkpt lat="44.54106" lon="6.28577">
        <ele>865.73</ele>
        <time>2022-10-08T10:01:43Z</time>
      </trkpt>
      <trkpt lat="44.54086" lon="6.28632">
        <ele>867.25</ele>
        <time>2022-10-08T10:01:45Z</time>
      </trkpt>
      <trkpt lat="44.53995" lon="6.28808">
        <ele>869.61</ele>
        <time>2022-10-08T10:01:53Z</time>
      </trkpt>
      <trkpt lat="44.53983" lon="6.2883">
        <ele>869.59</ele>
        <time>2022-10-08T10:01:54Z</time>
      </trkpt>
      <trkpt lat="44.53946" lon="6.28897">
        <ele>870.83</ele>
        <time>2022-10-08T10:01:57Z</time>
      </trkpt>
      <trkpt lat="44.53868" lon="6.29097">
        <ele>872.41</ele>
        <time>2022-10-08T10:02:05Z</time>
      </trkpt>
      <trkpt lat="44.53851" lon="6.29216">
        <ele>869.12</ele>
        <time>2022-10-08T10:02:09Z</time>
      </trkpt>
      <trkpt lat="44.53844" lon="6.29301">
        <ele>867.15</ele>
        <time>2022-10-08T10:02:12Z</time>
      </trkpt>
      <trkpt lat="44.53839" lon="6.29358">
        <ele>865.87</ele>
        <time>2022-10-08T10:02:14Z</time>
      </trkpt>
      <trkpt lat="44.53816" lon="6.29588">
        <ele>863.04</ele>
        <time>2022-10-08T10:02:21Z</time>
      </trkpt>
      <trkpt lat="44.5381" lon="6.29618">
        <ele>863.04</ele>
        <time>2022-10-08T10:02:22Z</time>
      </trkpt>
      <trkpt lat="44.53793" lon="6.29674">
        <ele>861.77</ele>
        <time>2022-10-08T10:02:24Z</time>
      </trkpt>
      <trkpt lat="44.5376" lon="6.29752">
        <ele>859.9</ele>
        <time>2022-10-08T10:02:27Z</time>
      </trkpt>
      <trkpt lat="44.53653" lon="6.29891">
        <ele>857.79</ele>
        <time>2022-10-08T10:02:34Z</time>
      </trkpt>
      <trkpt lat="44.5352" lon="6.30066">
        <ele>860.67</ele>
        <time>2022-10-08T10:02:43Z</time>
      </trkpt>
      <trkpt lat="44.53489" lon="6.30148">
        <ele>862.5</ele>
        <time>2022-10-08T10:02:46Z</time>
      </trkpt>
      <trkpt lat="44.53458" lon="6.3024">
        <ele>864.58</ele>
        <time>2022-10-08T10:02:49Z</time>
      </trkpt>
      <trkpt lat="44.53348" lon="6.3056">
        <ele>864.56</ele>
        <time>2022-10-08T10:03:00Z</time>
      </trkpt>
      <trkpt lat="44.5332" lon="6.30644">
        <ele>861.34</ele>
        <time>2022-10-08T10:03:03Z</time>
      </trkpt>
      <trkpt lat="44.5331" lon="6.30672">
        <ele>861.28</ele>
        <time>2022-10-08T10:03:04Z</time>
      </trkpt>
      <trkpt lat="44.53282" lon="6.30757">
        <ele>858.42</ele>
        <time>2022-10-08T10:03:07Z</time>
      </trkpt>
      <trkpt lat="44.53263" lon="6.30815">
        <ele>856.72</ele>
        <time>2022-10-08T10:03:09Z</time>
      </trkpt>
      <trkpt lat="44.53224" lon="6.30929">
        <ele>852.58</ele>
        <time>2022-10-08T10:03:13Z</time>
      </trkpt>
      <trkpt lat="44.53205" lon="6.30985">
        <ele>851.74</ele>
        <time>2022-10-08T10:03:15Z</time>
      </trkpt>
      <trkpt lat="44.53083" lon="6.3135">
        <ele>853.62</ele>
        <time>2022-10-08T10:03:28Z</time>
      </trkpt>
      <trkpt lat="44.52986" lon="6.31634">
        <ele>851.16</ele>
        <time>2022-10-08T10:03:38Z</time>
      </trkpt>
      <trkpt lat="44.52958" lon="6.31719">
        <ele>849.09</ele>
        <time>2022-10-08T10:03:41Z</time>
      </trkpt>
      <trkpt lat="44.52932" lon="6.31807">
        <ele>847.14</ele>
        <time>2022-10-08T10:03:44Z</time>
      </trkpt>
      <trkpt lat="44.52927" lon="6.31838">
        <ele>846.15</ele>
        <time>2022-10-08T10:03:45Z</time>
      </trkpt>
      <trkpt lat="44.52924" lon="6.3187">
        <ele>844.97</ele>
        <time>2022-10-08T10:03:46Z</time>
      </trkpt>
      <trkpt lat="44.52923" lon="6.31902">
        <ele>843.83</ele>
        <time>2022-10-08T10:03:47Z</time>
      </trkpt>
      <trkpt lat="44.52923" lon="6.31934">
        <ele>843.79</ele>
        <time>2022-10-08T10:03:48Z</time>
      </trkpt>
      <trkpt lat="44.52926" lon="6.31966">
        <ele>841.67</ele>
        <time>2022-10-08T10:03:49Z</time>
      </trkpt>
      <trkpt lat="44.52931" lon="6.31998">
        <ele>841.61</ele>
        <time>2022-10-08T10:03:50Z</time>
      </trkpt>
      <trkpt lat="44.52938" lon="6.3203">
        <ele>839.8</ele>
        <time>2022-10-08T10:03:51Z</time>
      </trkpt>
      <trkpt lat="44.52947" lon="6.32061">
        <ele>838.38</ele>
        <time>2022-10-08T10:03:52Z</time>
      </trkpt>
      <trkpt lat="44.52958" lon="6.3209">
        <ele>838.37</ele>
        <time>2022-10-08T10:03:53Z</time>
      </trkpt>
      <trkpt lat="44.5297" lon="6.32119">
        <ele>836</ele>
        <time>2022-10-08T10:03:54Z</time>
      </trkpt>
      <trkpt lat="44.52984" lon="6.32146">
        <ele>834.71</ele>
        <time>2022-10-08T10:03:55Z</time>
      </trkpt>
      <trkpt lat="44.5303" lon="6.32226">
        <ele>830.82</ele>
        <time>2022-10-08T10:03:58Z</time>
      </trkpt>
      <trkpt lat="44.53046" lon="6.32251">
        <ele>830.7</ele>
        <time>2022-10-08T10:03:59Z</time>
      </trkpt>
      <trkpt lat="44.53077" lon="6.32302">
        <ele>826.92</ele>
        <time>2022-10-08T10:04:01Z</time>
      </trkpt>
      <trkpt lat="44.53121" lon="6.32377">
        <ele>822.82</ele>
        <time>2022-10-08T10:04:04Z</time>
      </trkpt>
      <trkpt lat="44.53159" lon="6.32458">
        <ele>819.03</ele>
        <time>2022-10-08T10:04:07Z</time>
      </trkpt>
      <trkpt lat="44.53168" lon="6.32487">
        <ele>817.57</ele>
        <time>2022-10-08T10:04:08Z</time>
      </trkpt>
      <trkpt lat="44.53174" lon="6.32517">
        <ele>816.34</ele>
        <time>2022-10-08T10:04:09Z</time>
      </trkpt>
      <trkpt lat="44.53179" lon="6.32548">
        <ele>815.07</ele>
        <time>2022-10-08T10:04:10Z</time>
      </trkpt>
      <trkpt lat="44.53182" lon="6.3258">
        <ele>814.99</ele>
        <time>2022-10-08T10:04:11Z</time>
      </trkpt>
      <trkpt lat="44.53183" lon="6.32611">
        <ele>813.57</ele>
        <time>2022-10-08T10:04:12Z</time>
      </trkpt>
      <trkpt lat="44.53182" lon="6.32642">
        <ele>813.58</ele>
        <time>2022-10-08T10:04:13Z</time>
      </trkpt>
      <trkpt lat="44.53178" lon="6.32673">
        <ele>812.75</ele>
        <time>2022-10-08T10:04:14Z</time>
      </trkpt>
      <trkpt lat="44.53174" lon="6.32704">
        <ele>812.78</ele>
        <time>2022-10-08T10:04:15Z</time>
      </trkpt>
      <trkpt lat="44.53167" lon="6.32734">
        <ele>812.72</ele>
        <time>2022-10-08T10:04:16Z</time>
      </trkpt>
      <trkpt lat="44.5316" lon="6.32764">
        <ele>812.82</ele>
        <time>2022-10-08T10:04:17Z</time>
      </trkpt>
      <trkpt lat="44.53046" lon="6.33177">
        <ele>812.56</ele>
        <time>2022-10-08T10:04:31Z</time>
      </trkpt>
      <trkpt lat="44.52967" lon="6.33357">
        <ele>810.6</ele>
        <time>2022-10-08T10:04:38Z</time>
      </trkpt>
      <trkpt lat="44.5286" lon="6.33466">
        <ele>810.71</ele>
        <time>2022-10-08T10:04:44Z</time>
      </trkpt>
      <trkpt lat="44.52684" lon="6.33648">
        <ele>809.92</ele>
        <time>2022-10-08T10:04:54Z</time>
      </trkpt>
      <trkpt lat="44.52572" lon="6.33873">
        <ele>812.62</ele>
        <time>2022-10-08T10:05:03Z</time>
      </trkpt>
      <trkpt lat="44.524" lon="6.34253">
        <ele>816.44</ele>
        <time>2022-10-08T10:05:18Z</time>
      </trkpt>
      <trkpt lat="44.52367" lon="6.34454">
        <ele>817.34</ele>
        <time>2022-10-08T10:05:25Z</time>
      </trkpt>
      <trkpt lat="44.52393" lon="6.34664">
        <ele>817.29</ele>
        <time>2022-10-08T10:05:32Z</time>
      </trkpt>
      <trkpt lat="44.52472" lon="6.34888">
        <ele>813.42</ele>
        <time>2022-10-08T10:05:40Z</time>
      </trkpt>
      <trkpt lat="44.52482" lon="6.34917">
        <ele>813.4</ele>
        <time>2022-10-08T10:05:41Z</time>
      </trkpt>
      <trkpt lat="44.52528" lon="6.35104">
        <ele>811.6</ele>
        <time>2022-10-08T10:05:47Z</time>
      </trkpt>
      <trkpt lat="44.52562" lon="6.353">
        <ele>808.46</ele>
        <time>2022-10-08T10:05:53Z</time>
      </trkpt>
      <trkpt lat="44.52579" lon="6.35394">
        <ele>806.74</ele>
        <time>2022-10-08T10:05:56Z</time>
      </trkpt>
      <trkpt lat="44.5259" lon="6.35456">
        <ele>805.55</ele>
        <time>2022-10-08T10:05:58Z</time>
      </trkpt>
      <trkpt lat="44.52631" lon="6.35637">
        <ele>801.89</ele>
        <time>2022-10-08T10:06:04Z</time>
      </trkpt>
      <trkpt lat="44.52641" lon="6.35665">
        <ele>801.84</ele>
        <time>2022-10-08T10:06:05Z</time>
      </trkpt>
      <trkpt lat="44.52707" lon="6.35792">
        <ele>798.25</ele>
        <time>2022-10-08T10:06:10Z</time>
      </trkpt>
      <trkpt lat="44.52723" lon="6.35814">
        <ele>798.25</ele>
        <time>2022-10-08T10:06:11Z</time>
      </trkpt>
      <trkpt lat="44.52831" lon="6.35926">
        <ele>794.53</ele>
        <time>2022-10-08T10:06:17Z</time>
      </trkpt>
      <trkpt lat="44.52849" lon="6.35945">
        <ele>794.47</ele>
        <time>2022-10-08T10:06:18Z</time>
      </trkpt>
      <trkpt lat="44.52865" lon="6.35967">
        <ele>794.48</ele>
        <time>2022-10-08T10:06:19Z</time>
      </trkpt>
      <trkpt lat="44.5288" lon="6.3599">
        <ele>793.53</ele>
        <time>2022-10-08T10:06:20Z</time>
      </trkpt>
      <trkpt lat="44.52893" lon="6.36015">
        <ele>793.55</ele>
        <time>2022-10-08T10:06:21Z</time>
      </trkpt>
      <trkpt lat="44.52905" lon="6.36041">
        <ele>792.35</ele>
        <time>2022-10-08T10:06:22Z</time>
      </trkpt>
      <trkpt lat="44.52915" lon="6.36068">
        <ele>792.34</ele>
        <time>2022-10-08T10:06:23Z</time>
      </trkpt>
      <trkpt lat="44.52924" lon="6.36097">
        <ele>792.3</ele>
        <time>2022-10-08T10:06:24Z</time>
      </trkpt>
      <trkpt lat="44.52931" lon="6.36126">
        <ele>791.49</ele>
        <time>2022-10-08T10:06:25Z</time>
      </trkpt>
      <trkpt lat="44.52936" lon="6.36155">
        <ele>791.44</ele>
        <time>2022-10-08T10:06:26Z</time>
      </trkpt>
      <trkpt lat="44.52939" lon="6.36185">
        <ele>790.9</ele>
        <time>2022-10-08T10:06:27Z</time>
      </trkpt>
      <trkpt lat="44.52956" lon="6.36314">
        <ele>788.5</ele>
        <time>2022-10-08T10:06:32Z</time>
      </trkpt>
      <trkpt lat="44.52974" lon="6.3645">
        <ele>786</ele>
        <time>2022-10-08T10:06:38Z</time>
      </trkpt>
      <trkpt lat="44.52993" lon="6.36586">
        <ele>783.2</ele>
        <time>2022-10-08T10:06:46Z</time>
      </trkpt>
      <trkpt lat="44.53001" lon="6.36644">
        <ele>780.71</ele>
        <time>2022-10-08T10:06:53Z</time>
      </trkpt>
      <trkpt lat="44.53" lon="6.36647">
        <ele>780.67</ele>
        <time>2022-10-08T10:07:03Z</time>
      </trkpt>
      <trkpt lat="44.53004" lon="6.36674">
        <ele>780.88</ele>
        <time>2022-10-08T10:07:13Z</time>
      </trkpt>
      <trkpt lat="44.53016" lon="6.36768">
        <ele>784.08</ele>
        <time>2022-10-08T10:07:18Z</time>
      </trkpt>
      <trkpt lat="44.53019" lon="6.3679">
        <ele>784.09</ele>
        <time>2022-10-08T10:07:19Z</time>
      </trkpt>
      <trkpt lat="44.53038" lon="6.36938">
        <ele>785.6</ele>
        <time>2022-10-08T10:07:25Z</time>
      </trkpt>
      <trkpt lat="44.53097" lon="6.37316">
        <ele>788.59</ele>
        <time>2022-10-08T10:07:39Z</time>
      </trkpt>
      <trkpt lat="44.53169" lon="6.37451">
        <ele>790.58</ele>
        <time>2022-10-08T10:07:45Z</time>
      </trkpt>
      <trkpt lat="44.53355" lon="6.37636">
        <ele>791.45</ele>
        <time>2022-10-08T10:07:56Z</time>
      </trkpt>
      <trkpt lat="44.53422" lon="6.37702">
        <ele>787.92</ele>
        <time>2022-10-08T10:08:00Z</time>
      </trkpt>
      <trkpt lat="44.53438" lon="6.37719">
        <ele>787.89</ele>
        <time>2022-10-08T10:08:01Z</time>
      </trkpt>
      <trkpt lat="44.53502" lon="6.37789">
        <ele>785.24</ele>
        <time>2022-10-08T10:08:05Z</time>
      </trkpt>
      <trkpt lat="44.53563" lon="6.37905">
        <ele>782.22</ele>
        <time>2022-10-08T10:08:10Z</time>
      </trkpt>
      <trkpt lat="44.53583" lon="6.37988">
        <ele>780.89</ele>
        <time>2022-10-08T10:08:13Z</time>
      </trkpt>
      <trkpt lat="44.53586" lon="6.38016">
        <ele>780.89</ele>
        <time>2022-10-08T10:08:14Z</time>
      </trkpt>
      <trkpt lat="44.53587" lon="6.38045">
        <ele>780.85</ele>
        <time>2022-10-08T10:08:15Z</time>
      </trkpt>
      <trkpt lat="44.53587" lon="6.38075">
        <ele>780.83</ele>
        <time>2022-10-08T10:08:16Z</time>
      </trkpt>
      <trkpt lat="44.53586" lon="6.38104">
        <ele>780.86</ele>
        <time>2022-10-08T10:08:17Z</time>
      </trkpt>
      <trkpt lat="44.5356" lon="6.38607">
        <ele>781</ele>
        <time>2022-10-08T10:08:34Z</time>
      </trkpt>
      <trkpt lat="44.53552" lon="6.39052">
        <ele>781.01</ele>
        <time>2022-10-08T10:08:50Z</time>
      </trkpt>
      <trkpt lat="44.53532" lon="6.3913">
        <ele>781.05</ele>
        <time>2022-10-08T10:08:53Z</time>
      </trkpt>
      <trkpt lat="44.53522" lon="6.39154">
        <ele>781.03</ele>
        <time>2022-10-08T10:08:54Z</time>
      </trkpt>
      <trkpt lat="44.5351" lon="6.39177">
        <ele>781.04</ele>
        <time>2022-10-08T10:08:55Z</time>
      </trkpt>
      <trkpt lat="44.53497" lon="6.392">
        <ele>781.04</ele>
        <time>2022-10-08T10:08:56Z</time>
      </trkpt>
      <trkpt lat="44.53484" lon="6.39221">
        <ele>781.01</ele>
        <time>2022-10-08T10:08:57Z</time>
      </trkpt>
      <trkpt lat="44.53469" lon="6.3924">
        <ele>781.02</ele>
        <time>2022-10-08T10:08:58Z</time>
      </trkpt>
      <trkpt lat="44.53453" lon="6.39259">
        <ele>781.01</ele>
        <time>2022-10-08T10:08:59Z</time>
      </trkpt>
      <trkpt lat="44.53436" lon="6.39276">
        <ele>781.01</ele>
        <time>2022-10-08T10:09:00Z</time>
      </trkpt>
      <trkpt lat="44.53073" lon="6.39634">
        <ele>779.88</ele>
        <time>2022-10-08T10:09:22Z</time>
      </trkpt>
      <trkpt lat="44.52712" lon="6.4">
        <ele>779.91</ele>
        <time>2022-10-08T10:09:45Z</time>
      </trkpt>
      <trkpt lat="44.5264" lon="6.40128">
        <ele>783.12</ele>
        <time>2022-10-08T10:09:52Z</time>
      </trkpt>
      <trkpt lat="44.52633" lon="6.40148">
        <ele>783.12</ele>
        <time>2022-10-08T10:09:53Z</time>
      </trkpt>
      <trkpt lat="44.52617" lon="6.4021">
        <ele>785.94</ele>
        <time>2022-10-08T10:09:56Z</time>
      </trkpt>
      <trkpt lat="44.5261" lon="6.4025">
        <ele>787.99</ele>
        <time>2022-10-08T10:09:58Z</time>
      </trkpt>
      <trkpt lat="44.52605" lon="6.40305">
        <ele>789.46</ele>
        <time>2022-10-08T10:10:01Z</time>
      </trkpt>
      <trkpt lat="44.52606" lon="6.4036">
        <ele>791.59</ele>
        <time>2022-10-08T10:10:04Z</time>
      </trkpt>
      <trkpt lat="44.52609" lon="6.40416">
        <ele>793.88</ele>
        <time>2022-10-08T10:10:07Z</time>
      </trkpt>
      <trkpt lat="44.52613" lon="6.40468">
        <ele>796.68</ele>
        <time>2022-10-08T10:10:10Z</time>
      </trkpt>
      <trkpt lat="44.52616" lon="6.40528">
        <ele>798.9</ele>
        <time>2022-10-08T10:10:14Z</time>
      </trkpt>
      <trkpt lat="44.52618" lon="6.40588">
        <ele>802.76</ele>
        <time>2022-10-08T10:10:18Z</time>
      </trkpt>
      <trkpt lat="44.52619" lon="6.40603">
        <ele>802.83</ele>
        <time>2022-10-08T10:10:19Z</time>
      </trkpt>
      <trkpt lat="44.52623" lon="6.40651">
        <ele>806.12</ele>
        <time>2022-10-08T10:10:22Z</time>
      </trkpt>
      <trkpt lat="44.52625" lon="6.40668">
        <ele>806.12</ele>
        <time>2022-10-08T10:10:23Z</time>
      </trkpt>
      <trkpt lat="44.52629" lon="6.40725">
        <ele>809.9</ele>
        <time>2022-10-08T10:10:26Z</time>
      </trkpt>
      <trkpt lat="44.52632" lon="6.40771">
        <ele>813.34</ele>
        <time>2022-10-08T10:10:28Z</time>
      </trkpt>
      <trkpt lat="44.52633" lon="6.40794">
        <ele>813.43</ele>
        <time>2022-10-08T10:10:29Z</time>
      </trkpt>
      <trkpt lat="44.52635" lon="6.40864">
        <ele>815.9</ele>
        <time>2022-10-08T10:10:33Z</time>
      </trkpt>
      <trkpt lat="44.52635" lon="6.40886">
        <ele>815.99</ele>
        <time>2022-10-08T10:10:35Z</time>
      </trkpt>
      <trkpt lat="44.52634" lon="6.40893">
        <ele>816.04</ele>
        <time>2022-10-08T10:10:36Z</time>
      </trkpt>
      <trkpt lat="44.52632" lon="6.40899">
        <ele>815.92</ele>
        <time>2022-10-08T10:10:37Z</time>
      </trkpt>
      <trkpt lat="44.5263" lon="6.40906">
        <ele>816.23</ele>
        <time>2022-10-08T10:10:46Z</time>
      </trkpt>
      <trkpt lat="44.52629" lon="6.40903">
        <ele>816.28</ele>
        <time>2022-10-08T10:10:56Z</time>
      </trkpt>
      <trkpt lat="44.52628" lon="6.409">
        <ele>816.39</ele>
        <time>2022-10-08T10:11:14Z</time>
      </trkpt>
      <trkpt lat="44.52627" lon="6.40899">
        <ele>816.53</ele>
        <time>2022-10-08T10:11:38Z</time>
      </trkpt>
      <trkpt lat="44.52628" lon="6.40902">
        <ele>816.54</ele>
        <time>2022-10-08T10:11:39Z</time>
      </trkpt>
      <trkpt lat="44.52628" lon="6.40907">
        <ele>816.56</ele>
        <time>2022-10-08T10:11:40Z</time>
      </trkpt>
      <trkpt lat="44.52632" lon="6.4092">
        <ele>817.5</ele>
        <time>2022-10-08T10:11:42Z</time>
      </trkpt>
      <trkpt lat="44.52639" lon="6.4094">
        <ele>818.81</ele>
        <time>2022-10-08T10:11:44Z</time>
      </trkpt>
      <trkpt lat="44.52641" lon="6.40953">
        <ele>819.72</ele>
        <time>2022-10-08T10:11:45Z</time>
      </trkpt>
      <trkpt lat="44.52642" lon="6.40969">
        <ele>821.11</ele>
        <time>2022-10-08T10:11:46Z</time>
      </trkpt>
      <trkpt lat="44.52643" lon="6.40987">
        <ele>821.14</ele>
        <time>2022-10-08T10:11:47Z</time>
      </trkpt>
      <trkpt lat="44.52645" lon="6.41028">
        <ele>823.11</ele>
        <time>2022-10-08T10:11:49Z</time>
      </trkpt>
      <trkpt lat="44.52649" lon="6.41096">
        <ele>825.79</ele>
        <time>2022-10-08T10:11:52Z</time>
      </trkpt>
      <trkpt lat="44.52652" lon="6.41144">
        <ele>827.3</ele>
        <time>2022-10-08T10:11:54Z</time>
      </trkpt>
      <trkpt lat="44.52657" lon="6.41219">
        <ele>828.79</ele>
        <time>2022-10-08T10:11:57Z</time>
      </trkpt>
      <trkpt lat="44.52667" lon="6.41528">
        <ele>832.83</ele>
        <time>2022-10-08T10:12:09Z</time>
      </trkpt>
      <trkpt lat="44.52666" lon="6.41554">
        <ele>832.79</ele>
        <time>2022-10-08T10:12:10Z</time>
      </trkpt>
      <trkpt lat="44.52681" lon="6.4188">
        <ele>829.37</ele>
        <time>2022-10-08T10:12:22Z</time>
      </trkpt>
      <trkpt lat="44.52686" lon="6.41908">
        <ele>829.33</ele>
        <time>2022-10-08T10:12:23Z</time>
      </trkpt>
      <trkpt lat="44.52709" lon="6.41993">
        <ele>825.91</ele>
        <time>2022-10-08T10:12:26Z</time>
      </trkpt>
      <trkpt lat="44.52718" lon="6.42021">
        <ele>825.9</ele>
        <time>2022-10-08T10:12:27Z</time>
      </trkpt>
      <trkpt lat="44.52756" lon="6.42135">
        <ele>821.16</ele>
        <time>2022-10-08T10:12:31Z</time>
      </trkpt>
      <trkpt lat="44.52772" lon="6.4219">
        <ele>817.65</ele>
        <time>2022-10-08T10:12:33Z</time>
      </trkpt>
      <trkpt lat="44.52786" lon="6.42242">
        <ele>813.9</ele>
        <time>2022-10-08T10:12:35Z</time>
      </trkpt>
      <trkpt lat="44.52799" lon="6.42293">
        <ele>810.75</ele>
        <time>2022-10-08T10:12:37Z</time>
      </trkpt>
      <trkpt lat="44.52814" lon="6.42375">
        <ele>807.32</ele>
        <time>2022-10-08T10:12:40Z</time>
      </trkpt>
      <trkpt lat="44.52828" lon="6.42461">
        <ele>804.09</ele>
        <time>2022-10-08T10:12:43Z</time>
      </trkpt>
      <trkpt lat="44.52845" lon="6.42547">
        <ele>800.59</ele>
        <time>2022-10-08T10:12:46Z</time>
      </trkpt>
      <trkpt lat="44.52859" lon="6.42605">
        <ele>797.58</ele>
        <time>2022-10-08T10:12:48Z</time>
      </trkpt>
      <trkpt lat="44.52889" lon="6.42687">
        <ele>794.38</ele>
        <time>2022-10-08T10:12:51Z</time>
      </trkpt>
      <trkpt lat="44.52912" lon="6.42737">
        <ele>792.97</ele>
        <time>2022-10-08T10:12:53Z</time>
      </trkpt>
      <trkpt lat="44.52937" lon="6.42785">
        <ele>790.53</ele>
        <time>2022-10-08T10:12:55Z</time>
      </trkpt>
      <trkpt lat="44.52962" lon="6.42834">
        <ele>787.44</ele>
        <time>2022-10-08T10:12:57Z</time>
      </trkpt>
      <trkpt lat="44.52999" lon="6.42906">
        <ele>784.24</ele>
        <time>2022-10-08T10:13:00Z</time>
      </trkpt>
      <trkpt lat="44.53012" lon="6.42929">
        <ele>784.31</ele>
        <time>2022-10-08T10:13:01Z</time>
      </trkpt>
      <trkpt lat="44.53049" lon="6.43">
        <ele>782.57</ele>
        <time>2022-10-08T10:13:04Z</time>
      </trkpt>
      <trkpt lat="44.53118" lon="6.43195">
        <ele>781.6</ele>
        <time>2022-10-08T10:13:12Z</time>
      </trkpt>
      <trkpt lat="44.53127" lon="6.43273">
        <ele>784.37</ele>
        <time>2022-10-08T10:13:15Z</time>
      </trkpt>
      <trkpt lat="44.53131" lon="6.43327">
        <ele>787.51</ele>
        <time>2022-10-08T10:13:17Z</time>
      </trkpt>
      <trkpt lat="44.53133" lon="6.43354">
        <ele>787.61</ele>
        <time>2022-10-08T10:13:18Z</time>
      </trkpt>
      <trkpt lat="44.53137" lon="6.43408">
        <ele>789.61</ele>
        <time>2022-10-08T10:13:20Z</time>
      </trkpt>
      <trkpt lat="44.53142" lon="6.43489">
        <ele>793.93</ele>
        <time>2022-10-08T10:13:23Z</time>
      </trkpt>
      <trkpt lat="44.53145" lon="6.43544">
        <ele>795.03</ele>
        <time>2022-10-08T10:13:25Z</time>
      </trkpt>
      <trkpt lat="44.53148" lon="6.43598">
        <ele>798.48</ele>
        <time>2022-10-08T10:13:27Z</time>
      </trkpt>
      <trkpt lat="44.53149" lon="6.43625">
        <ele>798.48</ele>
        <time>2022-10-08T10:13:28Z</time>
      </trkpt>
      <trkpt lat="44.53152" lon="6.4368">
        <ele>801.52</ele>
        <time>2022-10-08T10:13:30Z</time>
      </trkpt>
      <trkpt lat="44.53156" lon="6.43733">
        <ele>804.76</ele>
        <time>2022-10-08T10:13:32Z</time>
      </trkpt>
      <trkpt lat="44.5316" lon="6.43814">
        <ele>808.66</ele>
        <time>2022-10-08T10:13:35Z</time>
      </trkpt>
      <trkpt lat="44.53164" lon="6.43867">
        <ele>811.97</ele>
        <time>2022-10-08T10:13:37Z</time>
      </trkpt>
      <trkpt lat="44.53168" lon="6.43921">
        <ele>815</ele>
        <time>2022-10-08T10:13:39Z</time>
      </trkpt>
      <trkpt lat="44.53176" lon="6.43974">
        <ele>818.12</ele>
        <time>2022-10-08T10:13:41Z</time>
      </trkpt>
      <trkpt lat="44.53185" lon="6.44026">
        <ele>820.32</ele>
        <time>2022-10-08T10:13:43Z</time>
      </trkpt>
      <trkpt lat="44.53194" lon="6.44079">
        <ele>823.61</ele>
        <time>2022-10-08T10:13:45Z</time>
      </trkpt>
      <trkpt lat="44.53205" lon="6.44158">
        <ele>828.05</ele>
        <time>2022-10-08T10:13:48Z</time>
      </trkpt>
      <trkpt lat="44.5321" lon="6.44213">
        <ele>829.12</ele>
        <time>2022-10-08T10:13:50Z</time>
      </trkpt>
      <trkpt lat="44.53209" lon="6.44496">
        <ele>832.23</ele>
        <time>2022-10-08T10:14:00Z</time>
      </trkpt>
      <trkpt lat="44.53229" lon="6.44888">
        <ele>832.04</ele>
        <time>2022-10-08T10:14:14Z</time>
      </trkpt>
      <trkpt lat="44.53236" lon="6.44999">
        <ele>828.58</ele>
        <time>2022-10-08T10:14:18Z</time>
      </trkpt>
      <trkpt lat="44.53238" lon="6.45027">
        <ele>828.61</ele>
        <time>2022-10-08T10:14:19Z</time>
      </trkpt>
      <trkpt lat="44.53243" lon="6.45113">
        <ele>825.13</ele>
        <time>2022-10-08T10:14:22Z</time>
      </trkpt>
      <trkpt lat="44.53247" lon="6.45172">
        <ele>823.91</ele>
        <time>2022-10-08T10:14:24Z</time>
      </trkpt>
      <trkpt lat="44.53251" lon="6.4523">
        <ele>820.83</ele>
        <time>2022-10-08T10:14:26Z</time>
      </trkpt>
      <trkpt lat="44.53254" lon="6.4529">
        <ele>819.29</ele>
        <time>2022-10-08T10:14:28Z</time>
      </trkpt>
      <trkpt lat="44.53258" lon="6.45349">
        <ele>815.38</ele>
        <time>2022-10-08T10:14:30Z</time>
      </trkpt>
      <trkpt lat="44.53264" lon="6.45439">
        <ele>811.74</ele>
        <time>2022-10-08T10:14:33Z</time>
      </trkpt>
      <trkpt lat="44.53269" lon="6.45528">
        <ele>808.03</ele>
        <time>2022-10-08T10:14:36Z</time>
      </trkpt>
      <trkpt lat="44.53272" lon="6.45586">
        <ele>806.99</ele>
        <time>2022-10-08T10:14:38Z</time>
      </trkpt>
      <trkpt lat="44.53275" lon="6.45644">
        <ele>805.26</ele>
        <time>2022-10-08T10:14:40Z</time>
      </trkpt>
      <trkpt lat="44.53293" lon="6.45906">
        <ele>802.05</ele>
        <time>2022-10-08T10:14:49Z</time>
      </trkpt>
      <trkpt lat="44.53295" lon="6.45936">
        <ele>802.08</ele>
        <time>2022-10-08T10:14:50Z</time>
      </trkpt>
      <trkpt lat="44.533" lon="6.46026">
        <ele>799.9</ele>
        <time>2022-10-08T10:14:53Z</time>
      </trkpt>
      <trkpt lat="44.53306" lon="6.46087">
        <ele>796.68</ele>
        <time>2022-10-08T10:14:55Z</time>
      </trkpt>
      <trkpt lat="44.53318" lon="6.46178">
        <ele>793.11</ele>
        <time>2022-10-08T10:14:58Z</time>
      </trkpt>
      <trkpt lat="44.53336" lon="6.46269">
        <ele>789.7</ele>
        <time>2022-10-08T10:15:01Z</time>
      </trkpt>
      <trkpt lat="44.53359" lon="6.46357">
        <ele>786.25</ele>
        <time>2022-10-08T10:15:04Z</time>
      </trkpt>
      <trkpt lat="44.53368" lon="6.46386">
        <ele>786.24</ele>
        <time>2022-10-08T10:15:05Z</time>
      </trkpt>
      <trkpt lat="44.53397" lon="6.4647">
        <ele>782.92</ele>
        <time>2022-10-08T10:15:08Z</time>
      </trkpt>
      <trkpt lat="44.53441" lon="6.46576">
        <ele>780.44</ele>
        <time>2022-10-08T10:15:12Z</time>
      </trkpt>
      <trkpt lat="44.53475" lon="6.46653">
        <ele>778.83</ele>
        <time>2022-10-08T10:15:15Z</time>
      </trkpt>
      <trkpt lat="44.53664" lon="6.47108">
        <ele>776.69</ele>
        <time>2022-10-08T10:15:33Z</time>
      </trkpt>
      <trkpt lat="44.53764" lon="6.47397">
        <ele>776.76</ele>
        <time>2022-10-08T10:15:44Z</time>
      </trkpt>
      <trkpt lat="44.53887" lon="6.47556">
        <ele>776.73</ele>
        <time>2022-10-08T10:15:52Z</time>
      </trkpt>
      <trkpt lat="44.5419" lon="6.47828">
        <ele>776.67</ele>
        <time>2022-10-08T10:16:10Z</time>
      </trkpt>
      <trkpt lat="44.54255" lon="6.47887">
        <ele>779.04</ele>
        <time>2022-10-08T10:16:14Z</time>
      </trkpt>
      <trkpt lat="44.54419" lon="6.48035">
        <ele>782.08</ele>
        <time>2022-10-08T10:16:24Z</time>
      </trkpt>
      <trkpt lat="44.54692" lon="6.48285">
        <ele>781.9</ele>
        <time>2022-10-08T10:16:42Z</time>
      </trkpt>
      <trkpt lat="44.54755" lon="6.48352">
        <ele>781.9</ele>
        <time>2022-10-08T10:16:48Z</time>
      </trkpt>
      <trkpt lat="44.54812" lon="6.48427">
        <ele>779.45</ele>
        <time>2022-10-08T10:16:54Z</time>
      </trkpt>
      <trkpt lat="44.54818" lon="6.48439">
        <ele>779.45</ele>
        <time>2022-10-08T10:16:55Z</time>
      </trkpt>
      <trkpt lat="44.54823" lon="6.48451">
        <ele>779.43</ele>
        <time>2022-10-08T10:16:56Z</time>
      </trkpt>
      <trkpt lat="44.54825" lon="6.48465">
        <ele>779.43</ele>
        <time>2022-10-08T10:16:57Z</time>
      </trkpt>
      <trkpt lat="44.54828" lon="6.48478">
        <ele>779.44</ele>
        <time>2022-10-08T10:16:58Z</time>
      </trkpt>
      <trkpt lat="44.54833" lon="6.48489">
        <ele>779.46</ele>
        <time>2022-10-08T10:16:59Z</time>
      </trkpt>
      <trkpt lat="44.5484" lon="6.48497">
        <ele>779.45</ele>
        <time>2022-10-08T10:17:00Z</time>
      </trkpt>
      <trkpt lat="44.54848" lon="6.48501">
        <ele>779.47</ele>
        <time>2022-10-08T10:17:01Z</time>
      </trkpt>
      <trkpt lat="44.54857" lon="6.48499">
        <ele>779.49</ele>
        <time>2022-10-08T10:17:02Z</time>
      </trkpt>
      <trkpt lat="44.54865" lon="6.48492">
        <ele>779.5</ele>
        <time>2022-10-08T10:17:03Z</time>
      </trkpt>
      <trkpt lat="44.54871" lon="6.48481">
        <ele>779.49</ele>
        <time>2022-10-08T10:17:04Z</time>
      </trkpt>
      <trkpt lat="44.54874" lon="6.48469">
        <ele>779.47</ele>
        <time>2022-10-08T10:17:05Z</time>
      </trkpt>
      <trkpt lat="44.54874" lon="6.48455">
        <ele>778.71</ele>
        <time>2022-10-08T10:17:06Z</time>
      </trkpt>
      <trkpt lat="44.54871" lon="6.48443">
        <ele>778.71</ele>
        <time>2022-10-08T10:17:07Z</time>
      </trkpt>
      <trkpt lat="44.54865" lon="6.48433">
        <ele>778.72</ele>
        <time>2022-10-08T10:17:08Z</time>
      </trkpt>
      <trkpt lat="44.54857" lon="6.48427">
        <ele>778.7</ele>
        <time>2022-10-08T10:17:09Z</time>
      </trkpt>
      <trkpt lat="44.54849" lon="6.48424">
        <ele>778.73</ele>
        <time>2022-10-08T10:17:10Z</time>
      </trkpt>
      <trkpt lat="44.5484" lon="6.48426">
        <ele>778.75</ele>
        <time>2022-10-08T10:17:11Z</time>
      </trkpt>
      <trkpt lat="44.54833" lon="6.48432">
        <ele>778.75</ele>
        <time>2022-10-08T10:17:12Z</time>
      </trkpt>
      <trkpt lat="44.54828" lon="6.48441">
        <ele>778.75</ele>
        <time>2022-10-08T10:17:13Z</time>
      </trkpt>
      <trkpt lat="44.54825" lon="6.4845">
        <ele>778.78</ele>
        <time>2022-10-08T10:17:14Z</time>
      </trkpt>
      <trkpt lat="44.54824" lon="6.48462">
        <ele>778.78</ele>
        <time>2022-10-08T10:17:15Z</time>
      </trkpt>
      <trkpt lat="44.54826" lon="6.48474">
        <ele>778.78</ele>
        <time>2022-10-08T10:17:16Z</time>
      </trkpt>
      <trkpt lat="44.54831" lon="6.48484">
        <ele>778.78</ele>
        <time>2022-10-08T10:17:17Z</time>
      </trkpt>
      <trkpt lat="44.54838" lon="6.48492">
        <ele>778.78</ele>
        <time>2022-10-08T10:17:18Z</time>
      </trkpt>
      <trkpt lat="44.54847" lon="6.48495">
        <ele>778.79</ele>
        <time>2022-10-08T10:17:19Z</time>
      </trkpt>
      <trkpt lat="44.54855" lon="6.48493">
        <ele>778.79</ele>
        <time>2022-10-08T10:17:20Z</time>
      </trkpt>
      <trkpt lat="44.54862" lon="6.48487">
        <ele>778.78</ele>
        <time>2022-10-08T10:17:21Z</time>
      </trkpt>
      <trkpt lat="44.54868" lon="6.48477">
        <ele>778.79</ele>
        <time>2022-10-08T10:17:22Z</time>
      </trkpt>
      <trkpt lat="44.54871" lon="6.48465">
        <ele>778.8</ele>
        <time>2022-10-08T10:17:23Z</time>
      </trkpt>
      <trkpt lat="44.54872" lon="6.48452">
        <ele>778.81</ele>
        <time>2022-10-08T10:17:24Z</time>
      </trkpt>
      <trkpt lat="44.5487" lon="6.48438">
        <ele>778.8</ele>
        <time>2022-10-08T10:17:25Z</time>
      </trkpt>
      <trkpt lat="44.54868" lon="6.48424">
        <ele>778.81</ele>
        <time>2022-10-08T10:17:26Z</time>
      </trkpt>
      <trkpt lat="44.54867" lon="6.48409">
        <ele>778.82</ele>
        <time>2022-10-08T10:17:27Z</time>
      </trkpt>
      <trkpt lat="44.54869" lon="6.48395">
        <ele>778.8</ele>
        <time>2022-10-08T10:17:28Z</time>
      </trkpt>
      <trkpt lat="44.54872" lon="6.48379">
        <ele>778.78</ele>
        <time>2022-10-08T10:17:29Z</time>
      </trkpt>
      <trkpt lat="44.54876" lon="6.48363">
        <ele>777.56</ele>
        <time>2022-10-08T10:17:30Z</time>
      </trkpt>
      <trkpt lat="44.54883" lon="6.48316">
        <ele>776.71</ele>
        <time>2022-10-08T10:17:33Z</time>
      </trkpt>
      <trkpt lat="44.54881" lon="6.48301">
        <ele>775.66</ele>
        <time>2022-10-08T10:17:34Z</time>
      </trkpt>
      <trkpt lat="44.54876" lon="6.48287">
        <ele>775.62</ele>
        <time>2022-10-08T10:17:35Z</time>
      </trkpt>
      <trkpt lat="44.54868" lon="6.48274">
        <ele>775.63</ele>
        <time>2022-10-08T10:17:36Z</time>
      </trkpt>
      <trkpt lat="44.54859" lon="6.48261">
        <ele>774.3</ele>
        <time>2022-10-08T10:17:37Z</time>
      </trkpt>
      <trkpt lat="44.5485" lon="6.48247">
        <ele>774.3</ele>
        <time>2022-10-08T10:17:38Z</time>
      </trkpt>
      <trkpt lat="44.548" lon="6.4817">
        <ele>773.32</ele>
        <time>2022-10-08T10:17:45Z</time>
      </trkpt>
      <trkpt lat="44.54748" lon="6.48106">
        <ele>775.76</ele>
        <time>2022-10-08T10:17:51Z</time>
      </trkpt>
      <trkpt lat="44.54671" lon="6.48038">
        <ele>776.84</ele>
        <time>2022-10-08T10:17:59Z</time>
      </trkpt>
      <trkpt lat="44.5466" lon="6.48027">
        <ele>774.49</ele>
        <time>2022-10-08T10:18:01Z</time>
      </trkpt>
      <trkpt lat="44.54656" lon="6.48019">
        <ele>774.48</ele>
        <time>2022-10-08T10:18:02Z</time>
      </trkpt>
      <trkpt lat="44.5465" lon="6.48011">
        <ele>774.45</ele>
        <time>2022-10-08T10:18:03Z</time>
      </trkpt>
      <trkpt lat="44.54643" lon="6.48005">
        <ele>774.41</ele>
        <time>2022-10-08T10:18:04Z</time>
      </trkpt>
      <trkpt lat="44.54636" lon="6.48004">
        <ele>773.58</ele>
        <time>2022-10-08T10:18:05Z</time>
      </trkpt>
      <trkpt lat="44.54629" lon="6.48007">
        <ele>773.57</ele>
        <time>2022-10-08T10:18:06Z</time>
      </trkpt>
      <trkpt lat="44.54622" lon="6.48013">
        <ele>773.67</ele>
        <time>2022-10-08T10:18:07Z</time>
      </trkpt>
      <trkpt lat="44.54616" lon="6.48019">
        <ele>773.65</ele>
        <time>2022-10-08T10:18:08Z</time>
      </trkpt>
      <trkpt lat="44.54612" lon="6.48025">
        <ele>773.65</ele>
        <time>2022-10-08T10:18:09Z</time>
      </trkpt>
      <trkpt lat="44.54609" lon="6.4803">
        <ele>773.67</ele>
        <time>2022-10-08T10:18:10Z</time>
      </trkpt>
      <trkpt lat="44.54609" lon="6.48035">
        <ele>773.66</ele>
        <time>2022-10-08T10:18:11Z</time>
      </trkpt>
      <trkpt lat="44.54611" lon="6.48038">
        <ele>773.65</ele>
        <time>2022-10-08T10:18:12Z</time>
      </trkpt>
      <trkpt lat="44.54613" lon="6.4804">
        <ele>773.63</ele>
        <time>2022-10-08T10:18:13Z</time>
      </trkpt>
      <trkpt lat="44.54616" lon="6.4804">
        <ele>773.64</ele>
        <time>2022-10-08T10:18:14Z</time>
      </trkpt>
      <trkpt lat="44.54617" lon="6.48039">
        <ele>773.65</ele>
        <time>2022-10-08T10:18:15Z</time>
      </trkpt>
      <trkpt lat="44.54619" lon="6.48037">
        <ele>773.65</ele>
        <time>2022-10-08T10:18:16Z</time>
      </trkpt>
      <trkpt lat="44.5462" lon="6.48039">
        <ele>773.67</ele>
        <time>2022-10-08T10:18:28Z</time>
      </trkpt>
      <trkpt lat="44.54619" lon="6.4804">
        <ele>784.22</ele>
        <time>2022-10-08T10:18:53Z</time>
      </trkpt>
      <trkpt lat="44.54744" lon="6.48116">
        <ele>776.47</ele>
        <time>2022-10-08T10:20:19Z</time>
      </trkpt>
      <trkpt lat="44.54769" lon="6.48141">
        <ele>776.45</ele>
        <time>2022-10-08T10:20:22Z</time>
      </trkpt>
      <trkpt lat="44.54782" lon="6.48157">
        <ele>776.5</ele>
        <time>2022-10-08T10:20:23Z</time>
      </trkpt>
      <trkpt lat="44.54864" lon="6.48281">
        <ele>776.47</ele>
        <time>2022-10-08T10:20:33Z</time>
      </trkpt>
      <trkpt lat="44.54876" lon="6.48305">
        <ele>776.48</ele>
        <time>2022-10-08T10:20:35Z</time>
      </trkpt>
      <trkpt lat="44.54879" lon="6.48319">
        <ele>776.47</ele>
        <time>2022-10-08T10:20:36Z</time>
      </trkpt>
      <trkpt lat="44.5488" lon="6.48334">
        <ele>776.46</ele>
        <time>2022-10-08T10:20:37Z</time>
      </trkpt>
      <trkpt lat="44.54879" lon="6.4835">
        <ele>776.47</ele>
        <time>2022-10-08T10:20:38Z</time>
      </trkpt>
      <trkpt lat="44.54877" lon="6.48366">
        <ele>777.3</ele>
        <time>2022-10-08T10:20:39Z</time>
      </trkpt>
      <trkpt lat="44.54874" lon="6.48379">
        <ele>777.34</ele>
        <time>2022-10-08T10:20:40Z</time>
      </trkpt>
      <trkpt lat="44.54869" lon="6.4839">
        <ele>777.36</ele>
        <time>2022-10-08T10:20:41Z</time>
      </trkpt>
      <trkpt lat="44.54866" lon="6.484">
        <ele>778.1</ele>
        <time>2022-10-08T10:20:42Z</time>
      </trkpt>
      <trkpt lat="44.54862" lon="6.48407">
        <ele>778.12</ele>
        <time>2022-10-08T10:20:43Z</time>
      </trkpt>
      <trkpt lat="44.54852" lon="6.48423">
        <ele>778.16</ele>
        <time>2022-10-08T10:20:46Z</time>
      </trkpt>
      <trkpt lat="44.54846" lon="6.48427">
        <ele>778.16</ele>
        <time>2022-10-08T10:20:47Z</time>
      </trkpt>
      <trkpt lat="44.54832" lon="6.48437">
        <ele>779.28</ele>
        <time>2022-10-08T10:20:49Z</time>
      </trkpt>
      <trkpt lat="44.54826" lon="6.48446">
        <ele>779.29</ele>
        <time>2022-10-08T10:20:50Z</time>
      </trkpt>
      <trkpt lat="44.54824" lon="6.48458">
        <ele>779.32</ele>
        <time>2022-10-08T10:20:51Z</time>
      </trkpt>
      <trkpt lat="44.54824" lon="6.48471">
        <ele>780.16</ele>
        <time>2022-10-08T10:20:52Z</time>
      </trkpt>
      <trkpt lat="44.54827" lon="6.48484">
        <ele>780.13</ele>
        <time>2022-10-08T10:20:53Z</time>
      </trkpt>
      <trkpt lat="44.54834" lon="6.48493">
        <ele>780.16</ele>
        <time>2022-10-08T10:20:54Z</time>
      </trkpt>
      <trkpt lat="44.54843" lon="6.48497">
        <ele>780.16</ele>
        <time>2022-10-08T10:20:55Z</time>
      </trkpt>
      <trkpt lat="44.54853" lon="6.48497">
        <ele>780.16</ele>
        <time>2022-10-08T10:20:56Z</time>
      </trkpt>
      <trkpt lat="44.54863" lon="6.48492">
        <ele>781.13</ele>
        <time>2022-10-08T10:20:57Z</time>
      </trkpt>
      <trkpt lat="44.54872" lon="6.48483">
        <ele>781.13</ele>
        <time>2022-10-08T10:20:58Z</time>
      </trkpt>
      <trkpt lat="44.54882" lon="6.48476">
        <ele>781.15</ele>
        <time>2022-10-08T10:20:59Z</time>
      </trkpt>
      <trkpt lat="44.54894" lon="6.48474">
        <ele>781.12</ele>
        <time>2022-10-08T10:21:00Z</time>
      </trkpt>
      <trkpt lat="44.54906" lon="6.48476">
        <ele>781.16</ele>
        <time>2022-10-08T10:21:01Z</time>
      </trkpt>
      <trkpt lat="44.54918" lon="6.48479">
        <ele>781.95</ele>
        <time>2022-10-08T10:21:02Z</time>
      </trkpt>
      <trkpt lat="44.54957" lon="6.48483">
        <ele>783.02</ele>
        <time>2022-10-08T10:21:05Z</time>
      </trkpt>
      <trkpt lat="44.54971" lon="6.48481">
        <ele>783.91</ele>
        <time>2022-10-08T10:21:06Z</time>
      </trkpt>
      <trkpt lat="44.54985" lon="6.48477">
        <ele>783.88</ele>
        <time>2022-10-08T10:21:07Z</time>
      </trkpt>
      <trkpt lat="44.55209" lon="6.48419">
        <ele>786.51</ele>
        <time>2022-10-08T10:21:22Z</time>
      </trkpt>
      <trkpt lat="44.55292" lon="6.48398">
        <ele>789.54</ele>
        <time>2022-10-08T10:21:27Z</time>
      </trkpt>
      <trkpt lat="44.55308" lon="6.48393">
        <ele>789.8</ele>
        <time>2022-10-08T10:21:28Z</time>
      </trkpt>
      <trkpt lat="44.5536" lon="6.4838">
        <ele>792.91</ele>
        <time>2022-10-08T10:21:31Z</time>
      </trkpt>
      <trkpt lat="44.55411" lon="6.48367">
        <ele>796.36</ele>
        <time>2022-10-08T10:21:34Z</time>
      </trkpt>
      <trkpt lat="44.55459" lon="6.48355">
        <ele>798.3</ele>
        <time>2022-10-08T10:21:37Z</time>
      </trkpt>
      <trkpt lat="44.55491" lon="6.48347">
        <ele>799.9</ele>
        <time>2022-10-08T10:21:39Z</time>
      </trkpt>
      <trkpt lat="44.55522" lon="6.4834">
        <ele>802.32</ele>
        <time>2022-10-08T10:21:41Z</time>
      </trkpt>
      <trkpt lat="44.55566" lon="6.48335">
        <ele>803.86</ele>
        <time>2022-10-08T10:21:44Z</time>
      </trkpt>
      <trkpt lat="44.55621" lon="6.48331">
        <ele>804.68</ele>
        <time>2022-10-08T10:21:49Z</time>
      </trkpt>
      <trkpt lat="44.55645" lon="6.48323">
        <ele>804.71</ele>
        <time>2022-10-08T10:21:51Z</time>
      </trkpt>
      <trkpt lat="44.55659" lon="6.48321">
        <ele>806.27</ele>
        <time>2022-10-08T10:21:52Z</time>
      </trkpt>
      <trkpt lat="44.55673" lon="6.48321">
        <ele>806.27</ele>
        <time>2022-10-08T10:21:53Z</time>
      </trkpt>
      <trkpt lat="44.55688" lon="6.48324">
        <ele>807.71</ele>
        <time>2022-10-08T10:21:54Z</time>
      </trkpt>
      <trkpt lat="44.55702" lon="6.48331">
        <ele>807.76</ele>
        <time>2022-10-08T10:21:55Z</time>
      </trkpt>
      <trkpt lat="44.55716" lon="6.4834">
        <ele>809.5</ele>
        <time>2022-10-08T10:21:56Z</time>
      </trkpt>
      <trkpt lat="44.5573" lon="6.48351">
        <ele>810.49</ele>
        <time>2022-10-08T10:21:57Z</time>
      </trkpt>
      <trkpt lat="44.55744" lon="6.48363">
        <ele>812.16</ele>
        <time>2022-10-08T10:21:58Z</time>
      </trkpt>
      <trkpt lat="44.55757" lon="6.48376">
        <ele>813.35</ele>
        <time>2022-10-08T10:21:59Z</time>
      </trkpt>
      <trkpt lat="44.55798" lon="6.48414">
        <ele>816.76</ele>
        <time>2022-10-08T10:22:02Z</time>
      </trkpt>
      <trkpt lat="44.55829" lon="6.48432">
        <ele>818.45</ele>
        <time>2022-10-08T10:22:04Z</time>
      </trkpt>
      <trkpt lat="44.55845" lon="6.48438">
        <ele>819.42</ele>
        <time>2022-10-08T10:22:05Z</time>
      </trkpt>
      <trkpt lat="44.55892" lon="6.48456">
        <ele>821.27</ele>
        <time>2022-10-08T10:22:08Z</time>
      </trkpt>
      <trkpt lat="44.55906" lon="6.48467">
        <ele>822.94</ele>
        <time>2022-10-08T10:22:09Z</time>
      </trkpt>
      <trkpt lat="44.55917" lon="6.48482">
        <ele>823.02</ele>
        <time>2022-10-08T10:22:10Z</time>
      </trkpt>
      <trkpt lat="44.55928" lon="6.48498">
        <ele>825.02</ele>
        <time>2022-10-08T10:22:11Z</time>
      </trkpt>
      <trkpt lat="44.55937" lon="6.48516">
        <ele>825.15</ele>
        <time>2022-10-08T10:22:12Z</time>
      </trkpt>
      <trkpt lat="44.55945" lon="6.48535">
        <ele>826.82</ele>
        <time>2022-10-08T10:22:13Z</time>
      </trkpt>
      <trkpt lat="44.55953" lon="6.48555">
        <ele>826.89</ele>
        <time>2022-10-08T10:22:14Z</time>
      </trkpt>
      <trkpt lat="44.55966" lon="6.48596">
        <ele>828.82</ele>
        <time>2022-10-08T10:22:16Z</time>
      </trkpt>
      <trkpt lat="44.55991" lon="6.48689">
        <ele>831.46</ele>
        <time>2022-10-08T10:22:21Z</time>
      </trkpt>
      <trkpt lat="44.56025" lon="6.48767">
        <ele>831.69</ele>
        <time>2022-10-08T10:22:28Z</time>
      </trkpt>
      <trkpt lat="44.56028" lon="6.4877">
        <ele>831.72</ele>
        <time>2022-10-08T10:22:29Z</time>
      </trkpt>
      <trkpt lat="44.5603" lon="6.48769">
        <ele>831.71</ele>
        <time>2022-10-08T10:22:30Z</time>
      </trkpt>
      <trkpt lat="44.56031" lon="6.48767">
        <ele>831.69</ele>
        <time>2022-10-08T10:22:31Z</time>
      </trkpt>
      <trkpt lat="44.56033" lon="6.48762">
        <ele>831.67</ele>
        <time>2022-10-08T10:22:45Z</time>
      </trkpt>
      <trkpt lat="44.56031" lon="6.48756">
        <ele>831.72</ele>
        <time>2022-10-08T10:23:04Z</time>
      </trkpt>
      <trkpt lat="44.56019" lon="6.48735">
        <ele>831.68</ele>
        <time>2022-10-08T10:27:58Z</time>
      </trkpt>
      <trkpt lat="44.56018" lon="6.48739">
        <ele>832.78</ele>
        <time>2022-10-08T10:28:25Z</time>
      </trkpt>
      <trkpt lat="44.56019" lon="6.4874">
        <ele>834.69</ele>
        <time>2022-10-08T10:29:22Z</time>
      </trkpt>
      <trkpt lat="44.56018" lon="6.48736">
        <ele>834.75</ele>
        <time>2022-10-08T10:30:22Z</time>
      </trkpt>
      <trkpt lat="44.56019" lon="6.48735">
        <ele>834.76</ele>
        <time>2022-10-08T10:30:32Z</time>
      </trkpt>
      <trkpt lat="44.56012" lon="6.48735">
        <ele>834.78</ele>
        <time>2022-10-08T10:30:42Z</time>
      </trkpt>
      <trkpt lat="44.56011" lon="6.48736">
        <ele>834.8</ele>
        <time>2022-10-08T10:30:48Z</time>
      </trkpt>
      <trkpt lat="44.56009" lon="6.4874">
        <ele>834.8</ele>
        <time>2022-10-08T10:30:50Z</time>
      </trkpt>
      <trkpt lat="44.56009" lon="6.48745">
        <ele>834.8</ele>
        <time>2022-10-08T10:30:51Z</time>
      </trkpt>
      <trkpt lat="44.5601" lon="6.48751">
        <ele>834.81</ele>
        <time>2022-10-08T10:30:52Z</time>
      </trkpt>
      <trkpt lat="44.56013" lon="6.48757">
        <ele>834.81</ele>
        <time>2022-10-08T10:30:53Z</time>
      </trkpt>
      <trkpt lat="44.56015" lon="6.48763">
        <ele>834.82</ele>
        <time>2022-10-08T10:30:54Z</time>
      </trkpt>
      <trkpt lat="44.5607" lon="6.48848">
        <ele>838.74</ele>
        <time>2022-10-08T10:31:09Z</time>
      </trkpt>
      <trkpt lat="44.56117" lon="6.48919">
        <ele>840.26</ele>
        <time>2022-10-08T10:31:22Z</time>
      </trkpt>
      <trkpt lat="44.56178" lon="6.49012">
        <ele>842.08</ele>
        <time>2022-10-08T10:31:36Z</time>
      </trkpt>
      <trkpt lat="44.56216" lon="6.49067">
        <ele>844.11</ele>
        <time>2022-10-08T10:31:45Z</time>
      </trkpt>
      <trkpt lat="44.5623" lon="6.49086">
        <ele>845.64</ele>
        <time>2022-10-08T10:31:47Z</time>
      </trkpt>
      <trkpt lat="44.5629" lon="6.49186">
        <ele>844.98</ele>
        <time>2022-10-08T10:31:57Z</time>
      </trkpt>
      <trkpt lat="44.56292" lon="6.49194">
        <ele>844.95</ele>
        <time>2022-10-08T10:31:58Z</time>
      </trkpt>
      <trkpt lat="44.56296" lon="6.49209">
        <ele>843.98</ele>
        <time>2022-10-08T10:32:00Z</time>
      </trkpt>
      <trkpt lat="44.563" lon="6.49214">
        <ele>843.96</ele>
        <time>2022-10-08T10:32:01Z</time>
      </trkpt>
      <trkpt lat="44.56304" lon="6.4922">
        <ele>843.97</ele>
        <time>2022-10-08T10:32:02Z</time>
      </trkpt>
      <trkpt lat="44.56309" lon="6.49225">
        <ele>843.98</ele>
        <time>2022-10-08T10:32:03Z</time>
      </trkpt>
      <trkpt lat="44.56316" lon="6.49229">
        <ele>843.97</ele>
        <time>2022-10-08T10:32:04Z</time>
      </trkpt>
      <trkpt lat="44.56323" lon="6.49233">
        <ele>843.98</ele>
        <time>2022-10-08T10:32:05Z</time>
      </trkpt>
      <trkpt lat="44.56373" lon="6.49264">
        <ele>846.57</ele>
        <time>2022-10-08T10:32:11Z</time>
      </trkpt>
      <trkpt lat="44.56381" lon="6.4927">
        <ele>846.57</ele>
        <time>2022-10-08T10:32:12Z</time>
      </trkpt>
      <trkpt lat="44.56387" lon="6.49278">
        <ele>847.81</ele>
        <time>2022-10-08T10:32:13Z</time>
      </trkpt>
      <trkpt lat="44.56393" lon="6.49286">
        <ele>847.84</ele>
        <time>2022-10-08T10:32:14Z</time>
      </trkpt>
      <trkpt lat="44.56399" lon="6.49295">
        <ele>848.92</ele>
        <time>2022-10-08T10:32:15Z</time>
      </trkpt>
      <trkpt lat="44.56405" lon="6.49304">
        <ele>850.14</ele>
        <time>2022-10-08T10:32:16Z</time>
      </trkpt>
      <trkpt lat="44.56416" lon="6.49323">
        <ele>851.06</ele>
        <time>2022-10-08T10:32:18Z</time>
      </trkpt>
      <trkpt lat="44.56427" lon="6.49342">
        <ele>852.28</ele>
        <time>2022-10-08T10:32:20Z</time>
      </trkpt>
      <trkpt lat="44.56457" lon="6.49395">
        <ele>856.02</ele>
        <time>2022-10-08T10:32:25Z</time>
      </trkpt>
      <trkpt lat="44.56492" lon="6.49461">
        <ele>858.86</ele>
        <time>2022-10-08T10:32:31Z</time>
      </trkpt>
      <trkpt lat="44.56537" lon="6.49547">
        <ele>860.68</ele>
        <time>2022-10-08T10:32:41Z</time>
      </trkpt>
      <trkpt lat="44.56551" lon="6.49645">
        <ele>862.5</ele>
        <time>2022-10-08T10:32:52Z</time>
      </trkpt>
      <trkpt lat="44.56551" lon="6.49685">
        <ele>862.33</ele>
        <time>2022-10-08T10:32:56Z</time>
      </trkpt>
      <trkpt lat="44.56551" lon="6.49691">
        <ele>862.33</ele>
        <time>2022-10-08T10:32:57Z</time>
      </trkpt>
      <trkpt lat="44.56549" lon="6.49696">
        <ele>862.34</ele>
        <time>2022-10-08T10:32:58Z</time>
      </trkpt>
      <trkpt lat="44.56546" lon="6.497">
        <ele>862.32</ele>
        <time>2022-10-08T10:32:59Z</time>
      </trkpt>
      <trkpt lat="44.56543" lon="6.49703">
        <ele>862.33</ele>
        <time>2022-10-08T10:33:00Z</time>
      </trkpt>
      <trkpt lat="44.5654" lon="6.49706">
        <ele>862.31</ele>
        <time>2022-10-08T10:33:01Z</time>
      </trkpt>
      <trkpt lat="44.56531" lon="6.49714">
        <ele>862.31</ele>
        <time>2022-10-08T10:33:03Z</time>
      </trkpt>
      <trkpt lat="44.56525" lon="6.49718">
        <ele>862.33</ele>
        <time>2022-10-08T10:33:04Z</time>
      </trkpt>
      <trkpt lat="44.5649" lon="6.49731">
        <ele>862.34</ele>
        <time>2022-10-08T10:33:09Z</time>
      </trkpt>
      <trkpt lat="44.56482" lon="6.49729">
        <ele>862.3</ele>
        <time>2022-10-08T10:33:10Z</time>
      </trkpt>
      <trkpt lat="44.5645" lon="6.49715">
        <ele>862.36</ele>
        <time>2022-10-08T10:33:15Z</time>
      </trkpt>
      <trkpt lat="44.56445" lon="6.49715">
        <ele>862.4</ele>
        <time>2022-10-08T10:33:16Z</time>
      </trkpt>
      <trkpt lat="44.56441" lon="6.49716">
        <ele>862.39</ele>
        <time>2022-10-08T10:33:17Z</time>
      </trkpt>
      <trkpt lat="44.56438" lon="6.49721">
        <ele>862.29</ele>
        <time>2022-10-08T10:33:18Z</time>
      </trkpt>
      <trkpt lat="44.56434" lon="6.49729">
        <ele>863.5</ele>
        <time>2022-10-08T10:33:19Z</time>
      </trkpt>
      <trkpt lat="44.5643" lon="6.49737">
        <ele>863.5</ele>
        <time>2022-10-08T10:33:20Z</time>
      </trkpt>
      <trkpt lat="44.56413" lon="6.49767">
        <ele>864.38</ele>
        <time>2022-10-08T10:33:27Z</time>
      </trkpt>
      <trkpt lat="44.56399" lon="6.49791">
        <ele>864.34</ele>
        <time>2022-10-08T10:33:35Z</time>
      </trkpt>
      <trkpt lat="44.56399" lon="6.49792">
        <ele>864.33</ele>
        <time>2022-10-08T10:33:36Z</time>
      </trkpt>
      <trkpt lat="44.564" lon="6.49794">
        <ele>864.31</ele>
        <time>2022-10-08T10:33:38Z</time>
      </trkpt>
      <trkpt lat="44.56402" lon="6.49797">
        <ele>864.33</ele>
        <time>2022-10-08T10:33:39Z</time>
      </trkpt>
      <trkpt lat="44.56403" lon="6.49801">
        <ele>864.33</ele>
        <time>2022-10-08T10:33:40Z</time>
      </trkpt>
      <trkpt lat="44.56405" lon="6.49805">
        <ele>864.35</ele>
        <time>2022-10-08T10:33:41Z</time>
      </trkpt>
      <trkpt lat="44.56406" lon="6.49808">
        <ele>864.35</ele>
        <time>2022-10-08T10:33:42Z</time>
      </trkpt>
      <trkpt lat="44.56409" lon="6.49811">
        <ele>864.35</ele>
        <time>2022-10-08T10:33:43Z</time>
      </trkpt>
      <trkpt lat="44.56413" lon="6.49814">
        <ele>864.35</ele>
        <time>2022-10-08T10:33:44Z</time>
      </trkpt>
      <trkpt lat="44.56442" lon="6.4984">
        <ele>865.1</ele>
        <time>2022-10-08T10:33:48Z</time>
      </trkpt>
      <trkpt lat="44.5645" lon="6.49849">
        <ele>865.91</ele>
        <time>2022-10-08T10:33:49Z</time>
      </trkpt>
      <trkpt lat="44.56499" lon="6.49902">
        <ele>865.91</ele>
        <time>2022-10-08T10:33:55Z</time>
      </trkpt>
      <trkpt lat="44.56507" lon="6.49906">
        <ele>865.92</ele>
        <time>2022-10-08T10:33:56Z</time>
      </trkpt>
      <trkpt lat="44.56521" lon="6.4991">
        <ele>863.27</ele>
        <time>2022-10-08T10:33:58Z</time>
      </trkpt>
      <trkpt lat="44.56528" lon="6.49908">
        <ele>863.24</ele>
        <time>2022-10-08T10:33:59Z</time>
      </trkpt>
      <trkpt lat="44.56532" lon="6.49901">
        <ele>862.43</ele>
        <time>2022-10-08T10:34:00Z</time>
      </trkpt>
      <trkpt lat="44.56541" lon="6.49879">
        <ele>862.39</ele>
        <time>2022-10-08T10:34:02Z</time>
      </trkpt>
      <trkpt lat="44.56549" lon="6.49867">
        <ele>862.37</ele>
        <time>2022-10-08T10:34:03Z</time>
      </trkpt>
      <trkpt lat="44.56611" lon="6.4979">
        <ele>862.28</ele>
        <time>2022-10-08T10:34:11Z</time>
      </trkpt>
      <trkpt lat="44.56617" lon="6.49785">
        <ele>862.28</ele>
        <time>2022-10-08T10:34:12Z</time>
      </trkpt>
      <trkpt lat="44.56623" lon="6.49779">
        <ele>861.7</ele>
        <time>2022-10-08T10:34:13Z</time>
      </trkpt>
      <trkpt lat="44.56627" lon="6.49773">
        <ele>861.69</ele>
        <time>2022-10-08T10:34:14Z</time>
      </trkpt>
      <trkpt lat="44.56627" lon="6.49766">
        <ele>861.69</ele>
        <time>2022-10-08T10:34:15Z</time>
      </trkpt>
      <trkpt lat="44.56624" lon="6.4976">
        <ele>861.68</ele>
        <time>2022-10-08T10:34:16Z</time>
      </trkpt>
      <trkpt lat="44.56617" lon="6.49755">
        <ele>861.68</ele>
        <time>2022-10-08T10:34:17Z</time>
      </trkpt>
      <trkpt lat="44.5661" lon="6.4975">
        <ele>861.68</ele>
        <time>2022-10-08T10:34:18Z</time>
      </trkpt>
      <trkpt lat="44.56602" lon="6.49744">
        <ele>861.67</ele>
        <time>2022-10-08T10:34:19Z</time>
      </trkpt>
      <trkpt lat="44.5657" lon="6.49713">
        <ele>861.63</ele>
        <time>2022-10-08T10:34:23Z</time>
      </trkpt>
      <trkpt lat="44.56565" lon="6.49703">
        <ele>861.65</ele>
        <time>2022-10-08T10:34:24Z</time>
      </trkpt>
      <trkpt lat="44.56562" lon="6.49694">
        <ele>861.64</ele>
        <time>2022-10-08T10:34:25Z</time>
      </trkpt>
      <trkpt lat="44.56559" lon="6.49685">
        <ele>861.64</ele>
        <time>2022-10-08T10:34:26Z</time>
      </trkpt>
      <trkpt lat="44.56558" lon="6.49676">
        <ele>861.65</ele>
        <time>2022-10-08T10:34:27Z</time>
      </trkpt>
      <trkpt lat="44.56558" lon="6.49669">
        <ele>861.65</ele>
        <time>2022-10-08T10:34:28Z</time>
      </trkpt>
      <trkpt lat="44.56554" lon="6.49656">
        <ele>861.65</ele>
        <time>2022-10-08T10:34:31Z</time>
      </trkpt>
      <trkpt lat="44.56552" lon="6.49655">
        <ele>861.64</ele>
        <time>2022-10-08T10:34:32Z</time>
      </trkpt>
      <trkpt lat="44.5655" lon="6.49655">
        <ele>861.63</ele>
        <time>2022-10-08T10:34:33Z</time>
      </trkpt>
      <trkpt lat="44.56549" lon="6.49657">
        <ele>861.65</ele>
        <time>2022-10-08T10:34:34Z</time>
      </trkpt>
      <trkpt lat="44.56549" lon="6.49662">
        <ele>861.64</ele>
        <time>2022-10-08T10:34:38Z</time>
      </trkpt>
      <trkpt lat="44.56549" lon="6.49664">
        <ele>861.63</ele>
        <time>2022-10-08T10:34:39Z</time>
      </trkpt>
      <trkpt lat="44.5655" lon="6.49666">
        <ele>861.63</ele>
        <time>2022-10-08T10:34:40Z</time>
      </trkpt>
      <trkpt lat="44.56551" lon="6.49671">
        <ele>861.6</ele>
        <time>2022-10-08T10:34:55Z</time>
      </trkpt>
      <trkpt lat="44.56555" lon="6.49674">
        <ele>861.48</ele>
        <time>2022-10-08T10:35:15Z</time>
      </trkpt>
      <trkpt lat="44.56558" lon="6.49659">
        <ele>862.81</ele>
        <time>2022-10-08T11:36:13Z</time>
      </trkpt>
      <trkpt lat="44.56554" lon="6.49625">
        <ele>862.85</ele>
        <time>2022-10-08T11:36:17Z</time>
      </trkpt>
      <trkpt lat="44.56553" lon="6.49615">
        <ele>862.85</ele>
        <time>2022-10-08T11:36:18Z</time>
      </trkpt>
      <trkpt lat="44.56543" lon="6.49556">
        <ele>862.83</ele>
        <time>2022-10-08T11:36:23Z</time>
      </trkpt>
      <trkpt lat="44.5654" lon="6.49543">
        <ele>862.83</ele>
        <time>2022-10-08T11:36:24Z</time>
      </trkpt>
      <trkpt lat="44.56535" lon="6.49531">
        <ele>862.82</ele>
        <time>2022-10-08T11:36:25Z</time>
      </trkpt>
      <trkpt lat="44.56529" lon="6.4952">
        <ele>862.82</ele>
        <time>2022-10-08T11:36:26Z</time>
      </trkpt>
      <trkpt lat="44.56523" lon="6.4951">
        <ele>862.82</ele>
        <time>2022-10-08T11:36:27Z</time>
      </trkpt>
      <trkpt lat="44.56461" lon="6.49399">
        <ele>858.9</ele>
        <time>2022-10-08T11:36:37Z</time>
      </trkpt>
      <trkpt lat="44.56423" lon="6.49331">
        <ele>855.5</ele>
        <time>2022-10-08T11:36:43Z</time>
      </trkpt>
      <trkpt lat="44.56417" lon="6.49319">
        <ele>855.43</ele>
        <time>2022-10-08T11:36:44Z</time>
      </trkpt>
      <trkpt lat="44.56397" lon="6.49284">
        <ele>852.01</ele>
        <time>2022-10-08T11:36:47Z</time>
      </trkpt>
      <trkpt lat="44.56383" lon="6.49264">
        <ele>851.1</ele>
        <time>2022-10-08T11:36:49Z</time>
      </trkpt>
      <trkpt lat="44.56374" lon="6.49256">
        <ele>849.73</ele>
        <time>2022-10-08T11:36:50Z</time>
      </trkpt>
      <trkpt lat="44.56365" lon="6.49249">
        <ele>849.73</ele>
        <time>2022-10-08T11:36:51Z</time>
      </trkpt>
      <trkpt lat="44.56348" lon="6.49238">
        <ele>848.31</ele>
        <time>2022-10-08T11:36:53Z</time>
      </trkpt>
      <trkpt lat="44.56332" lon="6.49225">
        <ele>846.85</ele>
        <time>2022-10-08T11:36:55Z</time>
      </trkpt>
      <trkpt lat="44.56325" lon="6.49217">
        <ele>846.91</ele>
        <time>2022-10-08T11:36:56Z</time>
      </trkpt>
      <trkpt lat="44.5626" lon="6.49126">
        <ele>847.04</ele>
        <time>2022-10-08T11:37:05Z</time>
      </trkpt>
      <trkpt lat="44.56192" lon="6.49019">
        <ele>846.99</ele>
        <time>2022-10-08T11:37:15Z</time>
      </trkpt>
      <trkpt lat="44.56171" lon="6.48988">
        <ele>843.87</ele>
        <time>2022-10-08T11:37:18Z</time>
      </trkpt>
      <trkpt lat="44.56165" lon="6.48978">
        <ele>843.85</ele>
        <time>2022-10-08T11:37:19Z</time>
      </trkpt>
      <trkpt lat="44.56094" lon="6.48871">
        <ele>842.87</ele>
        <time>2022-10-08T11:37:28Z</time>
      </trkpt>
      <trkpt lat="44.56018" lon="6.48751">
        <ele>840.1</ele>
        <time>2022-10-08T11:37:37Z</time>
      </trkpt>
      <trkpt lat="44.55987" lon="6.4867">
        <ele>837.65</ele>
        <time>2022-10-08T11:37:42Z</time>
      </trkpt>
      <trkpt lat="44.55968" lon="6.48601">
        <ele>835.53</ele>
        <time>2022-10-08T11:37:46Z</time>
      </trkpt>
      <trkpt lat="44.55959" lon="6.48571">
        <ele>834.12</ele>
        <time>2022-10-08T11:37:48Z</time>
      </trkpt>
      <trkpt lat="44.55949" lon="6.48541">
        <ele>832.89</ele>
        <time>2022-10-08T11:37:50Z</time>
      </trkpt>
      <trkpt lat="44.55921" lon="6.48478">
        <ele>832.04</ele>
        <time>2022-10-08T11:37:54Z</time>
      </trkpt>
      <trkpt lat="44.55912" lon="6.48465">
        <ele>830.29</ele>
        <time>2022-10-08T11:37:55Z</time>
      </trkpt>
      <trkpt lat="44.55902" lon="6.48454">
        <ele>829.42</ele>
        <time>2022-10-08T11:37:56Z</time>
      </trkpt>
      <trkpt lat="44.55891" lon="6.48444">
        <ele>828.3</ele>
        <time>2022-10-08T11:37:57Z</time>
      </trkpt>
      <trkpt lat="44.55879" lon="6.48436">
        <ele>828.26</ele>
        <time>2022-10-08T11:37:58Z</time>
      </trkpt>
      <trkpt lat="44.55866" lon="6.48431">
        <ele>826.12</ele>
        <time>2022-10-08T11:37:59Z</time>
      </trkpt>
      <trkpt lat="44.55853" lon="6.48427">
        <ele>826.15</ele>
        <time>2022-10-08T11:38:00Z</time>
      </trkpt>
      <trkpt lat="44.55841" lon="6.48423">
        <ele>824.35</ele>
        <time>2022-10-08T11:38:01Z</time>
      </trkpt>
      <trkpt lat="44.55828" lon="6.48419">
        <ele>824.38</ele>
        <time>2022-10-08T11:38:02Z</time>
      </trkpt>
      <trkpt lat="44.55779" lon="6.48388">
        <ele>821.52</ele>
        <time>2022-10-08T11:38:06Z</time>
      </trkpt>
      <trkpt lat="44.55731" lon="6.48342">
        <ele>818.59</ele>
        <time>2022-10-08T11:38:10Z</time>
      </trkpt>
      <trkpt lat="44.55708" lon="6.48322">
        <ele>816.73</ele>
        <time>2022-10-08T11:38:12Z</time>
      </trkpt>
      <trkpt lat="44.55678" lon="6.48305">
        <ele>813.47</ele>
        <time>2022-10-08T11:38:15Z</time>
      </trkpt>
      <trkpt lat="44.55669" lon="6.48302">
        <ele>813.47</ele>
        <time>2022-10-08T11:38:16Z</time>
      </trkpt>
      <trkpt lat="44.5566" lon="6.48301">
        <ele>812.25</ele>
        <time>2022-10-08T11:38:17Z</time>
      </trkpt>
      <trkpt lat="44.55646" lon="6.48302">
        <ele>811.29</ele>
        <time>2022-10-08T11:38:19Z</time>
      </trkpt>
      <trkpt lat="44.55631" lon="6.48305">
        <ele>809.97</ele>
        <time>2022-10-08T11:38:22Z</time>
      </trkpt>
      <trkpt lat="44.55606" lon="6.48307">
        <ele>809.93</ele>
        <time>2022-10-08T11:38:28Z</time>
      </trkpt>
      <trkpt lat="44.556" lon="6.48309">
        <ele>808.96</ele>
        <time>2022-10-08T11:38:29Z</time>
      </trkpt>
      <trkpt lat="44.55587" lon="6.48314">
        <ele>809.47</ele>
        <time>2022-10-08T11:38:31Z</time>
      </trkpt>
      <trkpt lat="44.55505" lon="6.48334">
        <ele>807.8</ele>
        <time>2022-10-08T11:38:40Z</time>
      </trkpt>
      <trkpt lat="44.55441" lon="6.48348">
        <ele>805.14</ele>
        <time>2022-10-08T11:38:45Z</time>
      </trkpt>
      <trkpt lat="44.55414" lon="6.48355">
        <ele>803.79</ele>
        <time>2022-10-08T11:38:47Z</time>
      </trkpt>
      <trkpt lat="44.55374" lon="6.48366">
        <ele>800.45</ele>
        <time>2022-10-08T11:38:50Z</time>
      </trkpt>
      <trkpt lat="44.55361" lon="6.48369">
        <ele>800.45</ele>
        <time>2022-10-08T11:38:51Z</time>
      </trkpt>
      <trkpt lat="44.55335" lon="6.48375">
        <ele>799.12</ele>
        <time>2022-10-08T11:38:53Z</time>
      </trkpt>
      <trkpt lat="44.55311" lon="6.48381">
        <ele>796.04</ele>
        <time>2022-10-08T11:38:55Z</time>
      </trkpt>
      <trkpt lat="44.55287" lon="6.48387">
        <ele>794.63</ele>
        <time>2022-10-08T11:38:57Z</time>
      </trkpt>
      <trkpt lat="44.55252" lon="6.48396">
        <ele>792.77</ele>
        <time>2022-10-08T11:39:00Z</time>
      </trkpt>
      <trkpt lat="44.55197" lon="6.48409">
        <ele>790.34</ele>
        <time>2022-10-08T11:39:05Z</time>
      </trkpt>
      <trkpt lat="44.55092" lon="6.48437">
        <ele>788.48</ele>
        <time>2022-10-08T11:39:16Z</time>
      </trkpt>
      <trkpt lat="44.54999" lon="6.48461">
        <ele>788.8</ele>
        <time>2022-10-08T11:39:24Z</time>
      </trkpt>
      <trkpt lat="44.54898" lon="6.48461">
        <ele>786.68</ele>
        <time>2022-10-08T11:39:34Z</time>
      </trkpt>
      <trkpt lat="44.54869" lon="6.48444">
        <ele>785.75</ele>
        <time>2022-10-08T11:39:38Z</time>
      </trkpt>
      <trkpt lat="44.54863" lon="6.48438">
        <ele>785.75</ele>
        <time>2022-10-08T11:39:39Z</time>
      </trkpt>
      <trkpt lat="44.54851" lon="6.48427">
        <ele>785.74</ele>
        <time>2022-10-08T11:39:41Z</time>
      </trkpt>
      <trkpt lat="44.54844" lon="6.48424">
        <ele>784.87</ele>
        <time>2022-10-08T11:39:42Z</time>
      </trkpt>
      <trkpt lat="44.54836" lon="6.48423">
        <ele>785.14</ele>
        <time>2022-10-08T11:39:43Z</time>
      </trkpt>
      <trkpt lat="44.54828" lon="6.48425">
        <ele>784.91</ele>
        <time>2022-10-08T11:39:44Z</time>
      </trkpt>
      <trkpt lat="44.54821" lon="6.48431">
        <ele>785.14</ele>
        <time>2022-10-08T11:39:45Z</time>
      </trkpt>
      <trkpt lat="44.54816" lon="6.48439">
        <ele>785.13</ele>
        <time>2022-10-08T11:39:46Z</time>
      </trkpt>
      <trkpt lat="44.54813" lon="6.4845">
        <ele>785.13</ele>
        <time>2022-10-08T11:39:47Z</time>
      </trkpt>
      <trkpt lat="44.54811" lon="6.48462">
        <ele>785.14</ele>
        <time>2022-10-08T11:39:48Z</time>
      </trkpt>
      <trkpt lat="44.54808" lon="6.48475">
        <ele>785.14</ele>
        <time>2022-10-08T11:39:49Z</time>
      </trkpt>
      <trkpt lat="44.54805" lon="6.48488">
        <ele>785.15</ele>
        <time>2022-10-08T11:39:50Z</time>
      </trkpt>
      <trkpt lat="44.54799" lon="6.485">
        <ele>785.15</ele>
        <time>2022-10-08T11:39:51Z</time>
      </trkpt>
      <trkpt lat="44.54792" lon="6.4851">
        <ele>785.16</ele>
        <time>2022-10-08T11:39:52Z</time>
      </trkpt>
      <trkpt lat="44.54783" lon="6.48521">
        <ele>785.19</ele>
        <time>2022-10-08T11:39:53Z</time>
      </trkpt>
      <trkpt lat="44.54764" lon="6.48542">
        <ele>787.5</ele>
        <time>2022-10-08T11:39:55Z</time>
      </trkpt>
      <trkpt lat="44.54732" lon="6.48577">
        <ele>789.54</ele>
        <time>2022-10-08T11:39:58Z</time>
      </trkpt>
      <trkpt lat="44.54697" lon="6.48616">
        <ele>793.12</ele>
        <time>2022-10-08T11:40:01Z</time>
      </trkpt>
      <trkpt lat="44.54685" lon="6.48631">
        <ele>793.17</ele>
        <time>2022-10-08T11:40:02Z</time>
      </trkpt>
      <trkpt lat="44.54646" lon="6.48677">
        <ele>795.58</ele>
        <time>2022-10-08T11:40:05Z</time>
      </trkpt>
      <trkpt lat="44.54606" lon="6.48723">
        <ele>797.71</ele>
        <time>2022-10-08T11:40:08Z</time>
      </trkpt>
      <trkpt lat="44.54554" lon="6.48783">
        <ele>799.99</ele>
        <time>2022-10-08T11:40:12Z</time>
      </trkpt>
      <trkpt lat="44.54528" lon="6.48812">
        <ele>801.52</ele>
        <time>2022-10-08T11:40:14Z</time>
      </trkpt>
      <trkpt lat="44.5447" lon="6.48892">
        <ele>804.88</ele>
        <time>2022-10-08T11:40:19Z</time>
      </trkpt>
      <trkpt lat="44.54459" lon="6.4891">
        <ele>804.96</ele>
        <time>2022-10-08T11:40:20Z</time>
      </trkpt>
      <trkpt lat="44.54438" lon="6.48949">
        <ele>806.61</ele>
        <time>2022-10-08T11:40:22Z</time>
      </trkpt>
      <trkpt lat="44.54392" lon="6.49064">
        <ele>809.33</ele>
        <time>2022-10-08T11:40:28Z</time>
      </trkpt>
      <trkpt lat="44.54378" lon="6.49102">
        <ele>810.92</ele>
        <time>2022-10-08T11:40:30Z</time>
      </trkpt>
      <trkpt lat="44.54347" lon="6.49188">
        <ele>813.21</ele>
        <time>2022-10-08T11:40:35Z</time>
      </trkpt>
      <trkpt lat="44.54325" lon="6.49246">
        <ele>813.26</ele>
        <time>2022-10-08T11:40:40Z</time>
      </trkpt>
      <trkpt lat="44.5432" lon="6.49253">
        <ele>814.25</ele>
        <time>2022-10-08T11:40:41Z</time>
      </trkpt>
      <trkpt lat="44.54315" lon="6.4926">
        <ele>814.24</ele>
        <time>2022-10-08T11:40:42Z</time>
      </trkpt>
      <trkpt lat="44.5431" lon="6.49267">
        <ele>814.28</ele>
        <time>2022-10-08T11:40:43Z</time>
      </trkpt>
      <trkpt lat="44.54306" lon="6.49275">
        <ele>814.26</ele>
        <time>2022-10-08T11:40:44Z</time>
      </trkpt>
      <trkpt lat="44.54304" lon="6.49285">
        <ele>815.23</ele>
        <time>2022-10-08T11:40:45Z</time>
      </trkpt>
      <trkpt lat="44.54304" lon="6.49296">
        <ele>815.23</ele>
        <time>2022-10-08T11:40:46Z</time>
      </trkpt>
      <trkpt lat="44.54304" lon="6.49309">
        <ele>815.21</ele>
        <time>2022-10-08T11:40:47Z</time>
      </trkpt>
      <trkpt lat="44.54302" lon="6.49324">
        <ele>816.67</ele>
        <time>2022-10-08T11:40:48Z</time>
      </trkpt>
      <trkpt lat="44.54299" lon="6.49339">
        <ele>816.65</ele>
        <time>2022-10-08T11:40:49Z</time>
      </trkpt>
      <trkpt lat="44.54294" lon="6.49355">
        <ele>817.97</ele>
        <time>2022-10-08T11:40:50Z</time>
      </trkpt>
      <trkpt lat="44.54289" lon="6.49372">
        <ele>819.11</ele>
        <time>2022-10-08T11:40:51Z</time>
      </trkpt>
      <trkpt lat="44.54273" lon="6.49427">
        <ele>821.01</ele>
        <time>2022-10-08T11:40:54Z</time>
      </trkpt>
      <trkpt lat="44.54254" lon="6.49493">
        <ele>826.25</ele>
        <time>2022-10-08T11:40:57Z</time>
      </trkpt>
      <trkpt lat="44.54231" lon="6.49563">
        <ele>830.42</ele>
        <time>2022-10-08T11:41:00Z</time>
      </trkpt>
      <trkpt lat="44.54216" lon="6.4961">
        <ele>833.9</ele>
        <time>2022-10-08T11:41:02Z</time>
      </trkpt>
      <trkpt lat="44.54198" lon="6.4967">
        <ele>835.78</ele>
        <time>2022-10-08T11:41:05Z</time>
      </trkpt>
      <trkpt lat="44.54174" lon="6.49743">
        <ele>836.1</ele>
        <time>2022-10-08T11:41:10Z</time>
      </trkpt>
      <trkpt lat="44.54169" lon="6.49752">
        <ele>836.16</ele>
        <time>2022-10-08T11:41:11Z</time>
      </trkpt>
      <trkpt lat="44.54165" lon="6.4976">
        <ele>836.17</ele>
        <time>2022-10-08T11:41:12Z</time>
      </trkpt>
      <trkpt lat="44.54163" lon="6.49766">
        <ele>836.17</ele>
        <time>2022-10-08T11:41:13Z</time>
      </trkpt>
      <trkpt lat="44.54163" lon="6.49773">
        <ele>836.21</ele>
        <time>2022-10-08T11:41:14Z</time>
      </trkpt>
      <trkpt lat="44.54165" lon="6.49778">
        <ele>836.18</ele>
        <time>2022-10-08T11:41:15Z</time>
      </trkpt>
      <trkpt lat="44.54171" lon="6.49782">
        <ele>836.17</ele>
        <time>2022-10-08T11:41:16Z</time>
      </trkpt>
      <trkpt lat="44.54178" lon="6.49784">
        <ele>836.1</ele>
        <time>2022-10-08T11:41:17Z</time>
      </trkpt>
      <trkpt lat="44.54187" lon="6.49783">
        <ele>836.1</ele>
        <time>2022-10-08T11:41:18Z</time>
      </trkpt>
      <trkpt lat="44.54199" lon="6.49781">
        <ele>836.07</ele>
        <time>2022-10-08T11:41:19Z</time>
      </trkpt>
      <trkpt lat="44.54241" lon="6.49779">
        <ele>832.82</ele>
        <time>2022-10-08T11:41:22Z</time>
      </trkpt>
      <trkpt lat="44.54254" lon="6.49781">
        <ele>832.77</ele>
        <time>2022-10-08T11:41:23Z</time>
      </trkpt>
      <trkpt lat="44.54267" lon="6.49786">
        <ele>831.59</ele>
        <time>2022-10-08T11:41:24Z</time>
      </trkpt>
      <trkpt lat="44.54281" lon="6.49793">
        <ele>831.6</ele>
        <time>2022-10-08T11:41:25Z</time>
      </trkpt>
      <trkpt lat="44.5436" lon="6.49819">
        <ele>831.55</ele>
        <time>2022-10-08T11:41:30Z</time>
      </trkpt>
      <trkpt lat="44.54377" lon="6.49818">
        <ele>831.57</ele>
        <time>2022-10-08T11:41:31Z</time>
      </trkpt>
      <trkpt lat="44.54393" lon="6.49816">
        <ele>830.97</ele>
        <time>2022-10-08T11:41:32Z</time>
      </trkpt>
      <trkpt lat="44.54455" lon="6.49805">
        <ele>828.99</ele>
        <time>2022-10-08T11:41:36Z</time>
      </trkpt>
      <trkpt lat="44.54469" lon="6.49805">
        <ele>828.97</ele>
        <time>2022-10-08T11:41:37Z</time>
      </trkpt>
      <trkpt lat="44.54484" lon="6.49808">
        <ele>828.14</ele>
        <time>2022-10-08T11:41:38Z</time>
      </trkpt>
      <trkpt lat="44.5454" lon="6.49829">
        <ele>827.29</ele>
        <time>2022-10-08T11:41:42Z</time>
      </trkpt>
      <trkpt lat="44.54553" lon="6.49838">
        <ele>827.29</ele>
        <time>2022-10-08T11:41:43Z</time>
      </trkpt>
      <trkpt lat="44.54565" lon="6.4985">
        <ele>827.27</ele>
        <time>2022-10-08T11:41:44Z</time>
      </trkpt>
      <trkpt lat="44.54656" lon="6.49956">
        <ele>826.14</ele>
        <time>2022-10-08T11:41:52Z</time>
      </trkpt>
      <trkpt lat="44.54667" lon="6.49964">
        <ele>826.16</ele>
        <time>2022-10-08T11:41:53Z</time>
      </trkpt>
      <trkpt lat="44.54678" lon="6.4997">
        <ele>824.74</ele>
        <time>2022-10-08T11:41:54Z</time>
      </trkpt>
      <trkpt lat="44.54691" lon="6.49975">
        <ele>823.83</ele>
        <time>2022-10-08T11:41:55Z</time>
      </trkpt>
      <trkpt lat="44.54703" lon="6.49977">
        <ele>823.83</ele>
        <time>2022-10-08T11:41:56Z</time>
      </trkpt>
      <trkpt lat="44.54717" lon="6.49977">
        <ele>823.09</ele>
        <time>2022-10-08T11:41:57Z</time>
      </trkpt>
      <trkpt lat="44.5473" lon="6.49978">
        <ele>823.07</ele>
        <time>2022-10-08T11:41:58Z</time>
      </trkpt>
      <trkpt lat="44.54744" lon="6.4998">
        <ele>823.08</ele>
        <time>2022-10-08T11:41:59Z</time>
      </trkpt>
      <trkpt lat="44.54757" lon="6.49985">
        <ele>821.83</ele>
        <time>2022-10-08T11:42:00Z</time>
      </trkpt>
      <trkpt lat="44.5477" lon="6.49994">
        <ele>821.83</ele>
        <time>2022-10-08T11:42:01Z</time>
      </trkpt>
      <trkpt lat="44.54782" lon="6.50004">
        <ele>821.83</ele>
        <time>2022-10-08T11:42:02Z</time>
      </trkpt>
      <trkpt lat="44.54794" lon="6.50017">
        <ele>820.83</ele>
        <time>2022-10-08T11:42:03Z</time>
      </trkpt>
      <trkpt lat="44.54872" lon="6.50084">
        <ele>819.21</ele>
        <time>2022-10-08T11:42:09Z</time>
      </trkpt>
      <trkpt lat="44.54913" lon="6.50112">
        <ele>816.86</ele>
        <time>2022-10-08T11:42:12Z</time>
      </trkpt>
      <trkpt lat="44.55016" lon="6.5018">
        <ele>814.98</ele>
        <time>2022-10-08T11:42:20Z</time>
      </trkpt>
      <trkpt lat="44.55132" lon="6.50314">
        <ele>814.34</ele>
        <time>2022-10-08T11:42:29Z</time>
      </trkpt>
      <trkpt lat="44.55266" lon="6.50454">
        <ele>814.37</ele>
        <time>2022-10-08T11:42:39Z</time>
      </trkpt>
      <trkpt lat="44.55337" lon="6.5049">
        <ele>812.23</ele>
        <time>2022-10-08T11:42:43Z</time>
      </trkpt>
      <trkpt lat="44.55373" lon="6.50507">
        <ele>808.5</ele>
        <time>2022-10-08T11:42:45Z</time>
      </trkpt>
      <trkpt lat="44.55407" lon="6.50529">
        <ele>807.58</ele>
        <time>2022-10-08T11:42:47Z</time>
      </trkpt>
      <trkpt lat="44.5549" lon="6.50599">
        <ele>804.71</ele>
        <time>2022-10-08T11:42:52Z</time>
      </trkpt>
      <trkpt lat="44.55642" lon="6.50719">
        <ele>803.54</ele>
        <time>2022-10-08T11:43:02Z</time>
      </trkpt>
      <trkpt lat="44.55804" lon="6.50836">
        <ele>803.83</ele>
        <time>2022-10-08T11:43:13Z</time>
      </trkpt>
      <trkpt lat="44.5583" lon="6.50857">
        <ele>807.5</ele>
        <time>2022-10-08T11:43:15Z</time>
      </trkpt>
      <trkpt lat="44.55843" lon="6.50862">
        <ele>807.52</ele>
        <time>2022-10-08T11:43:16Z</time>
      </trkpt>
      <trkpt lat="44.55857" lon="6.50866">
        <ele>808.89</ele>
        <time>2022-10-08T11:43:17Z</time>
      </trkpt>
      <trkpt lat="44.5587" lon="6.5087">
        <ele>808.91</ele>
        <time>2022-10-08T11:43:18Z</time>
      </trkpt>
      <trkpt lat="44.55909" lon="6.50885">
        <ele>806.25</ele>
        <time>2022-10-08T11:43:21Z</time>
      </trkpt>
      <trkpt lat="44.55919" lon="6.50894">
        <ele>804.95</ele>
        <time>2022-10-08T11:43:22Z</time>
      </trkpt>
      <trkpt lat="44.55928" lon="6.50905">
        <ele>803.95</ele>
        <time>2022-10-08T11:43:23Z</time>
      </trkpt>
      <trkpt lat="44.55937" lon="6.50918">
        <ele>802.72</ele>
        <time>2022-10-08T11:43:24Z</time>
      </trkpt>
      <trkpt lat="44.55944" lon="6.50934">
        <ele>801.72</ele>
        <time>2022-10-08T11:43:25Z</time>
      </trkpt>
      <trkpt lat="44.5595" lon="6.50951">
        <ele>800.67</ele>
        <time>2022-10-08T11:43:26Z</time>
      </trkpt>
      <trkpt lat="44.55955" lon="6.50969">
        <ele>800.64</ele>
        <time>2022-10-08T11:43:27Z</time>
      </trkpt>
      <trkpt lat="44.55959" lon="6.5099">
        <ele>799.4</ele>
        <time>2022-10-08T11:43:28Z</time>
      </trkpt>
      <trkpt lat="44.55961" lon="6.51011">
        <ele>799.57</ele>
        <time>2022-10-08T11:43:29Z</time>
      </trkpt>
      <trkpt lat="44.55963" lon="6.51033">
        <ele>799.52</ele>
        <time>2022-10-08T11:43:30Z</time>
      </trkpt>
      <trkpt lat="44.55969" lon="6.51077">
        <ele>798.27</ele>
        <time>2022-10-08T11:43:32Z</time>
      </trkpt>
      <trkpt lat="44.55974" lon="6.51096">
        <ele>798.13</ele>
        <time>2022-10-08T11:43:33Z</time>
      </trkpt>
      <trkpt lat="44.55981" lon="6.51115">
        <ele>798.16</ele>
        <time>2022-10-08T11:43:34Z</time>
      </trkpt>
      <trkpt lat="44.55989" lon="6.51133">
        <ele>798.1</ele>
        <time>2022-10-08T11:43:35Z</time>
      </trkpt>
      <trkpt lat="44.55998" lon="6.51151">
        <ele>798.1</ele>
        <time>2022-10-08T11:43:36Z</time>
      </trkpt>
      <trkpt lat="44.56007" lon="6.51168">
        <ele>798.09</ele>
        <time>2022-10-08T11:43:37Z</time>
      </trkpt>
      <trkpt lat="44.56066" lon="6.51274">
        <ele>798.39</ele>
        <time>2022-10-08T11:43:44Z</time>
      </trkpt>
      <trkpt lat="44.56088" lon="6.51305">
        <ele>797.43</ele>
        <time>2022-10-08T11:43:48Z</time>
      </trkpt>
      <trkpt lat="44.56174" lon="6.51386">
        <ele>799.77</ele>
        <time>2022-10-08T11:43:56Z</time>
      </trkpt>
      <trkpt lat="44.56184" lon="6.51399">
        <ele>799.79</ele>
        <time>2022-10-08T11:43:57Z</time>
      </trkpt>
      <trkpt lat="44.56193" lon="6.51413">
        <ele>801</ele>
        <time>2022-10-08T11:43:58Z</time>
      </trkpt>
      <trkpt lat="44.56201" lon="6.51431">
        <ele>801.82</ele>
        <time>2022-10-08T11:43:59Z</time>
      </trkpt>
      <trkpt lat="44.56206" lon="6.51451">
        <ele>801.86</ele>
        <time>2022-10-08T11:44:00Z</time>
      </trkpt>
      <trkpt lat="44.56212" lon="6.51472">
        <ele>804.49</ele>
        <time>2022-10-08T11:44:01Z</time>
      </trkpt>
      <trkpt lat="44.56227" lon="6.5154">
        <ele>808.09</ele>
        <time>2022-10-08T11:44:04Z</time>
      </trkpt>
      <trkpt lat="44.56243" lon="6.51609">
        <ele>810.27</ele>
        <time>2022-10-08T11:44:07Z</time>
      </trkpt>
      <trkpt lat="44.56252" lon="6.51651">
        <ele>811.69</ele>
        <time>2022-10-08T11:44:09Z</time>
      </trkpt>
      <trkpt lat="44.56266" lon="6.51709">
        <ele>813.16</ele>
        <time>2022-10-08T11:44:12Z</time>
      </trkpt>
      <trkpt lat="44.56272" lon="6.51728">
        <ele>814.79</ele>
        <time>2022-10-08T11:44:13Z</time>
      </trkpt>
      <trkpt lat="44.5628" lon="6.51745">
        <ele>814.79</ele>
        <time>2022-10-08T11:44:14Z</time>
      </trkpt>
      <trkpt lat="44.5629" lon="6.51762">
        <ele>816.01</ele>
        <time>2022-10-08T11:44:15Z</time>
      </trkpt>
      <trkpt lat="44.56323" lon="6.51812">
        <ele>818.53</ele>
        <time>2022-10-08T11:44:18Z</time>
      </trkpt>
      <trkpt lat="44.56346" lon="6.51846">
        <ele>821.79</ele>
        <time>2022-10-08T11:44:20Z</time>
      </trkpt>
      <trkpt lat="44.56355" lon="6.51862">
        <ele>821.78</ele>
        <time>2022-10-08T11:44:21Z</time>
      </trkpt>
      <trkpt lat="44.56363" lon="6.51879">
        <ele>822.95</ele>
        <time>2022-10-08T11:44:22Z</time>
      </trkpt>
      <trkpt lat="44.56377" lon="6.51918">
        <ele>826.12</ele>
        <time>2022-10-08T11:44:24Z</time>
      </trkpt>
      <trkpt lat="44.564" lon="6.51983">
        <ele>830.5</ele>
        <time>2022-10-08T11:44:27Z</time>
      </trkpt>
      <trkpt lat="44.56422" lon="6.52045">
        <ele>833.97</ele>
        <time>2022-10-08T11:44:30Z</time>
      </trkpt>
      <trkpt lat="44.56439" lon="6.52105">
        <ele>836.96</ele>
        <time>2022-10-08T11:44:33Z</time>
      </trkpt>
      <trkpt lat="44.56442" lon="6.52125">
        <ele>838.35</ele>
        <time>2022-10-08T11:44:34Z</time>
      </trkpt>
      <trkpt lat="44.56443" lon="6.52146">
        <ele>839.41</ele>
        <time>2022-10-08T11:44:35Z</time>
      </trkpt>
      <trkpt lat="44.56443" lon="6.52167">
        <ele>840.69</ele>
        <time>2022-10-08T11:44:36Z</time>
      </trkpt>
      <trkpt lat="44.56443" lon="6.52209">
        <ele>843.16</ele>
        <time>2022-10-08T11:44:38Z</time>
      </trkpt>
      <trkpt lat="44.56444" lon="6.52229">
        <ele>843.16</ele>
        <time>2022-10-08T11:44:39Z</time>
      </trkpt>
      <trkpt lat="44.56449" lon="6.52263">
        <ele>844.29</ele>
        <time>2022-10-08T11:44:41Z</time>
      </trkpt>
      <trkpt lat="44.56454" lon="6.52277">
        <ele>844.29</ele>
        <time>2022-10-08T11:44:42Z</time>
      </trkpt>
      <trkpt lat="44.56459" lon="6.52289">
        <ele>845.82</ele>
        <time>2022-10-08T11:44:43Z</time>
      </trkpt>
      <trkpt lat="44.56473" lon="6.52313">
        <ele>846.69</ele>
        <time>2022-10-08T11:44:45Z</time>
      </trkpt>
      <trkpt lat="44.56487" lon="6.52329">
        <ele>846.68</ele>
        <time>2022-10-08T11:44:47Z</time>
      </trkpt>
      <trkpt lat="44.56496" lon="6.52333">
        <ele>847.66</ele>
        <time>2022-10-08T11:44:48Z</time>
      </trkpt>
      <trkpt lat="44.56506" lon="6.52332">
        <ele>847.62</ele>
        <time>2022-10-08T11:44:49Z</time>
      </trkpt>
      <trkpt lat="44.56515" lon="6.52327">
        <ele>849.16</ele>
        <time>2022-10-08T11:44:50Z</time>
      </trkpt>
      <trkpt lat="44.56524" lon="6.52318">
        <ele>850.36</ele>
        <time>2022-10-08T11:44:51Z</time>
      </trkpt>
      <trkpt lat="44.56532" lon="6.52306">
        <ele>850.31</ele>
        <time>2022-10-08T11:44:52Z</time>
      </trkpt>
      <trkpt lat="44.56539" lon="6.52293">
        <ele>852.2</ele>
        <time>2022-10-08T11:44:53Z</time>
      </trkpt>
      <trkpt lat="44.56563" lon="6.52247">
        <ele>855.73</ele>
        <time>2022-10-08T11:44:56Z</time>
      </trkpt>
      <trkpt lat="44.56576" lon="6.52222">
        <ele>856.58</ele>
        <time>2022-10-08T11:44:58Z</time>
      </trkpt>
      <trkpt lat="44.56582" lon="6.52213">
        <ele>857.39</ele>
        <time>2022-10-08T11:44:59Z</time>
      </trkpt>
      <trkpt lat="44.56589" lon="6.52205">
        <ele>857.45</ele>
        <time>2022-10-08T11:45:00Z</time>
      </trkpt>
      <trkpt lat="44.56595" lon="6.52199">
        <ele>857.66</ele>
        <time>2022-10-08T11:45:01Z</time>
      </trkpt>
      <trkpt lat="44.56624" lon="6.52178">
        <ele>860.9</ele>
        <time>2022-10-08T11:45:05Z</time>
      </trkpt>
      <trkpt lat="44.56631" lon="6.52173">
        <ele>860.9</ele>
        <time>2022-10-08T11:45:06Z</time>
      </trkpt>
      <trkpt lat="44.56654" lon="6.52159">
        <ele>863.21</ele>
        <time>2022-10-08T11:45:09Z</time>
      </trkpt>
      <trkpt lat="44.56673" lon="6.52146">
        <ele>864.85</ele>
        <time>2022-10-08T11:45:11Z</time>
      </trkpt>
      <trkpt lat="44.56705" lon="6.52129">
        <ele>867.83</ele>
        <time>2022-10-08T11:45:14Z</time>
      </trkpt>
      <trkpt lat="44.56716" lon="6.52127">
        <ele>868.76</ele>
        <time>2022-10-08T11:45:15Z</time>
      </trkpt>
      <trkpt lat="44.56728" lon="6.52128">
        <ele>869.75</ele>
        <time>2022-10-08T11:45:16Z</time>
      </trkpt>
      <trkpt lat="44.56739" lon="6.52133">
        <ele>870.69</ele>
        <time>2022-10-08T11:45:17Z</time>
      </trkpt>
      <trkpt lat="44.56751" lon="6.5214">
        <ele>872.06</ele>
        <time>2022-10-08T11:45:18Z</time>
      </trkpt>
      <trkpt lat="44.56764" lon="6.52148">
        <ele>873.31</ele>
        <time>2022-10-08T11:45:19Z</time>
      </trkpt>
      <trkpt lat="44.56777" lon="6.52157">
        <ele>873.22</ele>
        <time>2022-10-08T11:45:20Z</time>
      </trkpt>
      <trkpt lat="44.56807" lon="6.52174">
        <ele>876.46</ele>
        <time>2022-10-08T11:45:22Z</time>
      </trkpt>
      <trkpt lat="44.56823" lon="6.52183">
        <ele>876.46</ele>
        <time>2022-10-08T11:45:23Z</time>
      </trkpt>
      <trkpt lat="44.56857" lon="6.52203">
        <ele>879.74</ele>
        <time>2022-10-08T11:45:25Z</time>
      </trkpt>
      <trkpt lat="44.56892" lon="6.52223">
        <ele>881.18</ele>
        <time>2022-10-08T11:45:27Z</time>
      </trkpt>
      <trkpt lat="44.56946" lon="6.52251">
        <ele>884.78</ele>
        <time>2022-10-08T11:45:30Z</time>
      </trkpt>
      <trkpt lat="44.56963" lon="6.5226">
        <ele>884.87</ele>
        <time>2022-10-08T11:45:31Z</time>
      </trkpt>
      <trkpt lat="44.57011" lon="6.52282">
        <ele>886.31</ele>
        <time>2022-10-08T11:45:34Z</time>
      </trkpt>
      <trkpt lat="44.57027" lon="6.52285">
        <ele>886.3</ele>
        <time>2022-10-08T11:45:35Z</time>
      </trkpt>
      <trkpt lat="44.57195" lon="6.52302">
        <ele>888.09</ele>
        <time>2022-10-08T11:45:45Z</time>
      </trkpt>
      <trkpt lat="44.57232" lon="6.52315">
        <ele>887.99</ele>
        <time>2022-10-08T11:45:48Z</time>
      </trkpt>
      <trkpt lat="44.57244" lon="6.52323">
        <ele>887.99</ele>
        <time>2022-10-08T11:45:49Z</time>
      </trkpt>
      <trkpt lat="44.57255" lon="6.52334">
        <ele>890.16</ele>
        <time>2022-10-08T11:45:50Z</time>
      </trkpt>
      <trkpt lat="44.57265" lon="6.52347">
        <ele>891.24</ele>
        <time>2022-10-08T11:45:51Z</time>
      </trkpt>
      <trkpt lat="44.57274" lon="6.5236">
        <ele>891.27</ele>
        <time>2022-10-08T11:45:52Z</time>
      </trkpt>
      <trkpt lat="44.57292" lon="6.52381">
        <ele>893.29</ele>
        <time>2022-10-08T11:45:54Z</time>
      </trkpt>
      <trkpt lat="44.57301" lon="6.52389">
        <ele>894.99</ele>
        <time>2022-10-08T11:45:55Z</time>
      </trkpt>
      <trkpt lat="44.57311" lon="6.52393">
        <ele>896.17</ele>
        <time>2022-10-08T11:45:56Z</time>
      </trkpt>
      <trkpt lat="44.57322" lon="6.52394">
        <ele>896.23</ele>
        <time>2022-10-08T11:45:57Z</time>
      </trkpt>
      <trkpt lat="44.57333" lon="6.5239">
        <ele>898.78</ele>
        <time>2022-10-08T11:45:58Z</time>
      </trkpt>
      <trkpt lat="44.57343" lon="6.52384">
        <ele>898.85</ele>
        <time>2022-10-08T11:45:59Z</time>
      </trkpt>
      <trkpt lat="44.57351" lon="6.52375">
        <ele>900.58</ele>
        <time>2022-10-08T11:46:00Z</time>
      </trkpt>
      <trkpt lat="44.57359" lon="6.52365">
        <ele>901.61</ele>
        <time>2022-10-08T11:46:01Z</time>
      </trkpt>
      <trkpt lat="44.57366" lon="6.52357">
        <ele>901.69</ele>
        <time>2022-10-08T11:46:02Z</time>
      </trkpt>
      <trkpt lat="44.57375" lon="6.52352">
        <ele>903.3</ele>
        <time>2022-10-08T11:46:03Z</time>
      </trkpt>
      <trkpt lat="44.57385" lon="6.52351">
        <ele>903.39</ele>
        <time>2022-10-08T11:46:04Z</time>
      </trkpt>
      <trkpt lat="44.57395" lon="6.52354">
        <ele>905.1</ele>
        <time>2022-10-08T11:46:05Z</time>
      </trkpt>
      <trkpt lat="44.57405" lon="6.52361">
        <ele>905.1</ele>
        <time>2022-10-08T11:46:06Z</time>
      </trkpt>
      <trkpt lat="44.57415" lon="6.52372">
        <ele>906.72</ele>
        <time>2022-10-08T11:46:07Z</time>
      </trkpt>
      <trkpt lat="44.57426" lon="6.52384">
        <ele>907.82</ele>
        <time>2022-10-08T11:46:08Z</time>
      </trkpt>
      <trkpt lat="44.57459" lon="6.52426">
        <ele>911.9</ele>
        <time>2022-10-08T11:46:11Z</time>
      </trkpt>
      <trkpt lat="44.57471" lon="6.52438">
        <ele>913.45</ele>
        <time>2022-10-08T11:46:12Z</time>
      </trkpt>
      <trkpt lat="44.57485" lon="6.52448">
        <ele>914.23</ele>
        <time>2022-10-08T11:46:13Z</time>
      </trkpt>
      <trkpt lat="44.57499" lon="6.52456">
        <ele>915.11</ele>
        <time>2022-10-08T11:46:14Z</time>
      </trkpt>
      <trkpt lat="44.57513" lon="6.52461">
        <ele>915.59</ele>
        <time>2022-10-08T11:46:15Z</time>
      </trkpt>
      <trkpt lat="44.57527" lon="6.52463">
        <ele>915.68</ele>
        <time>2022-10-08T11:46:16Z</time>
      </trkpt>
      <trkpt lat="44.5754" lon="6.52464">
        <ele>916.56</ele>
        <time>2022-10-08T11:46:17Z</time>
      </trkpt>
      <trkpt lat="44.57553" lon="6.52467">
        <ele>916.99</ele>
        <time>2022-10-08T11:46:18Z</time>
      </trkpt>
      <trkpt lat="44.57565" lon="6.52472">
        <ele>917.86</ele>
        <time>2022-10-08T11:46:19Z</time>
      </trkpt>
      <trkpt lat="44.57576" lon="6.52481">
        <ele>917.84</ele>
        <time>2022-10-08T11:46:20Z</time>
      </trkpt>
      <trkpt lat="44.57587" lon="6.52492">
        <ele>917.93</ele>
        <time>2022-10-08T11:46:21Z</time>
      </trkpt>
      <trkpt lat="44.57598" lon="6.52505">
        <ele>919.9</ele>
        <time>2022-10-08T11:46:22Z</time>
      </trkpt>
      <trkpt lat="44.57622" lon="6.52532">
        <ele>921.48</ele>
        <time>2022-10-08T11:46:24Z</time>
      </trkpt>
      <trkpt lat="44.57636" lon="6.52543">
        <ele>921.56</ele>
        <time>2022-10-08T11:46:25Z</time>
      </trkpt>
      <trkpt lat="44.57651" lon="6.52553">
        <ele>922.56</ele>
        <time>2022-10-08T11:46:26Z</time>
      </trkpt>
      <trkpt lat="44.57768" lon="6.52608">
        <ele>922.62</ele>
        <time>2022-10-08T11:46:34Z</time>
      </trkpt>
      <trkpt lat="44.57803" lon="6.52628">
        <ele>922.56</ele>
        <time>2022-10-08T11:46:38Z</time>
      </trkpt>
      <trkpt lat="44.57807" lon="6.52634">
        <ele>922.52</ele>
        <time>2022-10-08T11:46:39Z</time>
      </trkpt>
      <trkpt lat="44.57808" lon="6.52642">
        <ele>922.49</ele>
        <time>2022-10-08T11:46:40Z</time>
      </trkpt>
      <trkpt lat="44.57805" lon="6.52649">
        <ele>922.49</ele>
        <time>2022-10-08T11:46:41Z</time>
      </trkpt>
      <trkpt lat="44.57801" lon="6.52654">
        <ele>922.47</ele>
        <time>2022-10-08T11:46:42Z</time>
      </trkpt>
      <trkpt lat="44.57795" lon="6.52656">
        <ele>922.48</ele>
        <time>2022-10-08T11:46:43Z</time>
      </trkpt>
      <trkpt lat="44.57788" lon="6.52655">
        <ele>922.48</ele>
        <time>2022-10-08T11:46:44Z</time>
      </trkpt>
      <trkpt lat="44.5778" lon="6.5265">
        <ele>922.48</ele>
        <time>2022-10-08T11:46:45Z</time>
      </trkpt>
      <trkpt lat="44.57771" lon="6.52643">
        <ele>922.49</ele>
        <time>2022-10-08T11:46:46Z</time>
      </trkpt>
      <trkpt lat="44.57761" lon="6.52637">
        <ele>924.03</ele>
        <time>2022-10-08T11:46:47Z</time>
      </trkpt>
      <trkpt lat="44.5775" lon="6.52631">
        <ele>926.24</ele>
        <time>2022-10-08T11:46:48Z</time>
      </trkpt>
      <trkpt lat="44.57739" lon="6.52628">
        <ele>927.96</ele>
        <time>2022-10-08T11:46:49Z</time>
      </trkpt>
      <trkpt lat="44.57727" lon="6.52628">
        <ele>928.77</ele>
        <time>2022-10-08T11:46:50Z</time>
      </trkpt>
      <trkpt lat="44.57714" lon="6.5263">
        <ele>929.84</ele>
        <time>2022-10-08T11:46:51Z</time>
      </trkpt>
      <trkpt lat="44.57702" lon="6.52634">
        <ele>931.42</ele>
        <time>2022-10-08T11:46:52Z</time>
      </trkpt>
      <trkpt lat="44.57676" lon="6.52639">
        <ele>932.55</ele>
        <time>2022-10-08T11:46:54Z</time>
      </trkpt>
      <trkpt lat="44.57664" lon="6.52637">
        <ele>934.64</ele>
        <time>2022-10-08T11:46:55Z</time>
      </trkpt>
      <trkpt lat="44.57652" lon="6.52633">
        <ele>934.65</ele>
        <time>2022-10-08T11:46:56Z</time>
      </trkpt>
      <trkpt lat="44.57641" lon="6.52627">
        <ele>935.99</ele>
        <time>2022-10-08T11:46:57Z</time>
      </trkpt>
      <trkpt lat="44.57631" lon="6.52623">
        <ele>935.99</ele>
        <time>2022-10-08T11:46:58Z</time>
      </trkpt>
      <trkpt lat="44.57622" lon="6.5262">
        <ele>937.64</ele>
        <time>2022-10-08T11:46:59Z</time>
      </trkpt>
      <trkpt lat="44.57614" lon="6.52622">
        <ele>937.73</ele>
        <time>2022-10-08T11:47:00Z</time>
      </trkpt>
      <trkpt lat="44.57606" lon="6.52627">
        <ele>939.2</ele>
        <time>2022-10-08T11:47:01Z</time>
      </trkpt>
      <trkpt lat="44.576" lon="6.52635">
        <ele>939.29</ele>
        <time>2022-10-08T11:47:02Z</time>
      </trkpt>
      <trkpt lat="44.57597" lon="6.52645">
        <ele>940.42</ele>
        <time>2022-10-08T11:47:03Z</time>
      </trkpt>
      <trkpt lat="44.57598" lon="6.52656">
        <ele>940.45</ele>
        <time>2022-10-08T11:47:04Z</time>
      </trkpt>
      <trkpt lat="44.57601" lon="6.52667">
        <ele>941.81</ele>
        <time>2022-10-08T11:47:05Z</time>
      </trkpt>
      <trkpt lat="44.57607" lon="6.52677">
        <ele>941.74</ele>
        <time>2022-10-08T11:47:06Z</time>
      </trkpt>
      <trkpt lat="44.57616" lon="6.52685">
        <ele>943.33</ele>
        <time>2022-10-08T11:47:07Z</time>
      </trkpt>
      <trkpt lat="44.57627" lon="6.52691">
        <ele>944.52</ele>
        <time>2022-10-08T11:47:08Z</time>
      </trkpt>
      <trkpt lat="44.57638" lon="6.52697">
        <ele>944.67</ele>
        <time>2022-10-08T11:47:09Z</time>
      </trkpt>
      <trkpt lat="44.57673" lon="6.52715">
        <ele>946.5</ele>
        <time>2022-10-08T11:47:12Z</time>
      </trkpt>
      <trkpt lat="44.5771" lon="6.52735">
        <ele>949.67</ele>
        <time>2022-10-08T11:47:15Z</time>
      </trkpt>
      <trkpt lat="44.57746" lon="6.52765">
        <ele>953.82</ele>
        <time>2022-10-08T11:47:18Z</time>
      </trkpt>
      <trkpt lat="44.57758" lon="6.52776">
        <ele>953.81</ele>
        <time>2022-10-08T11:47:19Z</time>
      </trkpt>
      <trkpt lat="44.57782" lon="6.528">
        <ele>956.22</ele>
        <time>2022-10-08T11:47:21Z</time>
      </trkpt>
      <trkpt lat="44.57793" lon="6.52812">
        <ele>957.52</ele>
        <time>2022-10-08T11:47:22Z</time>
      </trkpt>
      <trkpt lat="44.57802" lon="6.52826">
        <ele>959.17</ele>
        <time>2022-10-08T11:47:23Z</time>
      </trkpt>
      <trkpt lat="44.5781" lon="6.52842">
        <ele>959.16</ele>
        <time>2022-10-08T11:47:24Z</time>
      </trkpt>
      <trkpt lat="44.57822" lon="6.5288">
        <ele>962.45</ele>
        <time>2022-10-08T11:47:26Z</time>
      </trkpt>
      <trkpt lat="44.57835" lon="6.52922">
        <ele>965.65</ele>
        <time>2022-10-08T11:47:28Z</time>
      </trkpt>
      <trkpt lat="44.57857" lon="6.5298">
        <ele>969.39</ele>
        <time>2022-10-08T11:47:31Z</time>
      </trkpt>
      <trkpt lat="44.5787" lon="6.53019">
        <ele>971.02</ele>
        <time>2022-10-08T11:47:33Z</time>
      </trkpt>
      <trkpt lat="44.57878" lon="6.53036">
        <ele>973.11</ele>
        <time>2022-10-08T11:47:34Z</time>
      </trkpt>
      <trkpt lat="44.57886" lon="6.53052">
        <ele>973.97</ele>
        <time>2022-10-08T11:47:35Z</time>
      </trkpt>
      <trkpt lat="44.57897" lon="6.53064">
        <ele>975.14</ele>
        <time>2022-10-08T11:47:36Z</time>
      </trkpt>
      <trkpt lat="44.57909" lon="6.53074">
        <ele>975.82</ele>
        <time>2022-10-08T11:47:37Z</time>
      </trkpt>
      <trkpt lat="44.57921" lon="6.53083">
        <ele>975.82</ele>
        <time>2022-10-08T11:47:38Z</time>
      </trkpt>
      <trkpt lat="44.57942" lon="6.53102">
        <ele>977.1</ele>
        <time>2022-10-08T11:47:40Z</time>
      </trkpt>
      <trkpt lat="44.57951" lon="6.53114">
        <ele>978.52</ele>
        <time>2022-10-08T11:47:41Z</time>
      </trkpt>
      <trkpt lat="44.57958" lon="6.53129">
        <ele>978.63</ele>
        <time>2022-10-08T11:47:42Z</time>
      </trkpt>
      <trkpt lat="44.57976" lon="6.53178">
        <ele>980.77</ele>
        <time>2022-10-08T11:47:45Z</time>
      </trkpt>
      <trkpt lat="44.57983" lon="6.53194">
        <ele>982.61</ele>
        <time>2022-10-08T11:47:46Z</time>
      </trkpt>
      <trkpt lat="44.57992" lon="6.53207">
        <ele>982.59</ele>
        <time>2022-10-08T11:47:47Z</time>
      </trkpt>
      <trkpt lat="44.58002" lon="6.53218">
        <ele>984.39</ele>
        <time>2022-10-08T11:47:48Z</time>
      </trkpt>
      <trkpt lat="44.58013" lon="6.53227">
        <ele>985.26</ele>
        <time>2022-10-08T11:47:49Z</time>
      </trkpt>
      <trkpt lat="44.58024" lon="6.53234">
        <ele>985.25</ele>
        <time>2022-10-08T11:47:50Z</time>
      </trkpt>
      <trkpt lat="44.58055" lon="6.53259">
        <ele>988.24</ele>
        <time>2022-10-08T11:47:53Z</time>
      </trkpt>
      <trkpt lat="44.58062" lon="6.5327">
        <ele>988.24</ele>
        <time>2022-10-08T11:47:54Z</time>
      </trkpt>
      <trkpt lat="44.58067" lon="6.53281">
        <ele>989.37</ele>
        <time>2022-10-08T11:47:55Z</time>
      </trkpt>
      <trkpt lat="44.58068" lon="6.53293">
        <ele>990.17</ele>
        <time>2022-10-08T11:47:56Z</time>
      </trkpt>
      <trkpt lat="44.58067" lon="6.53304">
        <ele>990.27</ele>
        <time>2022-10-08T11:47:57Z</time>
      </trkpt>
      <trkpt lat="44.58063" lon="6.53313">
        <ele>991.18</ele>
        <time>2022-10-08T11:47:58Z</time>
      </trkpt>
      <trkpt lat="44.58056" lon="6.53321">
        <ele>991.18</ele>
        <time>2022-10-08T11:47:59Z</time>
      </trkpt>
      <trkpt lat="44.58047" lon="6.53325">
        <ele>992.83</ele>
        <time>2022-10-08T11:48:00Z</time>
      </trkpt>
      <trkpt lat="44.58037" lon="6.53327">
        <ele>994.34</ele>
        <time>2022-10-08T11:48:01Z</time>
      </trkpt>
      <trkpt lat="44.58025" lon="6.53325">
        <ele>995.14</ele>
        <time>2022-10-08T11:48:02Z</time>
      </trkpt>
      <trkpt lat="44.58012" lon="6.5332">
        <ele>997.07</ele>
        <time>2022-10-08T11:48:03Z</time>
      </trkpt>
      <trkpt lat="44.57997" lon="6.53312">
        <ele>998.47</ele>
        <time>2022-10-08T11:48:04Z</time>
      </trkpt>
      <trkpt lat="44.57963" lon="6.53298">
        <ele>1002.67</ele>
        <time>2022-10-08T11:48:06Z</time>
      </trkpt>
      <trkpt lat="44.57929" lon="6.53285">
        <ele>1003.8</ele>
        <time>2022-10-08T11:48:08Z</time>
      </trkpt>
      <trkpt lat="44.57914" lon="6.53278">
        <ele>1005.99</ele>
        <time>2022-10-08T11:48:09Z</time>
      </trkpt>
      <trkpt lat="44.579" lon="6.53269">
        <ele>1006.98</ele>
        <time>2022-10-08T11:48:10Z</time>
      </trkpt>
      <trkpt lat="44.57888" lon="6.5326">
        <ele>1007.09</ele>
        <time>2022-10-08T11:48:11Z</time>
      </trkpt>
      <trkpt lat="44.57877" lon="6.53253">
        <ele>1007.97</ele>
        <time>2022-10-08T11:48:12Z</time>
      </trkpt>
      <trkpt lat="44.57866" lon="6.53248">
        <ele>1007.97</ele>
        <time>2022-10-08T11:48:13Z</time>
      </trkpt>
      <trkpt lat="44.57855" lon="6.53247">
        <ele>1009.25</ele>
        <time>2022-10-08T11:48:14Z</time>
      </trkpt>
      <trkpt lat="44.57843" lon="6.53248">
        <ele>1010.01</ele>
        <time>2022-10-08T11:48:15Z</time>
      </trkpt>
      <trkpt lat="44.57829" lon="6.53249">
        <ele>1011.36</ele>
        <time>2022-10-08T11:48:16Z</time>
      </trkpt>
      <trkpt lat="44.57816" lon="6.5325">
        <ele>1012.35</ele>
        <time>2022-10-08T11:48:17Z</time>
      </trkpt>
      <trkpt lat="44.57802" lon="6.53247">
        <ele>1013.25</ele>
        <time>2022-10-08T11:48:18Z</time>
      </trkpt>
      <trkpt lat="44.5779" lon="6.53243">
        <ele>1014.27</ele>
        <time>2022-10-08T11:48:19Z</time>
      </trkpt>
      <trkpt lat="44.57778" lon="6.53235">
        <ele>1015.36</ele>
        <time>2022-10-08T11:48:20Z</time>
      </trkpt>
      <trkpt lat="44.57767" lon="6.53226">
        <ele>1015.39</ele>
        <time>2022-10-08T11:48:21Z</time>
      </trkpt>
      <trkpt lat="44.57755" lon="6.53219">
        <ele>1017.36</ele>
        <time>2022-10-08T11:48:22Z</time>
      </trkpt>
      <trkpt lat="44.57743" lon="6.53217">
        <ele>1018.25</ele>
        <time>2022-10-08T11:48:23Z</time>
      </trkpt>
      <trkpt lat="44.5773" lon="6.53217">
        <ele>1019.39</ele>
        <time>2022-10-08T11:48:24Z</time>
      </trkpt>
      <trkpt lat="44.57716" lon="6.53221">
        <ele>1020.54</ele>
        <time>2022-10-08T11:48:25Z</time>
      </trkpt>
      <trkpt lat="44.57702" lon="6.53226">
        <ele>1022.53</ele>
        <time>2022-10-08T11:48:26Z</time>
      </trkpt>
      <trkpt lat="44.57688" lon="6.53233">
        <ele>1022.53</ele>
        <time>2022-10-08T11:48:27Z</time>
      </trkpt>
      <trkpt lat="44.57663" lon="6.53246">
        <ele>1025.07</ele>
        <time>2022-10-08T11:48:29Z</time>
      </trkpt>
      <trkpt lat="44.57653" lon="6.53255">
        <ele>1025.17</ele>
        <time>2022-10-08T11:48:30Z</time>
      </trkpt>
      <trkpt lat="44.57645" lon="6.53266">
        <ele>1026.03</ele>
        <time>2022-10-08T11:48:31Z</time>
      </trkpt>
      <trkpt lat="44.57638" lon="6.53278">
        <ele>1027.31</ele>
        <time>2022-10-08T11:48:32Z</time>
      </trkpt>
      <trkpt lat="44.5763" lon="6.53289">
        <ele>1027.32</ele>
        <time>2022-10-08T11:48:33Z</time>
      </trkpt>
      <trkpt lat="44.57622" lon="6.53298">
        <ele>1028.48</ele>
        <time>2022-10-08T11:48:34Z</time>
      </trkpt>
      <trkpt lat="44.57612" lon="6.53303">
        <ele>1029.58</ele>
        <time>2022-10-08T11:48:35Z</time>
      </trkpt>
      <trkpt lat="44.57601" lon="6.53304">
        <ele>1030.48</ele>
        <time>2022-10-08T11:48:36Z</time>
      </trkpt>
      <trkpt lat="44.57588" lon="6.53304">
        <ele>1031.88</ele>
        <time>2022-10-08T11:48:37Z</time>
      </trkpt>
      <trkpt lat="44.57544" lon="6.53303">
        <ele>1036.06</ele>
        <time>2022-10-08T11:48:40Z</time>
      </trkpt>
      <trkpt lat="44.57495" lon="6.53308">
        <ele>1040.28</ele>
        <time>2022-10-08T11:48:43Z</time>
      </trkpt>
      <trkpt lat="44.57461" lon="6.53314">
        <ele>1043.72</ele>
        <time>2022-10-08T11:48:45Z</time>
      </trkpt>
      <trkpt lat="44.57411" lon="6.53314">
        <ele>1048.31</ele>
        <time>2022-10-08T11:48:48Z</time>
      </trkpt>
      <trkpt lat="44.57396" lon="6.5331">
        <ele>1049.46</ele>
        <time>2022-10-08T11:48:49Z</time>
      </trkpt>
      <trkpt lat="44.57383" lon="6.53305">
        <ele>1050.85</ele>
        <time>2022-10-08T11:48:50Z</time>
      </trkpt>
      <trkpt lat="44.57371" lon="6.533">
        <ele>1051.8</ele>
        <time>2022-10-08T11:48:51Z</time>
      </trkpt>
      <trkpt lat="44.5736" lon="6.53298">
        <ele>1052.39</ele>
        <time>2022-10-08T11:48:52Z</time>
      </trkpt>
      <trkpt lat="44.5735" lon="6.533">
        <ele>1053.44</ele>
        <time>2022-10-08T11:48:53Z</time>
      </trkpt>
      <trkpt lat="44.5734" lon="6.53307">
        <ele>1054.8</ele>
        <time>2022-10-08T11:48:54Z</time>
      </trkpt>
      <trkpt lat="44.57331" lon="6.53319">
        <ele>1056.19</ele>
        <time>2022-10-08T11:48:55Z</time>
      </trkpt>
      <trkpt lat="44.57323" lon="6.53333">
        <ele>1057.56</ele>
        <time>2022-10-08T11:48:56Z</time>
      </trkpt>
      <trkpt lat="44.57315" lon="6.5335">
        <ele>1059.15</ele>
        <time>2022-10-08T11:48:57Z</time>
      </trkpt>
      <trkpt lat="44.57289" lon="6.53406">
        <ele>1062.85</ele>
        <time>2022-10-08T11:49:00Z</time>
      </trkpt>
      <trkpt lat="44.5728" lon="6.53425">
        <ele>1062.96</ele>
        <time>2022-10-08T11:49:01Z</time>
      </trkpt>
      <trkpt lat="44.57259" lon="6.53458">
        <ele>1064.14</ele>
        <time>2022-10-08T11:49:03Z</time>
      </trkpt>
      <trkpt lat="44.57248" lon="6.5347">
        <ele>1064.22</ele>
        <time>2022-10-08T11:49:04Z</time>
      </trkpt>
      <trkpt lat="44.57235" lon="6.53478">
        <ele>1065.92</ele>
        <time>2022-10-08T11:49:05Z</time>
      </trkpt>
      <trkpt lat="44.57221" lon="6.53481">
        <ele>1065.95</ele>
        <time>2022-10-08T11:49:06Z</time>
      </trkpt>
      <trkpt lat="44.57208" lon="6.53483">
        <ele>1066.9</ele>
        <time>2022-10-08T11:49:07Z</time>
      </trkpt>
      <trkpt lat="44.57195" lon="6.53487">
        <ele>1068.68</ele>
        <time>2022-10-08T11:49:08Z</time>
      </trkpt>
      <trkpt lat="44.57182" lon="6.53494">
        <ele>1068.78</ele>
        <time>2022-10-08T11:49:09Z</time>
      </trkpt>
      <trkpt lat="44.57171" lon="6.53504">
        <ele>1070.37</ele>
        <time>2022-10-08T11:49:10Z</time>
      </trkpt>
      <trkpt lat="44.57147" lon="6.53524">
        <ele>1072.88</ele>
        <time>2022-10-08T11:49:12Z</time>
      </trkpt>
      <trkpt lat="44.57135" lon="6.5353">
        <ele>1073.71</ele>
        <time>2022-10-08T11:49:13Z</time>
      </trkpt>
      <trkpt lat="44.57122" lon="6.53533">
        <ele>1075.73</ele>
        <time>2022-10-08T11:49:14Z</time>
      </trkpt>
      <trkpt lat="44.57108" lon="6.53534">
        <ele>1077.19</ele>
        <time>2022-10-08T11:49:15Z</time>
      </trkpt>
      <trkpt lat="44.57094" lon="6.53533">
        <ele>1078.38</ele>
        <time>2022-10-08T11:49:16Z</time>
      </trkpt>
      <trkpt lat="44.57045" lon="6.53532">
        <ele>1081.68</ele>
        <time>2022-10-08T11:49:19Z</time>
      </trkpt>
      <trkpt lat="44.57028" lon="6.53534">
        <ele>1082.65</ele>
        <time>2022-10-08T11:49:20Z</time>
      </trkpt>
      <trkpt lat="44.57013" lon="6.53539">
        <ele>1082.76</ele>
        <time>2022-10-08T11:49:21Z</time>
      </trkpt>
      <trkpt lat="44.56984" lon="6.53547">
        <ele>1082.75</ele>
        <time>2022-10-08T11:49:23Z</time>
      </trkpt>
      <trkpt lat="44.56971" lon="6.53547">
        <ele>1083.9</ele>
        <time>2022-10-08T11:49:24Z</time>
      </trkpt>
      <trkpt lat="44.56958" lon="6.53543">
        <ele>1085.26</ele>
        <time>2022-10-08T11:49:25Z</time>
      </trkpt>
      <trkpt lat="44.56918" lon="6.53523">
        <ele>1087.64</ele>
        <time>2022-10-08T11:49:28Z</time>
      </trkpt>
      <trkpt lat="44.56905" lon="6.53514">
        <ele>1087.63</ele>
        <time>2022-10-08T11:49:29Z</time>
      </trkpt>
      <trkpt lat="44.56895" lon="6.53504">
        <ele>1087.71</ele>
        <time>2022-10-08T11:49:30Z</time>
      </trkpt>
      <trkpt lat="44.56877" lon="6.53484">
        <ele>1087.63</ele>
        <time>2022-10-08T11:49:32Z</time>
      </trkpt>
      <trkpt lat="44.56868" lon="6.53478">
        <ele>1087.7</ele>
        <time>2022-10-08T11:49:33Z</time>
      </trkpt>
      <trkpt lat="44.56859" lon="6.53476">
        <ele>1087.56</ele>
        <time>2022-10-08T11:49:34Z</time>
      </trkpt>
      <trkpt lat="44.56851" lon="6.53477">
        <ele>1087.5</ele>
        <time>2022-10-08T11:49:35Z</time>
      </trkpt>
      <trkpt lat="44.56843" lon="6.53481">
        <ele>1087.37</ele>
        <time>2022-10-08T11:49:36Z</time>
      </trkpt>
      <trkpt lat="44.56836" lon="6.53487">
        <ele>1087.28</ele>
        <time>2022-10-08T11:49:37Z</time>
      </trkpt>
      <trkpt lat="44.5683" lon="6.53494">
        <ele>1087.23</ele>
        <time>2022-10-08T11:49:38Z</time>
      </trkpt>
      <trkpt lat="44.56824" lon="6.53502">
        <ele>1087.22</ele>
        <time>2022-10-08T11:49:39Z</time>
      </trkpt>
      <trkpt lat="44.56817" lon="6.53511">
        <ele>1087.28</ele>
        <time>2022-10-08T11:49:40Z</time>
      </trkpt>
      <trkpt lat="44.56812" lon="6.53522">
        <ele>1087.3</ele>
        <time>2022-10-08T11:49:41Z</time>
      </trkpt>
      <trkpt lat="44.56806" lon="6.53533">
        <ele>1087.29</ele>
        <time>2022-10-08T11:49:42Z</time>
      </trkpt>
      <trkpt lat="44.56802" lon="6.53544">
        <ele>1087.28</ele>
        <time>2022-10-08T11:49:43Z</time>
      </trkpt>
      <trkpt lat="44.56798" lon="6.53555">
        <ele>1087.28</ele>
        <time>2022-10-08T11:49:44Z</time>
      </trkpt>
      <trkpt lat="44.56796" lon="6.53565">
        <ele>1087.27</ele>
        <time>2022-10-08T11:49:45Z</time>
      </trkpt>
      <trkpt lat="44.56794" lon="6.53575">
        <ele>1087.27</ele>
        <time>2022-10-08T11:49:46Z</time>
      </trkpt>
      <trkpt lat="44.56782" lon="6.53625">
        <ele>1084.97</ele>
        <time>2022-10-08T11:49:51Z</time>
      </trkpt>
      <trkpt lat="44.56775" lon="6.53646">
        <ele>1085.01</ele>
        <time>2022-10-08T11:49:53Z</time>
      </trkpt>
      <trkpt lat="44.5677" lon="6.53657">
        <ele>1085.04</ele>
        <time>2022-10-08T11:49:54Z</time>
      </trkpt>
      <trkpt lat="44.56763" lon="6.53667">
        <ele>1085.05</ele>
        <time>2022-10-08T11:49:55Z</time>
      </trkpt>
      <trkpt lat="44.56755" lon="6.53677">
        <ele>1085.07</ele>
        <time>2022-10-08T11:49:56Z</time>
      </trkpt>
      <trkpt lat="44.56745" lon="6.53686">
        <ele>1087.83</ele>
        <time>2022-10-08T11:49:57Z</time>
      </trkpt>
      <trkpt lat="44.56733" lon="6.53692">
        <ele>1087.8</ele>
        <time>2022-10-08T11:49:58Z</time>
      </trkpt>
      <trkpt lat="44.5672" lon="6.53697">
        <ele>1087.82</ele>
        <time>2022-10-08T11:49:59Z</time>
      </trkpt>
      <trkpt lat="44.56706" lon="6.53699">
        <ele>1088.69</ele>
        <time>2022-10-08T11:50:00Z</time>
      </trkpt>
      <trkpt lat="44.56692" lon="6.53699">
        <ele>1088.76</ele>
        <time>2022-10-08T11:50:01Z</time>
      </trkpt>
      <trkpt lat="44.56679" lon="6.53699">
        <ele>1088.77</ele>
        <time>2022-10-08T11:50:02Z</time>
      </trkpt>
      <trkpt lat="44.56667" lon="6.537">
        <ele>1088.75</ele>
        <time>2022-10-08T11:50:03Z</time>
      </trkpt>
      <trkpt lat="44.56656" lon="6.53704">
        <ele>1088.76</ele>
        <time>2022-10-08T11:50:04Z</time>
      </trkpt>
      <trkpt lat="44.56647" lon="6.53711">
        <ele>1088.78</ele>
        <time>2022-10-08T11:50:05Z</time>
      </trkpt>
      <trkpt lat="44.56638" lon="6.53722">
        <ele>1089.52</ele>
        <time>2022-10-08T11:50:06Z</time>
      </trkpt>
      <trkpt lat="44.56631" lon="6.53736">
        <ele>1089.52</ele>
        <time>2022-10-08T11:50:07Z</time>
      </trkpt>
      <trkpt lat="44.56625" lon="6.53753">
        <ele>1090.66</ele>
        <time>2022-10-08T11:50:08Z</time>
      </trkpt>
      <trkpt lat="44.56619" lon="6.53771">
        <ele>1090.7</ele>
        <time>2022-10-08T11:50:09Z</time>
      </trkpt>
      <trkpt lat="44.56613" lon="6.53788">
        <ele>1090.69</ele>
        <time>2022-10-08T11:50:10Z</time>
      </trkpt>
      <trkpt lat="44.56602" lon="6.53817">
        <ele>1090.7</ele>
        <time>2022-10-08T11:50:12Z</time>
      </trkpt>
      <trkpt lat="44.56601" lon="6.53831">
        <ele>1090.72</ele>
        <time>2022-10-08T11:50:13Z</time>
      </trkpt>
      <trkpt lat="44.56604" lon="6.53842">
        <ele>1090.71</ele>
        <time>2022-10-08T11:50:14Z</time>
      </trkpt>
      <trkpt lat="44.5661" lon="6.53851">
        <ele>1090.71</ele>
        <time>2022-10-08T11:50:15Z</time>
      </trkpt>
      <trkpt lat="44.5662" lon="6.53858">
        <ele>1090.74</ele>
        <time>2022-10-08T11:50:16Z</time>
      </trkpt>
      <trkpt lat="44.56631" lon="6.53865">
        <ele>1090.74</ele>
        <time>2022-10-08T11:50:17Z</time>
      </trkpt>
      <trkpt lat="44.56643" lon="6.53875">
        <ele>1090.76</ele>
        <time>2022-10-08T11:50:18Z</time>
      </trkpt>
      <trkpt lat="44.56653" lon="6.53886">
        <ele>1090.74</ele>
        <time>2022-10-08T11:50:19Z</time>
      </trkpt>
      <trkpt lat="44.56661" lon="6.53898">
        <ele>1090.77</ele>
        <time>2022-10-08T11:50:20Z</time>
      </trkpt>
      <trkpt lat="44.56667" lon="6.53912">
        <ele>1090.77</ele>
        <time>2022-10-08T11:50:21Z</time>
      </trkpt>
      <trkpt lat="44.5667" lon="6.53926">
        <ele>1090.75</ele>
        <time>2022-10-08T11:50:22Z</time>
      </trkpt>
      <trkpt lat="44.5667" lon="6.53941">
        <ele>1090.71</ele>
        <time>2022-10-08T11:50:23Z</time>
      </trkpt>
      <trkpt lat="44.56666" lon="6.53956">
        <ele>1087.91</ele>
        <time>2022-10-08T11:50:24Z</time>
      </trkpt>
      <trkpt lat="44.56661" lon="6.5397">
        <ele>1087.92</ele>
        <time>2022-10-08T11:50:25Z</time>
      </trkpt>
      <trkpt lat="44.56654" lon="6.53983">
        <ele>1087.91</ele>
        <time>2022-10-08T11:50:26Z</time>
      </trkpt>
      <trkpt lat="44.56642" lon="6.54011">
        <ele>1087.91</ele>
        <time>2022-10-08T11:50:28Z</time>
      </trkpt>
      <trkpt lat="44.56639" lon="6.54027">
        <ele>1088</ele>
        <time>2022-10-08T11:50:29Z</time>
      </trkpt>
      <trkpt lat="44.56633" lon="6.54061">
        <ele>1090.38</ele>
        <time>2022-10-08T11:50:31Z</time>
      </trkpt>
      <trkpt lat="44.56626" lon="6.54104">
        <ele>1091.16</ele>
        <time>2022-10-08T11:50:34Z</time>
      </trkpt>
      <trkpt lat="44.56627" lon="6.54117">
        <ele>1091.16</ele>
        <time>2022-10-08T11:50:35Z</time>
      </trkpt>
      <trkpt lat="44.56631" lon="6.54127">
        <ele>1091.17</ele>
        <time>2022-10-08T11:50:36Z</time>
      </trkpt>
      <trkpt lat="44.56638" lon="6.54136">
        <ele>1091.19</ele>
        <time>2022-10-08T11:50:37Z</time>
      </trkpt>
      <trkpt lat="44.56647" lon="6.54145">
        <ele>1091.2</ele>
        <time>2022-10-08T11:50:38Z</time>
      </trkpt>
      <trkpt lat="44.56656" lon="6.54155">
        <ele>1091.21</ele>
        <time>2022-10-08T11:50:39Z</time>
      </trkpt>
      <trkpt lat="44.56663" lon="6.54167">
        <ele>1092.66</ele>
        <time>2022-10-08T11:50:40Z</time>
      </trkpt>
      <trkpt lat="44.56667" lon="6.54183">
        <ele>1092.69</ele>
        <time>2022-10-08T11:50:41Z</time>
      </trkpt>
      <trkpt lat="44.56681" lon="6.54268">
        <ele>1092.71</ele>
        <time>2022-10-08T11:50:46Z</time>
      </trkpt>
      <trkpt lat="44.56681" lon="6.54287">
        <ele>1092.69</ele>
        <time>2022-10-08T11:50:47Z</time>
      </trkpt>
      <trkpt lat="44.5668" lon="6.54306">
        <ele>1092.73</ele>
        <time>2022-10-08T11:50:48Z</time>
      </trkpt>
      <trkpt lat="44.56679" lon="6.54326">
        <ele>1092.71</ele>
        <time>2022-10-08T11:50:49Z</time>
      </trkpt>
      <trkpt lat="44.56676" lon="6.54346">
        <ele>1092.71</ele>
        <time>2022-10-08T11:50:50Z</time>
      </trkpt>
      <trkpt lat="44.56672" lon="6.54367">
        <ele>1092.69</ele>
        <time>2022-10-08T11:50:51Z</time>
      </trkpt>
      <trkpt lat="44.56666" lon="6.54387">
        <ele>1092.65</ele>
        <time>2022-10-08T11:50:52Z</time>
      </trkpt>
      <trkpt lat="44.5666" lon="6.54406">
        <ele>1092.7</ele>
        <time>2022-10-08T11:50:53Z</time>
      </trkpt>
      <trkpt lat="44.56618" lon="6.5452">
        <ele>1093.56</ele>
        <time>2022-10-08T11:50:59Z</time>
      </trkpt>
      <trkpt lat="44.56595" lon="6.5456">
        <ele>1093.57</ele>
        <time>2022-10-08T11:51:02Z</time>
      </trkpt>
      <trkpt lat="44.56587" lon="6.5457">
        <ele>1093.59</ele>
        <time>2022-10-08T11:51:03Z</time>
      </trkpt>
      <trkpt lat="44.56577" lon="6.5458">
        <ele>1093.62</ele>
        <time>2022-10-08T11:51:04Z</time>
      </trkpt>
      <trkpt lat="44.56533" lon="6.54619">
        <ele>1093.6</ele>
        <time>2022-10-08T11:51:08Z</time>
      </trkpt>
      <trkpt lat="44.56503" lon="6.54638">
        <ele>1093.59</ele>
        <time>2022-10-08T11:51:11Z</time>
      </trkpt>
      <trkpt lat="44.56496" lon="6.54646">
        <ele>1091.11</ele>
        <time>2022-10-08T11:51:12Z</time>
      </trkpt>
      <trkpt lat="44.56489" lon="6.54654">
        <ele>1091.06</ele>
        <time>2022-10-08T11:51:13Z</time>
      </trkpt>
      <trkpt lat="44.56482" lon="6.5466">
        <ele>1091.03</ele>
        <time>2022-10-08T11:51:14Z</time>
      </trkpt>
      <trkpt lat="44.56475" lon="6.54664">
        <ele>1091.03</ele>
        <time>2022-10-08T11:51:15Z</time>
      </trkpt>
      <trkpt lat="44.56468" lon="6.54663">
        <ele>1091</ele>
        <time>2022-10-08T11:51:16Z</time>
      </trkpt>
      <trkpt lat="44.5646" lon="6.54659">
        <ele>1091.02</ele>
        <time>2022-10-08T11:51:17Z</time>
      </trkpt>
      <trkpt lat="44.56452" lon="6.54654">
        <ele>1091.04</ele>
        <time>2022-10-08T11:51:18Z</time>
      </trkpt>
      <trkpt lat="44.56444" lon="6.54652">
        <ele>1091.2</ele>
        <time>2022-10-08T11:51:19Z</time>
      </trkpt>
      <trkpt lat="44.56435" lon="6.54655">
        <ele>1091.2</ele>
        <time>2022-10-08T11:51:20Z</time>
      </trkpt>
      <trkpt lat="44.56428" lon="6.54663">
        <ele>1091.21</ele>
        <time>2022-10-08T11:51:21Z</time>
      </trkpt>
      <trkpt lat="44.56421" lon="6.54675">
        <ele>1091.19</ele>
        <time>2022-10-08T11:51:22Z</time>
      </trkpt>
      <trkpt lat="44.56416" lon="6.5469">
        <ele>1091.2</ele>
        <time>2022-10-08T11:51:23Z</time>
      </trkpt>
      <trkpt lat="44.56384" lon="6.54834">
        <ele>1091.25</ele>
        <time>2022-10-08T11:51:32Z</time>
      </trkpt>
      <trkpt lat="44.56378" lon="6.5488">
        <ele>1091.26</ele>
        <time>2022-10-08T11:51:35Z</time>
      </trkpt>
      <trkpt lat="44.56379" lon="6.54893">
        <ele>1091.25</ele>
        <time>2022-10-08T11:51:36Z</time>
      </trkpt>
      <trkpt lat="44.5638" lon="6.54904">
        <ele>1091.28</ele>
        <time>2022-10-08T11:51:37Z</time>
      </trkpt>
      <trkpt lat="44.56382" lon="6.54914">
        <ele>1091.26</ele>
        <time>2022-10-08T11:51:38Z</time>
      </trkpt>
      <trkpt lat="44.56385" lon="6.54923">
        <ele>1091.33</ele>
        <time>2022-10-08T11:51:39Z</time>
      </trkpt>
      <trkpt lat="44.56387" lon="6.54931">
        <ele>1091.32</ele>
        <time>2022-10-08T11:51:40Z</time>
      </trkpt>
      <trkpt lat="44.5639" lon="6.54939">
        <ele>1091.25</ele>
        <time>2022-10-08T11:51:41Z</time>
      </trkpt>
      <trkpt lat="44.56396" lon="6.54965">
        <ele>1091.28</ele>
        <time>2022-10-08T11:51:44Z</time>
      </trkpt>
      <trkpt lat="44.56396" lon="6.54975">
        <ele>1091.28</ele>
        <time>2022-10-08T11:51:45Z</time>
      </trkpt>
      <trkpt lat="44.56393" lon="6.54984">
        <ele>1094.03</ele>
        <time>2022-10-08T11:51:46Z</time>
      </trkpt>
      <trkpt lat="44.56388" lon="6.54989">
        <ele>1094.04</ele>
        <time>2022-10-08T11:51:47Z</time>
      </trkpt>
      <trkpt lat="44.56381" lon="6.54992">
        <ele>1095.37</ele>
        <time>2022-10-08T11:51:48Z</time>
      </trkpt>
      <trkpt lat="44.56373" lon="6.54991">
        <ele>1096.2</ele>
        <time>2022-10-08T11:51:49Z</time>
      </trkpt>
      <trkpt lat="44.56365" lon="6.54989">
        <ele>1096.22</ele>
        <time>2022-10-08T11:51:50Z</time>
      </trkpt>
      <trkpt lat="44.56357" lon="6.54987">
        <ele>1097.95</ele>
        <time>2022-10-08T11:51:51Z</time>
      </trkpt>
      <trkpt lat="44.56348" lon="6.54987">
        <ele>1098.77</ele>
        <time>2022-10-08T11:51:52Z</time>
      </trkpt>
      <trkpt lat="44.5634" lon="6.54991">
        <ele>1098.82</ele>
        <time>2022-10-08T11:51:53Z</time>
      </trkpt>
      <trkpt lat="44.56333" lon="6.54996">
        <ele>1099.68</ele>
        <time>2022-10-08T11:51:54Z</time>
      </trkpt>
      <trkpt lat="44.56325" lon="6.55002">
        <ele>1099.54</ele>
        <time>2022-10-08T11:51:55Z</time>
      </trkpt>
      <trkpt lat="44.56318" lon="6.55009">
        <ele>1100.78</ele>
        <time>2022-10-08T11:51:56Z</time>
      </trkpt>
      <trkpt lat="44.56301" lon="6.55021">
        <ele>1101.89</ele>
        <time>2022-10-08T11:51:58Z</time>
      </trkpt>
      <trkpt lat="44.56291" lon="6.55026">
        <ele>1102.91</ele>
        <time>2022-10-08T11:51:59Z</time>
      </trkpt>
      <trkpt lat="44.56281" lon="6.55029">
        <ele>1102.91</ele>
        <time>2022-10-08T11:52:00Z</time>
      </trkpt>
      <trkpt lat="44.5627" lon="6.55032">
        <ele>1104.16</ele>
        <time>2022-10-08T11:52:01Z</time>
      </trkpt>
      <trkpt lat="44.56259" lon="6.55032">
        <ele>1105.41</ele>
        <time>2022-10-08T11:52:02Z</time>
      </trkpt>
      <trkpt lat="44.56248" lon="6.55032">
        <ele>1106.3</ele>
        <time>2022-10-08T11:52:03Z</time>
      </trkpt>
      <trkpt lat="44.56239" lon="6.55035">
        <ele>1106.38</ele>
        <time>2022-10-08T11:52:04Z</time>
      </trkpt>
      <trkpt lat="44.56231" lon="6.55041">
        <ele>1107.55</ele>
        <time>2022-10-08T11:52:05Z</time>
      </trkpt>
      <trkpt lat="44.56227" lon="6.55049">
        <ele>1107.56</ele>
        <time>2022-10-08T11:52:06Z</time>
      </trkpt>
      <trkpt lat="44.56225" lon="6.55062">
        <ele>1108.92</ele>
        <time>2022-10-08T11:52:07Z</time>
      </trkpt>
      <trkpt lat="44.56226" lon="6.55076">
        <ele>1109.89</ele>
        <time>2022-10-08T11:52:08Z</time>
      </trkpt>
      <trkpt lat="44.56228" lon="6.55093">
        <ele>1111.42</ele>
        <time>2022-10-08T11:52:09Z</time>
      </trkpt>
      <trkpt lat="44.56232" lon="6.55128">
        <ele>1112.54</ele>
        <time>2022-10-08T11:52:11Z</time>
      </trkpt>
      <trkpt lat="44.56232" lon="6.55145">
        <ele>1114.53</ele>
        <time>2022-10-08T11:52:12Z</time>
      </trkpt>
      <trkpt lat="44.56231" lon="6.55163">
        <ele>1114.56</ele>
        <time>2022-10-08T11:52:13Z</time>
      </trkpt>
      <trkpt lat="44.56227" lon="6.55199">
        <ele>1114.89</ele>
        <time>2022-10-08T11:52:15Z</time>
      </trkpt>
      <trkpt lat="44.56223" lon="6.55217">
        <ele>1116.56</ele>
        <time>2022-10-08T11:52:16Z</time>
      </trkpt>
      <trkpt lat="44.56219" lon="6.55236">
        <ele>1116.56</ele>
        <time>2022-10-08T11:52:17Z</time>
      </trkpt>
      <trkpt lat="44.56203" lon="6.55283">
        <ele>1116.61</ele>
        <time>2022-10-08T11:52:20Z</time>
      </trkpt>
      <trkpt lat="44.56196" lon="6.55297">
        <ele>1116.67</ele>
        <time>2022-10-08T11:52:21Z</time>
      </trkpt>
      <trkpt lat="44.56188" lon="6.5531">
        <ele>1116.65</ele>
        <time>2022-10-08T11:52:22Z</time>
      </trkpt>
      <trkpt lat="44.56158" lon="6.55349">
        <ele>1116.64</ele>
        <time>2022-10-08T11:52:26Z</time>
      </trkpt>
      <trkpt lat="44.56151" lon="6.55352">
        <ele>1116.64</ele>
        <time>2022-10-08T11:52:27Z</time>
      </trkpt>
      <trkpt lat="44.56144" lon="6.55352">
        <ele>1116.61</ele>
        <time>2022-10-08T11:52:28Z</time>
      </trkpt>
      <trkpt lat="44.56137" lon="6.55349">
        <ele>1116.58</ele>
        <time>2022-10-08T11:52:29Z</time>
      </trkpt>
      <trkpt lat="44.56132" lon="6.55344">
        <ele>1116.57</ele>
        <time>2022-10-08T11:52:30Z</time>
      </trkpt>
      <trkpt lat="44.5613" lon="6.55336">
        <ele>1116.57</ele>
        <time>2022-10-08T11:52:31Z</time>
      </trkpt>
      <trkpt lat="44.56131" lon="6.55325">
        <ele>1116.57</ele>
        <time>2022-10-08T11:52:32Z</time>
      </trkpt>
      <trkpt lat="44.56132" lon="6.5531">
        <ele>1116.59</ele>
        <time>2022-10-08T11:52:33Z</time>
      </trkpt>
      <trkpt lat="44.56135" lon="6.55293">
        <ele>1116.59</ele>
        <time>2022-10-08T11:52:34Z</time>
      </trkpt>
      <trkpt lat="44.56138" lon="6.55276">
        <ele>1117.39</ele>
        <time>2022-10-08T11:52:35Z</time>
      </trkpt>
      <trkpt lat="44.56139" lon="6.55261">
        <ele>1117.37</ele>
        <time>2022-10-08T11:52:36Z</time>
      </trkpt>
      <trkpt lat="44.56137" lon="6.55249">
        <ele>1117.4</ele>
        <time>2022-10-08T11:52:37Z</time>
      </trkpt>
      <trkpt lat="44.56131" lon="6.5524">
        <ele>1117.41</ele>
        <time>2022-10-08T11:52:38Z</time>
      </trkpt>
      <trkpt lat="44.56123" lon="6.55234">
        <ele>1117.37</ele>
        <time>2022-10-08T11:52:39Z</time>
      </trkpt>
      <trkpt lat="44.56114" lon="6.55226">
        <ele>1117.37</ele>
        <time>2022-10-08T11:52:40Z</time>
      </trkpt>
      <trkpt lat="44.56105" lon="6.55215">
        <ele>1118.24</ele>
        <time>2022-10-08T11:52:41Z</time>
      </trkpt>
      <trkpt lat="44.56096" lon="6.55199">
        <ele>1119.42</ele>
        <time>2022-10-08T11:52:42Z</time>
      </trkpt>
      <trkpt lat="44.56088" lon="6.55181">
        <ele>1120.45</ele>
        <time>2022-10-08T11:52:43Z</time>
      </trkpt>
      <trkpt lat="44.5608" lon="6.55163">
        <ele>1121.72</ele>
        <time>2022-10-08T11:52:44Z</time>
      </trkpt>
      <trkpt lat="44.56074" lon="6.55146">
        <ele>1122.54</ele>
        <time>2022-10-08T11:52:45Z</time>
      </trkpt>
      <trkpt lat="44.56065" lon="6.55116">
        <ele>1123.47</ele>
        <time>2022-10-08T11:52:47Z</time>
      </trkpt>
      <trkpt lat="44.56061" lon="6.55105">
        <ele>1124.36</ele>
        <time>2022-10-08T11:52:48Z</time>
      </trkpt>
      <trkpt lat="44.56055" lon="6.55098">
        <ele>1125.28</ele>
        <time>2022-10-08T11:52:49Z</time>
      </trkpt>
      <trkpt lat="44.5605" lon="6.55094">
        <ele>1125.28</ele>
        <time>2022-10-08T11:52:50Z</time>
      </trkpt>
      <trkpt lat="44.56045" lon="6.55095">
        <ele>1126.18</ele>
        <time>2022-10-08T11:52:51Z</time>
      </trkpt>
      <trkpt lat="44.56041" lon="6.55099">
        <ele>1126.17</ele>
        <time>2022-10-08T11:52:52Z</time>
      </trkpt>
      <trkpt lat="44.5604" lon="6.55106">
        <ele>1127.15</ele>
        <time>2022-10-08T11:52:53Z</time>
      </trkpt>
      <trkpt lat="44.5604" lon="6.55116">
        <ele>1128</ele>
        <time>2022-10-08T11:52:54Z</time>
      </trkpt>
      <trkpt lat="44.56043" lon="6.55127">
        <ele>1128.07</ele>
        <time>2022-10-08T11:52:55Z</time>
      </trkpt>
      <trkpt lat="44.56045" lon="6.55141">
        <ele>1129.14</ele>
        <time>2022-10-08T11:52:56Z</time>
      </trkpt>
      <trkpt lat="44.56047" lon="6.55157">
        <ele>1129.18</ele>
        <time>2022-10-08T11:52:57Z</time>
      </trkpt>
      <trkpt lat="44.56049" lon="6.55176">
        <ele>1131.57</ele>
        <time>2022-10-08T11:52:58Z</time>
      </trkpt>
      <trkpt lat="44.56054" lon="6.55195">
        <ele>1132.63</ele>
        <time>2022-10-08T11:52:59Z</time>
      </trkpt>
      <trkpt lat="44.5606" lon="6.55213">
        <ele>1132.63</ele>
        <time>2022-10-08T11:53:00Z</time>
      </trkpt>
      <trkpt lat="44.56065" lon="6.55232">
        <ele>1134.35</ele>
        <time>2022-10-08T11:53:01Z</time>
      </trkpt>
      <trkpt lat="44.5607" lon="6.55252">
        <ele>1135.57</ele>
        <time>2022-10-08T11:53:02Z</time>
      </trkpt>
      <trkpt lat="44.56073" lon="6.55272">
        <ele>1137.5</ele>
        <time>2022-10-08T11:53:03Z</time>
      </trkpt>
      <trkpt lat="44.56075" lon="6.55292">
        <ele>1138.81</ele>
        <time>2022-10-08T11:53:04Z</time>
      </trkpt>
      <trkpt lat="44.56079" lon="6.55327">
        <ele>1139.74</ele>
        <time>2022-10-08T11:53:06Z</time>
      </trkpt>
      <trkpt lat="44.56081" lon="6.5534">
        <ele>1139.74</ele>
        <time>2022-10-08T11:53:07Z</time>
      </trkpt>
      <trkpt lat="44.56082" lon="6.55349">
        <ele>1140.72</ele>
        <time>2022-10-08T11:53:08Z</time>
      </trkpt>
      <trkpt lat="44.56082" lon="6.55356">
        <ele>1140.72</ele>
        <time>2022-10-08T11:53:09Z</time>
      </trkpt>
      <trkpt lat="44.56082" lon="6.55364">
        <ele>1142.21</ele>
        <time>2022-10-08T11:53:10Z</time>
      </trkpt>
      <trkpt lat="44.5608" lon="6.55374">
        <ele>1143.08</ele>
        <time>2022-10-08T11:53:11Z</time>
      </trkpt>
      <trkpt lat="44.56079" lon="6.55386">
        <ele>1143.08</ele>
        <time>2022-10-08T11:53:12Z</time>
      </trkpt>
      <trkpt lat="44.56079" lon="6.55398">
        <ele>1145.03</ele>
        <time>2022-10-08T11:53:13Z</time>
      </trkpt>
      <trkpt lat="44.5608" lon="6.55434">
        <ele>1147.53</ele>
        <time>2022-10-08T11:53:16Z</time>
      </trkpt>
      <trkpt lat="44.56077" lon="6.55445">
        <ele>1148.87</ele>
        <time>2022-10-08T11:53:17Z</time>
      </trkpt>
      <trkpt lat="44.56073" lon="6.55453">
        <ele>1149.89</ele>
        <time>2022-10-08T11:53:18Z</time>
      </trkpt>
      <trkpt lat="44.56066" lon="6.55459">
        <ele>1150.64</ele>
        <time>2022-10-08T11:53:19Z</time>
      </trkpt>
      <trkpt lat="44.56058" lon="6.55463">
        <ele>1152.01</ele>
        <time>2022-10-08T11:53:20Z</time>
      </trkpt>
      <trkpt lat="44.56049" lon="6.55464">
        <ele>1152.98</ele>
        <time>2022-10-08T11:53:21Z</time>
      </trkpt>
      <trkpt lat="44.56039" lon="6.55463">
        <ele>1154.35</ele>
        <time>2022-10-08T11:53:22Z</time>
      </trkpt>
      <trkpt lat="44.56029" lon="6.5546">
        <ele>1155.49</ele>
        <time>2022-10-08T11:53:23Z</time>
      </trkpt>
      <trkpt lat="44.56019" lon="6.55457">
        <ele>1155.49</ele>
        <time>2022-10-08T11:53:24Z</time>
      </trkpt>
      <trkpt lat="44.55998" lon="6.5545">
        <ele>1157.41</ele>
        <time>2022-10-08T11:53:26Z</time>
      </trkpt>
      <trkpt lat="44.5598" lon="6.55446">
        <ele>1160.03</ele>
        <time>2022-10-08T11:53:28Z</time>
      </trkpt>
      <trkpt lat="44.55961" lon="6.55445">
        <ele>1161.88</ele>
        <time>2022-10-08T11:53:30Z</time>
      </trkpt>
      <trkpt lat="44.55951" lon="6.55446">
        <ele>1163.12</ele>
        <time>2022-10-08T11:53:31Z</time>
      </trkpt>
      <trkpt lat="44.55933" lon="6.55451">
        <ele>1164.07</ele>
        <time>2022-10-08T11:53:33Z</time>
      </trkpt>
      <trkpt lat="44.55917" lon="6.55463">
        <ele>1166.06</ele>
        <time>2022-10-08T11:53:35Z</time>
      </trkpt>
      <trkpt lat="44.5591" lon="6.55473">
        <ele>1166.83</ele>
        <time>2022-10-08T11:53:36Z</time>
      </trkpt>
      <trkpt lat="44.55902" lon="6.55486">
        <ele>1167.69</ele>
        <time>2022-10-08T11:53:37Z</time>
      </trkpt>
      <trkpt lat="44.55888" lon="6.55512">
        <ele>1168.83</ele>
        <time>2022-10-08T11:53:39Z</time>
      </trkpt>
      <trkpt lat="44.55868" lon="6.55546">
        <ele>1171.6</ele>
        <time>2022-10-08T11:53:42Z</time>
      </trkpt>
      <trkpt lat="44.55861" lon="6.55552">
        <ele>1172.51</ele>
        <time>2022-10-08T11:53:43Z</time>
      </trkpt>
      <trkpt lat="44.55853" lon="6.55556">
        <ele>1173.55</ele>
        <time>2022-10-08T11:53:44Z</time>
      </trkpt>
      <trkpt lat="44.55844" lon="6.55559">
        <ele>1173.6</ele>
        <time>2022-10-08T11:53:45Z</time>
      </trkpt>
      <trkpt lat="44.55835" lon="6.55562">
        <ele>1174.43</ele>
        <time>2022-10-08T11:53:46Z</time>
      </trkpt>
      <trkpt lat="44.55825" lon="6.55566">
        <ele>1174.42</ele>
        <time>2022-10-08T11:53:47Z</time>
      </trkpt>
      <trkpt lat="44.55817" lon="6.55573">
        <ele>1174.48</ele>
        <time>2022-10-08T11:53:48Z</time>
      </trkpt>
      <trkpt lat="44.55812" lon="6.55581">
        <ele>1174.43</ele>
        <time>2022-10-08T11:53:49Z</time>
      </trkpt>
      <trkpt lat="44.55811" lon="6.55591">
        <ele>1174.46</ele>
        <time>2022-10-08T11:53:50Z</time>
      </trkpt>
      <trkpt lat="44.55812" lon="6.55602">
        <ele>1174.41</ele>
        <time>2022-10-08T11:53:51Z</time>
      </trkpt>
      <trkpt lat="44.55814" lon="6.55614">
        <ele>1174.37</ele>
        <time>2022-10-08T11:53:52Z</time>
      </trkpt>
      <trkpt lat="44.55817" lon="6.55627">
        <ele>1174.4</ele>
        <time>2022-10-08T11:53:53Z</time>
      </trkpt>
      <trkpt lat="44.55817" lon="6.55642">
        <ele>1173.92</ele>
        <time>2022-10-08T11:53:54Z</time>
      </trkpt>
      <trkpt lat="44.55815" lon="6.55658">
        <ele>1175.44</ele>
        <time>2022-10-08T11:53:55Z</time>
      </trkpt>
      <trkpt lat="44.55811" lon="6.55676">
        <ele>1176.75</ele>
        <time>2022-10-08T11:53:56Z</time>
      </trkpt>
      <trkpt lat="44.55806" lon="6.55694">
        <ele>1177.64</ele>
        <time>2022-10-08T11:53:57Z</time>
      </trkpt>
      <trkpt lat="44.55792" lon="6.55756">
        <ele>1181.82</ele>
        <time>2022-10-08T11:54:00Z</time>
      </trkpt>
      <trkpt lat="44.5579" lon="6.55776">
        <ele>1182.78</ele>
        <time>2022-10-08T11:54:01Z</time>
      </trkpt>
      <trkpt lat="44.55788" lon="6.55817">
        <ele>1183.81</ele>
        <time>2022-10-08T11:54:03Z</time>
      </trkpt>
      <trkpt lat="44.55785" lon="6.55859">
        <ele>1186.75</ele>
        <time>2022-10-08T11:54:05Z</time>
      </trkpt>
      <trkpt lat="44.5578" lon="6.55879">
        <ele>1187.76</ele>
        <time>2022-10-08T11:54:06Z</time>
      </trkpt>
      <trkpt lat="44.55765" lon="6.55919">
        <ele>1190</ele>
        <time>2022-10-08T11:54:08Z</time>
      </trkpt>
      <trkpt lat="44.55741" lon="6.55982">
        <ele>1193.66</ele>
        <time>2022-10-08T11:54:11Z</time>
      </trkpt>
      <trkpt lat="44.55735" lon="6.56003">
        <ele>1194.91</ele>
        <time>2022-10-08T11:54:12Z</time>
      </trkpt>
      <trkpt lat="44.55732" lon="6.56025">
        <ele>1195.79</ele>
        <time>2022-10-08T11:54:13Z</time>
      </trkpt>
      <trkpt lat="44.55731" lon="6.56047">
        <ele>1196.58</ele>
        <time>2022-10-08T11:54:14Z</time>
      </trkpt>
      <trkpt lat="44.55731" lon="6.56071">
        <ele>1198.15</ele>
        <time>2022-10-08T11:54:15Z</time>
      </trkpt>
      <trkpt lat="44.55732" lon="6.56121">
        <ele>1201.6</ele>
        <time>2022-10-08T11:54:17Z</time>
      </trkpt>
      <trkpt lat="44.55732" lon="6.56175">
        <ele>1205.53</ele>
        <time>2022-10-08T11:54:19Z</time>
      </trkpt>
      <trkpt lat="44.55731" lon="6.56228">
        <ele>1208.98</ele>
        <time>2022-10-08T11:54:21Z</time>
      </trkpt>
      <trkpt lat="44.55728" lon="6.56301">
        <ele>1212.4</ele>
        <time>2022-10-08T11:54:24Z</time>
      </trkpt>
      <trkpt lat="44.55725" lon="6.56321">
        <ele>1212.55</ele>
        <time>2022-10-08T11:54:25Z</time>
      </trkpt>
      <trkpt lat="44.55724" lon="6.56355">
        <ele>1213.8</ele>
        <time>2022-10-08T11:54:27Z</time>
      </trkpt>
      <trkpt lat="44.55726" lon="6.56368">
        <ele>1213.82</ele>
        <time>2022-10-08T11:54:28Z</time>
      </trkpt>
      <trkpt lat="44.55731" lon="6.56376">
        <ele>1213.98</ele>
        <time>2022-10-08T11:54:29Z</time>
      </trkpt>
      <trkpt lat="44.55738" lon="6.56379">
        <ele>1215.1</ele>
        <time>2022-10-08T11:54:30Z</time>
      </trkpt>
      <trkpt lat="44.55745" lon="6.56376">
        <ele>1215.23</ele>
        <time>2022-10-08T11:54:31Z</time>
      </trkpt>
      <trkpt lat="44.55751" lon="6.56369">
        <ele>1215.24</ele>
        <time>2022-10-08T11:54:32Z</time>
      </trkpt>
      <trkpt lat="44.55758" lon="6.56357">
        <ele>1217.05</ele>
        <time>2022-10-08T11:54:33Z</time>
      </trkpt>
      <trkpt lat="44.55764" lon="6.56343">
        <ele>1217.81</ele>
        <time>2022-10-08T11:54:34Z</time>
      </trkpt>
      <trkpt lat="44.55771" lon="6.56327">
        <ele>1219.12</ele>
        <time>2022-10-08T11:54:35Z</time>
      </trkpt>
      <trkpt lat="44.55776" lon="6.56309">
        <ele>1220.98</ele>
        <time>2022-10-08T11:54:36Z</time>
      </trkpt>
      <trkpt lat="44.5578" lon="6.56291">
        <ele>1222.43</ele>
        <time>2022-10-08T11:54:37Z</time>
      </trkpt>
      <trkpt lat="44.55783" lon="6.56273">
        <ele>1222.34</ele>
        <time>2022-10-08T11:54:38Z</time>
      </trkpt>
      <trkpt lat="44.55786" lon="6.56258">
        <ele>1222.28</ele>
        <time>2022-10-08T11:54:39Z</time>
      </trkpt>
      <trkpt lat="44.55789" lon="6.56246">
        <ele>1223.15</ele>
        <time>2022-10-08T11:54:40Z</time>
      </trkpt>
      <trkpt lat="44.55793" lon="6.56238">
        <ele>1223.07</ele>
        <time>2022-10-08T11:54:41Z</time>
      </trkpt>
      <trkpt lat="44.55797" lon="6.56233">
        <ele>1222.53</ele>
        <time>2022-10-08T11:54:42Z</time>
      </trkpt>
      <trkpt lat="44.558" lon="6.56232">
        <ele>1223.77</ele>
        <time>2022-10-08T11:54:43Z</time>
      </trkpt>
      <trkpt lat="44.55803" lon="6.56235">
        <ele>1223.82</ele>
        <time>2022-10-08T11:54:44Z</time>
      </trkpt>
      <trkpt lat="44.55805" lon="6.56241">
        <ele>1223.83</ele>
        <time>2022-10-08T11:54:45Z</time>
      </trkpt>
      <trkpt lat="44.55806" lon="6.5625">
        <ele>1225.6</ele>
        <time>2022-10-08T11:54:46Z</time>
      </trkpt>
      <trkpt lat="44.55805" lon="6.56262">
        <ele>1226.51</ele>
        <time>2022-10-08T11:54:47Z</time>
      </trkpt>
      <trkpt lat="44.55803" lon="6.56276">
        <ele>1227.59</ele>
        <time>2022-10-08T11:54:48Z</time>
      </trkpt>
      <trkpt lat="44.55798" lon="6.56311">
        <ele>1230.65</ele>
        <time>2022-10-08T11:54:50Z</time>
      </trkpt>
      <trkpt lat="44.55793" lon="6.56375">
        <ele>1234.94</ele>
        <time>2022-10-08T11:54:53Z</time>
      </trkpt>
      <trkpt lat="44.5579" lon="6.56418">
        <ele>1237.66</ele>
        <time>2022-10-08T11:54:55Z</time>
      </trkpt>
      <trkpt lat="44.55786" lon="6.56438">
        <ele>1239</ele>
        <time>2022-10-08T11:54:56Z</time>
      </trkpt>
      <trkpt lat="44.55779" lon="6.56457">
        <ele>1239.01</ele>
        <time>2022-10-08T11:54:57Z</time>
      </trkpt>
      <trkpt lat="44.55763" lon="6.56495">
        <ele>1243.16</ele>
        <time>2022-10-08T11:54:59Z</time>
      </trkpt>
      <trkpt lat="44.55746" lon="6.56534">
        <ele>1246.35</ele>
        <time>2022-10-08T11:55:01Z</time>
      </trkpt>
      <trkpt lat="44.55728" lon="6.56585">
        <ele>1250.24</ele>
        <time>2022-10-08T11:55:04Z</time>
      </trkpt>
      <trkpt lat="44.55724" lon="6.566">
        <ele>1251.2</ele>
        <time>2022-10-08T11:55:05Z</time>
      </trkpt>
      <trkpt lat="44.55722" lon="6.56616">
        <ele>1251.21</ele>
        <time>2022-10-08T11:55:06Z</time>
      </trkpt>
      <trkpt lat="44.55723" lon="6.56632">
        <ele>1252.4</ele>
        <time>2022-10-08T11:55:07Z</time>
      </trkpt>
      <trkpt lat="44.55725" lon="6.56649">
        <ele>1253.98</ele>
        <time>2022-10-08T11:55:08Z</time>
      </trkpt>
      <trkpt lat="44.55726" lon="6.56668">
        <ele>1255.48</ele>
        <time>2022-10-08T11:55:09Z</time>
      </trkpt>
      <trkpt lat="44.55725" lon="6.56688">
        <ele>1256.96</ele>
        <time>2022-10-08T11:55:10Z</time>
      </trkpt>
      <trkpt lat="44.55723" lon="6.5671">
        <ele>1258.31</ele>
        <time>2022-10-08T11:55:11Z</time>
      </trkpt>
      <trkpt lat="44.55717" lon="6.56755">
        <ele>1261.69</ele>
        <time>2022-10-08T11:55:13Z</time>
      </trkpt>
      <trkpt lat="44.55711" lon="6.56778">
        <ele>1263.42</ele>
        <time>2022-10-08T11:55:14Z</time>
      </trkpt>
      <trkpt lat="44.55697" lon="6.56823">
        <ele>1266.88</ele>
        <time>2022-10-08T11:55:16Z</time>
      </trkpt>
      <trkpt lat="44.55687" lon="6.56863">
        <ele>1268.93</ele>
        <time>2022-10-08T11:55:18Z</time>
      </trkpt>
      <trkpt lat="44.55684" lon="6.56883">
        <ele>1270.15</ele>
        <time>2022-10-08T11:55:19Z</time>
      </trkpt>
      <trkpt lat="44.5568" lon="6.56924">
        <ele>1272.87</ele>
        <time>2022-10-08T11:55:21Z</time>
      </trkpt>
      <trkpt lat="44.55676" lon="6.56945">
        <ele>1274.09</ele>
        <time>2022-10-08T11:55:22Z</time>
      </trkpt>
      <trkpt lat="44.55666" lon="6.56986">
        <ele>1277.5</ele>
        <time>2022-10-08T11:55:24Z</time>
      </trkpt>
      <trkpt lat="44.55655" lon="6.57031">
        <ele>1280.94</ele>
        <time>2022-10-08T11:55:26Z</time>
      </trkpt>
      <trkpt lat="44.55643" lon="6.57077">
        <ele>1284.19</ele>
        <time>2022-10-08T11:55:28Z</time>
      </trkpt>
      <trkpt lat="44.55629" lon="6.57121">
        <ele>1285.03</ele>
        <time>2022-10-08T11:55:30Z</time>
      </trkpt>
      <trkpt lat="44.5562" lon="6.57141">
        <ele>1287.15</ele>
        <time>2022-10-08T11:55:31Z</time>
      </trkpt>
      <trkpt lat="44.5561" lon="6.57161">
        <ele>1287.84</ele>
        <time>2022-10-08T11:55:32Z</time>
      </trkpt>
      <trkpt lat="44.55588" lon="6.57202">
        <ele>1292.2</ele>
        <time>2022-10-08T11:55:34Z</time>
      </trkpt>
      <trkpt lat="44.55565" lon="6.57245">
        <ele>1296.37</ele>
        <time>2022-10-08T11:55:36Z</time>
      </trkpt>
      <trkpt lat="44.55542" lon="6.57287">
        <ele>1299.85</ele>
        <time>2022-10-08T11:55:38Z</time>
      </trkpt>
      <trkpt lat="44.55516" lon="6.57325">
        <ele>1303.37</ele>
        <time>2022-10-08T11:55:40Z</time>
      </trkpt>
      <trkpt lat="44.55488" lon="6.57362">
        <ele>1306.95</ele>
        <time>2022-10-08T11:55:42Z</time>
      </trkpt>
      <trkpt lat="44.55461" lon="6.57398">
        <ele>1310.33</ele>
        <time>2022-10-08T11:55:44Z</time>
      </trkpt>
      <trkpt lat="44.55421" lon="6.57448">
        <ele>1313.28</ele>
        <time>2022-10-08T11:55:47Z</time>
      </trkpt>
      <trkpt lat="44.55386" lon="6.57494">
        <ele>1317.4</ele>
        <time>2022-10-08T11:55:50Z</time>
      </trkpt>
      <trkpt lat="44.55376" lon="6.5751">
        <ele>1317.39</ele>
        <time>2022-10-08T11:55:51Z</time>
      </trkpt>
      <trkpt lat="44.55368" lon="6.57527">
        <ele>1318.57</ele>
        <time>2022-10-08T11:55:52Z</time>
      </trkpt>
      <trkpt lat="44.55361" lon="6.57545">
        <ele>1319.78</ele>
        <time>2022-10-08T11:55:53Z</time>
      </trkpt>
      <trkpt lat="44.55342" lon="6.57606">
        <ele>1323.51</ele>
        <time>2022-10-08T11:55:56Z</time>
      </trkpt>
      <trkpt lat="44.55333" lon="6.57625">
        <ele>1325.46</ele>
        <time>2022-10-08T11:55:57Z</time>
      </trkpt>
      <trkpt lat="44.55311" lon="6.57661">
        <ele>1328.7</ele>
        <time>2022-10-08T11:55:59Z</time>
      </trkpt>
      <trkpt lat="44.5529" lon="6.57696">
        <ele>1331.82</ele>
        <time>2022-10-08T11:56:01Z</time>
      </trkpt>
      <trkpt lat="44.55271" lon="6.57723">
        <ele>1332.91</ele>
        <time>2022-10-08T11:56:03Z</time>
      </trkpt>
      <trkpt lat="44.55259" lon="6.57732">
        <ele>1334.8</ele>
        <time>2022-10-08T11:56:04Z</time>
      </trkpt>
      <trkpt lat="44.55235" lon="6.57747">
        <ele>1337.67</ele>
        <time>2022-10-08T11:56:06Z</time>
      </trkpt>
      <trkpt lat="44.55225" lon="6.57758">
        <ele>1338.94</ele>
        <time>2022-10-08T11:56:07Z</time>
      </trkpt>
      <trkpt lat="44.55216" lon="6.57772">
        <ele>1340.15</ele>
        <time>2022-10-08T11:56:08Z</time>
      </trkpt>
      <trkpt lat="44.55207" lon="6.57787">
        <ele>1341.32</ele>
        <time>2022-10-08T11:56:09Z</time>
      </trkpt>
      <trkpt lat="44.55199" lon="6.57805">
        <ele>1342.63</ele>
        <time>2022-10-08T11:56:10Z</time>
      </trkpt>
      <trkpt lat="44.55182" lon="6.57843">
        <ele>1346.46</ele>
        <time>2022-10-08T11:56:12Z</time>
      </trkpt>
      <trkpt lat="44.55163" lon="6.57882">
        <ele>1349.94</ele>
        <time>2022-10-08T11:56:14Z</time>
      </trkpt>
      <trkpt lat="44.5514" lon="6.57918">
        <ele>1353.22</ele>
        <time>2022-10-08T11:56:16Z</time>
      </trkpt>
      <trkpt lat="44.55107" lon="6.57961">
        <ele>1355.84</ele>
        <time>2022-10-08T11:56:19Z</time>
      </trkpt>
      <trkpt lat="44.55098" lon="6.57973">
        <ele>1357.03</ele>
        <time>2022-10-08T11:56:20Z</time>
      </trkpt>
      <trkpt lat="44.55091" lon="6.57987">
        <ele>1357.04</ele>
        <time>2022-10-08T11:56:21Z</time>
      </trkpt>
      <trkpt lat="44.55087" lon="6.58001">
        <ele>1357.17</ele>
        <time>2022-10-08T11:56:22Z</time>
      </trkpt>
      <trkpt lat="44.55085" lon="6.58017">
        <ele>1358.98</ele>
        <time>2022-10-08T11:56:23Z</time>
      </trkpt>
      <trkpt lat="44.55085" lon="6.58035">
        <ele>1360.32</ele>
        <time>2022-10-08T11:56:24Z</time>
      </trkpt>
      <trkpt lat="44.55084" lon="6.58055">
        <ele>1361.98</ele>
        <time>2022-10-08T11:56:25Z</time>
      </trkpt>
      <trkpt lat="44.55082" lon="6.58075">
        <ele>1363.6</ele>
        <time>2022-10-08T11:56:26Z</time>
      </trkpt>
      <trkpt lat="44.55079" lon="6.58098">
        <ele>1366.39</ele>
        <time>2022-10-08T11:56:27Z</time>
      </trkpt>
      <trkpt lat="44.55071" lon="6.58144">
        <ele>1369.69</ele>
        <time>2022-10-08T11:56:29Z</time>
      </trkpt>
      <trkpt lat="44.5506" lon="6.58187">
        <ele>1372.86</ele>
        <time>2022-10-08T11:56:31Z</time>
      </trkpt>
      <trkpt lat="44.55052" lon="6.58205">
        <ele>1375</ele>
        <time>2022-10-08T11:56:32Z</time>
      </trkpt>
      <trkpt lat="44.55026" lon="6.58259">
        <ele>1379.55</ele>
        <time>2022-10-08T11:56:35Z</time>
      </trkpt>
      <trkpt lat="44.55013" lon="6.58297">
        <ele>1380.96</ele>
        <time>2022-10-08T11:56:37Z</time>
      </trkpt>
      <trkpt lat="44.55009" lon="6.58318">
        <ele>1383.39</ele>
        <time>2022-10-08T11:56:38Z</time>
      </trkpt>
      <trkpt lat="44.55006" lon="6.58339">
        <ele>1385.37</ele>
        <time>2022-10-08T11:56:39Z</time>
      </trkpt>
      <trkpt lat="44.55" lon="6.58406">
        <ele>1389.36</ele>
        <time>2022-10-08T11:56:42Z</time>
      </trkpt>
      <trkpt lat="44.54999" lon="6.58476">
        <ele>1393.65</ele>
        <time>2022-10-08T11:56:45Z</time>
      </trkpt>
      <trkpt lat="44.54998" lon="6.585">
        <ele>1393.64</ele>
        <time>2022-10-08T11:56:46Z</time>
      </trkpt>
      <trkpt lat="44.54997" lon="6.58545">
        <ele>1396.86</ele>
        <time>2022-10-08T11:56:48Z</time>
      </trkpt>
      <trkpt lat="44.55003" lon="6.58614">
        <ele>1400.79</ele>
        <time>2022-10-08T11:56:51Z</time>
      </trkpt>
      <trkpt lat="44.55017" lon="6.58683">
        <ele>1405.02</ele>
        <time>2022-10-08T11:56:54Z</time>
      </trkpt>
      <trkpt lat="44.5502" lon="6.58703">
        <ele>1405.04</ele>
        <time>2022-10-08T11:56:55Z</time>
      </trkpt>
      <trkpt lat="44.55023" lon="6.58722">
        <ele>1406.62</ele>
        <time>2022-10-08T11:56:56Z</time>
      </trkpt>
      <trkpt lat="44.55023" lon="6.58741">
        <ele>1407.43</ele>
        <time>2022-10-08T11:56:57Z</time>
      </trkpt>
      <trkpt lat="44.55022" lon="6.58761">
        <ele>1409.2</ele>
        <time>2022-10-08T11:56:58Z</time>
      </trkpt>
      <trkpt lat="44.5502" lon="6.58799">
        <ele>1410.3</ele>
        <time>2022-10-08T11:57:00Z</time>
      </trkpt>
      <trkpt lat="44.55021" lon="6.58818">
        <ele>1412.15</ele>
        <time>2022-10-08T11:57:01Z</time>
      </trkpt>
      <trkpt lat="44.55025" lon="6.58857">
        <ele>1415.18</ele>
        <time>2022-10-08T11:57:03Z</time>
      </trkpt>
      <trkpt lat="44.55026" lon="6.58877">
        <ele>1416.29</ele>
        <time>2022-10-08T11:57:04Z</time>
      </trkpt>
      <trkpt lat="44.55025" lon="6.58897">
        <ele>1417.84</ele>
        <time>2022-10-08T11:57:05Z</time>
      </trkpt>
      <trkpt lat="44.55022" lon="6.58941">
        <ele>1421.18</ele>
        <time>2022-10-08T11:57:07Z</time>
      </trkpt>
      <trkpt lat="44.55013" lon="6.59005">
        <ele>1425.14</ele>
        <time>2022-10-08T11:57:10Z</time>
      </trkpt>
      <trkpt lat="44.55004" lon="6.5907">
        <ele>1429.38</ele>
        <time>2022-10-08T11:57:13Z</time>
      </trkpt>
      <trkpt lat="44.55002" lon="6.59114">
        <ele>1432.41</ele>
        <time>2022-10-08T11:57:15Z</time>
      </trkpt>
      <trkpt lat="44.55003" lon="6.59135">
        <ele>1433.85</ele>
        <time>2022-10-08T11:57:16Z</time>
      </trkpt>
      <trkpt lat="44.55006" lon="6.59196">
        <ele>1437.16</ele>
        <time>2022-10-08T11:57:19Z</time>
      </trkpt>
      <trkpt lat="44.55003" lon="6.59213">
        <ele>1438.49</ele>
        <time>2022-10-08T11:57:20Z</time>
      </trkpt>
      <trkpt lat="44.54997" lon="6.5923">
        <ele>1439.81</ele>
        <time>2022-10-08T11:57:21Z</time>
      </trkpt>
      <trkpt lat="44.54975" lon="6.59281">
        <ele>1443.92</ele>
        <time>2022-10-08T11:57:24Z</time>
      </trkpt>
      <trkpt lat="44.5496" lon="6.59319">
        <ele>1447.64</ele>
        <time>2022-10-08T11:57:26Z</time>
      </trkpt>
      <trkpt lat="44.54953" lon="6.59337">
        <ele>1447.78</ele>
        <time>2022-10-08T11:57:27Z</time>
      </trkpt>
      <trkpt lat="44.54931" lon="6.59397">
        <ele>1450.77</ele>
        <time>2022-10-08T11:57:31Z</time>
      </trkpt>
      <trkpt lat="44.54921" lon="6.5944">
        <ele>1454.23</ele>
        <time>2022-10-08T11:57:34Z</time>
      </trkpt>
      <trkpt lat="44.54915" lon="6.59489">
        <ele>1458.23</ele>
        <time>2022-10-08T11:57:37Z</time>
      </trkpt>
      <trkpt lat="44.54913" lon="6.59522">
        <ele>1459.59</ele>
        <time>2022-10-08T11:57:39Z</time>
      </trkpt>
      <trkpt lat="44.54913" lon="6.59537">
        <ele>1460.53</ele>
        <time>2022-10-08T11:57:40Z</time>
      </trkpt>
      <trkpt lat="44.54916" lon="6.59549">
        <ele>1460.61</ele>
        <time>2022-10-08T11:57:41Z</time>
      </trkpt>
      <trkpt lat="44.5492" lon="6.59561">
        <ele>1461.89</ele>
        <time>2022-10-08T11:57:42Z</time>
      </trkpt>
      <trkpt lat="44.54924" lon="6.59573">
        <ele>1462.14</ele>
        <time>2022-10-08T11:57:43Z</time>
      </trkpt>
      <trkpt lat="44.5493" lon="6.59585">
        <ele>1462.14</ele>
        <time>2022-10-08T11:57:44Z</time>
      </trkpt>
      <trkpt lat="44.54943" lon="6.59611">
        <ele>1463.55</ele>
        <time>2022-10-08T11:57:46Z</time>
      </trkpt>
      <trkpt lat="44.5497" lon="6.59674">
        <ele>1463.77</ele>
        <time>2022-10-08T11:57:52Z</time>
      </trkpt>
      <trkpt lat="44.54972" lon="6.59685">
        <ele>1465.53</ele>
        <time>2022-10-08T11:57:53Z</time>
      </trkpt>
      <trkpt lat="44.54971" lon="6.59696">
        <ele>1465.58</ele>
        <time>2022-10-08T11:57:54Z</time>
      </trkpt>
      <trkpt lat="44.54968" lon="6.59708">
        <ele>1465.55</ele>
        <time>2022-10-08T11:57:55Z</time>
      </trkpt>
      <trkpt lat="44.54965" lon="6.59719">
        <ele>1465.57</ele>
        <time>2022-10-08T11:57:56Z</time>
      </trkpt>
      <trkpt lat="44.54961" lon="6.59731">
        <ele>1467.12</ele>
        <time>2022-10-08T11:57:57Z</time>
      </trkpt>
      <trkpt lat="44.54958" lon="6.59744">
        <ele>1467.11</ele>
        <time>2022-10-08T11:57:58Z</time>
      </trkpt>
      <trkpt lat="44.54955" lon="6.59757">
        <ele>1467.08</ele>
        <time>2022-10-08T11:57:59Z</time>
      </trkpt>
      <trkpt lat="44.54953" lon="6.59772">
        <ele>1468.57</ele>
        <time>2022-10-08T11:58:00Z</time>
      </trkpt>
      <trkpt lat="44.54952" lon="6.59787">
        <ele>1469.42</ele>
        <time>2022-10-08T11:58:01Z</time>
      </trkpt>
      <trkpt lat="44.54953" lon="6.59804">
        <ele>1469.43</ele>
        <time>2022-10-08T11:58:02Z</time>
      </trkpt>
      <trkpt lat="44.54955" lon="6.59821">
        <ele>1470.56</ele>
        <time>2022-10-08T11:58:03Z</time>
      </trkpt>
      <trkpt lat="44.5496" lon="6.59878">
        <ele>1472.95</ele>
        <time>2022-10-08T11:58:06Z</time>
      </trkpt>
      <trkpt lat="44.5496" lon="6.5994">
        <ele>1476.22</ele>
        <time>2022-10-08T11:58:09Z</time>
      </trkpt>
      <trkpt lat="44.54959" lon="6.59961">
        <ele>1476.23</ele>
        <time>2022-10-08T11:58:10Z</time>
      </trkpt>
      <trkpt lat="44.54959" lon="6.59981">
        <ele>1477.1</ele>
        <time>2022-10-08T11:58:11Z</time>
      </trkpt>
      <trkpt lat="44.54961" lon="6.6">
        <ele>1477.17</ele>
        <time>2022-10-08T11:58:12Z</time>
      </trkpt>
      <trkpt lat="44.54966" lon="6.60019">
        <ele>1478.92</ele>
        <time>2022-10-08T11:58:13Z</time>
      </trkpt>
      <trkpt lat="44.54988" lon="6.60103">
        <ele>1483.06</ele>
        <time>2022-10-08T11:58:17Z</time>
      </trkpt>
      <trkpt lat="44.54994" lon="6.60125">
        <ele>1483.08</ele>
        <time>2022-10-08T11:58:18Z</time>
      </trkpt>
      <trkpt lat="44.5501" lon="6.60183">
        <ele>1484.5</ele>
        <time>2022-10-08T11:58:21Z</time>
      </trkpt>
      <trkpt lat="44.55013" lon="6.60201">
        <ele>1484.44</ele>
        <time>2022-10-08T11:58:22Z</time>
      </trkpt>
      <trkpt lat="44.55015" lon="6.60219">
        <ele>1484.49</ele>
        <time>2022-10-08T11:58:23Z</time>
      </trkpt>
      <trkpt lat="44.55014" lon="6.60237">
        <ele>1486.33</ele>
        <time>2022-10-08T11:58:24Z</time>
      </trkpt>
      <trkpt lat="44.55012" lon="6.60256">
        <ele>1486.41</ele>
        <time>2022-10-08T11:58:25Z</time>
      </trkpt>
      <trkpt lat="44.55009" lon="6.60276">
        <ele>1488.6</ele>
        <time>2022-10-08T11:58:26Z</time>
      </trkpt>
      <trkpt lat="44.54998" lon="6.60341">
        <ele>1492.74</ele>
        <time>2022-10-08T11:58:29Z</time>
      </trkpt>
      <trkpt lat="44.54991" lon="6.60382">
        <ele>1495.04</ele>
        <time>2022-10-08T11:58:31Z</time>
      </trkpt>
      <trkpt lat="44.54982" lon="6.60417">
        <ele>1495.9</ele>
        <time>2022-10-08T11:58:33Z</time>
      </trkpt>
      <trkpt lat="44.5498" lon="6.60434">
        <ele>1496.72</ele>
        <time>2022-10-08T11:58:34Z</time>
      </trkpt>
      <trkpt lat="44.54981" lon="6.60451">
        <ele>1498.29</ele>
        <time>2022-10-08T11:58:35Z</time>
      </trkpt>
      <trkpt lat="44.54988" lon="6.60516">
        <ele>1502.71</ele>
        <time>2022-10-08T11:58:38Z</time>
      </trkpt>
      <trkpt lat="44.54992" lon="6.60564">
        <ele>1506.11</ele>
        <time>2022-10-08T11:58:40Z</time>
      </trkpt>
      <trkpt lat="44.54998" lon="6.60632">
        <ele>1509.25</ele>
        <time>2022-10-08T11:58:43Z</time>
      </trkpt>
      <trkpt lat="44.55001" lon="6.60653">
        <ele>1509.36</ele>
        <time>2022-10-08T11:58:44Z</time>
      </trkpt>
      <trkpt lat="44.55011" lon="6.60697">
        <ele>1512.59</ele>
        <time>2022-10-08T11:58:46Z</time>
      </trkpt>
      <trkpt lat="44.55023" lon="6.6074">
        <ele>1514.05</ele>
        <time>2022-10-08T11:58:48Z</time>
      </trkpt>
      <trkpt lat="44.55032" lon="6.60784">
        <ele>1516.88</ele>
        <time>2022-10-08T11:58:50Z</time>
      </trkpt>
      <trkpt lat="44.55034" lon="6.60806">
        <ele>1518.72</ele>
        <time>2022-10-08T11:58:51Z</time>
      </trkpt>
      <trkpt lat="44.55034" lon="6.6083">
        <ele>1520.23</ele>
        <time>2022-10-08T11:58:52Z</time>
      </trkpt>
      <trkpt lat="44.55034" lon="6.60853">
        <ele>1521.82</ele>
        <time>2022-10-08T11:58:53Z</time>
      </trkpt>
      <trkpt lat="44.55031" lon="6.60875">
        <ele>1521.92</ele>
        <time>2022-10-08T11:58:54Z</time>
      </trkpt>
      <trkpt lat="44.55027" lon="6.60898">
        <ele>1524.12</ele>
        <time>2022-10-08T11:58:55Z</time>
      </trkpt>
      <trkpt lat="44.5502" lon="6.60919">
        <ele>1525.12</ele>
        <time>2022-10-08T11:58:56Z</time>
      </trkpt>
      <trkpt lat="44.55013" lon="6.6094">
        <ele>1526.37</ele>
        <time>2022-10-08T11:58:57Z</time>
      </trkpt>
      <trkpt lat="44.54989" lon="6.61006">
        <ele>1530.74</ele>
        <time>2022-10-08T11:59:00Z</time>
      </trkpt>
      <trkpt lat="44.54979" lon="6.61025">
        <ele>1530.62</ele>
        <time>2022-10-08T11:59:01Z</time>
      </trkpt>
      <trkpt lat="44.54969" lon="6.61041">
        <ele>1532.11</ele>
        <time>2022-10-08T11:59:02Z</time>
      </trkpt>
      <trkpt lat="44.54959" lon="6.61055">
        <ele>1532.11</ele>
        <time>2022-10-08T11:59:03Z</time>
      </trkpt>
      <trkpt lat="44.54929" lon="6.61103">
        <ele>1535.51</ele>
        <time>2022-10-08T11:59:06Z</time>
      </trkpt>
      <trkpt lat="44.54912" lon="6.61132">
        <ele>1536.78</ele>
        <time>2022-10-08T11:59:08Z</time>
      </trkpt>
      <trkpt lat="44.54898" lon="6.61157">
        <ele>1537.82</ele>
        <time>2022-10-08T11:59:10Z</time>
      </trkpt>
      <trkpt lat="44.54894" lon="6.61169">
        <ele>1538.95</ele>
        <time>2022-10-08T11:59:11Z</time>
      </trkpt>
      <trkpt lat="44.54893" lon="6.61181">
        <ele>1538.96</ele>
        <time>2022-10-08T11:59:12Z</time>
      </trkpt>
      <trkpt lat="44.54894" lon="6.61191">
        <ele>1538.99</ele>
        <time>2022-10-08T11:59:13Z</time>
      </trkpt>
      <trkpt lat="44.54897" lon="6.61201">
        <ele>1540.7</ele>
        <time>2022-10-08T11:59:14Z</time>
      </trkpt>
      <trkpt lat="44.54904" lon="6.61207">
        <ele>1541.62</ele>
        <time>2022-10-08T11:59:15Z</time>
      </trkpt>
      <trkpt lat="44.54912" lon="6.6121">
        <ele>1541.58</ele>
        <time>2022-10-08T11:59:16Z</time>
      </trkpt>
      <trkpt lat="44.54921" lon="6.61208">
        <ele>1543.43</ele>
        <time>2022-10-08T11:59:17Z</time>
      </trkpt>
      <trkpt lat="44.5493" lon="6.61202">
        <ele>1544.32</ele>
        <time>2022-10-08T11:59:18Z</time>
      </trkpt>
      <trkpt lat="44.54937" lon="6.61193">
        <ele>1545.23</ele>
        <time>2022-10-08T11:59:19Z</time>
      </trkpt>
      <trkpt lat="44.54944" lon="6.61184">
        <ele>1546.29</ele>
        <time>2022-10-08T11:59:20Z</time>
      </trkpt>
      <trkpt lat="44.54951" lon="6.61177">
        <ele>1545.55</ele>
        <time>2022-10-08T11:59:21Z</time>
      </trkpt>
      <trkpt lat="44.54956" lon="6.61177">
        <ele>1545.57</ele>
        <time>2022-10-08T11:59:22Z</time>
      </trkpt>
      <trkpt lat="44.54961" lon="6.6118">
        <ele>1545.63</ele>
        <time>2022-10-08T11:59:23Z</time>
      </trkpt>
      <trkpt lat="44.54962" lon="6.61187">
        <ele>1547.04</ele>
        <time>2022-10-08T11:59:24Z</time>
      </trkpt>
      <trkpt lat="44.54961" lon="6.61194">
        <ele>1547.05</ele>
        <time>2022-10-08T11:59:25Z</time>
      </trkpt>
      <trkpt lat="44.54957" lon="6.61203">
        <ele>1548.78</ele>
        <time>2022-10-08T11:59:26Z</time>
      </trkpt>
      <trkpt lat="44.54952" lon="6.61213">
        <ele>1549.94</ele>
        <time>2022-10-08T11:59:27Z</time>
      </trkpt>
      <trkpt lat="44.54945" lon="6.61223">
        <ele>1550.04</ele>
        <time>2022-10-08T11:59:28Z</time>
      </trkpt>
      <trkpt lat="44.54931" lon="6.61246">
        <ele>1553.5</ele>
        <time>2022-10-08T11:59:30Z</time>
      </trkpt>
      <trkpt lat="44.54915" lon="6.61272">
        <ele>1556.05</ele>
        <time>2022-10-08T11:59:32Z</time>
      </trkpt>
      <trkpt lat="44.54908" lon="6.61288">
        <ele>1558.19</ele>
        <time>2022-10-08T11:59:33Z</time>
      </trkpt>
      <trkpt lat="44.54902" lon="6.61305">
        <ele>1560.53</ele>
        <time>2022-10-08T11:59:34Z</time>
      </trkpt>
      <trkpt lat="44.54892" lon="6.61334">
        <ele>1564.07</ele>
        <time>2022-10-08T11:59:36Z</time>
      </trkpt>
      <trkpt lat="44.54886" lon="6.61351">
        <ele>1564.98</ele>
        <time>2022-10-08T11:59:38Z</time>
      </trkpt>
      <trkpt lat="44.54883" lon="6.61356">
        <ele>1566.22</ele>
        <time>2022-10-08T11:59:39Z</time>
      </trkpt>
      <trkpt lat="44.54881" lon="6.6136">
        <ele>1566.33</ele>
        <time>2022-10-08T11:59:40Z</time>
      </trkpt>
      <trkpt lat="44.54878" lon="6.61362">
        <ele>1566.34</ele>
        <time>2022-10-08T11:59:41Z</time>
      </trkpt>
      <trkpt lat="44.54876" lon="6.61364">
        <ele>1566.35</ele>
        <time>2022-10-08T11:59:42Z</time>
      </trkpt>
      <trkpt lat="44.54874" lon="6.61366">
        <ele>1567.46</ele>
        <time>2022-10-08T11:59:43Z</time>
      </trkpt>
      <trkpt lat="44.5487" lon="6.61368">
        <ele>1567.37</ele>
        <time>2022-10-08T11:59:44Z</time>
      </trkpt>
      <trkpt lat="44.54865" lon="6.6137">
        <ele>1568.3</ele>
        <time>2022-10-08T11:59:45Z</time>
      </trkpt>
      <trkpt lat="44.54859" lon="6.61371">
        <ele>1568.59</ele>
        <time>2022-10-08T11:59:46Z</time>
      </trkpt>
      <trkpt lat="44.54851" lon="6.61373">
        <ele>1569.51</ele>
        <time>2022-10-08T11:59:47Z</time>
      </trkpt>
      <trkpt lat="44.54797" lon="6.61383">
        <ele>1575.02</ele>
        <time>2022-10-08T11:59:52Z</time>
      </trkpt>
      <trkpt lat="44.54785" lon="6.61389">
        <ele>1576.07</ele>
        <time>2022-10-08T11:59:53Z</time>
      </trkpt>
      <trkpt lat="44.54774" lon="6.61395">
        <ele>1576.08</ele>
        <time>2022-10-08T11:59:54Z</time>
      </trkpt>
      <trkpt lat="44.54751" lon="6.61408">
        <ele>1577.66</ele>
        <time>2022-10-08T11:59:56Z</time>
      </trkpt>
      <trkpt lat="44.5474" lon="6.61415">
        <ele>1578.58</ele>
        <time>2022-10-08T11:59:57Z</time>
      </trkpt>
      <trkpt lat="44.54732" lon="6.61422">
        <ele>1578.59</ele>
        <time>2022-10-08T11:59:58Z</time>
      </trkpt>
      <trkpt lat="44.54726" lon="6.61432">
        <ele>1578.66</ele>
        <time>2022-10-08T11:59:59Z</time>
      </trkpt>
      <trkpt lat="44.54723" lon="6.61442">
        <ele>1578.67</ele>
        <time>2022-10-08T12:00:00Z</time>
      </trkpt>
      <trkpt lat="44.54722" lon="6.61453">
        <ele>1578.75</ele>
        <time>2022-10-08T12:00:01Z</time>
      </trkpt>
      <trkpt lat="44.54724" lon="6.61464">
        <ele>1579.81</ele>
        <time>2022-10-08T12:00:02Z</time>
      </trkpt>
      <trkpt lat="44.54729" lon="6.61471">
        <ele>1579.88</ele>
        <time>2022-10-08T12:00:03Z</time>
      </trkpt>
      <trkpt lat="44.54736" lon="6.61475">
        <ele>1581.15</ele>
        <time>2022-10-08T12:00:04Z</time>
      </trkpt>
      <trkpt lat="44.54744" lon="6.61474">
        <ele>1581.1</ele>
        <time>2022-10-08T12:00:05Z</time>
      </trkpt>
      <trkpt lat="44.54752" lon="6.61469">
        <ele>1582.58</ele>
        <time>2022-10-08T12:00:06Z</time>
      </trkpt>
      <trkpt lat="44.54759" lon="6.6146">
        <ele>1584.32</ele>
        <time>2022-10-08T12:00:07Z</time>
      </trkpt>
      <trkpt lat="44.54767" lon="6.61449">
        <ele>1584.32</ele>
        <time>2022-10-08T12:00:08Z</time>
      </trkpt>
      <trkpt lat="44.54783" lon="6.6143">
        <ele>1585.77</ele>
        <time>2022-10-08T12:00:10Z</time>
      </trkpt>
      <trkpt lat="44.5479" lon="6.61423">
        <ele>1586.64</ele>
        <time>2022-10-08T12:00:11Z</time>
      </trkpt>
      <trkpt lat="44.54796" lon="6.61418">
        <ele>1586.64</ele>
        <time>2022-10-08T12:00:12Z</time>
      </trkpt>
      <trkpt lat="44.54802" lon="6.61417">
        <ele>1587.52</ele>
        <time>2022-10-08T12:00:13Z</time>
      </trkpt>
      <trkpt lat="44.54807" lon="6.61419">
        <ele>1587.51</ele>
        <time>2022-10-08T12:00:14Z</time>
      </trkpt>
      <trkpt lat="44.54809" lon="6.61425">
        <ele>1587.57</ele>
        <time>2022-10-08T12:00:15Z</time>
      </trkpt>
      <trkpt lat="44.5481" lon="6.61432">
        <ele>1587.54</ele>
        <time>2022-10-08T12:00:16Z</time>
      </trkpt>
      <trkpt lat="44.54809" lon="6.6144">
        <ele>1587.55</ele>
        <time>2022-10-08T12:00:17Z</time>
      </trkpt>
      <trkpt lat="44.54805" lon="6.6145">
        <ele>1589.15</ele>
        <time>2022-10-08T12:00:18Z</time>
      </trkpt>
      <trkpt lat="44.54801" lon="6.61462">
        <ele>1591.2</ele>
        <time>2022-10-08T12:00:19Z</time>
      </trkpt>
      <trkpt lat="44.54786" lon="6.6151">
        <ele>1595.69</ele>
        <time>2022-10-08T12:00:22Z</time>
      </trkpt>
      <trkpt lat="44.54781" lon="6.61529">
        <ele>1595.69</ele>
        <time>2022-10-08T12:00:23Z</time>
      </trkpt>
      <trkpt lat="44.54761" lon="6.61583">
        <ele>1598.1</ele>
        <time>2022-10-08T12:00:26Z</time>
      </trkpt>
      <trkpt lat="44.54753" lon="6.61596">
        <ele>1600</ele>
        <time>2022-10-08T12:00:27Z</time>
      </trkpt>
      <trkpt lat="44.54744" lon="6.61606">
        <ele>1601.2</ele>
        <time>2022-10-08T12:00:28Z</time>
      </trkpt>
      <trkpt lat="44.54735" lon="6.61615">
        <ele>1601.21</ele>
        <time>2022-10-08T12:00:29Z</time>
      </trkpt>
      <trkpt lat="44.54729" lon="6.61624">
        <ele>1602.26</ele>
        <time>2022-10-08T12:00:30Z</time>
      </trkpt>
      <trkpt lat="44.54724" lon="6.61634">
        <ele>1603.23</ele>
        <time>2022-10-08T12:00:31Z</time>
      </trkpt>
      <trkpt lat="44.54722" lon="6.61644">
        <ele>1603.24</ele>
        <time>2022-10-08T12:00:32Z</time>
      </trkpt>
      <trkpt lat="44.54722" lon="6.61656">
        <ele>1604.47</ele>
        <time>2022-10-08T12:00:33Z</time>
      </trkpt>
      <trkpt lat="44.54723" lon="6.61668">
        <ele>1605.41</ele>
        <time>2022-10-08T12:00:34Z</time>
      </trkpt>
      <trkpt lat="44.54724" lon="6.6168">
        <ele>1606.36</ele>
        <time>2022-10-08T12:00:35Z</time>
      </trkpt>
      <trkpt lat="44.54724" lon="6.61691">
        <ele>1606.72</ele>
        <time>2022-10-08T12:00:36Z</time>
      </trkpt>
      <trkpt lat="44.54721" lon="6.61701">
        <ele>1607.49</ele>
        <time>2022-10-08T12:00:37Z</time>
      </trkpt>
      <trkpt lat="44.54719" lon="6.61711">
        <ele>1608.85</ele>
        <time>2022-10-08T12:00:38Z</time>
      </trkpt>
      <trkpt lat="44.54717" lon="6.61721">
        <ele>1608.94</ele>
        <time>2022-10-08T12:00:39Z</time>
      </trkpt>
      <trkpt lat="44.54718" lon="6.61732">
        <ele>1608.95</ele>
        <time>2022-10-08T12:00:40Z</time>
      </trkpt>
      <trkpt lat="44.54721" lon="6.61742">
        <ele>1610.61</ele>
        <time>2022-10-08T12:00:41Z</time>
      </trkpt>
      <trkpt lat="44.54731" lon="6.61764">
        <ele>1613.59</ele>
        <time>2022-10-08T12:00:43Z</time>
      </trkpt>
      <trkpt lat="44.54736" lon="6.61777">
        <ele>1614.45</ele>
        <time>2022-10-08T12:00:44Z</time>
      </trkpt>
      <trkpt lat="44.54738" lon="6.6179">
        <ele>1613.94</ele>
        <time>2022-10-08T12:00:45Z</time>
      </trkpt>
      <trkpt lat="44.54739" lon="6.61803">
        <ele>1615.69</ele>
        <time>2022-10-08T12:00:46Z</time>
      </trkpt>
      <trkpt lat="44.54738" lon="6.61815">
        <ele>1615.68</ele>
        <time>2022-10-08T12:00:47Z</time>
      </trkpt>
      <trkpt lat="44.54736" lon="6.61827">
        <ele>1616.94</ele>
        <time>2022-10-08T12:00:48Z</time>
      </trkpt>
      <trkpt lat="44.54732" lon="6.61846">
        <ele>1617.79</ele>
        <time>2022-10-08T12:00:50Z</time>
      </trkpt>
      <trkpt lat="44.54732" lon="6.61853">
        <ele>1618.79</ele>
        <time>2022-10-08T12:00:51Z</time>
      </trkpt>
      <trkpt lat="44.54735" lon="6.61859">
        <ele>1618.78</ele>
        <time>2022-10-08T12:00:52Z</time>
      </trkpt>
      <trkpt lat="44.54739" lon="6.61862">
        <ele>1618.74</ele>
        <time>2022-10-08T12:00:53Z</time>
      </trkpt>
      <trkpt lat="44.54744" lon="6.61862">
        <ele>1619.36</ele>
        <time>2022-10-08T12:00:54Z</time>
      </trkpt>
      <trkpt lat="44.5475" lon="6.61858">
        <ele>1620.14</ele>
        <time>2022-10-08T12:00:55Z</time>
      </trkpt>
      <trkpt lat="44.54755" lon="6.61851">
        <ele>1620.31</ele>
        <time>2022-10-08T12:00:56Z</time>
      </trkpt>
      <trkpt lat="44.5476" lon="6.61842">
        <ele>1621.42</ele>
        <time>2022-10-08T12:00:57Z</time>
      </trkpt>
      <trkpt lat="44.54765" lon="6.61833">
        <ele>1621.36</ele>
        <time>2022-10-08T12:00:58Z</time>
      </trkpt>
      <trkpt lat="44.54792" lon="6.61792">
        <ele>1623.51</ele>
        <time>2022-10-08T12:01:03Z</time>
      </trkpt>
      <trkpt lat="44.54797" lon="6.61788">
        <ele>1623.49</ele>
        <time>2022-10-08T12:01:04Z</time>
      </trkpt>
      <trkpt lat="44.54801" lon="6.61788">
        <ele>1624.54</ele>
        <time>2022-10-08T12:01:05Z</time>
      </trkpt>
      <trkpt lat="44.54804" lon="6.6179">
        <ele>1624.52</ele>
        <time>2022-10-08T12:01:06Z</time>
      </trkpt>
      <trkpt lat="44.54805" lon="6.61795">
        <ele>1625.33</ele>
        <time>2022-10-08T12:01:07Z</time>
      </trkpt>
      <trkpt lat="44.54805" lon="6.61809">
        <ele>1626.8</ele>
        <time>2022-10-08T12:01:09Z</time>
      </trkpt>
      <trkpt lat="44.54805" lon="6.61818">
        <ele>1626.77</ele>
        <time>2022-10-08T12:01:10Z</time>
      </trkpt>
      <trkpt lat="44.54802" lon="6.61866">
        <ele>1630.2</ele>
        <time>2022-10-08T12:01:15Z</time>
      </trkpt>
      <trkpt lat="44.54802" lon="6.61878">
        <ele>1630.17</ele>
        <time>2022-10-08T12:01:16Z</time>
      </trkpt>
      <trkpt lat="44.548" lon="6.61906">
        <ele>1633.39</ele>
        <time>2022-10-08T12:01:18Z</time>
      </trkpt>
      <trkpt lat="44.54797" lon="6.61933">
        <ele>1634.44</ele>
        <time>2022-10-08T12:01:20Z</time>
      </trkpt>
      <trkpt lat="44.54794" lon="6.61945">
        <ele>1635.99</ele>
        <time>2022-10-08T12:01:21Z</time>
      </trkpt>
      <trkpt lat="44.54789" lon="6.61965">
        <ele>1636.89</ele>
        <time>2022-10-08T12:01:23Z</time>
      </trkpt>
      <trkpt lat="44.54787" lon="6.61975">
        <ele>1638.03</ele>
        <time>2022-10-08T12:01:24Z</time>
      </trkpt>
      <trkpt lat="44.54788" lon="6.61985">
        <ele>1638.03</ele>
        <time>2022-10-08T12:01:25Z</time>
      </trkpt>
      <trkpt lat="44.5479" lon="6.61995">
        <ele>1638.29</ele>
        <time>2022-10-08T12:01:26Z</time>
      </trkpt>
      <trkpt lat="44.54794" lon="6.62005">
        <ele>1638.99</ele>
        <time>2022-10-08T12:01:27Z</time>
      </trkpt>
      <trkpt lat="44.548" lon="6.62016">
        <ele>1638.94</ele>
        <time>2022-10-08T12:01:28Z</time>
      </trkpt>
      <trkpt lat="44.54823" lon="6.62062">
        <ele>1640.97</ele>
        <time>2022-10-08T12:01:32Z</time>
      </trkpt>
      <trkpt lat="44.54826" lon="6.62076">
        <ele>1641.01</ele>
        <time>2022-10-08T12:01:33Z</time>
      </trkpt>
      <trkpt lat="44.54828" lon="6.6209">
        <ele>1641.92</ele>
        <time>2022-10-08T12:01:34Z</time>
      </trkpt>
      <trkpt lat="44.54828" lon="6.62105">
        <ele>1641.9</ele>
        <time>2022-10-08T12:01:35Z</time>
      </trkpt>
      <trkpt lat="44.54827" lon="6.62119">
        <ele>1642.98</ele>
        <time>2022-10-08T12:01:36Z</time>
      </trkpt>
      <trkpt lat="44.54825" lon="6.62133">
        <ele>1642.99</ele>
        <time>2022-10-08T12:01:37Z</time>
      </trkpt>
      <trkpt lat="44.54821" lon="6.62161">
        <ele>1644.73</ele>
        <time>2022-10-08T12:01:39Z</time>
      </trkpt>
      <trkpt lat="44.54813" lon="6.62213">
        <ele>1648.39</ele>
        <time>2022-10-08T12:01:43Z</time>
      </trkpt>
      <trkpt lat="44.54808" lon="6.62239">
        <ele>1649.74</ele>
        <time>2022-10-08T12:01:45Z</time>
      </trkpt>
      <trkpt lat="44.54797" lon="6.62279">
        <ele>1651.51</ele>
        <time>2022-10-08T12:01:48Z</time>
      </trkpt>
      <trkpt lat="44.54792" lon="6.62308">
        <ele>1652.88</ele>
        <time>2022-10-08T12:01:50Z</time>
      </trkpt>
      <trkpt lat="44.54792" lon="6.62323">
        <ele>1654.02</ele>
        <time>2022-10-08T12:01:51Z</time>
      </trkpt>
      <trkpt lat="44.54793" lon="6.62338">
        <ele>1654.02</ele>
        <time>2022-10-08T12:01:52Z</time>
      </trkpt>
      <trkpt lat="44.54803" lon="6.62453">
        <ele>1654.2</ele>
        <time>2022-10-08T12:01:59Z</time>
      </trkpt>
      <trkpt lat="44.54802" lon="6.62469">
        <ele>1654.21</ele>
        <time>2022-10-08T12:02:00Z</time>
      </trkpt>
      <trkpt lat="44.54799" lon="6.62485">
        <ele>1654.14</ele>
        <time>2022-10-08T12:02:01Z</time>
      </trkpt>
      <trkpt lat="44.54795" lon="6.62502">
        <ele>1654.1</ele>
        <time>2022-10-08T12:02:02Z</time>
      </trkpt>
      <trkpt lat="44.54791" lon="6.62518">
        <ele>1654.09</ele>
        <time>2022-10-08T12:02:03Z</time>
      </trkpt>
      <trkpt lat="44.54781" lon="6.62551">
        <ele>1651.64</ele>
        <time>2022-10-08T12:02:05Z</time>
      </trkpt>
      <trkpt lat="44.54735" lon="6.62698">
        <ele>1654.35</ele>
        <time>2022-10-08T12:02:14Z</time>
      </trkpt>
      <trkpt lat="44.54713" lon="6.62773">
        <ele>1654.41</ele>
        <time>2022-10-08T12:02:19Z</time>
      </trkpt>
      <trkpt lat="44.5471" lon="6.62787">
        <ele>1654.4</ele>
        <time>2022-10-08T12:02:20Z</time>
      </trkpt>
      <trkpt lat="44.54709" lon="6.62802">
        <ele>1654.43</ele>
        <time>2022-10-08T12:02:21Z</time>
      </trkpt>
      <trkpt lat="44.5471" lon="6.62818">
        <ele>1654.46</ele>
        <time>2022-10-08T12:02:22Z</time>
      </trkpt>
      <trkpt lat="44.54711" lon="6.62835">
        <ele>1654.5</ele>
        <time>2022-10-08T12:02:23Z</time>
      </trkpt>
      <trkpt lat="44.54715" lon="6.62889">
        <ele>1654.49</ele>
        <time>2022-10-08T12:02:26Z</time>
      </trkpt>
      <trkpt lat="44.54713" lon="6.62906">
        <ele>1654.48</ele>
        <time>2022-10-08T12:02:27Z</time>
      </trkpt>
      <trkpt lat="44.54711" lon="6.62924">
        <ele>1654.49</ele>
        <time>2022-10-08T12:02:28Z</time>
      </trkpt>
      <trkpt lat="44.54667" lon="6.63106">
        <ele>1652.21</ele>
        <time>2022-10-08T12:02:38Z</time>
      </trkpt>
      <trkpt lat="44.54642" lon="6.63213">
        <ele>1649.48</ele>
        <time>2022-10-08T12:02:44Z</time>
      </trkpt>
      <trkpt lat="44.54636" lon="6.63228">
        <ele>1648.42</ele>
        <time>2022-10-08T12:02:45Z</time>
      </trkpt>
      <trkpt lat="44.54629" lon="6.63242">
        <ele>1648.42</ele>
        <time>2022-10-08T12:02:46Z</time>
      </trkpt>
      <trkpt lat="44.5462" lon="6.63253">
        <ele>1647.48</ele>
        <time>2022-10-08T12:02:47Z</time>
      </trkpt>
      <trkpt lat="44.54609" lon="6.63262">
        <ele>1647.49</ele>
        <time>2022-10-08T12:02:48Z</time>
      </trkpt>
      <trkpt lat="44.54597" lon="6.6327">
        <ele>1647.46</ele>
        <time>2022-10-08T12:02:49Z</time>
      </trkpt>
      <trkpt lat="44.54551" lon="6.63296">
        <ele>1647.49</ele>
        <time>2022-10-08T12:02:53Z</time>
      </trkpt>
      <trkpt lat="44.54541" lon="6.63299">
        <ele>1646.65</ele>
        <time>2022-10-08T12:02:54Z</time>
      </trkpt>
      <trkpt lat="44.54532" lon="6.63298">
        <ele>1646.72</ele>
        <time>2022-10-08T12:02:55Z</time>
      </trkpt>
      <trkpt lat="44.54523" lon="6.63296">
        <ele>1646.73</ele>
        <time>2022-10-08T12:02:56Z</time>
      </trkpt>
      <trkpt lat="44.54515" lon="6.63292">
        <ele>1646.77</ele>
        <time>2022-10-08T12:02:57Z</time>
      </trkpt>
      <trkpt lat="44.54507" lon="6.63288">
        <ele>1646.74</ele>
        <time>2022-10-08T12:02:58Z</time>
      </trkpt>
      <trkpt lat="44.54491" lon="6.63278">
        <ele>1647.02</ele>
        <time>2022-10-08T12:03:00Z</time>
      </trkpt>
      <trkpt lat="44.54483" lon="6.63272">
        <ele>1647.01</ele>
        <time>2022-10-08T12:03:01Z</time>
      </trkpt>
      <trkpt lat="44.54477" lon="6.63265">
        <ele>1647.02</ele>
        <time>2022-10-08T12:03:02Z</time>
      </trkpt>
      <trkpt lat="44.54472" lon="6.63256">
        <ele>1647.03</ele>
        <time>2022-10-08T12:03:03Z</time>
      </trkpt>
      <trkpt lat="44.54469" lon="6.63245">
        <ele>1647.05</ele>
        <time>2022-10-08T12:03:04Z</time>
      </trkpt>
      <trkpt lat="44.54468" lon="6.63233">
        <ele>1647.06</ele>
        <time>2022-10-08T12:03:05Z</time>
      </trkpt>
      <trkpt lat="44.54469" lon="6.63221">
        <ele>1647.07</ele>
        <time>2022-10-08T12:03:06Z</time>
      </trkpt>
      <trkpt lat="44.54471" lon="6.63208">
        <ele>1647.09</ele>
        <time>2022-10-08T12:03:07Z</time>
      </trkpt>
      <trkpt lat="44.54474" lon="6.63194">
        <ele>1647.1</ele>
        <time>2022-10-08T12:03:08Z</time>
      </trkpt>
      <trkpt lat="44.54476" lon="6.63177">
        <ele>1647.12</ele>
        <time>2022-10-08T12:03:09Z</time>
      </trkpt>
      <trkpt lat="44.54476" lon="6.63159">
        <ele>1650.13</ele>
        <time>2022-10-08T12:03:10Z</time>
      </trkpt>
      <trkpt lat="44.54476" lon="6.63122">
        <ele>1652.27</ele>
        <time>2022-10-08T12:03:12Z</time>
      </trkpt>
      <trkpt lat="44.54475" lon="6.63086">
        <ele>1655.54</ele>
        <time>2022-10-08T12:03:14Z</time>
      </trkpt>
      <trkpt lat="44.54473" lon="6.63069">
        <ele>1656.39</ele>
        <time>2022-10-08T12:03:15Z</time>
      </trkpt>
      <trkpt lat="44.5447" lon="6.63054">
        <ele>1657.42</ele>
        <time>2022-10-08T12:03:16Z</time>
      </trkpt>
      <trkpt lat="44.54462" lon="6.63025">
        <ele>1659.82</ele>
        <time>2022-10-08T12:03:18Z</time>
      </trkpt>
      <trkpt lat="44.5445" lon="6.63">
        <ele>1662.48</ele>
        <time>2022-10-08T12:03:20Z</time>
      </trkpt>
      <trkpt lat="44.54435" lon="6.62979">
        <ele>1664.42</ele>
        <time>2022-10-08T12:03:22Z</time>
      </trkpt>
      <trkpt lat="44.5443" lon="6.62969">
        <ele>1665.57</ele>
        <time>2022-10-08T12:03:23Z</time>
      </trkpt>
      <trkpt lat="44.54428" lon="6.62959">
        <ele>1665.64</ele>
        <time>2022-10-08T12:03:24Z</time>
      </trkpt>
      <trkpt lat="44.54429" lon="6.6295">
        <ele>1665.73</ele>
        <time>2022-10-08T12:03:25Z</time>
      </trkpt>
      <trkpt lat="44.54433" lon="6.62942">
        <ele>1667.67</ele>
        <time>2022-10-08T12:03:26Z</time>
      </trkpt>
      <trkpt lat="44.54438" lon="6.62935">
        <ele>1668.85</ele>
        <time>2022-10-08T12:03:27Z</time>
      </trkpt>
      <trkpt lat="44.54444" lon="6.62928">
        <ele>1670.39</ele>
        <time>2022-10-08T12:03:28Z</time>
      </trkpt>
      <trkpt lat="44.54449" lon="6.62918">
        <ele>1670.4</ele>
        <time>2022-10-08T12:03:29Z</time>
      </trkpt>
      <trkpt lat="44.54454" lon="6.62905">
        <ele>1672.08</ele>
        <time>2022-10-08T12:03:30Z</time>
      </trkpt>
      <trkpt lat="44.54458" lon="6.6289">
        <ele>1673.33</ele>
        <time>2022-10-08T12:03:31Z</time>
      </trkpt>
      <trkpt lat="44.5447" lon="6.62858">
        <ele>1676.88</ele>
        <time>2022-10-08T12:03:33Z</time>
      </trkpt>
      <trkpt lat="44.54482" lon="6.62827">
        <ele>1679.48</ele>
        <time>2022-10-08T12:03:35Z</time>
      </trkpt>
      <trkpt lat="44.54487" lon="6.62809">
        <ele>1680.68</ele>
        <time>2022-10-08T12:03:36Z</time>
      </trkpt>
      <trkpt lat="44.54495" lon="6.62771">
        <ele>1683.93</ele>
        <time>2022-10-08T12:03:38Z</time>
      </trkpt>
      <trkpt lat="44.545" lon="6.62734">
        <ele>1686.93</ele>
        <time>2022-10-08T12:03:40Z</time>
      </trkpt>
      <trkpt lat="44.545" lon="6.62717">
        <ele>1688.09</ele>
        <time>2022-10-08T12:03:41Z</time>
      </trkpt>
      <trkpt lat="44.54499" lon="6.62689">
        <ele>1689.31</ele>
        <time>2022-10-08T12:03:43Z</time>
      </trkpt>
      <trkpt lat="44.54501" lon="6.62677">
        <ele>1690.26</ele>
        <time>2022-10-08T12:03:44Z</time>
      </trkpt>
      <trkpt lat="44.54505" lon="6.62667">
        <ele>1692.01</ele>
        <time>2022-10-08T12:03:45Z</time>
      </trkpt>
      <trkpt lat="44.54511" lon="6.62658">
        <ele>1692.02</ele>
        <time>2022-10-08T12:03:46Z</time>
      </trkpt>
      <trkpt lat="44.54518" lon="6.62648">
        <ele>1694.23</ele>
        <time>2022-10-08T12:03:47Z</time>
      </trkpt>
      <trkpt lat="44.54522" lon="6.62637">
        <ele>1694.31</ele>
        <time>2022-10-08T12:03:48Z</time>
      </trkpt>
      <trkpt lat="44.54523" lon="6.62625">
        <ele>1696.33</ele>
        <time>2022-10-08T12:03:49Z</time>
      </trkpt>
      <trkpt lat="44.54522" lon="6.62613">
        <ele>1697.25</ele>
        <time>2022-10-08T12:03:50Z</time>
      </trkpt>
      <trkpt lat="44.54518" lon="6.62602">
        <ele>1698.14</ele>
        <time>2022-10-08T12:03:51Z</time>
      </trkpt>
      <trkpt lat="44.54511" lon="6.62593">
        <ele>1699.05</ele>
        <time>2022-10-08T12:03:52Z</time>
      </trkpt>
      <trkpt lat="44.54503" lon="6.62586">
        <ele>1700.06</ele>
        <time>2022-10-08T12:03:53Z</time>
      </trkpt>
      <trkpt lat="44.54494" lon="6.62583">
        <ele>1701.19</ele>
        <time>2022-10-08T12:03:54Z</time>
      </trkpt>
      <trkpt lat="44.54485" lon="6.62584">
        <ele>1702.22</ele>
        <time>2022-10-08T12:03:55Z</time>
      </trkpt>
      <trkpt lat="44.54477" lon="6.62589">
        <ele>1702.22</ele>
        <time>2022-10-08T12:03:56Z</time>
      </trkpt>
      <trkpt lat="44.54472" lon="6.62597">
        <ele>1702.17</ele>
        <time>2022-10-08T12:03:57Z</time>
      </trkpt>
      <trkpt lat="44.54467" lon="6.62608">
        <ele>1703.96</ele>
        <time>2022-10-08T12:03:58Z</time>
      </trkpt>
      <trkpt lat="44.54464" lon="6.62621">
        <ele>1703.94</ele>
        <time>2022-10-08T12:03:59Z</time>
      </trkpt>
      <trkpt lat="44.54461" lon="6.62634">
        <ele>1704.03</ele>
        <time>2022-10-08T12:04:00Z</time>
      </trkpt>
      <trkpt lat="44.54457" lon="6.62646">
        <ele>1704.93</ele>
        <time>2022-10-08T12:04:01Z</time>
      </trkpt>
      <trkpt lat="44.5445" lon="6.62656">
        <ele>1705.8</ele>
        <time>2022-10-08T12:04:02Z</time>
      </trkpt>
      <trkpt lat="44.54442" lon="6.62665">
        <ele>1705.81</ele>
        <time>2022-10-08T12:04:03Z</time>
      </trkpt>
      <trkpt lat="44.54436" lon="6.62674">
        <ele>1706.78</ele>
        <time>2022-10-08T12:04:04Z</time>
      </trkpt>
      <trkpt lat="44.54431" lon="6.62684">
        <ele>1706.78</ele>
        <time>2022-10-08T12:04:05Z</time>
      </trkpt>
      <trkpt lat="44.54428" lon="6.62694">
        <ele>1706.86</ele>
        <time>2022-10-08T12:04:06Z</time>
      </trkpt>
      <trkpt lat="44.54426" lon="6.62702">
        <ele>1706.85</ele>
        <time>2022-10-08T12:04:07Z</time>
      </trkpt>
      <trkpt lat="44.54422" lon="6.62707">
        <ele>1706.84</ele>
        <time>2022-10-08T12:04:08Z</time>
      </trkpt>
      <trkpt lat="44.54418" lon="6.62709">
        <ele>1706.87</ele>
        <time>2022-10-08T12:04:09Z</time>
      </trkpt>
      <trkpt lat="44.54413" lon="6.62709">
        <ele>1706.85</ele>
        <time>2022-10-08T12:04:10Z</time>
      </trkpt>
      <trkpt lat="44.54409" lon="6.62705">
        <ele>1707.91</ele>
        <time>2022-10-08T12:04:11Z</time>
      </trkpt>
      <trkpt lat="44.54408" lon="6.62698">
        <ele>1708.77</ele>
        <time>2022-10-08T12:04:12Z</time>
      </trkpt>
      <trkpt lat="44.54408" lon="6.6269">
        <ele>1708.73</ele>
        <time>2022-10-08T12:04:13Z</time>
      </trkpt>
      <trkpt lat="44.54409" lon="6.6268">
        <ele>1709.73</ele>
        <time>2022-10-08T12:04:14Z</time>
      </trkpt>
      <trkpt lat="44.54411" lon="6.6267">
        <ele>1710.65</ele>
        <time>2022-10-08T12:04:15Z</time>
      </trkpt>
      <trkpt lat="44.54415" lon="6.62648">
        <ele>1711.7</ele>
        <time>2022-10-08T12:04:17Z</time>
      </trkpt>
      <trkpt lat="44.54418" lon="6.6263">
        <ele>1713.5</ele>
        <time>2022-10-08T12:04:19Z</time>
      </trkpt>
      <trkpt lat="44.54417" lon="6.62624">
        <ele>1713.51</ele>
        <time>2022-10-08T12:04:20Z</time>
      </trkpt>
      <trkpt lat="44.54414" lon="6.62619">
        <ele>1713.56</ele>
        <time>2022-10-08T12:04:21Z</time>
      </trkpt>
      <trkpt lat="44.5441" lon="6.62619">
        <ele>1713.56</ele>
        <time>2022-10-08T12:04:22Z</time>
      </trkpt>
      <trkpt lat="44.54407" lon="6.62622">
        <ele>1713.57</ele>
        <time>2022-10-08T12:04:23Z</time>
      </trkpt>
      <trkpt lat="44.54404" lon="6.62629">
        <ele>1714.67</ele>
        <time>2022-10-08T12:04:24Z</time>
      </trkpt>
      <trkpt lat="44.54403" lon="6.62638">
        <ele>1715.2</ele>
        <time>2022-10-08T12:04:25Z</time>
      </trkpt>
      <trkpt lat="44.54393" lon="6.62674">
        <ele>1719.57</ele>
        <time>2022-10-08T12:04:28Z</time>
      </trkpt>
      <trkpt lat="44.54389" lon="6.62688">
        <ele>1719.65</ele>
        <time>2022-10-08T12:04:29Z</time>
      </trkpt>
      <trkpt lat="44.54379" lon="6.62718">
        <ele>1723.38</ele>
        <time>2022-10-08T12:04:31Z</time>
      </trkpt>
      <trkpt lat="44.54375" lon="6.62734">
        <ele>1723.37</ele>
        <time>2022-10-08T12:04:32Z</time>
      </trkpt>
      <trkpt lat="44.54362" lon="6.62785">
        <ele>1727.27</ele>
        <time>2022-10-08T12:04:35Z</time>
      </trkpt>
      <trkpt lat="44.54355" lon="6.62801">
        <ele>1728.96</ele>
        <time>2022-10-08T12:04:36Z</time>
      </trkpt>
      <trkpt lat="44.54338" lon="6.62834">
        <ele>1732.39</ele>
        <time>2022-10-08T12:04:38Z</time>
      </trkpt>
      <trkpt lat="44.5432" lon="6.62867">
        <ele>1733.74</ele>
        <time>2022-10-08T12:04:40Z</time>
      </trkpt>
      <trkpt lat="44.54311" lon="6.62881">
        <ele>1735.78</ele>
        <time>2022-10-08T12:04:41Z</time>
      </trkpt>
      <trkpt lat="44.54293" lon="6.62906">
        <ele>1739.06</ele>
        <time>2022-10-08T12:04:43Z</time>
      </trkpt>
      <trkpt lat="44.54279" lon="6.62926">
        <ele>1740.7</ele>
        <time>2022-10-08T12:04:45Z</time>
      </trkpt>
      <trkpt lat="44.54265" lon="6.62956">
        <ele>1743.24</ele>
        <time>2022-10-08T12:04:48Z</time>
      </trkpt>
      <trkpt lat="44.54264" lon="6.62967">
        <ele>1743.87</ele>
        <time>2022-10-08T12:04:49Z</time>
      </trkpt>
      <trkpt lat="44.54265" lon="6.62978">
        <ele>1745.85</ele>
        <time>2022-10-08T12:04:50Z</time>
      </trkpt>
      <trkpt lat="44.54265" lon="6.62989">
        <ele>1745.97</ele>
        <time>2022-10-08T12:04:51Z</time>
      </trkpt>
      <trkpt lat="44.54265" lon="6.63001">
        <ele>1747.82</ele>
        <time>2022-10-08T12:04:52Z</time>
      </trkpt>
      <trkpt lat="44.54263" lon="6.63014">
        <ele>1748.72</ele>
        <time>2022-10-08T12:04:53Z</time>
      </trkpt>
      <trkpt lat="44.5426" lon="6.63028">
        <ele>1750.14</ele>
        <time>2022-10-08T12:04:54Z</time>
      </trkpt>
      <trkpt lat="44.54255" lon="6.63044">
        <ele>1751.65</ele>
        <time>2022-10-08T12:04:55Z</time>
      </trkpt>
      <trkpt lat="44.54245" lon="6.63077">
        <ele>1753.24</ele>
        <time>2022-10-08T12:04:57Z</time>
      </trkpt>
      <trkpt lat="44.54234" lon="6.63108">
        <ele>1756.65</ele>
        <time>2022-10-08T12:04:59Z</time>
      </trkpt>
      <trkpt lat="44.5423" lon="6.63124">
        <ele>1756.61</ele>
        <time>2022-10-08T12:05:00Z</time>
      </trkpt>
      <trkpt lat="44.54228" lon="6.6314">
        <ele>1758.35</ele>
        <time>2022-10-08T12:05:01Z</time>
      </trkpt>
      <trkpt lat="44.54223" lon="6.6317">
        <ele>1760.51</ele>
        <time>2022-10-08T12:05:03Z</time>
      </trkpt>
      <trkpt lat="44.54218" lon="6.63183">
        <ele>1762.04</ele>
        <time>2022-10-08T12:05:04Z</time>
      </trkpt>
      <trkpt lat="44.54212" lon="6.63194">
        <ele>1762.03</ele>
        <time>2022-10-08T12:05:05Z</time>
      </trkpt>
      <trkpt lat="44.54204" lon="6.63202">
        <ele>1763.77</ele>
        <time>2022-10-08T12:05:06Z</time>
      </trkpt>
      <trkpt lat="44.54196" lon="6.6321">
        <ele>1765.14</ele>
        <time>2022-10-08T12:05:07Z</time>
      </trkpt>
      <trkpt lat="44.54187" lon="6.63218">
        <ele>1766.06</ele>
        <time>2022-10-08T12:05:08Z</time>
      </trkpt>
      <trkpt lat="44.54179" lon="6.63228">
        <ele>1767.41</ele>
        <time>2022-10-08T12:05:09Z</time>
      </trkpt>
      <trkpt lat="44.54173" lon="6.63241">
        <ele>1768.63</ele>
        <time>2022-10-08T12:05:10Z</time>
      </trkpt>
      <trkpt lat="44.54166" lon="6.63256">
        <ele>1769.98</ele>
        <time>2022-10-08T12:05:11Z</time>
      </trkpt>
      <trkpt lat="44.5416" lon="6.63273">
        <ele>1771.88</ele>
        <time>2022-10-08T12:05:12Z</time>
      </trkpt>
      <trkpt lat="44.54146" lon="6.63308">
        <ele>1775.09</ele>
        <time>2022-10-08T12:05:14Z</time>
      </trkpt>
      <trkpt lat="44.54134" lon="6.63339">
        <ele>1776.15</ele>
        <time>2022-10-08T12:05:16Z</time>
      </trkpt>
      <trkpt lat="44.54125" lon="6.63362">
        <ele>1778.01</ele>
        <time>2022-10-08T12:05:18Z</time>
      </trkpt>
      <trkpt lat="44.54121" lon="6.63368">
        <ele>1778.01</ele>
        <time>2022-10-08T12:05:19Z</time>
      </trkpt>
      <trkpt lat="44.54117" lon="6.63369">
        <ele>1778.12</ele>
        <time>2022-10-08T12:05:20Z</time>
      </trkpt>
      <trkpt lat="44.54114" lon="6.63367">
        <ele>1779.38</ele>
        <time>2022-10-08T12:05:21Z</time>
      </trkpt>
      <trkpt lat="44.54112" lon="6.63362">
        <ele>1779.46</ele>
        <time>2022-10-08T12:05:22Z</time>
      </trkpt>
      <trkpt lat="44.54111" lon="6.63355">
        <ele>1780.48</ele>
        <time>2022-10-08T12:05:23Z</time>
      </trkpt>
      <trkpt lat="44.54112" lon="6.63346">
        <ele>1780.48</ele>
        <time>2022-10-08T12:05:24Z</time>
      </trkpt>
      <trkpt lat="44.54114" lon="6.63336">
        <ele>1782.04</ele>
        <time>2022-10-08T12:05:25Z</time>
      </trkpt>
      <trkpt lat="44.54116" lon="6.63324">
        <ele>1781.93</ele>
        <time>2022-10-08T12:05:26Z</time>
      </trkpt>
      <trkpt lat="44.54118" lon="6.63312">
        <ele>1781.91</ele>
        <time>2022-10-08T12:05:27Z</time>
      </trkpt>
      <trkpt lat="44.54118" lon="6.63299">
        <ele>1784.02</ele>
        <time>2022-10-08T12:05:28Z</time>
      </trkpt>
      <trkpt lat="44.54118" lon="6.63286">
        <ele>1784.05</ele>
        <time>2022-10-08T12:05:29Z</time>
      </trkpt>
      <trkpt lat="44.54116" lon="6.63272">
        <ele>1785.25</ele>
        <time>2022-10-08T12:05:30Z</time>
      </trkpt>
      <trkpt lat="44.54113" lon="6.63259">
        <ele>1785.3</ele>
        <time>2022-10-08T12:05:31Z</time>
      </trkpt>
      <trkpt lat="44.54109" lon="6.63247">
        <ele>1786.65</ele>
        <time>2022-10-08T12:05:32Z</time>
      </trkpt>
      <trkpt lat="44.54104" lon="6.63235">
        <ele>1786.6</ele>
        <time>2022-10-08T12:05:33Z</time>
      </trkpt>
      <trkpt lat="44.541" lon="6.63223">
        <ele>1787.75</ele>
        <time>2022-10-08T12:05:34Z</time>
      </trkpt>
      <trkpt lat="44.54097" lon="6.63209">
        <ele>1787.73</ele>
        <time>2022-10-08T12:05:35Z</time>
      </trkpt>
      <trkpt lat="44.54096" lon="6.63195">
        <ele>1788.64</ele>
        <time>2022-10-08T12:05:36Z</time>
      </trkpt>
      <trkpt lat="44.54095" lon="6.6318">
        <ele>1789.55</ele>
        <time>2022-10-08T12:05:37Z</time>
      </trkpt>
      <trkpt lat="44.54095" lon="6.63168">
        <ele>1790.39</ele>
        <time>2022-10-08T12:05:38Z</time>
      </trkpt>
      <trkpt lat="44.54096" lon="6.63146">
        <ele>1791.42</ele>
        <time>2022-10-08T12:05:40Z</time>
      </trkpt>
      <trkpt lat="44.54095" lon="6.63138">
        <ele>1792.72</ele>
        <time>2022-10-08T12:05:41Z</time>
      </trkpt>
      <trkpt lat="44.54092" lon="6.63132">
        <ele>1792.8</ele>
        <time>2022-10-08T12:05:42Z</time>
      </trkpt>
      <trkpt lat="44.54088" lon="6.63129">
        <ele>1792.73</ele>
        <time>2022-10-08T12:05:43Z</time>
      </trkpt>
      <trkpt lat="44.54083" lon="6.6313">
        <ele>1793.85</ele>
        <time>2022-10-08T12:05:44Z</time>
      </trkpt>
      <trkpt lat="44.5408" lon="6.63134">
        <ele>1794.82</ele>
        <time>2022-10-08T12:05:45Z</time>
      </trkpt>
      <trkpt lat="44.54076" lon="6.63141">
        <ele>1795.73</ele>
        <time>2022-10-08T12:05:46Z</time>
      </trkpt>
      <trkpt lat="44.54073" lon="6.63155">
        <ele>1797.08</ele>
        <time>2022-10-08T12:05:47Z</time>
      </trkpt>
      <trkpt lat="44.54069" lon="6.6317">
        <ele>1798.21</ele>
        <time>2022-10-08T12:05:48Z</time>
      </trkpt>
      <trkpt lat="44.54057" lon="6.63219">
        <ele>1802.33</ele>
        <time>2022-10-08T12:05:51Z</time>
      </trkpt>
      <trkpt lat="44.54055" lon="6.63238">
        <ele>1804.29</ele>
        <time>2022-10-08T12:05:52Z</time>
      </trkpt>
      <trkpt lat="44.54053" lon="6.63274">
        <ele>1807.44</ele>
        <time>2022-10-08T12:05:54Z</time>
      </trkpt>
      <trkpt lat="44.54048" lon="6.63308">
        <ele>1810.09</ele>
        <time>2022-10-08T12:05:56Z</time>
      </trkpt>
      <trkpt lat="44.54044" lon="6.63325">
        <ele>1811.16</ele>
        <time>2022-10-08T12:05:57Z</time>
      </trkpt>
      <trkpt lat="44.54038" lon="6.63342">
        <ele>1812.61</ele>
        <time>2022-10-08T12:05:58Z</time>
      </trkpt>
      <trkpt lat="44.54023" lon="6.63376">
        <ele>1817.12</ele>
        <time>2022-10-08T12:06:00Z</time>
      </trkpt>
      <trkpt lat="44.53997" lon="6.63422">
        <ele>1821.17</ele>
        <time>2022-10-08T12:06:03Z</time>
      </trkpt>
      <trkpt lat="44.53987" lon="6.63434">
        <ele>1822.21</ele>
        <time>2022-10-08T12:06:04Z</time>
      </trkpt>
      <trkpt lat="44.53975" lon="6.63444">
        <ele>1823.43</ele>
        <time>2022-10-08T12:06:05Z</time>
      </trkpt>
      <trkpt lat="44.53963" lon="6.63452">
        <ele>1825.1</ele>
        <time>2022-10-08T12:06:06Z</time>
      </trkpt>
      <trkpt lat="44.53952" lon="6.63461">
        <ele>1825.88</ele>
        <time>2022-10-08T12:06:07Z</time>
      </trkpt>
      <trkpt lat="44.53942" lon="6.6347">
        <ele>1826.7</ele>
        <time>2022-10-08T12:06:08Z</time>
      </trkpt>
      <trkpt lat="44.53934" lon="6.63482">
        <ele>1828.01</ele>
        <time>2022-10-08T12:06:09Z</time>
      </trkpt>
      <trkpt lat="44.53926" lon="6.63495">
        <ele>1828.68</ele>
        <time>2022-10-08T12:06:10Z</time>
      </trkpt>
      <trkpt lat="44.53913" lon="6.63521">
        <ele>1831.11</ele>
        <time>2022-10-08T12:06:12Z</time>
      </trkpt>
      <trkpt lat="44.5391" lon="6.63535">
        <ele>1832.07</ele>
        <time>2022-10-08T12:06:13Z</time>
      </trkpt>
      <trkpt lat="44.53909" lon="6.6355">
        <ele>1833.08</ele>
        <time>2022-10-08T12:06:14Z</time>
      </trkpt>
      <trkpt lat="44.53908" lon="6.63591">
        <ele>1835.53</ele>
        <time>2022-10-08T12:06:17Z</time>
      </trkpt>
      <trkpt lat="44.53906" lon="6.63604">
        <ele>1836.57</ele>
        <time>2022-10-08T12:06:18Z</time>
      </trkpt>
      <trkpt lat="44.53903" lon="6.63617">
        <ele>1836.57</ele>
        <time>2022-10-08T12:06:19Z</time>
      </trkpt>
      <trkpt lat="44.53898" lon="6.63631">
        <ele>1837.47</ele>
        <time>2022-10-08T12:06:20Z</time>
      </trkpt>
      <trkpt lat="44.53893" lon="6.63644">
        <ele>1838.41</ele>
        <time>2022-10-08T12:06:21Z</time>
      </trkpt>
      <trkpt lat="44.53887" lon="6.63655">
        <ele>1838.49</ele>
        <time>2022-10-08T12:06:22Z</time>
      </trkpt>
      <trkpt lat="44.5388" lon="6.63665">
        <ele>1838.45</ele>
        <time>2022-10-08T12:06:23Z</time>
      </trkpt>
      <trkpt lat="44.53873" lon="6.63674">
        <ele>1838.52</ele>
        <time>2022-10-08T12:06:24Z</time>
      </trkpt>
      <trkpt lat="44.53865" lon="6.63682">
        <ele>1838.5</ele>
        <time>2022-10-08T12:06:25Z</time>
      </trkpt>
      <trkpt lat="44.53857" lon="6.63688">
        <ele>1839.68</ele>
        <time>2022-10-08T12:06:26Z</time>
      </trkpt>
      <trkpt lat="44.53849" lon="6.63694">
        <ele>1839.66</ele>
        <time>2022-10-08T12:06:27Z</time>
      </trkpt>
      <trkpt lat="44.53841" lon="6.63698">
        <ele>1840.62</ele>
        <time>2022-10-08T12:06:28Z</time>
      </trkpt>
      <trkpt lat="44.53834" lon="6.63703">
        <ele>1841.09</ele>
        <time>2022-10-08T12:06:29Z</time>
      </trkpt>
      <trkpt lat="44.53828" lon="6.63709">
        <ele>1841.1</ele>
        <time>2022-10-08T12:06:30Z</time>
      </trkpt>
      <trkpt lat="44.53823" lon="6.63716">
        <ele>1841.15</ele>
        <time>2022-10-08T12:06:31Z</time>
      </trkpt>
      <trkpt lat="44.53818" lon="6.63724">
        <ele>1842.36</ele>
        <time>2022-10-08T12:06:32Z</time>
      </trkpt>
      <trkpt lat="44.53813" lon="6.63731">
        <ele>1842.4</ele>
        <time>2022-10-08T12:06:33Z</time>
      </trkpt>
      <trkpt lat="44.53807" lon="6.63746">
        <ele>1842.4</ele>
        <time>2022-10-08T12:06:35Z</time>
      </trkpt>
      <trkpt lat="44.53806" lon="6.63753">
        <ele>1842.41</ele>
        <time>2022-10-08T12:06:36Z</time>
      </trkpt>
      <trkpt lat="44.53807" lon="6.63759">
        <ele>1842.42</ele>
        <time>2022-10-08T12:06:37Z</time>
      </trkpt>
      <trkpt lat="44.53808" lon="6.63767">
        <ele>1842.44</ele>
        <time>2022-10-08T12:06:45Z</time>
      </trkpt>
      <trkpt lat="44.53816" lon="6.63787">
        <ele>1843.64</ele>
        <time>2022-10-08T12:07:08Z</time>
      </trkpt>
      <trkpt lat="44.53817" lon="6.63797">
        <ele>1843.67</ele>
        <time>2022-10-08T12:07:09Z</time>
      </trkpt>
      <trkpt lat="44.53819" lon="6.63813">
        <ele>1844.58</ele>
        <time>2022-10-08T12:07:11Z</time>
      </trkpt>
      <trkpt lat="44.53818" lon="6.6382">
        <ele>1845.62</ele>
        <time>2022-10-08T12:07:12Z</time>
      </trkpt>
      <trkpt lat="44.53816" lon="6.63825">
        <ele>1845.66</ele>
        <time>2022-10-08T12:07:13Z</time>
      </trkpt>
      <trkpt lat="44.53813" lon="6.63832">
        <ele>1847.19</ele>
        <time>2022-10-08T12:07:14Z</time>
      </trkpt>
      <trkpt lat="44.53809" lon="6.63838">
        <ele>1847.19</ele>
        <time>2022-10-08T12:07:15Z</time>
      </trkpt>
      <trkpt lat="44.53806" lon="6.63845">
        <ele>1848.95</ele>
        <time>2022-10-08T12:07:16Z</time>
      </trkpt>
      <trkpt lat="44.53804" lon="6.63853">
        <ele>1849.02</ele>
        <time>2022-10-08T12:07:17Z</time>
      </trkpt>
      <trkpt lat="44.53804" lon="6.63862">
        <ele>1850.27</ele>
        <time>2022-10-08T12:07:18Z</time>
      </trkpt>
      <trkpt lat="44.53807" lon="6.6387">
        <ele>1851.9</ele>
        <time>2022-10-08T12:07:19Z</time>
      </trkpt>
      <trkpt lat="44.53812" lon="6.63877">
        <ele>1851.96</ele>
        <time>2022-10-08T12:07:20Z</time>
      </trkpt>
      <trkpt lat="44.53819" lon="6.63884">
        <ele>1854.05</ele>
        <time>2022-10-08T12:07:21Z</time>
      </trkpt>
      <trkpt lat="44.53825" lon="6.63893">
        <ele>1854.1</ele>
        <time>2022-10-08T12:07:22Z</time>
      </trkpt>
      <trkpt lat="44.53831" lon="6.63903">
        <ele>1854.11</ele>
        <time>2022-10-08T12:07:23Z</time>
      </trkpt>
      <trkpt lat="44.53842" lon="6.63924">
        <ele>1856.67</ele>
        <time>2022-10-08T12:07:25Z</time>
      </trkpt>
      <trkpt lat="44.53846" lon="6.63936">
        <ele>1858.53</ele>
        <time>2022-10-08T12:07:26Z</time>
      </trkpt>
      <trkpt lat="44.5385" lon="6.63948">
        <ele>1858.71</ele>
        <time>2022-10-08T12:07:27Z</time>
      </trkpt>
      <trkpt lat="44.53851" lon="6.63961">
        <ele>1860.51</ele>
        <time>2022-10-08T12:07:28Z</time>
      </trkpt>
      <trkpt lat="44.53852" lon="6.63974">
        <ele>1860.52</ele>
        <time>2022-10-08T12:07:29Z</time>
      </trkpt>
      <trkpt lat="44.53852" lon="6.63987">
        <ele>1861.86</ele>
        <time>2022-10-08T12:07:30Z</time>
      </trkpt>
      <trkpt lat="44.53851" lon="6.64">
        <ele>1861.88</ele>
        <time>2022-10-08T12:07:31Z</time>
      </trkpt>
      <trkpt lat="44.53849" lon="6.64013">
        <ele>1862.95</ele>
        <time>2022-10-08T12:07:32Z</time>
      </trkpt>
      <trkpt lat="44.53844" lon="6.64026">
        <ele>1864.07</ele>
        <time>2022-10-08T12:07:33Z</time>
      </trkpt>
      <trkpt lat="44.53839" lon="6.64038">
        <ele>1864.12</ele>
        <time>2022-10-08T12:07:34Z</time>
      </trkpt>
      <trkpt lat="44.53833" lon="6.64049">
        <ele>1865.16</ele>
        <time>2022-10-08T12:07:35Z</time>
      </trkpt>
      <trkpt lat="44.5382" lon="6.64071">
        <ele>1866.28</ele>
        <time>2022-10-08T12:07:38Z</time>
      </trkpt>
      <trkpt lat="44.53816" lon="6.64073">
        <ele>1866.35</ele>
        <time>2022-10-08T12:07:39Z</time>
      </trkpt>
      <trkpt lat="44.53813" lon="6.64071">
        <ele>1866.27</ele>
        <time>2022-10-08T12:07:40Z</time>
      </trkpt>
      <trkpt lat="44.53812" lon="6.64068">
        <ele>1866.32</ele>
        <time>2022-10-08T12:07:41Z</time>
      </trkpt>
      <trkpt lat="44.53812" lon="6.64063">
        <ele>1866.27</ele>
        <time>2022-10-08T12:07:42Z</time>
      </trkpt>
      <trkpt lat="44.53814" lon="6.64058">
        <ele>1866.7</ele>
        <time>2022-10-08T12:07:43Z</time>
      </trkpt>
      <trkpt lat="44.53817" lon="6.64051">
        <ele>1866.7</ele>
        <time>2022-10-08T12:07:44Z</time>
      </trkpt>
      <trkpt lat="44.53821" lon="6.64042">
        <ele>1866.76</ele>
        <time>2022-10-08T12:07:45Z</time>
      </trkpt>
      <trkpt lat="44.53826" lon="6.64031">
        <ele>1868</ele>
        <time>2022-10-08T12:07:46Z</time>
      </trkpt>
      <trkpt lat="44.5383" lon="6.64018">
        <ele>1869.08</ele>
        <time>2022-10-08T12:07:47Z</time>
      </trkpt>
      <trkpt lat="44.53833" lon="6.64004">
        <ele>1869.08</ele>
        <time>2022-10-08T12:07:48Z</time>
      </trkpt>
      <trkpt lat="44.53834" lon="6.63992">
        <ele>1870.04</ele>
        <time>2022-10-08T12:07:49Z</time>
      </trkpt>
      <trkpt lat="44.53835" lon="6.63982">
        <ele>1870.04</ele>
        <time>2022-10-08T12:07:50Z</time>
      </trkpt>
      <trkpt lat="44.53835" lon="6.63969">
        <ele>1870.05</ele>
        <time>2022-10-08T12:07:52Z</time>
      </trkpt>
      <trkpt lat="44.53833" lon="6.63964">
        <ele>1870.05</ele>
        <time>2022-10-08T12:07:53Z</time>
      </trkpt>
      <trkpt lat="44.53831" lon="6.63961">
        <ele>1871.26</ele>
        <time>2022-10-08T12:07:54Z</time>
      </trkpt>
      <trkpt lat="44.53828" lon="6.63961">
        <ele>1871.26</ele>
        <time>2022-10-08T12:07:55Z</time>
      </trkpt>
      <trkpt lat="44.53825" lon="6.63963">
        <ele>1871.27</ele>
        <time>2022-10-08T12:07:56Z</time>
      </trkpt>
      <trkpt lat="44.53823" lon="6.63968">
        <ele>1872.4</ele>
        <time>2022-10-08T12:07:57Z</time>
      </trkpt>
      <trkpt lat="44.53821" lon="6.63975">
        <ele>1872.41</ele>
        <time>2022-10-08T12:07:58Z</time>
      </trkpt>
      <trkpt lat="44.53819" lon="6.63981">
        <ele>1873.59</ele>
        <time>2022-10-08T12:07:59Z</time>
      </trkpt>
      <trkpt lat="44.53817" lon="6.63988">
        <ele>1873.62</ele>
        <time>2022-10-08T12:08:00Z</time>
      </trkpt>
      <trkpt lat="44.53814" lon="6.63996">
        <ele>1875.09</ele>
        <time>2022-10-08T12:08:01Z</time>
      </trkpt>
      <trkpt lat="44.53811" lon="6.64004">
        <ele>1875.14</ele>
        <time>2022-10-08T12:08:02Z</time>
      </trkpt>
      <trkpt lat="44.53807" lon="6.64013">
        <ele>1876.28</ele>
        <time>2022-10-08T12:08:03Z</time>
      </trkpt>
      <trkpt lat="44.53803" lon="6.64021">
        <ele>1877.52</ele>
        <time>2022-10-08T12:08:04Z</time>
      </trkpt>
      <trkpt lat="44.53797" lon="6.64028">
        <ele>1878.4</ele>
        <time>2022-10-08T12:08:05Z</time>
      </trkpt>
      <trkpt lat="44.53778" lon="6.64047">
        <ele>1882.35</ele>
        <time>2022-10-08T12:08:08Z</time>
      </trkpt>
      <trkpt lat="44.53764" lon="6.64059">
        <ele>1884.19</ele>
        <time>2022-10-08T12:08:10Z</time>
      </trkpt>
      <trkpt lat="44.53757" lon="6.64064">
        <ele>1885.28</ele>
        <time>2022-10-08T12:08:11Z</time>
      </trkpt>
      <trkpt lat="44.5375" lon="6.64069">
        <ele>1886.9</ele>
        <time>2022-10-08T12:08:12Z</time>
      </trkpt>
      <trkpt lat="44.53724" lon="6.64081">
        <ele>1890.3</ele>
        <time>2022-10-08T12:08:15Z</time>
      </trkpt>
      <trkpt lat="44.53695" lon="6.64093">
        <ele>1893.1</ele>
        <time>2022-10-08T12:08:18Z</time>
      </trkpt>
      <trkpt lat="44.53675" lon="6.64103">
        <ele>1897.2</ele>
        <time>2022-10-08T12:08:20Z</time>
      </trkpt>
      <trkpt lat="44.53649" lon="6.64118">
        <ele>1900.56</ele>
        <time>2022-10-08T12:08:23Z</time>
      </trkpt>
      <trkpt lat="44.53641" lon="6.64123">
        <ele>1900.67</ele>
        <time>2022-10-08T12:08:24Z</time>
      </trkpt>
      <trkpt lat="44.53624" lon="6.64131">
        <ele>1903.9</ele>
        <time>2022-10-08T12:08:26Z</time>
      </trkpt>
      <trkpt lat="44.53616" lon="6.64134">
        <ele>1903.87</ele>
        <time>2022-10-08T12:08:27Z</time>
      </trkpt>
      <trkpt lat="44.53608" lon="6.64138">
        <ele>1905.82</ele>
        <time>2022-10-08T12:08:28Z</time>
      </trkpt>
      <trkpt lat="44.53601" lon="6.64142">
        <ele>1905.93</ele>
        <time>2022-10-08T12:08:29Z</time>
      </trkpt>
      <trkpt lat="44.53595" lon="6.64147">
        <ele>1906.74</ele>
        <time>2022-10-08T12:08:30Z</time>
      </trkpt>
      <trkpt lat="44.53582" lon="6.64158">
        <ele>1907.56</ele>
        <time>2022-10-08T12:08:32Z</time>
      </trkpt>
      <trkpt lat="44.53577" lon="6.64161">
        <ele>1908.27</ele>
        <time>2022-10-08T12:08:33Z</time>
      </trkpt>
      <trkpt lat="44.53565" lon="6.64166">
        <ele>1910.19</ele>
        <time>2022-10-08T12:08:35Z</time>
      </trkpt>
      <trkpt lat="44.53559" lon="6.64166">
        <ele>1910.22</ele>
        <time>2022-10-08T12:08:36Z</time>
      </trkpt>
      <trkpt lat="44.53553" lon="6.64165">
        <ele>1910.23</ele>
        <time>2022-10-08T12:08:37Z</time>
      </trkpt>
      <trkpt lat="44.53547" lon="6.64162">
        <ele>1911.46</ele>
        <time>2022-10-08T12:08:38Z</time>
      </trkpt>
      <trkpt lat="44.53541" lon="6.64158">
        <ele>1910.65</ele>
        <time>2022-10-08T12:08:39Z</time>
      </trkpt>
      <trkpt lat="44.53534" lon="6.64153">
        <ele>1910.72</ele>
        <time>2022-10-08T12:08:40Z</time>
      </trkpt>
      <trkpt lat="44.53526" lon="6.64149">
        <ele>1910.72</ele>
        <time>2022-10-08T12:08:41Z</time>
      </trkpt>
      <trkpt lat="44.53518" lon="6.64148">
        <ele>1911.75</ele>
        <time>2022-10-08T12:08:42Z</time>
      </trkpt>
      <trkpt lat="44.53509" lon="6.64147">
        <ele>1911.75</ele>
        <time>2022-10-08T12:08:43Z</time>
      </trkpt>
      <trkpt lat="44.535" lon="6.64147">
        <ele>1911.79</ele>
        <time>2022-10-08T12:08:44Z</time>
      </trkpt>
      <trkpt lat="44.53491" lon="6.64146">
        <ele>1913.09</ele>
        <time>2022-10-08T12:08:45Z</time>
      </trkpt>
      <trkpt lat="44.53482" lon="6.64145">
        <ele>1913.03</ele>
        <time>2022-10-08T12:08:46Z</time>
      </trkpt>
      <trkpt lat="44.53474" lon="6.64145">
        <ele>1913.07</ele>
        <time>2022-10-08T12:08:47Z</time>
      </trkpt>
      <trkpt lat="44.53465" lon="6.64147">
        <ele>1913.12</ele>
        <time>2022-10-08T12:08:48Z</time>
      </trkpt>
      <trkpt lat="44.53446" lon="6.64152">
        <ele>1913.14</ele>
        <time>2022-10-08T12:08:50Z</time>
      </trkpt>
      <trkpt lat="44.53421" lon="6.64161">
        <ele>1914.03</ele>
        <time>2022-10-08T12:08:53Z</time>
      </trkpt>
      <trkpt lat="44.53404" lon="6.64165">
        <ele>1915.43</ele>
        <time>2022-10-08T12:08:55Z</time>
      </trkpt>
      <trkpt lat="44.53395" lon="6.64165">
        <ele>1916.55</ele>
        <time>2022-10-08T12:08:56Z</time>
      </trkpt>
      <trkpt lat="44.53387" lon="6.64165">
        <ele>1916.54</ele>
        <time>2022-10-08T12:08:57Z</time>
      </trkpt>
      <trkpt lat="44.5337" lon="6.64165">
        <ele>1918.45</ele>
        <time>2022-10-08T12:08:59Z</time>
      </trkpt>
      <trkpt lat="44.53362" lon="6.64163">
        <ele>1919.6</ele>
        <time>2022-10-08T12:09:00Z</time>
      </trkpt>
      <trkpt lat="44.53355" lon="6.6416">
        <ele>1920.97</ele>
        <time>2022-10-08T12:09:01Z</time>
      </trkpt>
      <trkpt lat="44.53346" lon="6.64157">
        <ele>1922.07</ele>
        <time>2022-10-08T12:09:02Z</time>
      </trkpt>
      <trkpt lat="44.53338" lon="6.64155">
        <ele>1922.98</ele>
        <time>2022-10-08T12:09:03Z</time>
      </trkpt>
      <trkpt lat="44.53329" lon="6.64153">
        <ele>1924.29</ele>
        <time>2022-10-08T12:09:04Z</time>
      </trkpt>
      <trkpt lat="44.53301" lon="6.64146">
        <ele>1927.59</ele>
        <time>2022-10-08T12:09:07Z</time>
      </trkpt>
      <trkpt lat="44.53265" lon="6.64135">
        <ele>1931.37</ele>
        <time>2022-10-08T12:09:11Z</time>
      </trkpt>
      <trkpt lat="44.53256" lon="6.64134">
        <ele>1931.47</ele>
        <time>2022-10-08T12:09:12Z</time>
      </trkpt>
      <trkpt lat="44.53247" lon="6.64137">
        <ele>1933.21</ele>
        <time>2022-10-08T12:09:13Z</time>
      </trkpt>
      <trkpt lat="44.53231" lon="6.64146">
        <ele>1935.08</ele>
        <time>2022-10-08T12:09:15Z</time>
      </trkpt>
      <trkpt lat="44.53216" lon="6.64158">
        <ele>1936.41</ele>
        <time>2022-10-08T12:09:17Z</time>
      </trkpt>
      <trkpt lat="44.53209" lon="6.64163">
        <ele>1937.72</ele>
        <time>2022-10-08T12:09:18Z</time>
      </trkpt>
      <trkpt lat="44.53201" lon="6.64168">
        <ele>1937.74</ele>
        <time>2022-10-08T12:09:19Z</time>
      </trkpt>
      <trkpt lat="44.53194" lon="6.64172">
        <ele>1939.53</ele>
        <time>2022-10-08T12:09:20Z</time>
      </trkpt>
      <trkpt lat="44.53186" lon="6.64173">
        <ele>1940.58</ele>
        <time>2022-10-08T12:09:21Z</time>
      </trkpt>
      <trkpt lat="44.53178" lon="6.64173">
        <ele>1940.59</ele>
        <time>2022-10-08T12:09:22Z</time>
      </trkpt>
      <trkpt lat="44.53159" lon="6.64173">
        <ele>1942.91</ele>
        <time>2022-10-08T12:09:24Z</time>
      </trkpt>
      <trkpt lat="44.5315" lon="6.64173">
        <ele>1944.42</ele>
        <time>2022-10-08T12:09:25Z</time>
      </trkpt>
      <trkpt lat="44.53139" lon="6.64174">
        <ele>1944.41</ele>
        <time>2022-10-08T12:09:26Z</time>
      </trkpt>
      <trkpt lat="44.53108" lon="6.64178">
        <ele>1948.96</ele>
        <time>2022-10-08T12:09:29Z</time>
      </trkpt>
      <trkpt lat="44.53097" lon="6.6418">
        <ele>1950.38</ele>
        <time>2022-10-08T12:09:30Z</time>
      </trkpt>
      <trkpt lat="44.53073" lon="6.64189">
        <ele>1951.92</ele>
        <time>2022-10-08T12:09:32Z</time>
      </trkpt>
      <trkpt lat="44.53062" lon="6.64195">
        <ele>1954.06</ele>
        <time>2022-10-08T12:09:33Z</time>
      </trkpt>
      <trkpt lat="44.53053" lon="6.64199">
        <ele>1954.85</ele>
        <time>2022-10-08T12:09:34Z</time>
      </trkpt>
      <trkpt lat="44.53025" lon="6.64204">
        <ele>1958.14</ele>
        <time>2022-10-08T12:09:37Z</time>
      </trkpt>
      <trkpt lat="44.53016" lon="6.64204">
        <ele>1959.13</ele>
        <time>2022-10-08T12:09:38Z</time>
      </trkpt>
      <trkpt lat="44.52997" lon="6.64202">
        <ele>1960.11</ele>
        <time>2022-10-08T12:09:40Z</time>
      </trkpt>
      <trkpt lat="44.52986" lon="6.64201">
        <ele>1961.78</ele>
        <time>2022-10-08T12:09:41Z</time>
      </trkpt>
      <trkpt lat="44.52977" lon="6.64201">
        <ele>1962.7</ele>
        <time>2022-10-08T12:09:42Z</time>
      </trkpt>
      <trkpt lat="44.52967" lon="6.64202">
        <ele>1962.78</ele>
        <time>2022-10-08T12:09:43Z</time>
      </trkpt>
      <trkpt lat="44.52957" lon="6.64203">
        <ele>1964.7</ele>
        <time>2022-10-08T12:09:44Z</time>
      </trkpt>
      <trkpt lat="44.52949" lon="6.64202">
        <ele>1965.58</ele>
        <time>2022-10-08T12:09:45Z</time>
      </trkpt>
      <trkpt lat="44.5293" lon="6.64198">
        <ele>1967</ele>
        <time>2022-10-08T12:09:47Z</time>
      </trkpt>
      <trkpt lat="44.52911" lon="6.64196">
        <ele>1968.84</ele>
        <time>2022-10-08T12:09:49Z</time>
      </trkpt>
      <trkpt lat="44.52891" lon="6.64193">
        <ele>1971.97</ele>
        <time>2022-10-08T12:09:51Z</time>
      </trkpt>
      <trkpt lat="44.52881" lon="6.6419">
        <ele>1971.96</ele>
        <time>2022-10-08T12:09:52Z</time>
      </trkpt>
      <trkpt lat="44.52861" lon="6.64188">
        <ele>1975.05</ele>
        <time>2022-10-08T12:09:54Z</time>
      </trkpt>
      <trkpt lat="44.5284" lon="6.64187">
        <ele>1978.12</ele>
        <time>2022-10-08T12:09:56Z</time>
      </trkpt>
      <trkpt lat="44.52809" lon="6.64189">
        <ele>1981.22</ele>
        <time>2022-10-08T12:09:59Z</time>
      </trkpt>
      <trkpt lat="44.52799" lon="6.64187">
        <ele>1982.48</ele>
        <time>2022-10-08T12:10:00Z</time>
      </trkpt>
      <trkpt lat="44.5277" lon="6.64184">
        <ele>1984.8</ele>
        <time>2022-10-08T12:10:03Z</time>
      </trkpt>
      <trkpt lat="44.5276" lon="6.64185">
        <ele>1986.27</ele>
        <time>2022-10-08T12:10:04Z</time>
      </trkpt>
      <trkpt lat="44.52731" lon="6.64194">
        <ele>1989.31</ele>
        <time>2022-10-08T12:10:07Z</time>
      </trkpt>
      <trkpt lat="44.5271" lon="6.64202">
        <ele>1991.58</ele>
        <time>2022-10-08T12:10:09Z</time>
      </trkpt>
      <trkpt lat="44.52701" lon="6.64207">
        <ele>1991.6</ele>
        <time>2022-10-08T12:10:10Z</time>
      </trkpt>
      <trkpt lat="44.52676" lon="6.64228">
        <ele>1994.09</ele>
        <time>2022-10-08T12:10:13Z</time>
      </trkpt>
      <trkpt lat="44.52651" lon="6.64246">
        <ele>1998.36</ele>
        <time>2022-10-08T12:10:16Z</time>
      </trkpt>
      <trkpt lat="44.52643" lon="6.6425">
        <ele>1998.57</ele>
        <time>2022-10-08T12:10:17Z</time>
      </trkpt>
      <trkpt lat="44.52635" lon="6.64253">
        <ele>2000.38</ele>
        <time>2022-10-08T12:10:18Z</time>
      </trkpt>
      <trkpt lat="44.52627" lon="6.64256">
        <ele>2000.39</ele>
        <time>2022-10-08T12:10:19Z</time>
      </trkpt>
      <trkpt lat="44.52619" lon="6.64258">
        <ele>2000.4</ele>
        <time>2022-10-08T12:10:20Z</time>
      </trkpt>
      <trkpt lat="44.52611" lon="6.64259">
        <ele>2002.71</ele>
        <time>2022-10-08T12:10:21Z</time>
      </trkpt>
      <trkpt lat="44.52604" lon="6.64259">
        <ele>2002.73</ele>
        <time>2022-10-08T12:10:22Z</time>
      </trkpt>
      <trkpt lat="44.52598" lon="6.64259">
        <ele>2004.2</ele>
        <time>2022-10-08T12:10:23Z</time>
      </trkpt>
      <trkpt lat="44.52594" lon="6.64259">
        <ele>2004.29</ele>
        <time>2022-10-08T12:10:24Z</time>
      </trkpt>
      <trkpt lat="44.52582" lon="6.64262">
        <ele>2005.51</ele>
        <time>2022-10-08T12:10:27Z</time>
      </trkpt>
      <trkpt lat="44.52577" lon="6.64264">
        <ele>2006.58</ele>
        <time>2022-10-08T12:10:28Z</time>
      </trkpt>
      <trkpt lat="44.52571" lon="6.64268">
        <ele>2006.65</ele>
        <time>2022-10-08T12:10:29Z</time>
      </trkpt>
      <trkpt lat="44.52565" lon="6.64275">
        <ele>2008.11</ele>
        <time>2022-10-08T12:10:30Z</time>
      </trkpt>
      <trkpt lat="44.52558" lon="6.64284">
        <ele>2009</ele>
        <time>2022-10-08T12:10:31Z</time>
      </trkpt>
      <trkpt lat="44.52553" lon="6.64293">
        <ele>2009.79</ele>
        <time>2022-10-08T12:10:32Z</time>
      </trkpt>
      <trkpt lat="44.52547" lon="6.64302">
        <ele>2009.76</ele>
        <time>2022-10-08T12:10:33Z</time>
      </trkpt>
      <trkpt lat="44.52534" lon="6.64319">
        <ele>2012.35</ele>
        <time>2022-10-08T12:10:35Z</time>
      </trkpt>
      <trkpt lat="44.52526" lon="6.64329">
        <ele>2012.43</ele>
        <time>2022-10-08T12:10:36Z</time>
      </trkpt>
      <trkpt lat="44.52516" lon="6.6434">
        <ele>2014.31</ele>
        <time>2022-10-08T12:10:37Z</time>
      </trkpt>
      <trkpt lat="44.52499" lon="6.64359">
        <ele>2017.42</ele>
        <time>2022-10-08T12:10:39Z</time>
      </trkpt>
      <trkpt lat="44.52484" lon="6.64372">
        <ele>2018.27</ele>
        <time>2022-10-08T12:10:41Z</time>
      </trkpt>
      <trkpt lat="44.5246" lon="6.64389">
        <ele>2021.05</ele>
        <time>2022-10-08T12:10:44Z</time>
      </trkpt>
      <trkpt lat="44.52453" lon="6.64395">
        <ele>2022.03</ele>
        <time>2022-10-08T12:10:45Z</time>
      </trkpt>
      <trkpt lat="44.52447" lon="6.644">
        <ele>2022.12</ele>
        <time>2022-10-08T12:10:46Z</time>
      </trkpt>
      <trkpt lat="44.52443" lon="6.64405">
        <ele>2023.09</ele>
        <time>2022-10-08T12:10:47Z</time>
      </trkpt>
      <trkpt lat="44.52439" lon="6.64408">
        <ele>2024.03</ele>
        <time>2022-10-08T12:10:48Z</time>
      </trkpt>
      <trkpt lat="44.52435" lon="6.64408">
        <ele>2024.03</ele>
        <time>2022-10-08T12:10:49Z</time>
      </trkpt>
      <trkpt lat="44.52432" lon="6.64407">
        <ele>2024.96</ele>
        <time>2022-10-08T12:10:50Z</time>
      </trkpt>
      <trkpt lat="44.52431" lon="6.64404">
        <ele>2025.05</ele>
        <time>2022-10-08T12:10:51Z</time>
      </trkpt>
      <trkpt lat="44.52432" lon="6.644">
        <ele>2026.23</ele>
        <time>2022-10-08T12:10:52Z</time>
      </trkpt>
      <trkpt lat="44.52434" lon="6.64395">
        <ele>2026.27</ele>
        <time>2022-10-08T12:10:53Z</time>
      </trkpt>
      <trkpt lat="44.52439" lon="6.64389">
        <ele>2027.44</ele>
        <time>2022-10-08T12:10:54Z</time>
      </trkpt>
      <trkpt lat="44.52445" lon="6.64381">
        <ele>2028.28</ele>
        <time>2022-10-08T12:10:55Z</time>
      </trkpt>
      <trkpt lat="44.52451" lon="6.64374">
        <ele>2028.27</ele>
        <time>2022-10-08T12:10:56Z</time>
      </trkpt>
      <trkpt lat="44.52471" lon="6.64355">
        <ele>2030.18</ele>
        <time>2022-10-08T12:10:59Z</time>
      </trkpt>
      <trkpt lat="44.52478" lon="6.64348">
        <ele>2031.71</ele>
        <time>2022-10-08T12:11:00Z</time>
      </trkpt>
      <trkpt lat="44.52483" lon="6.6434">
        <ele>2032.7</ele>
        <time>2022-10-08T12:11:01Z</time>
      </trkpt>
      <trkpt lat="44.52488" lon="6.64331">
        <ele>2032.75</ele>
        <time>2022-10-08T12:11:02Z</time>
      </trkpt>
      <trkpt lat="44.52492" lon="6.64322">
        <ele>2033.89</ele>
        <time>2022-10-08T12:11:03Z</time>
      </trkpt>
      <trkpt lat="44.52495" lon="6.64312">
        <ele>2034.98</ele>
        <time>2022-10-08T12:11:04Z</time>
      </trkpt>
      <trkpt lat="44.52498" lon="6.64302">
        <ele>2035.09</ele>
        <time>2022-10-08T12:11:05Z</time>
      </trkpt>
      <trkpt lat="44.525" lon="6.64293">
        <ele>2036.93</ele>
        <time>2022-10-08T12:11:06Z</time>
      </trkpt>
      <trkpt lat="44.52501" lon="6.64287">
        <ele>2037.29</ele>
        <time>2022-10-08T12:11:07Z</time>
      </trkpt>
      <trkpt lat="44.525" lon="6.64282">
        <ele>2037.29</ele>
        <time>2022-10-08T12:11:08Z</time>
      </trkpt>
      <trkpt lat="44.52495" lon="6.64278">
        <ele>2037.47</ele>
        <time>2022-10-08T12:11:10Z</time>
      </trkpt>
      <trkpt lat="44.52493" lon="6.64279">
        <ele>2038.92</ele>
        <time>2022-10-08T12:11:11Z</time>
      </trkpt>
      <trkpt lat="44.52491" lon="6.64282">
        <ele>2038.93</ele>
        <time>2022-10-08T12:11:12Z</time>
      </trkpt>
      <trkpt lat="44.52487" lon="6.64288">
        <ele>2040.7</ele>
        <time>2022-10-08T12:11:13Z</time>
      </trkpt>
      <trkpt lat="44.52476" lon="6.64302">
        <ele>2043.12</ele>
        <time>2022-10-08T12:11:15Z</time>
      </trkpt>
      <trkpt lat="44.52469" lon="6.64309">
        <ele>2044.11</ele>
        <time>2022-10-08T12:11:16Z</time>
      </trkpt>
      <trkpt lat="44.52452" lon="6.64324">
        <ele>2046.07</ele>
        <time>2022-10-08T12:11:18Z</time>
      </trkpt>
      <trkpt lat="44.52422" lon="6.64361">
        <ele>2050.36</ele>
        <time>2022-10-08T12:11:22Z</time>
      </trkpt>
      <trkpt lat="44.52407" lon="6.64378">
        <ele>2051.78</ele>
        <time>2022-10-08T12:11:24Z</time>
      </trkpt>
      <trkpt lat="44.52394" lon="6.64394">
        <ele>2054.08</ele>
        <time>2022-10-08T12:11:26Z</time>
      </trkpt>
      <trkpt lat="44.52388" lon="6.64399">
        <ele>2054.92</ele>
        <time>2022-10-08T12:11:27Z</time>
      </trkpt>
      <trkpt lat="44.52382" lon="6.64402">
        <ele>2055.02</ele>
        <time>2022-10-08T12:11:28Z</time>
      </trkpt>
      <trkpt lat="44.52376" lon="6.64404">
        <ele>2056.74</ele>
        <time>2022-10-08T12:11:29Z</time>
      </trkpt>
      <trkpt lat="44.52369" lon="6.64406">
        <ele>2057.65</ele>
        <time>2022-10-08T12:11:30Z</time>
      </trkpt>
      <trkpt lat="44.52361" lon="6.64408">
        <ele>2057.75</ele>
        <time>2022-10-08T12:11:31Z</time>
      </trkpt>
      <trkpt lat="44.52354" lon="6.64411">
        <ele>2059.51</ele>
        <time>2022-10-08T12:11:32Z</time>
      </trkpt>
      <trkpt lat="44.52346" lon="6.64415">
        <ele>2059.51</ele>
        <time>2022-10-08T12:11:33Z</time>
      </trkpt>
      <trkpt lat="44.52339" lon="6.6442">
        <ele>2061.08</ele>
        <time>2022-10-08T12:11:34Z</time>
      </trkpt>
      <trkpt lat="44.52333" lon="6.64426">
        <ele>2061.09</ele>
        <time>2022-10-08T12:11:35Z</time>
      </trkpt>
      <trkpt lat="44.52328" lon="6.64432">
        <ele>2062.11</ele>
        <time>2022-10-08T12:11:36Z</time>
      </trkpt>
      <trkpt lat="44.52324" lon="6.6444">
        <ele>2062.11</ele>
        <time>2022-10-08T12:11:37Z</time>
      </trkpt>
      <trkpt lat="44.52321" lon="6.6445">
        <ele>2063.44</ele>
        <time>2022-10-08T12:11:38Z</time>
      </trkpt>
      <trkpt lat="44.52319" lon="6.6446">
        <ele>2063.52</ele>
        <time>2022-10-08T12:11:39Z</time>
      </trkpt>
      <trkpt lat="44.52317" lon="6.64471">
        <ele>2065.12</ele>
        <time>2022-10-08T12:11:40Z</time>
      </trkpt>
      <trkpt lat="44.52315" lon="6.64483">
        <ele>2065.13</ele>
        <time>2022-10-08T12:11:41Z</time>
      </trkpt>
      <trkpt lat="44.52315" lon="6.64492">
        <ele>2066.17</ele>
        <time>2022-10-08T12:11:42Z</time>
      </trkpt>
      <trkpt lat="44.52317" lon="6.64501">
        <ele>2066.16</ele>
        <time>2022-10-08T12:11:43Z</time>
      </trkpt>
      <trkpt lat="44.5232" lon="6.64508">
        <ele>2066.29</ele>
        <time>2022-10-08T12:11:44Z</time>
      </trkpt>
      <trkpt lat="44.52325" lon="6.64513">
        <ele>2066.28</ele>
        <time>2022-10-08T12:11:45Z</time>
      </trkpt>
      <trkpt lat="44.52329" lon="6.64519">
        <ele>2067.29</ele>
        <time>2022-10-08T12:11:46Z</time>
      </trkpt>
      <trkpt lat="44.5233" lon="6.64525">
        <ele>2067.34</ele>
        <time>2022-10-08T12:11:47Z</time>
      </trkpt>
      <trkpt lat="44.52329" lon="6.64532">
        <ele>2067.32</ele>
        <time>2022-10-08T12:11:48Z</time>
      </trkpt>
      <trkpt lat="44.52325" lon="6.64539">
        <ele>2068.24</ele>
        <time>2022-10-08T12:11:49Z</time>
      </trkpt>
      <trkpt lat="44.5232" lon="6.64546">
        <ele>2069.54</ele>
        <time>2022-10-08T12:11:50Z</time>
      </trkpt>
      <trkpt lat="44.52313" lon="6.64552">
        <ele>2070.71</ele>
        <time>2022-10-08T12:11:51Z</time>
      </trkpt>
      <trkpt lat="44.52308" lon="6.6456">
        <ele>2070.76</ele>
        <time>2022-10-08T12:11:52Z</time>
      </trkpt>
      <trkpt lat="44.52305" lon="6.64569">
        <ele>2071.49</ele>
        <time>2022-10-08T12:11:53Z</time>
      </trkpt>
      <trkpt lat="44.52304" lon="6.64578">
        <ele>2072.55</ele>
        <time>2022-10-08T12:11:54Z</time>
      </trkpt>
      <trkpt lat="44.52304" lon="6.64588">
        <ele>2073.76</ele>
        <time>2022-10-08T12:11:55Z</time>
      </trkpt>
      <trkpt lat="44.52303" lon="6.64598">
        <ele>2074.76</ele>
        <time>2022-10-08T12:11:56Z</time>
      </trkpt>
      <trkpt lat="44.52301" lon="6.64608">
        <ele>2075.95</ele>
        <time>2022-10-08T12:11:57Z</time>
      </trkpt>
      <trkpt lat="44.5229" lon="6.64639">
        <ele>2079.24</ele>
        <time>2022-10-08T12:12:00Z</time>
      </trkpt>
      <trkpt lat="44.52286" lon="6.64649">
        <ele>2079.24</ele>
        <time>2022-10-08T12:12:01Z</time>
      </trkpt>
      <trkpt lat="44.52276" lon="6.64669">
        <ele>2082.6</ele>
        <time>2022-10-08T12:12:03Z</time>
      </trkpt>
      <trkpt lat="44.52271" lon="6.64679">
        <ele>2082.7</ele>
        <time>2022-10-08T12:12:04Z</time>
      </trkpt>
      <trkpt lat="44.52264" lon="6.64688">
        <ele>2084.38</ele>
        <time>2022-10-08T12:12:05Z</time>
      </trkpt>
      <trkpt lat="44.52257" lon="6.64696">
        <ele>2084.49</ele>
        <time>2022-10-08T12:12:06Z</time>
      </trkpt>
      <trkpt lat="44.52242" lon="6.64712">
        <ele>2086.58</ele>
        <time>2022-10-08T12:12:08Z</time>
      </trkpt>
      <trkpt lat="44.52224" lon="6.64726">
        <ele>2088.69</ele>
        <time>2022-10-08T12:12:10Z</time>
      </trkpt>
      <trkpt lat="44.522" lon="6.64746">
        <ele>2091.55</ele>
        <time>2022-10-08T12:12:13Z</time>
      </trkpt>
      <trkpt lat="44.52195" lon="6.64753">
        <ele>2093.55</ele>
        <time>2022-10-08T12:12:14Z</time>
      </trkpt>
      <trkpt lat="44.52193" lon="6.64761">
        <ele>2093.56</ele>
        <time>2022-10-08T12:12:15Z</time>
      </trkpt>
      <trkpt lat="44.52192" lon="6.6477">
        <ele>2094.7</ele>
        <time>2022-10-08T12:12:16Z</time>
      </trkpt>
      <trkpt lat="44.52192" lon="6.64777">
        <ele>2094.73</ele>
        <time>2022-10-08T12:12:17Z</time>
      </trkpt>
      <trkpt lat="44.5219" lon="6.64785">
        <ele>2095.77</ele>
        <time>2022-10-08T12:12:18Z</time>
      </trkpt>
      <trkpt lat="44.52187" lon="6.64793">
        <ele>2095.78</ele>
        <time>2022-10-08T12:12:19Z</time>
      </trkpt>
      <trkpt lat="44.52182" lon="6.648">
        <ele>2096.82</ele>
        <time>2022-10-08T12:12:20Z</time>
      </trkpt>
      <trkpt lat="44.52167" lon="6.64821">
        <ele>2097.38</ele>
        <time>2022-10-08T12:12:23Z</time>
      </trkpt>
      <trkpt lat="44.52163" lon="6.64824">
        <ele>2098.6</ele>
        <time>2022-10-08T12:12:24Z</time>
      </trkpt>
      <trkpt lat="44.52159" lon="6.64823">
        <ele>2098.62</ele>
        <time>2022-10-08T12:12:25Z</time>
      </trkpt>
      <trkpt lat="44.52157" lon="6.64817">
        <ele>2098.58</ele>
        <time>2022-10-08T12:12:26Z</time>
      </trkpt>
      <trkpt lat="44.52157" lon="6.6481">
        <ele>2100.28</ele>
        <time>2022-10-08T12:12:27Z</time>
      </trkpt>
      <trkpt lat="44.52158" lon="6.64802">
        <ele>2101.46</ele>
        <time>2022-10-08T12:12:28Z</time>
      </trkpt>
      <trkpt lat="44.52159" lon="6.64794">
        <ele>2101.47</ele>
        <time>2022-10-08T12:12:29Z</time>
      </trkpt>
      <trkpt lat="44.52158" lon="6.64785">
        <ele>2101.53</ele>
        <time>2022-10-08T12:12:30Z</time>
      </trkpt>
      <trkpt lat="44.52156" lon="6.64775">
        <ele>2103.22</ele>
        <time>2022-10-08T12:12:31Z</time>
      </trkpt>
      <trkpt lat="44.52153" lon="6.64764">
        <ele>2104.38</ele>
        <time>2022-10-08T12:12:32Z</time>
      </trkpt>
      <trkpt lat="44.52153" lon="6.64753">
        <ele>2105.43</ele>
        <time>2022-10-08T12:12:33Z</time>
      </trkpt>
      <trkpt lat="44.52155" lon="6.64742">
        <ele>2106.39</ele>
        <time>2022-10-08T12:12:34Z</time>
      </trkpt>
      <trkpt lat="44.52158" lon="6.64732">
        <ele>2108.04</ele>
        <time>2022-10-08T12:12:35Z</time>
      </trkpt>
      <trkpt lat="44.52162" lon="6.64722">
        <ele>2108.06</ele>
        <time>2022-10-08T12:12:36Z</time>
      </trkpt>
      <trkpt lat="44.52167" lon="6.64713">
        <ele>2109.21</ele>
        <time>2022-10-08T12:12:37Z</time>
      </trkpt>
      <trkpt lat="44.5218" lon="6.64689">
        <ele>2110.76</ele>
        <time>2022-10-08T12:12:40Z</time>
      </trkpt>
      <trkpt lat="44.52182" lon="6.64683">
        <ele>2111.94</ele>
        <time>2022-10-08T12:12:41Z</time>
      </trkpt>
      <trkpt lat="44.52184" lon="6.64677">
        <ele>2111.97</ele>
        <time>2022-10-08T12:12:42Z</time>
      </trkpt>
      <trkpt lat="44.52185" lon="6.64672">
        <ele>2111.97</ele>
        <time>2022-10-08T12:12:43Z</time>
      </trkpt>
      <trkpt lat="44.52185" lon="6.64669">
        <ele>2112.82</ele>
        <time>2022-10-08T12:12:52Z</time>
      </trkpt>
      <trkpt lat="44.52184" lon="6.64666">
        <ele>2113.51</ele>
        <time>2022-10-08T12:13:35Z</time>
      </trkpt>
      <trkpt lat="44.52182" lon="6.64663">
        <ele>2113.53</ele>
        <time>2022-10-08T12:13:36Z</time>
      </trkpt>
      <trkpt lat="44.52178" lon="6.64661">
        <ele>2113.55</ele>
        <time>2022-10-08T12:13:37Z</time>
      </trkpt>
      <trkpt lat="44.52173" lon="6.64661">
        <ele>2114.77</ele>
        <time>2022-10-08T12:13:38Z</time>
      </trkpt>
      <trkpt lat="44.52169" lon="6.64664">
        <ele>2114.81</ele>
        <time>2022-10-08T12:13:39Z</time>
      </trkpt>
      <trkpt lat="44.52165" lon="6.64669">
        <ele>2114.82</ele>
        <time>2022-10-08T12:13:40Z</time>
      </trkpt>
      <trkpt lat="44.5216" lon="6.64676">
        <ele>2116.94</ele>
        <time>2022-10-08T12:13:41Z</time>
      </trkpt>
      <trkpt lat="44.52154" lon="6.64683">
        <ele>2116.95</ele>
        <time>2022-10-08T12:13:42Z</time>
      </trkpt>
      <trkpt lat="44.52141" lon="6.64699">
        <ele>2119.95</ele>
        <time>2022-10-08T12:13:44Z</time>
      </trkpt>
      <trkpt lat="44.52123" lon="6.64714">
        <ele>2123.97</ele>
        <time>2022-10-08T12:13:46Z</time>
      </trkpt>
      <trkpt lat="44.52114" lon="6.64721">
        <ele>2124.03</ele>
        <time>2022-10-08T12:13:47Z</time>
      </trkpt>
      <trkpt lat="44.52087" lon="6.64739">
        <ele>2127.5</ele>
        <time>2022-10-08T12:13:50Z</time>
      </trkpt>
      <trkpt lat="44.52079" lon="6.64748">
        <ele>2128.53</ele>
        <time>2022-10-08T12:13:51Z</time>
      </trkpt>
      <trkpt lat="44.5207" lon="6.64757">
        <ele>2129.61</ele>
        <time>2022-10-08T12:13:52Z</time>
      </trkpt>
      <trkpt lat="44.52063" lon="6.64767">
        <ele>2130.68</ele>
        <time>2022-10-08T12:13:53Z</time>
      </trkpt>
      <trkpt lat="44.52056" lon="6.64778">
        <ele>2132</ele>
        <time>2022-10-08T12:13:54Z</time>
      </trkpt>
      <trkpt lat="44.5205" lon="6.64789">
        <ele>2132.05</ele>
        <time>2022-10-08T12:13:55Z</time>
      </trkpt>
      <trkpt lat="44.52045" lon="6.648">
        <ele>2134.58</ele>
        <time>2022-10-08T12:13:56Z</time>
      </trkpt>
      <trkpt lat="44.5204" lon="6.64812">
        <ele>2134.7</ele>
        <time>2022-10-08T12:13:57Z</time>
      </trkpt>
      <trkpt lat="44.52025" lon="6.64847">
        <ele>2138.3</ele>
        <time>2022-10-08T12:14:00Z</time>
      </trkpt>
      <trkpt lat="44.52015" lon="6.64869">
        <ele>2139.74</ele>
        <time>2022-10-08T12:14:02Z</time>
      </trkpt>
      <trkpt lat="44.52005" lon="6.64888">
        <ele>2141.5</ele>
        <time>2022-10-08T12:14:04Z</time>
      </trkpt>
      <trkpt lat="44.52" lon="6.64896">
        <ele>2143.3</ele>
        <time>2022-10-08T12:14:05Z</time>
      </trkpt>
      <trkpt lat="44.51994" lon="6.64903">
        <ele>2144.22</ele>
        <time>2022-10-08T12:14:06Z</time>
      </trkpt>
      <trkpt lat="44.51988" lon="6.6491">
        <ele>2144.33</ele>
        <time>2022-10-08T12:14:07Z</time>
      </trkpt>
      <trkpt lat="44.51969" lon="6.64926">
        <ele>2146.3</ele>
        <time>2022-10-08T12:14:10Z</time>
      </trkpt>
      <trkpt lat="44.51963" lon="6.64933">
        <ele>2147.83</ele>
        <time>2022-10-08T12:14:11Z</time>
      </trkpt>
      <trkpt lat="44.51958" lon="6.64939">
        <ele>2147.84</ele>
        <time>2022-10-08T12:14:12Z</time>
      </trkpt>
      <trkpt lat="44.5194" lon="6.64966">
        <ele>2150.2</ele>
        <time>2022-10-08T12:14:16Z</time>
      </trkpt>
      <trkpt lat="44.51935" lon="6.6497">
        <ele>2151.17</ele>
        <time>2022-10-08T12:14:17Z</time>
      </trkpt>
      <trkpt lat="44.5193" lon="6.64973">
        <ele>2152.03</ele>
        <time>2022-10-08T12:14:18Z</time>
      </trkpt>
      <trkpt lat="44.51924" lon="6.64975">
        <ele>2152.09</ele>
        <time>2022-10-08T12:14:19Z</time>
      </trkpt>
      <trkpt lat="44.51917" lon="6.64977">
        <ele>2153.27</ele>
        <time>2022-10-08T12:14:20Z</time>
      </trkpt>
      <trkpt lat="44.51909" lon="6.64979">
        <ele>2153.27</ele>
        <time>2022-10-08T12:14:21Z</time>
      </trkpt>
      <trkpt lat="44.51893" lon="6.64982">
        <ele>2156.33</ele>
        <time>2022-10-08T12:14:23Z</time>
      </trkpt>
      <trkpt lat="44.51884" lon="6.64984">
        <ele>2156.39</ele>
        <time>2022-10-08T12:14:24Z</time>
      </trkpt>
      <trkpt lat="44.51868" lon="6.64987">
        <ele>2158.2</ele>
        <time>2022-10-08T12:14:26Z</time>
      </trkpt>
      <trkpt lat="44.51854" lon="6.64992">
        <ele>2160.08</ele>
        <time>2022-10-08T12:14:28Z</time>
      </trkpt>
      <trkpt lat="44.51848" lon="6.64996">
        <ele>2161.05</ele>
        <time>2022-10-08T12:14:29Z</time>
      </trkpt>
      <trkpt lat="44.51843" lon="6.65001">
        <ele>2161.98</ele>
        <time>2022-10-08T12:14:30Z</time>
      </trkpt>
      <trkpt lat="44.51826" lon="6.6502">
        <ele>2165.46</ele>
        <time>2022-10-08T12:14:33Z</time>
      </trkpt>
      <trkpt lat="44.5182" lon="6.65024">
        <ele>2165.29</ele>
        <time>2022-10-08T12:14:34Z</time>
      </trkpt>
      <trkpt lat="44.51815" lon="6.65026">
        <ele>2165.75</ele>
        <time>2022-10-08T12:14:35Z</time>
      </trkpt>
      <trkpt lat="44.5181" lon="6.65027">
        <ele>2165.76</ele>
        <time>2022-10-08T12:14:36Z</time>
      </trkpt>
      <trkpt lat="44.51805" lon="6.65026">
        <ele>2166.59</ele>
        <time>2022-10-08T12:14:37Z</time>
      </trkpt>
      <trkpt lat="44.51801" lon="6.65023">
        <ele>2167.53</ele>
        <time>2022-10-08T12:14:38Z</time>
      </trkpt>
      <trkpt lat="44.51797" lon="6.65019">
        <ele>2167.61</ele>
        <time>2022-10-08T12:14:39Z</time>
      </trkpt>
      <trkpt lat="44.51794" lon="6.65012">
        <ele>2168.75</ele>
        <time>2022-10-08T12:14:40Z</time>
      </trkpt>
      <trkpt lat="44.51792" lon="6.65004">
        <ele>2168.82</ele>
        <time>2022-10-08T12:14:41Z</time>
      </trkpt>
      <trkpt lat="44.5179" lon="6.64995">
        <ele>2170.21</ele>
        <time>2022-10-08T12:14:42Z</time>
      </trkpt>
      <trkpt lat="44.51785" lon="6.64977">
        <ele>2171.17</ele>
        <time>2022-10-08T12:14:44Z</time>
      </trkpt>
      <trkpt lat="44.51781" lon="6.64963">
        <ele>2172.29</ele>
        <time>2022-10-08T12:14:46Z</time>
      </trkpt>
      <trkpt lat="44.51777" lon="6.64959">
        <ele>2173.46</ele>
        <time>2022-10-08T12:14:47Z</time>
      </trkpt>
      <trkpt lat="44.51773" lon="6.64955">
        <ele>2173.43</ele>
        <time>2022-10-08T12:14:48Z</time>
      </trkpt>
      <trkpt lat="44.51767" lon="6.64952">
        <ele>2174.29</ele>
        <time>2022-10-08T12:14:49Z</time>
      </trkpt>
      <trkpt lat="44.51761" lon="6.64948">
        <ele>2174.3</ele>
        <time>2022-10-08T12:14:50Z</time>
      </trkpt>
      <trkpt lat="44.51743" lon="6.64935">
        <ele>2176.95</ele>
        <time>2022-10-08T12:14:53Z</time>
      </trkpt>
      <trkpt lat="44.5173" lon="6.64925">
        <ele>2178.53</ele>
        <time>2022-10-08T12:14:55Z</time>
      </trkpt>
      <trkpt lat="44.51716" lon="6.64916">
        <ele>2180.2</ele>
        <time>2022-10-08T12:14:57Z</time>
      </trkpt>
      <trkpt lat="44.51687" lon="6.649">
        <ele>2183.27</ele>
        <time>2022-10-08T12:15:01Z</time>
      </trkpt>
      <trkpt lat="44.51671" lon="6.64894">
        <ele>2184.34</ele>
        <time>2022-10-08T12:15:03Z</time>
      </trkpt>
      <trkpt lat="44.51647" lon="6.64889">
        <ele>2186.44</ele>
        <time>2022-10-08T12:15:06Z</time>
      </trkpt>
      <trkpt lat="44.51639" lon="6.64889">
        <ele>2187.74</ele>
        <time>2022-10-08T12:15:07Z</time>
      </trkpt>
      <trkpt lat="44.51632" lon="6.6489">
        <ele>2187.75</ele>
        <time>2022-10-08T12:15:08Z</time>
      </trkpt>
      <trkpt lat="44.51626" lon="6.64892">
        <ele>2188.68</ele>
        <time>2022-10-08T12:15:09Z</time>
      </trkpt>
      <trkpt lat="44.5162" lon="6.64895">
        <ele>2188.68</ele>
        <time>2022-10-08T12:15:10Z</time>
      </trkpt>
      <trkpt lat="44.51603" lon="6.64901">
        <ele>2191.12</ele>
        <time>2022-10-08T12:15:13Z</time>
      </trkpt>
      <trkpt lat="44.51597" lon="6.64901">
        <ele>2192.4</ele>
        <time>2022-10-08T12:15:14Z</time>
      </trkpt>
      <trkpt lat="44.51591" lon="6.649">
        <ele>2192.41</ele>
        <time>2022-10-08T12:15:15Z</time>
      </trkpt>
      <trkpt lat="44.51585" lon="6.64898">
        <ele>2193.28</ele>
        <time>2022-10-08T12:15:16Z</time>
      </trkpt>
      <trkpt lat="44.51579" lon="6.64894">
        <ele>2193.33</ele>
        <time>2022-10-08T12:15:17Z</time>
      </trkpt>
      <trkpt lat="44.51573" lon="6.64889">
        <ele>2194.29</ele>
        <time>2022-10-08T12:15:18Z</time>
      </trkpt>
      <trkpt lat="44.5156" lon="6.6488">
        <ele>2195.36</ele>
        <time>2022-10-08T12:15:20Z</time>
      </trkpt>
      <trkpt lat="44.51537" lon="6.64864">
        <ele>2199.01</ele>
        <time>2022-10-08T12:15:23Z</time>
      </trkpt>
      <trkpt lat="44.51528" lon="6.64858">
        <ele>2199.01</ele>
        <time>2022-10-08T12:15:24Z</time>
      </trkpt>
      <trkpt lat="44.51502" lon="6.6484">
        <ele>2203.38</ele>
        <time>2022-10-08T12:15:27Z</time>
      </trkpt>
      <trkpt lat="44.51484" lon="6.64832">
        <ele>2205.33</ele>
        <time>2022-10-08T12:15:29Z</time>
      </trkpt>
      <trkpt lat="44.51469" lon="6.64824">
        <ele>2206.74</ele>
        <time>2022-10-08T12:15:31Z</time>
      </trkpt>
      <trkpt lat="44.51462" lon="6.64819">
        <ele>2208.11</ele>
        <time>2022-10-08T12:15:32Z</time>
      </trkpt>
      <trkpt lat="44.51457" lon="6.64814">
        <ele>2208.21</ele>
        <time>2022-10-08T12:15:33Z</time>
      </trkpt>
      <trkpt lat="44.51453" lon="6.64807">
        <ele>2209.21</ele>
        <time>2022-10-08T12:15:34Z</time>
      </trkpt>
      <trkpt lat="44.5145" lon="6.648">
        <ele>2209.22</ele>
        <time>2022-10-08T12:15:35Z</time>
      </trkpt>
      <trkpt lat="44.51449" lon="6.64794">
        <ele>2210.42</ele>
        <time>2022-10-08T12:15:36Z</time>
      </trkpt>
      <trkpt lat="44.51451" lon="6.64788">
        <ele>2210.41</ele>
        <time>2022-10-08T12:15:37Z</time>
      </trkpt>
      <trkpt lat="44.51454" lon="6.64782">
        <ele>2211.48</ele>
        <time>2022-10-08T12:15:38Z</time>
      </trkpt>
      <trkpt lat="44.51458" lon="6.64777">
        <ele>2212.74</ele>
        <time>2022-10-08T12:15:39Z</time>
      </trkpt>
      <trkpt lat="44.51463" lon="6.64773">
        <ele>2212.73</ele>
        <time>2022-10-08T12:15:40Z</time>
      </trkpt>
      <trkpt lat="44.51469" lon="6.64769">
        <ele>2212.7</ele>
        <time>2022-10-08T12:15:41Z</time>
      </trkpt>
      <trkpt lat="44.51476" lon="6.64766">
        <ele>2212.72</ele>
        <time>2022-10-08T12:15:42Z</time>
      </trkpt>
      <trkpt lat="44.51483" lon="6.64764">
        <ele>2215.04</ele>
        <time>2022-10-08T12:15:43Z</time>
      </trkpt>
      <trkpt lat="44.51498" lon="6.64761">
        <ele>2215.99</ele>
        <time>2022-10-08T12:15:45Z</time>
      </trkpt>
      <trkpt lat="44.51506" lon="6.64761">
        <ele>2217.65</ele>
        <time>2022-10-08T12:15:46Z</time>
      </trkpt>
      <trkpt lat="44.51514" lon="6.64761">
        <ele>2218.48</ele>
        <time>2022-10-08T12:15:47Z</time>
      </trkpt>
      <trkpt lat="44.51521" lon="6.64763">
        <ele>2218.52</ele>
        <time>2022-10-08T12:15:48Z</time>
      </trkpt>
      <trkpt lat="44.51526" lon="6.64764">
        <ele>2219.25</ele>
        <time>2022-10-08T12:15:49Z</time>
      </trkpt>
      <trkpt lat="44.51531" lon="6.64764">
        <ele>2219.32</ele>
        <time>2022-10-08T12:15:50Z</time>
      </trkpt>
      <trkpt lat="44.51535" lon="6.64761">
        <ele>2220.09</ele>
        <time>2022-10-08T12:15:51Z</time>
      </trkpt>
      <trkpt lat="44.51537" lon="6.64757">
        <ele>2220.08</ele>
        <time>2022-10-08T12:15:52Z</time>
      </trkpt>
      <trkpt lat="44.51538" lon="6.64751">
        <ele>2220.98</ele>
        <time>2022-10-08T12:15:53Z</time>
      </trkpt>
      <trkpt lat="44.51538" lon="6.64744">
        <ele>2221</ele>
        <time>2022-10-08T12:15:54Z</time>
      </trkpt>
      <trkpt lat="44.51536" lon="6.64737">
        <ele>2222.21</ele>
        <time>2022-10-08T12:15:55Z</time>
      </trkpt>
      <trkpt lat="44.51534" lon="6.64728">
        <ele>2222.77</ele>
        <time>2022-10-08T12:15:56Z</time>
      </trkpt>
      <trkpt lat="44.51532" lon="6.6472">
        <ele>2222.84</ele>
        <time>2022-10-08T12:15:57Z</time>
      </trkpt>
      <trkpt lat="44.5153" lon="6.64711">
        <ele>2223.93</ele>
        <time>2022-10-08T12:15:58Z</time>
      </trkpt>
      <trkpt lat="44.51529" lon="6.64702">
        <ele>2224</ele>
        <time>2022-10-08T12:15:59Z</time>
      </trkpt>
      <trkpt lat="44.5153" lon="6.64694">
        <ele>2224.03</ele>
        <time>2022-10-08T12:16:00Z</time>
      </trkpt>
      <trkpt lat="44.51532" lon="6.64687">
        <ele>2225.46</ele>
        <time>2022-10-08T12:16:01Z</time>
      </trkpt>
      <trkpt lat="44.51534" lon="6.6468">
        <ele>2225.46</ele>
        <time>2022-10-08T12:16:02Z</time>
      </trkpt>
      <trkpt lat="44.51537" lon="6.64672">
        <ele>2226.68</ele>
        <time>2022-10-08T12:16:03Z</time>
      </trkpt>
      <trkpt lat="44.51543" lon="6.64655">
        <ele>2227.41</ele>
        <time>2022-10-08T12:16:05Z</time>
      </trkpt>
      <trkpt lat="44.51546" lon="6.64647">
        <ele>2227.48</ele>
        <time>2022-10-08T12:16:06Z</time>
      </trkpt>
      <trkpt lat="44.51547" lon="6.6464">
        <ele>2229.38</ele>
        <time>2022-10-08T12:16:07Z</time>
      </trkpt>
      <trkpt lat="44.51547" lon="6.64633">
        <ele>2229.45</ele>
        <time>2022-10-08T12:16:08Z</time>
      </trkpt>
      <trkpt lat="44.51546" lon="6.64608">
        <ele>2231.7</ele>
        <time>2022-10-08T12:16:11Z</time>
      </trkpt>
      <trkpt lat="44.51544" lon="6.646">
        <ele>2232.7</ele>
        <time>2022-10-08T12:16:12Z</time>
      </trkpt>
      <trkpt lat="44.5154" lon="6.64592">
        <ele>2232.7</ele>
        <time>2022-10-08T12:16:13Z</time>
      </trkpt>
      <trkpt lat="44.51535" lon="6.64586">
        <ele>2233.89</ele>
        <time>2022-10-08T12:16:14Z</time>
      </trkpt>
      <trkpt lat="44.51528" lon="6.64579">
        <ele>2233.88</ele>
        <time>2022-10-08T12:16:15Z</time>
      </trkpt>
      <trkpt lat="44.51521" lon="6.64573">
        <ele>2235.01</ele>
        <time>2022-10-08T12:16:16Z</time>
      </trkpt>
      <trkpt lat="44.51512" lon="6.64567">
        <ele>2235.07</ele>
        <time>2022-10-08T12:16:17Z</time>
      </trkpt>
      <trkpt lat="44.51487" lon="6.6455">
        <ele>2236.92</ele>
        <time>2022-10-08T12:16:20Z</time>
      </trkpt>
      <trkpt lat="44.51464" lon="6.64527">
        <ele>2240.44</ele>
        <time>2022-10-08T12:16:23Z</time>
      </trkpt>
      <trkpt lat="44.51456" lon="6.64519">
        <ele>2240.46</ele>
        <time>2022-10-08T12:16:24Z</time>
      </trkpt>
      <trkpt lat="44.51431" lon="6.64495">
        <ele>2243.5</ele>
        <time>2022-10-08T12:16:27Z</time>
      </trkpt>
      <trkpt lat="44.51414" lon="6.64479">
        <ele>2246.6</ele>
        <time>2022-10-08T12:16:29Z</time>
      </trkpt>
      <trkpt lat="44.51406" lon="6.64472">
        <ele>2246.6</ele>
        <time>2022-10-08T12:16:30Z</time>
      </trkpt>
      <trkpt lat="44.51387" lon="6.64452">
        <ele>2248.51</ele>
        <time>2022-10-08T12:16:33Z</time>
      </trkpt>
      <trkpt lat="44.51382" lon="6.64445">
        <ele>2250.12</ele>
        <time>2022-10-08T12:16:34Z</time>
      </trkpt>
      <trkpt lat="44.51377" lon="6.64437">
        <ele>2251.15</ele>
        <time>2022-10-08T12:16:35Z</time>
      </trkpt>
      <trkpt lat="44.51372" lon="6.64429">
        <ele>2251.25</ele>
        <time>2022-10-08T12:16:36Z</time>
      </trkpt>
      <trkpt lat="44.51363" lon="6.6441">
        <ele>2253.8</ele>
        <time>2022-10-08T12:16:38Z</time>
      </trkpt>
      <trkpt lat="44.51358" lon="6.64402">
        <ele>2253.82</ele>
        <time>2022-10-08T12:16:39Z</time>
      </trkpt>
      <trkpt lat="44.51352" lon="6.64396">
        <ele>2254.87</ele>
        <time>2022-10-08T12:16:40Z</time>
      </trkpt>
      <trkpt lat="44.51346" lon="6.64392">
        <ele>2254.93</ele>
        <time>2022-10-08T12:16:41Z</time>
      </trkpt>
      <trkpt lat="44.51339" lon="6.6439">
        <ele>2256.1</ele>
        <time>2022-10-08T12:16:42Z</time>
      </trkpt>
      <trkpt lat="44.51333" lon="6.6439">
        <ele>2256.16</ele>
        <time>2022-10-08T12:16:43Z</time>
      </trkpt>
      <trkpt lat="44.51327" lon="6.64391">
        <ele>2256.08</ele>
        <time>2022-10-08T12:16:44Z</time>
      </trkpt>
      <trkpt lat="44.5132" lon="6.64395">
        <ele>2257.54</ele>
        <time>2022-10-08T12:16:45Z</time>
      </trkpt>
      <trkpt lat="44.51314" lon="6.64398">
        <ele>2257.55</ele>
        <time>2022-10-08T12:16:46Z</time>
      </trkpt>
      <trkpt lat="44.51308" lon="6.64401">
        <ele>2258.93</ele>
        <time>2022-10-08T12:16:47Z</time>
      </trkpt>
      <trkpt lat="44.51301" lon="6.64404">
        <ele>2260.09</ele>
        <time>2022-10-08T12:16:48Z</time>
      </trkpt>
      <trkpt lat="44.51294" lon="6.64405">
        <ele>2260.18</ele>
        <time>2022-10-08T12:16:49Z</time>
      </trkpt>
      <trkpt lat="44.51274" lon="6.64409">
        <ele>2261.85</ele>
        <time>2022-10-08T12:16:52Z</time>
      </trkpt>
      <trkpt lat="44.51261" lon="6.64409">
        <ele>2264.73</ele>
        <time>2022-10-08T12:16:54Z</time>
      </trkpt>
      <trkpt lat="44.51255" lon="6.64408">
        <ele>2264.74</ele>
        <time>2022-10-08T12:16:55Z</time>
      </trkpt>
      <trkpt lat="44.51249" lon="6.64406">
        <ele>2264.73</ele>
        <time>2022-10-08T12:16:56Z</time>
      </trkpt>
      <trkpt lat="44.5123" lon="6.64397">
        <ele>2267.17</ele>
        <time>2022-10-08T12:16:59Z</time>
      </trkpt>
      <trkpt lat="44.51211" lon="6.64387">
        <ele>2269.97</ele>
        <time>2022-10-08T12:17:02Z</time>
      </trkpt>
      <trkpt lat="44.51182" lon="6.64366">
        <ele>2273.54</ele>
        <time>2022-10-08T12:17:07Z</time>
      </trkpt>
      <trkpt lat="44.51176" lon="6.64361">
        <ele>2273.62</ele>
        <time>2022-10-08T12:17:08Z</time>
      </trkpt>
      <trkpt lat="44.51166" lon="6.64349">
        <ele>2274.95</ele>
        <time>2022-10-08T12:17:10Z</time>
      </trkpt>
      <trkpt lat="44.51163" lon="6.64342">
        <ele>2274.95</ele>
        <time>2022-10-08T12:17:11Z</time>
      </trkpt>
      <trkpt lat="44.51162" lon="6.64336">
        <ele>2276.75</ele>
        <time>2022-10-08T12:17:12Z</time>
      </trkpt>
      <trkpt lat="44.51162" lon="6.64328">
        <ele>2277.56</ele>
        <time>2022-10-08T12:17:13Z</time>
      </trkpt>
      <trkpt lat="44.51163" lon="6.64319">
        <ele>2277.58</ele>
        <time>2022-10-08T12:17:14Z</time>
      </trkpt>
      <trkpt lat="44.51164" lon="6.64312">
        <ele>2279.18</ele>
        <time>2022-10-08T12:17:15Z</time>
      </trkpt>
      <trkpt lat="44.51163" lon="6.64304">
        <ele>2279.18</ele>
        <time>2022-10-08T12:17:16Z</time>
      </trkpt>
      <trkpt lat="44.5116" lon="6.64297">
        <ele>2279.2</ele>
        <time>2022-10-08T12:17:17Z</time>
      </trkpt>
      <trkpt lat="44.51147" lon="6.64262">
        <ele>2281.76</ele>
        <time>2022-10-08T12:17:21Z</time>
      </trkpt>
      <trkpt lat="44.51139" lon="6.64245">
        <ele>2283.29</ele>
        <time>2022-10-08T12:17:23Z</time>
      </trkpt>
      <trkpt lat="44.51132" lon="6.64233">
        <ele>2284.36</ele>
        <time>2022-10-08T12:17:25Z</time>
      </trkpt>
      <trkpt lat="44.51129" lon="6.64228">
        <ele>2285.31</ele>
        <time>2022-10-08T12:17:26Z</time>
      </trkpt>
      <trkpt lat="44.51126" lon="6.64222">
        <ele>2286.17</ele>
        <time>2022-10-08T12:17:32Z</time>
      </trkpt>
      <trkpt lat="44.51124" lon="6.64221">
        <ele>2286.62</ele>
        <time>2022-10-08T12:17:34Z</time>
      </trkpt>
      <trkpt lat="44.51097" lon="6.64201">
        <ele>2289.19</ele>
        <time>2022-10-08T12:17:43Z</time>
      </trkpt>
      <trkpt lat="44.51093" lon="6.642">
        <ele>2290.29</ele>
        <time>2022-10-08T12:17:53Z</time>
      </trkpt>
      <trkpt lat="44.51094" lon="6.64201">
        <ele>2290.88</ele>
        <time>2022-10-08T12:18:35Z</time>
      </trkpt>
      <trkpt lat="44.51094" lon="6.64202">
        <ele>2291.56</ele>
        <time>2022-10-08T12:19:25Z</time>
      </trkpt>
      <trkpt lat="44.51093" lon="6.64202">
        <ele>2292.45</ele>
        <time>2022-10-08T12:20:28Z</time>
      </trkpt>
      <trkpt lat="44.51094" lon="6.64201">
        <ele>2293.36</ele>
        <time>2022-10-08T12:21:36Z</time>
      </trkpt>
      <trkpt lat="44.51093" lon="6.642">
        <ele>2294.98</ele>
        <time>2022-10-08T12:22:47Z</time>
      </trkpt>
      <trkpt lat="44.51093" lon="6.64201">
        <ele>2295.75</ele>
        <time>2022-10-08T12:23:54Z</time>
      </trkpt>
      <trkpt lat="44.51085" lon="6.64193">
        <ele>2296.14</ele>
        <time>2022-10-08T12:24:30Z</time>
      </trkpt>
      <trkpt lat="44.51065" lon="6.64174">
        <ele>2298.68</ele>
        <time>2022-10-08T12:24:38Z</time>
      </trkpt>
      <trkpt lat="44.51047" lon="6.64164">
        <ele>2300.84</ele>
        <time>2022-10-08T12:24:48Z</time>
      </trkpt>
      <trkpt lat="44.51029" lon="6.6415">
        <ele>2302.79</ele>
        <time>2022-10-08T12:24:58Z</time>
      </trkpt>
      <trkpt lat="44.51013" lon="6.64119">
        <ele>2306.98</ele>
        <time>2022-10-08T12:25:09Z</time>
      </trkpt>
      <trkpt lat="44.51011" lon="6.64116">
        <ele>2307.03</ele>
        <time>2022-10-08T12:25:10Z</time>
      </trkpt>
      <trkpt lat="44.51" lon="6.64066">
        <ele>2309.97</ele>
        <time>2022-10-08T12:25:21Z</time>
      </trkpt>
      <trkpt lat="44.50999" lon="6.64048">
        <ele>2311.74</ele>
        <time>2022-10-08T12:25:24Z</time>
      </trkpt>
      <trkpt lat="44.50994" lon="6.64004">
        <ele>2315.49</ele>
        <time>2022-10-08T12:25:31Z</time>
      </trkpt>
      <trkpt lat="44.50993" lon="6.63997">
        <ele>2315.15</ele>
        <time>2022-10-08T12:25:32Z</time>
      </trkpt>
      <trkpt lat="44.50991" lon="6.63991">
        <ele>2316.33</ele>
        <time>2022-10-08T12:25:33Z</time>
      </trkpt>
      <trkpt lat="44.50989" lon="6.63985">
        <ele>2317.19</ele>
        <time>2022-10-08T12:25:34Z</time>
      </trkpt>
      <trkpt lat="44.50986" lon="6.63979">
        <ele>2317.2</ele>
        <time>2022-10-08T12:25:35Z</time>
      </trkpt>
      <trkpt lat="44.50983" lon="6.63975">
        <ele>2317.25</ele>
        <time>2022-10-08T12:25:36Z</time>
      </trkpt>
      <trkpt lat="44.50979" lon="6.63971">
        <ele>2318.17</ele>
        <time>2022-10-08T12:25:37Z</time>
      </trkpt>
      <trkpt lat="44.50976" lon="6.63967">
        <ele>2318.2</ele>
        <time>2022-10-08T12:25:38Z</time>
      </trkpt>
      <trkpt lat="44.50972" lon="6.63963">
        <ele>2319.2</ele>
        <time>2022-10-08T12:25:39Z</time>
      </trkpt>
      <trkpt lat="44.50968" lon="6.6396">
        <ele>2319.21</ele>
        <time>2022-10-08T12:25:40Z</time>
      </trkpt>
      <trkpt lat="44.50964" lon="6.63957">
        <ele>2319.25</ele>
        <time>2022-10-08T12:25:41Z</time>
      </trkpt>
      <trkpt lat="44.50961" lon="6.63953">
        <ele>2319.26</ele>
        <time>2022-10-08T12:25:42Z</time>
      </trkpt>
      <trkpt lat="44.50958" lon="6.63949">
        <ele>2319.28</ele>
        <time>2022-10-08T12:25:43Z</time>
      </trkpt>
      <trkpt lat="44.50956" lon="6.63946">
        <ele>2320.57</ele>
        <time>2022-10-08T12:25:44Z</time>
      </trkpt>
      <trkpt lat="44.50954" lon="6.63942">
        <ele>2320.6</ele>
        <time>2022-10-08T12:25:45Z</time>
      </trkpt>
      <trkpt lat="44.50939" lon="6.63925">
        <ele>2323.44</ele>
        <time>2022-10-08T12:25:55Z</time>
      </trkpt>
      <trkpt lat="44.50925" lon="6.6391">
        <ele>2324.23</ele>
        <time>2022-10-08T12:26:13Z</time>
      </trkpt>
      <trkpt lat="44.50914" lon="6.63898">
        <ele>2325.59</ele>
        <time>2022-10-08T12:26:17Z</time>
      </trkpt>
      <trkpt lat="44.50887" lon="6.63872">
        <ele>2329.96</ele>
        <time>2022-10-08T12:26:25Z</time>
      </trkpt>
      <trkpt lat="44.50883" lon="6.63871">
        <ele>2330.01</ele>
        <time>2022-10-08T12:26:26Z</time>
      </trkpt>
      <trkpt lat="44.50879" lon="6.63871">
        <ele>2330.01</ele>
        <time>2022-10-08T12:26:27Z</time>
      </trkpt>
      <trkpt lat="44.50874" lon="6.63872">
        <ele>2330.05</ele>
        <time>2022-10-08T12:26:28Z</time>
      </trkpt>
      <trkpt lat="44.50869" lon="6.63873">
        <ele>2330.95</ele>
        <time>2022-10-08T12:26:29Z</time>
      </trkpt>
      <trkpt lat="44.50865" lon="6.63875">
        <ele>2330.97</ele>
        <time>2022-10-08T12:26:30Z</time>
      </trkpt>
      <trkpt lat="44.50861" lon="6.63878">
        <ele>2332.27</ele>
        <time>2022-10-08T12:26:31Z</time>
      </trkpt>
      <trkpt lat="44.50856" lon="6.63881">
        <ele>2332.26</ele>
        <time>2022-10-08T12:26:32Z</time>
      </trkpt>
      <trkpt lat="44.50852" lon="6.63885">
        <ele>2332.31</ele>
        <time>2022-10-08T12:26:33Z</time>
      </trkpt>
      <trkpt lat="44.50847" lon="6.63888">
        <ele>2332.31</ele>
        <time>2022-10-08T12:26:34Z</time>
      </trkpt>
      <trkpt lat="44.50842" lon="6.63891">
        <ele>2333.4</ele>
        <time>2022-10-08T12:26:35Z</time>
      </trkpt>
      <trkpt lat="44.50838" lon="6.63892">
        <ele>2333.39</ele>
        <time>2022-10-08T12:26:36Z</time>
      </trkpt>
      <trkpt lat="44.50834" lon="6.63892">
        <ele>2333.41</ele>
        <time>2022-10-08T12:26:37Z</time>
      </trkpt>
      <trkpt lat="44.5083" lon="6.6389">
        <ele>2333.4</ele>
        <time>2022-10-08T12:26:38Z</time>
      </trkpt>
      <trkpt lat="44.50827" lon="6.63887">
        <ele>2333.41</ele>
        <time>2022-10-08T12:26:39Z</time>
      </trkpt>
      <trkpt lat="44.50824" lon="6.63883">
        <ele>2334.66</ele>
        <time>2022-10-08T12:26:40Z</time>
      </trkpt>
      <trkpt lat="44.50821" lon="6.63878">
        <ele>2334.64</ele>
        <time>2022-10-08T12:26:41Z</time>
      </trkpt>
      <trkpt lat="44.50818" lon="6.63872">
        <ele>2334.66</ele>
        <time>2022-10-08T12:26:42Z</time>
      </trkpt>
      <trkpt lat="44.50815" lon="6.63866">
        <ele>2334.67</ele>
        <time>2022-10-08T12:26:43Z</time>
      </trkpt>
      <trkpt lat="44.50812" lon="6.63861">
        <ele>2336.11</ele>
        <time>2022-10-08T12:26:44Z</time>
      </trkpt>
      <trkpt lat="44.50808" lon="6.63856">
        <ele>2335.89</ele>
        <time>2022-10-08T12:26:45Z</time>
      </trkpt>
      <trkpt lat="44.50803" lon="6.63852">
        <ele>2335.9</ele>
        <time>2022-10-08T12:26:46Z</time>
      </trkpt>
      <trkpt lat="44.50798" lon="6.63849">
        <ele>2336.89</ele>
        <time>2022-10-08T12:26:47Z</time>
      </trkpt>
      <trkpt lat="44.50789" lon="6.63842">
        <ele>2337.72</ele>
        <time>2022-10-08T12:26:49Z</time>
      </trkpt>
      <trkpt lat="44.50758" lon="6.63819">
        <ele>2340.19</ele>
        <time>2022-10-08T12:26:55Z</time>
      </trkpt>
      <trkpt lat="44.50748" lon="6.6381">
        <ele>2341.47</ele>
        <time>2022-10-08T12:26:57Z</time>
      </trkpt>
      <trkpt lat="44.50744" lon="6.63804">
        <ele>2341.47</ele>
        <time>2022-10-08T12:26:58Z</time>
      </trkpt>
      <trkpt lat="44.50732" lon="6.63787">
        <ele>2342.75</ele>
        <time>2022-10-08T12:27:01Z</time>
      </trkpt>
      <trkpt lat="44.50725" lon="6.63776">
        <ele>2343.78</ele>
        <time>2022-10-08T12:27:03Z</time>
      </trkpt>
      <trkpt lat="44.50721" lon="6.63771">
        <ele>2344.65</ele>
        <time>2022-10-08T12:27:04Z</time>
      </trkpt>
      <trkpt lat="44.50716" lon="6.63767">
        <ele>2344.71</ele>
        <time>2022-10-08T12:27:05Z</time>
      </trkpt>
      <trkpt lat="44.50711" lon="6.63764">
        <ele>2345.61</ele>
        <time>2022-10-08T12:27:06Z</time>
      </trkpt>
      <trkpt lat="44.50707" lon="6.63762">
        <ele>2345.62</ele>
        <time>2022-10-08T12:27:07Z</time>
      </trkpt>
      <trkpt lat="44.50702" lon="6.63759">
        <ele>2346.69</ele>
        <time>2022-10-08T12:27:08Z</time>
      </trkpt>
      <trkpt lat="44.50691" lon="6.63753">
        <ele>2348.19</ele>
        <time>2022-10-08T12:27:11Z</time>
      </trkpt>
      <trkpt lat="44.50683" lon="6.63751">
        <ele>2349.02</ele>
        <time>2022-10-08T12:27:13Z</time>
      </trkpt>
      <trkpt lat="44.50679" lon="6.63751">
        <ele>2349.85</ele>
        <time>2022-10-08T12:27:14Z</time>
      </trkpt>
      <trkpt lat="44.50674" lon="6.63752">
        <ele>2349.91</ele>
        <time>2022-10-08T12:27:15Z</time>
      </trkpt>
      <trkpt lat="44.50651" lon="6.63754">
        <ele>2352.91</ele>
        <time>2022-10-08T12:27:21Z</time>
      </trkpt>
      <trkpt lat="44.50634" lon="6.63763">
        <ele>2353.93</ele>
        <time>2022-10-08T12:27:29Z</time>
      </trkpt>
      <trkpt lat="44.50633" lon="6.63764">
        <ele>2354.07</ele>
        <time>2022-10-08T12:27:43Z</time>
      </trkpt>
      <trkpt lat="44.50629" lon="6.63764">
        <ele>2354.86</ele>
        <time>2022-10-08T12:27:46Z</time>
      </trkpt>
      <trkpt lat="44.50627" lon="6.63764">
        <ele>2354.89</ele>
        <time>2022-10-08T12:27:47Z</time>
      </trkpt>
      <trkpt lat="44.50624" lon="6.63764">
        <ele>2354.91</ele>
        <time>2022-10-08T12:27:48Z</time>
      </trkpt>
      <trkpt lat="44.50622" lon="6.63764">
        <ele>2355.75</ele>
        <time>2022-10-08T12:27:49Z</time>
      </trkpt>
      <trkpt lat="44.50619" lon="6.63765">
        <ele>2355.77</ele>
        <time>2022-10-08T12:27:50Z</time>
      </trkpt>
      <trkpt lat="44.50587" lon="6.63767">
        <ele>2359.42</ele>
        <time>2022-10-08T12:27:57Z</time>
      </trkpt>
      <trkpt lat="44.50581" lon="6.63767">
        <ele>2359.39</ele>
        <time>2022-10-08T12:27:58Z</time>
      </trkpt>
      <trkpt lat="44.50564" lon="6.63767">
        <ele>2361.09</ele>
        <time>2022-10-08T12:28:01Z</time>
      </trkpt>
      <trkpt lat="44.50539" lon="6.63769">
        <ele>2364.82</ele>
        <time>2022-10-08T12:28:06Z</time>
      </trkpt>
      <trkpt lat="44.50535" lon="6.63772">
        <ele>2364.83</ele>
        <time>2022-10-08T12:28:07Z</time>
      </trkpt>
      <trkpt lat="44.5053" lon="6.63775">
        <ele>2365.77</ele>
        <time>2022-10-08T12:28:08Z</time>
      </trkpt>
      <trkpt lat="44.50526" lon="6.63779">
        <ele>2365.84</ele>
        <time>2022-10-08T12:28:09Z</time>
      </trkpt>
      <trkpt lat="44.50522" lon="6.63784">
        <ele>2365.85</ele>
        <time>2022-10-08T12:28:10Z</time>
      </trkpt>
      <trkpt lat="44.50517" lon="6.6379">
        <ele>2366.81</ele>
        <time>2022-10-08T12:28:11Z</time>
      </trkpt>
      <trkpt lat="44.50509" lon="6.63803">
        <ele>2368.31</ele>
        <time>2022-10-08T12:28:13Z</time>
      </trkpt>
      <trkpt lat="44.50504" lon="6.63807">
        <ele>2369.12</ele>
        <time>2022-10-08T12:28:14Z</time>
      </trkpt>
      <trkpt lat="44.505" lon="6.6381">
        <ele>2369.15</ele>
        <time>2022-10-08T12:28:15Z</time>
      </trkpt>
      <trkpt lat="44.50496" lon="6.63812">
        <ele>2370.19</ele>
        <time>2022-10-08T12:28:16Z</time>
      </trkpt>
      <trkpt lat="44.50492" lon="6.63812">
        <ele>2370.17</ele>
        <time>2022-10-08T12:28:17Z</time>
      </trkpt>
      <trkpt lat="44.50488" lon="6.63811">
        <ele>2370.26</ele>
        <time>2022-10-08T12:28:18Z</time>
      </trkpt>
      <trkpt lat="44.50484" lon="6.63809">
        <ele>2370.24</ele>
        <time>2022-10-08T12:28:19Z</time>
      </trkpt>
      <trkpt lat="44.50475" lon="6.63807">
        <ele>2371.88</ele>
        <time>2022-10-08T12:28:21Z</time>
      </trkpt>
      <trkpt lat="44.50455" lon="6.63799">
        <ele>2373.8</ele>
        <time>2022-10-08T12:28:25Z</time>
      </trkpt>
      <trkpt lat="44.50446" lon="6.63794">
        <ele>2375.65</ele>
        <time>2022-10-08T12:28:27Z</time>
      </trkpt>
      <trkpt lat="44.50442" lon="6.63791">
        <ele>2375.61</ele>
        <time>2022-10-08T12:28:28Z</time>
      </trkpt>
      <trkpt lat="44.50438" lon="6.63788">
        <ele>2375.67</ele>
        <time>2022-10-08T12:28:29Z</time>
      </trkpt>
      <trkpt lat="44.50435" lon="6.63785">
        <ele>2375.67</ele>
        <time>2022-10-08T12:28:30Z</time>
      </trkpt>
      <trkpt lat="44.50432" lon="6.63781">
        <ele>2376.93</ele>
        <time>2022-10-08T12:28:31Z</time>
      </trkpt>
      <trkpt lat="44.5043" lon="6.63777">
        <ele>2376.92</ele>
        <time>2022-10-08T12:28:32Z</time>
      </trkpt>
      <trkpt lat="44.50427" lon="6.63773">
        <ele>2378.17</ele>
        <time>2022-10-08T12:28:33Z</time>
      </trkpt>
      <trkpt lat="44.50424" lon="6.63768">
        <ele>2378.2</ele>
        <time>2022-10-08T12:28:34Z</time>
      </trkpt>
      <trkpt lat="44.50408" lon="6.6375">
        <ele>2380.57</ele>
        <time>2022-10-08T12:28:38Z</time>
      </trkpt>
      <trkpt lat="44.50403" lon="6.63747">
        <ele>2380.58</ele>
        <time>2022-10-08T12:28:39Z</time>
      </trkpt>
      <trkpt lat="44.50399" lon="6.63746">
        <ele>2381.41</ele>
        <time>2022-10-08T12:28:40Z</time>
      </trkpt>
      <trkpt lat="44.50394" lon="6.63746">
        <ele>2382.26</ele>
        <time>2022-10-08T12:28:41Z</time>
      </trkpt>
      <trkpt lat="44.50389" lon="6.63747">
        <ele>2382.29</ele>
        <time>2022-10-08T12:28:42Z</time>
      </trkpt>
      <trkpt lat="44.50379" lon="6.63749">
        <ele>2383.19</ele>
        <time>2022-10-08T12:28:44Z</time>
      </trkpt>
      <trkpt lat="44.50375" lon="6.63751">
        <ele>2384.11</ele>
        <time>2022-10-08T12:28:45Z</time>
      </trkpt>
      <trkpt lat="44.50365" lon="6.63754">
        <ele>2385.08</ele>
        <time>2022-10-08T12:28:47Z</time>
      </trkpt>
      <trkpt lat="44.50336" lon="6.63766">
        <ele>2388.32</ele>
        <time>2022-10-08T12:28:53Z</time>
      </trkpt>
      <trkpt lat="44.50331" lon="6.63769">
        <ele>2388.33</ele>
        <time>2022-10-08T12:28:54Z</time>
      </trkpt>
      <trkpt lat="44.50311" lon="6.63784">
        <ele>2391.48</ele>
        <time>2022-10-08T12:28:58Z</time>
      </trkpt>
      <trkpt lat="44.50307" lon="6.63789">
        <ele>2391.48</ele>
        <time>2022-10-08T12:28:59Z</time>
      </trkpt>
      <trkpt lat="44.50304" lon="6.63794">
        <ele>2391.55</ele>
        <time>2022-10-08T12:29:00Z</time>
      </trkpt>
      <trkpt lat="44.50302" lon="6.63801">
        <ele>2393.02</ele>
        <time>2022-10-08T12:29:01Z</time>
      </trkpt>
      <trkpt lat="44.50302" lon="6.63809">
        <ele>2393.07</ele>
        <time>2022-10-08T12:29:02Z</time>
      </trkpt>
      <trkpt lat="44.50302" lon="6.63816">
        <ele>2393.08</ele>
        <time>2022-10-08T12:29:03Z</time>
      </trkpt>
      <trkpt lat="44.50303" lon="6.63824">
        <ele>2394.13</ele>
        <time>2022-10-08T12:29:04Z</time>
      </trkpt>
      <trkpt lat="44.50304" lon="6.6384">
        <ele>2395.59</ele>
        <time>2022-10-08T12:29:06Z</time>
      </trkpt>
      <trkpt lat="44.50304" lon="6.63848">
        <ele>2395.67</ele>
        <time>2022-10-08T12:29:07Z</time>
      </trkpt>
      <trkpt lat="44.50304" lon="6.63856">
        <ele>2396.58</ele>
        <time>2022-10-08T12:29:08Z</time>
      </trkpt>
      <trkpt lat="44.50302" lon="6.63863">
        <ele>2396.59</ele>
        <time>2022-10-08T12:29:09Z</time>
      </trkpt>
      <trkpt lat="44.503" lon="6.63871">
        <ele>2397.62</ele>
        <time>2022-10-08T12:29:10Z</time>
      </trkpt>
      <trkpt lat="44.50298" lon="6.63879">
        <ele>2397.63</ele>
        <time>2022-10-08T12:29:11Z</time>
      </trkpt>
      <trkpt lat="44.50293" lon="6.63892">
        <ele>2399.35</ele>
        <time>2022-10-08T12:29:13Z</time>
      </trkpt>
      <trkpt lat="44.5029" lon="6.63897">
        <ele>2399.35</ele>
        <time>2022-10-08T12:29:14Z</time>
      </trkpt>
      <trkpt lat="44.50286" lon="6.63901">
        <ele>2400.52</ele>
        <time>2022-10-08T12:29:15Z</time>
      </trkpt>
      <trkpt lat="44.50281" lon="6.63904">
        <ele>2400.53</ele>
        <time>2022-10-08T12:29:16Z</time>
      </trkpt>
      <trkpt lat="44.50276" lon="6.63905">
        <ele>2401.75</ele>
        <time>2022-10-08T12:29:17Z</time>
      </trkpt>
      <trkpt lat="44.5027" lon="6.63907">
        <ele>2401.75</ele>
        <time>2022-10-08T12:29:18Z</time>
      </trkpt>
      <trkpt lat="44.50252" lon="6.63907">
        <ele>2403.67</ele>
        <time>2022-10-08T12:29:21Z</time>
      </trkpt>
      <trkpt lat="44.50248" lon="6.63905">
        <ele>2404.61</ele>
        <time>2022-10-08T12:29:22Z</time>
      </trkpt>
      <trkpt lat="44.50244" lon="6.63901">
        <ele>2404.59</ele>
        <time>2022-10-08T12:29:23Z</time>
      </trkpt>
      <trkpt lat="44.50241" lon="6.63896">
        <ele>2405.36</ele>
        <time>2022-10-08T12:29:24Z</time>
      </trkpt>
      <trkpt lat="44.50238" lon="6.6389">
        <ele>2405.43</ele>
        <time>2022-10-08T12:29:25Z</time>
      </trkpt>
      <trkpt lat="44.50229" lon="6.63878">
        <ele>2407.47</ele>
        <time>2022-10-08T12:29:27Z</time>
      </trkpt>
      <trkpt lat="44.50224" lon="6.63873">
        <ele>2407.51</ele>
        <time>2022-10-08T12:29:28Z</time>
      </trkpt>
      <trkpt lat="44.50218" lon="6.63868">
        <ele>2408.43</ele>
        <time>2022-10-08T12:29:29Z</time>
      </trkpt>
      <trkpt lat="44.50206" lon="6.63859">
        <ele>2409.63</ele>
        <time>2022-10-08T12:29:31Z</time>
      </trkpt>
      <trkpt lat="44.50193" lon="6.6385">
        <ele>2411.23</ele>
        <time>2022-10-08T12:29:33Z</time>
      </trkpt>
      <trkpt lat="44.5018" lon="6.63839">
        <ele>2413.09</ele>
        <time>2022-10-08T12:29:35Z</time>
      </trkpt>
      <trkpt lat="44.50167" lon="6.63828">
        <ele>2414.51</ele>
        <time>2022-10-08T12:29:37Z</time>
      </trkpt>
      <trkpt lat="44.50153" lon="6.6382">
        <ele>2415.9</ele>
        <time>2022-10-08T12:29:39Z</time>
      </trkpt>
      <trkpt lat="44.5014" lon="6.63813">
        <ele>2416.76</ele>
        <time>2022-10-08T12:29:41Z</time>
      </trkpt>
      <trkpt lat="44.50126" lon="6.63803">
        <ele>2419.09</ele>
        <time>2022-10-08T12:29:44Z</time>
      </trkpt>
      <trkpt lat="44.50122" lon="6.63801">
        <ele>2419.08</ele>
        <time>2022-10-08T12:29:45Z</time>
      </trkpt>
      <trkpt lat="44.50115" lon="6.638">
        <ele>2420.35</ele>
        <time>2022-10-08T12:29:48Z</time>
      </trkpt>
      <trkpt lat="44.50117" lon="6.63799">
        <ele>2421.27</ele>
        <time>2022-10-08T12:30:26Z</time>
      </trkpt>
      <trkpt lat="44.50103" lon="6.63799">
        <ele>2421.57</ele>
        <time>2022-10-08T12:31:00Z</time>
      </trkpt>
      <trkpt lat="44.50062" lon="6.638">
        <ele>2424.58</ele>
        <time>2022-10-08T12:31:09Z</time>
      </trkpt>
      <trkpt lat="44.50051" lon="6.63801">
        <ele>2425.95</ele>
        <time>2022-10-08T12:31:11Z</time>
      </trkpt>
      <trkpt lat="44.50028" lon="6.63802">
        <ele>2427.56</ele>
        <time>2022-10-08T12:31:15Z</time>
      </trkpt>
      <trkpt lat="44.50019" lon="6.63801">
        <ele>2427.58</ele>
        <time>2022-10-08T12:31:17Z</time>
      </trkpt>
      <trkpt lat="44.49999" lon="6.63802">
        <ele>2429.88</ele>
        <time>2022-10-08T12:31:21Z</time>
      </trkpt>
      <trkpt lat="44.49974" lon="6.63804">
        <ele>2431.05</ele>
        <time>2022-10-08T12:31:26Z</time>
      </trkpt>
      <trkpt lat="44.49965" lon="6.63804">
        <ele>2432.59</ele>
        <time>2022-10-08T12:31:28Z</time>
      </trkpt>
      <trkpt lat="44.49944" lon="6.6381">
        <ele>2434.97</ele>
        <time>2022-10-08T12:31:32Z</time>
      </trkpt>
      <trkpt lat="44.49912" lon="6.63821">
        <ele>2438.65</ele>
        <time>2022-10-08T12:31:37Z</time>
      </trkpt>
      <trkpt lat="44.49906" lon="6.63824">
        <ele>2438.66</ele>
        <time>2022-10-08T12:31:38Z</time>
      </trkpt>
      <trkpt lat="44.49882" lon="6.6384">
        <ele>2440.96</ele>
        <time>2022-10-08T12:31:43Z</time>
      </trkpt>
      <trkpt lat="44.49866" lon="6.63851">
        <ele>2442.48</ele>
        <time>2022-10-08T12:31:46Z</time>
      </trkpt>
      <trkpt lat="44.49848" lon="6.63865">
        <ele>2445.81</ele>
        <time>2022-10-08T12:31:49Z</time>
      </trkpt>
      <trkpt lat="44.49841" lon="6.63869">
        <ele>2445.82</ele>
        <time>2022-10-08T12:31:50Z</time>
      </trkpt>
      <trkpt lat="44.49828" lon="6.63878">
        <ele>2447.37</ele>
        <time>2022-10-08T12:31:52Z</time>
      </trkpt>
      <trkpt lat="44.49821" lon="6.63881">
        <ele>2448.63</ele>
        <time>2022-10-08T12:31:53Z</time>
      </trkpt>
      <trkpt lat="44.49815" lon="6.63882">
        <ele>2448.71</ele>
        <time>2022-10-08T12:31:54Z</time>
      </trkpt>
      <trkpt lat="44.49809" lon="6.63883">
        <ele>2450.17</ele>
        <time>2022-10-08T12:31:55Z</time>
      </trkpt>
      <trkpt lat="44.49802" lon="6.63883">
        <ele>2450.17</ele>
        <time>2022-10-08T12:31:56Z</time>
      </trkpt>
      <trkpt lat="44.49788" lon="6.63885">
        <ele>2451.57</ele>
        <time>2022-10-08T12:31:58Z</time>
      </trkpt>
      <trkpt lat="44.49765" lon="6.63888">
        <ele>2455.33</ele>
        <time>2022-10-08T12:32:02Z</time>
      </trkpt>
      <trkpt lat="44.49761" lon="6.63889">
        <ele>2455.44</ele>
        <time>2022-10-08T12:32:03Z</time>
      </trkpt>
      <trkpt lat="44.49757" lon="6.63891">
        <ele>2455.39</ele>
        <time>2022-10-08T12:32:04Z</time>
      </trkpt>
      <trkpt lat="44.49755" lon="6.63895">
        <ele>2455.44</ele>
        <time>2022-10-08T12:32:05Z</time>
      </trkpt>
      <trkpt lat="44.49754" lon="6.639">
        <ele>2457.18</ele>
        <time>2022-10-08T12:32:06Z</time>
      </trkpt>
      <trkpt lat="44.49755" lon="6.63905">
        <ele>2457.24</ele>
        <time>2022-10-08T12:32:07Z</time>
      </trkpt>
      <trkpt lat="44.49758" lon="6.6391">
        <ele>2457.26</ele>
        <time>2022-10-08T12:32:08Z</time>
      </trkpt>
      <trkpt lat="44.49761" lon="6.63914">
        <ele>2457.33</ele>
        <time>2022-10-08T12:32:09Z</time>
      </trkpt>
      <trkpt lat="44.49765" lon="6.63918">
        <ele>2457.31</ele>
        <time>2022-10-08T12:32:10Z</time>
      </trkpt>
      <trkpt lat="44.49769" lon="6.63923">
        <ele>2457.32</ele>
        <time>2022-10-08T12:32:11Z</time>
      </trkpt>
      <trkpt lat="44.49771" lon="6.6393">
        <ele>2458.78</ele>
        <time>2022-10-08T12:32:12Z</time>
      </trkpt>
      <trkpt lat="44.49774" lon="6.63938">
        <ele>2458.78</ele>
        <time>2022-10-08T12:32:13Z</time>
      </trkpt>
      <trkpt lat="44.49776" lon="6.63946">
        <ele>2458.84</ele>
        <time>2022-10-08T12:32:14Z</time>
      </trkpt>
      <trkpt lat="44.4978" lon="6.63955">
        <ele>2460.18</ele>
        <time>2022-10-08T12:32:15Z</time>
      </trkpt>
      <trkpt lat="44.49784" lon="6.63963">
        <ele>2460.19</ele>
        <time>2022-10-08T12:32:16Z</time>
      </trkpt>
      <trkpt lat="44.49789" lon="6.63971">
        <ele>2461.94</ele>
        <time>2022-10-08T12:32:17Z</time>
      </trkpt>
      <trkpt lat="44.49794" lon="6.63979">
        <ele>2462.01</ele>
        <time>2022-10-08T12:32:18Z</time>
      </trkpt>
      <trkpt lat="44.498" lon="6.63986">
        <ele>2463.35</ele>
        <time>2022-10-08T12:32:19Z</time>
      </trkpt>
      <trkpt lat="44.49812" lon="6.64001">
        <ele>2464.33</ele>
        <time>2022-10-08T12:32:21Z</time>
      </trkpt>
      <trkpt lat="44.49832" lon="6.64018">
        <ele>2467.6</ele>
        <time>2022-10-08T12:32:24Z</time>
      </trkpt>
      <trkpt lat="44.49838" lon="6.64023">
        <ele>2467.68</ele>
        <time>2022-10-08T12:32:25Z</time>
      </trkpt>
      <trkpt lat="44.4985" lon="6.64032">
        <ele>2468.96</ele>
        <time>2022-10-08T12:32:27Z</time>
      </trkpt>
      <trkpt lat="44.49856" lon="6.64033">
        <ele>2470.28</ele>
        <time>2022-10-08T12:32:28Z</time>
      </trkpt>
      <trkpt lat="44.49862" lon="6.64035">
        <ele>2471.16</ele>
        <time>2022-10-08T12:32:29Z</time>
      </trkpt>
      <trkpt lat="44.49866" lon="6.64037">
        <ele>2471.15</ele>
        <time>2022-10-08T12:32:30Z</time>
      </trkpt>
      <trkpt lat="44.4987" lon="6.6404">
        <ele>2472.05</ele>
        <time>2022-10-08T12:32:31Z</time>
      </trkpt>
      <trkpt lat="44.49873" lon="6.64045">
        <ele>2472.03</ele>
        <time>2022-10-08T12:32:32Z</time>
      </trkpt>
      <trkpt lat="44.49876" lon="6.6405">
        <ele>2473.4</ele>
        <time>2022-10-08T12:32:33Z</time>
      </trkpt>
      <trkpt lat="44.49878" lon="6.64056">
        <ele>2473.32</ele>
        <time>2022-10-08T12:32:34Z</time>
      </trkpt>
      <trkpt lat="44.49879" lon="6.64063">
        <ele>2473.33</ele>
        <time>2022-10-08T12:32:35Z</time>
      </trkpt>
      <trkpt lat="44.4988" lon="6.6407">
        <ele>2474.13</ele>
        <time>2022-10-08T12:32:36Z</time>
      </trkpt>
      <trkpt lat="44.4988" lon="6.64078">
        <ele>2474.58</ele>
        <time>2022-10-08T12:32:37Z</time>
      </trkpt>
      <trkpt lat="44.4988" lon="6.64085">
        <ele>2474.58</ele>
        <time>2022-10-08T12:32:38Z</time>
      </trkpt>
      <trkpt lat="44.49884" lon="6.64099">
        <ele>2475.68</ele>
        <time>2022-10-08T12:32:40Z</time>
      </trkpt>
      <trkpt lat="44.49886" lon="6.64103">
        <ele>2476.49</ele>
        <time>2022-10-08T12:32:41Z</time>
      </trkpt>
      <trkpt lat="44.49887" lon="6.64106">
        <ele>2476.55</ele>
        <time>2022-10-08T12:32:42Z</time>
      </trkpt>
      <trkpt lat="44.49887" lon="6.64108">
        <ele>2477.92</ele>
        <time>2022-10-08T12:32:47Z</time>
      </trkpt>
      <trkpt lat="44.49887" lon="6.64109">
        <ele>2477.98</ele>
        <time>2022-10-08T12:33:03Z</time>
      </trkpt>
      <trkpt lat="44.4989" lon="6.64111">
        <ele>2477.99</ele>
        <time>2022-10-08T12:33:04Z</time>
      </trkpt>
      <trkpt lat="44.49894" lon="6.64115">
        <ele>2478.82</ele>
        <time>2022-10-08T12:33:05Z</time>
      </trkpt>
      <trkpt lat="44.49899" lon="6.64118">
        <ele>2478.83</ele>
        <time>2022-10-08T12:33:06Z</time>
      </trkpt>
      <trkpt lat="44.49904" lon="6.64119">
        <ele>2479.65</ele>
        <time>2022-10-08T12:33:07Z</time>
      </trkpt>
      <trkpt lat="44.4991" lon="6.64119">
        <ele>2479.69</ele>
        <time>2022-10-08T12:33:08Z</time>
      </trkpt>
      <trkpt lat="44.49916" lon="6.64121">
        <ele>2480.52</ele>
        <time>2022-10-08T12:33:09Z</time>
      </trkpt>
      <trkpt lat="44.4993" lon="6.64123">
        <ele>2481.39</ele>
        <time>2022-10-08T12:33:11Z</time>
      </trkpt>
      <trkpt lat="44.49944" lon="6.64124">
        <ele>2482.73</ele>
        <time>2022-10-08T12:33:13Z</time>
      </trkpt>
      <trkpt lat="44.4996" lon="6.64124">
        <ele>2484.35</ele>
        <time>2022-10-08T12:33:15Z</time>
      </trkpt>
      <trkpt lat="44.49977" lon="6.64125">
        <ele>2486.05</ele>
        <time>2022-10-08T12:33:17Z</time>
      </trkpt>
      <trkpt lat="44.49985" lon="6.64124">
        <ele>2487.69</ele>
        <time>2022-10-08T12:33:18Z</time>
      </trkpt>
      <trkpt lat="44.49993" lon="6.64123">
        <ele>2487.73</ele>
        <time>2022-10-08T12:33:19Z</time>
      </trkpt>
      <trkpt lat="44.50001" lon="6.6412">
        <ele>2488.95</ele>
        <time>2022-10-08T12:33:20Z</time>
      </trkpt>
      <trkpt lat="44.50008" lon="6.64116">
        <ele>2490.19</ele>
        <time>2022-10-08T12:33:21Z</time>
      </trkpt>
      <trkpt lat="44.50014" lon="6.64111">
        <ele>2490.27</ele>
        <time>2022-10-08T12:33:22Z</time>
      </trkpt>
      <trkpt lat="44.50019" lon="6.64107">
        <ele>2491.58</ele>
        <time>2022-10-08T12:33:23Z</time>
      </trkpt>
      <trkpt lat="44.50024" lon="6.64106">
        <ele>2491.59</ele>
        <time>2022-10-08T12:33:24Z</time>
      </trkpt>
      <trkpt lat="44.50028" lon="6.64107">
        <ele>2491.67</ele>
        <time>2022-10-08T12:33:25Z</time>
      </trkpt>
      <trkpt lat="44.50031" lon="6.64111">
        <ele>2491.68</ele>
        <time>2022-10-08T12:33:26Z</time>
      </trkpt>
      <trkpt lat="44.50032" lon="6.64115">
        <ele>2492.28</ele>
        <time>2022-10-08T12:33:27Z</time>
      </trkpt>
      <trkpt lat="44.50029" lon="6.64119">
        <ele>2492.29</ele>
        <time>2022-10-08T12:33:28Z</time>
      </trkpt>
      <trkpt lat="44.50025" lon="6.64123">
        <ele>2493.44</ele>
        <time>2022-10-08T12:33:29Z</time>
      </trkpt>
      <trkpt lat="44.5002" lon="6.64128">
        <ele>2495.01</ele>
        <time>2022-10-08T12:33:30Z</time>
      </trkpt>
      <trkpt lat="44.50014" lon="6.64133">
        <ele>2494.61</ele>
        <time>2022-10-08T12:33:31Z</time>
      </trkpt>
      <trkpt lat="44.50009" lon="6.6414">
        <ele>2495.93</ele>
        <time>2022-10-08T12:33:32Z</time>
      </trkpt>
      <trkpt lat="44.49997" lon="6.64156">
        <ele>2497.57</ele>
        <time>2022-10-08T12:33:34Z</time>
      </trkpt>
      <trkpt lat="44.4999" lon="6.64162">
        <ele>2498.43</ele>
        <time>2022-10-08T12:33:35Z</time>
      </trkpt>
      <trkpt lat="44.49984" lon="6.64167">
        <ele>2498.48</ele>
        <time>2022-10-08T12:33:36Z</time>
      </trkpt>
      <trkpt lat="44.49976" lon="6.64171">
        <ele>2500.24</ele>
        <time>2022-10-08T12:33:37Z</time>
      </trkpt>
      <trkpt lat="44.49969" lon="6.64173">
        <ele>2501.22</ele>
        <time>2022-10-08T12:33:38Z</time>
      </trkpt>
      <trkpt lat="44.49962" lon="6.64177">
        <ele>2501.26</ele>
        <time>2022-10-08T12:33:39Z</time>
      </trkpt>
      <trkpt lat="44.49955" lon="6.64181">
        <ele>2502.75</ele>
        <time>2022-10-08T12:33:40Z</time>
      </trkpt>
      <trkpt lat="44.49941" lon="6.64191">
        <ele>2503.72</ele>
        <time>2022-10-08T12:33:42Z</time>
      </trkpt>
      <trkpt lat="44.49919" lon="6.64206">
        <ele>2505.99</ele>
        <time>2022-10-08T12:33:45Z</time>
      </trkpt>
      <trkpt lat="44.49912" lon="6.64209">
        <ele>2506.81</ele>
        <time>2022-10-08T12:33:46Z</time>
      </trkpt>
      <trkpt lat="44.49904" lon="6.64211">
        <ele>2506.9</ele>
        <time>2022-10-08T12:33:47Z</time>
      </trkpt>
      <trkpt lat="44.49897" lon="6.64211">
        <ele>2508.13</ele>
        <time>2022-10-08T12:33:48Z</time>
      </trkpt>
      <trkpt lat="44.49889" lon="6.6421">
        <ele>2508.15</ele>
        <time>2022-10-08T12:33:49Z</time>
      </trkpt>
      <trkpt lat="44.49882" lon="6.64209">
        <ele>2508.23</ele>
        <time>2022-10-08T12:33:50Z</time>
      </trkpt>
      <trkpt lat="44.49854" lon="6.642">
        <ele>2510.51</ele>
        <time>2022-10-08T12:33:54Z</time>
      </trkpt>
      <trkpt lat="44.49823" lon="6.6419">
        <ele>2512.86</ele>
        <time>2022-10-08T12:33:58Z</time>
      </trkpt>
      <trkpt lat="44.49816" lon="6.64185">
        <ele>2512.85</ele>
        <time>2022-10-08T12:33:59Z</time>
      </trkpt>
      <trkpt lat="44.49809" lon="6.64178">
        <ele>2514.46</ele>
        <time>2022-10-08T12:34:00Z</time>
      </trkpt>
      <trkpt lat="44.49792" lon="6.64156">
        <ele>2516.51</ele>
        <time>2022-10-08T12:34:03Z</time>
      </trkpt>
      <trkpt lat="44.49788" lon="6.64148">
        <ele>2517.88</ele>
        <time>2022-10-08T12:34:04Z</time>
      </trkpt>
      <trkpt lat="44.49786" lon="6.64139">
        <ele>2517.89</ele>
        <time>2022-10-08T12:34:05Z</time>
      </trkpt>
      <trkpt lat="44.49779" lon="6.64122">
        <ele>2520.13</ele>
        <time>2022-10-08T12:34:08Z</time>
      </trkpt>
      <trkpt lat="44.49776" lon="6.6412">
        <ele>2520.17</ele>
        <time>2022-10-08T12:34:09Z</time>
      </trkpt>
      <trkpt lat="44.49772" lon="6.64121">
        <ele>2520.18</ele>
        <time>2022-10-08T12:34:10Z</time>
      </trkpt>
      <trkpt lat="44.49768" lon="6.64124">
        <ele>2520.19</ele>
        <time>2022-10-08T12:34:11Z</time>
      </trkpt>
      <trkpt lat="44.49764" lon="6.64128">
        <ele>2521.61</ele>
        <time>2022-10-08T12:34:12Z</time>
      </trkpt>
      <trkpt lat="44.4976" lon="6.64133">
        <ele>2521.68</ele>
        <time>2022-10-08T12:34:13Z</time>
      </trkpt>
      <trkpt lat="44.49756" lon="6.64139">
        <ele>2522.59</ele>
        <time>2022-10-08T12:34:14Z</time>
      </trkpt>
      <trkpt lat="44.49721" lon="6.64198">
        <ele>2526.16</ele>
        <time>2022-10-08T12:34:23Z</time>
      </trkpt>
      <trkpt lat="44.49716" lon="6.64203">
        <ele>2526.17</ele>
        <time>2022-10-08T12:34:24Z</time>
      </trkpt>
      <trkpt lat="44.4971" lon="6.64207">
        <ele>2527.03</ele>
        <time>2022-10-08T12:34:25Z</time>
      </trkpt>
      <trkpt lat="44.49699" lon="6.64216">
        <ele>2528.37</ele>
        <time>2022-10-08T12:34:27Z</time>
      </trkpt>
      <trkpt lat="44.49693" lon="6.64223">
        <ele>2528.36</ele>
        <time>2022-10-08T12:34:28Z</time>
      </trkpt>
      <trkpt lat="44.49689" lon="6.6423">
        <ele>2529.46</ele>
        <time>2022-10-08T12:34:29Z</time>
      </trkpt>
      <trkpt lat="44.49685" lon="6.64237">
        <ele>2530.41</ele>
        <time>2022-10-08T12:34:30Z</time>
      </trkpt>
      <trkpt lat="44.49683" lon="6.64245">
        <ele>2530.42</ele>
        <time>2022-10-08T12:34:31Z</time>
      </trkpt>
      <trkpt lat="44.49683" lon="6.64253">
        <ele>2530.44</ele>
        <time>2022-10-08T12:34:32Z</time>
      </trkpt>
      <trkpt lat="44.49684" lon="6.6426">
        <ele>2531.65</ele>
        <time>2022-10-08T12:34:33Z</time>
      </trkpt>
      <trkpt lat="44.49688" lon="6.64265">
        <ele>2531.65</ele>
        <time>2022-10-08T12:34:34Z</time>
      </trkpt>
      <trkpt lat="44.49694" lon="6.64271">
        <ele>2533.03</ele>
        <time>2022-10-08T12:34:35Z</time>
      </trkpt>
      <trkpt lat="44.49701" lon="6.64276">
        <ele>2533.09</ele>
        <time>2022-10-08T12:34:36Z</time>
      </trkpt>
      <trkpt lat="44.49717" lon="6.64287">
        <ele>2533.91</ele>
        <time>2022-10-08T12:34:38Z</time>
      </trkpt>
      <trkpt lat="44.49725" lon="6.64291">
        <ele>2535.98</ele>
        <time>2022-10-08T12:34:39Z</time>
      </trkpt>
      <trkpt lat="44.49734" lon="6.64294">
        <ele>2535.99</ele>
        <time>2022-10-08T12:34:40Z</time>
      </trkpt>
      <trkpt lat="44.49743" lon="6.64295">
        <ele>2536.8</ele>
        <time>2022-10-08T12:34:41Z</time>
      </trkpt>
      <trkpt lat="44.49754" lon="6.64299">
        <ele>2538.15</ele>
        <time>2022-10-08T12:34:42Z</time>
      </trkpt>
      <trkpt lat="44.4977" lon="6.64304">
        <ele>2538.16</ele>
        <time>2022-10-08T12:34:43Z</time>
      </trkpt>
      <trkpt lat="44.49784" lon="6.64307">
        <ele>2539.15</ele>
        <time>2022-10-08T12:34:44Z</time>
      </trkpt>
      <trkpt lat="44.4981" lon="6.6431">
        <ele>2541.29</ele>
        <time>2022-10-08T12:34:47Z</time>
      </trkpt>
      <trkpt lat="44.49816" lon="6.64308">
        <ele>2541.36</ele>
        <time>2022-10-08T12:34:48Z</time>
      </trkpt>
      <trkpt lat="44.4982" lon="6.64306">
        <ele>2541.35</ele>
        <time>2022-10-08T12:34:49Z</time>
      </trkpt>
      <trkpt lat="44.49824" lon="6.64305">
        <ele>2542.24</ele>
        <time>2022-10-08T12:34:50Z</time>
      </trkpt>
      <trkpt lat="44.49826" lon="6.64306">
        <ele>2542.29</ele>
        <time>2022-10-08T12:34:51Z</time>
      </trkpt>
      <trkpt lat="44.49827" lon="6.64308">
        <ele>2542.28</ele>
        <time>2022-10-08T12:34:52Z</time>
      </trkpt>
      <trkpt lat="44.49827" lon="6.6431">
        <ele>2542.25</ele>
        <time>2022-10-08T12:34:53Z</time>
      </trkpt>
      <trkpt lat="44.49827" lon="6.64312">
        <ele>2543.13</ele>
        <time>2022-10-08T12:34:54Z</time>
      </trkpt>
      <trkpt lat="44.49821" lon="6.64311">
        <ele>2542.89</ele>
        <time>2022-10-08T12:35:04Z</time>
      </trkpt>
      <trkpt lat="44.49819" lon="6.64313">
        <ele>2542.89</ele>
        <time>2022-10-08T12:35:05Z</time>
      </trkpt>
      <trkpt lat="44.49815" lon="6.64314">
        <ele>2542.91</ele>
        <time>2022-10-08T12:35:06Z</time>
      </trkpt>
      <trkpt lat="44.49812" lon="6.64314">
        <ele>2543.93</ele>
        <time>2022-10-08T12:35:07Z</time>
      </trkpt>
      <trkpt lat="44.49807" lon="6.64315">
        <ele>2543.92</ele>
        <time>2022-10-08T12:35:08Z</time>
      </trkpt>
      <trkpt lat="44.49802" lon="6.64317">
        <ele>2543.91</ele>
        <time>2022-10-08T12:35:09Z</time>
      </trkpt>
      <trkpt lat="44.49797" lon="6.6432">
        <ele>2543.94</ele>
        <time>2022-10-08T12:35:10Z</time>
      </trkpt>
      <trkpt lat="44.49785" lon="6.64326">
        <ele>2545.61</ele>
        <time>2022-10-08T12:35:12Z</time>
      </trkpt>
      <trkpt lat="44.49771" lon="6.64331">
        <ele>2547.77</ele>
        <time>2022-10-08T12:35:14Z</time>
      </trkpt>
      <trkpt lat="44.4975" lon="6.64334">
        <ele>2550.91</ele>
        <time>2022-10-08T12:35:17Z</time>
      </trkpt>
      <trkpt lat="44.49727" lon="6.64335">
        <ele>2552.65</ele>
        <time>2022-10-08T12:35:20Z</time>
      </trkpt>
      <trkpt lat="44.49711" lon="6.64335">
        <ele>2554.66</ele>
        <time>2022-10-08T12:35:22Z</time>
      </trkpt>
      <trkpt lat="44.49693" lon="6.64333">
        <ele>2556.54</ele>
        <time>2022-10-08T12:35:24Z</time>
      </trkpt>
      <trkpt lat="44.49678" lon="6.6433">
        <ele>2558.11</ele>
        <time>2022-10-08T12:35:26Z</time>
      </trkpt>
      <trkpt lat="44.49665" lon="6.64329">
        <ele>2559.95</ele>
        <time>2022-10-08T12:35:28Z</time>
      </trkpt>
      <trkpt lat="44.49641" lon="6.64333">
        <ele>2562.26</ele>
        <time>2022-10-08T12:35:31Z</time>
      </trkpt>
      <trkpt lat="44.49625" lon="6.64339">
        <ele>2564.36</ele>
        <time>2022-10-08T12:35:33Z</time>
      </trkpt>
      <trkpt lat="44.49609" lon="6.64345">
        <ele>2565.48</ele>
        <time>2022-10-08T12:35:35Z</time>
      </trkpt>
      <trkpt lat="44.49602" lon="6.64347">
        <ele>2567.01</ele>
        <time>2022-10-08T12:35:36Z</time>
      </trkpt>
      <trkpt lat="44.49594" lon="6.64346">
        <ele>2568.25</ele>
        <time>2022-10-08T12:35:37Z</time>
      </trkpt>
      <trkpt lat="44.49585" lon="6.64346">
        <ele>2568.19</ele>
        <time>2022-10-08T12:35:38Z</time>
      </trkpt>
      <trkpt lat="44.49559" lon="6.64345">
        <ele>2570.95</ele>
        <time>2022-10-08T12:35:41Z</time>
      </trkpt>
      <trkpt lat="44.49535" lon="6.64346">
        <ele>2573.04</ele>
        <time>2022-10-08T12:35:44Z</time>
      </trkpt>
      <trkpt lat="44.49519" lon="6.64347">
        <ele>2574.97</ele>
        <time>2022-10-08T12:35:46Z</time>
      </trkpt>
      <trkpt lat="44.49494" lon="6.64346">
        <ele>2578.92</ele>
        <time>2022-10-08T12:35:49Z</time>
      </trkpt>
      <trkpt lat="44.49486" lon="6.64344">
        <ele>2578.91</ele>
        <time>2022-10-08T12:35:50Z</time>
      </trkpt>
      <trkpt lat="44.49472" lon="6.6434">
        <ele>2581.69</ele>
        <time>2022-10-08T12:35:52Z</time>
      </trkpt>
      <trkpt lat="44.49466" lon="6.6434">
        <ele>2581.69</ele>
        <time>2022-10-08T12:35:53Z</time>
      </trkpt>
      <trkpt lat="44.49461" lon="6.6434">
        <ele>2583.05</ele>
        <time>2022-10-08T12:35:54Z</time>
      </trkpt>
      <trkpt lat="44.49456" lon="6.64342">
        <ele>2583.01</ele>
        <time>2022-10-08T12:35:55Z</time>
      </trkpt>
      <trkpt lat="44.49451" lon="6.64344">
        <ele>2584.22</ele>
        <time>2022-10-08T12:35:56Z</time>
      </trkpt>
      <trkpt lat="44.49446" lon="6.64345">
        <ele>2584.19</ele>
        <time>2022-10-08T12:35:57Z</time>
      </trkpt>
      <trkpt lat="44.49439" lon="6.64346">
        <ele>2585</ele>
        <time>2022-10-08T12:35:58Z</time>
      </trkpt>
      <trkpt lat="44.49432" lon="6.64347">
        <ele>2586.15</ele>
        <time>2022-10-08T12:35:59Z</time>
      </trkpt>
      <trkpt lat="44.49417" lon="6.64348">
        <ele>2587.04</ele>
        <time>2022-10-08T12:36:01Z</time>
      </trkpt>
      <trkpt lat="44.49388" lon="6.64352">
        <ele>2590.03</ele>
        <time>2022-10-08T12:36:05Z</time>
      </trkpt>
      <trkpt lat="44.49364" lon="6.64352">
        <ele>2592.24</ele>
        <time>2022-10-08T12:36:08Z</time>
      </trkpt>
      <trkpt lat="44.4934" lon="6.64355">
        <ele>2596.31</ele>
        <time>2022-10-08T12:36:11Z</time>
      </trkpt>
      <trkpt lat="44.49333" lon="6.64356">
        <ele>2596.31</ele>
        <time>2022-10-08T12:36:12Z</time>
      </trkpt>
      <trkpt lat="44.4931" lon="6.64362">
        <ele>2598.65</ele>
        <time>2022-10-08T12:36:15Z</time>
      </trkpt>
      <trkpt lat="44.49296" lon="6.64367">
        <ele>2601.17</ele>
        <time>2022-10-08T12:36:17Z</time>
      </trkpt>
      <trkpt lat="44.4929" lon="6.64372">
        <ele>2601.24</ele>
        <time>2022-10-08T12:36:18Z</time>
      </trkpt>
      <trkpt lat="44.49285" lon="6.64378">
        <ele>2602.36</ele>
        <time>2022-10-08T12:36:19Z</time>
      </trkpt>
      <trkpt lat="44.49274" lon="6.64392">
        <ele>2603.42</ele>
        <time>2022-10-08T12:36:21Z</time>
      </trkpt>
      <trkpt lat="44.49262" lon="6.64405">
        <ele>2606.05</ele>
        <time>2022-10-08T12:36:23Z</time>
      </trkpt>
      <trkpt lat="44.49241" lon="6.64418">
        <ele>2607.81</ele>
        <time>2022-10-08T12:36:26Z</time>
      </trkpt>
      <trkpt lat="44.49222" lon="6.64427">
        <ele>2609.45</ele>
        <time>2022-10-08T12:36:29Z</time>
      </trkpt>
      <trkpt lat="44.49216" lon="6.64427">
        <ele>2611.01</ele>
        <time>2022-10-08T12:36:30Z</time>
      </trkpt>
      <trkpt lat="44.49211" lon="6.64424">
        <ele>2611.79</ele>
        <time>2022-10-08T12:36:31Z</time>
      </trkpt>
      <trkpt lat="44.49206" lon="6.64418">
        <ele>2611.87</ele>
        <time>2022-10-08T12:36:32Z</time>
      </trkpt>
      <trkpt lat="44.49201" lon="6.64411">
        <ele>2611.88</ele>
        <time>2022-10-08T12:36:33Z</time>
      </trkpt>
      <trkpt lat="44.49195" lon="6.64405">
        <ele>2613</ele>
        <time>2022-10-08T12:36:34Z</time>
      </trkpt>
      <trkpt lat="44.49188" lon="6.64399">
        <ele>2614.38</ele>
        <time>2022-10-08T12:36:35Z</time>
      </trkpt>
      <trkpt lat="44.49181" lon="6.64393">
        <ele>2614.37</ele>
        <time>2022-10-08T12:36:36Z</time>
      </trkpt>
      <trkpt lat="44.49162" lon="6.64381">
        <ele>2616.37</ele>
        <time>2022-10-08T12:36:39Z</time>
      </trkpt>
      <trkpt lat="44.49156" lon="6.64379">
        <ele>2617.32</ele>
        <time>2022-10-08T12:36:40Z</time>
      </trkpt>
      <trkpt lat="44.4915" lon="6.64378">
        <ele>2617.3</ele>
        <time>2022-10-08T12:36:41Z</time>
      </trkpt>
      <trkpt lat="44.49144" lon="6.6438">
        <ele>2617.28</ele>
        <time>2022-10-08T12:36:42Z</time>
      </trkpt>
      <trkpt lat="44.49138" lon="6.64382">
        <ele>2618.52</ele>
        <time>2022-10-08T12:36:43Z</time>
      </trkpt>
      <trkpt lat="44.49132" lon="6.64386">
        <ele>2618.53</ele>
        <time>2022-10-08T12:36:44Z</time>
      </trkpt>
      <trkpt lat="44.49125" lon="6.64388">
        <ele>2620.01</ele>
        <time>2022-10-08T12:36:45Z</time>
      </trkpt>
      <trkpt lat="44.49118" lon="6.6439">
        <ele>2620.02</ele>
        <time>2022-10-08T12:36:46Z</time>
      </trkpt>
      <trkpt lat="44.49094" lon="6.64398">
        <ele>2621.97</ele>
        <time>2022-10-08T12:36:53Z</time>
      </trkpt>
      <trkpt lat="44.49094" lon="6.64397">
        <ele>2623</ele>
        <time>2022-10-08T12:37:30Z</time>
      </trkpt>
      <trkpt lat="44.49097" lon="6.64396">
        <ele>2623.64</ele>
        <time>2022-10-08T12:38:20Z</time>
      </trkpt>
      <trkpt lat="44.49094" lon="6.644">
        <ele>2623.99</ele>
        <time>2022-10-08T12:38:44Z</time>
      </trkpt>
      <trkpt lat="44.49081" lon="6.64413">
        <ele>2624.35</ele>
        <time>2022-10-08T12:39:08Z</time>
      </trkpt>
      <trkpt lat="44.49078" lon="6.64416">
        <ele>2625.13</ele>
        <time>2022-10-08T12:39:09Z</time>
      </trkpt>
      <trkpt lat="44.49074" lon="6.64418">
        <ele>2625.17</ele>
        <time>2022-10-08T12:39:10Z</time>
      </trkpt>
      <trkpt lat="44.48978" lon="6.6449">
        <ele>2627.98</ele>
        <time>2022-10-08T12:39:36Z</time>
      </trkpt>
      <trkpt lat="44.48919" lon="6.64535">
        <ele>2628.76</ele>
        <time>2022-10-08T12:39:52Z</time>
      </trkpt>
      <trkpt lat="44.48919" lon="6.64535">
        <ele>2626.44</ele>
        <time>2022-10-08T12:40:09Z</time>
      </trkpt>
      <trkpt lat="44.48668" lon="6.64715">
        <ele>2625.37</ele>
        <time>2022-10-08T12:40:20Z</time>
      </trkpt>
      <trkpt lat="44.48664" lon="6.64715">
        <ele>2624.4</ele>
        <time>2022-10-08T12:40:21Z</time>
      </trkpt>
      <trkpt lat="44.48658" lon="6.64715">
        <ele>2624.4</ele>
        <time>2022-10-08T12:40:22Z</time>
      </trkpt>
      <trkpt lat="44.48655" lon="6.64718">
        <ele>2624.4</ele>
        <time>2022-10-08T12:40:23Z</time>
      </trkpt>
      <trkpt lat="44.48652" lon="6.64721">
        <ele>2623.27</ele>
        <time>2022-10-08T12:40:24Z</time>
      </trkpt>
      <trkpt lat="44.48651" lon="6.64724">
        <ele>2623.27</ele>
        <time>2022-10-08T12:40:25Z</time>
      </trkpt>
      <trkpt lat="44.48651" lon="6.64727">
        <ele>2623.3</ele>
        <time>2022-10-08T12:40:26Z</time>
      </trkpt>
      <trkpt lat="44.48652" lon="6.64729">
        <ele>2623.24</ele>
        <time>2022-10-08T12:40:27Z</time>
      </trkpt>
      <trkpt lat="44.48658" lon="6.64729">
        <ele>2623.42</ele>
        <time>2022-10-08T12:40:36Z</time>
      </trkpt>
      <trkpt lat="44.4866" lon="6.64727">
        <ele>2623.84</ele>
        <time>2022-10-08T12:41:00Z</time>
      </trkpt>
      <trkpt lat="44.48658" lon="6.64727">
        <ele>2655.37</ele>
        <time>2022-10-08T12:41:10Z</time>
      </trkpt>
      <trkpt lat="44.48688" lon="6.64819">
        <ele>2619.15</ele>
        <time>2022-10-08T12:51:01Z</time>
      </trkpt>
      <trkpt lat="44.48689" lon="6.6483">
        <ele>2619.47</ele>
        <time>2022-10-08T12:51:12Z</time>
      </trkpt>
      <trkpt lat="44.48689" lon="6.64834">
        <ele>2619.62</ele>
        <time>2022-10-08T12:51:13Z</time>
      </trkpt>
      <trkpt lat="44.4869" lon="6.64838">
        <ele>2619.75</ele>
        <time>2022-10-08T12:51:14Z</time>
      </trkpt>
      <trkpt lat="44.48689" lon="6.64843">
        <ele>2619.89</ele>
        <time>2022-10-08T12:51:15Z</time>
      </trkpt>
      <trkpt lat="44.48688" lon="6.64848">
        <ele>2620.02</ele>
        <time>2022-10-08T12:51:16Z</time>
      </trkpt>
      <trkpt lat="44.48685" lon="6.64853">
        <ele>2620.12</ele>
        <time>2022-10-08T12:51:17Z</time>
      </trkpt>
      <trkpt lat="44.48683" lon="6.64857">
        <ele>2618.97</ele>
        <time>2022-10-08T12:51:18Z</time>
      </trkpt>
      <trkpt lat="44.48682" lon="6.64861">
        <ele>2619.08</ele>
        <time>2022-10-08T12:51:19Z</time>
      </trkpt>
      <trkpt lat="44.4868" lon="6.64866">
        <ele>2619.2</ele>
        <time>2022-10-08T12:51:20Z</time>
      </trkpt>
      <trkpt lat="44.48677" lon="6.6487">
        <ele>2619.3</ele>
        <time>2022-10-08T12:51:21Z</time>
      </trkpt>
      <trkpt lat="44.48658" lon="6.64919">
        <ele>2615.55</ele>
        <time>2022-10-08T12:51:30Z</time>
      </trkpt>
      <trkpt lat="44.48655" lon="6.64933">
        <ele>2614.93</ele>
        <time>2022-10-08T12:51:32Z</time>
      </trkpt>
      <trkpt lat="44.48653" lon="6.64947">
        <ele>2614.31</ele>
        <time>2022-10-08T12:51:34Z</time>
      </trkpt>
      <trkpt lat="44.48652" lon="6.64954">
        <ele>2614.41</ele>
        <time>2022-10-08T12:51:35Z</time>
      </trkpt>
      <trkpt lat="44.48649" lon="6.64966">
        <ele>2613.05</ele>
        <time>2022-10-08T12:51:37Z</time>
      </trkpt>
      <trkpt lat="44.48646" lon="6.64987">
        <ele>2611.62</ele>
        <time>2022-10-08T12:51:41Z</time>
      </trkpt>
      <trkpt lat="44.48642" lon="6.65009">
        <ele>2609.6</ele>
        <time>2022-10-08T12:51:47Z</time>
      </trkpt>
      <trkpt lat="44.48643" lon="6.65012">
        <ele>2609.71</ele>
        <time>2022-10-08T12:51:48Z</time>
      </trkpt>
      <trkpt lat="44.48643" lon="6.65016">
        <ele>2609.75</ele>
        <time>2022-10-08T12:51:49Z</time>
      </trkpt>
      <trkpt lat="44.48645" lon="6.65019">
        <ele>2608.84</ele>
        <time>2022-10-08T12:51:50Z</time>
      </trkpt>
      <trkpt lat="44.48649" lon="6.65021">
        <ele>2608.88</ele>
        <time>2022-10-08T12:51:51Z</time>
      </trkpt>
      <trkpt lat="44.48652" lon="6.65023">
        <ele>2607.95</ele>
        <time>2022-10-08T12:51:52Z</time>
      </trkpt>
      <trkpt lat="44.48656" lon="6.65023">
        <ele>2607.97</ele>
        <time>2022-10-08T12:51:53Z</time>
      </trkpt>
      <trkpt lat="44.4866" lon="6.65024">
        <ele>2608</ele>
        <time>2022-10-08T12:51:54Z</time>
      </trkpt>
      <trkpt lat="44.48663" lon="6.65025">
        <ele>2607.22</ele>
        <time>2022-10-08T12:51:55Z</time>
      </trkpt>
      <trkpt lat="44.48666" lon="6.65026">
        <ele>2607.26</ele>
        <time>2022-10-08T12:51:56Z</time>
      </trkpt>
      <trkpt lat="44.48699" lon="6.65044">
        <ele>2604.39</ele>
        <time>2022-10-08T12:52:08Z</time>
      </trkpt>
      <trkpt lat="44.487" lon="6.65048">
        <ele>2604.16</ele>
        <time>2022-10-08T12:52:09Z</time>
      </trkpt>
      <trkpt lat="44.48699" lon="6.65051">
        <ele>2604.35</ele>
        <time>2022-10-08T12:52:10Z</time>
      </trkpt>
      <trkpt lat="44.48696" lon="6.65054">
        <ele>2603.79</ele>
        <time>2022-10-08T12:52:11Z</time>
      </trkpt>
      <trkpt lat="44.48693" lon="6.65053">
        <ele>2603.83</ele>
        <time>2022-10-08T12:52:12Z</time>
      </trkpt>
      <trkpt lat="44.4869" lon="6.6505">
        <ele>2603.81</ele>
        <time>2022-10-08T12:52:13Z</time>
      </trkpt>
      <trkpt lat="44.48686" lon="6.65047">
        <ele>2603.78</ele>
        <time>2022-10-08T12:52:14Z</time>
      </trkpt>
      <trkpt lat="44.48682" lon="6.65045">
        <ele>2603.77</ele>
        <time>2022-10-08T12:52:15Z</time>
      </trkpt>
      <trkpt lat="44.48678" lon="6.65044">
        <ele>2603.79</ele>
        <time>2022-10-08T12:52:16Z</time>
      </trkpt>
      <trkpt lat="44.48668" lon="6.65043">
        <ele>2603.76</ele>
        <time>2022-10-08T12:52:18Z</time>
      </trkpt>
      <trkpt lat="44.48664" lon="6.65043">
        <ele>2603.76</ele>
        <time>2022-10-08T12:52:19Z</time>
      </trkpt>
      <trkpt lat="44.48659" lon="6.65044">
        <ele>2601.04</ele>
        <time>2022-10-08T12:52:20Z</time>
      </trkpt>
      <trkpt lat="44.48654" lon="6.65046">
        <ele>2601.08</ele>
        <time>2022-10-08T12:52:21Z</time>
      </trkpt>
      <trkpt lat="44.48649" lon="6.65047">
        <ele>2600.21</ele>
        <time>2022-10-08T12:52:22Z</time>
      </trkpt>
      <trkpt lat="44.48644" lon="6.65047">
        <ele>2599.32</ele>
        <time>2022-10-08T12:52:23Z</time>
      </trkpt>
      <trkpt lat="44.48639" lon="6.65045">
        <ele>2599.36</ele>
        <time>2022-10-08T12:52:24Z</time>
      </trkpt>
      <trkpt lat="44.48635" lon="6.65043">
        <ele>2599.33</ele>
        <time>2022-10-08T12:52:25Z</time>
      </trkpt>
      <trkpt lat="44.48631" lon="6.65041">
        <ele>2599.31</ele>
        <time>2022-10-08T12:52:26Z</time>
      </trkpt>
      <trkpt lat="44.48622" lon="6.65027">
        <ele>2597.1</ele>
        <time>2022-10-08T12:52:30Z</time>
      </trkpt>
      <trkpt lat="44.48621" lon="6.65021">
        <ele>2596.18</ele>
        <time>2022-10-08T12:52:31Z</time>
      </trkpt>
      <trkpt lat="44.48621" lon="6.65015">
        <ele>2596.19</ele>
        <time>2022-10-08T12:52:32Z</time>
      </trkpt>
      <trkpt lat="44.48618" lon="6.64949">
        <ele>2592.71</ele>
        <time>2022-10-08T12:52:41Z</time>
      </trkpt>
      <trkpt lat="44.48616" lon="6.64921">
        <ele>2590.66</ele>
        <time>2022-10-08T12:52:44Z</time>
      </trkpt>
      <trkpt lat="44.48615" lon="6.64896">
        <ele>2587.88</ele>
        <time>2022-10-08T12:52:47Z</time>
      </trkpt>
      <trkpt lat="44.48614" lon="6.64889">
        <ele>2587.85</ele>
        <time>2022-10-08T12:52:48Z</time>
      </trkpt>
      <trkpt lat="44.48612" lon="6.64882">
        <ele>2586.41</ele>
        <time>2022-10-08T12:52:49Z</time>
      </trkpt>
      <trkpt lat="44.48608" lon="6.64877">
        <ele>2586.35</ele>
        <time>2022-10-08T12:52:50Z</time>
      </trkpt>
      <trkpt lat="44.48603" lon="6.64872">
        <ele>2585.59</ele>
        <time>2022-10-08T12:52:51Z</time>
      </trkpt>
      <trkpt lat="44.48597" lon="6.64869">
        <ele>2585.52</ele>
        <time>2022-10-08T12:52:52Z</time>
      </trkpt>
      <trkpt lat="44.48591" lon="6.64865">
        <ele>2584.36</ele>
        <time>2022-10-08T12:52:53Z</time>
      </trkpt>
      <trkpt lat="44.48586" lon="6.64862">
        <ele>2584.28</ele>
        <time>2022-10-08T12:52:54Z</time>
      </trkpt>
      <trkpt lat="44.4858" lon="6.64858">
        <ele>2582.95</ele>
        <time>2022-10-08T12:52:55Z</time>
      </trkpt>
      <trkpt lat="44.4857" lon="6.6485">
        <ele>2581.93</ele>
        <time>2022-10-08T12:52:57Z</time>
      </trkpt>
      <trkpt lat="44.48558" lon="6.64839">
        <ele>2580.76</ele>
        <time>2022-10-08T12:53:00Z</time>
      </trkpt>
      <trkpt lat="44.48555" lon="6.64834">
        <ele>2580.8</ele>
        <time>2022-10-08T12:53:01Z</time>
      </trkpt>
      <trkpt lat="44.48537" lon="6.64808">
        <ele>2578.31</ele>
        <time>2022-10-08T12:53:05Z</time>
      </trkpt>
      <trkpt lat="44.48531" lon="6.64804">
        <ele>2577.39</ele>
        <time>2022-10-08T12:53:06Z</time>
      </trkpt>
      <trkpt lat="44.48525" lon="6.64801">
        <ele>2577.39</ele>
        <time>2022-10-08T12:53:07Z</time>
      </trkpt>
      <trkpt lat="44.48518" lon="6.648">
        <ele>2576.32</ele>
        <time>2022-10-08T12:53:08Z</time>
      </trkpt>
      <trkpt lat="44.48511" lon="6.64801">
        <ele>2575.32</ele>
        <time>2022-10-08T12:53:09Z</time>
      </trkpt>
      <trkpt lat="44.48504" lon="6.64803">
        <ele>2575.32</ele>
        <time>2022-10-08T12:53:10Z</time>
      </trkpt>
      <trkpt lat="44.48498" lon="6.64806">
        <ele>2574.07</ele>
        <time>2022-10-08T12:53:11Z</time>
      </trkpt>
      <trkpt lat="44.48492" lon="6.64809">
        <ele>2574.09</ele>
        <time>2022-10-08T12:53:12Z</time>
      </trkpt>
      <trkpt lat="44.48488" lon="6.64813">
        <ele>2572.58</ele>
        <time>2022-10-08T12:53:13Z</time>
      </trkpt>
      <trkpt lat="44.48483" lon="6.64817">
        <ele>2572.55</ele>
        <time>2022-10-08T12:53:14Z</time>
      </trkpt>
      <trkpt lat="44.48479" lon="6.64821">
        <ele>2572.55</ele>
        <time>2022-10-08T12:53:15Z</time>
      </trkpt>
      <trkpt lat="44.48474" lon="6.64827">
        <ele>2570.39</ele>
        <time>2022-10-08T12:53:16Z</time>
      </trkpt>
      <trkpt lat="44.48469" lon="6.64833">
        <ele>2570.4</ele>
        <time>2022-10-08T12:53:17Z</time>
      </trkpt>
      <trkpt lat="44.48451" lon="6.64854">
        <ele>2567.87</ele>
        <time>2022-10-08T12:53:21Z</time>
      </trkpt>
      <trkpt lat="44.48447" lon="6.64858">
        <ele>2567.88</ele>
        <time>2022-10-08T12:53:22Z</time>
      </trkpt>
      <trkpt lat="44.48431" lon="6.64866">
        <ele>2565.74</ele>
        <time>2022-10-08T12:53:25Z</time>
      </trkpt>
      <trkpt lat="44.484" lon="6.64876">
        <ele>2562.45</ele>
        <time>2022-10-08T12:53:30Z</time>
      </trkpt>
      <trkpt lat="44.48394" lon="6.64877">
        <ele>2562.45</ele>
        <time>2022-10-08T12:53:31Z</time>
      </trkpt>
      <trkpt lat="44.48383" lon="6.6488">
        <ele>2561.12</ele>
        <time>2022-10-08T12:53:33Z</time>
      </trkpt>
      <trkpt lat="44.48373" lon="6.64881">
        <ele>2559.58</ele>
        <time>2022-10-08T12:53:35Z</time>
      </trkpt>
      <trkpt lat="44.48362" lon="6.6488">
        <ele>2558.49</ele>
        <time>2022-10-08T12:53:37Z</time>
      </trkpt>
      <trkpt lat="44.48341" lon="6.64876">
        <ele>2556.12</ele>
        <time>2022-10-08T12:53:41Z</time>
      </trkpt>
      <trkpt lat="44.48331" lon="6.64874">
        <ele>2554.56</ele>
        <time>2022-10-08T12:53:43Z</time>
      </trkpt>
      <trkpt lat="44.4832" lon="6.64871">
        <ele>2553.33</ele>
        <time>2022-10-08T12:53:45Z</time>
      </trkpt>
      <trkpt lat="44.48291" lon="6.64861">
        <ele>2549.38</ele>
        <time>2022-10-08T12:53:50Z</time>
      </trkpt>
      <trkpt lat="44.48284" lon="6.64858">
        <ele>2549.37</ele>
        <time>2022-10-08T12:53:51Z</time>
      </trkpt>
      <trkpt lat="44.48276" lon="6.64856">
        <ele>2548.22</ele>
        <time>2022-10-08T12:53:52Z</time>
      </trkpt>
      <trkpt lat="44.48241" lon="6.64851">
        <ele>2545.54</ele>
        <time>2022-10-08T12:53:57Z</time>
      </trkpt>
      <trkpt lat="44.48235" lon="6.64849">
        <ele>2545.55</ele>
        <time>2022-10-08T12:53:58Z</time>
      </trkpt>
      <trkpt lat="44.48229" lon="6.64846">
        <ele>2544.05</ele>
        <time>2022-10-08T12:53:59Z</time>
      </trkpt>
      <trkpt lat="44.48222" lon="6.64844">
        <ele>2544</ele>
        <time>2022-10-08T12:54:00Z</time>
      </trkpt>
      <trkpt lat="44.48181" lon="6.64834">
        <ele>2541.65</ele>
        <time>2022-10-08T12:54:05Z</time>
      </trkpt>
      <trkpt lat="44.48147" lon="6.64831">
        <ele>2538.52</ele>
        <time>2022-10-08T12:54:09Z</time>
      </trkpt>
      <trkpt lat="44.48139" lon="6.64836">
        <ele>2538.47</ele>
        <time>2022-10-08T12:54:10Z</time>
      </trkpt>
      <trkpt lat="44.48133" lon="6.64842">
        <ele>2536.58</ele>
        <time>2022-10-08T12:54:11Z</time>
      </trkpt>
      <trkpt lat="44.48128" lon="6.64849">
        <ele>2535.72</ele>
        <time>2022-10-08T12:54:12Z</time>
      </trkpt>
      <trkpt lat="44.48123" lon="6.64855">
        <ele>2535.67</ele>
        <time>2022-10-08T12:54:13Z</time>
      </trkpt>
      <trkpt lat="44.48119" lon="6.6486">
        <ele>2534.18</ele>
        <time>2022-10-08T12:54:14Z</time>
      </trkpt>
      <trkpt lat="44.48115" lon="6.64862">
        <ele>2534.2</ele>
        <time>2022-10-08T12:54:15Z</time>
      </trkpt>
      <trkpt lat="44.4811" lon="6.64865">
        <ele>2533.31</ele>
        <time>2022-10-08T12:54:16Z</time>
      </trkpt>
      <trkpt lat="44.48095" lon="6.64871">
        <ele>2531.89</ele>
        <time>2022-10-08T12:54:19Z</time>
      </trkpt>
      <trkpt lat="44.4809" lon="6.64873">
        <ele>2530.82</ele>
        <time>2022-10-08T12:54:20Z</time>
      </trkpt>
      <trkpt lat="44.48072" lon="6.64874">
        <ele>2529.1</ele>
        <time>2022-10-08T12:54:23Z</time>
      </trkpt>
      <trkpt lat="44.48053" lon="6.64874">
        <ele>2526.25</ele>
        <time>2022-10-08T12:54:27Z</time>
      </trkpt>
      <trkpt lat="44.4805" lon="6.64874">
        <ele>2525.67</ele>
        <time>2022-10-08T12:54:36Z</time>
      </trkpt>
      <trkpt lat="44.48049" lon="6.64874">
        <ele>2525.7</ele>
        <time>2022-10-08T12:55:13Z</time>
      </trkpt>
      <trkpt lat="44.48043" lon="6.6487">
        <ele>2525.69</ele>
        <time>2022-10-08T12:55:15Z</time>
      </trkpt>
      <trkpt lat="44.48019" lon="6.64831">
        <ele>2522.94</ele>
        <time>2022-10-08T12:55:25Z</time>
      </trkpt>
      <trkpt lat="44.48016" lon="6.64806">
        <ele>2520.44</ele>
        <time>2022-10-08T12:55:30Z</time>
      </trkpt>
      <trkpt lat="44.4801" lon="6.6478">
        <ele>2518.29</ele>
        <time>2022-10-08T12:55:35Z</time>
      </trkpt>
      <trkpt lat="44.48003" lon="6.64752">
        <ele>2517.01</ele>
        <time>2022-10-08T12:55:40Z</time>
      </trkpt>
      <trkpt lat="44.48001" lon="6.64746">
        <ele>2516.97</ele>
        <time>2022-10-08T12:55:41Z</time>
      </trkpt>
      <trkpt lat="44.47998" lon="6.64741">
        <ele>2515.51</ele>
        <time>2022-10-08T12:55:42Z</time>
      </trkpt>
      <trkpt lat="44.47996" lon="6.64736">
        <ele>2515.51</ele>
        <time>2022-10-08T12:55:43Z</time>
      </trkpt>
      <trkpt lat="44.47993" lon="6.6473">
        <ele>2515.48</ele>
        <time>2022-10-08T12:55:44Z</time>
      </trkpt>
      <trkpt lat="44.47991" lon="6.64724">
        <ele>2515.48</ele>
        <time>2022-10-08T12:55:45Z</time>
      </trkpt>
      <trkpt lat="44.4799" lon="6.64718">
        <ele>2514.42</ele>
        <time>2022-10-08T12:55:46Z</time>
      </trkpt>
      <trkpt lat="44.47989" lon="6.64713">
        <ele>2514.4</ele>
        <time>2022-10-08T12:55:47Z</time>
      </trkpt>
      <trkpt lat="44.47988" lon="6.64708">
        <ele>2514.4</ele>
        <time>2022-10-08T12:55:48Z</time>
      </trkpt>
      <trkpt lat="44.47986" lon="6.64704">
        <ele>2513.53</ele>
        <time>2022-10-08T12:55:49Z</time>
      </trkpt>
      <trkpt lat="44.47984" lon="6.647">
        <ele>2513.53</ele>
        <time>2022-10-08T12:55:50Z</time>
      </trkpt>
      <trkpt lat="44.47981" lon="6.64696">
        <ele>2512.69</ele>
        <time>2022-10-08T12:55:51Z</time>
      </trkpt>
      <trkpt lat="44.47978" lon="6.64694">
        <ele>2512.69</ele>
        <time>2022-10-08T12:55:52Z</time>
      </trkpt>
      <trkpt lat="44.47975" lon="6.64692">
        <ele>2511.72</ele>
        <time>2022-10-08T12:55:53Z</time>
      </trkpt>
      <trkpt lat="44.47967" lon="6.64681">
        <ele>2510.65</ele>
        <time>2022-10-08T12:55:56Z</time>
      </trkpt>
      <trkpt lat="44.47966" lon="6.64675">
        <ele>2509.73</ele>
        <time>2022-10-08T12:55:57Z</time>
      </trkpt>
      <trkpt lat="44.47966" lon="6.64669">
        <ele>2509.69</ele>
        <time>2022-10-08T12:55:58Z</time>
      </trkpt>
      <trkpt lat="44.47959" lon="6.64633">
        <ele>2507.63</ele>
        <time>2022-10-08T12:56:04Z</time>
      </trkpt>
      <trkpt lat="44.47956" lon="6.64629">
        <ele>2507.64</ele>
        <time>2022-10-08T12:56:05Z</time>
      </trkpt>
      <trkpt lat="44.47952" lon="6.64627">
        <ele>2506.75</ele>
        <time>2022-10-08T12:56:06Z</time>
      </trkpt>
      <trkpt lat="44.47942" lon="6.64622">
        <ele>2505.41</ele>
        <time>2022-10-08T12:56:08Z</time>
      </trkpt>
      <trkpt lat="44.47938" lon="6.64618">
        <ele>2505.33</ele>
        <time>2022-10-08T12:56:09Z</time>
      </trkpt>
      <trkpt lat="44.47928" lon="6.64609">
        <ele>2504.13</ele>
        <time>2022-10-08T12:56:11Z</time>
      </trkpt>
      <trkpt lat="44.47918" lon="6.646">
        <ele>2502.58</ele>
        <time>2022-10-08T12:56:13Z</time>
      </trkpt>
      <trkpt lat="44.47913" lon="6.64598">
        <ele>2502.56</ele>
        <time>2022-10-08T12:56:14Z</time>
      </trkpt>
      <trkpt lat="44.47907" lon="6.64597">
        <ele>2500.97</ele>
        <time>2022-10-08T12:56:15Z</time>
      </trkpt>
      <trkpt lat="44.47901" lon="6.64597">
        <ele>2500.97</ele>
        <time>2022-10-08T12:56:16Z</time>
      </trkpt>
      <trkpt lat="44.47896" lon="6.64598">
        <ele>2500.07</ele>
        <time>2022-10-08T12:56:17Z</time>
      </trkpt>
      <trkpt lat="44.47891" lon="6.64598">
        <ele>2500.07</ele>
        <time>2022-10-08T12:56:18Z</time>
      </trkpt>
      <trkpt lat="44.47886" lon="6.64597">
        <ele>2499.12</ele>
        <time>2022-10-08T12:56:19Z</time>
      </trkpt>
      <trkpt lat="44.47881" lon="6.64596">
        <ele>2499.15</ele>
        <time>2022-10-08T12:56:20Z</time>
      </trkpt>
      <trkpt lat="44.47877" lon="6.64594">
        <ele>2498.44</ele>
        <time>2022-10-08T12:56:21Z</time>
      </trkpt>
      <trkpt lat="44.47872" lon="6.64592">
        <ele>2497.24</ele>
        <time>2022-10-08T12:56:22Z</time>
      </trkpt>
      <trkpt lat="44.47868" lon="6.64588">
        <ele>2497.18</ele>
        <time>2022-10-08T12:56:23Z</time>
      </trkpt>
      <trkpt lat="44.47863" lon="6.64583">
        <ele>2497.24</ele>
        <time>2022-10-08T12:56:24Z</time>
      </trkpt>
      <trkpt lat="44.47842" lon="6.64548">
        <ele>2494.24</ele>
        <time>2022-10-08T12:56:29Z</time>
      </trkpt>
      <trkpt lat="44.47837" lon="6.64543">
        <ele>2491.88</ele>
        <time>2022-10-08T12:56:30Z</time>
      </trkpt>
      <trkpt lat="44.47832" lon="6.64537">
        <ele>2491.9</ele>
        <time>2022-10-08T12:56:31Z</time>
      </trkpt>
      <trkpt lat="44.47826" lon="6.64531">
        <ele>2491.85</ele>
        <time>2022-10-08T12:56:32Z</time>
      </trkpt>
      <trkpt lat="44.47819" lon="6.64526">
        <ele>2490.8</ele>
        <time>2022-10-08T12:56:33Z</time>
      </trkpt>
      <trkpt lat="44.47811" lon="6.64523">
        <ele>2490.75</ele>
        <time>2022-10-08T12:56:34Z</time>
      </trkpt>
      <trkpt lat="44.47804" lon="6.64521">
        <ele>2489.6</ele>
        <time>2022-10-08T12:56:35Z</time>
      </trkpt>
      <trkpt lat="44.47796" lon="6.64521">
        <ele>2488.83</ele>
        <time>2022-10-08T12:56:36Z</time>
      </trkpt>
      <trkpt lat="44.47789" lon="6.64523">
        <ele>2488.76</ele>
        <time>2022-10-08T12:56:37Z</time>
      </trkpt>
      <trkpt lat="44.47782" lon="6.64526">
        <ele>2487.85</ele>
        <time>2022-10-08T12:56:38Z</time>
      </trkpt>
      <trkpt lat="44.47774" lon="6.6453">
        <ele>2486.81</ele>
        <time>2022-10-08T12:56:39Z</time>
      </trkpt>
      <trkpt lat="44.47766" lon="6.64534">
        <ele>2486.83</ele>
        <time>2022-10-08T12:56:40Z</time>
      </trkpt>
      <trkpt lat="44.47759" lon="6.64539">
        <ele>2486.85</ele>
        <time>2022-10-08T12:56:41Z</time>
      </trkpt>
      <trkpt lat="44.47753" lon="6.64545">
        <ele>2485.13</ele>
        <time>2022-10-08T12:56:42Z</time>
      </trkpt>
      <trkpt lat="44.47747" lon="6.64552">
        <ele>2484.06</ele>
        <time>2022-10-08T12:56:43Z</time>
      </trkpt>
      <trkpt lat="44.47741" lon="6.6456">
        <ele>2484.13</ele>
        <time>2022-10-08T12:56:44Z</time>
      </trkpt>
      <trkpt lat="44.47729" lon="6.64574">
        <ele>2482.58</ele>
        <time>2022-10-08T12:56:46Z</time>
      </trkpt>
      <trkpt lat="44.47722" lon="6.64579">
        <ele>2480.65</ele>
        <time>2022-10-08T12:56:47Z</time>
      </trkpt>
      <trkpt lat="44.47715" lon="6.64583">
        <ele>2480.67</ele>
        <time>2022-10-08T12:56:48Z</time>
      </trkpt>
      <trkpt lat="44.47708" lon="6.64586">
        <ele>2479.49</ele>
        <time>2022-10-08T12:56:49Z</time>
      </trkpt>
      <trkpt lat="44.477" lon="6.64586">
        <ele>2478.27</ele>
        <time>2022-10-08T12:56:50Z</time>
      </trkpt>
      <trkpt lat="44.47693" lon="6.64583">
        <ele>2477.29</ele>
        <time>2022-10-08T12:56:51Z</time>
      </trkpt>
      <trkpt lat="44.47687" lon="6.64579">
        <ele>2477.2</ele>
        <time>2022-10-08T12:56:52Z</time>
      </trkpt>
      <trkpt lat="44.47681" lon="6.64576">
        <ele>2475.46</ele>
        <time>2022-10-08T12:56:53Z</time>
      </trkpt>
      <trkpt lat="44.47676" lon="6.64575">
        <ele>2474.58</ele>
        <time>2022-10-08T12:56:54Z</time>
      </trkpt>
      <trkpt lat="44.4767" lon="6.64577">
        <ele>2474.6</ele>
        <time>2022-10-08T12:56:55Z</time>
      </trkpt>
      <trkpt lat="44.47664" lon="6.64581">
        <ele>2474.47</ele>
        <time>2022-10-08T12:56:56Z</time>
      </trkpt>
      <trkpt lat="44.47659" lon="6.64587">
        <ele>2473</ele>
        <time>2022-10-08T12:56:57Z</time>
      </trkpt>
      <trkpt lat="44.47653" lon="6.64594">
        <ele>2472.92</ele>
        <time>2022-10-08T12:56:58Z</time>
      </trkpt>
      <trkpt lat="44.47641" lon="6.64607">
        <ele>2471.31</ele>
        <time>2022-10-08T12:57:00Z</time>
      </trkpt>
      <trkpt lat="44.47635" lon="6.64612">
        <ele>2471.31</ele>
        <time>2022-10-08T12:57:01Z</time>
      </trkpt>
      <trkpt lat="44.4763" lon="6.64618">
        <ele>2469.3</ele>
        <time>2022-10-08T12:57:02Z</time>
      </trkpt>
      <trkpt lat="44.47626" lon="6.64627">
        <ele>2469.23</ele>
        <time>2022-10-08T12:57:03Z</time>
      </trkpt>
      <trkpt lat="44.47622" lon="6.64638">
        <ele>2467.89</ele>
        <time>2022-10-08T12:57:04Z</time>
      </trkpt>
      <trkpt lat="44.47619" lon="6.64651">
        <ele>2467.9</ele>
        <time>2022-10-08T12:57:05Z</time>
      </trkpt>
      <trkpt lat="44.4761" lon="6.64687">
        <ele>2465.74</ele>
        <time>2022-10-08T12:57:08Z</time>
      </trkpt>
      <trkpt lat="44.47601" lon="6.64718">
        <ele>2463.22</ele>
        <time>2022-10-08T12:57:11Z</time>
      </trkpt>
      <trkpt lat="44.47595" lon="6.64737">
        <ele>2460.58</ele>
        <time>2022-10-08T12:57:13Z</time>
      </trkpt>
      <trkpt lat="44.47592" lon="6.64746">
        <ele>2460.58</ele>
        <time>2022-10-08T12:57:14Z</time>
      </trkpt>
      <trkpt lat="44.47591" lon="6.64756">
        <ele>2459.65</ele>
        <time>2022-10-08T12:57:15Z</time>
      </trkpt>
      <trkpt lat="44.4759" lon="6.64764">
        <ele>2459.62</ele>
        <time>2022-10-08T12:57:16Z</time>
      </trkpt>
      <trkpt lat="44.47589" lon="6.64773">
        <ele>2458.53</ele>
        <time>2022-10-08T12:57:17Z</time>
      </trkpt>
      <trkpt lat="44.47587" lon="6.6478">
        <ele>2457.45</ele>
        <time>2022-10-08T12:57:18Z</time>
      </trkpt>
      <trkpt lat="44.47584" lon="6.64787">
        <ele>2457.52</ele>
        <time>2022-10-08T12:57:19Z</time>
      </trkpt>
      <trkpt lat="44.4758" lon="6.64792">
        <ele>2456.21</ele>
        <time>2022-10-08T12:57:20Z</time>
      </trkpt>
      <trkpt lat="44.47575" lon="6.64797">
        <ele>2455.92</ele>
        <time>2022-10-08T12:57:21Z</time>
      </trkpt>
      <trkpt lat="44.47569" lon="6.648">
        <ele>2455.84</ele>
        <time>2022-10-08T12:57:22Z</time>
      </trkpt>
      <trkpt lat="44.47562" lon="6.64803">
        <ele>2454.48</ele>
        <time>2022-10-08T12:57:23Z</time>
      </trkpt>
      <trkpt lat="44.47555" lon="6.64806">
        <ele>2454.41</ele>
        <time>2022-10-08T12:57:24Z</time>
      </trkpt>
      <trkpt lat="44.47533" lon="6.6481">
        <ele>2451.97</ele>
        <time>2022-10-08T12:57:27Z</time>
      </trkpt>
      <trkpt lat="44.47518" lon="6.64812">
        <ele>2450.29</ele>
        <time>2022-10-08T12:57:29Z</time>
      </trkpt>
      <trkpt lat="44.47496" lon="6.64813">
        <ele>2449.39</ele>
        <time>2022-10-08T12:57:32Z</time>
      </trkpt>
      <trkpt lat="44.47489" lon="6.64812">
        <ele>2447.84</ele>
        <time>2022-10-08T12:57:33Z</time>
      </trkpt>
      <trkpt lat="44.47482" lon="6.6481">
        <ele>2447.82</ele>
        <time>2022-10-08T12:57:34Z</time>
      </trkpt>
      <trkpt lat="44.47475" lon="6.64807">
        <ele>2446.13</ele>
        <time>2022-10-08T12:57:35Z</time>
      </trkpt>
      <trkpt lat="44.47468" lon="6.64804">
        <ele>2446.15</ele>
        <time>2022-10-08T12:57:36Z</time>
      </trkpt>
      <trkpt lat="44.47461" lon="6.64799">
        <ele>2445.26</ele>
        <time>2022-10-08T12:57:37Z</time>
      </trkpt>
      <trkpt lat="44.47454" lon="6.64794">
        <ele>2445.24</ele>
        <time>2022-10-08T12:57:38Z</time>
      </trkpt>
      <trkpt lat="44.47447" lon="6.64788">
        <ele>2444</ele>
        <time>2022-10-08T12:57:39Z</time>
      </trkpt>
      <trkpt lat="44.4744" lon="6.64781">
        <ele>2443.94</ele>
        <time>2022-10-08T12:57:40Z</time>
      </trkpt>
      <trkpt lat="44.47434" lon="6.64775">
        <ele>2442.44</ele>
        <time>2022-10-08T12:57:41Z</time>
      </trkpt>
      <trkpt lat="44.47427" lon="6.6477">
        <ele>2442.47</ele>
        <time>2022-10-08T12:57:42Z</time>
      </trkpt>
      <trkpt lat="44.4742" lon="6.64767">
        <ele>2441.23</ele>
        <time>2022-10-08T12:57:43Z</time>
      </trkpt>
      <trkpt lat="44.47413" lon="6.64764">
        <ele>2441.2</ele>
        <time>2022-10-08T12:57:44Z</time>
      </trkpt>
      <trkpt lat="44.47397" lon="6.6476">
        <ele>2438.19</ele>
        <time>2022-10-08T12:57:46Z</time>
      </trkpt>
      <trkpt lat="44.47389" lon="6.6476">
        <ele>2438.12</ele>
        <time>2022-10-08T12:57:47Z</time>
      </trkpt>
      <trkpt lat="44.47381" lon="6.64762">
        <ele>2435.97</ele>
        <time>2022-10-08T12:57:48Z</time>
      </trkpt>
      <trkpt lat="44.47374" lon="6.64765">
        <ele>2435.14</ele>
        <time>2022-10-08T12:57:49Z</time>
      </trkpt>
      <trkpt lat="44.47365" lon="6.64769">
        <ele>2433.8</ele>
        <time>2022-10-08T12:57:50Z</time>
      </trkpt>
      <trkpt lat="44.47348" lon="6.64776">
        <ele>2432.87</ele>
        <time>2022-10-08T12:57:52Z</time>
      </trkpt>
      <trkpt lat="44.47334" lon="6.64783">
        <ele>2431.64</ele>
        <time>2022-10-08T12:57:54Z</time>
      </trkpt>
      <trkpt lat="44.47314" lon="6.64788">
        <ele>2430.58</ele>
        <time>2022-10-08T12:57:57Z</time>
      </trkpt>
      <trkpt lat="44.47292" lon="6.6479">
        <ele>2428.36</ele>
        <time>2022-10-08T12:58:00Z</time>
      </trkpt>
      <trkpt lat="44.47285" lon="6.64791">
        <ele>2427.01</ele>
        <time>2022-10-08T12:58:01Z</time>
      </trkpt>
      <trkpt lat="44.47277" lon="6.64793">
        <ele>2425.92</ele>
        <time>2022-10-08T12:58:02Z</time>
      </trkpt>
      <trkpt lat="44.47269" lon="6.64797">
        <ele>2426.03</ele>
        <time>2022-10-08T12:58:03Z</time>
      </trkpt>
      <trkpt lat="44.47253" lon="6.64804">
        <ele>2422.42</ele>
        <time>2022-10-08T12:58:05Z</time>
      </trkpt>
      <trkpt lat="44.47245" lon="6.64807">
        <ele>2422.34</ele>
        <time>2022-10-08T12:58:06Z</time>
      </trkpt>
      <trkpt lat="44.4723" lon="6.6481">
        <ele>2420.08</ele>
        <time>2022-10-08T12:58:08Z</time>
      </trkpt>
      <trkpt lat="44.47216" lon="6.6481">
        <ele>2419.33</ele>
        <time>2022-10-08T12:58:10Z</time>
      </trkpt>
      <trkpt lat="44.47209" lon="6.64812">
        <ele>2419.33</ele>
        <time>2022-10-08T12:58:11Z</time>
      </trkpt>
      <trkpt lat="44.47196" lon="6.64815">
        <ele>2417.53</ele>
        <time>2022-10-08T12:58:13Z</time>
      </trkpt>
      <trkpt lat="44.4719" lon="6.64815">
        <ele>2417.46</ele>
        <time>2022-10-08T12:58:14Z</time>
      </trkpt>
      <trkpt lat="44.47184" lon="6.64815">
        <ele>2416.17</ele>
        <time>2022-10-08T12:58:15Z</time>
      </trkpt>
      <trkpt lat="44.47179" lon="6.64815">
        <ele>2416.16</ele>
        <time>2022-10-08T12:58:16Z</time>
      </trkpt>
      <trkpt lat="44.47175" lon="6.64816">
        <ele>2414.93</ele>
        <time>2022-10-08T12:58:17Z</time>
      </trkpt>
      <trkpt lat="44.47172" lon="6.64819">
        <ele>2415</ele>
        <time>2022-10-08T12:58:18Z</time>
      </trkpt>
      <trkpt lat="44.4717" lon="6.64823">
        <ele>2414.95</ele>
        <time>2022-10-08T12:58:19Z</time>
      </trkpt>
      <trkpt lat="44.47169" lon="6.64826">
        <ele>2414.93</ele>
        <time>2022-10-08T12:58:20Z</time>
      </trkpt>
      <trkpt lat="44.47169" lon="6.64829">
        <ele>2414.92</ele>
        <time>2022-10-08T12:58:21Z</time>
      </trkpt>
      <trkpt lat="44.47169" lon="6.64829">
        <ele>2413.47</ele>
        <time>2022-10-08T12:58:23Z</time>
      </trkpt>
      <trkpt lat="44.47168" lon="6.6483">
        <ele>2413.6</ele>
        <time>2022-10-08T12:58:49Z</time>
      </trkpt>
      <trkpt lat="44.47169" lon="6.6483">
        <ele>2413.27</ele>
        <time>2022-10-08T13:00:05Z</time>
      </trkpt>
      <trkpt lat="44.4717" lon="6.64831">
        <ele>2412.98</ele>
        <time>2022-10-08T13:01:16Z</time>
      </trkpt>
      <trkpt lat="44.4717" lon="6.6483">
        <ele>2412.68</ele>
        <time>2022-10-08T13:02:30Z</time>
      </trkpt>
      <trkpt lat="44.47171" lon="6.64829">
        <ele>2412.4</ele>
        <time>2022-10-08T13:03:45Z</time>
      </trkpt>
      <trkpt lat="44.4717" lon="6.6483">
        <ele>2412.19</ele>
        <time>2022-10-08T13:04:45Z</time>
      </trkpt>
      <trkpt lat="44.4717" lon="6.64831">
        <ele>2412.16</ele>
        <time>2022-10-08T13:04:52Z</time>
      </trkpt>
      <trkpt lat="44.47172" lon="6.64833">
        <ele>2412.18</ele>
        <time>2022-10-08T13:04:53Z</time>
      </trkpt>
      <trkpt lat="44.47174" lon="6.64835">
        <ele>2412.15</ele>
        <time>2022-10-08T13:04:54Z</time>
      </trkpt>
      <trkpt lat="44.47178" lon="6.64837">
        <ele>2412.15</ele>
        <time>2022-10-08T13:04:55Z</time>
      </trkpt>
      <trkpt lat="44.47182" lon="6.64839">
        <ele>2412.15</ele>
        <time>2022-10-08T13:04:56Z</time>
      </trkpt>
      <trkpt lat="44.47187" lon="6.6484">
        <ele>2412.14</ele>
        <time>2022-10-08T13:04:57Z</time>
      </trkpt>
      <trkpt lat="44.47212" lon="6.6484">
        <ele>2410.01</ele>
        <time>2022-10-08T13:05:02Z</time>
      </trkpt>
      <trkpt lat="44.4723" lon="6.6484">
        <ele>2408.67</ele>
        <time>2022-10-08T13:05:06Z</time>
      </trkpt>
      <trkpt lat="44.47235" lon="6.64841">
        <ele>2407.77</ele>
        <time>2022-10-08T13:05:07Z</time>
      </trkpt>
      <trkpt lat="44.47254" lon="6.64847">
        <ele>2407.64</ele>
        <time>2022-10-08T13:05:11Z</time>
      </trkpt>
      <trkpt lat="44.47258" lon="6.64848">
        <ele>2405.94</ele>
        <time>2022-10-08T13:05:12Z</time>
      </trkpt>
      <trkpt lat="44.47263" lon="6.64847">
        <ele>2405.93</ele>
        <time>2022-10-08T13:05:13Z</time>
      </trkpt>
      <trkpt lat="44.47268" lon="6.64845">
        <ele>2404.73</ele>
        <time>2022-10-08T13:05:14Z</time>
      </trkpt>
      <trkpt lat="44.47273" lon="6.64844">
        <ele>2403.87</ele>
        <time>2022-10-08T13:05:15Z</time>
      </trkpt>
      <trkpt lat="44.47278" lon="6.64843">
        <ele>2403.83</ele>
        <time>2022-10-08T13:05:16Z</time>
      </trkpt>
      <trkpt lat="44.47283" lon="6.64843">
        <ele>2403.85</ele>
        <time>2022-10-08T13:05:17Z</time>
      </trkpt>
      <trkpt lat="44.47288" lon="6.64843">
        <ele>2403.83</ele>
        <time>2022-10-08T13:05:18Z</time>
      </trkpt>
      <trkpt lat="44.47294" lon="6.64845">
        <ele>2402.4</ele>
        <time>2022-10-08T13:05:19Z</time>
      </trkpt>
      <trkpt lat="44.473" lon="6.64848">
        <ele>2402.78</ele>
        <time>2022-10-08T13:05:20Z</time>
      </trkpt>
      <trkpt lat="44.47306" lon="6.64851">
        <ele>2401.59</ele>
        <time>2022-10-08T13:05:21Z</time>
      </trkpt>
      <trkpt lat="44.47316" lon="6.64857">
        <ele>2400.39</ele>
        <time>2022-10-08T13:05:23Z</time>
      </trkpt>
      <trkpt lat="44.47322" lon="6.64859">
        <ele>2400.39</ele>
        <time>2022-10-08T13:05:24Z</time>
      </trkpt>
      <trkpt lat="44.47341" lon="6.64864">
        <ele>2398.88</ele>
        <time>2022-10-08T13:05:27Z</time>
      </trkpt>
      <trkpt lat="44.47353" lon="6.64863">
        <ele>2397.02</ele>
        <time>2022-10-08T13:05:29Z</time>
      </trkpt>
      <trkpt lat="44.47359" lon="6.64862">
        <ele>2396.99</ele>
        <time>2022-10-08T13:05:30Z</time>
      </trkpt>
      <trkpt lat="44.47365" lon="6.6486">
        <ele>2396.18</ele>
        <time>2022-10-08T13:05:31Z</time>
      </trkpt>
      <trkpt lat="44.47371" lon="6.6486">
        <ele>2396.16</ele>
        <time>2022-10-08T13:05:32Z</time>
      </trkpt>
      <trkpt lat="44.47389" lon="6.64861">
        <ele>2393.85</ele>
        <time>2022-10-08T13:05:35Z</time>
      </trkpt>
      <trkpt lat="44.47402" lon="6.64865">
        <ele>2392.88</ele>
        <time>2022-10-08T13:05:37Z</time>
      </trkpt>
      <trkpt lat="44.47408" lon="6.64868">
        <ele>2391.66</ele>
        <time>2022-10-08T13:05:38Z</time>
      </trkpt>
      <trkpt lat="44.47414" lon="6.64872">
        <ele>2391.66</ele>
        <time>2022-10-08T13:05:39Z</time>
      </trkpt>
      <trkpt lat="44.47419" lon="6.64877">
        <ele>2391.68</ele>
        <time>2022-10-08T13:05:40Z</time>
      </trkpt>
      <trkpt lat="44.47423" lon="6.64883">
        <ele>2390.6</ele>
        <time>2022-10-08T13:05:41Z</time>
      </trkpt>
      <trkpt lat="44.47428" lon="6.64889">
        <ele>2389.45</ele>
        <time>2022-10-08T13:05:42Z</time>
      </trkpt>
      <trkpt lat="44.47433" lon="6.64893">
        <ele>2389.39</ele>
        <time>2022-10-08T13:05:43Z</time>
      </trkpt>
      <trkpt lat="44.47439" lon="6.64898">
        <ele>2389.3</ele>
        <time>2022-10-08T13:05:44Z</time>
      </trkpt>
      <trkpt lat="44.47445" lon="6.64903">
        <ele>2388.8</ele>
        <time>2022-10-08T13:05:45Z</time>
      </trkpt>
      <trkpt lat="44.47451" lon="6.64908">
        <ele>2387.56</ele>
        <time>2022-10-08T13:05:46Z</time>
      </trkpt>
      <trkpt lat="44.47456" lon="6.64915">
        <ele>2386.53</ele>
        <time>2022-10-08T13:05:47Z</time>
      </trkpt>
      <trkpt lat="44.47461" lon="6.64921">
        <ele>2386.52</ele>
        <time>2022-10-08T13:05:48Z</time>
      </trkpt>
      <trkpt lat="44.47466" lon="6.64926">
        <ele>2385.3</ele>
        <time>2022-10-08T13:05:49Z</time>
      </trkpt>
      <trkpt lat="44.47471" lon="6.64931">
        <ele>2385.29</ele>
        <time>2022-10-08T13:05:50Z</time>
      </trkpt>
      <trkpt lat="44.47477" lon="6.64934">
        <ele>2384.25</ele>
        <time>2022-10-08T13:05:51Z</time>
      </trkpt>
      <trkpt lat="44.47483" lon="6.64937">
        <ele>2384.2</ele>
        <time>2022-10-08T13:05:52Z</time>
      </trkpt>
      <trkpt lat="44.4749" lon="6.64939">
        <ele>2383.16</ele>
        <time>2022-10-08T13:05:53Z</time>
      </trkpt>
      <trkpt lat="44.47497" lon="6.64942">
        <ele>2383.16</ele>
        <time>2022-10-08T13:05:54Z</time>
      </trkpt>
      <trkpt lat="44.47503" lon="6.64945">
        <ele>2381.59</ele>
        <time>2022-10-08T13:05:55Z</time>
      </trkpt>
      <trkpt lat="44.4751" lon="6.64949">
        <ele>2380.77</ele>
        <time>2022-10-08T13:05:56Z</time>
      </trkpt>
      <trkpt lat="44.47522" lon="6.64956">
        <ele>2379.93</ele>
        <time>2022-10-08T13:05:58Z</time>
      </trkpt>
      <trkpt lat="44.47541" lon="6.64966">
        <ele>2378.15</ele>
        <time>2022-10-08T13:06:01Z</time>
      </trkpt>
      <trkpt lat="44.4756" lon="6.64975">
        <ele>2375.86</ele>
        <time>2022-10-08T13:06:04Z</time>
      </trkpt>
      <trkpt lat="44.47567" lon="6.64977">
        <ele>2375.79</ele>
        <time>2022-10-08T13:06:05Z</time>
      </trkpt>
      <trkpt lat="44.47574" lon="6.64979">
        <ele>2375.81</ele>
        <time>2022-10-08T13:06:06Z</time>
      </trkpt>
      <trkpt lat="44.4758" lon="6.64982">
        <ele>2374.4</ele>
        <time>2022-10-08T13:06:07Z</time>
      </trkpt>
      <trkpt lat="44.47586" lon="6.64986">
        <ele>2374.4</ele>
        <time>2022-10-08T13:06:08Z</time>
      </trkpt>
      <trkpt lat="44.47592" lon="6.6499">
        <ele>2373.31</ele>
        <time>2022-10-08T13:06:09Z</time>
      </trkpt>
      <trkpt lat="44.47597" lon="6.64994">
        <ele>2372.33</ele>
        <time>2022-10-08T13:06:10Z</time>
      </trkpt>
      <trkpt lat="44.47602" lon="6.64999">
        <ele>2372.26</ele>
        <time>2022-10-08T13:06:11Z</time>
      </trkpt>
      <trkpt lat="44.47608" lon="6.65002">
        <ele>2371.49</ele>
        <time>2022-10-08T13:06:12Z</time>
      </trkpt>
      <trkpt lat="44.47613" lon="6.65004">
        <ele>2371.43</ele>
        <time>2022-10-08T13:06:13Z</time>
      </trkpt>
      <trkpt lat="44.47618" lon="6.65005">
        <ele>2370.26</ele>
        <time>2022-10-08T13:06:14Z</time>
      </trkpt>
      <trkpt lat="44.47623" lon="6.65004">
        <ele>2370.26</ele>
        <time>2022-10-08T13:06:15Z</time>
      </trkpt>
      <trkpt lat="44.47628" lon="6.65002">
        <ele>2370.21</ele>
        <time>2022-10-08T13:06:16Z</time>
      </trkpt>
      <trkpt lat="44.47634" lon="6.64998">
        <ele>2368.81</ele>
        <time>2022-10-08T13:06:17Z</time>
      </trkpt>
      <trkpt lat="44.47639" lon="6.64993">
        <ele>2368.76</ele>
        <time>2022-10-08T13:06:18Z</time>
      </trkpt>
      <trkpt lat="44.47645" lon="6.64987">
        <ele>2367.63</ele>
        <time>2022-10-08T13:06:19Z</time>
      </trkpt>
      <trkpt lat="44.4765" lon="6.64983">
        <ele>2367.64</ele>
        <time>2022-10-08T13:06:20Z</time>
      </trkpt>
      <trkpt lat="44.4766" lon="6.64975">
        <ele>2366.41</ele>
        <time>2022-10-08T13:06:22Z</time>
      </trkpt>
      <trkpt lat="44.47666" lon="6.64971">
        <ele>2365.11</ele>
        <time>2022-10-08T13:06:23Z</time>
      </trkpt>
      <trkpt lat="44.47671" lon="6.64969">
        <ele>2364.02</ele>
        <time>2022-10-08T13:06:24Z</time>
      </trkpt>
      <trkpt lat="44.47677" lon="6.64968">
        <ele>2364.01</ele>
        <time>2022-10-08T13:06:25Z</time>
      </trkpt>
      <trkpt lat="44.47683" lon="6.64969">
        <ele>2362.91</ele>
        <time>2022-10-08T13:06:26Z</time>
      </trkpt>
      <trkpt lat="44.47689" lon="6.64971">
        <ele>2361.84</ele>
        <time>2022-10-08T13:06:27Z</time>
      </trkpt>
      <trkpt lat="44.47694" lon="6.64974">
        <ele>2361.82</ele>
        <time>2022-10-08T13:06:28Z</time>
      </trkpt>
      <trkpt lat="44.47699" lon="6.64977">
        <ele>2360.82</ele>
        <time>2022-10-08T13:06:29Z</time>
      </trkpt>
      <trkpt lat="44.47702" lon="6.64981">
        <ele>2360.82</ele>
        <time>2022-10-08T13:06:30Z</time>
      </trkpt>
      <trkpt lat="44.47705" lon="6.64986">
        <ele>2359.34</ele>
        <time>2022-10-08T13:06:31Z</time>
      </trkpt>
      <trkpt lat="44.47708" lon="6.64991">
        <ele>2359.34</ele>
        <time>2022-10-08T13:06:32Z</time>
      </trkpt>
      <trkpt lat="44.47711" lon="6.64995">
        <ele>2359.37</ele>
        <time>2022-10-08T13:06:33Z</time>
      </trkpt>
      <trkpt lat="44.47714" lon="6.64999">
        <ele>2359.32</ele>
        <time>2022-10-08T13:06:34Z</time>
      </trkpt>
      <trkpt lat="44.47717" lon="6.65002">
        <ele>2357.97</ele>
        <time>2022-10-08T13:06:35Z</time>
      </trkpt>
      <trkpt lat="44.4772" lon="6.65004">
        <ele>2357.97</ele>
        <time>2022-10-08T13:06:36Z</time>
      </trkpt>
      <trkpt lat="44.47736" lon="6.65024">
        <ele>2356.09</ele>
        <time>2022-10-08T13:06:42Z</time>
      </trkpt>
      <trkpt lat="44.47762" lon="6.65065">
        <ele>2352.83</ele>
        <time>2022-10-08T13:06:53Z</time>
      </trkpt>
      <trkpt lat="44.47765" lon="6.65068">
        <ele>2352.83</ele>
        <time>2022-10-08T13:06:54Z</time>
      </trkpt>
      <trkpt lat="44.47769" lon="6.65071">
        <ele>2352.01</ele>
        <time>2022-10-08T13:06:55Z</time>
      </trkpt>
      <trkpt lat="44.47772" lon="6.65074">
        <ele>2352.01</ele>
        <time>2022-10-08T13:06:56Z</time>
      </trkpt>
      <trkpt lat="44.47775" lon="6.65076">
        <ele>2351.96</ele>
        <time>2022-10-08T13:06:57Z</time>
      </trkpt>
      <trkpt lat="44.47778" lon="6.65079">
        <ele>2351.93</ele>
        <time>2022-10-08T13:06:58Z</time>
      </trkpt>
      <trkpt lat="44.47779" lon="6.65083">
        <ele>2351.08</ele>
        <time>2022-10-08T13:06:59Z</time>
      </trkpt>
      <trkpt lat="44.4778" lon="6.65087">
        <ele>2351.05</ele>
        <time>2022-10-08T13:07:00Z</time>
      </trkpt>
      <trkpt lat="44.4778" lon="6.65092">
        <ele>2349.96</ele>
        <time>2022-10-08T13:07:01Z</time>
      </trkpt>
      <trkpt lat="44.47778" lon="6.65096">
        <ele>2349.95</ele>
        <time>2022-10-08T13:07:02Z</time>
      </trkpt>
      <trkpt lat="44.47775" lon="6.651">
        <ele>2349.91</ele>
        <time>2022-10-08T13:07:03Z</time>
      </trkpt>
      <trkpt lat="44.47772" lon="6.65101">
        <ele>2349.91</ele>
        <time>2022-10-08T13:07:04Z</time>
      </trkpt>
      <trkpt lat="44.47768" lon="6.65101">
        <ele>2348.89</ele>
        <time>2022-10-08T13:07:05Z</time>
      </trkpt>
      <trkpt lat="44.47764" lon="6.651">
        <ele>2348.89</ele>
        <time>2022-10-08T13:07:06Z</time>
      </trkpt>
      <trkpt lat="44.47742" lon="6.65096">
        <ele>2347.04</ele>
        <time>2022-10-08T13:07:11Z</time>
      </trkpt>
      <trkpt lat="44.47706" lon="6.65103">
        <ele>2343.09</ele>
        <time>2022-10-08T13:07:20Z</time>
      </trkpt>
      <trkpt lat="44.47703" lon="6.65102">
        <ele>2343.06</ele>
        <time>2022-10-08T13:07:21Z</time>
      </trkpt>
      <trkpt lat="44.47699" lon="6.65101">
        <ele>2343.09</ele>
        <time>2022-10-08T13:07:22Z</time>
      </trkpt>
      <trkpt lat="44.47694" lon="6.65099">
        <ele>2342.13</ele>
        <time>2022-10-08T13:07:23Z</time>
      </trkpt>
      <trkpt lat="44.47687" lon="6.65092">
        <ele>2341.21</ele>
        <time>2022-10-08T13:07:25Z</time>
      </trkpt>
      <trkpt lat="44.47684" lon="6.65087">
        <ele>2341.17</ele>
        <time>2022-10-08T13:07:26Z</time>
      </trkpt>
      <trkpt lat="44.47681" lon="6.65082">
        <ele>2339.96</ele>
        <time>2022-10-08T13:07:27Z</time>
      </trkpt>
      <trkpt lat="44.47678" lon="6.65079">
        <ele>2339.96</ele>
        <time>2022-10-08T13:07:28Z</time>
      </trkpt>
      <trkpt lat="44.47674" lon="6.65078">
        <ele>2339.96</ele>
        <time>2022-10-08T13:07:29Z</time>
      </trkpt>
      <trkpt lat="44.47669" lon="6.65079">
        <ele>2339.97</ele>
        <time>2022-10-08T13:07:30Z</time>
      </trkpt>
      <trkpt lat="44.47665" lon="6.6508">
        <ele>2338.84</ele>
        <time>2022-10-08T13:07:31Z</time>
      </trkpt>
      <trkpt lat="44.47658" lon="6.65081">
        <ele>2338.8</ele>
        <time>2022-10-08T13:07:33Z</time>
      </trkpt>
      <trkpt lat="44.47654" lon="6.65079">
        <ele>2337.69</ele>
        <time>2022-10-08T13:07:34Z</time>
      </trkpt>
      <trkpt lat="44.47649" lon="6.65077">
        <ele>2336.87</ele>
        <time>2022-10-08T13:07:35Z</time>
      </trkpt>
      <trkpt lat="44.47645" lon="6.65074">
        <ele>2336.86</ele>
        <time>2022-10-08T13:07:36Z</time>
      </trkpt>
      <trkpt lat="44.4764" lon="6.65072">
        <ele>2336.86</ele>
        <time>2022-10-08T13:07:37Z</time>
      </trkpt>
      <trkpt lat="44.47635" lon="6.6507">
        <ele>2335.94</ele>
        <time>2022-10-08T13:07:38Z</time>
      </trkpt>
      <trkpt lat="44.47613" lon="6.65066">
        <ele>2333.98</ele>
        <time>2022-10-08T13:07:42Z</time>
      </trkpt>
      <trkpt lat="44.47602" lon="6.65067">
        <ele>2333.08</ele>
        <time>2022-10-08T13:07:44Z</time>
      </trkpt>
      <trkpt lat="44.47597" lon="6.65069">
        <ele>2333.13</ele>
        <time>2022-10-08T13:07:45Z</time>
      </trkpt>
      <trkpt lat="44.47592" lon="6.65071">
        <ele>2333.12</ele>
        <time>2022-10-08T13:07:46Z</time>
      </trkpt>
      <trkpt lat="44.47588" lon="6.65075">
        <ele>2331.83</ele>
        <time>2022-10-08T13:07:47Z</time>
      </trkpt>
      <trkpt lat="44.47583" lon="6.65078">
        <ele>2330.78</ele>
        <time>2022-10-08T13:07:48Z</time>
      </trkpt>
      <trkpt lat="44.47574" lon="6.65083">
        <ele>2329.95</ele>
        <time>2022-10-08T13:07:50Z</time>
      </trkpt>
      <trkpt lat="44.4757" lon="6.65084">
        <ele>2328.62</ele>
        <time>2022-10-08T13:07:51Z</time>
      </trkpt>
      <trkpt lat="44.47565" lon="6.65084">
        <ele>2328.57</ele>
        <time>2022-10-08T13:07:52Z</time>
      </trkpt>
      <trkpt lat="44.4756" lon="6.65083">
        <ele>2327.69</ele>
        <time>2022-10-08T13:07:53Z</time>
      </trkpt>
      <trkpt lat="44.47555" lon="6.65082">
        <ele>2327.63</ele>
        <time>2022-10-08T13:07:54Z</time>
      </trkpt>
      <trkpt lat="44.47536" lon="6.65077">
        <ele>2325.52</ele>
        <time>2022-10-08T13:07:57Z</time>
      </trkpt>
      <trkpt lat="44.47529" lon="6.65076">
        <ele>2324.45</ele>
        <time>2022-10-08T13:07:58Z</time>
      </trkpt>
      <trkpt lat="44.47509" lon="6.65077">
        <ele>2322.93</ele>
        <time>2022-10-08T13:08:01Z</time>
      </trkpt>
      <trkpt lat="44.47496" lon="6.65078">
        <ele>2321.37</ele>
        <time>2022-10-08T13:08:03Z</time>
      </trkpt>
      <trkpt lat="44.47491" lon="6.6508">
        <ele>2320.21</ele>
        <time>2022-10-08T13:08:04Z</time>
      </trkpt>
      <trkpt lat="44.47485" lon="6.65083">
        <ele>2320.21</ele>
        <time>2022-10-08T13:08:05Z</time>
      </trkpt>
      <trkpt lat="44.4748" lon="6.65087">
        <ele>2318.63</ele>
        <time>2022-10-08T13:08:06Z</time>
      </trkpt>
      <trkpt lat="44.47474" lon="6.65091">
        <ele>2318.63</ele>
        <time>2022-10-08T13:08:07Z</time>
      </trkpt>
      <trkpt lat="44.47469" lon="6.65094">
        <ele>2318.64</ele>
        <time>2022-10-08T13:08:08Z</time>
      </trkpt>
      <trkpt lat="44.47462" lon="6.65096">
        <ele>2317.62</ele>
        <time>2022-10-08T13:08:09Z</time>
      </trkpt>
      <trkpt lat="44.47455" lon="6.65097">
        <ele>2317.62</ele>
        <time>2022-10-08T13:08:10Z</time>
      </trkpt>
      <trkpt lat="44.47448" lon="6.65098">
        <ele>2315.91</ele>
        <time>2022-10-08T13:08:11Z</time>
      </trkpt>
      <trkpt lat="44.47442" lon="6.65097">
        <ele>2315.91</ele>
        <time>2022-10-08T13:08:12Z</time>
      </trkpt>
      <trkpt lat="44.47429" lon="6.65095">
        <ele>2313.93</ele>
        <time>2022-10-08T13:08:14Z</time>
      </trkpt>
      <trkpt lat="44.47415" lon="6.65092">
        <ele>2312.95</ele>
        <time>2022-10-08T13:08:16Z</time>
      </trkpt>
      <trkpt lat="44.47409" lon="6.65094">
        <ele>2311.54</ele>
        <time>2022-10-08T13:08:17Z</time>
      </trkpt>
      <trkpt lat="44.47403" lon="6.65097">
        <ele>2311.54</ele>
        <time>2022-10-08T13:08:18Z</time>
      </trkpt>
      <trkpt lat="44.47397" lon="6.651">
        <ele>2310.86</ele>
        <time>2022-10-08T13:08:19Z</time>
      </trkpt>
      <trkpt lat="44.47391" lon="6.65101">
        <ele>2309.94</ele>
        <time>2022-10-08T13:08:20Z</time>
      </trkpt>
      <trkpt lat="44.47385" lon="6.65101">
        <ele>2309.87</ele>
        <time>2022-10-08T13:08:21Z</time>
      </trkpt>
      <trkpt lat="44.47379" lon="6.651">
        <ele>2308.58</ele>
        <time>2022-10-08T13:08:22Z</time>
      </trkpt>
      <trkpt lat="44.47373" lon="6.651">
        <ele>2307.73</ele>
        <time>2022-10-08T13:08:23Z</time>
      </trkpt>
      <trkpt lat="44.47367" lon="6.651">
        <ele>2307.67</ele>
        <time>2022-10-08T13:08:24Z</time>
      </trkpt>
      <trkpt lat="44.4736" lon="6.65102">
        <ele>2307.66</ele>
        <time>2022-10-08T13:08:25Z</time>
      </trkpt>
      <trkpt lat="44.47353" lon="6.65105">
        <ele>2305.9</ele>
        <time>2022-10-08T13:08:26Z</time>
      </trkpt>
      <trkpt lat="44.47347" lon="6.65108">
        <ele>2305.91</ele>
        <time>2022-10-08T13:08:27Z</time>
      </trkpt>
      <trkpt lat="44.47341" lon="6.65111">
        <ele>2303.76</ele>
        <time>2022-10-08T13:08:28Z</time>
      </trkpt>
      <trkpt lat="44.47335" lon="6.65115">
        <ele>2303.77</ele>
        <time>2022-10-08T13:08:29Z</time>
      </trkpt>
      <trkpt lat="44.4733" lon="6.6512">
        <ele>2302.57</ele>
        <time>2022-10-08T13:08:30Z</time>
      </trkpt>
      <trkpt lat="44.47325" lon="6.65126">
        <ele>2302.5</ele>
        <time>2022-10-08T13:08:31Z</time>
      </trkpt>
      <trkpt lat="44.4732" lon="6.65132">
        <ele>2301.1</ele>
        <time>2022-10-08T13:08:32Z</time>
      </trkpt>
      <trkpt lat="44.4731" lon="6.65143">
        <ele>2300.27</ele>
        <time>2022-10-08T13:08:34Z</time>
      </trkpt>
      <trkpt lat="44.47305" lon="6.65148">
        <ele>2299.45</ele>
        <time>2022-10-08T13:08:35Z</time>
      </trkpt>
      <trkpt lat="44.473" lon="6.65151">
        <ele>2299.43</ele>
        <time>2022-10-08T13:08:36Z</time>
      </trkpt>
      <trkpt lat="44.47294" lon="6.65153">
        <ele>2298</ele>
        <time>2022-10-08T13:08:37Z</time>
      </trkpt>
      <trkpt lat="44.47289" lon="6.65152">
        <ele>2298.01</ele>
        <time>2022-10-08T13:08:38Z</time>
      </trkpt>
      <trkpt lat="44.47284" lon="6.6515">
        <ele>2297.19</ele>
        <time>2022-10-08T13:08:39Z</time>
      </trkpt>
      <trkpt lat="44.4728" lon="6.65147">
        <ele>2297.19</ele>
        <time>2022-10-08T13:08:40Z</time>
      </trkpt>
      <trkpt lat="44.47275" lon="6.65147">
        <ele>2295.59</ele>
        <time>2022-10-08T13:08:41Z</time>
      </trkpt>
      <trkpt lat="44.47272" lon="6.6515">
        <ele>2295.55</ele>
        <time>2022-10-08T13:08:42Z</time>
      </trkpt>
      <trkpt lat="44.47271" lon="6.65154">
        <ele>2294.75</ele>
        <time>2022-10-08T13:08:43Z</time>
      </trkpt>
      <trkpt lat="44.47272" lon="6.6516">
        <ele>2295.23</ele>
        <time>2022-10-08T13:08:44Z</time>
      </trkpt>
      <trkpt lat="44.47276" lon="6.65163">
        <ele>2294.45</ele>
        <time>2022-10-08T13:08:45Z</time>
      </trkpt>
      <trkpt lat="44.47281" lon="6.65166">
        <ele>2294.4</ele>
        <time>2022-10-08T13:08:46Z</time>
      </trkpt>
      <trkpt lat="44.47287" lon="6.65167">
        <ele>2294.4</ele>
        <time>2022-10-08T13:08:47Z</time>
      </trkpt>
      <trkpt lat="44.47305" lon="6.65174">
        <ele>2293.16</ele>
        <time>2022-10-08T13:08:50Z</time>
      </trkpt>
      <trkpt lat="44.47317" lon="6.65178">
        <ele>2291.74</ele>
        <time>2022-10-08T13:08:52Z</time>
      </trkpt>
      <trkpt lat="44.47323" lon="6.65179">
        <ele>2290.75</ele>
        <time>2022-10-08T13:08:53Z</time>
      </trkpt>
      <trkpt lat="44.47329" lon="6.65178">
        <ele>2290.7</ele>
        <time>2022-10-08T13:08:54Z</time>
      </trkpt>
      <trkpt lat="44.47334" lon="6.65174">
        <ele>2289.51</ele>
        <time>2022-10-08T13:08:55Z</time>
      </trkpt>
      <trkpt lat="44.47339" lon="6.65168">
        <ele>2289.33</ele>
        <time>2022-10-08T13:08:56Z</time>
      </trkpt>
      <trkpt lat="44.47343" lon="6.65162">
        <ele>2287.42</ele>
        <time>2022-10-08T13:08:57Z</time>
      </trkpt>
      <trkpt lat="44.47348" lon="6.65157">
        <ele>2287.35</ele>
        <time>2022-10-08T13:08:58Z</time>
      </trkpt>
      <trkpt lat="44.47353" lon="6.65153">
        <ele>2286.36</ele>
        <time>2022-10-08T13:08:59Z</time>
      </trkpt>
      <trkpt lat="44.47358" lon="6.6515">
        <ele>2286.36</ele>
        <time>2022-10-08T13:09:00Z</time>
      </trkpt>
      <trkpt lat="44.47363" lon="6.65147">
        <ele>2284.9</ele>
        <time>2022-10-08T13:09:01Z</time>
      </trkpt>
      <trkpt lat="44.47366" lon="6.65145">
        <ele>2284.89</ele>
        <time>2022-10-08T13:09:02Z</time>
      </trkpt>
      <trkpt lat="44.4737" lon="6.65145">
        <ele>2284.89</ele>
        <time>2022-10-08T13:09:03Z</time>
      </trkpt>
      <trkpt lat="44.47373" lon="6.65146">
        <ele>2284.84</ele>
        <time>2022-10-08T13:09:04Z</time>
      </trkpt>
      <trkpt lat="44.47375" lon="6.65149">
        <ele>2284.01</ele>
        <time>2022-10-08T13:09:05Z</time>
      </trkpt>
      <trkpt lat="44.47375" lon="6.65152">
        <ele>2283.96</ele>
        <time>2022-10-08T13:09:06Z</time>
      </trkpt>
      <trkpt lat="44.47375" lon="6.65155">
        <ele>2283.98</ele>
        <time>2022-10-08T13:09:07Z</time>
      </trkpt>
      <trkpt lat="44.47372" lon="6.65158">
        <ele>2283.04</ele>
        <time>2022-10-08T13:09:08Z</time>
      </trkpt>
      <trkpt lat="44.47368" lon="6.6516">
        <ele>2283.47</ele>
        <time>2022-10-08T13:09:09Z</time>
      </trkpt>
      <trkpt lat="44.47364" lon="6.65162">
        <ele>2282.62</ele>
        <time>2022-10-08T13:09:10Z</time>
      </trkpt>
      <trkpt lat="44.47359" lon="6.65166">
        <ele>2282.61</ele>
        <time>2022-10-08T13:09:11Z</time>
      </trkpt>
      <trkpt lat="44.47356" lon="6.65171">
        <ele>2281.52</ele>
        <time>2022-10-08T13:09:12Z</time>
      </trkpt>
      <trkpt lat="44.47353" lon="6.65177">
        <ele>2281.47</ele>
        <time>2022-10-08T13:09:13Z</time>
      </trkpt>
      <trkpt lat="44.47347" lon="6.65188">
        <ele>2280.37</ele>
        <time>2022-10-08T13:09:15Z</time>
      </trkpt>
      <trkpt lat="44.47344" lon="6.65193">
        <ele>2280.37</ele>
        <time>2022-10-08T13:09:16Z</time>
      </trkpt>
      <trkpt lat="44.47341" lon="6.65197">
        <ele>2279.46</ele>
        <time>2022-10-08T13:09:17Z</time>
      </trkpt>
      <trkpt lat="44.47339" lon="6.65202">
        <ele>2279.41</ele>
        <time>2022-10-08T13:09:18Z</time>
      </trkpt>
      <trkpt lat="44.47339" lon="6.65207">
        <ele>2279.41</ele>
        <time>2022-10-08T13:09:19Z</time>
      </trkpt>
      <trkpt lat="44.47342" lon="6.6521">
        <ele>2277.96</ele>
        <time>2022-10-08T13:09:20Z</time>
      </trkpt>
      <trkpt lat="44.47345" lon="6.65211">
        <ele>2277.9</ele>
        <time>2022-10-08T13:09:21Z</time>
      </trkpt>
      <trkpt lat="44.47349" lon="6.65208">
        <ele>2277.91</ele>
        <time>2022-10-08T13:09:22Z</time>
      </trkpt>
      <trkpt lat="44.47354" lon="6.65203">
        <ele>2277.84</ele>
        <time>2022-10-08T13:09:23Z</time>
      </trkpt>
      <trkpt lat="44.47358" lon="6.65197">
        <ele>2276.86</ele>
        <time>2022-10-08T13:09:24Z</time>
      </trkpt>
      <trkpt lat="44.47367" lon="6.65187">
        <ele>2275.63</ele>
        <time>2022-10-08T13:09:26Z</time>
      </trkpt>
      <trkpt lat="44.47371" lon="6.65184">
        <ele>2275.61</ele>
        <time>2022-10-08T13:09:27Z</time>
      </trkpt>
      <trkpt lat="44.47375" lon="6.65182">
        <ele>2274.49</ele>
        <time>2022-10-08T13:09:28Z</time>
      </trkpt>
      <trkpt lat="44.4741" lon="6.65177">
        <ele>2272.08</ele>
        <time>2022-10-08T13:09:35Z</time>
      </trkpt>
      <trkpt lat="44.47417" lon="6.65179">
        <ele>2271.08</ele>
        <time>2022-10-08T13:09:36Z</time>
      </trkpt>
      <trkpt lat="44.47424" lon="6.65181">
        <ele>2271.07</ele>
        <time>2022-10-08T13:09:37Z</time>
      </trkpt>
      <trkpt lat="44.47447" lon="6.65188">
        <ele>2269.45</ele>
        <time>2022-10-08T13:09:40Z</time>
      </trkpt>
      <trkpt lat="44.47468" lon="6.65195">
        <ele>2266.19</ele>
        <time>2022-10-08T13:09:43Z</time>
      </trkpt>
      <trkpt lat="44.47474" lon="6.65197">
        <ele>2266.13</ele>
        <time>2022-10-08T13:09:44Z</time>
      </trkpt>
      <trkpt lat="44.47502" lon="6.65211">
        <ele>2263</ele>
        <time>2022-10-08T13:09:48Z</time>
      </trkpt>
      <trkpt lat="44.47508" lon="6.65215">
        <ele>2262.97</ele>
        <time>2022-10-08T13:09:49Z</time>
      </trkpt>
      <trkpt lat="44.47519" lon="6.65222">
        <ele>2261.38</ele>
        <time>2022-10-08T13:09:51Z</time>
      </trkpt>
      <trkpt lat="44.47529" lon="6.65229">
        <ele>2259.87</ele>
        <time>2022-10-08T13:09:53Z</time>
      </trkpt>
      <trkpt lat="44.47535" lon="6.65231">
        <ele>2258.53</ele>
        <time>2022-10-08T13:09:54Z</time>
      </trkpt>
      <trkpt lat="44.4754" lon="6.65233">
        <ele>2258.5</ele>
        <time>2022-10-08T13:09:55Z</time>
      </trkpt>
      <trkpt lat="44.47551" lon="6.65237">
        <ele>2256.28</ele>
        <time>2022-10-08T13:09:57Z</time>
      </trkpt>
      <trkpt lat="44.47557" lon="6.65237">
        <ele>2255.61</ele>
        <time>2022-10-08T13:09:58Z</time>
      </trkpt>
      <trkpt lat="44.47562" lon="6.65235">
        <ele>2254.95</ele>
        <time>2022-10-08T13:09:59Z</time>
      </trkpt>
      <trkpt lat="44.47568" lon="6.65233">
        <ele>2254.95</ele>
        <time>2022-10-08T13:10:00Z</time>
      </trkpt>
      <trkpt lat="44.47574" lon="6.65231">
        <ele>2253.78</ele>
        <time>2022-10-08T13:10:01Z</time>
      </trkpt>
      <trkpt lat="44.4758" lon="6.6523">
        <ele>2252.94</ele>
        <time>2022-10-08T13:10:02Z</time>
      </trkpt>
      <trkpt lat="44.47586" lon="6.65229">
        <ele>2252.93</ele>
        <time>2022-10-08T13:10:03Z</time>
      </trkpt>
      <trkpt lat="44.47604" lon="6.65227">
        <ele>2250.83</ele>
        <time>2022-10-08T13:10:06Z</time>
      </trkpt>
      <trkpt lat="44.47609" lon="6.65228">
        <ele>2249.98</ele>
        <time>2022-10-08T13:10:07Z</time>
      </trkpt>
      <trkpt lat="44.47612" lon="6.6523">
        <ele>2249.91</ele>
        <time>2022-10-08T13:10:08Z</time>
      </trkpt>
      <trkpt lat="44.47616" lon="6.65233">
        <ele>2249.91</ele>
        <time>2022-10-08T13:10:09Z</time>
      </trkpt>
      <trkpt lat="44.47618" lon="6.65239">
        <ele>2249.87</ele>
        <time>2022-10-08T13:10:10Z</time>
      </trkpt>
      <trkpt lat="44.4762" lon="6.65245">
        <ele>2248.49</ele>
        <time>2022-10-08T13:10:11Z</time>
      </trkpt>
      <trkpt lat="44.47622" lon="6.65252">
        <ele>2248.52</ele>
        <time>2022-10-08T13:10:12Z</time>
      </trkpt>
      <trkpt lat="44.47625" lon="6.65266">
        <ele>2247.24</ele>
        <time>2022-10-08T13:10:14Z</time>
      </trkpt>
      <trkpt lat="44.47627" lon="6.65273">
        <ele>2247.18</ele>
        <time>2022-10-08T13:10:15Z</time>
      </trkpt>
      <trkpt lat="44.4763" lon="6.65279">
        <ele>2245.61</ele>
        <time>2022-10-08T13:10:16Z</time>
      </trkpt>
      <trkpt lat="44.47633" lon="6.65285">
        <ele>2245.6</ele>
        <time>2022-10-08T13:10:17Z</time>
      </trkpt>
      <trkpt lat="44.47636" lon="6.6529">
        <ele>2244.33</ele>
        <time>2022-10-08T13:10:18Z</time>
      </trkpt>
      <trkpt lat="44.4764" lon="6.65296">
        <ele>2244.29</ele>
        <time>2022-10-08T13:10:19Z</time>
      </trkpt>
      <trkpt lat="44.47644" lon="6.653">
        <ele>2242.94</ele>
        <time>2022-10-08T13:10:20Z</time>
      </trkpt>
      <trkpt lat="44.47648" lon="6.65304">
        <ele>2242.91</ele>
        <time>2022-10-08T13:10:21Z</time>
      </trkpt>
      <trkpt lat="44.47656" lon="6.65313">
        <ele>2241.71</ele>
        <time>2022-10-08T13:10:23Z</time>
      </trkpt>
      <trkpt lat="44.4766" lon="6.65316">
        <ele>2240.62</ele>
        <time>2022-10-08T13:10:24Z</time>
      </trkpt>
      <trkpt lat="44.47665" lon="6.65319">
        <ele>2240.57</ele>
        <time>2022-10-08T13:10:25Z</time>
      </trkpt>
      <trkpt lat="44.4767" lon="6.6532">
        <ele>2240.56</ele>
        <time>2022-10-08T13:10:26Z</time>
      </trkpt>
      <trkpt lat="44.47675" lon="6.6532">
        <ele>2238.83</ele>
        <time>2022-10-08T13:10:27Z</time>
      </trkpt>
      <trkpt lat="44.47681" lon="6.6532">
        <ele>2238.75</ele>
        <time>2022-10-08T13:10:28Z</time>
      </trkpt>
      <trkpt lat="44.47687" lon="6.65319">
        <ele>2237.29</ele>
        <time>2022-10-08T13:10:29Z</time>
      </trkpt>
      <trkpt lat="44.47692" lon="6.65319">
        <ele>2237.27</ele>
        <time>2022-10-08T13:10:30Z</time>
      </trkpt>
      <trkpt lat="44.47698" lon="6.6532">
        <ele>2237.22</ele>
        <time>2022-10-08T13:10:31Z</time>
      </trkpt>
      <trkpt lat="44.47704" lon="6.65322">
        <ele>2235.87</ele>
        <time>2022-10-08T13:10:32Z</time>
      </trkpt>
      <trkpt lat="44.47709" lon="6.65326">
        <ele>2235.86</ele>
        <time>2022-10-08T13:10:33Z</time>
      </trkpt>
      <trkpt lat="44.47715" lon="6.6533">
        <ele>2234.92</ele>
        <time>2022-10-08T13:10:34Z</time>
      </trkpt>
      <trkpt lat="44.47733" lon="6.65343">
        <ele>2233.45</ele>
        <time>2022-10-08T13:10:37Z</time>
      </trkpt>
      <trkpt lat="44.47751" lon="6.65354">
        <ele>2231.34</ele>
        <time>2022-10-08T13:10:40Z</time>
      </trkpt>
      <trkpt lat="44.47756" lon="6.65358">
        <ele>2229.57</ele>
        <time>2022-10-08T13:10:41Z</time>
      </trkpt>
      <trkpt lat="44.4776" lon="6.65362">
        <ele>2229.58</ele>
        <time>2022-10-08T13:10:42Z</time>
      </trkpt>
      <trkpt lat="44.47767" lon="6.65373">
        <ele>2228.62</ele>
        <time>2022-10-08T13:10:44Z</time>
      </trkpt>
      <trkpt lat="44.47771" lon="6.65376">
        <ele>2226.94</ele>
        <time>2022-10-08T13:10:45Z</time>
      </trkpt>
      <trkpt lat="44.47774" lon="6.65378">
        <ele>2226.87</ele>
        <time>2022-10-08T13:10:46Z</time>
      </trkpt>
      <trkpt lat="44.47777" lon="6.65379">
        <ele>2226.01</ele>
        <time>2022-10-08T13:10:47Z</time>
      </trkpt>
      <trkpt lat="44.4778" lon="6.65381">
        <ele>2226.03</ele>
        <time>2022-10-08T13:10:48Z</time>
      </trkpt>
      <trkpt lat="44.47782" lon="6.65384">
        <ele>2225.85</ele>
        <time>2022-10-08T13:10:49Z</time>
      </trkpt>
      <trkpt lat="44.47782" lon="6.65388">
        <ele>2225.77</ele>
        <time>2022-10-08T13:10:50Z</time>
      </trkpt>
      <trkpt lat="44.4778" lon="6.65392">
        <ele>2225.76</ele>
        <time>2022-10-08T13:10:51Z</time>
      </trkpt>
      <trkpt lat="44.47777" lon="6.65394">
        <ele>2224.68</ele>
        <time>2022-10-08T13:10:52Z</time>
      </trkpt>
      <trkpt lat="44.47774" lon="6.65394">
        <ele>2224.62</ele>
        <time>2022-10-08T13:10:53Z</time>
      </trkpt>
      <trkpt lat="44.47771" lon="6.65392">
        <ele>2224.63</ele>
        <time>2022-10-08T13:10:54Z</time>
      </trkpt>
      <trkpt lat="44.47767" lon="6.6539">
        <ele>2224.58</ele>
        <time>2022-10-08T13:10:55Z</time>
      </trkpt>
      <trkpt lat="44.47763" lon="6.65387">
        <ele>2224.58</ele>
        <time>2022-10-08T13:10:56Z</time>
      </trkpt>
      <trkpt lat="44.47759" lon="6.65384">
        <ele>2223.78</ele>
        <time>2022-10-08T13:10:57Z</time>
      </trkpt>
      <trkpt lat="44.47755" lon="6.6538">
        <ele>2222.96</ele>
        <time>2022-10-08T13:10:58Z</time>
      </trkpt>
      <trkpt lat="44.4775" lon="6.65376">
        <ele>2222.96</ele>
        <time>2022-10-08T13:10:59Z</time>
      </trkpt>
      <trkpt lat="44.47745" lon="6.65372">
        <ele>2221.81</ele>
        <time>2022-10-08T13:11:00Z</time>
      </trkpt>
      <trkpt lat="44.47739" lon="6.6537">
        <ele>2221.77</ele>
        <time>2022-10-08T13:11:01Z</time>
      </trkpt>
      <trkpt lat="44.47733" lon="6.65368">
        <ele>2221.76</ele>
        <time>2022-10-08T13:11:02Z</time>
      </trkpt>
      <trkpt lat="44.47711" lon="6.65363">
        <ele>2219.37</ele>
        <time>2022-10-08T13:11:06Z</time>
      </trkpt>
      <trkpt lat="44.47699" lon="6.65361">
        <ele>2218.03</ele>
        <time>2022-10-08T13:11:08Z</time>
      </trkpt>
      <trkpt lat="44.47688" lon="6.6536">
        <ele>2216.81</ele>
        <time>2022-10-08T13:11:10Z</time>
      </trkpt>
      <trkpt lat="44.47677" lon="6.65359">
        <ele>2215.49</ele>
        <time>2022-10-08T13:11:12Z</time>
      </trkpt>
      <trkpt lat="44.47667" lon="6.6536">
        <ele>2214.15</ele>
        <time>2022-10-08T13:11:14Z</time>
      </trkpt>
      <trkpt lat="44.47649" lon="6.65362">
        <ele>2212</ele>
        <time>2022-10-08T13:11:17Z</time>
      </trkpt>
      <trkpt lat="44.47643" lon="6.65361">
        <ele>2211.94</ele>
        <time>2022-10-08T13:11:18Z</time>
      </trkpt>
      <trkpt lat="44.47631" lon="6.65358">
        <ele>2210.22</ele>
        <time>2022-10-08T13:11:20Z</time>
      </trkpt>
      <trkpt lat="44.47625" lon="6.65358">
        <ele>2208.89</ele>
        <time>2022-10-08T13:11:21Z</time>
      </trkpt>
      <trkpt lat="44.47618" lon="6.65359">
        <ele>2207.99</ele>
        <time>2022-10-08T13:11:22Z</time>
      </trkpt>
      <trkpt lat="44.47612" lon="6.6536">
        <ele>2207.92</ele>
        <time>2022-10-08T13:11:23Z</time>
      </trkpt>
      <trkpt lat="44.47606" lon="6.65359">
        <ele>2206.84</ele>
        <time>2022-10-08T13:11:24Z</time>
      </trkpt>
      <trkpt lat="44.476" lon="6.65357">
        <ele>2206.77</ele>
        <time>2022-10-08T13:11:25Z</time>
      </trkpt>
      <trkpt lat="44.47595" lon="6.65354">
        <ele>2206.78</ele>
        <time>2022-10-08T13:11:26Z</time>
      </trkpt>
      <trkpt lat="44.47591" lon="6.6535">
        <ele>2205.5</ele>
        <time>2022-10-08T13:11:27Z</time>
      </trkpt>
      <trkpt lat="44.47587" lon="6.65346">
        <ele>2205.41</ele>
        <time>2022-10-08T13:11:28Z</time>
      </trkpt>
      <trkpt lat="44.47582" lon="6.65343">
        <ele>2203.7</ele>
        <time>2022-10-08T13:11:29Z</time>
      </trkpt>
      <trkpt lat="44.47578" lon="6.65343">
        <ele>2203.91</ele>
        <time>2022-10-08T13:11:30Z</time>
      </trkpt>
      <trkpt lat="44.47575" lon="6.65345">
        <ele>2203.86</ele>
        <time>2022-10-08T13:11:31Z</time>
      </trkpt>
      <trkpt lat="44.47573" lon="6.65349">
        <ele>2202.46</ele>
        <time>2022-10-08T13:11:32Z</time>
      </trkpt>
      <trkpt lat="44.47571" lon="6.65354">
        <ele>2202.46</ele>
        <time>2022-10-08T13:11:33Z</time>
      </trkpt>
      <trkpt lat="44.47561" lon="6.65375">
        <ele>2200.09</ele>
        <time>2022-10-08T13:11:37Z</time>
      </trkpt>
      <trkpt lat="44.47558" lon="6.65379">
        <ele>2200.14</ele>
        <time>2022-10-08T13:11:38Z</time>
      </trkpt>
      <trkpt lat="44.47553" lon="6.65383">
        <ele>2199.32</ele>
        <time>2022-10-08T13:11:39Z</time>
      </trkpt>
      <trkpt lat="44.47547" lon="6.65386">
        <ele>2199.27</ele>
        <time>2022-10-08T13:11:40Z</time>
      </trkpt>
      <trkpt lat="44.47541" lon="6.65388">
        <ele>2197.36</ele>
        <time>2022-10-08T13:11:41Z</time>
      </trkpt>
      <trkpt lat="44.47534" lon="6.65388">
        <ele>2197.26</ele>
        <time>2022-10-08T13:11:42Z</time>
      </trkpt>
      <trkpt lat="44.47527" lon="6.65387">
        <ele>2196.39</ele>
        <time>2022-10-08T13:11:43Z</time>
      </trkpt>
      <trkpt lat="44.47521" lon="6.65386">
        <ele>2196.38</ele>
        <time>2022-10-08T13:11:44Z</time>
      </trkpt>
      <trkpt lat="44.47515" lon="6.65384">
        <ele>2194.06</ele>
        <time>2022-10-08T13:11:45Z</time>
      </trkpt>
      <trkpt lat="44.47509" lon="6.65381">
        <ele>2194.1</ele>
        <time>2022-10-08T13:11:46Z</time>
      </trkpt>
      <trkpt lat="44.47505" lon="6.65379">
        <ele>2194.04</ele>
        <time>2022-10-08T13:11:47Z</time>
      </trkpt>
      <trkpt lat="44.47493" lon="6.65377">
        <ele>2192.67</ele>
        <time>2022-10-08T13:11:50Z</time>
      </trkpt>
      <trkpt lat="44.47491" lon="6.65381">
        <ele>2191.76</ele>
        <time>2022-10-08T13:11:51Z</time>
      </trkpt>
      <trkpt lat="44.47491" lon="6.65385">
        <ele>2191.7</ele>
        <time>2022-10-08T13:11:52Z</time>
      </trkpt>
      <trkpt lat="44.47492" lon="6.65389">
        <ele>2191.69</ele>
        <time>2022-10-08T13:11:53Z</time>
      </trkpt>
      <trkpt lat="44.47494" lon="6.65391">
        <ele>2191.65</ele>
        <time>2022-10-08T13:11:54Z</time>
      </trkpt>
      <trkpt lat="44.47497" lon="6.65392">
        <ele>2190.18</ele>
        <time>2022-10-08T13:11:55Z</time>
      </trkpt>
      <trkpt lat="44.47501" lon="6.65393">
        <ele>2190.18</ele>
        <time>2022-10-08T13:11:56Z</time>
      </trkpt>
      <trkpt lat="44.47506" lon="6.65395">
        <ele>2190.03</ele>
        <time>2022-10-08T13:11:57Z</time>
      </trkpt>
      <trkpt lat="44.4751" lon="6.65398">
        <ele>2190.1</ele>
        <time>2022-10-08T13:11:58Z</time>
      </trkpt>
      <trkpt lat="44.4754" lon="6.65419">
        <ele>2187.85</ele>
        <time>2022-10-08T13:12:04Z</time>
      </trkpt>
      <trkpt lat="44.47545" lon="6.65421">
        <ele>2187.85</ele>
        <time>2022-10-08T13:12:05Z</time>
      </trkpt>
      <trkpt lat="44.47551" lon="6.65421">
        <ele>2186.44</ele>
        <time>2022-10-08T13:12:06Z</time>
      </trkpt>
      <trkpt lat="44.47556" lon="6.65418">
        <ele>2186.39</ele>
        <time>2022-10-08T13:12:07Z</time>
      </trkpt>
      <trkpt lat="44.47561" lon="6.65414">
        <ele>2185.1</ele>
        <time>2022-10-08T13:12:08Z</time>
      </trkpt>
      <trkpt lat="44.4757" lon="6.65406">
        <ele>2183.76</ele>
        <time>2022-10-08T13:12:10Z</time>
      </trkpt>
      <trkpt lat="44.47575" lon="6.65404">
        <ele>2183.72</ele>
        <time>2022-10-08T13:12:11Z</time>
      </trkpt>
      <trkpt lat="44.47579" lon="6.65406">
        <ele>2183.7</ele>
        <time>2022-10-08T13:12:12Z</time>
      </trkpt>
      <trkpt lat="44.47584" lon="6.65408">
        <ele>2183.66</ele>
        <time>2022-10-08T13:12:13Z</time>
      </trkpt>
      <trkpt lat="44.47588" lon="6.65414">
        <ele>2182.82</ele>
        <time>2022-10-08T13:12:14Z</time>
      </trkpt>
      <trkpt lat="44.47592" lon="6.6542">
        <ele>2182.82</ele>
        <time>2022-10-08T13:12:15Z</time>
      </trkpt>
      <trkpt lat="44.476" lon="6.65434">
        <ele>2181.57</ele>
        <time>2022-10-08T13:12:17Z</time>
      </trkpt>
      <trkpt lat="44.47605" lon="6.65438">
        <ele>2181.54</ele>
        <time>2022-10-08T13:12:18Z</time>
      </trkpt>
      <trkpt lat="44.47611" lon="6.65442">
        <ele>2179.92</ele>
        <time>2022-10-08T13:12:19Z</time>
      </trkpt>
      <trkpt lat="44.47618" lon="6.65445">
        <ele>2179.88</ele>
        <time>2022-10-08T13:12:20Z</time>
      </trkpt>
      <trkpt lat="44.47626" lon="6.65447">
        <ele>2179.06</ele>
        <time>2022-10-08T13:12:21Z</time>
      </trkpt>
      <trkpt lat="44.47633" lon="6.65447">
        <ele>2178</ele>
        <time>2022-10-08T13:12:22Z</time>
      </trkpt>
      <trkpt lat="44.4764" lon="6.65446">
        <ele>2177.92</ele>
        <time>2022-10-08T13:12:23Z</time>
      </trkpt>
      <trkpt lat="44.47645" lon="6.65442">
        <ele>2176.01</ele>
        <time>2022-10-08T13:12:24Z</time>
      </trkpt>
      <trkpt lat="44.47651" lon="6.65438">
        <ele>2176</ele>
        <time>2022-10-08T13:12:25Z</time>
      </trkpt>
      <trkpt lat="44.47656" lon="6.65437">
        <ele>2174.38</ele>
        <time>2022-10-08T13:12:26Z</time>
      </trkpt>
      <trkpt lat="44.4766" lon="6.65437">
        <ele>2174.37</ele>
        <time>2022-10-08T13:12:27Z</time>
      </trkpt>
      <trkpt lat="44.47665" lon="6.6544">
        <ele>2173.53</ele>
        <time>2022-10-08T13:12:28Z</time>
      </trkpt>
      <trkpt lat="44.4767" lon="6.65446">
        <ele>2173.57</ele>
        <time>2022-10-08T13:12:29Z</time>
      </trkpt>
      <trkpt lat="44.47675" lon="6.65453">
        <ele>2172.45</ele>
        <time>2022-10-08T13:12:30Z</time>
      </trkpt>
      <trkpt lat="44.47679" lon="6.6546">
        <ele>2172.46</ele>
        <time>2022-10-08T13:12:31Z</time>
      </trkpt>
      <trkpt lat="44.47688" lon="6.65474">
        <ele>2171.17</ele>
        <time>2022-10-08T13:12:33Z</time>
      </trkpt>
      <trkpt lat="44.47692" lon="6.6548">
        <ele>2171.16</ele>
        <time>2022-10-08T13:12:34Z</time>
      </trkpt>
      <trkpt lat="44.47702" lon="6.65491">
        <ele>2169.91</ele>
        <time>2022-10-08T13:12:36Z</time>
      </trkpt>
      <trkpt lat="44.47708" lon="6.65496">
        <ele>2168.99</ele>
        <time>2022-10-08T13:12:37Z</time>
      </trkpt>
      <trkpt lat="44.47714" lon="6.655">
        <ele>2168.92</ele>
        <time>2022-10-08T13:12:38Z</time>
      </trkpt>
      <trkpt lat="44.47739" lon="6.65514">
        <ele>2166.73</ele>
        <time>2022-10-08T13:12:42Z</time>
      </trkpt>
      <trkpt lat="44.47767" lon="6.65528">
        <ele>2163.71</ele>
        <time>2022-10-08T13:12:46Z</time>
      </trkpt>
      <trkpt lat="44.47775" lon="6.6553">
        <ele>2163.65</ele>
        <time>2022-10-08T13:12:47Z</time>
      </trkpt>
      <trkpt lat="44.47783" lon="6.65531">
        <ele>2163.61</ele>
        <time>2022-10-08T13:12:48Z</time>
      </trkpt>
      <trkpt lat="44.47805" lon="6.65531">
        <ele>2159.75</ele>
        <time>2022-10-08T13:12:51Z</time>
      </trkpt>
      <trkpt lat="44.47811" lon="6.65529">
        <ele>2159.74</ele>
        <time>2022-10-08T13:12:52Z</time>
      </trkpt>
      <trkpt lat="44.47817" lon="6.65528">
        <ele>2159.65</ele>
        <time>2022-10-08T13:12:53Z</time>
      </trkpt>
      <trkpt lat="44.47821" lon="6.65527">
        <ele>2158.67</ele>
        <time>2022-10-08T13:12:54Z</time>
      </trkpt>
      <trkpt lat="44.47825" lon="6.65529">
        <ele>2158.69</ele>
        <time>2022-10-08T13:12:55Z</time>
      </trkpt>
      <trkpt lat="44.47828" lon="6.65531">
        <ele>2158.66</ele>
        <time>2022-10-08T13:12:56Z</time>
      </trkpt>
      <trkpt lat="44.47829" lon="6.65535">
        <ele>2158.27</ele>
        <time>2022-10-08T13:12:57Z</time>
      </trkpt>
      <trkpt lat="44.47831" lon="6.6554">
        <ele>2157.84</ele>
        <time>2022-10-08T13:12:58Z</time>
      </trkpt>
      <trkpt lat="44.47832" lon="6.65545">
        <ele>2158.27</ele>
        <time>2022-10-08T13:12:59Z</time>
      </trkpt>
      <trkpt lat="44.47833" lon="6.65551">
        <ele>2157.25</ele>
        <time>2022-10-08T13:13:00Z</time>
      </trkpt>
      <trkpt lat="44.47835" lon="6.65556">
        <ele>2157.24</ele>
        <time>2022-10-08T13:13:01Z</time>
      </trkpt>
      <trkpt lat="44.47837" lon="6.65562">
        <ele>2156.3</ele>
        <time>2022-10-08T13:13:02Z</time>
      </trkpt>
      <trkpt lat="44.4784" lon="6.65567">
        <ele>2156.29</ele>
        <time>2022-10-08T13:13:03Z</time>
      </trkpt>
      <trkpt lat="44.47844" lon="6.65573">
        <ele>2155.12</ele>
        <time>2022-10-08T13:13:04Z</time>
      </trkpt>
      <trkpt lat="44.47848" lon="6.65577">
        <ele>2155.1</ele>
        <time>2022-10-08T13:13:05Z</time>
      </trkpt>
      <trkpt lat="44.47854" lon="6.6558">
        <ele>2153.86</ele>
        <time>2022-10-08T13:13:06Z</time>
      </trkpt>
      <trkpt lat="44.47859" lon="6.65581">
        <ele>2153.85</ele>
        <time>2022-10-08T13:13:07Z</time>
      </trkpt>
      <trkpt lat="44.47865" lon="6.65581">
        <ele>2152.53</ele>
        <time>2022-10-08T13:13:08Z</time>
      </trkpt>
      <trkpt lat="44.47869" lon="6.65582">
        <ele>2152.53</ele>
        <time>2022-10-08T13:13:09Z</time>
      </trkpt>
      <trkpt lat="44.47874" lon="6.65584">
        <ele>2151.68</ele>
        <time>2022-10-08T13:13:10Z</time>
      </trkpt>
      <trkpt lat="44.47877" lon="6.65588">
        <ele>2151.64</ele>
        <time>2022-10-08T13:13:11Z</time>
      </trkpt>
      <trkpt lat="44.47879" lon="6.65593">
        <ele>2151.64</ele>
        <time>2022-10-08T13:13:12Z</time>
      </trkpt>
      <trkpt lat="44.47882" lon="6.65599">
        <ele>2150.66</ele>
        <time>2022-10-08T13:13:13Z</time>
      </trkpt>
      <trkpt lat="44.47885" lon="6.65604">
        <ele>2150.66</ele>
        <time>2022-10-08T13:13:14Z</time>
      </trkpt>
      <trkpt lat="44.47889" lon="6.65609">
        <ele>2149.58</ele>
        <time>2022-10-08T13:13:15Z</time>
      </trkpt>
      <trkpt lat="44.47893" lon="6.65613">
        <ele>2149.55</ele>
        <time>2022-10-08T13:13:16Z</time>
      </trkpt>
      <trkpt lat="44.47898" lon="6.65618">
        <ele>2148.5</ele>
        <time>2022-10-08T13:13:17Z</time>
      </trkpt>
      <trkpt lat="44.47913" lon="6.65633">
        <ele>2147.27</ele>
        <time>2022-10-08T13:13:20Z</time>
      </trkpt>
      <trkpt lat="44.47928" lon="6.65651">
        <ele>2145.13</ele>
        <time>2022-10-08T13:13:23Z</time>
      </trkpt>
      <trkpt lat="44.47933" lon="6.65657">
        <ele>2144.21</ele>
        <time>2022-10-08T13:13:24Z</time>
      </trkpt>
      <trkpt lat="44.47938" lon="6.65662">
        <ele>2144.17</ele>
        <time>2022-10-08T13:13:25Z</time>
      </trkpt>
      <trkpt lat="44.47942" lon="6.65668">
        <ele>2143.4</ele>
        <time>2022-10-08T13:13:26Z</time>
      </trkpt>
      <trkpt lat="44.47946" lon="6.65674">
        <ele>2142.38</ele>
        <time>2022-10-08T13:13:27Z</time>
      </trkpt>
      <trkpt lat="44.47949" lon="6.6568">
        <ele>2142.33</ele>
        <time>2022-10-08T13:13:28Z</time>
      </trkpt>
      <trkpt lat="44.47953" lon="6.65687">
        <ele>2142.31</ele>
        <time>2022-10-08T13:13:29Z</time>
      </trkpt>
      <trkpt lat="44.47958" lon="6.65693">
        <ele>2141.28</ele>
        <time>2022-10-08T13:13:30Z</time>
      </trkpt>
      <trkpt lat="44.47964" lon="6.65698">
        <ele>2141.27</ele>
        <time>2022-10-08T13:13:31Z</time>
      </trkpt>
      <trkpt lat="44.47975" lon="6.65706">
        <ele>2139.57</ele>
        <time>2022-10-08T13:13:33Z</time>
      </trkpt>
      <trkpt lat="44.47981" lon="6.6571">
        <ele>2139.57</ele>
        <time>2022-10-08T13:13:34Z</time>
      </trkpt>
      <trkpt lat="44.47997" lon="6.65725">
        <ele>2137.31</ele>
        <time>2022-10-08T13:13:37Z</time>
      </trkpt>
      <trkpt lat="44.48008" lon="6.65736">
        <ele>2136.01</ele>
        <time>2022-10-08T13:13:39Z</time>
      </trkpt>
      <trkpt lat="44.48017" lon="6.65749">
        <ele>2134.62</ele>
        <time>2022-10-08T13:13:41Z</time>
      </trkpt>
      <trkpt lat="44.48022" lon="6.65757">
        <ele>2133.75</ele>
        <time>2022-10-08T13:13:42Z</time>
      </trkpt>
      <trkpt lat="44.48027" lon="6.65765">
        <ele>2133.78</ele>
        <time>2022-10-08T13:13:43Z</time>
      </trkpt>
      <trkpt lat="44.48033" lon="6.65772">
        <ele>2133.68</ele>
        <time>2022-10-08T13:13:44Z</time>
      </trkpt>
      <trkpt lat="44.48038" lon="6.6578">
        <ele>2132.34</ele>
        <time>2022-10-08T13:13:45Z</time>
      </trkpt>
      <trkpt lat="44.48043" lon="6.65787">
        <ele>2132.29</ele>
        <time>2022-10-08T13:13:46Z</time>
      </trkpt>
      <trkpt lat="44.48049" lon="6.65793">
        <ele>2131.3</ele>
        <time>2022-10-08T13:13:47Z</time>
      </trkpt>
      <trkpt lat="44.48054" lon="6.65798">
        <ele>2131.35</ele>
        <time>2022-10-08T13:13:48Z</time>
      </trkpt>
      <trkpt lat="44.4806" lon="6.65803">
        <ele>2129.9</ele>
        <time>2022-10-08T13:13:49Z</time>
      </trkpt>
      <trkpt lat="44.48066" lon="6.65806">
        <ele>2129.03</ele>
        <time>2022-10-08T13:13:50Z</time>
      </trkpt>
      <trkpt lat="44.48072" lon="6.65811">
        <ele>2127.93</ele>
        <time>2022-10-08T13:13:51Z</time>
      </trkpt>
      <trkpt lat="44.48078" lon="6.65815">
        <ele>2128</ele>
        <time>2022-10-08T13:13:52Z</time>
      </trkpt>
      <trkpt lat="44.48084" lon="6.65819">
        <ele>2126.53</ele>
        <time>2022-10-08T13:13:53Z</time>
      </trkpt>
      <trkpt lat="44.48091" lon="6.65821">
        <ele>2126.46</ele>
        <time>2022-10-08T13:13:54Z</time>
      </trkpt>
      <trkpt lat="44.48097" lon="6.65824">
        <ele>2125.5</ele>
        <time>2022-10-08T13:13:55Z</time>
      </trkpt>
      <trkpt lat="44.48102" lon="6.65829">
        <ele>2125.45</ele>
        <time>2022-10-08T13:13:56Z</time>
      </trkpt>
      <trkpt lat="44.48107" lon="6.65835">
        <ele>2123.91</ele>
        <time>2022-10-08T13:13:57Z</time>
      </trkpt>
      <trkpt lat="44.48111" lon="6.65843">
        <ele>2124.01</ele>
        <time>2022-10-08T13:13:58Z</time>
      </trkpt>
      <trkpt lat="44.48115" lon="6.65851">
        <ele>2123.94</ele>
        <time>2022-10-08T13:13:59Z</time>
      </trkpt>
      <trkpt lat="44.4812" lon="6.6586">
        <ele>2122.35</ele>
        <time>2022-10-08T13:14:00Z</time>
      </trkpt>
      <trkpt lat="44.48125" lon="6.65867">
        <ele>2122.2</ele>
        <time>2022-10-08T13:14:01Z</time>
      </trkpt>
      <trkpt lat="44.4813" lon="6.65873">
        <ele>2122.29</ele>
        <time>2022-10-08T13:14:02Z</time>
      </trkpt>
      <trkpt lat="44.48142" lon="6.65885">
        <ele>2119</ele>
        <time>2022-10-08T13:14:04Z</time>
      </trkpt>
      <trkpt lat="44.48148" lon="6.65893">
        <ele>2119.02</ele>
        <time>2022-10-08T13:14:05Z</time>
      </trkpt>
      <trkpt lat="44.48158" lon="6.65909">
        <ele>2117.71</ele>
        <time>2022-10-08T13:14:07Z</time>
      </trkpt>
      <trkpt lat="44.48169" lon="6.65922">
        <ele>2116.11</ele>
        <time>2022-10-08T13:14:09Z</time>
      </trkpt>
      <trkpt lat="44.48186" lon="6.65936">
        <ele>2114.3</ele>
        <time>2022-10-08T13:14:12Z</time>
      </trkpt>
      <trkpt lat="44.48193" lon="6.65941">
        <ele>2113.37</ele>
        <time>2022-10-08T13:14:13Z</time>
      </trkpt>
      <trkpt lat="44.48199" lon="6.65947">
        <ele>2112.49</ele>
        <time>2022-10-08T13:14:14Z</time>
      </trkpt>
      <trkpt lat="44.48206" lon="6.65955">
        <ele>2112.42</ele>
        <time>2022-10-08T13:14:15Z</time>
      </trkpt>
      <trkpt lat="44.48211" lon="6.65964">
        <ele>2110.94</ele>
        <time>2022-10-08T13:14:16Z</time>
      </trkpt>
      <trkpt lat="44.48216" lon="6.65973">
        <ele>2110.86</ele>
        <time>2022-10-08T13:14:17Z</time>
      </trkpt>
      <trkpt lat="44.48221" lon="6.65981">
        <ele>2110.01</ele>
        <time>2022-10-08T13:14:18Z</time>
      </trkpt>
      <trkpt lat="44.48225" lon="6.65988">
        <ele>2108.81</ele>
        <time>2022-10-08T13:14:19Z</time>
      </trkpt>
      <trkpt lat="44.4823" lon="6.65993">
        <ele>2108.81</ele>
        <time>2022-10-08T13:14:20Z</time>
      </trkpt>
      <trkpt lat="44.48247" lon="6.6601">
        <ele>2105.98</ele>
        <time>2022-10-08T13:14:23Z</time>
      </trkpt>
      <trkpt lat="44.48252" lon="6.66019">
        <ele>2105.99</ele>
        <time>2022-10-08T13:14:24Z</time>
      </trkpt>
      <trkpt lat="44.48261" lon="6.66035">
        <ele>2103.97</ele>
        <time>2022-10-08T13:14:26Z</time>
      </trkpt>
      <trkpt lat="44.4827" lon="6.6605">
        <ele>2102.12</ele>
        <time>2022-10-08T13:14:28Z</time>
      </trkpt>
      <trkpt lat="44.48274" lon="6.66057">
        <ele>2102.12</ele>
        <time>2022-10-08T13:14:29Z</time>
      </trkpt>
      <trkpt lat="44.48279" lon="6.66062">
        <ele>2100.41</ele>
        <time>2022-10-08T13:14:30Z</time>
      </trkpt>
      <trkpt lat="44.48285" lon="6.66067">
        <ele>2100.41</ele>
        <time>2022-10-08T13:14:31Z</time>
      </trkpt>
      <trkpt lat="44.48289" lon="6.66073">
        <ele>2099.57</ele>
        <time>2022-10-08T13:14:32Z</time>
      </trkpt>
      <trkpt lat="44.48292" lon="6.66082">
        <ele>2098.77</ele>
        <time>2022-10-08T13:14:33Z</time>
      </trkpt>
      <trkpt lat="44.48295" lon="6.66091">
        <ele>2097.75</ele>
        <time>2022-10-08T13:14:34Z</time>
      </trkpt>
      <trkpt lat="44.48299" lon="6.661">
        <ele>2097.76</ele>
        <time>2022-10-08T13:14:35Z</time>
      </trkpt>
      <trkpt lat="44.48303" lon="6.66108">
        <ele>2096.76</ele>
        <time>2022-10-08T13:14:36Z</time>
      </trkpt>
      <trkpt lat="44.48312" lon="6.66123">
        <ele>2095.31</ele>
        <time>2022-10-08T13:14:38Z</time>
      </trkpt>
      <trkpt lat="44.48317" lon="6.6613">
        <ele>2095.31</ele>
        <time>2022-10-08T13:14:39Z</time>
      </trkpt>
      <trkpt lat="44.48334" lon="6.66149">
        <ele>2093.18</ele>
        <time>2022-10-08T13:14:42Z</time>
      </trkpt>
      <trkpt lat="44.48343" lon="6.66163">
        <ele>2091.55</ele>
        <time>2022-10-08T13:14:44Z</time>
      </trkpt>
      <trkpt lat="44.48347" lon="6.66171">
        <ele>2090.36</ele>
        <time>2022-10-08T13:14:45Z</time>
      </trkpt>
      <trkpt lat="44.48351" lon="6.6618">
        <ele>2090.37</ele>
        <time>2022-10-08T13:14:46Z</time>
      </trkpt>
      <trkpt lat="44.48353" lon="6.6619">
        <ele>2089.18</ele>
        <time>2022-10-08T13:14:47Z</time>
      </trkpt>
      <trkpt lat="44.48355" lon="6.662">
        <ele>2089.17</ele>
        <time>2022-10-08T13:14:48Z</time>
      </trkpt>
      <trkpt lat="44.48355" lon="6.66209">
        <ele>2087.49</ele>
        <time>2022-10-08T13:14:49Z</time>
      </trkpt>
      <trkpt lat="44.48355" lon="6.66217">
        <ele>2087.42</ele>
        <time>2022-10-08T13:14:50Z</time>
      </trkpt>
      <trkpt lat="44.48355" lon="6.6623">
        <ele>2085.72</ele>
        <time>2022-10-08T13:14:52Z</time>
      </trkpt>
      <trkpt lat="44.48354" lon="6.66237">
        <ele>2084.95</ele>
        <time>2022-10-08T13:14:53Z</time>
      </trkpt>
      <trkpt lat="44.48352" lon="6.66244">
        <ele>2084.95</ele>
        <time>2022-10-08T13:14:54Z</time>
      </trkpt>
      <trkpt lat="44.48348" lon="6.6625">
        <ele>2083.91</ele>
        <time>2022-10-08T13:14:55Z</time>
      </trkpt>
      <trkpt lat="44.48344" lon="6.66255">
        <ele>2083.9</ele>
        <time>2022-10-08T13:14:56Z</time>
      </trkpt>
      <trkpt lat="44.48339" lon="6.66259">
        <ele>2083.11</ele>
        <time>2022-10-08T13:14:57Z</time>
      </trkpt>
      <trkpt lat="44.48335" lon="6.66263">
        <ele>2083.12</ele>
        <time>2022-10-08T13:14:58Z</time>
      </trkpt>
      <trkpt lat="44.48321" lon="6.66276">
        <ele>2081.49</ele>
        <time>2022-10-08T13:15:01Z</time>
      </trkpt>
      <trkpt lat="44.48308" lon="6.66289">
        <ele>2079.69</ele>
        <time>2022-10-08T13:15:04Z</time>
      </trkpt>
      <trkpt lat="44.48305" lon="6.66294">
        <ele>2079.66</ele>
        <time>2022-10-08T13:15:05Z</time>
      </trkpt>
      <trkpt lat="44.48302" lon="6.663">
        <ele>2078.82</ele>
        <time>2022-10-08T13:15:06Z</time>
      </trkpt>
      <trkpt lat="44.48293" lon="6.6633">
        <ele>2076.94</ele>
        <time>2022-10-08T13:15:10Z</time>
      </trkpt>
      <trkpt lat="44.48291" lon="6.66339">
        <ele>2076.9</ele>
        <time>2022-10-08T13:15:11Z</time>
      </trkpt>
      <trkpt lat="44.48291" lon="6.66347">
        <ele>2075.57</ele>
        <time>2022-10-08T13:15:12Z</time>
      </trkpt>
      <trkpt lat="44.48291" lon="6.66363">
        <ele>2074.69</ele>
        <time>2022-10-08T13:15:14Z</time>
      </trkpt>
      <trkpt lat="44.4829" lon="6.6638">
        <ele>2073.36</ele>
        <time>2022-10-08T13:15:16Z</time>
      </trkpt>
      <trkpt lat="44.48288" lon="6.66396">
        <ele>2072.16</ele>
        <time>2022-10-08T13:15:18Z</time>
      </trkpt>
      <trkpt lat="44.48286" lon="6.6642">
        <ele>2071</ele>
        <time>2022-10-08T13:15:21Z</time>
      </trkpt>
      <trkpt lat="44.48285" lon="6.66437">
        <ele>2069.4</ele>
        <time>2022-10-08T13:15:23Z</time>
      </trkpt>
      <trkpt lat="44.48283" lon="6.66456">
        <ele>2067.96</ele>
        <time>2022-10-08T13:15:25Z</time>
      </trkpt>
      <trkpt lat="44.48279" lon="6.66495">
        <ele>2065.47</ele>
        <time>2022-10-08T13:15:29Z</time>
      </trkpt>
      <trkpt lat="44.48278" lon="6.66504">
        <ele>2064.43</ele>
        <time>2022-10-08T13:15:30Z</time>
      </trkpt>
      <trkpt lat="44.48278" lon="6.66514">
        <ele>2064.36</ele>
        <time>2022-10-08T13:15:31Z</time>
      </trkpt>
      <trkpt lat="44.48279" lon="6.66524">
        <ele>2062.95</ele>
        <time>2022-10-08T13:15:32Z</time>
      </trkpt>
      <trkpt lat="44.4828" lon="6.66535">
        <ele>2062.66</ele>
        <time>2022-10-08T13:15:33Z</time>
      </trkpt>
      <trkpt lat="44.48281" lon="6.66546">
        <ele>2061.59</ele>
        <time>2022-10-08T13:15:34Z</time>
      </trkpt>
      <trkpt lat="44.48283" lon="6.66557">
        <ele>2059.99</ele>
        <time>2022-10-08T13:15:35Z</time>
      </trkpt>
      <trkpt lat="44.48285" lon="6.66568">
        <ele>2059.92</ele>
        <time>2022-10-08T13:15:36Z</time>
      </trkpt>
      <trkpt lat="44.48288" lon="6.66578">
        <ele>2059.92</ele>
        <time>2022-10-08T13:15:37Z</time>
      </trkpt>
      <trkpt lat="44.48289" lon="6.66589">
        <ele>2058.42</ele>
        <time>2022-10-08T13:15:38Z</time>
      </trkpt>
      <trkpt lat="44.48291" lon="6.666">
        <ele>2058.41</ele>
        <time>2022-10-08T13:15:39Z</time>
      </trkpt>
      <trkpt lat="44.48294" lon="6.66631">
        <ele>2056</ele>
        <time>2022-10-08T13:15:42Z</time>
      </trkpt>
      <trkpt lat="44.48296" lon="6.66641">
        <ele>2054.42</ele>
        <time>2022-10-08T13:15:43Z</time>
      </trkpt>
      <trkpt lat="44.48299" lon="6.6665">
        <ele>2054.34</ele>
        <time>2022-10-08T13:15:44Z</time>
      </trkpt>
      <trkpt lat="44.48303" lon="6.66659">
        <ele>2053.42</ele>
        <time>2022-10-08T13:15:45Z</time>
      </trkpt>
      <trkpt lat="44.48307" lon="6.66667">
        <ele>2053.37</ele>
        <time>2022-10-08T13:15:46Z</time>
      </trkpt>
      <trkpt lat="44.48318" lon="6.6669">
        <ele>2050.14</ele>
        <time>2022-10-08T13:15:49Z</time>
      </trkpt>
      <trkpt lat="44.48322" lon="6.66697">
        <ele>2050.17</ele>
        <time>2022-10-08T13:15:50Z</time>
      </trkpt>
      <trkpt lat="44.48327" lon="6.66711">
        <ele>2048.39</ele>
        <time>2022-10-08T13:15:52Z</time>
      </trkpt>
      <trkpt lat="44.48329" lon="6.66718">
        <ele>2048.36</ele>
        <time>2022-10-08T13:15:53Z</time>
      </trkpt>
      <trkpt lat="44.48334" lon="6.66731">
        <ele>2046.76</ele>
        <time>2022-10-08T13:15:55Z</time>
      </trkpt>
      <trkpt lat="44.48337" lon="6.66738">
        <ele>2045.46</ele>
        <time>2022-10-08T13:15:56Z</time>
      </trkpt>
      <trkpt lat="44.4834" lon="6.66745">
        <ele>2045.39</ele>
        <time>2022-10-08T13:15:57Z</time>
      </trkpt>
      <trkpt lat="44.48347" lon="6.66758">
        <ele>2044.1</ele>
        <time>2022-10-08T13:15:59Z</time>
      </trkpt>
      <trkpt lat="44.48352" lon="6.66775">
        <ele>2042.28</ele>
        <time>2022-10-08T13:16:02Z</time>
      </trkpt>
      <trkpt lat="44.48351" lon="6.66778">
        <ele>2042.2</ele>
        <time>2022-10-08T13:16:03Z</time>
      </trkpt>
      <trkpt lat="44.48349" lon="6.66781">
        <ele>2040.8</ele>
        <time>2022-10-08T13:16:04Z</time>
      </trkpt>
      <trkpt lat="44.48347" lon="6.66783">
        <ele>2040.8</ele>
        <time>2022-10-08T13:16:05Z</time>
      </trkpt>
      <trkpt lat="44.48344" lon="6.66782">
        <ele>2040.8</ele>
        <time>2022-10-08T13:16:06Z</time>
      </trkpt>
      <trkpt lat="44.48341" lon="6.66779">
        <ele>2040.79</ele>
        <time>2022-10-08T13:16:07Z</time>
      </trkpt>
      <trkpt lat="44.48322" lon="6.66765">
        <ele>2039.01</ele>
        <time>2022-10-08T13:16:11Z</time>
      </trkpt>
      <trkpt lat="44.48318" lon="6.66764">
        <ele>2039.01</ele>
        <time>2022-10-08T13:16:12Z</time>
      </trkpt>
      <trkpt lat="44.4831" lon="6.66767">
        <ele>2037.86</ele>
        <time>2022-10-08T13:16:15Z</time>
      </trkpt>
      <trkpt lat="44.48309" lon="6.66771">
        <ele>2037.87</ele>
        <time>2022-10-08T13:16:16Z</time>
      </trkpt>
      <trkpt lat="44.4831" lon="6.66774">
        <ele>2037.85</ele>
        <time>2022-10-08T13:16:17Z</time>
      </trkpt>
      <trkpt lat="44.48312" lon="6.66777">
        <ele>2037.89</ele>
        <time>2022-10-08T13:16:18Z</time>
      </trkpt>
      <trkpt lat="44.48314" lon="6.66782">
        <ele>2037.86</ele>
        <time>2022-10-08T13:16:19Z</time>
      </trkpt>
      <trkpt lat="44.48316" lon="6.66787">
        <ele>2037.85</ele>
        <time>2022-10-08T13:16:20Z</time>
      </trkpt>
      <trkpt lat="44.48319" lon="6.66792">
        <ele>2037.88</ele>
        <time>2022-10-08T13:16:21Z</time>
      </trkpt>
      <trkpt lat="44.48322" lon="6.66798">
        <ele>2037.89</ele>
        <time>2022-10-08T13:16:22Z</time>
      </trkpt>
      <trkpt lat="44.48325" lon="6.66805">
        <ele>2037.88</ele>
        <time>2022-10-08T13:16:23Z</time>
      </trkpt>
      <trkpt lat="44.48327" lon="6.66812">
        <ele>2037.85</ele>
        <time>2022-10-08T13:16:24Z</time>
      </trkpt>
      <trkpt lat="44.4833" lon="6.66818">
        <ele>2037.1</ele>
        <time>2022-10-08T13:16:25Z</time>
      </trkpt>
      <trkpt lat="44.48335" lon="6.66831">
        <ele>2037.08</ele>
        <time>2022-10-08T13:16:27Z</time>
      </trkpt>
      <trkpt lat="44.48339" lon="6.66835">
        <ele>2037.07</ele>
        <time>2022-10-08T13:16:28Z</time>
      </trkpt>
      <trkpt lat="44.48343" lon="6.66838">
        <ele>2037.07</ele>
        <time>2022-10-08T13:16:29Z</time>
      </trkpt>
      <trkpt lat="44.48346" lon="6.66843">
        <ele>2037.06</ele>
        <time>2022-10-08T13:16:30Z</time>
      </trkpt>
      <trkpt lat="44.48349" lon="6.66847">
        <ele>2037.06</ele>
        <time>2022-10-08T13:16:31Z</time>
      </trkpt>
      <trkpt lat="44.48384" lon="6.66889">
        <ele>2037</ele>
        <time>2022-10-08T13:16:43Z</time>
      </trkpt>
      <trkpt lat="44.48395" lon="6.66932">
        <ele>2036.93</ele>
        <time>2022-10-08T13:16:53Z</time>
      </trkpt>
      <trkpt lat="44.48395" lon="6.66941">
        <ele>2036.93</ele>
        <time>2022-10-08T13:16:54Z</time>
      </trkpt>
      <trkpt lat="44.48394" lon="6.66953">
        <ele>2036.92</ele>
        <time>2022-10-08T13:16:55Z</time>
      </trkpt>
      <trkpt lat="44.48393" lon="6.66966">
        <ele>2036.91</ele>
        <time>2022-10-08T13:16:56Z</time>
      </trkpt>
      <trkpt lat="44.4839" lon="6.66989">
        <ele>2036.9</ele>
        <time>2022-10-08T13:16:58Z</time>
      </trkpt>
      <trkpt lat="44.48388" lon="6.66999">
        <ele>2036.91</ele>
        <time>2022-10-08T13:16:59Z</time>
      </trkpt>
      <trkpt lat="44.48384" lon="6.67007">
        <ele>2036.9</ele>
        <time>2022-10-08T13:17:00Z</time>
      </trkpt>
      <trkpt lat="44.4838" lon="6.67015">
        <ele>2036.9</ele>
        <time>2022-10-08T13:17:01Z</time>
      </trkpt>
      <trkpt lat="44.48375" lon="6.67021">
        <ele>2036.88</ele>
        <time>2022-10-08T13:17:02Z</time>
      </trkpt>
      <trkpt lat="44.48369" lon="6.67027">
        <ele>2036.87</ele>
        <time>2022-10-08T13:17:03Z</time>
      </trkpt>
      <trkpt lat="44.4836" lon="6.67041">
        <ele>2036.88</ele>
        <time>2022-10-08T13:17:05Z</time>
      </trkpt>
      <trkpt lat="44.48359" lon="6.67049">
        <ele>2036.86</ele>
        <time>2022-10-08T13:17:06Z</time>
      </trkpt>
      <trkpt lat="44.48359" lon="6.67058">
        <ele>2036.85</ele>
        <time>2022-10-08T13:17:07Z</time>
      </trkpt>
      <trkpt lat="44.48363" lon="6.67069">
        <ele>2036.82</ele>
        <time>2022-10-08T13:17:08Z</time>
      </trkpt>
      <trkpt lat="44.48367" lon="6.67078">
        <ele>2036.82</ele>
        <time>2022-10-08T13:17:09Z</time>
      </trkpt>
      <trkpt lat="44.4837" lon="6.67087">
        <ele>2036.8</ele>
        <time>2022-10-08T13:17:10Z</time>
      </trkpt>
      <trkpt lat="44.48375" lon="6.67097">
        <ele>2036.83</ele>
        <time>2022-10-08T13:17:11Z</time>
      </trkpt>
      <trkpt lat="44.4839" lon="6.67138">
        <ele>2036.82</ele>
        <time>2022-10-08T13:17:15Z</time>
      </trkpt>
      <trkpt lat="44.48398" lon="6.67169">
        <ele>2036.8</ele>
        <time>2022-10-08T13:17:18Z</time>
      </trkpt>
      <trkpt lat="44.48398" lon="6.67179">
        <ele>2036.77</ele>
        <time>2022-10-08T13:17:19Z</time>
      </trkpt>
      <trkpt lat="44.48399" lon="6.6719">
        <ele>2036.77</ele>
        <time>2022-10-08T13:17:20Z</time>
      </trkpt>
      <trkpt lat="44.48402" lon="6.67214">
        <ele>2036.76</ele>
        <time>2022-10-08T13:17:22Z</time>
      </trkpt>
      <trkpt lat="44.48404" lon="6.67226">
        <ele>2036.73</ele>
        <time>2022-10-08T13:17:23Z</time>
      </trkpt>
      <trkpt lat="44.48409" lon="6.67252">
        <ele>2036.7</ele>
        <time>2022-10-08T13:17:25Z</time>
      </trkpt>
      <trkpt lat="44.48411" lon="6.67263">
        <ele>2036.72</ele>
        <time>2022-10-08T13:17:26Z</time>
      </trkpt>
      <trkpt lat="44.48414" lon="6.67273">
        <ele>2035.85</ele>
        <time>2022-10-08T13:17:27Z</time>
      </trkpt>
      <trkpt lat="44.48419" lon="6.6729">
        <ele>2034.97</ele>
        <time>2022-10-08T13:17:29Z</time>
      </trkpt>
      <trkpt lat="44.48423" lon="6.67306">
        <ele>2034.93</ele>
        <time>2022-10-08T13:17:31Z</time>
      </trkpt>
      <trkpt lat="44.48424" lon="6.67313">
        <ele>2034.95</ele>
        <time>2022-10-08T13:17:32Z</time>
      </trkpt>
      <trkpt lat="44.48426" lon="6.6732">
        <ele>2034.93</ele>
        <time>2022-10-08T13:17:33Z</time>
      </trkpt>
      <trkpt lat="44.48426" lon="6.67327">
        <ele>2034.92</ele>
        <time>2022-10-08T13:17:34Z</time>
      </trkpt>
      <trkpt lat="44.48425" lon="6.67336">
        <ele>2034.9</ele>
        <time>2022-10-08T13:17:35Z</time>
      </trkpt>
      <trkpt lat="44.48423" lon="6.67345">
        <ele>2033.92</ele>
        <time>2022-10-08T13:17:36Z</time>
      </trkpt>
      <trkpt lat="44.4842" lon="6.67354">
        <ele>2033.92</ele>
        <time>2022-10-08T13:17:37Z</time>
      </trkpt>
      <trkpt lat="44.48417" lon="6.67362">
        <ele>2033.9</ele>
        <time>2022-10-08T13:17:38Z</time>
      </trkpt>
      <trkpt lat="44.48414" lon="6.6737">
        <ele>2033.88</ele>
        <time>2022-10-08T13:17:39Z</time>
      </trkpt>
      <trkpt lat="44.48411" lon="6.67379">
        <ele>2033.87</ele>
        <time>2022-10-08T13:17:40Z</time>
      </trkpt>
      <trkpt lat="44.4839" lon="6.67443">
        <ele>2034</ele>
        <time>2022-10-08T13:17:45Z</time>
      </trkpt>
      <trkpt lat="44.48374" lon="6.67485">
        <ele>2033.98</ele>
        <time>2022-10-08T13:17:48Z</time>
      </trkpt>
      <trkpt lat="44.48369" lon="6.67499">
        <ele>2033.97</ele>
        <time>2022-10-08T13:17:49Z</time>
      </trkpt>
      <trkpt lat="44.48366" lon="6.67512">
        <ele>2032.98</ele>
        <time>2022-10-08T13:17:50Z</time>
      </trkpt>
      <trkpt lat="44.48364" lon="6.67522">
        <ele>2031.9</ele>
        <time>2022-10-08T13:17:51Z</time>
      </trkpt>
      <trkpt lat="44.48363" lon="6.67532">
        <ele>2031.87</ele>
        <time>2022-10-08T13:17:52Z</time>
      </trkpt>
      <trkpt lat="44.48362" lon="6.67543">
        <ele>2031.9</ele>
        <time>2022-10-08T13:17:53Z</time>
      </trkpt>
      <trkpt lat="44.48363" lon="6.67555">
        <ele>2031.89</ele>
        <time>2022-10-08T13:17:54Z</time>
      </trkpt>
      <trkpt lat="44.48365" lon="6.67568">
        <ele>2031.88</ele>
        <time>2022-10-08T13:17:55Z</time>
      </trkpt>
      <trkpt lat="44.4837" lon="6.67593">
        <ele>2031.9</ele>
        <time>2022-10-08T13:17:57Z</time>
      </trkpt>
      <trkpt lat="44.48376" lon="6.67613">
        <ele>2031.87</ele>
        <time>2022-10-08T13:17:59Z</time>
      </trkpt>
      <trkpt lat="44.48379" lon="6.67621">
        <ele>2031.84</ele>
        <time>2022-10-08T13:18:00Z</time>
      </trkpt>
      <trkpt lat="44.48381" lon="6.67629">
        <ele>2030.9</ele>
        <time>2022-10-08T13:18:01Z</time>
      </trkpt>
      <trkpt lat="44.48382" lon="6.67637">
        <ele>2030.9</ele>
        <time>2022-10-08T13:18:02Z</time>
      </trkpt>
      <trkpt lat="44.48383" lon="6.67646">
        <ele>2030.92</ele>
        <time>2022-10-08T13:18:03Z</time>
      </trkpt>
      <trkpt lat="44.4838" lon="6.67655">
        <ele>2030.9</ele>
        <time>2022-10-08T13:18:04Z</time>
      </trkpt>
      <trkpt lat="44.48377" lon="6.67665">
        <ele>2031.01</ele>
        <time>2022-10-08T13:18:05Z</time>
      </trkpt>
      <trkpt lat="44.48374" lon="6.67676">
        <ele>2031.01</ele>
        <time>2022-10-08T13:18:06Z</time>
      </trkpt>
      <trkpt lat="44.48373" lon="6.67687">
        <ele>2030.23</ele>
        <time>2022-10-08T13:18:07Z</time>
      </trkpt>
      <trkpt lat="44.48373" lon="6.67701">
        <ele>2030.23</ele>
        <time>2022-10-08T13:18:08Z</time>
      </trkpt>
      <trkpt lat="44.48375" lon="6.67714">
        <ele>2030.22</ele>
        <time>2022-10-08T13:18:09Z</time>
      </trkpt>
      <trkpt lat="44.48378" lon="6.67728">
        <ele>2030.22</ele>
        <time>2022-10-08T13:18:10Z</time>
      </trkpt>
      <trkpt lat="44.48379" lon="6.6774">
        <ele>2030.21</ele>
        <time>2022-10-08T13:18:11Z</time>
      </trkpt>
      <trkpt lat="44.48381" lon="6.67751">
        <ele>2030.2</ele>
        <time>2022-10-08T13:18:12Z</time>
      </trkpt>
      <trkpt lat="44.48383" lon="6.67762">
        <ele>2028.86</ele>
        <time>2022-10-08T13:18:13Z</time>
      </trkpt>
      <trkpt lat="44.48386" lon="6.67772">
        <ele>2028.84</ele>
        <time>2022-10-08T13:18:14Z</time>
      </trkpt>
      <trkpt lat="44.48386" lon="6.67783">
        <ele>2028.81</ele>
        <time>2022-10-08T13:18:15Z</time>
      </trkpt>
      <trkpt lat="44.48382" lon="6.67804">
        <ele>2028.79</ele>
        <time>2022-10-08T13:18:17Z</time>
      </trkpt>
      <trkpt lat="44.48376" lon="6.67816">
        <ele>2027.68</ele>
        <time>2022-10-08T13:18:18Z</time>
      </trkpt>
      <trkpt lat="44.48372" lon="6.67828">
        <ele>2027.68</ele>
        <time>2022-10-08T13:18:19Z</time>
      </trkpt>
      <trkpt lat="44.48369" lon="6.67839">
        <ele>2026.83</ele>
        <time>2022-10-08T13:18:20Z</time>
      </trkpt>
      <trkpt lat="44.48367" lon="6.6785">
        <ele>2026.8</ele>
        <time>2022-10-08T13:18:21Z</time>
      </trkpt>
      <trkpt lat="44.48367" lon="6.67858">
        <ele>2026.82</ele>
        <time>2022-10-08T13:18:22Z</time>
      </trkpt>
      <trkpt lat="44.48369" lon="6.67863">
        <ele>2025.96</ele>
        <time>2022-10-08T13:18:23Z</time>
      </trkpt>
      <trkpt lat="44.4837" lon="6.67867">
        <ele>2025.95</ele>
        <time>2022-10-08T13:18:24Z</time>
      </trkpt>
      <trkpt lat="44.48373" lon="6.67888">
        <ele>2025.88</ele>
        <time>2022-10-08T13:18:28Z</time>
      </trkpt>
      <trkpt lat="44.48371" lon="6.67894">
        <ele>2025.87</ele>
        <time>2022-10-08T13:18:29Z</time>
      </trkpt>
      <trkpt lat="44.48369" lon="6.67899">
        <ele>2026.1</ele>
        <time>2022-10-08T13:18:30Z</time>
      </trkpt>
      <trkpt lat="44.48366" lon="6.67904">
        <ele>2025.23</ele>
        <time>2022-10-08T13:18:31Z</time>
      </trkpt>
      <trkpt lat="44.48362" lon="6.67908">
        <ele>2025.23</ele>
        <time>2022-10-08T13:18:32Z</time>
      </trkpt>
      <trkpt lat="44.48359" lon="6.6791">
        <ele>2025.22</ele>
        <time>2022-10-08T13:18:33Z</time>
      </trkpt>
      <trkpt lat="44.48356" lon="6.67913">
        <ele>2025.18</ele>
        <time>2022-10-08T13:18:34Z</time>
      </trkpt>
      <trkpt lat="44.48353" lon="6.67915">
        <ele>2024.42</ele>
        <time>2022-10-08T13:18:35Z</time>
      </trkpt>
      <trkpt lat="44.4835" lon="6.67918">
        <ele>2024.4</ele>
        <time>2022-10-08T13:18:36Z</time>
      </trkpt>
      <trkpt lat="44.48347" lon="6.67922">
        <ele>2024.41</ele>
        <time>2022-10-08T13:18:37Z</time>
      </trkpt>
      <trkpt lat="44.48341" lon="6.67932">
        <ele>2023.65</ele>
        <time>2022-10-08T13:18:39Z</time>
      </trkpt>
      <trkpt lat="44.48339" lon="6.67937">
        <ele>2023.65</ele>
        <time>2022-10-08T13:18:40Z</time>
      </trkpt>
      <trkpt lat="44.48337" lon="6.67942">
        <ele>2023.64</ele>
        <time>2022-10-08T13:18:41Z</time>
      </trkpt>
      <trkpt lat="44.48335" lon="6.67948">
        <ele>2023.62</ele>
        <time>2022-10-08T13:18:42Z</time>
      </trkpt>
      <trkpt lat="44.48335" lon="6.67955">
        <ele>2023.61</ele>
        <time>2022-10-08T13:18:43Z</time>
      </trkpt>
      <trkpt lat="44.48336" lon="6.67961">
        <ele>2023.61</ele>
        <time>2022-10-08T13:18:44Z</time>
      </trkpt>
      <trkpt lat="44.48337" lon="6.67968">
        <ele>2023.57</ele>
        <time>2022-10-08T13:18:45Z</time>
      </trkpt>
      <trkpt lat="44.48344" lon="6.6799">
        <ele>2022.47</ele>
        <time>2022-10-08T13:18:48Z</time>
      </trkpt>
      <trkpt lat="44.48345" lon="6.67998">
        <ele>2021.54</ele>
        <time>2022-10-08T13:18:49Z</time>
      </trkpt>
      <trkpt lat="44.48346" lon="6.68006">
        <ele>2020.52</ele>
        <time>2022-10-08T13:18:50Z</time>
      </trkpt>
      <trkpt lat="44.48347" lon="6.68014">
        <ele>2020.51</ele>
        <time>2022-10-08T13:18:51Z</time>
      </trkpt>
      <trkpt lat="44.48348" lon="6.68022">
        <ele>2019.3</ele>
        <time>2022-10-08T13:18:52Z</time>
      </trkpt>
      <trkpt lat="44.48349" lon="6.68029">
        <ele>2018.47</ele>
        <time>2022-10-08T13:18:53Z</time>
      </trkpt>
      <trkpt lat="44.48349" lon="6.68037">
        <ele>2018.36</ele>
        <time>2022-10-08T13:18:54Z</time>
      </trkpt>
      <trkpt lat="44.48347" lon="6.68046">
        <ele>2017.42</ele>
        <time>2022-10-08T13:18:55Z</time>
      </trkpt>
      <trkpt lat="44.48343" lon="6.68055">
        <ele>2017.36</ele>
        <time>2022-10-08T13:18:56Z</time>
      </trkpt>
      <trkpt lat="44.48338" lon="6.68063">
        <ele>2015.93</ele>
        <time>2022-10-08T13:18:57Z</time>
      </trkpt>
      <trkpt lat="44.48333" lon="6.68072">
        <ele>2015.82</ele>
        <time>2022-10-08T13:18:58Z</time>
      </trkpt>
      <trkpt lat="44.48324" lon="6.6809">
        <ele>2013.73</ele>
        <time>2022-10-08T13:19:00Z</time>
      </trkpt>
      <trkpt lat="44.48321" lon="6.68098">
        <ele>2013.73</ele>
        <time>2022-10-08T13:19:01Z</time>
      </trkpt>
      <trkpt lat="44.48319" lon="6.68107">
        <ele>2012.49</ele>
        <time>2022-10-08T13:19:02Z</time>
      </trkpt>
      <trkpt lat="44.48319" lon="6.68115">
        <ele>2011.7</ele>
        <time>2022-10-08T13:19:03Z</time>
      </trkpt>
      <trkpt lat="44.48319" lon="6.68123">
        <ele>2011.63</ele>
        <time>2022-10-08T13:19:04Z</time>
      </trkpt>
      <trkpt lat="44.4832" lon="6.68131">
        <ele>2010.64</ele>
        <time>2022-10-08T13:19:05Z</time>
      </trkpt>
      <trkpt lat="44.48321" lon="6.6814">
        <ele>2009.49</ele>
        <time>2022-10-08T13:19:06Z</time>
      </trkpt>
      <trkpt lat="44.4832" lon="6.68147">
        <ele>2009.34</ele>
        <time>2022-10-08T13:19:07Z</time>
      </trkpt>
      <trkpt lat="44.4832" lon="6.68154">
        <ele>2008.56</ele>
        <time>2022-10-08T13:19:08Z</time>
      </trkpt>
      <trkpt lat="44.48319" lon="6.6816">
        <ele>2008.49</ele>
        <time>2022-10-08T13:19:09Z</time>
      </trkpt>
      <trkpt lat="44.48318" lon="6.68167">
        <ele>2007.01</ele>
        <time>2022-10-08T13:19:10Z</time>
      </trkpt>
      <trkpt lat="44.48315" lon="6.68174">
        <ele>2006.97</ele>
        <time>2022-10-08T13:19:11Z</time>
      </trkpt>
      <trkpt lat="44.48311" lon="6.68181">
        <ele>2006.97</ele>
        <time>2022-10-08T13:19:12Z</time>
      </trkpt>
      <trkpt lat="44.48303" lon="6.68197">
        <ele>2004.45</ele>
        <time>2022-10-08T13:19:14Z</time>
      </trkpt>
      <trkpt lat="44.48299" lon="6.68207">
        <ele>2004.48</ele>
        <time>2022-10-08T13:19:15Z</time>
      </trkpt>
      <trkpt lat="44.48294" lon="6.68226">
        <ele>2001.81</ele>
        <time>2022-10-08T13:19:17Z</time>
      </trkpt>
      <trkpt lat="44.48292" lon="6.68235">
        <ele>2001.78</ele>
        <time>2022-10-08T13:19:18Z</time>
      </trkpt>
      <trkpt lat="44.48292" lon="6.68245">
        <ele>1999.82</ele>
        <time>2022-10-08T13:19:19Z</time>
      </trkpt>
      <trkpt lat="44.4829" lon="6.68254">
        <ele>1999.89</ele>
        <time>2022-10-08T13:19:20Z</time>
      </trkpt>
      <trkpt lat="44.48287" lon="6.68263">
        <ele>1998.3</ele>
        <time>2022-10-08T13:19:21Z</time>
      </trkpt>
      <trkpt lat="44.48284" lon="6.68274">
        <ele>1998.32</ele>
        <time>2022-10-08T13:19:22Z</time>
      </trkpt>
      <trkpt lat="44.48271" lon="6.68319">
        <ele>1995.72</ele>
        <time>2022-10-08T13:19:25Z</time>
      </trkpt>
      <trkpt lat="44.48269" lon="6.68334">
        <ele>1994.22</ele>
        <time>2022-10-08T13:19:26Z</time>
      </trkpt>
      <trkpt lat="44.48268" lon="6.68348">
        <ele>1993.16</ele>
        <time>2022-10-08T13:19:27Z</time>
      </trkpt>
      <trkpt lat="44.48267" lon="6.68361">
        <ele>1991.89</ele>
        <time>2022-10-08T13:19:28Z</time>
      </trkpt>
      <trkpt lat="44.48267" lon="6.68373">
        <ele>1990.8</ele>
        <time>2022-10-08T13:19:29Z</time>
      </trkpt>
      <trkpt lat="44.48268" lon="6.68385">
        <ele>1989.18</ele>
        <time>2022-10-08T13:19:30Z</time>
      </trkpt>
      <trkpt lat="44.48268" lon="6.68407">
        <ele>1988.02</ele>
        <time>2022-10-08T13:19:32Z</time>
      </trkpt>
      <trkpt lat="44.48266" lon="6.68425">
        <ele>1985.82</ele>
        <time>2022-10-08T13:19:34Z</time>
      </trkpt>
      <trkpt lat="44.48263" lon="6.68434">
        <ele>1984.67</ele>
        <time>2022-10-08T13:19:35Z</time>
      </trkpt>
      <trkpt lat="44.4826" lon="6.68443">
        <ele>1983.54</ele>
        <time>2022-10-08T13:19:36Z</time>
      </trkpt>
      <trkpt lat="44.48257" lon="6.68452">
        <ele>1983.55</ele>
        <time>2022-10-08T13:19:37Z</time>
      </trkpt>
      <trkpt lat="44.48248" lon="6.68477">
        <ele>1981.6</ele>
        <time>2022-10-08T13:19:40Z</time>
      </trkpt>
      <trkpt lat="44.48244" lon="6.68484">
        <ele>1980.39</ele>
        <time>2022-10-08T13:19:41Z</time>
      </trkpt>
      <trkpt lat="44.4824" lon="6.6849">
        <ele>1980.28</ele>
        <time>2022-10-08T13:19:42Z</time>
      </trkpt>
      <trkpt lat="44.48235" lon="6.68498">
        <ele>1978.27</ele>
        <time>2022-10-08T13:19:43Z</time>
      </trkpt>
      <trkpt lat="44.48231" lon="6.68506">
        <ele>1978.17</ele>
        <time>2022-10-08T13:19:44Z</time>
      </trkpt>
      <trkpt lat="44.48224" lon="6.6852">
        <ele>1977.03</ele>
        <time>2022-10-08T13:19:46Z</time>
      </trkpt>
      <trkpt lat="44.48219" lon="6.68527">
        <ele>1975.91</ele>
        <time>2022-10-08T13:19:47Z</time>
      </trkpt>
      <trkpt lat="44.48215" lon="6.68534">
        <ele>1975.94</ele>
        <time>2022-10-08T13:19:48Z</time>
      </trkpt>
      <trkpt lat="44.48208" lon="6.68549">
        <ele>1974.73</ele>
        <time>2022-10-08T13:19:50Z</time>
      </trkpt>
      <trkpt lat="44.48201" lon="6.68565">
        <ele>1973.32</ele>
        <time>2022-10-08T13:19:52Z</time>
      </trkpt>
      <trkpt lat="44.482" lon="6.68572">
        <ele>1971.82</ele>
        <time>2022-10-08T13:19:53Z</time>
      </trkpt>
      <trkpt lat="44.48198" lon="6.6858">
        <ele>1970.85</ele>
        <time>2022-10-08T13:19:54Z</time>
      </trkpt>
      <trkpt lat="44.48196" lon="6.68587">
        <ele>1970.85</ele>
        <time>2022-10-08T13:19:55Z</time>
      </trkpt>
      <trkpt lat="44.48193" lon="6.68602">
        <ele>1969.88</ele>
        <time>2022-10-08T13:19:57Z</time>
      </trkpt>
      <trkpt lat="44.48188" lon="6.68615">
        <ele>1968.22</ele>
        <time>2022-10-08T13:19:59Z</time>
      </trkpt>
      <trkpt lat="44.48185" lon="6.68631">
        <ele>1966.36</ele>
        <time>2022-10-08T13:20:01Z</time>
      </trkpt>
      <trkpt lat="44.48185" lon="6.6864">
        <ele>1966.29</ele>
        <time>2022-10-08T13:20:02Z</time>
      </trkpt>
      <trkpt lat="44.48184" lon="6.68668">
        <ele>1964.03</ele>
        <time>2022-10-08T13:20:05Z</time>
      </trkpt>
      <trkpt lat="44.48182" lon="6.68678">
        <ele>1964.01</ele>
        <time>2022-10-08T13:20:06Z</time>
      </trkpt>
      <trkpt lat="44.4818" lon="6.68688">
        <ele>1962.07</ele>
        <time>2022-10-08T13:20:07Z</time>
      </trkpt>
      <trkpt lat="44.48177" lon="6.68697">
        <ele>1962.07</ele>
        <time>2022-10-08T13:20:08Z</time>
      </trkpt>
      <trkpt lat="44.4817" lon="6.68716">
        <ele>1960.89</ele>
        <time>2022-10-08T13:20:10Z</time>
      </trkpt>
      <trkpt lat="44.48167" lon="6.68725">
        <ele>1959.5</ele>
        <time>2022-10-08T13:20:11Z</time>
      </trkpt>
      <trkpt lat="44.48164" lon="6.68733">
        <ele>1957.94</ele>
        <time>2022-10-08T13:20:12Z</time>
      </trkpt>
      <trkpt lat="44.48164" lon="6.68742">
        <ele>1957.97</ele>
        <time>2022-10-08T13:20:13Z</time>
      </trkpt>
      <trkpt lat="44.48161" lon="6.6875">
        <ele>1957.95</ele>
        <time>2022-10-08T13:20:14Z</time>
      </trkpt>
      <trkpt lat="44.48159" lon="6.68758">
        <ele>1957.94</ele>
        <time>2022-10-08T13:20:15Z</time>
      </trkpt>
      <trkpt lat="44.48152" lon="6.68779">
        <ele>1954.25</ele>
        <time>2022-10-08T13:20:18Z</time>
      </trkpt>
      <trkpt lat="44.48149" lon="6.68786">
        <ele>1953.32</ele>
        <time>2022-10-08T13:20:19Z</time>
      </trkpt>
      <trkpt lat="44.48141" lon="6.68797">
        <ele>1953.3</ele>
        <time>2022-10-08T13:20:21Z</time>
      </trkpt>
      <trkpt lat="44.48137" lon="6.68802">
        <ele>1951.64</ele>
        <time>2022-10-08T13:20:22Z</time>
      </trkpt>
      <trkpt lat="44.48126" lon="6.68812">
        <ele>1950.77</ele>
        <time>2022-10-08T13:20:24Z</time>
      </trkpt>
      <trkpt lat="44.48119" lon="6.68817">
        <ele>1949.75</ele>
        <time>2022-10-08T13:20:25Z</time>
      </trkpt>
      <trkpt lat="44.48106" lon="6.68824">
        <ele>1948.83</ele>
        <time>2022-10-08T13:20:27Z</time>
      </trkpt>
      <trkpt lat="44.48093" lon="6.6883">
        <ele>1946.53</ele>
        <time>2022-10-08T13:20:29Z</time>
      </trkpt>
      <trkpt lat="44.48089" lon="6.68834">
        <ele>1946.47</ele>
        <time>2022-10-08T13:20:30Z</time>
      </trkpt>
      <trkpt lat="44.48084" lon="6.68841">
        <ele>1944.64</ele>
        <time>2022-10-08T13:20:31Z</time>
      </trkpt>
      <trkpt lat="44.4808" lon="6.68849">
        <ele>1944.7</ele>
        <time>2022-10-08T13:20:32Z</time>
      </trkpt>
      <trkpt lat="44.48077" lon="6.68858">
        <ele>1944.61</ele>
        <time>2022-10-08T13:20:33Z</time>
      </trkpt>
      <trkpt lat="44.48074" lon="6.68868">
        <ele>1942.85</ele>
        <time>2022-10-08T13:20:34Z</time>
      </trkpt>
      <trkpt lat="44.48071" lon="6.68876">
        <ele>1942.87</ele>
        <time>2022-10-08T13:20:35Z</time>
      </trkpt>
      <trkpt lat="44.48066" lon="6.68885">
        <ele>1941.99</ele>
        <time>2022-10-08T13:20:36Z</time>
      </trkpt>
      <trkpt lat="44.48055" lon="6.68901">
        <ele>1940.94</ele>
        <time>2022-10-08T13:20:38Z</time>
      </trkpt>
      <trkpt lat="44.48048" lon="6.68907">
        <ele>1940.82</ele>
        <time>2022-10-08T13:20:39Z</time>
      </trkpt>
      <trkpt lat="44.4804" lon="6.68911">
        <ele>1940.04</ele>
        <time>2022-10-08T13:20:40Z</time>
      </trkpt>
      <trkpt lat="44.48034" lon="6.68914">
        <ele>1940.01</ele>
        <time>2022-10-08T13:20:41Z</time>
      </trkpt>
      <trkpt lat="44.48028" lon="6.68916">
        <ele>1938.86</ele>
        <time>2022-10-08T13:20:42Z</time>
      </trkpt>
      <trkpt lat="44.48024" lon="6.68917">
        <ele>1938.55</ele>
        <time>2022-10-08T13:20:43Z</time>
      </trkpt>
      <trkpt lat="44.48022" lon="6.68918">
        <ele>1937.99</ele>
        <time>2022-10-08T13:20:44Z</time>
      </trkpt>
      <trkpt lat="44.48021" lon="6.6892">
        <ele>1938.51</ele>
        <time>2022-10-08T13:20:45Z</time>
      </trkpt>
      <trkpt lat="44.48021" lon="6.68925">
        <ele>1937.51</ele>
        <time>2022-10-08T13:20:46Z</time>
      </trkpt>
      <trkpt lat="44.48024" lon="6.68927">
        <ele>1937.49</ele>
        <time>2022-10-08T13:20:47Z</time>
      </trkpt>
      <trkpt lat="44.48027" lon="6.68928">
        <ele>1937.48</ele>
        <time>2022-10-08T13:20:48Z</time>
      </trkpt>
      <trkpt lat="44.48031" lon="6.68926">
        <ele>1937.43</ele>
        <time>2022-10-08T13:20:49Z</time>
      </trkpt>
      <trkpt lat="44.48036" lon="6.68924">
        <ele>1937.41</ele>
        <time>2022-10-08T13:20:50Z</time>
      </trkpt>
      <trkpt lat="44.48049" lon="6.68918">
        <ele>1936.57</ele>
        <time>2022-10-08T13:20:52Z</time>
      </trkpt>
      <trkpt lat="44.4808" lon="6.68904">
        <ele>1934.53</ele>
        <time>2022-10-08T13:20:57Z</time>
      </trkpt>
      <trkpt lat="44.48096" lon="6.68896">
        <ele>1932.44</ele>
        <time>2022-10-08T13:21:00Z</time>
      </trkpt>
      <trkpt lat="44.48102" lon="6.68893">
        <ele>1931.13</ele>
        <time>2022-10-08T13:21:01Z</time>
      </trkpt>
      <trkpt lat="44.48108" lon="6.68891">
        <ele>1929.91</ele>
        <time>2022-10-08T13:21:02Z</time>
      </trkpt>
      <trkpt lat="44.48113" lon="6.6889">
        <ele>1929.89</ele>
        <time>2022-10-08T13:21:03Z</time>
      </trkpt>
      <trkpt lat="44.48119" lon="6.6889">
        <ele>1929.06</ele>
        <time>2022-10-08T13:21:04Z</time>
      </trkpt>
      <trkpt lat="44.48145" lon="6.6889">
        <ele>1926.44</ele>
        <time>2022-10-08T13:21:08Z</time>
      </trkpt>
      <trkpt lat="44.48151" lon="6.68889">
        <ele>1925.14</ele>
        <time>2022-10-08T13:21:09Z</time>
      </trkpt>
      <trkpt lat="44.48158" lon="6.68888">
        <ele>1925.11</ele>
        <time>2022-10-08T13:21:10Z</time>
      </trkpt>
      <trkpt lat="44.48165" lon="6.68886">
        <ele>1924.45</ele>
        <time>2022-10-08T13:21:11Z</time>
      </trkpt>
      <trkpt lat="44.48172" lon="6.68884">
        <ele>1924.37</ele>
        <time>2022-10-08T13:21:12Z</time>
      </trkpt>
      <trkpt lat="44.48178" lon="6.68883">
        <ele>1922.69</ele>
        <time>2022-10-08T13:21:13Z</time>
      </trkpt>
      <trkpt lat="44.48185" lon="6.68881">
        <ele>1922.75</ele>
        <time>2022-10-08T13:21:14Z</time>
      </trkpt>
      <trkpt lat="44.48205" lon="6.68876">
        <ele>1920.03</ele>
        <time>2022-10-08T13:21:17Z</time>
      </trkpt>
      <trkpt lat="44.48211" lon="6.68872">
        <ele>1918.55</ele>
        <time>2022-10-08T13:21:18Z</time>
      </trkpt>
      <trkpt lat="44.48216" lon="6.68868">
        <ele>1918.47</ele>
        <time>2022-10-08T13:21:19Z</time>
      </trkpt>
      <trkpt lat="44.48221" lon="6.68863">
        <ele>1917.26</ele>
        <time>2022-10-08T13:21:20Z</time>
      </trkpt>
      <trkpt lat="44.48226" lon="6.68858">
        <ele>1916.21</ele>
        <time>2022-10-08T13:21:21Z</time>
      </trkpt>
      <trkpt lat="44.48232" lon="6.68854">
        <ele>1916.12</ele>
        <time>2022-10-08T13:21:22Z</time>
      </trkpt>
      <trkpt lat="44.48237" lon="6.6885">
        <ele>1915.13</ele>
        <time>2022-10-08T13:21:23Z</time>
      </trkpt>
      <trkpt lat="44.48241" lon="6.68845">
        <ele>1915.13</ele>
        <time>2022-10-08T13:21:24Z</time>
      </trkpt>
      <trkpt lat="44.48244" lon="6.68841">
        <ele>1914.05</ele>
        <time>2022-10-08T13:21:25Z</time>
      </trkpt>
      <trkpt lat="44.4825" lon="6.68831">
        <ele>1913</ele>
        <time>2022-10-08T13:21:27Z</time>
      </trkpt>
      <trkpt lat="44.48254" lon="6.68828">
        <ele>1912.24</ele>
        <time>2022-10-08T13:21:28Z</time>
      </trkpt>
      <trkpt lat="44.48265" lon="6.68822">
        <ele>1911.05</ele>
        <time>2022-10-08T13:21:30Z</time>
      </trkpt>
      <trkpt lat="44.4827" lon="6.68817">
        <ele>1910.96</ele>
        <time>2022-10-08T13:21:31Z</time>
      </trkpt>
      <trkpt lat="44.48274" lon="6.68811">
        <ele>1909.71</ele>
        <time>2022-10-08T13:21:32Z</time>
      </trkpt>
      <trkpt lat="44.48283" lon="6.68799">
        <ele>1908.51</ele>
        <time>2022-10-08T13:21:34Z</time>
      </trkpt>
      <trkpt lat="44.48289" lon="6.68794">
        <ele>1907.81</ele>
        <time>2022-10-08T13:21:35Z</time>
      </trkpt>
      <trkpt lat="44.48293" lon="6.68789">
        <ele>1906.81</ele>
        <time>2022-10-08T13:21:36Z</time>
      </trkpt>
      <trkpt lat="44.48297" lon="6.68784">
        <ele>1905.4</ele>
        <time>2022-10-08T13:21:37Z</time>
      </trkpt>
      <trkpt lat="44.48299" lon="6.68777">
        <ele>1905.38</ele>
        <time>2022-10-08T13:21:38Z</time>
      </trkpt>
      <trkpt lat="44.483" lon="6.68771">
        <ele>1903.82</ele>
        <time>2022-10-08T13:21:39Z</time>
      </trkpt>
      <trkpt lat="44.483" lon="6.68763">
        <ele>1903.74</ele>
        <time>2022-10-08T13:21:40Z</time>
      </trkpt>
      <trkpt lat="44.48301" lon="6.68755">
        <ele>1902.92</ele>
        <time>2022-10-08T13:21:41Z</time>
      </trkpt>
      <trkpt lat="44.48302" lon="6.68747">
        <ele>1902.9</ele>
        <time>2022-10-08T13:21:42Z</time>
      </trkpt>
      <trkpt lat="44.48303" lon="6.68739">
        <ele>1901.49</ele>
        <time>2022-10-08T13:21:43Z</time>
      </trkpt>
      <trkpt lat="44.48304" lon="6.68731">
        <ele>1900.18</ele>
        <time>2022-10-08T13:21:44Z</time>
      </trkpt>
      <trkpt lat="44.48306" lon="6.68724">
        <ele>1900.11</ele>
        <time>2022-10-08T13:21:45Z</time>
      </trkpt>
      <trkpt lat="44.48311" lon="6.68715">
        <ele>1899.18</ele>
        <time>2022-10-08T13:21:47Z</time>
      </trkpt>
      <trkpt lat="44.48315" lon="6.68713">
        <ele>1899.15</ele>
        <time>2022-10-08T13:21:48Z</time>
      </trkpt>
      <trkpt lat="44.48318" lon="6.68713">
        <ele>1897.94</ele>
        <time>2022-10-08T13:21:49Z</time>
      </trkpt>
      <trkpt lat="44.48321" lon="6.68717">
        <ele>1897.89</ele>
        <time>2022-10-08T13:21:50Z</time>
      </trkpt>
      <trkpt lat="44.48321" lon="6.68722">
        <ele>1897.82</ele>
        <time>2022-10-08T13:21:51Z</time>
      </trkpt>
      <trkpt lat="44.4832" lon="6.68728">
        <ele>1896.33</ele>
        <time>2022-10-08T13:21:52Z</time>
      </trkpt>
      <trkpt lat="44.48319" lon="6.68736">
        <ele>1896.29</ele>
        <time>2022-10-08T13:21:53Z</time>
      </trkpt>
      <trkpt lat="44.48318" lon="6.68746">
        <ele>1896.26</ele>
        <time>2022-10-08T13:21:54Z</time>
      </trkpt>
      <trkpt lat="44.48317" lon="6.68756">
        <ele>1895.37</ele>
        <time>2022-10-08T13:21:55Z</time>
      </trkpt>
      <trkpt lat="44.48317" lon="6.68766">
        <ele>1895.35</ele>
        <time>2022-10-08T13:21:56Z</time>
      </trkpt>
      <trkpt lat="44.48317" lon="6.68776">
        <ele>1893.51</ele>
        <time>2022-10-08T13:21:57Z</time>
      </trkpt>
      <trkpt lat="44.48316" lon="6.68786">
        <ele>1893.49</ele>
        <time>2022-10-08T13:21:58Z</time>
      </trkpt>
      <trkpt lat="44.48314" lon="6.68794">
        <ele>1892.16</ele>
        <time>2022-10-08T13:21:59Z</time>
      </trkpt>
      <trkpt lat="44.48311" lon="6.68801">
        <ele>1891.59</ele>
        <time>2022-10-08T13:22:00Z</time>
      </trkpt>
      <trkpt lat="44.48306" lon="6.68809">
        <ele>1890.76</ele>
        <time>2022-10-08T13:22:01Z</time>
      </trkpt>
      <trkpt lat="44.48302" lon="6.68817">
        <ele>1889.81</ele>
        <time>2022-10-08T13:22:02Z</time>
      </trkpt>
      <trkpt lat="44.48299" lon="6.68826">
        <ele>1889.78</ele>
        <time>2022-10-08T13:22:03Z</time>
      </trkpt>
      <trkpt lat="44.48297" lon="6.68836">
        <ele>1887.95</ele>
        <time>2022-10-08T13:22:04Z</time>
      </trkpt>
      <trkpt lat="44.48293" lon="6.68844">
        <ele>1887.92</ele>
        <time>2022-10-08T13:22:05Z</time>
      </trkpt>
      <trkpt lat="44.48289" lon="6.68852">
        <ele>1886.67</ele>
        <time>2022-10-08T13:22:06Z</time>
      </trkpt>
      <trkpt lat="44.48286" lon="6.68859">
        <ele>1886.66</ele>
        <time>2022-10-08T13:22:07Z</time>
      </trkpt>
      <trkpt lat="44.48279" lon="6.68874">
        <ele>1884.62</ele>
        <time>2022-10-08T13:22:09Z</time>
      </trkpt>
      <trkpt lat="44.48277" lon="6.68883">
        <ele>1883.79</ele>
        <time>2022-10-08T13:22:10Z</time>
      </trkpt>
      <trkpt lat="44.48272" lon="6.68899">
        <ele>1882.56</ele>
        <time>2022-10-08T13:22:12Z</time>
      </trkpt>
      <trkpt lat="44.48268" lon="6.68913">
        <ele>1881.07</ele>
        <time>2022-10-08T13:22:14Z</time>
      </trkpt>
      <trkpt lat="44.48263" lon="6.68927">
        <ele>1879.55</ele>
        <time>2022-10-08T13:22:16Z</time>
      </trkpt>
      <trkpt lat="44.4826" lon="6.68934">
        <ele>1878.57</ele>
        <time>2022-10-08T13:22:17Z</time>
      </trkpt>
      <trkpt lat="44.48257" lon="6.68939">
        <ele>1878.59</ele>
        <time>2022-10-08T13:22:18Z</time>
      </trkpt>
      <trkpt lat="44.48253" lon="6.68944">
        <ele>1877.27</ele>
        <time>2022-10-08T13:22:19Z</time>
      </trkpt>
      <trkpt lat="44.48248" lon="6.68949">
        <ele>1877.18</ele>
        <time>2022-10-08T13:22:20Z</time>
      </trkpt>
      <trkpt lat="44.48242" lon="6.68954">
        <ele>1876.04</ele>
        <time>2022-10-08T13:22:21Z</time>
      </trkpt>
      <trkpt lat="44.48235" lon="6.6896">
        <ele>1876.06</ele>
        <time>2022-10-08T13:22:22Z</time>
      </trkpt>
      <trkpt lat="44.48223" lon="6.68971">
        <ele>1875.01</ele>
        <time>2022-10-08T13:22:24Z</time>
      </trkpt>
      <trkpt lat="44.48218" lon="6.68977">
        <ele>1873.47</ele>
        <time>2022-10-08T13:22:25Z</time>
      </trkpt>
      <trkpt lat="44.48213" lon="6.68984">
        <ele>1872.65</ele>
        <time>2022-10-08T13:22:26Z</time>
      </trkpt>
      <trkpt lat="44.48208" lon="6.6899">
        <ele>1871.25</ele>
        <time>2022-10-08T13:22:27Z</time>
      </trkpt>
      <trkpt lat="44.48202" lon="6.68995">
        <ele>1871.22</ele>
        <time>2022-10-08T13:22:28Z</time>
      </trkpt>
      <trkpt lat="44.48186" lon="6.69009">
        <ele>1868.89</ele>
        <time>2022-10-08T13:22:31Z</time>
      </trkpt>
      <trkpt lat="44.48179" lon="6.69013">
        <ele>1867.77</ele>
        <time>2022-10-08T13:22:32Z</time>
      </trkpt>
      <trkpt lat="44.48171" lon="6.69016">
        <ele>1867.69</ele>
        <time>2022-10-08T13:22:33Z</time>
      </trkpt>
      <trkpt lat="44.48164" lon="6.69017">
        <ele>1866.19</ele>
        <time>2022-10-08T13:22:34Z</time>
      </trkpt>
      <trkpt lat="44.48158" lon="6.69019">
        <ele>1866.1</ele>
        <time>2022-10-08T13:22:35Z</time>
      </trkpt>
      <trkpt lat="44.48151" lon="6.69023">
        <ele>1864.76</ele>
        <time>2022-10-08T13:22:36Z</time>
      </trkpt>
      <trkpt lat="44.48145" lon="6.69026">
        <ele>1863.78</ele>
        <time>2022-10-08T13:22:37Z</time>
      </trkpt>
      <trkpt lat="44.48138" lon="6.6903">
        <ele>1863.75</ele>
        <time>2022-10-08T13:22:38Z</time>
      </trkpt>
      <trkpt lat="44.48132" lon="6.69034">
        <ele>1861.99</ele>
        <time>2022-10-08T13:22:39Z</time>
      </trkpt>
      <trkpt lat="44.48125" lon="6.69038">
        <ele>1861.89</ele>
        <time>2022-10-08T13:22:40Z</time>
      </trkpt>
      <trkpt lat="44.48111" lon="6.69048">
        <ele>1859.94</ele>
        <time>2022-10-08T13:22:42Z</time>
      </trkpt>
      <trkpt lat="44.48105" lon="6.69054">
        <ele>1858.82</ele>
        <time>2022-10-08T13:22:43Z</time>
      </trkpt>
      <trkpt lat="44.48085" lon="6.69075">
        <ele>1855.77</ele>
        <time>2022-10-08T13:22:46Z</time>
      </trkpt>
      <trkpt lat="44.48077" lon="6.69082">
        <ele>1855.78</ele>
        <time>2022-10-08T13:22:47Z</time>
      </trkpt>
      <trkpt lat="44.48071" lon="6.69089">
        <ele>1854.67</ele>
        <time>2022-10-08T13:22:48Z</time>
      </trkpt>
      <trkpt lat="44.48066" lon="6.69093">
        <ele>1853.58</ele>
        <time>2022-10-08T13:22:49Z</time>
      </trkpt>
      <trkpt lat="44.48061" lon="6.69098">
        <ele>1853.37</ele>
        <time>2022-10-08T13:22:50Z</time>
      </trkpt>
      <trkpt lat="44.48043" lon="6.69112">
        <ele>1850.95</ele>
        <time>2022-10-08T13:22:53Z</time>
      </trkpt>
      <trkpt lat="44.48027" lon="6.69127">
        <ele>1847.99</ele>
        <time>2022-10-08T13:22:56Z</time>
      </trkpt>
      <trkpt lat="44.48026" lon="6.69132">
        <ele>1847.98</ele>
        <time>2022-10-08T13:22:57Z</time>
      </trkpt>
      <trkpt lat="44.48026" lon="6.69137">
        <ele>1847.95</ele>
        <time>2022-10-08T13:22:58Z</time>
      </trkpt>
      <trkpt lat="44.48027" lon="6.69149">
        <ele>1846.25</ele>
        <time>2022-10-08T13:23:00Z</time>
      </trkpt>
      <trkpt lat="44.48028" lon="6.69155">
        <ele>1845.18</ele>
        <time>2022-10-08T13:23:01Z</time>
      </trkpt>
      <trkpt lat="44.4803" lon="6.69161">
        <ele>1845.17</ele>
        <time>2022-10-08T13:23:02Z</time>
      </trkpt>
      <trkpt lat="44.48034" lon="6.69166">
        <ele>1845.17</ele>
        <time>2022-10-08T13:23:03Z</time>
      </trkpt>
      <trkpt lat="44.48039" lon="6.69171">
        <ele>1845.17</ele>
        <time>2022-10-08T13:23:04Z</time>
      </trkpt>
      <trkpt lat="44.48044" lon="6.69176">
        <ele>1845.07</ele>
        <time>2022-10-08T13:23:05Z</time>
      </trkpt>
      <trkpt lat="44.48059" lon="6.69195">
        <ele>1843.69</ele>
        <time>2022-10-08T13:23:08Z</time>
      </trkpt>
      <trkpt lat="44.48063" lon="6.69201">
        <ele>1843.65</ele>
        <time>2022-10-08T13:23:09Z</time>
      </trkpt>
      <trkpt lat="44.48068" lon="6.69206">
        <ele>1842.83</ele>
        <time>2022-10-08T13:23:10Z</time>
      </trkpt>
      <trkpt lat="44.48078" lon="6.69216">
        <ele>1842.79</ele>
        <time>2022-10-08T13:23:12Z</time>
      </trkpt>
      <trkpt lat="44.48115" lon="6.69272">
        <ele>1839.03</ele>
        <time>2022-10-08T13:23:19Z</time>
      </trkpt>
      <trkpt lat="44.4812" lon="6.69281">
        <ele>1839</ele>
        <time>2022-10-08T13:23:20Z</time>
      </trkpt>
      <trkpt lat="44.48125" lon="6.69289">
        <ele>1837.83</ele>
        <time>2022-10-08T13:23:21Z</time>
      </trkpt>
      <trkpt lat="44.48128" lon="6.69297">
        <ele>1837.81</ele>
        <time>2022-10-08T13:23:22Z</time>
      </trkpt>
      <trkpt lat="44.48133" lon="6.69312">
        <ele>1836.03</ele>
        <time>2022-10-08T13:23:24Z</time>
      </trkpt>
      <trkpt lat="44.48132" lon="6.6932">
        <ele>1835.99</ele>
        <time>2022-10-08T13:23:25Z</time>
      </trkpt>
      <trkpt lat="44.4813" lon="6.69329">
        <ele>1834.3</ele>
        <time>2022-10-08T13:23:26Z</time>
      </trkpt>
      <trkpt lat="44.48126" lon="6.69339">
        <ele>1834.28</ele>
        <time>2022-10-08T13:23:27Z</time>
      </trkpt>
      <trkpt lat="44.48121" lon="6.69351">
        <ele>1834.21</ele>
        <time>2022-10-08T13:23:28Z</time>
      </trkpt>
      <trkpt lat="44.48118" lon="6.69366">
        <ele>1834.22</ele>
        <time>2022-10-08T13:23:29Z</time>
      </trkpt>
      <trkpt lat="44.48116" lon="6.6938">
        <ele>1834.14</ele>
        <time>2022-10-08T13:23:30Z</time>
      </trkpt>
      <trkpt lat="44.48114" lon="6.69393">
        <ele>1832.81</ele>
        <time>2022-10-08T13:23:31Z</time>
      </trkpt>
      <trkpt lat="44.48113" lon="6.69404">
        <ele>1831.49</ele>
        <time>2022-10-08T13:23:32Z</time>
      </trkpt>
      <trkpt lat="44.4811" lon="6.69422">
        <ele>1830.6</ele>
        <time>2022-10-08T13:23:34Z</time>
      </trkpt>
      <trkpt lat="44.4811" lon="6.69431">
        <ele>1830.58</ele>
        <time>2022-10-08T13:23:35Z</time>
      </trkpt>
      <trkpt lat="44.48109" lon="6.69442">
        <ele>1830.51</ele>
        <time>2022-10-08T13:23:36Z</time>
      </trkpt>
      <trkpt lat="44.4811" lon="6.69452">
        <ele>1829.77</ele>
        <time>2022-10-08T13:23:37Z</time>
      </trkpt>
      <trkpt lat="44.48113" lon="6.69488">
        <ele>1827.44</ele>
        <time>2022-10-08T13:23:41Z</time>
      </trkpt>
      <trkpt lat="44.48114" lon="6.69495">
        <ele>1827.36</ele>
        <time>2022-10-08T13:23:42Z</time>
      </trkpt>
      <trkpt lat="44.48115" lon="6.69503">
        <ele>1826.46</ele>
        <time>2022-10-08T13:23:43Z</time>
      </trkpt>
      <trkpt lat="44.48117" lon="6.69512">
        <ele>1826.46</ele>
        <time>2022-10-08T13:23:44Z</time>
      </trkpt>
      <trkpt lat="44.4812" lon="6.69521">
        <ele>1825.6</ele>
        <time>2022-10-08T13:23:45Z</time>
      </trkpt>
      <trkpt lat="44.48121" lon="6.69532">
        <ele>1825.58</ele>
        <time>2022-10-08T13:23:46Z</time>
      </trkpt>
      <trkpt lat="44.48122" lon="6.69556">
        <ele>1824.7</ele>
        <time>2022-10-08T13:23:48Z</time>
      </trkpt>
      <trkpt lat="44.48131" lon="6.69621">
        <ele>1823.83</ele>
        <time>2022-10-08T13:23:53Z</time>
      </trkpt>
      <trkpt lat="44.48134" lon="6.69636">
        <ele>1823.82</ele>
        <time>2022-10-08T13:23:54Z</time>
      </trkpt>
      <trkpt lat="44.48137" lon="6.69653">
        <ele>1822.73</ele>
        <time>2022-10-08T13:23:55Z</time>
      </trkpt>
      <trkpt lat="44.48151" lon="6.69723">
        <ele>1821.34</ele>
        <time>2022-10-08T13:24:00Z</time>
      </trkpt>
      <trkpt lat="44.48153" lon="6.69734">
        <ele>1820.47</ele>
        <time>2022-10-08T13:24:01Z</time>
      </trkpt>
      <trkpt lat="44.48153" lon="6.69746">
        <ele>1820.5</ele>
        <time>2022-10-08T13:24:02Z</time>
      </trkpt>
      <trkpt lat="44.48152" lon="6.69788">
        <ele>1820.68</ele>
        <time>2022-10-08T13:24:05Z</time>
      </trkpt>
      <trkpt lat="44.48151" lon="6.69802">
        <ele>1820.67</ele>
        <time>2022-10-08T13:24:06Z</time>
      </trkpt>
      <trkpt lat="44.4815" lon="6.69816">
        <ele>1819.41</ele>
        <time>2022-10-08T13:24:07Z</time>
      </trkpt>
      <trkpt lat="44.48153" lon="6.6983">
        <ele>1819.41</ele>
        <time>2022-10-08T13:24:08Z</time>
      </trkpt>
      <trkpt lat="44.48155" lon="6.69842">
        <ele>1818.24</ele>
        <time>2022-10-08T13:24:09Z</time>
      </trkpt>
      <trkpt lat="44.48158" lon="6.69854">
        <ele>1818.27</ele>
        <time>2022-10-08T13:24:10Z</time>
      </trkpt>
      <trkpt lat="44.48161" lon="6.69865">
        <ele>1816.54</ele>
        <time>2022-10-08T13:24:11Z</time>
      </trkpt>
      <trkpt lat="44.48164" lon="6.69876">
        <ele>1816.52</ele>
        <time>2022-10-08T13:24:12Z</time>
      </trkpt>
      <trkpt lat="44.48168" lon="6.69886">
        <ele>1815.29</ele>
        <time>2022-10-08T13:24:13Z</time>
      </trkpt>
      <trkpt lat="44.48171" lon="6.69896">
        <ele>1814.47</ele>
        <time>2022-10-08T13:24:14Z</time>
      </trkpt>
      <trkpt lat="44.48173" lon="6.69906">
        <ele>1813.52</ele>
        <time>2022-10-08T13:24:15Z</time>
      </trkpt>
      <trkpt lat="44.48176" lon="6.69916">
        <ele>1813.46</ele>
        <time>2022-10-08T13:24:16Z</time>
      </trkpt>
      <trkpt lat="44.48179" lon="6.69935">
        <ele>1812.02</ele>
        <time>2022-10-08T13:24:18Z</time>
      </trkpt>
      <trkpt lat="44.4818" lon="6.69951">
        <ele>1810.65</ele>
        <time>2022-10-08T13:24:20Z</time>
      </trkpt>
      <trkpt lat="44.48181" lon="6.69959">
        <ele>1808.95</ele>
        <time>2022-10-08T13:24:21Z</time>
      </trkpt>
      <trkpt lat="44.4818" lon="6.69966">
        <ele>1808.94</ele>
        <time>2022-10-08T13:24:22Z</time>
      </trkpt>
      <trkpt lat="44.48178" lon="6.69974">
        <ele>1807.39</ele>
        <time>2022-10-08T13:24:23Z</time>
      </trkpt>
      <trkpt lat="44.48176" lon="6.69983">
        <ele>1807.39</ele>
        <time>2022-10-08T13:24:24Z</time>
      </trkpt>
      <trkpt lat="44.48174" lon="6.69993">
        <ele>1806.29</ele>
        <time>2022-10-08T13:24:25Z</time>
      </trkpt>
      <trkpt lat="44.48171" lon="6.70014">
        <ele>1805.48</ele>
        <time>2022-10-08T13:24:27Z</time>
      </trkpt>
      <trkpt lat="44.48171" lon="6.70025">
        <ele>1803.8</ele>
        <time>2022-10-08T13:24:28Z</time>
      </trkpt>
      <trkpt lat="44.48172" lon="6.70036">
        <ele>1803.8</ele>
        <time>2022-10-08T13:24:29Z</time>
      </trkpt>
      <trkpt lat="44.48174" lon="6.70046">
        <ele>1802.85</ele>
        <time>2022-10-08T13:24:30Z</time>
      </trkpt>
      <trkpt lat="44.48176" lon="6.70055">
        <ele>1802.85</ele>
        <time>2022-10-08T13:24:31Z</time>
      </trkpt>
      <trkpt lat="44.48177" lon="6.70063">
        <ele>1801.79</ele>
        <time>2022-10-08T13:24:32Z</time>
      </trkpt>
      <trkpt lat="44.4818" lon="6.70077">
        <ele>1801.09</ele>
        <time>2022-10-08T13:24:34Z</time>
      </trkpt>
      <trkpt lat="44.48179" lon="6.70084">
        <ele>1800.1</ele>
        <time>2022-10-08T13:24:35Z</time>
      </trkpt>
      <trkpt lat="44.48177" lon="6.70089">
        <ele>1800.03</ele>
        <time>2022-10-08T13:24:36Z</time>
      </trkpt>
      <trkpt lat="44.48173" lon="6.70095">
        <ele>1799.09</ele>
        <time>2022-10-08T13:24:37Z</time>
      </trkpt>
      <trkpt lat="44.48169" lon="6.701">
        <ele>1798.21</ele>
        <time>2022-10-08T13:24:38Z</time>
      </trkpt>
      <trkpt lat="44.48165" lon="6.70105">
        <ele>1798.22</ele>
        <time>2022-10-08T13:24:39Z</time>
      </trkpt>
      <trkpt lat="44.48162" lon="6.70111">
        <ele>1798.15</ele>
        <time>2022-10-08T13:24:40Z</time>
      </trkpt>
      <trkpt lat="44.48155" lon="6.70125">
        <ele>1796.75</ele>
        <time>2022-10-08T13:24:42Z</time>
      </trkpt>
      <trkpt lat="44.48153" lon="6.70132">
        <ele>1796.69</ele>
        <time>2022-10-08T13:24:43Z</time>
      </trkpt>
      <trkpt lat="44.48152" lon="6.7014">
        <ele>1795.45</ele>
        <time>2022-10-08T13:24:44Z</time>
      </trkpt>
      <trkpt lat="44.48151" lon="6.70148">
        <ele>1795.39</ele>
        <time>2022-10-08T13:24:45Z</time>
      </trkpt>
      <trkpt lat="44.48147" lon="6.7017">
        <ele>1795.4</ele>
        <time>2022-10-08T13:24:48Z</time>
      </trkpt>
      <trkpt lat="44.48146" lon="6.70186">
        <ele>1795.46</ele>
        <time>2022-10-08T13:24:50Z</time>
      </trkpt>
      <trkpt lat="44.48143" lon="6.70209">
        <ele>1794.69</ele>
        <time>2022-10-08T13:24:53Z</time>
      </trkpt>
      <trkpt lat="44.48142" lon="6.70216">
        <ele>1794.71</ele>
        <time>2022-10-08T13:24:54Z</time>
      </trkpt>
      <trkpt lat="44.4814" lon="6.70225">
        <ele>1794.75</ele>
        <time>2022-10-08T13:24:55Z</time>
      </trkpt>
      <trkpt lat="44.48136" lon="6.70242">
        <ele>1794.08</ele>
        <time>2022-10-08T13:24:57Z</time>
      </trkpt>
      <trkpt lat="44.48134" lon="6.7027">
        <ele>1793.2</ele>
        <time>2022-10-08T13:25:00Z</time>
      </trkpt>
      <trkpt lat="44.48134" lon="6.7028">
        <ele>1793.21</ele>
        <time>2022-10-08T13:25:01Z</time>
      </trkpt>
      <trkpt lat="44.48133" lon="6.7029">
        <ele>1793.21</ele>
        <time>2022-10-08T13:25:02Z</time>
      </trkpt>
      <trkpt lat="44.48131" lon="6.703">
        <ele>1791.77</ele>
        <time>2022-10-08T13:25:03Z</time>
      </trkpt>
      <trkpt lat="44.4813" lon="6.7031">
        <ele>1791.78</ele>
        <time>2022-10-08T13:25:04Z</time>
      </trkpt>
      <trkpt lat="44.48127" lon="6.7032">
        <ele>1791.78</ele>
        <time>2022-10-08T13:25:05Z</time>
      </trkpt>
      <trkpt lat="44.48125" lon="6.70331">
        <ele>1791.78</ele>
        <time>2022-10-08T13:25:06Z</time>
      </trkpt>
      <trkpt lat="44.48122" lon="6.70341">
        <ele>1790.6</ele>
        <time>2022-10-08T13:25:07Z</time>
      </trkpt>
      <trkpt lat="44.48115" lon="6.7036">
        <ele>1789.46</ele>
        <time>2022-10-08T13:25:09Z</time>
      </trkpt>
      <trkpt lat="44.48104" lon="6.70394">
        <ele>1787.95</ele>
        <time>2022-10-08T13:25:13Z</time>
      </trkpt>
      <trkpt lat="44.481" lon="6.704">
        <ele>1787.98</ele>
        <time>2022-10-08T13:25:14Z</time>
      </trkpt>
      <trkpt lat="44.48094" lon="6.70406">
        <ele>1787.95</ele>
        <time>2022-10-08T13:25:15Z</time>
      </trkpt>
      <trkpt lat="44.48076" lon="6.70428">
        <ele>1786.57</ele>
        <time>2022-10-08T13:25:18Z</time>
      </trkpt>
      <trkpt lat="44.48068" lon="6.70448">
        <ele>1785.68</ele>
        <time>2022-10-08T13:25:20Z</time>
      </trkpt>
      <trkpt lat="44.48061" lon="6.70468">
        <ele>1785.72</ele>
        <time>2022-10-08T13:25:22Z</time>
      </trkpt>
      <trkpt lat="44.48056" lon="6.70478">
        <ele>1785.27</ele>
        <time>2022-10-08T13:25:23Z</time>
      </trkpt>
      <trkpt lat="44.4805" lon="6.70489">
        <ele>1784.03</ele>
        <time>2022-10-08T13:25:24Z</time>
      </trkpt>
      <trkpt lat="44.48039" lon="6.70511">
        <ele>1783.15</ele>
        <time>2022-10-08T13:25:26Z</time>
      </trkpt>
      <trkpt lat="44.48033" lon="6.70522">
        <ele>1783.08</ele>
        <time>2022-10-08T13:25:27Z</time>
      </trkpt>
      <trkpt lat="44.48022" lon="6.70545">
        <ele>1781.71</ele>
        <time>2022-10-08T13:25:29Z</time>
      </trkpt>
      <trkpt lat="44.48015" lon="6.70556">
        <ele>1781.7</ele>
        <time>2022-10-08T13:25:30Z</time>
      </trkpt>
      <trkpt lat="44.48008" lon="6.70568">
        <ele>1780.83</ele>
        <time>2022-10-08T13:25:31Z</time>
      </trkpt>
      <trkpt lat="44.48003" lon="6.7058">
        <ele>1780.78</ele>
        <time>2022-10-08T13:25:32Z</time>
      </trkpt>
      <trkpt lat="44.47999" lon="6.70592">
        <ele>1779.87</ele>
        <time>2022-10-08T13:25:33Z</time>
      </trkpt>
      <trkpt lat="44.47997" lon="6.70606">
        <ele>1778.75</ele>
        <time>2022-10-08T13:25:34Z</time>
      </trkpt>
      <trkpt lat="44.47995" lon="6.70621">
        <ele>1778.81</ele>
        <time>2022-10-08T13:25:35Z</time>
      </trkpt>
      <trkpt lat="44.47995" lon="6.70637">
        <ele>1777.42</ele>
        <time>2022-10-08T13:25:36Z</time>
      </trkpt>
      <trkpt lat="44.47994" lon="6.70656">
        <ele>1777.43</ele>
        <time>2022-10-08T13:25:37Z</time>
      </trkpt>
      <trkpt lat="44.47994" lon="6.70716">
        <ele>1775.4</ele>
        <time>2022-10-08T13:25:41Z</time>
      </trkpt>
      <trkpt lat="44.47992" lon="6.70731">
        <ele>1774.6</ele>
        <time>2022-10-08T13:25:42Z</time>
      </trkpt>
      <trkpt lat="44.47992" lon="6.70748">
        <ele>1774.67</ele>
        <time>2022-10-08T13:25:43Z</time>
      </trkpt>
      <trkpt lat="44.47994" lon="6.70764">
        <ele>1774.73</ele>
        <time>2022-10-08T13:25:44Z</time>
      </trkpt>
      <trkpt lat="44.47996" lon="6.70779">
        <ele>1773.84</ele>
        <time>2022-10-08T13:25:45Z</time>
      </trkpt>
      <trkpt lat="44.47999" lon="6.7082">
        <ele>1771.62</ele>
        <time>2022-10-08T13:25:48Z</time>
      </trkpt>
      <trkpt lat="44.48" lon="6.70833">
        <ele>1770.88</ele>
        <time>2022-10-08T13:25:49Z</time>
      </trkpt>
      <trkpt lat="44.48001" lon="6.70846">
        <ele>1770.88</ele>
        <time>2022-10-08T13:25:50Z</time>
      </trkpt>
      <trkpt lat="44.48004" lon="6.70857">
        <ele>1770.89</ele>
        <time>2022-10-08T13:25:51Z</time>
      </trkpt>
      <trkpt lat="44.48008" lon="6.70867">
        <ele>1770.86</ele>
        <time>2022-10-08T13:25:52Z</time>
      </trkpt>
      <trkpt lat="44.48012" lon="6.70876">
        <ele>1769.35</ele>
        <time>2022-10-08T13:25:53Z</time>
      </trkpt>
      <trkpt lat="44.48017" lon="6.70886">
        <ele>1769.33</ele>
        <time>2022-10-08T13:25:54Z</time>
      </trkpt>
      <trkpt lat="44.48021" lon="6.70896">
        <ele>1769.32</ele>
        <time>2022-10-08T13:25:55Z</time>
      </trkpt>
      <trkpt lat="44.48024" lon="6.70908">
        <ele>1768.24</ele>
        <time>2022-10-08T13:25:56Z</time>
      </trkpt>
      <trkpt lat="44.48026" lon="6.7092">
        <ele>1768.22</ele>
        <time>2022-10-08T13:25:57Z</time>
      </trkpt>
      <trkpt lat="44.48028" lon="6.70934">
        <ele>1768.23</ele>
        <time>2022-10-08T13:25:58Z</time>
      </trkpt>
      <trkpt lat="44.48029" lon="6.7095">
        <ele>1767.23</ele>
        <time>2022-10-08T13:25:59Z</time>
      </trkpt>
      <trkpt lat="44.48032" lon="6.70969">
        <ele>1767.23</ele>
        <time>2022-10-08T13:26:00Z</time>
      </trkpt>
      <trkpt lat="44.48041" lon="6.71035">
        <ele>1765.93</ele>
        <time>2022-10-08T13:26:04Z</time>
      </trkpt>
      <trkpt lat="44.48042" lon="6.71048">
        <ele>1764.28</ele>
        <time>2022-10-08T13:26:05Z</time>
      </trkpt>
      <trkpt lat="44.48042" lon="6.7106">
        <ele>1764.28</ele>
        <time>2022-10-08T13:26:06Z</time>
      </trkpt>
      <trkpt lat="44.48041" lon="6.71083">
        <ele>1763.47</ele>
        <time>2022-10-08T13:26:08Z</time>
      </trkpt>
      <trkpt lat="44.48039" lon="6.71093">
        <ele>1762.67</ele>
        <time>2022-10-08T13:26:09Z</time>
      </trkpt>
      <trkpt lat="44.48034" lon="6.71114">
        <ele>1762.04</ele>
        <time>2022-10-08T13:26:11Z</time>
      </trkpt>
      <trkpt lat="44.4803" lon="6.71124">
        <ele>1762.04</ele>
        <time>2022-10-08T13:26:12Z</time>
      </trkpt>
      <trkpt lat="44.48027" lon="6.71132">
        <ele>1760.67</ele>
        <time>2022-10-08T13:26:13Z</time>
      </trkpt>
      <trkpt lat="44.48024" lon="6.7114">
        <ele>1760.68</ele>
        <time>2022-10-08T13:26:14Z</time>
      </trkpt>
      <trkpt lat="44.48017" lon="6.71157">
        <ele>1760.68</ele>
        <time>2022-10-08T13:26:17Z</time>
      </trkpt>
      <trkpt lat="44.48016" lon="6.71162">
        <ele>1759.74</ele>
        <time>2022-10-08T13:26:18Z</time>
      </trkpt>
      <trkpt lat="44.48015" lon="6.71164">
        <ele>1759.76</ele>
        <time>2022-10-08T13:26:19Z</time>
      </trkpt>
      <trkpt lat="44.48015" lon="6.71165">
        <ele>1759.95</ele>
        <time>2022-10-08T13:26:32Z</time>
      </trkpt>
      <trkpt lat="44.48014" lon="6.71165">
        <ele>1749.19</ele>
        <time>2022-10-08T13:26:52Z</time>
      </trkpt>
      <trkpt lat="44.4802" lon="6.71164">
        <ele>1760.21</ele>
        <time>2022-10-08T14:00:06Z</time>
      </trkpt>
      <trkpt lat="44.48015" lon="6.71164">
        <ele>1758.48</ele>
        <time>2022-10-08T14:00:18Z</time>
      </trkpt>
      <trkpt lat="44.47988" lon="6.7119">
        <ele>1758.07</ele>
        <time>2022-10-08T14:00:24Z</time>
      </trkpt>
      <trkpt lat="44.47982" lon="6.71198">
        <ele>1757.25</ele>
        <time>2022-10-08T14:00:25Z</time>
      </trkpt>
      <trkpt lat="44.47905" lon="6.7131">
        <ele>1756.8</ele>
        <time>2022-10-08T14:00:37Z</time>
      </trkpt>
      <trkpt lat="44.47891" lon="6.71329">
        <ele>1756.8</ele>
        <time>2022-10-08T14:00:39Z</time>
      </trkpt>
      <trkpt lat="44.47882" lon="6.71337">
        <ele>1759.56</ele>
        <time>2022-10-08T14:00:40Z</time>
      </trkpt>
      <trkpt lat="44.47873" lon="6.71346">
        <ele>1759.56</ele>
        <time>2022-10-08T14:00:41Z</time>
      </trkpt>
      <trkpt lat="44.47823" lon="6.714">
        <ele>1756.77</ele>
        <time>2022-10-08T14:00:47Z</time>
      </trkpt>
      <trkpt lat="44.47808" lon="6.71417">
        <ele>1755.72</ele>
        <time>2022-10-08T14:00:49Z</time>
      </trkpt>
      <trkpt lat="44.47799" lon="6.71424">
        <ele>1755.71</ele>
        <time>2022-10-08T14:00:50Z</time>
      </trkpt>
      <trkpt lat="44.4779" lon="6.71431">
        <ele>1755.69</ele>
        <time>2022-10-08T14:00:51Z</time>
      </trkpt>
      <trkpt lat="44.47781" lon="6.7144">
        <ele>1753.89</ele>
        <time>2022-10-08T14:00:52Z</time>
      </trkpt>
      <trkpt lat="44.47773" lon="6.71451">
        <ele>1753.84</ele>
        <time>2022-10-08T14:00:53Z</time>
      </trkpt>
      <trkpt lat="44.47765" lon="6.71461">
        <ele>1752.2</ele>
        <time>2022-10-08T14:00:54Z</time>
      </trkpt>
      <trkpt lat="44.47757" lon="6.71471">
        <ele>1751.18</ele>
        <time>2022-10-08T14:00:55Z</time>
      </trkpt>
      <trkpt lat="44.4775" lon="6.7148">
        <ele>1749.92</ele>
        <time>2022-10-08T14:00:56Z</time>
      </trkpt>
      <trkpt lat="44.47742" lon="6.71491">
        <ele>1749.9</ele>
        <time>2022-10-08T14:00:57Z</time>
      </trkpt>
      <trkpt lat="44.47735" lon="6.71504">
        <ele>1748.2</ele>
        <time>2022-10-08T14:00:58Z</time>
      </trkpt>
      <trkpt lat="44.47729" lon="6.71518">
        <ele>1748.17</ele>
        <time>2022-10-08T14:00:59Z</time>
      </trkpt>
      <trkpt lat="44.47706" lon="6.71559">
        <ele>1744.69</ele>
        <time>2022-10-08T14:01:02Z</time>
      </trkpt>
      <trkpt lat="44.47688" lon="6.71583">
        <ele>1742.35</ele>
        <time>2022-10-08T14:01:04Z</time>
      </trkpt>
      <trkpt lat="44.4768" lon="6.71596">
        <ele>1740.73</ele>
        <time>2022-10-08T14:01:05Z</time>
      </trkpt>
      <trkpt lat="44.47673" lon="6.71611">
        <ele>1739.36</ele>
        <time>2022-10-08T14:01:06Z</time>
      </trkpt>
      <trkpt lat="44.47667" lon="6.71626">
        <ele>1738.41</ele>
        <time>2022-10-08T14:01:07Z</time>
      </trkpt>
      <trkpt lat="44.47661" lon="6.71643">
        <ele>1738.41</ele>
        <time>2022-10-08T14:01:08Z</time>
      </trkpt>
      <trkpt lat="44.47655" lon="6.71658">
        <ele>1737.26</ele>
        <time>2022-10-08T14:01:09Z</time>
      </trkpt>
      <trkpt lat="44.47648" lon="6.71673">
        <ele>1737.26</ele>
        <time>2022-10-08T14:01:10Z</time>
      </trkpt>
      <trkpt lat="44.47624" lon="6.71712">
        <ele>1735.91</ele>
        <time>2022-10-08T14:01:13Z</time>
      </trkpt>
      <trkpt lat="44.47532" lon="6.71827">
        <ele>1733.8</ele>
        <time>2022-10-08T14:01:22Z</time>
      </trkpt>
      <trkpt lat="44.47503" lon="6.71862">
        <ele>1731.89</ele>
        <time>2022-10-08T14:01:25Z</time>
      </trkpt>
      <trkpt lat="44.47436" lon="6.71943">
        <ele>1729.51</ele>
        <time>2022-10-08T14:01:32Z</time>
      </trkpt>
      <trkpt lat="44.4743" lon="6.71955">
        <ele>1728.69</ele>
        <time>2022-10-08T14:01:33Z</time>
      </trkpt>
      <trkpt lat="44.47425" lon="6.71967">
        <ele>1728.99</ele>
        <time>2022-10-08T14:01:34Z</time>
      </trkpt>
      <trkpt lat="44.4739" lon="6.72055">
        <ele>1726.07</ele>
        <time>2022-10-08T14:01:41Z</time>
      </trkpt>
      <trkpt lat="44.47384" lon="6.72065">
        <ele>1724.82</ele>
        <time>2022-10-08T14:01:42Z</time>
      </trkpt>
      <trkpt lat="44.47376" lon="6.72074">
        <ele>1723.85</ele>
        <time>2022-10-08T14:01:43Z</time>
      </trkpt>
      <trkpt lat="44.47359" lon="6.7209">
        <ele>1722.26</ele>
        <time>2022-10-08T14:01:45Z</time>
      </trkpt>
      <trkpt lat="44.47352" lon="6.721">
        <ele>1720.9</ele>
        <time>2022-10-08T14:01:46Z</time>
      </trkpt>
      <trkpt lat="44.47347" lon="6.72112">
        <ele>1719.94</ele>
        <time>2022-10-08T14:01:47Z</time>
      </trkpt>
      <trkpt lat="44.47333" lon="6.72151">
        <ele>1717.28</ele>
        <time>2022-10-08T14:01:50Z</time>
      </trkpt>
      <trkpt lat="44.4732" lon="6.72189">
        <ele>1714.63</ele>
        <time>2022-10-08T14:01:53Z</time>
      </trkpt>
      <trkpt lat="44.47314" lon="6.722">
        <ele>1713.82</ele>
        <time>2022-10-08T14:01:54Z</time>
      </trkpt>
      <trkpt lat="44.47307" lon="6.72212">
        <ele>1712.95</ele>
        <time>2022-10-08T14:01:55Z</time>
      </trkpt>
      <trkpt lat="44.47299" lon="6.72224">
        <ele>1712.94</ele>
        <time>2022-10-08T14:01:56Z</time>
      </trkpt>
      <trkpt lat="44.47269" lon="6.72274">
        <ele>1711.29</ele>
        <time>2022-10-08T14:02:00Z</time>
      </trkpt>
      <trkpt lat="44.47256" lon="6.72302">
        <ele>1709.72</ele>
        <time>2022-10-08T14:02:02Z</time>
      </trkpt>
      <trkpt lat="44.47234" lon="6.72356">
        <ele>1705.88</ele>
        <time>2022-10-08T14:02:06Z</time>
      </trkpt>
      <trkpt lat="44.4723" lon="6.72368">
        <ele>1704.61</ele>
        <time>2022-10-08T14:02:07Z</time>
      </trkpt>
      <trkpt lat="44.47228" lon="6.72381">
        <ele>1703.79</ele>
        <time>2022-10-08T14:02:08Z</time>
      </trkpt>
      <trkpt lat="44.47227" lon="6.72394">
        <ele>1702.41</ele>
        <time>2022-10-08T14:02:09Z</time>
      </trkpt>
      <trkpt lat="44.47226" lon="6.72408">
        <ele>1701.59</ele>
        <time>2022-10-08T14:02:10Z</time>
      </trkpt>
      <trkpt lat="44.47223" lon="6.72422">
        <ele>1700.69</ele>
        <time>2022-10-08T14:02:11Z</time>
      </trkpt>
      <trkpt lat="44.47219" lon="6.72437">
        <ele>1699.84</ele>
        <time>2022-10-08T14:02:12Z</time>
      </trkpt>
      <trkpt lat="44.47207" lon="6.72483">
        <ele>1696.42</ele>
        <time>2022-10-08T14:02:15Z</time>
      </trkpt>
      <trkpt lat="44.4719" lon="6.72526">
        <ele>1692.01</ele>
        <time>2022-10-08T14:02:18Z</time>
      </trkpt>
      <trkpt lat="44.47184" lon="6.72538">
        <ele>1690.15</ele>
        <time>2022-10-08T14:02:19Z</time>
      </trkpt>
      <trkpt lat="44.47176" lon="6.72545">
        <ele>1688.47</ele>
        <time>2022-10-08T14:02:20Z</time>
      </trkpt>
      <trkpt lat="44.47167" lon="6.72547">
        <ele>1686.9</ele>
        <time>2022-10-08T14:02:21Z</time>
      </trkpt>
      <trkpt lat="44.47156" lon="6.72547">
        <ele>1685.21</ele>
        <time>2022-10-08T14:02:22Z</time>
      </trkpt>
      <trkpt lat="44.47144" lon="6.72546">
        <ele>1684.24</ele>
        <time>2022-10-08T14:02:23Z</time>
      </trkpt>
      <trkpt lat="44.47118" lon="6.72544">
        <ele>1683.09</ele>
        <time>2022-10-08T14:02:25Z</time>
      </trkpt>
      <trkpt lat="44.47105" lon="6.72546">
        <ele>1681.32</ele>
        <time>2022-10-08T14:02:26Z</time>
      </trkpt>
      <trkpt lat="44.47093" lon="6.72551">
        <ele>1680.01</ele>
        <time>2022-10-08T14:02:27Z</time>
      </trkpt>
      <trkpt lat="44.47067" lon="6.72564">
        <ele>1676.89</ele>
        <time>2022-10-08T14:02:29Z</time>
      </trkpt>
      <trkpt lat="44.47041" lon="6.72574">
        <ele>1673.84</ele>
        <time>2022-10-08T14:02:31Z</time>
      </trkpt>
      <trkpt lat="44.47001" lon="6.72582">
        <ele>1669.34</ele>
        <time>2022-10-08T14:02:34Z</time>
      </trkpt>
      <trkpt lat="44.46988" lon="6.72586">
        <ele>1667.39</ele>
        <time>2022-10-08T14:02:35Z</time>
      </trkpt>
      <trkpt lat="44.46976" lon="6.72592">
        <ele>1666.08</ele>
        <time>2022-10-08T14:02:36Z</time>
      </trkpt>
      <trkpt lat="44.46965" lon="6.72597">
        <ele>1663.76</ele>
        <time>2022-10-08T14:02:37Z</time>
      </trkpt>
      <trkpt lat="44.46954" lon="6.72603">
        <ele>1662.37</ele>
        <time>2022-10-08T14:02:38Z</time>
      </trkpt>
      <trkpt lat="44.46942" lon="6.72605">
        <ele>1660.91</ele>
        <time>2022-10-08T14:02:39Z</time>
      </trkpt>
      <trkpt lat="44.4693" lon="6.72606">
        <ele>1658.76</ele>
        <time>2022-10-08T14:02:40Z</time>
      </trkpt>
      <trkpt lat="44.46917" lon="6.72605">
        <ele>1657.42</ele>
        <time>2022-10-08T14:02:41Z</time>
      </trkpt>
      <trkpt lat="44.46905" lon="6.72607">
        <ele>1656.14</ele>
        <time>2022-10-08T14:02:42Z</time>
      </trkpt>
      <trkpt lat="44.46892" lon="6.72613">
        <ele>1654.79</ele>
        <time>2022-10-08T14:02:43Z</time>
      </trkpt>
      <trkpt lat="44.46865" lon="6.72623">
        <ele>1651.65</ele>
        <time>2022-10-08T14:02:45Z</time>
      </trkpt>
      <trkpt lat="44.4684" lon="6.72631">
        <ele>1647.65</ele>
        <time>2022-10-08T14:02:47Z</time>
      </trkpt>
      <trkpt lat="44.46829" lon="6.72636">
        <ele>1644.64</ele>
        <time>2022-10-08T14:02:48Z</time>
      </trkpt>
      <trkpt lat="44.46807" lon="6.72649">
        <ele>1640.67</ele>
        <time>2022-10-08T14:02:50Z</time>
      </trkpt>
      <trkpt lat="44.46797" lon="6.7266">
        <ele>1639.09</ele>
        <time>2022-10-08T14:02:51Z</time>
      </trkpt>
      <trkpt lat="44.46789" lon="6.72674">
        <ele>1637.28</ele>
        <time>2022-10-08T14:02:52Z</time>
      </trkpt>
      <trkpt lat="44.46764" lon="6.72722">
        <ele>1633.16</ele>
        <time>2022-10-08T14:02:55Z</time>
      </trkpt>
      <trkpt lat="44.46756" lon="6.72737">
        <ele>1631.81</ele>
        <time>2022-10-08T14:02:56Z</time>
      </trkpt>
      <trkpt lat="44.46738" lon="6.72761">
        <ele>1628.93</ele>
        <time>2022-10-08T14:02:58Z</time>
      </trkpt>
      <trkpt lat="44.46729" lon="6.72771">
        <ele>1628.93</ele>
        <time>2022-10-08T14:02:59Z</time>
      </trkpt>
      <trkpt lat="44.46719" lon="6.7278">
        <ele>1627.1</ele>
        <time>2022-10-08T14:03:00Z</time>
      </trkpt>
      <trkpt lat="44.46708" lon="6.72788">
        <ele>1624.92</ele>
        <time>2022-10-08T14:03:01Z</time>
      </trkpt>
      <trkpt lat="44.46697" lon="6.72796">
        <ele>1624.76</ele>
        <time>2022-10-08T14:03:02Z</time>
      </trkpt>
      <trkpt lat="44.46673" lon="6.72813">
        <ele>1621.51</ele>
        <time>2022-10-08T14:03:04Z</time>
      </trkpt>
      <trkpt lat="44.46662" lon="6.72823">
        <ele>1620.33</ele>
        <time>2022-10-08T14:03:05Z</time>
      </trkpt>
      <trkpt lat="44.46652" lon="6.72835">
        <ele>1618.75</ele>
        <time>2022-10-08T14:03:06Z</time>
      </trkpt>
      <trkpt lat="44.46644" lon="6.7285">
        <ele>1617.3</ele>
        <time>2022-10-08T14:03:07Z</time>
      </trkpt>
      <trkpt lat="44.46639" lon="6.72866">
        <ele>1615.61</ele>
        <time>2022-10-08T14:03:08Z</time>
      </trkpt>
      <trkpt lat="44.46634" lon="6.72883">
        <ele>1614.47</ele>
        <time>2022-10-08T14:03:09Z</time>
      </trkpt>
      <trkpt lat="44.46621" lon="6.72934">
        <ele>1609.89</ele>
        <time>2022-10-08T14:03:12Z</time>
      </trkpt>
      <trkpt lat="44.46609" lon="6.72967">
        <ele>1606.8</ele>
        <time>2022-10-08T14:03:14Z</time>
      </trkpt>
      <trkpt lat="44.46593" lon="6.73013">
        <ele>1603.82</ele>
        <time>2022-10-08T14:03:17Z</time>
      </trkpt>
      <trkpt lat="44.46584" lon="6.73044">
        <ele>1600.75</ele>
        <time>2022-10-08T14:03:19Z</time>
      </trkpt>
      <trkpt lat="44.46579" lon="6.73059">
        <ele>1599.83</ele>
        <time>2022-10-08T14:03:20Z</time>
      </trkpt>
      <trkpt lat="44.46573" lon="6.73072">
        <ele>1599.7</ele>
        <time>2022-10-08T14:03:21Z</time>
      </trkpt>
      <trkpt lat="44.46566" lon="6.73083">
        <ele>1598</ele>
        <time>2022-10-08T14:03:22Z</time>
      </trkpt>
      <trkpt lat="44.4656" lon="6.73091">
        <ele>1596.09</ele>
        <time>2022-10-08T14:03:23Z</time>
      </trkpt>
      <trkpt lat="44.46555" lon="6.73099">
        <ele>1596.12</ele>
        <time>2022-10-08T14:03:24Z</time>
      </trkpt>
      <trkpt lat="44.46551" lon="6.73106">
        <ele>1594.96</ele>
        <time>2022-10-08T14:03:25Z</time>
      </trkpt>
      <trkpt lat="44.46551" lon="6.73114">
        <ele>1595.04</ele>
        <time>2022-10-08T14:03:26Z</time>
      </trkpt>
      <trkpt lat="44.46555" lon="6.73121">
        <ele>1595.05</ele>
        <time>2022-10-08T14:03:27Z</time>
      </trkpt>
      <trkpt lat="44.4656" lon="6.73123">
        <ele>1593.72</ele>
        <time>2022-10-08T14:03:28Z</time>
      </trkpt>
      <trkpt lat="44.46566" lon="6.73121">
        <ele>1592.73</ele>
        <time>2022-10-08T14:03:29Z</time>
      </trkpt>
      <trkpt lat="44.46572" lon="6.73114">
        <ele>1592.68</ele>
        <time>2022-10-08T14:03:30Z</time>
      </trkpt>
      <trkpt lat="44.46578" lon="6.73106">
        <ele>1593</ele>
        <time>2022-10-08T14:03:31Z</time>
      </trkpt>
      <trkpt lat="44.46584" lon="6.73097">
        <ele>1592.96</ele>
        <time>2022-10-08T14:03:32Z</time>
      </trkpt>
      <trkpt lat="44.46591" lon="6.73088">
        <ele>1590.71</ele>
        <time>2022-10-08T14:03:33Z</time>
      </trkpt>
      <trkpt lat="44.46604" lon="6.73072">
        <ele>1589.68</ele>
        <time>2022-10-08T14:03:35Z</time>
      </trkpt>
      <trkpt lat="44.46614" lon="6.73054">
        <ele>1587.57</ele>
        <time>2022-10-08T14:03:37Z</time>
      </trkpt>
      <trkpt lat="44.46618" lon="6.73045">
        <ele>1587.62</ele>
        <time>2022-10-08T14:03:38Z</time>
      </trkpt>
      <trkpt lat="44.46628" lon="6.73017">
        <ele>1584.21</ele>
        <time>2022-10-08T14:03:41Z</time>
      </trkpt>
      <trkpt lat="44.46632" lon="6.73012">
        <ele>1583.32</ele>
        <time>2022-10-08T14:03:42Z</time>
      </trkpt>
      <trkpt lat="44.46634" lon="6.73009">
        <ele>1583.23</ele>
        <time>2022-10-08T14:03:43Z</time>
      </trkpt>
      <trkpt lat="44.46633" lon="6.73009">
        <ele>1582.79</ele>
        <time>2022-10-08T14:03:44Z</time>
      </trkpt>
      <trkpt lat="44.46634" lon="6.73013">
        <ele>1581.55</ele>
        <time>2022-10-08T14:03:45Z</time>
      </trkpt>
      <trkpt lat="44.46633" lon="6.7302">
        <ele>1581.55</ele>
        <time>2022-10-08T14:03:46Z</time>
      </trkpt>
      <trkpt lat="44.46631" lon="6.73029">
        <ele>1581.55</ele>
        <time>2022-10-08T14:03:47Z</time>
      </trkpt>
      <trkpt lat="44.46626" lon="6.7304">
        <ele>1581.48</ele>
        <time>2022-10-08T14:03:48Z</time>
      </trkpt>
      <trkpt lat="44.46621" lon="6.73052">
        <ele>1580.41</ele>
        <time>2022-10-08T14:03:49Z</time>
      </trkpt>
      <trkpt lat="44.46608" lon="6.7308">
        <ele>1580.35</ele>
        <time>2022-10-08T14:03:51Z</time>
      </trkpt>
      <trkpt lat="44.46602" lon="6.73094">
        <ele>1578.74</ele>
        <time>2022-10-08T14:03:52Z</time>
      </trkpt>
      <trkpt lat="44.46596" lon="6.73108">
        <ele>1578.68</ele>
        <time>2022-10-08T14:03:53Z</time>
      </trkpt>
      <trkpt lat="44.46579" lon="6.73145">
        <ele>1575.63</ele>
        <time>2022-10-08T14:03:56Z</time>
      </trkpt>
      <trkpt lat="44.46572" lon="6.73156">
        <ele>1575.64</ele>
        <time>2022-10-08T14:03:57Z</time>
      </trkpt>
      <trkpt lat="44.46557" lon="6.73192">
        <ele>1572.95</ele>
        <time>2022-10-08T14:04:00Z</time>
      </trkpt>
      <trkpt lat="44.46547" lon="6.73215">
        <ele>1570.29</ele>
        <time>2022-10-08T14:04:02Z</time>
      </trkpt>
      <trkpt lat="44.46541" lon="6.73225">
        <ele>1570.29</ele>
        <time>2022-10-08T14:04:03Z</time>
      </trkpt>
      <trkpt lat="44.46534" lon="6.73234">
        <ele>1569.12</ele>
        <time>2022-10-08T14:04:04Z</time>
      </trkpt>
      <trkpt lat="44.46519" lon="6.73251">
        <ele>1567.52</ele>
        <time>2022-10-08T14:04:06Z</time>
      </trkpt>
      <trkpt lat="44.46503" lon="6.73267">
        <ele>1563.85</ele>
        <time>2022-10-08T14:04:08Z</time>
      </trkpt>
      <trkpt lat="44.46494" lon="6.73274">
        <ele>1563.85</ele>
        <time>2022-10-08T14:04:09Z</time>
      </trkpt>
      <trkpt lat="44.46485" lon="6.73279">
        <ele>1561.76</ele>
        <time>2022-10-08T14:04:10Z</time>
      </trkpt>
      <trkpt lat="44.46475" lon="6.73284">
        <ele>1560.86</ele>
        <time>2022-10-08T14:04:11Z</time>
      </trkpt>
      <trkpt lat="44.46455" lon="6.7329">
        <ele>1559.59</ele>
        <time>2022-10-08T14:04:13Z</time>
      </trkpt>
      <trkpt lat="44.46424" lon="6.73298">
        <ele>1555.36</ele>
        <time>2022-10-08T14:04:16Z</time>
      </trkpt>
      <trkpt lat="44.46414" lon="6.73298">
        <ele>1553.96</ele>
        <time>2022-10-08T14:04:17Z</time>
      </trkpt>
      <trkpt lat="44.46404" lon="6.73298">
        <ele>1553.84</ele>
        <time>2022-10-08T14:04:18Z</time>
      </trkpt>
      <trkpt lat="44.46386" lon="6.73299">
        <ele>1550.69</ele>
        <time>2022-10-08T14:04:20Z</time>
      </trkpt>
      <trkpt lat="44.46379" lon="6.733">
        <ele>1550.58</ele>
        <time>2022-10-08T14:04:21Z</time>
      </trkpt>
      <trkpt lat="44.46369" lon="6.73303">
        <ele>1547.44</ele>
        <time>2022-10-08T14:04:23Z</time>
      </trkpt>
      <trkpt lat="44.46365" lon="6.73303">
        <ele>1547.43</ele>
        <time>2022-10-08T14:04:24Z</time>
      </trkpt>
      <trkpt lat="44.46361" lon="6.73307">
        <ele>1545.37</ele>
        <time>2022-10-08T14:04:27Z</time>
      </trkpt>
      <trkpt lat="44.46359" lon="6.73307">
        <ele>1545.09</ele>
        <time>2022-10-08T14:05:04Z</time>
      </trkpt>
      <trkpt lat="44.46356" lon="6.7331">
        <ele>1544.86</ele>
        <time>2022-10-08T14:05:44Z</time>
      </trkpt>
      <trkpt lat="44.46354" lon="6.73311">
        <ele>1544.84</ele>
        <time>2022-10-08T14:05:45Z</time>
      </trkpt>
      <trkpt lat="44.46352" lon="6.73313">
        <ele>1544.83</ele>
        <time>2022-10-08T14:05:46Z</time>
      </trkpt>
      <trkpt lat="44.46349" lon="6.73314">
        <ele>1544.81</ele>
        <time>2022-10-08T14:05:47Z</time>
      </trkpt>
      <trkpt lat="44.46345" lon="6.73314">
        <ele>1544.8</ele>
        <time>2022-10-08T14:05:48Z</time>
      </trkpt>
      <trkpt lat="44.46342" lon="6.73314">
        <ele>1544.01</ele>
        <time>2022-10-08T14:05:49Z</time>
      </trkpt>
      <trkpt lat="44.46339" lon="6.73314">
        <ele>1543.97</ele>
        <time>2022-10-08T14:05:50Z</time>
      </trkpt>
      <trkpt lat="44.46337" lon="6.73314">
        <ele>1543.98</ele>
        <time>2022-10-08T14:05:51Z</time>
      </trkpt>
      <trkpt lat="44.46336" lon="6.73314">
        <ele>1543.06</ele>
        <time>2022-10-08T14:05:52Z</time>
      </trkpt>
      <trkpt lat="44.46334" lon="6.73315">
        <ele>1542.02</ele>
        <time>2022-10-08T14:05:55Z</time>
      </trkpt>
      <trkpt lat="44.46332" lon="6.73317">
        <ele>1542.17</ele>
        <time>2022-10-08T14:05:56Z</time>
      </trkpt>
      <trkpt lat="44.46309" lon="6.73319">
        <ele>1541.26</ele>
        <time>2022-10-08T14:06:00Z</time>
      </trkpt>
      <trkpt lat="44.46302" lon="6.73317">
        <ele>1541.24</ele>
        <time>2022-10-08T14:06:01Z</time>
      </trkpt>
      <trkpt lat="44.46295" lon="6.73312">
        <ele>1540.28</ele>
        <time>2022-10-08T14:06:02Z</time>
      </trkpt>
      <trkpt lat="44.46287" lon="6.73305">
        <ele>1539.19</ele>
        <time>2022-10-08T14:06:03Z</time>
      </trkpt>
      <trkpt lat="44.4628" lon="6.73298">
        <ele>1539.15</ele>
        <time>2022-10-08T14:06:04Z</time>
      </trkpt>
      <trkpt lat="44.4625" lon="6.73269">
        <ele>1535.33</ele>
        <time>2022-10-08T14:06:08Z</time>
      </trkpt>
      <trkpt lat="44.46238" lon="6.73256">
        <ele>1533.79</ele>
        <time>2022-10-08T14:06:10Z</time>
      </trkpt>
      <trkpt lat="44.46231" lon="6.73251">
        <ele>1532.44</ele>
        <time>2022-10-08T14:06:11Z</time>
      </trkpt>
      <trkpt lat="44.46225" lon="6.73248">
        <ele>1532.38</ele>
        <time>2022-10-08T14:06:12Z</time>
      </trkpt>
      <trkpt lat="44.46219" lon="6.73249">
        <ele>1531.44</ele>
        <time>2022-10-08T14:06:13Z</time>
      </trkpt>
      <trkpt lat="44.46213" lon="6.73252">
        <ele>1531.41</ele>
        <time>2022-10-08T14:06:14Z</time>
      </trkpt>
      <trkpt lat="44.46206" lon="6.73256">
        <ele>1529.9</ele>
        <time>2022-10-08T14:06:15Z</time>
      </trkpt>
      <trkpt lat="44.46199" lon="6.73261">
        <ele>1529.89</ele>
        <time>2022-10-08T14:06:16Z</time>
      </trkpt>
      <trkpt lat="44.4618" lon="6.73274">
        <ele>1528.25</ele>
        <time>2022-10-08T14:06:18Z</time>
      </trkpt>
      <trkpt lat="44.46148" lon="6.73294">
        <ele>1524.69</ele>
        <time>2022-10-08T14:06:21Z</time>
      </trkpt>
      <trkpt lat="44.46123" lon="6.7331">
        <ele>1520.72</ele>
        <time>2022-10-08T14:06:24Z</time>
      </trkpt>
      <trkpt lat="44.46117" lon="6.73313">
        <ele>1519.03</ele>
        <time>2022-10-08T14:06:25Z</time>
      </trkpt>
      <trkpt lat="44.46113" lon="6.73313">
        <ele>1519.03</ele>
        <time>2022-10-08T14:06:26Z</time>
      </trkpt>
      <trkpt lat="44.46108" lon="6.73311">
        <ele>1517.99</ele>
        <time>2022-10-08T14:06:27Z</time>
      </trkpt>
      <trkpt lat="44.46095" lon="6.733">
        <ele>1516.86</ele>
        <time>2022-10-08T14:06:30Z</time>
      </trkpt>
      <trkpt lat="44.4609" lon="6.73299">
        <ele>1515.96</ele>
        <time>2022-10-08T14:06:31Z</time>
      </trkpt>
      <trkpt lat="44.46085" lon="6.73299">
        <ele>1515.88</ele>
        <time>2022-10-08T14:06:32Z</time>
      </trkpt>
      <trkpt lat="44.4608" lon="6.73301">
        <ele>1515.91</ele>
        <time>2022-10-08T14:06:33Z</time>
      </trkpt>
      <trkpt lat="44.46074" lon="6.73305">
        <ele>1515.06</ele>
        <time>2022-10-08T14:06:34Z</time>
      </trkpt>
      <trkpt lat="44.46067" lon="6.73309">
        <ele>1515.11</ele>
        <time>2022-10-08T14:06:35Z</time>
      </trkpt>
      <trkpt lat="44.4606" lon="6.73314">
        <ele>1514.03</ele>
        <time>2022-10-08T14:06:36Z</time>
      </trkpt>
      <trkpt lat="44.46052" lon="6.73318">
        <ele>1512.57</ele>
        <time>2022-10-08T14:06:37Z</time>
      </trkpt>
      <trkpt lat="44.46044" lon="6.73322">
        <ele>1512.59</ele>
        <time>2022-10-08T14:06:38Z</time>
      </trkpt>
      <trkpt lat="44.46035" lon="6.73324">
        <ele>1510.98</ele>
        <time>2022-10-08T14:06:39Z</time>
      </trkpt>
      <trkpt lat="44.46026" lon="6.73326">
        <ele>1510.18</ele>
        <time>2022-10-08T14:06:40Z</time>
      </trkpt>
      <trkpt lat="44.46015" lon="6.73328">
        <ele>1510.13</ele>
        <time>2022-10-08T14:06:41Z</time>
      </trkpt>
      <trkpt lat="44.46005" lon="6.73333">
        <ele>1508.08</ele>
        <time>2022-10-08T14:06:42Z</time>
      </trkpt>
      <trkpt lat="44.45996" lon="6.73341">
        <ele>1507.21</ele>
        <time>2022-10-08T14:06:43Z</time>
      </trkpt>
      <trkpt lat="44.45987" lon="6.7335">
        <ele>1506</ele>
        <time>2022-10-08T14:06:44Z</time>
      </trkpt>
      <trkpt lat="44.45979" lon="6.73361">
        <ele>1504.6</ele>
        <time>2022-10-08T14:06:45Z</time>
      </trkpt>
      <trkpt lat="44.45972" lon="6.73373">
        <ele>1504.23</ele>
        <time>2022-10-08T14:06:46Z</time>
      </trkpt>
      <trkpt lat="44.45967" lon="6.73386">
        <ele>1502.71</ele>
        <time>2022-10-08T14:06:47Z</time>
      </trkpt>
      <trkpt lat="44.45963" lon="6.734">
        <ele>1501.7</ele>
        <time>2022-10-08T14:06:48Z</time>
      </trkpt>
      <trkpt lat="44.45954" lon="6.73427">
        <ele>1498.63</ele>
        <time>2022-10-08T14:06:50Z</time>
      </trkpt>
      <trkpt lat="44.45947" lon="6.73439">
        <ele>1497.84</ele>
        <time>2022-10-08T14:06:51Z</time>
      </trkpt>
      <trkpt lat="44.45924" lon="6.73469">
        <ele>1493.76</ele>
        <time>2022-10-08T14:06:54Z</time>
      </trkpt>
      <trkpt lat="44.45917" lon="6.7348">
        <ele>1492.42</ele>
        <time>2022-10-08T14:06:55Z</time>
      </trkpt>
      <trkpt lat="44.45912" lon="6.73492">
        <ele>1490.99</ele>
        <time>2022-10-08T14:06:56Z</time>
      </trkpt>
      <trkpt lat="44.45907" lon="6.73506">
        <ele>1490</ele>
        <time>2022-10-08T14:06:57Z</time>
      </trkpt>
      <trkpt lat="44.45905" lon="6.7352">
        <ele>1488.86</ele>
        <time>2022-10-08T14:06:58Z</time>
      </trkpt>
      <trkpt lat="44.45905" lon="6.73535">
        <ele>1487.96</ele>
        <time>2022-10-08T14:06:59Z</time>
      </trkpt>
      <trkpt lat="44.45907" lon="6.73548">
        <ele>1487.87</ele>
        <time>2022-10-08T14:07:00Z</time>
      </trkpt>
      <trkpt lat="44.45911" lon="6.73562">
        <ele>1485.49</ele>
        <time>2022-10-08T14:07:01Z</time>
      </trkpt>
      <trkpt lat="44.45914" lon="6.73575">
        <ele>1485.4</ele>
        <time>2022-10-08T14:07:02Z</time>
      </trkpt>
      <trkpt lat="44.45918" lon="6.736">
        <ele>1482.53</ele>
        <time>2022-10-08T14:07:04Z</time>
      </trkpt>
      <trkpt lat="44.45919" lon="6.73612">
        <ele>1482.42</ele>
        <time>2022-10-08T14:07:05Z</time>
      </trkpt>
      <trkpt lat="44.45916" lon="6.73622">
        <ele>1479.7</ele>
        <time>2022-10-08T14:07:06Z</time>
      </trkpt>
      <trkpt lat="44.4591" lon="6.73629">
        <ele>1479.7</ele>
        <time>2022-10-08T14:07:07Z</time>
      </trkpt>
      <trkpt lat="44.45902" lon="6.73632">
        <ele>1477.76</ele>
        <time>2022-10-08T14:07:08Z</time>
      </trkpt>
      <trkpt lat="44.45894" lon="6.73633">
        <ele>1477.02</ele>
        <time>2022-10-08T14:07:09Z</time>
      </trkpt>
      <trkpt lat="44.45887" lon="6.73634">
        <ele>1476.42</ele>
        <time>2022-10-08T14:07:10Z</time>
      </trkpt>
      <trkpt lat="44.45882" lon="6.73637">
        <ele>1475.54</ele>
        <time>2022-10-08T14:07:11Z</time>
      </trkpt>
      <trkpt lat="44.45879" lon="6.73643">
        <ele>1475.45</ele>
        <time>2022-10-08T14:07:12Z</time>
      </trkpt>
      <trkpt lat="44.45879" lon="6.7365">
        <ele>1474.64</ele>
        <time>2022-10-08T14:07:13Z</time>
      </trkpt>
      <trkpt lat="44.45882" lon="6.73655">
        <ele>1474.65</ele>
        <time>2022-10-08T14:07:14Z</time>
      </trkpt>
      <trkpt lat="44.45887" lon="6.73657">
        <ele>1474.57</ele>
        <time>2022-10-08T14:07:15Z</time>
      </trkpt>
      <trkpt lat="44.45894" lon="6.73657">
        <ele>1473.74</ele>
        <time>2022-10-08T14:07:16Z</time>
      </trkpt>
      <trkpt lat="44.45903" lon="6.73655">
        <ele>1473.67</ele>
        <time>2022-10-08T14:07:17Z</time>
      </trkpt>
      <trkpt lat="44.45912" lon="6.73652">
        <ele>1473.67</ele>
        <time>2022-10-08T14:07:18Z</time>
      </trkpt>
      <trkpt lat="44.45939" lon="6.73643">
        <ele>1470.24</ele>
        <time>2022-10-08T14:07:21Z</time>
      </trkpt>
      <trkpt lat="44.45947" lon="6.73638">
        <ele>1470.18</ele>
        <time>2022-10-08T14:07:22Z</time>
      </trkpt>
      <trkpt lat="44.45952" lon="6.73631">
        <ele>1468.35</ele>
        <time>2022-10-08T14:07:23Z</time>
      </trkpt>
      <trkpt lat="44.45956" lon="6.73623">
        <ele>1467.51</ele>
        <time>2022-10-08T14:07:24Z</time>
      </trkpt>
      <trkpt lat="44.45959" lon="6.73616">
        <ele>1466.52</ele>
        <time>2022-10-08T14:07:25Z</time>
      </trkpt>
      <trkpt lat="44.45961" lon="6.73611">
        <ele>1466.54</ele>
        <time>2022-10-08T14:07:26Z</time>
      </trkpt>
      <trkpt lat="44.45964" lon="6.7361">
        <ele>1465.46</ele>
        <time>2022-10-08T14:07:27Z</time>
      </trkpt>
      <trkpt lat="44.45967" lon="6.73612">
        <ele>1465.48</ele>
        <time>2022-10-08T14:07:28Z</time>
      </trkpt>
      <trkpt lat="44.45969" lon="6.73619">
        <ele>1464.62</ele>
        <time>2022-10-08T14:07:29Z</time>
      </trkpt>
      <trkpt lat="44.4597" lon="6.73627">
        <ele>1463.61</ele>
        <time>2022-10-08T14:07:30Z</time>
      </trkpt>
      <trkpt lat="44.45969" lon="6.73636">
        <ele>1463.61</ele>
        <time>2022-10-08T14:07:31Z</time>
      </trkpt>
      <trkpt lat="44.45966" lon="6.73645">
        <ele>1463.54</ele>
        <time>2022-10-08T14:07:32Z</time>
      </trkpt>
      <trkpt lat="44.4596" lon="6.73653">
        <ele>1461.91</ele>
        <time>2022-10-08T14:07:33Z</time>
      </trkpt>
      <trkpt lat="44.45953" lon="6.73661">
        <ele>1461.85</ele>
        <time>2022-10-08T14:07:34Z</time>
      </trkpt>
      <trkpt lat="44.45945" lon="6.73668">
        <ele>1459.51</ele>
        <time>2022-10-08T14:07:35Z</time>
      </trkpt>
      <trkpt lat="44.45917" lon="6.73692">
        <ele>1457.29</ele>
        <time>2022-10-08T14:07:38Z</time>
      </trkpt>
      <trkpt lat="44.45899" lon="6.7371">
        <ele>1454.24</ele>
        <time>2022-10-08T14:07:40Z</time>
      </trkpt>
      <trkpt lat="44.45882" lon="6.73729">
        <ele>1451.62</ele>
        <time>2022-10-08T14:07:42Z</time>
      </trkpt>
      <trkpt lat="44.45875" lon="6.73741">
        <ele>1450</ele>
        <time>2022-10-08T14:07:43Z</time>
      </trkpt>
      <trkpt lat="44.45869" lon="6.73754">
        <ele>1449.13</ele>
        <time>2022-10-08T14:07:44Z</time>
      </trkpt>
      <trkpt lat="44.45862" lon="6.73767">
        <ele>1449.13</ele>
        <time>2022-10-08T14:07:45Z</time>
      </trkpt>
      <trkpt lat="44.4584" lon="6.73809">
        <ele>1445.85</ele>
        <time>2022-10-08T14:07:48Z</time>
      </trkpt>
      <trkpt lat="44.45818" lon="6.7385">
        <ele>1443.45</ele>
        <time>2022-10-08T14:07:51Z</time>
      </trkpt>
      <trkpt lat="44.45805" lon="6.73876">
        <ele>1440.66</ele>
        <time>2022-10-08T14:07:53Z</time>
      </trkpt>
      <trkpt lat="44.45788" lon="6.73915">
        <ele>1437.06</ele>
        <time>2022-10-08T14:07:56Z</time>
      </trkpt>
      <trkpt lat="44.45783" lon="6.73928">
        <ele>1435.73</ele>
        <time>2022-10-08T14:07:57Z</time>
      </trkpt>
      <trkpt lat="44.45776" lon="6.73939">
        <ele>1435.72</ele>
        <time>2022-10-08T14:07:58Z</time>
      </trkpt>
      <trkpt lat="44.45769" lon="6.73948">
        <ele>1433.97</ele>
        <time>2022-10-08T14:07:59Z</time>
      </trkpt>
      <trkpt lat="44.45759" lon="6.73955">
        <ele>1433.94</ele>
        <time>2022-10-08T14:08:00Z</time>
      </trkpt>
      <trkpt lat="44.45749" lon="6.7396">
        <ele>1432.52</ele>
        <time>2022-10-08T14:08:01Z</time>
      </trkpt>
      <trkpt lat="44.45739" lon="6.73965">
        <ele>1431.62</ele>
        <time>2022-10-08T14:08:02Z</time>
      </trkpt>
      <trkpt lat="44.45717" lon="6.73979">
        <ele>1429.79</ele>
        <time>2022-10-08T14:08:05Z</time>
      </trkpt>
      <trkpt lat="44.45712" lon="6.73986">
        <ele>1428.47</ele>
        <time>2022-10-08T14:08:06Z</time>
      </trkpt>
      <trkpt lat="44.4571" lon="6.73995">
        <ele>1428.41</ele>
        <time>2022-10-08T14:08:07Z</time>
      </trkpt>
      <trkpt lat="44.45711" lon="6.74005">
        <ele>1427.46</ele>
        <time>2022-10-08T14:08:08Z</time>
      </trkpt>
      <trkpt lat="44.45714" lon="6.74014">
        <ele>1426.28</ele>
        <time>2022-10-08T14:08:09Z</time>
      </trkpt>
      <trkpt lat="44.45721" lon="6.74019">
        <ele>1426.39</ele>
        <time>2022-10-08T14:08:10Z</time>
      </trkpt>
      <trkpt lat="44.45729" lon="6.74022">
        <ele>1425.33</ele>
        <time>2022-10-08T14:08:11Z</time>
      </trkpt>
      <trkpt lat="44.45738" lon="6.74024">
        <ele>1425.32</ele>
        <time>2022-10-08T14:08:12Z</time>
      </trkpt>
      <trkpt lat="44.45747" lon="6.74026">
        <ele>1424</ele>
        <time>2022-10-08T14:08:13Z</time>
      </trkpt>
      <trkpt lat="44.45756" lon="6.74031">
        <ele>1423.93</ele>
        <time>2022-10-08T14:08:14Z</time>
      </trkpt>
      <trkpt lat="44.45762" lon="6.74038">
        <ele>1423.02</ele>
        <time>2022-10-08T14:08:15Z</time>
      </trkpt>
      <trkpt lat="44.45767" lon="6.74047">
        <ele>1422</ele>
        <time>2022-10-08T14:08:16Z</time>
      </trkpt>
      <trkpt lat="44.45765" lon="6.74058">
        <ele>1422.03</ele>
        <time>2022-10-08T14:08:17Z</time>
      </trkpt>
      <trkpt lat="44.45758" lon="6.74066">
        <ele>1420.99</ele>
        <time>2022-10-08T14:08:18Z</time>
      </trkpt>
      <trkpt lat="44.45748" lon="6.74073">
        <ele>1420.09</ele>
        <time>2022-10-08T14:08:19Z</time>
      </trkpt>
      <trkpt lat="44.45738" lon="6.74078">
        <ele>1420.12</ele>
        <time>2022-10-08T14:08:20Z</time>
      </trkpt>
      <trkpt lat="44.45726" lon="6.74082">
        <ele>1418.8</ele>
        <time>2022-10-08T14:08:21Z</time>
      </trkpt>
      <trkpt lat="44.45715" lon="6.74086">
        <ele>1418.82</ele>
        <time>2022-10-08T14:08:22Z</time>
      </trkpt>
      <trkpt lat="44.45693" lon="6.74094">
        <ele>1416.54</ele>
        <time>2022-10-08T14:08:24Z</time>
      </trkpt>
      <trkpt lat="44.45672" lon="6.74104">
        <ele>1413.85</ele>
        <time>2022-10-08T14:08:26Z</time>
      </trkpt>
      <trkpt lat="44.45662" lon="6.74111">
        <ele>1412.65</ele>
        <time>2022-10-08T14:08:27Z</time>
      </trkpt>
      <trkpt lat="44.45652" lon="6.74119">
        <ele>1412.64</ele>
        <time>2022-10-08T14:08:28Z</time>
      </trkpt>
      <trkpt lat="44.45632" lon="6.74135">
        <ele>1409.34</ele>
        <time>2022-10-08T14:08:30Z</time>
      </trkpt>
      <trkpt lat="44.456" lon="6.74151">
        <ele>1406.28</ele>
        <time>2022-10-08T14:08:33Z</time>
      </trkpt>
      <trkpt lat="44.45589" lon="6.74153">
        <ele>1405.33</ele>
        <time>2022-10-08T14:08:34Z</time>
      </trkpt>
      <trkpt lat="44.45578" lon="6.74153">
        <ele>1405.32</ele>
        <time>2022-10-08T14:08:35Z</time>
      </trkpt>
      <trkpt lat="44.45549" lon="6.74152">
        <ele>1400.9</ele>
        <time>2022-10-08T14:08:38Z</time>
      </trkpt>
      <trkpt lat="44.45541" lon="6.74153">
        <ele>1400.8</ele>
        <time>2022-10-08T14:08:39Z</time>
      </trkpt>
      <trkpt lat="44.45535" lon="6.74156">
        <ele>1400.79</ele>
        <time>2022-10-08T14:08:40Z</time>
      </trkpt>
      <trkpt lat="44.45532" lon="6.74161">
        <ele>1399.92</ele>
        <time>2022-10-08T14:08:41Z</time>
      </trkpt>
      <trkpt lat="44.45533" lon="6.74168">
        <ele>1399.87</ele>
        <time>2022-10-08T14:08:42Z</time>
      </trkpt>
      <trkpt lat="44.45536" lon="6.74174">
        <ele>1399.12</ele>
        <time>2022-10-08T14:08:43Z</time>
      </trkpt>
      <trkpt lat="44.45542" lon="6.74177">
        <ele>1398.05</ele>
        <time>2022-10-08T14:08:44Z</time>
      </trkpt>
      <trkpt lat="44.4555" lon="6.74177">
        <ele>1397.98</ele>
        <time>2022-10-08T14:08:45Z</time>
      </trkpt>
      <trkpt lat="44.45561" lon="6.74176">
        <ele>1398</ele>
        <time>2022-10-08T14:08:46Z</time>
      </trkpt>
      <trkpt lat="44.45574" lon="6.74178">
        <ele>1397.93</ele>
        <time>2022-10-08T14:08:47Z</time>
      </trkpt>
      <trkpt lat="44.45587" lon="6.74181">
        <ele>1396.79</ele>
        <time>2022-10-08T14:08:48Z</time>
      </trkpt>
      <trkpt lat="44.456" lon="6.74186">
        <ele>1395.46</ele>
        <time>2022-10-08T14:08:49Z</time>
      </trkpt>
      <trkpt lat="44.45625" lon="6.74191">
        <ele>1394.35</ele>
        <time>2022-10-08T14:08:51Z</time>
      </trkpt>
      <trkpt lat="44.4565" lon="6.74192">
        <ele>1390.36</ele>
        <time>2022-10-08T14:08:53Z</time>
      </trkpt>
      <trkpt lat="44.45663" lon="6.74191">
        <ele>1390.42</ele>
        <time>2022-10-08T14:08:54Z</time>
      </trkpt>
      <trkpt lat="44.45704" lon="6.74191">
        <ele>1387.12</ele>
        <time>2022-10-08T14:08:57Z</time>
      </trkpt>
      <trkpt lat="44.45743" lon="6.7419">
        <ele>1383.11</ele>
        <time>2022-10-08T14:09:00Z</time>
      </trkpt>
      <trkpt lat="44.45793" lon="6.74186">
        <ele>1379.46</ele>
        <time>2022-10-08T14:09:04Z</time>
      </trkpt>
      <trkpt lat="44.4583" lon="6.74178">
        <ele>1376.21</ele>
        <time>2022-10-08T14:09:07Z</time>
      </trkpt>
      <trkpt lat="44.45864" lon="6.74166">
        <ele>1373.59</ele>
        <time>2022-10-08T14:09:10Z</time>
      </trkpt>
      <trkpt lat="44.45875" lon="6.7416">
        <ele>1371.86</ele>
        <time>2022-10-08T14:09:11Z</time>
      </trkpt>
      <trkpt lat="44.45884" lon="6.74151">
        <ele>1371.88</ele>
        <time>2022-10-08T14:09:12Z</time>
      </trkpt>
      <trkpt lat="44.45892" lon="6.7414">
        <ele>1369.93</ele>
        <time>2022-10-08T14:09:13Z</time>
      </trkpt>
      <trkpt lat="44.459" lon="6.74127">
        <ele>1368.78</ele>
        <time>2022-10-08T14:09:14Z</time>
      </trkpt>
      <trkpt lat="44.45906" lon="6.74113">
        <ele>1367.25</ele>
        <time>2022-10-08T14:09:15Z</time>
      </trkpt>
      <trkpt lat="44.45921" lon="6.74077">
        <ele>1363.68</ele>
        <time>2022-10-08T14:09:18Z</time>
      </trkpt>
      <trkpt lat="44.45924" lon="6.74068">
        <ele>1363.56</ele>
        <time>2022-10-08T14:09:19Z</time>
      </trkpt>
      <trkpt lat="44.45927" lon="6.74061">
        <ele>1362.03</ele>
        <time>2022-10-08T14:09:20Z</time>
      </trkpt>
      <trkpt lat="44.4593" lon="6.74057">
        <ele>1361.12</ele>
        <time>2022-10-08T14:09:21Z</time>
      </trkpt>
      <trkpt lat="44.45933" lon="6.74056">
        <ele>1361.01</ele>
        <time>2022-10-08T14:09:22Z</time>
      </trkpt>
      <trkpt lat="44.45934" lon="6.74057">
        <ele>1359.77</ele>
        <time>2022-10-08T14:09:23Z</time>
      </trkpt>
      <trkpt lat="44.45935" lon="6.74061">
        <ele>1359.73</ele>
        <time>2022-10-08T14:09:24Z</time>
      </trkpt>
      <trkpt lat="44.45934" lon="6.74067">
        <ele>1359.62</ele>
        <time>2022-10-08T14:09:25Z</time>
      </trkpt>
      <trkpt lat="44.4593" lon="6.74076">
        <ele>1359.63</ele>
        <time>2022-10-08T14:09:26Z</time>
      </trkpt>
      <trkpt lat="44.45927" lon="6.74086">
        <ele>1358.74</ele>
        <time>2022-10-08T14:09:27Z</time>
      </trkpt>
      <trkpt lat="44.45922" lon="6.74097">
        <ele>1358.74</ele>
        <time>2022-10-08T14:09:28Z</time>
      </trkpt>
      <trkpt lat="44.45892" lon="6.74174">
        <ele>1355.36</ele>
        <time>2022-10-08T14:09:34Z</time>
      </trkpt>
      <trkpt lat="44.45873" lon="6.74208">
        <ele>1353.36</ele>
        <time>2022-10-08T14:09:37Z</time>
      </trkpt>
      <trkpt lat="44.45866" lon="6.74216">
        <ele>1352.06</ele>
        <time>2022-10-08T14:09:38Z</time>
      </trkpt>
      <trkpt lat="44.45858" lon="6.74222">
        <ele>1351.11</ele>
        <time>2022-10-08T14:09:39Z</time>
      </trkpt>
      <trkpt lat="44.45851" lon="6.74226">
        <ele>1351.2</ele>
        <time>2022-10-08T14:09:40Z</time>
      </trkpt>
      <trkpt lat="44.45845" lon="6.74231">
        <ele>1349.31</ele>
        <time>2022-10-08T14:09:41Z</time>
      </trkpt>
      <trkpt lat="44.45842" lon="6.74237">
        <ele>1349.31</ele>
        <time>2022-10-08T14:09:42Z</time>
      </trkpt>
      <trkpt lat="44.45843" lon="6.74244">
        <ele>1347.86</ele>
        <time>2022-10-08T14:09:43Z</time>
      </trkpt>
      <trkpt lat="44.45847" lon="6.74249">
        <ele>1347.81</ele>
        <time>2022-10-08T14:09:44Z</time>
      </trkpt>
      <trkpt lat="44.45853" lon="6.74251">
        <ele>1348.36</ele>
        <time>2022-10-08T14:09:45Z</time>
      </trkpt>
      <trkpt lat="44.4586" lon="6.74249">
        <ele>1347.35</ele>
        <time>2022-10-08T14:09:46Z</time>
      </trkpt>
      <trkpt lat="44.45868" lon="6.74244">
        <ele>1347.34</ele>
        <time>2022-10-08T14:09:47Z</time>
      </trkpt>
      <trkpt lat="44.45876" lon="6.74235">
        <ele>1347.26</ele>
        <time>2022-10-08T14:09:48Z</time>
      </trkpt>
      <trkpt lat="44.45886" lon="6.74225">
        <ele>1346.43</ele>
        <time>2022-10-08T14:09:49Z</time>
      </trkpt>
      <trkpt lat="44.45903" lon="6.74206">
        <ele>1344.83</ele>
        <time>2022-10-08T14:09:51Z</time>
      </trkpt>
      <trkpt lat="44.45921" lon="6.7419">
        <ele>1343.27</ele>
        <time>2022-10-08T14:09:53Z</time>
      </trkpt>
      <trkpt lat="44.45939" lon="6.74177">
        <ele>1342.15</ele>
        <time>2022-10-08T14:09:55Z</time>
      </trkpt>
      <trkpt lat="44.45946" lon="6.74168">
        <ele>1339.7</ele>
        <time>2022-10-08T14:09:56Z</time>
      </trkpt>
      <trkpt lat="44.45954" lon="6.74157">
        <ele>1339.64</ele>
        <time>2022-10-08T14:09:57Z</time>
      </trkpt>
      <trkpt lat="44.45967" lon="6.74131">
        <ele>1338.2</ele>
        <time>2022-10-08T14:09:59Z</time>
      </trkpt>
      <trkpt lat="44.45986" lon="6.74092">
        <ele>1335.17</ele>
        <time>2022-10-08T14:10:02Z</time>
      </trkpt>
      <trkpt lat="44.45994" lon="6.74068">
        <ele>1333.51</ele>
        <time>2022-10-08T14:10:04Z</time>
      </trkpt>
      <trkpt lat="44.45997" lon="6.74058">
        <ele>1331.8</ele>
        <time>2022-10-08T14:10:05Z</time>
      </trkpt>
      <trkpt lat="44.45999" lon="6.74048">
        <ele>1331.79</ele>
        <time>2022-10-08T14:10:06Z</time>
      </trkpt>
      <trkpt lat="44.46002" lon="6.74041">
        <ele>1330.89</ele>
        <time>2022-10-08T14:10:07Z</time>
      </trkpt>
      <trkpt lat="44.46006" lon="6.74036">
        <ele>1329.99</ele>
        <time>2022-10-08T14:10:08Z</time>
      </trkpt>
      <trkpt lat="44.46011" lon="6.74034">
        <ele>1329.95</ele>
        <time>2022-10-08T14:10:09Z</time>
      </trkpt>
      <trkpt lat="44.46015" lon="6.74036">
        <ele>1329.06</ele>
        <time>2022-10-08T14:10:10Z</time>
      </trkpt>
      <trkpt lat="44.46019" lon="6.7404">
        <ele>1328.29</ele>
        <time>2022-10-08T14:10:11Z</time>
      </trkpt>
      <trkpt lat="44.46021" lon="6.74047">
        <ele>1328.22</ele>
        <time>2022-10-08T14:10:12Z</time>
      </trkpt>
      <trkpt lat="44.46022" lon="6.74057">
        <ele>1328.21</ele>
        <time>2022-10-08T14:10:13Z</time>
      </trkpt>
      <trkpt lat="44.4602" lon="6.74069">
        <ele>1326.88</ele>
        <time>2022-10-08T14:10:14Z</time>
      </trkpt>
      <trkpt lat="44.46018" lon="6.74083">
        <ele>1326.87</ele>
        <time>2022-10-08T14:10:15Z</time>
      </trkpt>
      <trkpt lat="44.46015" lon="6.74098">
        <ele>1326.86</ele>
        <time>2022-10-08T14:10:16Z</time>
      </trkpt>
      <trkpt lat="44.46004" lon="6.74145">
        <ele>1323.41</ele>
        <time>2022-10-08T14:10:19Z</time>
      </trkpt>
      <trkpt lat="44.45991" lon="6.74191">
        <ele>1320.1</ele>
        <time>2022-10-08T14:10:22Z</time>
      </trkpt>
      <trkpt lat="44.45986" lon="6.74205">
        <ele>1320.1</ele>
        <time>2022-10-08T14:10:23Z</time>
      </trkpt>
      <trkpt lat="44.45979" lon="6.74219">
        <ele>1317.79</ele>
        <time>2022-10-08T14:10:24Z</time>
      </trkpt>
      <trkpt lat="44.45971" lon="6.74232">
        <ele>1317.06</ele>
        <time>2022-10-08T14:10:25Z</time>
      </trkpt>
      <trkpt lat="44.45962" lon="6.74245">
        <ele>1317.01</ele>
        <time>2022-10-08T14:10:26Z</time>
      </trkpt>
      <trkpt lat="44.45943" lon="6.74274">
        <ele>1315.64</ele>
        <time>2022-10-08T14:10:28Z</time>
      </trkpt>
      <trkpt lat="44.45915" lon="6.74314">
        <ele>1312.44</ele>
        <time>2022-10-08T14:10:31Z</time>
      </trkpt>
      <trkpt lat="44.45899" lon="6.74334">
        <ele>1311.49</ele>
        <time>2022-10-08T14:10:33Z</time>
      </trkpt>
      <trkpt lat="44.45891" lon="6.74341">
        <ele>1311.48</ele>
        <time>2022-10-08T14:10:34Z</time>
      </trkpt>
      <trkpt lat="44.45883" lon="6.74347">
        <ele>1310.36</ele>
        <time>2022-10-08T14:10:35Z</time>
      </trkpt>
      <trkpt lat="44.45867" lon="6.74358">
        <ele>1308.86</ele>
        <time>2022-10-08T14:10:37Z</time>
      </trkpt>
      <trkpt lat="44.45863" lon="6.74367">
        <ele>1307.56</ele>
        <time>2022-10-08T14:10:38Z</time>
      </trkpt>
      <trkpt lat="44.4586" lon="6.74379">
        <ele>1307.48</ele>
        <time>2022-10-08T14:10:39Z</time>
      </trkpt>
      <trkpt lat="44.45856" lon="6.74405">
        <ele>1305.69</ele>
        <time>2022-10-08T14:10:41Z</time>
      </trkpt>
      <trkpt lat="44.45852" lon="6.74432">
        <ele>1303.87</ele>
        <time>2022-10-08T14:10:43Z</time>
      </trkpt>
      <trkpt lat="44.45847" lon="6.74456">
        <ele>1302.93</ele>
        <time>2022-10-08T14:10:45Z</time>
      </trkpt>
      <trkpt lat="44.45844" lon="6.74466">
        <ele>1302.93</ele>
        <time>2022-10-08T14:10:46Z</time>
      </trkpt>
      <trkpt lat="44.45839" lon="6.74477">
        <ele>1302.86</ele>
        <time>2022-10-08T14:10:47Z</time>
      </trkpt>
      <trkpt lat="44.45834" lon="6.74487">
        <ele>1301.91</ele>
        <time>2022-10-08T14:10:48Z</time>
      </trkpt>
      <trkpt lat="44.45828" lon="6.74496">
        <ele>1301.93</ele>
        <time>2022-10-08T14:10:49Z</time>
      </trkpt>
      <trkpt lat="44.45822" lon="6.74504">
        <ele>1301.96</ele>
        <time>2022-10-08T14:10:50Z</time>
      </trkpt>
      <trkpt lat="44.45813" lon="6.74516">
        <ele>1300.35</ele>
        <time>2022-10-08T14:10:52Z</time>
      </trkpt>
      <trkpt lat="44.45807" lon="6.74519">
        <ele>1299.34</ele>
        <time>2022-10-08T14:10:54Z</time>
      </trkpt>
      <trkpt lat="44.45805" lon="6.74517">
        <ele>1299.38</ele>
        <time>2022-10-08T14:10:55Z</time>
      </trkpt>
      <trkpt lat="44.45802" lon="6.74513">
        <ele>1299.4</ele>
        <time>2022-10-08T14:10:56Z</time>
      </trkpt>
      <trkpt lat="44.45792" lon="6.74499">
        <ele>1299.39</ele>
        <time>2022-10-08T14:10:58Z</time>
      </trkpt>
      <trkpt lat="44.45785" lon="6.74491">
        <ele>1299.41</ele>
        <time>2022-10-08T14:10:59Z</time>
      </trkpt>
      <trkpt lat="44.45776" lon="6.74482">
        <ele>1299.71</ele>
        <time>2022-10-08T14:11:00Z</time>
      </trkpt>
      <trkpt lat="44.45766" lon="6.74473">
        <ele>1299.7</ele>
        <time>2022-10-08T14:11:01Z</time>
      </trkpt>
      <trkpt lat="44.45755" lon="6.74464">
        <ele>1299.68</ele>
        <time>2022-10-08T14:11:02Z</time>
      </trkpt>
      <trkpt lat="44.45705" lon="6.74429">
        <ele>1298.4</ele>
        <time>2022-10-08T14:11:06Z</time>
      </trkpt>
      <trkpt lat="44.45679" lon="6.74417">
        <ele>1296.39</ele>
        <time>2022-10-08T14:11:08Z</time>
      </trkpt>
      <trkpt lat="44.45666" lon="6.74413">
        <ele>1296.37</ele>
        <time>2022-10-08T14:11:09Z</time>
      </trkpt>
      <trkpt lat="44.45652" lon="6.74411">
        <ele>1296.37</ele>
        <time>2022-10-08T14:11:10Z</time>
      </trkpt>
      <trkpt lat="44.45625" lon="6.7441">
        <ele>1295.09</ele>
        <time>2022-10-08T14:11:12Z</time>
      </trkpt>
      <trkpt lat="44.45588" lon="6.74404">
        <ele>1292.71</ele>
        <time>2022-10-08T14:11:15Z</time>
      </trkpt>
      <trkpt lat="44.45576" lon="6.74399">
        <ele>1292.63</ele>
        <time>2022-10-08T14:11:16Z</time>
      </trkpt>
      <trkpt lat="44.45565" lon="6.74392">
        <ele>1292.62</ele>
        <time>2022-10-08T14:11:17Z</time>
      </trkpt>
      <trkpt lat="44.45539" lon="6.74378">
        <ele>1292.57</ele>
        <time>2022-10-08T14:11:19Z</time>
      </trkpt>
      <trkpt lat="44.45525" lon="6.74372">
        <ele>1291.47</ele>
        <time>2022-10-08T14:11:20Z</time>
      </trkpt>
      <trkpt lat="44.45509" lon="6.74369">
        <ele>1291.42</ele>
        <time>2022-10-08T14:11:21Z</time>
      </trkpt>
      <trkpt lat="44.45418" lon="6.74363">
        <ele>1289.17</ele>
        <time>2022-10-08T14:11:27Z</time>
      </trkpt>
      <trkpt lat="44.45392" lon="6.74365">
        <ele>1287.9</ele>
        <time>2022-10-08T14:11:29Z</time>
      </trkpt>
      <trkpt lat="44.45379" lon="6.74368">
        <ele>1287.9</ele>
        <time>2022-10-08T14:11:30Z</time>
      </trkpt>
      <trkpt lat="44.45367" lon="6.74373">
        <ele>1287</ele>
        <time>2022-10-08T14:11:31Z</time>
      </trkpt>
      <trkpt lat="44.45342" lon="6.74382">
        <ele>1286.96</ele>
        <time>2022-10-08T14:11:33Z</time>
      </trkpt>
      <trkpt lat="44.45329" lon="6.74382">
        <ele>1286.98</ele>
        <time>2022-10-08T14:11:34Z</time>
      </trkpt>
      <trkpt lat="44.45316" lon="6.74378">
        <ele>1285.67</ele>
        <time>2022-10-08T14:11:35Z</time>
      </trkpt>
      <trkpt lat="44.45305" lon="6.74371">
        <ele>1285.63</ele>
        <time>2022-10-08T14:11:36Z</time>
      </trkpt>
      <trkpt lat="44.45294" lon="6.74361">
        <ele>1285.6</ele>
        <time>2022-10-08T14:11:37Z</time>
      </trkpt>
      <trkpt lat="44.45286" lon="6.74349">
        <ele>1285.58</ele>
        <time>2022-10-08T14:11:38Z</time>
      </trkpt>
      <trkpt lat="44.45277" lon="6.74336">
        <ele>1285.58</ele>
        <time>2022-10-08T14:11:39Z</time>
      </trkpt>
      <trkpt lat="44.45265" lon="6.74322">
        <ele>1285.57</ele>
        <time>2022-10-08T14:11:40Z</time>
      </trkpt>
      <trkpt lat="44.45252" lon="6.7431">
        <ele>1285.53</ele>
        <time>2022-10-08T14:11:41Z</time>
      </trkpt>
      <trkpt lat="44.45237" lon="6.743">
        <ele>1284.79</ele>
        <time>2022-10-08T14:11:42Z</time>
      </trkpt>
      <trkpt lat="44.45222" lon="6.74292">
        <ele>1284.79</ele>
        <time>2022-10-08T14:11:43Z</time>
      </trkpt>
      <trkpt lat="44.45106" lon="6.742">
        <ele>1284.98</ele>
        <time>2022-10-08T14:11:51Z</time>
      </trkpt>
      <trkpt lat="44.44994" lon="6.74078">
        <ele>1283.84</ele>
        <time>2022-10-08T14:11:59Z</time>
      </trkpt>
      <trkpt lat="44.4498" lon="6.74069">
        <ele>1283.85</ele>
        <time>2022-10-08T14:12:00Z</time>
      </trkpt>
      <trkpt lat="44.44964" lon="6.74062">
        <ele>1283.85</ele>
        <time>2022-10-08T14:12:01Z</time>
      </trkpt>
      <trkpt lat="44.44948" lon="6.74057">
        <ele>1283.82</ele>
        <time>2022-10-08T14:12:02Z</time>
      </trkpt>
      <trkpt lat="44.44931" lon="6.74053">
        <ele>1283.82</ele>
        <time>2022-10-08T14:12:03Z</time>
      </trkpt>
      <trkpt lat="44.44914" lon="6.7405">
        <ele>1283.83</ele>
        <time>2022-10-08T14:12:04Z</time>
      </trkpt>
      <trkpt lat="44.44773" lon="6.74015">
        <ele>1283.73</ele>
        <time>2022-10-08T14:12:12Z</time>
      </trkpt>
      <trkpt lat="44.44757" lon="6.74017">
        <ele>1282.19</ele>
        <time>2022-10-08T14:12:13Z</time>
      </trkpt>
      <trkpt lat="44.44741" lon="6.74022">
        <ele>1282.35</ele>
        <time>2022-10-08T14:12:14Z</time>
      </trkpt>
      <trkpt lat="44.44726" lon="6.7403">
        <ele>1282.34</ele>
        <time>2022-10-08T14:12:15Z</time>
      </trkpt>
      <trkpt lat="44.44711" lon="6.74041">
        <ele>1282.35</ele>
        <time>2022-10-08T14:12:16Z</time>
      </trkpt>
      <trkpt lat="44.44697" lon="6.74054">
        <ele>1282.33</ele>
        <time>2022-10-08T14:12:17Z</time>
      </trkpt>
      <trkpt lat="44.44683" lon="6.74068">
        <ele>1282.32</ele>
        <time>2022-10-08T14:12:18Z</time>
      </trkpt>
      <trkpt lat="44.44545" lon="6.74203">
        <ele>1280.1</ele>
        <time>2022-10-08T14:12:28Z</time>
      </trkpt>
      <trkpt lat="44.44467" lon="6.74252">
        <ele>1277.63</ele>
        <time>2022-10-08T14:12:33Z</time>
      </trkpt>
      <trkpt lat="44.44451" lon="6.74258">
        <ele>1277.67</ele>
        <time>2022-10-08T14:12:34Z</time>
      </trkpt>
      <trkpt lat="44.44434" lon="6.74261">
        <ele>1277.6</ele>
        <time>2022-10-08T14:12:35Z</time>
      </trkpt>
      <trkpt lat="44.44417" lon="6.74262">
        <ele>1277.6</ele>
        <time>2022-10-08T14:12:36Z</time>
      </trkpt>
      <trkpt lat="44.44401" lon="6.74258">
        <ele>1277.59</ele>
        <time>2022-10-08T14:12:37Z</time>
      </trkpt>
      <trkpt lat="44.44385" lon="6.74252">
        <ele>1277.55</ele>
        <time>2022-10-08T14:12:38Z</time>
      </trkpt>
      <trkpt lat="44.4437" lon="6.74244">
        <ele>1277.8</ele>
        <time>2022-10-08T14:12:39Z</time>
      </trkpt>
      <trkpt lat="44.44355" lon="6.74235">
        <ele>1277.82</ele>
        <time>2022-10-08T14:12:40Z</time>
      </trkpt>
      <trkpt lat="44.44308" lon="6.74211">
        <ele>1276.93</ele>
        <time>2022-10-08T14:12:43Z</time>
      </trkpt>
      <trkpt lat="44.44291" lon="6.74208">
        <ele>1276.92</ele>
        <time>2022-10-08T14:12:44Z</time>
      </trkpt>
      <trkpt lat="44.44275" lon="6.74205">
        <ele>1276.92</ele>
        <time>2022-10-08T14:12:45Z</time>
      </trkpt>
      <trkpt lat="44.44163" lon="6.74185">
        <ele>1273.27</ele>
        <time>2022-10-08T14:12:52Z</time>
      </trkpt>
      <trkpt lat="44.44148" lon="6.74189">
        <ele>1273.23</ele>
        <time>2022-10-08T14:12:53Z</time>
      </trkpt>
      <trkpt lat="44.44134" lon="6.74196">
        <ele>1273.22</ele>
        <time>2022-10-08T14:12:54Z</time>
      </trkpt>
      <trkpt lat="44.44121" lon="6.74207">
        <ele>1272.32</ele>
        <time>2022-10-08T14:12:55Z</time>
      </trkpt>
      <trkpt lat="44.44109" lon="6.74221">
        <ele>1272.31</ele>
        <time>2022-10-08T14:12:56Z</time>
      </trkpt>
      <trkpt lat="44.44096" lon="6.74234">
        <ele>1272.29</ele>
        <time>2022-10-08T14:12:57Z</time>
      </trkpt>
      <trkpt lat="44.44084" lon="6.74246">
        <ele>1272.24</ele>
        <time>2022-10-08T14:12:58Z</time>
      </trkpt>
      <trkpt lat="44.44069" lon="6.74255">
        <ele>1272.19</ele>
        <time>2022-10-08T14:12:59Z</time>
      </trkpt>
      <trkpt lat="44.44054" lon="6.74261">
        <ele>1272.18</ele>
        <time>2022-10-08T14:13:00Z</time>
      </trkpt>
      <trkpt lat="44.44038" lon="6.74264">
        <ele>1272.16</ele>
        <time>2022-10-08T14:13:01Z</time>
      </trkpt>
      <trkpt lat="44.44023" lon="6.74263">
        <ele>1270.84</ele>
        <time>2022-10-08T14:13:02Z</time>
      </trkpt>
      <trkpt lat="44.44008" lon="6.74263">
        <ele>1271.09</ele>
        <time>2022-10-08T14:13:03Z</time>
      </trkpt>
      <trkpt lat="44.43994" lon="6.74267">
        <ele>1271.11</ele>
        <time>2022-10-08T14:13:04Z</time>
      </trkpt>
      <trkpt lat="44.4398" lon="6.74274">
        <ele>1270.21</ele>
        <time>2022-10-08T14:13:05Z</time>
      </trkpt>
      <trkpt lat="44.43967" lon="6.74284">
        <ele>1270.16</ele>
        <time>2022-10-08T14:13:06Z</time>
      </trkpt>
      <trkpt lat="44.43955" lon="6.74298">
        <ele>1270.14</ele>
        <time>2022-10-08T14:13:07Z</time>
      </trkpt>
      <trkpt lat="44.43944" lon="6.74314">
        <ele>1270.1</ele>
        <time>2022-10-08T14:13:08Z</time>
      </trkpt>
      <trkpt lat="44.43933" lon="6.74331">
        <ele>1270.1</ele>
        <time>2022-10-08T14:13:09Z</time>
      </trkpt>
      <trkpt lat="44.43922" lon="6.74348">
        <ele>1270.06</ele>
        <time>2022-10-08T14:13:10Z</time>
      </trkpt>
      <trkpt lat="44.4391" lon="6.74363">
        <ele>1270.06</ele>
        <time>2022-10-08T14:13:11Z</time>
      </trkpt>
      <trkpt lat="44.43897" lon="6.74375">
        <ele>1270.05</ele>
        <time>2022-10-08T14:13:12Z</time>
      </trkpt>
      <trkpt lat="44.43882" lon="6.74382">
        <ele>1270.02</ele>
        <time>2022-10-08T14:13:13Z</time>
      </trkpt>
      <trkpt lat="44.43868" lon="6.74385">
        <ele>1269.06</ele>
        <time>2022-10-08T14:13:14Z</time>
      </trkpt>
      <trkpt lat="44.43854" lon="6.74387">
        <ele>1268.14</ele>
        <time>2022-10-08T14:13:15Z</time>
      </trkpt>
      <trkpt lat="44.4384" lon="6.74384">
        <ele>1268.12</ele>
        <time>2022-10-08T14:13:16Z</time>
      </trkpt>
      <trkpt lat="44.43825" lon="6.74381">
        <ele>1267.31</ele>
        <time>2022-10-08T14:13:17Z</time>
      </trkpt>
      <trkpt lat="44.4381" lon="6.74382">
        <ele>1267.27</ele>
        <time>2022-10-08T14:13:18Z</time>
      </trkpt>
      <trkpt lat="44.43795" lon="6.74387">
        <ele>1267.3</ele>
        <time>2022-10-08T14:13:19Z</time>
      </trkpt>
      <trkpt lat="44.4378" lon="6.74394">
        <ele>1267.33</ele>
        <time>2022-10-08T14:13:20Z</time>
      </trkpt>
      <trkpt lat="44.4375" lon="6.74405">
        <ele>1267.25</ele>
        <time>2022-10-08T14:13:22Z</time>
      </trkpt>
      <trkpt lat="44.43734" lon="6.74404">
        <ele>1267.21</ele>
        <time>2022-10-08T14:13:23Z</time>
      </trkpt>
      <trkpt lat="44.43718" lon="6.74399">
        <ele>1267.29</ele>
        <time>2022-10-08T14:13:24Z</time>
      </trkpt>
      <trkpt lat="44.43623" lon="6.74366">
        <ele>1265.34</ele>
        <time>2022-10-08T14:13:30Z</time>
      </trkpt>
      <trkpt lat="44.43608" lon="6.74368">
        <ele>1264.4</ele>
        <time>2022-10-08T14:13:31Z</time>
      </trkpt>
      <trkpt lat="44.43595" lon="6.74374">
        <ele>1264.41</ele>
        <time>2022-10-08T14:13:32Z</time>
      </trkpt>
      <trkpt lat="44.43582" lon="6.74383">
        <ele>1264.69</ele>
        <time>2022-10-08T14:13:33Z</time>
      </trkpt>
      <trkpt lat="44.43569" lon="6.74393">
        <ele>1264.69</ele>
        <time>2022-10-08T14:13:34Z</time>
      </trkpt>
      <trkpt lat="44.43555" lon="6.74401">
        <ele>1263.84</ele>
        <time>2022-10-08T14:13:35Z</time>
      </trkpt>
      <trkpt lat="44.43541" lon="6.74406">
        <ele>1263.82</ele>
        <time>2022-10-08T14:13:36Z</time>
      </trkpt>
      <trkpt lat="44.43525" lon="6.74408">
        <ele>1263.82</ele>
        <time>2022-10-08T14:13:37Z</time>
      </trkpt>
      <trkpt lat="44.43509" lon="6.74407">
        <ele>1263.01</ele>
        <time>2022-10-08T14:13:38Z</time>
      </trkpt>
      <trkpt lat="44.43493" lon="6.74406">
        <ele>1262.99</ele>
        <time>2022-10-08T14:13:39Z</time>
      </trkpt>
      <trkpt lat="44.43478" lon="6.74403">
        <ele>1262.96</ele>
        <time>2022-10-08T14:13:40Z</time>
      </trkpt>
      <trkpt lat="44.43449" lon="6.74394">
        <ele>1261.32</ele>
        <time>2022-10-08T14:13:42Z</time>
      </trkpt>
      <trkpt lat="44.43435" lon="6.74386">
        <ele>1260.14</ele>
        <time>2022-10-08T14:13:43Z</time>
      </trkpt>
      <trkpt lat="44.43423" lon="6.74374">
        <ele>1259.24</ele>
        <time>2022-10-08T14:13:44Z</time>
      </trkpt>
      <trkpt lat="44.43413" lon="6.74358">
        <ele>1259.21</ele>
        <time>2022-10-08T14:13:45Z</time>
      </trkpt>
      <trkpt lat="44.43408" lon="6.74334">
        <ele>1259.2</ele>
        <time>2022-10-08T14:13:46Z</time>
      </trkpt>
      <trkpt lat="44.43403" lon="6.74309">
        <ele>1259.2</ele>
        <time>2022-10-08T14:13:47Z</time>
      </trkpt>
      <trkpt lat="44.43388" lon="6.74232">
        <ele>1257.95</ele>
        <time>2022-10-08T14:13:50Z</time>
      </trkpt>
      <trkpt lat="44.43359" lon="6.74134">
        <ele>1257.95</ele>
        <time>2022-10-08T14:13:54Z</time>
      </trkpt>
      <trkpt lat="44.43348" lon="6.74115">
        <ele>1257.96</ele>
        <time>2022-10-08T14:13:55Z</time>
      </trkpt>
      <trkpt lat="44.43334" lon="6.74098">
        <ele>1256.7</ele>
        <time>2022-10-08T14:13:56Z</time>
      </trkpt>
      <trkpt lat="44.43319" lon="6.74084">
        <ele>1256.89</ele>
        <time>2022-10-08T14:13:57Z</time>
      </trkpt>
      <trkpt lat="44.43304" lon="6.74071">
        <ele>1255.96</ele>
        <time>2022-10-08T14:13:58Z</time>
      </trkpt>
      <trkpt lat="44.43275" lon="6.74045">
        <ele>1255.94</ele>
        <time>2022-10-08T14:14:00Z</time>
      </trkpt>
      <trkpt lat="44.43262" lon="6.7403">
        <ele>1255.91</ele>
        <time>2022-10-08T14:14:01Z</time>
      </trkpt>
      <trkpt lat="44.43251" lon="6.74013">
        <ele>1254.73</ele>
        <time>2022-10-08T14:14:02Z</time>
      </trkpt>
      <trkpt lat="44.43239" lon="6.73995">
        <ele>1254.71</ele>
        <time>2022-10-08T14:14:03Z</time>
      </trkpt>
      <trkpt lat="44.43185" lon="6.73897">
        <ele>1252.04</ele>
        <time>2022-10-08T14:14:08Z</time>
      </trkpt>
      <trkpt lat="44.43172" lon="6.7388">
        <ele>1251.98</ele>
        <time>2022-10-08T14:14:09Z</time>
      </trkpt>
      <trkpt lat="44.43158" lon="6.73868">
        <ele>1250.53</ele>
        <time>2022-10-08T14:14:10Z</time>
      </trkpt>
      <trkpt lat="44.43143" lon="6.73859">
        <ele>1250.45</ele>
        <time>2022-10-08T14:14:11Z</time>
      </trkpt>
      <trkpt lat="44.43128" lon="6.73853">
        <ele>1249.25</ele>
        <time>2022-10-08T14:14:12Z</time>
      </trkpt>
      <trkpt lat="44.43114" lon="6.73848">
        <ele>1249.24</ele>
        <time>2022-10-08T14:14:13Z</time>
      </trkpt>
      <trkpt lat="44.431" lon="6.73841">
        <ele>1247.69</ele>
        <time>2022-10-08T14:14:14Z</time>
      </trkpt>
      <trkpt lat="44.43088" lon="6.7383">
        <ele>1247.7</ele>
        <time>2022-10-08T14:14:15Z</time>
      </trkpt>
      <trkpt lat="44.43076" lon="6.73816">
        <ele>1247.7</ele>
        <time>2022-10-08T14:14:16Z</time>
      </trkpt>
      <trkpt lat="44.43065" lon="6.73799">
        <ele>1247.74</ele>
        <time>2022-10-08T14:14:17Z</time>
      </trkpt>
      <trkpt lat="44.43054" lon="6.73779">
        <ele>1247.7</ele>
        <time>2022-10-08T14:14:18Z</time>
      </trkpt>
      <trkpt lat="44.42994" lon="6.73678">
        <ele>1248</ele>
        <time>2022-10-08T14:14:23Z</time>
      </trkpt>
      <trkpt lat="44.42979" lon="6.73663">
        <ele>1247.96</ele>
        <time>2022-10-08T14:14:24Z</time>
      </trkpt>
      <trkpt lat="44.42963" lon="6.7365">
        <ele>1247.96</ele>
        <time>2022-10-08T14:14:25Z</time>
      </trkpt>
      <trkpt lat="44.42946" lon="6.7364">
        <ele>1247.94</ele>
        <time>2022-10-08T14:14:26Z</time>
      </trkpt>
      <trkpt lat="44.42928" lon="6.73632">
        <ele>1247.94</ele>
        <time>2022-10-08T14:14:27Z</time>
      </trkpt>
      <trkpt lat="44.4291" lon="6.73628">
        <ele>1247.94</ele>
        <time>2022-10-08T14:14:28Z</time>
      </trkpt>
      <trkpt lat="44.42892" lon="6.73626">
        <ele>1247.94</ele>
        <time>2022-10-08T14:14:29Z</time>
      </trkpt>
      <trkpt lat="44.42873" lon="6.73626">
        <ele>1247.94</ele>
        <time>2022-10-08T14:14:30Z</time>
      </trkpt>
      <trkpt lat="44.42855" lon="6.7363">
        <ele>1247.94</ele>
        <time>2022-10-08T14:14:31Z</time>
      </trkpt>
      <trkpt lat="44.42837" lon="6.73636">
        <ele>1247.94</ele>
        <time>2022-10-08T14:14:32Z</time>
      </trkpt>
      <trkpt lat="44.42819" lon="6.73643">
        <ele>1247.94</ele>
        <time>2022-10-08T14:14:33Z</time>
      </trkpt>
      <trkpt lat="44.42801" lon="6.73651">
        <ele>1247.93</ele>
        <time>2022-10-08T14:14:34Z</time>
      </trkpt>
      <trkpt lat="44.42734" lon="6.73683">
        <ele>1246.62</ele>
        <time>2022-10-08T14:14:38Z</time>
      </trkpt>
      <trkpt lat="44.42596" lon="6.73697">
        <ele>1245.59</ele>
        <time>2022-10-08T14:14:46Z</time>
      </trkpt>
      <trkpt lat="44.42515" lon="6.737">
        <ele>1242.87</ele>
        <time>2022-10-08T14:14:51Z</time>
      </trkpt>
      <trkpt lat="44.42388" lon="6.73708">
        <ele>1240.92</ele>
        <time>2022-10-08T14:15:00Z</time>
      </trkpt>
      <trkpt lat="44.42313" lon="6.73713">
        <ele>1237.74</ele>
        <time>2022-10-08T14:15:06Z</time>
      </trkpt>
      <trkpt lat="44.42251" lon="6.73715">
        <ele>1235.16</ele>
        <time>2022-10-08T14:15:11Z</time>
      </trkpt>
      <trkpt lat="44.42125" lon="6.73692">
        <ele>1232.75</ele>
        <time>2022-10-08T14:15:20Z</time>
      </trkpt>
      <trkpt lat="44.4209" lon="6.73677">
        <ele>1231.05</ele>
        <time>2022-10-08T14:15:23Z</time>
      </trkpt>
      <trkpt lat="44.42056" lon="6.73661">
        <ele>1229.09</ele>
        <time>2022-10-08T14:15:27Z</time>
      </trkpt>
      <trkpt lat="44.42051" lon="6.73661">
        <ele>1228.32</ele>
        <time>2022-10-08T14:15:28Z</time>
      </trkpt>
      <trkpt lat="44.42047" lon="6.73663">
        <ele>1228.31</ele>
        <time>2022-10-08T14:15:29Z</time>
      </trkpt>
      <trkpt lat="44.42044" lon="6.73669">
        <ele>1228.26</ele>
        <time>2022-10-08T14:15:30Z</time>
      </trkpt>
      <trkpt lat="44.42042" lon="6.73677">
        <ele>1228.23</ele>
        <time>2022-10-08T14:15:31Z</time>
      </trkpt>
      <trkpt lat="44.42019" lon="6.73765">
        <ele>1230.83</ele>
        <time>2022-10-08T14:15:38Z</time>
      </trkpt>
      <trkpt lat="44.42012" lon="6.73813">
        <ele>1232.28</ele>
        <time>2022-10-08T14:15:41Z</time>
      </trkpt>
      <trkpt lat="44.42007" lon="6.7386">
        <ele>1233.55</ele>
        <time>2022-10-08T14:15:44Z</time>
      </trkpt>
      <trkpt lat="44.41996" lon="6.73926">
        <ele>1233.59</ele>
        <time>2022-10-08T14:15:48Z</time>
      </trkpt>
      <trkpt lat="44.41992" lon="6.73942">
        <ele>1233.58</ele>
        <time>2022-10-08T14:15:49Z</time>
      </trkpt>
      <trkpt lat="44.41986" lon="6.73956">
        <ele>1233.6</ele>
        <time>2022-10-08T14:15:50Z</time>
      </trkpt>
      <trkpt lat="44.41978" lon="6.7397">
        <ele>1233.54</ele>
        <time>2022-10-08T14:15:51Z</time>
      </trkpt>
      <trkpt lat="44.4197" lon="6.73982">
        <ele>1233.53</ele>
        <time>2022-10-08T14:15:52Z</time>
      </trkpt>
      <trkpt lat="44.4196" lon="6.73992">
        <ele>1233.53</ele>
        <time>2022-10-08T14:15:53Z</time>
      </trkpt>
      <trkpt lat="44.4195" lon="6.74001">
        <ele>1233.53</ele>
        <time>2022-10-08T14:15:54Z</time>
      </trkpt>
      <trkpt lat="44.41939" lon="6.7401">
        <ele>1233.59</ele>
        <time>2022-10-08T14:15:55Z</time>
      </trkpt>
      <trkpt lat="44.41928" lon="6.74017">
        <ele>1233.58</ele>
        <time>2022-10-08T14:15:56Z</time>
      </trkpt>
      <trkpt lat="44.4186" lon="6.74064">
        <ele>1236.01</ele>
        <time>2022-10-08T14:16:02Z</time>
      </trkpt>
      <trkpt lat="44.41782" lon="6.74132">
        <ele>1239.28</ele>
        <time>2022-10-08T14:16:09Z</time>
      </trkpt>
      <trkpt lat="44.41746" lon="6.74157">
        <ele>1240.58</ele>
        <time>2022-10-08T14:16:12Z</time>
      </trkpt>
      <trkpt lat="44.41694" lon="6.74219">
        <ele>1243.9</ele>
        <time>2022-10-08T14:16:19Z</time>
      </trkpt>
      <trkpt lat="44.41691" lon="6.74225">
        <ele>1243.85</ele>
        <time>2022-10-08T14:16:20Z</time>
      </trkpt>
      <trkpt lat="44.41689" lon="6.74231">
        <ele>1243.89</ele>
        <time>2022-10-08T14:16:21Z</time>
      </trkpt>
      <trkpt lat="44.41689" lon="6.74236">
        <ele>1243.87</ele>
        <time>2022-10-08T14:16:22Z</time>
      </trkpt>
      <trkpt lat="44.4169" lon="6.74241">
        <ele>1243.87</ele>
        <time>2022-10-08T14:16:23Z</time>
      </trkpt>
      <trkpt lat="44.41691" lon="6.74245">
        <ele>1243.94</ele>
        <time>2022-10-08T14:16:24Z</time>
      </trkpt>
      <trkpt lat="44.41691" lon="6.74248">
        <ele>1243.91</ele>
        <time>2022-10-08T14:16:25Z</time>
      </trkpt>
      <trkpt lat="44.41694" lon="6.74247">
        <ele>1244.4</ele>
        <time>2022-10-08T14:16:36Z</time>
      </trkpt>
      <trkpt lat="44.41696" lon="6.74246">
        <ele>1244.39</ele>
        <time>2022-10-08T14:16:37Z</time>
      </trkpt>
      <trkpt lat="44.41698" lon="6.74243">
        <ele>1244.39</ele>
        <time>2022-10-08T14:16:38Z</time>
      </trkpt>
      <trkpt lat="44.41702" lon="6.74236">
        <ele>1244.37</ele>
        <time>2022-10-08T14:16:40Z</time>
      </trkpt>
      <trkpt lat="44.41702" lon="6.74233">
        <ele>1244.34</ele>
        <time>2022-10-08T14:16:41Z</time>
      </trkpt>
      <trkpt lat="44.41703" lon="6.7423">
        <ele>1244.31</ele>
        <time>2022-10-08T14:16:42Z</time>
      </trkpt>
      <trkpt lat="44.41704" lon="6.74227">
        <ele>1244.2</ele>
        <time>2022-10-08T14:16:57Z</time>
      </trkpt>
      <trkpt lat="44.41704" lon="6.74224">
        <ele>1237.56</ele>
        <time>2022-10-08T14:17:22Z</time>
      </trkpt>
      <trkpt lat="44.41631" lon="6.74297">
        <ele>1241.69</ele>
        <time>2022-10-08T14:22:08Z</time>
      </trkpt>
      <trkpt lat="44.41591" lon="6.74337">
        <ele>1241.66</ele>
        <time>2022-10-08T14:22:12Z</time>
      </trkpt>
      <trkpt lat="44.41582" lon="6.74349">
        <ele>1242.74</ele>
        <time>2022-10-08T14:22:13Z</time>
      </trkpt>
      <trkpt lat="44.41575" lon="6.74362">
        <ele>1242.36</ele>
        <time>2022-10-08T14:22:14Z</time>
      </trkpt>
      <trkpt lat="44.4157" lon="6.74376">
        <ele>1243.65</ele>
        <time>2022-10-08T14:22:15Z</time>
      </trkpt>
      <trkpt lat="44.41564" lon="6.74392">
        <ele>1243.27</ele>
        <time>2022-10-08T14:22:16Z</time>
      </trkpt>
      <trkpt lat="44.41526" lon="6.74505">
        <ele>1245.84</ele>
        <time>2022-10-08T14:22:23Z</time>
      </trkpt>
      <trkpt lat="44.41524" lon="6.74522">
        <ele>1246.35</ele>
        <time>2022-10-08T14:22:24Z</time>
      </trkpt>
      <trkpt lat="44.41518" lon="6.74593">
        <ele>1246.73</ele>
        <time>2022-10-08T14:22:28Z</time>
      </trkpt>
      <trkpt lat="44.41514" lon="6.7461">
        <ele>1246.46</ele>
        <time>2022-10-08T14:22:29Z</time>
      </trkpt>
      <trkpt lat="44.41498" lon="6.74664">
        <ele>1249.64</ele>
        <time>2022-10-08T14:22:32Z</time>
      </trkpt>
      <trkpt lat="44.41489" lon="6.74709">
        <ele>1252.93</ele>
        <time>2022-10-08T14:22:34Z</time>
      </trkpt>
      <trkpt lat="44.4148" lon="6.74753">
        <ele>1253.59</ele>
        <time>2022-10-08T14:22:36Z</time>
      </trkpt>
      <trkpt lat="44.41474" lon="6.74772">
        <ele>1254.6</ele>
        <time>2022-10-08T14:22:37Z</time>
      </trkpt>
      <trkpt lat="44.41459" lon="6.74825">
        <ele>1255.44</ele>
        <time>2022-10-08T14:22:40Z</time>
      </trkpt>
      <trkpt lat="44.41457" lon="6.74843">
        <ele>1256.01</ele>
        <time>2022-10-08T14:22:41Z</time>
      </trkpt>
      <trkpt lat="44.41459" lon="6.74861">
        <ele>1257.81</ele>
        <time>2022-10-08T14:22:42Z</time>
      </trkpt>
      <trkpt lat="44.41464" lon="6.74879">
        <ele>1257.8</ele>
        <time>2022-10-08T14:22:43Z</time>
      </trkpt>
      <trkpt lat="44.41471" lon="6.74898">
        <ele>1259.4</ele>
        <time>2022-10-08T14:22:44Z</time>
      </trkpt>
      <trkpt lat="44.41479" lon="6.74919">
        <ele>1262.02</ele>
        <time>2022-10-08T14:22:45Z</time>
      </trkpt>
      <trkpt lat="44.41487" lon="6.7494">
        <ele>1262</ele>
        <time>2022-10-08T14:22:46Z</time>
      </trkpt>
      <trkpt lat="44.41505" lon="6.74983">
        <ele>1263.88</ele>
        <time>2022-10-08T14:22:48Z</time>
      </trkpt>
      <trkpt lat="44.41529" lon="6.75039">
        <ele>1266.05</ele>
        <time>2022-10-08T14:22:51Z</time>
      </trkpt>
      <trkpt lat="44.41538" lon="6.75053">
        <ele>1265.95</ele>
        <time>2022-10-08T14:22:52Z</time>
      </trkpt>
      <trkpt lat="44.41545" lon="6.75066">
        <ele>1265.89</ele>
        <time>2022-10-08T14:22:53Z</time>
      </trkpt>
      <trkpt lat="44.4155" lon="6.75078">
        <ele>1266.77</ele>
        <time>2022-10-08T14:22:54Z</time>
      </trkpt>
      <trkpt lat="44.41551" lon="6.7509">
        <ele>1266.78</ele>
        <time>2022-10-08T14:22:55Z</time>
      </trkpt>
      <trkpt lat="44.41549" lon="6.75099">
        <ele>1267.73</ele>
        <time>2022-10-08T14:22:56Z</time>
      </trkpt>
      <trkpt lat="44.41544" lon="6.75106">
        <ele>1267.82</ele>
        <time>2022-10-08T14:22:57Z</time>
      </trkpt>
      <trkpt lat="44.41536" lon="6.75112">
        <ele>1267.92</ele>
        <time>2022-10-08T14:22:58Z</time>
      </trkpt>
      <trkpt lat="44.41516" lon="6.75127">
        <ele>1269.41</ele>
        <time>2022-10-08T14:23:00Z</time>
      </trkpt>
      <trkpt lat="44.41504" lon="6.75133">
        <ele>1271.48</ele>
        <time>2022-10-08T14:23:01Z</time>
      </trkpt>
      <trkpt lat="44.41493" lon="6.75138">
        <ele>1271.65</ele>
        <time>2022-10-08T14:23:02Z</time>
      </trkpt>
      <trkpt lat="44.41474" lon="6.75145">
        <ele>1271.9</ele>
        <time>2022-10-08T14:23:04Z</time>
      </trkpt>
      <trkpt lat="44.41467" lon="6.75151">
        <ele>1272.9</ele>
        <time>2022-10-08T14:23:05Z</time>
      </trkpt>
      <trkpt lat="44.41463" lon="6.75159">
        <ele>1273.01</ele>
        <time>2022-10-08T14:23:06Z</time>
      </trkpt>
      <trkpt lat="44.41462" lon="6.7517">
        <ele>1274.02</ele>
        <time>2022-10-08T14:23:07Z</time>
      </trkpt>
      <trkpt lat="44.41464" lon="6.75182">
        <ele>1274.16</ele>
        <time>2022-10-08T14:23:08Z</time>
      </trkpt>
      <trkpt lat="44.41468" lon="6.75195">
        <ele>1275.76</ele>
        <time>2022-10-08T14:23:09Z</time>
      </trkpt>
      <trkpt lat="44.41474" lon="6.75208">
        <ele>1278.06</ele>
        <time>2022-10-08T14:23:10Z</time>
      </trkpt>
      <trkpt lat="44.41488" lon="6.75235">
        <ele>1279.3</ele>
        <time>2022-10-08T14:23:12Z</time>
      </trkpt>
      <trkpt lat="44.41493" lon="6.75248">
        <ele>1280.73</ele>
        <time>2022-10-08T14:23:13Z</time>
      </trkpt>
      <trkpt lat="44.41497" lon="6.7526">
        <ele>1280.86</ele>
        <time>2022-10-08T14:23:14Z</time>
      </trkpt>
      <trkpt lat="44.41498" lon="6.7527">
        <ele>1280.99</ele>
        <time>2022-10-08T14:23:15Z</time>
      </trkpt>
      <trkpt lat="44.41496" lon="6.75278">
        <ele>1282.02</ele>
        <time>2022-10-08T14:23:16Z</time>
      </trkpt>
      <trkpt lat="44.41492" lon="6.75284">
        <ele>1282.12</ele>
        <time>2022-10-08T14:23:17Z</time>
      </trkpt>
      <trkpt lat="44.41486" lon="6.75287">
        <ele>1282.28</ele>
        <time>2022-10-08T14:23:18Z</time>
      </trkpt>
      <trkpt lat="44.4148" lon="6.75284">
        <ele>1283.15</ele>
        <time>2022-10-08T14:23:19Z</time>
      </trkpt>
      <trkpt lat="44.41475" lon="6.75277">
        <ele>1284.33</ele>
        <time>2022-10-08T14:23:20Z</time>
      </trkpt>
      <trkpt lat="44.41469" lon="6.75267">
        <ele>1285.51</ele>
        <time>2022-10-08T14:23:21Z</time>
      </trkpt>
      <trkpt lat="44.41463" lon="6.75253">
        <ele>1285.55</ele>
        <time>2022-10-08T14:23:22Z</time>
      </trkpt>
      <trkpt lat="44.41447" lon="6.75225">
        <ele>1289.05</ele>
        <time>2022-10-08T14:23:24Z</time>
      </trkpt>
      <trkpt lat="44.41437" lon="6.75212">
        <ele>1290.25</ele>
        <time>2022-10-08T14:23:25Z</time>
      </trkpt>
      <trkpt lat="44.41424" lon="6.75201">
        <ele>1291.09</ele>
        <time>2022-10-08T14:23:26Z</time>
      </trkpt>
      <trkpt lat="44.41394" lon="6.7518">
        <ele>1294.56</ele>
        <time>2022-10-08T14:23:28Z</time>
      </trkpt>
      <trkpt lat="44.41361" lon="6.75159">
        <ele>1297.92</ele>
        <time>2022-10-08T14:23:30Z</time>
      </trkpt>
      <trkpt lat="44.41315" lon="6.75129">
        <ele>1301.75</ele>
        <time>2022-10-08T14:23:33Z</time>
      </trkpt>
      <trkpt lat="44.41284" lon="6.75111">
        <ele>1301.67</ele>
        <time>2022-10-08T14:23:36Z</time>
      </trkpt>
      <trkpt lat="44.41277" lon="6.75112">
        <ele>1301.76</ele>
        <time>2022-10-08T14:23:37Z</time>
      </trkpt>
      <trkpt lat="44.41272" lon="6.75118">
        <ele>1301.74</ele>
        <time>2022-10-08T14:23:38Z</time>
      </trkpt>
      <trkpt lat="44.41271" lon="6.75125">
        <ele>1302.74</ele>
        <time>2022-10-08T14:23:39Z</time>
      </trkpt>
      <trkpt lat="44.41274" lon="6.75133">
        <ele>1302.74</ele>
        <time>2022-10-08T14:23:40Z</time>
      </trkpt>
      <trkpt lat="44.4128" lon="6.75138">
        <ele>1302.67</ele>
        <time>2022-10-08T14:23:41Z</time>
      </trkpt>
      <trkpt lat="44.41288" lon="6.75141">
        <ele>1303.9</ele>
        <time>2022-10-08T14:23:42Z</time>
      </trkpt>
      <trkpt lat="44.41297" lon="6.75144">
        <ele>1303.87</ele>
        <time>2022-10-08T14:23:43Z</time>
      </trkpt>
      <trkpt lat="44.41306" lon="6.75148">
        <ele>1305.83</ele>
        <time>2022-10-08T14:23:44Z</time>
      </trkpt>
      <trkpt lat="44.41314" lon="6.75156">
        <ele>1305.88</ele>
        <time>2022-10-08T14:23:45Z</time>
      </trkpt>
      <trkpt lat="44.41321" lon="6.75167">
        <ele>1307.13</ele>
        <time>2022-10-08T14:23:46Z</time>
      </trkpt>
      <trkpt lat="44.41326" lon="6.75181">
        <ele>1308.59</ele>
        <time>2022-10-08T14:23:47Z</time>
      </trkpt>
      <trkpt lat="44.4133" lon="6.75197">
        <ele>1309.53</ele>
        <time>2022-10-08T14:23:48Z</time>
      </trkpt>
      <trkpt lat="44.41332" lon="6.75215">
        <ele>1310.46</ele>
        <time>2022-10-08T14:23:49Z</time>
      </trkpt>
      <trkpt lat="44.41336" lon="6.75234">
        <ele>1311.69</ele>
        <time>2022-10-08T14:23:50Z</time>
      </trkpt>
      <trkpt lat="44.41341" lon="6.75254">
        <ele>1312.82</ele>
        <time>2022-10-08T14:23:51Z</time>
      </trkpt>
      <trkpt lat="44.41347" lon="6.75272">
        <ele>1314.23</ele>
        <time>2022-10-08T14:23:52Z</time>
      </trkpt>
      <trkpt lat="44.41353" lon="6.75289">
        <ele>1314.24</ele>
        <time>2022-10-08T14:23:53Z</time>
      </trkpt>
      <trkpt lat="44.41358" lon="6.75305">
        <ele>1315.93</ele>
        <time>2022-10-08T14:23:54Z</time>
      </trkpt>
      <trkpt lat="44.4136" lon="6.75321">
        <ele>1316.9</ele>
        <time>2022-10-08T14:23:55Z</time>
      </trkpt>
      <trkpt lat="44.41362" lon="6.75338">
        <ele>1317.81</ele>
        <time>2022-10-08T14:23:56Z</time>
      </trkpt>
      <trkpt lat="44.41363" lon="6.75371">
        <ele>1318.93</ele>
        <time>2022-10-08T14:23:58Z</time>
      </trkpt>
      <trkpt lat="44.41362" lon="6.75396">
        <ele>1320.76</ele>
        <time>2022-10-08T14:24:00Z</time>
      </trkpt>
      <trkpt lat="44.41359" lon="6.75404">
        <ele>1320.76</ele>
        <time>2022-10-08T14:24:01Z</time>
      </trkpt>
      <trkpt lat="44.41355" lon="6.7541">
        <ele>1320.86</ele>
        <time>2022-10-08T14:24:02Z</time>
      </trkpt>
      <trkpt lat="44.41348" lon="6.7541">
        <ele>1322.3</ele>
        <time>2022-10-08T14:24:03Z</time>
      </trkpt>
      <trkpt lat="44.41343" lon="6.75407">
        <ele>1322.3</ele>
        <time>2022-10-08T14:24:04Z</time>
      </trkpt>
      <trkpt lat="44.41337" lon="6.75399">
        <ele>1322.39</ele>
        <time>2022-10-08T14:24:05Z</time>
      </trkpt>
      <trkpt lat="44.41332" lon="6.75389">
        <ele>1324.16</ele>
        <time>2022-10-08T14:24:06Z</time>
      </trkpt>
      <trkpt lat="44.41326" lon="6.75375">
        <ele>1325.25</ele>
        <time>2022-10-08T14:24:07Z</time>
      </trkpt>
      <trkpt lat="44.41319" lon="6.75362">
        <ele>1326.5</ele>
        <time>2022-10-08T14:24:08Z</time>
      </trkpt>
      <trkpt lat="44.41292" lon="6.75317">
        <ele>1330.18</ele>
        <time>2022-10-08T14:24:11Z</time>
      </trkpt>
      <trkpt lat="44.41265" lon="6.7528">
        <ele>1332.62</ele>
        <time>2022-10-08T14:24:14Z</time>
      </trkpt>
      <trkpt lat="44.41256" lon="6.75273">
        <ele>1332.71</ele>
        <time>2022-10-08T14:24:15Z</time>
      </trkpt>
      <trkpt lat="44.41247" lon="6.75272">
        <ele>1333.77</ele>
        <time>2022-10-08T14:24:16Z</time>
      </trkpt>
      <trkpt lat="44.41241" lon="6.75275">
        <ele>1333.85</ele>
        <time>2022-10-08T14:24:17Z</time>
      </trkpt>
      <trkpt lat="44.41238" lon="6.75283">
        <ele>1334.76</ele>
        <time>2022-10-08T14:24:18Z</time>
      </trkpt>
      <trkpt lat="44.41239" lon="6.75294">
        <ele>1334.67</ele>
        <time>2022-10-08T14:24:19Z</time>
      </trkpt>
      <trkpt lat="44.41243" lon="6.75306">
        <ele>1334.72</ele>
        <time>2022-10-08T14:24:20Z</time>
      </trkpt>
      <trkpt lat="44.41249" lon="6.75319">
        <ele>1335.89</ele>
        <time>2022-10-08T14:24:21Z</time>
      </trkpt>
      <trkpt lat="44.41257" lon="6.75334">
        <ele>1337.01</ele>
        <time>2022-10-08T14:24:22Z</time>
      </trkpt>
      <trkpt lat="44.41264" lon="6.7535">
        <ele>1339.23</ele>
        <time>2022-10-08T14:24:23Z</time>
      </trkpt>
      <trkpt lat="44.41271" lon="6.75369">
        <ele>1340.43</ele>
        <time>2022-10-08T14:24:24Z</time>
      </trkpt>
      <trkpt lat="44.41285" lon="6.75412">
        <ele>1343.55</ele>
        <time>2022-10-08T14:24:26Z</time>
      </trkpt>
      <trkpt lat="44.41298" lon="6.75455">
        <ele>1344.78</ele>
        <time>2022-10-08T14:24:28Z</time>
      </trkpt>
      <trkpt lat="44.41302" lon="6.75474">
        <ele>1346.02</ele>
        <time>2022-10-08T14:24:29Z</time>
      </trkpt>
      <trkpt lat="44.41306" lon="6.75491">
        <ele>1346.88</ele>
        <time>2022-10-08T14:24:30Z</time>
      </trkpt>
      <trkpt lat="44.41306" lon="6.75508">
        <ele>1346.86</ele>
        <time>2022-10-08T14:24:31Z</time>
      </trkpt>
      <trkpt lat="44.41305" lon="6.75525">
        <ele>1348.07</ele>
        <time>2022-10-08T14:24:32Z</time>
      </trkpt>
      <trkpt lat="44.41301" lon="6.75542">
        <ele>1350.18</ele>
        <time>2022-10-08T14:24:33Z</time>
      </trkpt>
      <trkpt lat="44.41297" lon="6.75557">
        <ele>1350.17</ele>
        <time>2022-10-08T14:24:34Z</time>
      </trkpt>
      <trkpt lat="44.41292" lon="6.7557">
        <ele>1350.56</ele>
        <time>2022-10-08T14:24:35Z</time>
      </trkpt>
      <trkpt lat="44.41287" lon="6.7558">
        <ele>1350.24</ele>
        <time>2022-10-08T14:24:36Z</time>
      </trkpt>
      <trkpt lat="44.41281" lon="6.75586">
        <ele>1351.3</ele>
        <time>2022-10-08T14:24:37Z</time>
      </trkpt>
      <trkpt lat="44.41274" lon="6.75588">
        <ele>1351.28</ele>
        <time>2022-10-08T14:24:38Z</time>
      </trkpt>
      <trkpt lat="44.41267" lon="6.75586">
        <ele>1352.21</ele>
        <time>2022-10-08T14:24:39Z</time>
      </trkpt>
      <trkpt lat="44.41262" lon="6.75579">
        <ele>1353.11</ele>
        <time>2022-10-08T14:24:40Z</time>
      </trkpt>
      <trkpt lat="44.41261" lon="6.75569">
        <ele>1353.86</ele>
        <time>2022-10-08T14:24:41Z</time>
      </trkpt>
      <trkpt lat="44.41262" lon="6.75558">
        <ele>1353.88</ele>
        <time>2022-10-08T14:24:42Z</time>
      </trkpt>
      <trkpt lat="44.41265" lon="6.75545">
        <ele>1353.84</ele>
        <time>2022-10-08T14:24:43Z</time>
      </trkpt>
      <trkpt lat="44.41269" lon="6.75531">
        <ele>1355.99</ele>
        <time>2022-10-08T14:24:44Z</time>
      </trkpt>
      <trkpt lat="44.4127" lon="6.75516">
        <ele>1356.05</ele>
        <time>2022-10-08T14:24:45Z</time>
      </trkpt>
      <trkpt lat="44.41268" lon="6.755">
        <ele>1357.63</ele>
        <time>2022-10-08T14:24:46Z</time>
      </trkpt>
      <trkpt lat="44.41263" lon="6.75485">
        <ele>1359.06</ele>
        <time>2022-10-08T14:24:47Z</time>
      </trkpt>
      <trkpt lat="44.41256" lon="6.75469">
        <ele>1361.33</ele>
        <time>2022-10-08T14:24:48Z</time>
      </trkpt>
      <trkpt lat="44.41246" lon="6.75453">
        <ele>1362.39</ele>
        <time>2022-10-08T14:24:49Z</time>
      </trkpt>
      <trkpt lat="44.41235" lon="6.75438">
        <ele>1364.18</ele>
        <time>2022-10-08T14:24:50Z</time>
      </trkpt>
      <trkpt lat="44.4121" lon="6.75404">
        <ele>1367.8</ele>
        <time>2022-10-08T14:24:52Z</time>
      </trkpt>
      <trkpt lat="44.41182" lon="6.75366">
        <ele>1371.07</ele>
        <time>2022-10-08T14:24:54Z</time>
      </trkpt>
      <trkpt lat="44.41135" lon="6.753">
        <ele>1374.72</ele>
        <time>2022-10-08T14:24:58Z</time>
      </trkpt>
      <trkpt lat="44.41127" lon="6.75285">
        <ele>1375.64</ele>
        <time>2022-10-08T14:24:59Z</time>
      </trkpt>
      <trkpt lat="44.41122" lon="6.75268">
        <ele>1376.5</ele>
        <time>2022-10-08T14:25:00Z</time>
      </trkpt>
      <trkpt lat="44.41119" lon="6.7525">
        <ele>1378.05</ele>
        <time>2022-10-08T14:25:01Z</time>
      </trkpt>
      <trkpt lat="44.41119" lon="6.7523">
        <ele>1379.29</ele>
        <time>2022-10-08T14:25:02Z</time>
      </trkpt>
      <trkpt lat="44.41118" lon="6.75209">
        <ele>1380.32</ele>
        <time>2022-10-08T14:25:03Z</time>
      </trkpt>
      <trkpt lat="44.41117" lon="6.75188">
        <ele>1382.29</ele>
        <time>2022-10-08T14:25:04Z</time>
      </trkpt>
      <trkpt lat="44.41117" lon="6.75147">
        <ele>1384.13</ele>
        <time>2022-10-08T14:25:06Z</time>
      </trkpt>
      <trkpt lat="44.41119" lon="6.7513">
        <ele>1384.06</ele>
        <time>2022-10-08T14:25:07Z</time>
      </trkpt>
      <trkpt lat="44.4112" lon="6.75115">
        <ele>1385.58</ele>
        <time>2022-10-08T14:25:08Z</time>
      </trkpt>
      <trkpt lat="44.4112" lon="6.75103">
        <ele>1385.61</ele>
        <time>2022-10-08T14:25:09Z</time>
      </trkpt>
      <trkpt lat="44.41115" lon="6.75094">
        <ele>1385.61</ele>
        <time>2022-10-08T14:25:10Z</time>
      </trkpt>
      <trkpt lat="44.41109" lon="6.75091">
        <ele>1386.07</ele>
        <time>2022-10-08T14:25:11Z</time>
      </trkpt>
      <trkpt lat="44.41103" lon="6.75093">
        <ele>1386.07</ele>
        <time>2022-10-08T14:25:12Z</time>
      </trkpt>
      <trkpt lat="44.41098" lon="6.751">
        <ele>1386.16</ele>
        <time>2022-10-08T14:25:13Z</time>
      </trkpt>
      <trkpt lat="44.41095" lon="6.75111">
        <ele>1387.56</ele>
        <time>2022-10-08T14:25:14Z</time>
      </trkpt>
      <trkpt lat="44.41093" lon="6.75125">
        <ele>1387.65</ele>
        <time>2022-10-08T14:25:15Z</time>
      </trkpt>
      <trkpt lat="44.41089" lon="6.75174">
        <ele>1390.56</ele>
        <time>2022-10-08T14:25:18Z</time>
      </trkpt>
      <trkpt lat="44.41086" lon="6.75226">
        <ele>1393.88</ele>
        <time>2022-10-08T14:25:21Z</time>
      </trkpt>
      <trkpt lat="44.41082" lon="6.75242">
        <ele>1393.86</ele>
        <time>2022-10-08T14:25:22Z</time>
      </trkpt>
      <trkpt lat="44.41075" lon="6.75257">
        <ele>1395.26</ele>
        <time>2022-10-08T14:25:23Z</time>
      </trkpt>
      <trkpt lat="44.41067" lon="6.7527">
        <ele>1396.3</ele>
        <time>2022-10-08T14:25:24Z</time>
      </trkpt>
      <trkpt lat="44.41057" lon="6.75283">
        <ele>1396.39</ele>
        <time>2022-10-08T14:25:25Z</time>
      </trkpt>
      <trkpt lat="44.41046" lon="6.75295">
        <ele>1398.39</ele>
        <time>2022-10-08T14:25:26Z</time>
      </trkpt>
      <trkpt lat="44.41034" lon="6.75305">
        <ele>1399.25</ele>
        <time>2022-10-08T14:25:27Z</time>
      </trkpt>
      <trkpt lat="44.41022" lon="6.75314">
        <ele>1399.34</ele>
        <time>2022-10-08T14:25:28Z</time>
      </trkpt>
      <trkpt lat="44.41009" lon="6.75322">
        <ele>1401.44</ele>
        <time>2022-10-08T14:25:29Z</time>
      </trkpt>
      <trkpt lat="44.40996" lon="6.7533">
        <ele>1401.48</ele>
        <time>2022-10-08T14:25:30Z</time>
      </trkpt>
      <trkpt lat="44.40969" lon="6.75341">
        <ele>1404.24</ele>
        <time>2022-10-08T14:25:32Z</time>
      </trkpt>
      <trkpt lat="44.40955" lon="6.75342">
        <ele>1405.38</ele>
        <time>2022-10-08T14:25:33Z</time>
      </trkpt>
      <trkpt lat="44.40942" lon="6.75341">
        <ele>1405.39</ele>
        <time>2022-10-08T14:25:34Z</time>
      </trkpt>
      <trkpt lat="44.40917" lon="6.75339">
        <ele>1407.69</ele>
        <time>2022-10-08T14:25:36Z</time>
      </trkpt>
      <trkpt lat="44.40905" lon="6.7534">
        <ele>1409.29</ele>
        <time>2022-10-08T14:25:37Z</time>
      </trkpt>
      <trkpt lat="44.40893" lon="6.75345">
        <ele>1410.49</ele>
        <time>2022-10-08T14:25:38Z</time>
      </trkpt>
      <trkpt lat="44.40883" lon="6.75353">
        <ele>1411.35</ele>
        <time>2022-10-08T14:25:39Z</time>
      </trkpt>
      <trkpt lat="44.40872" lon="6.75362">
        <ele>1412.24</ele>
        <time>2022-10-08T14:25:40Z</time>
      </trkpt>
      <trkpt lat="44.40863" lon="6.75373">
        <ele>1413.4</ele>
        <time>2022-10-08T14:25:41Z</time>
      </trkpt>
      <trkpt lat="44.40842" lon="6.75394">
        <ele>1415.85</ele>
        <time>2022-10-08T14:25:43Z</time>
      </trkpt>
      <trkpt lat="44.40831" lon="6.75402">
        <ele>1415.83</ele>
        <time>2022-10-08T14:25:44Z</time>
      </trkpt>
      <trkpt lat="44.40818" lon="6.75408">
        <ele>1417.64</ele>
        <time>2022-10-08T14:25:45Z</time>
      </trkpt>
      <trkpt lat="44.40806" lon="6.75412">
        <ele>1418.89</ele>
        <time>2022-10-08T14:25:46Z</time>
      </trkpt>
      <trkpt lat="44.40794" lon="6.75414">
        <ele>1419.7</ele>
        <time>2022-10-08T14:25:47Z</time>
      </trkpt>
      <trkpt lat="44.40783" lon="6.75416">
        <ele>1419.85</ele>
        <time>2022-10-08T14:25:48Z</time>
      </trkpt>
      <trkpt lat="44.40761" lon="6.7542">
        <ele>1423.11</ele>
        <time>2022-10-08T14:25:50Z</time>
      </trkpt>
      <trkpt lat="44.40751" lon="6.75426">
        <ele>1423.93</ele>
        <time>2022-10-08T14:25:51Z</time>
      </trkpt>
      <trkpt lat="44.40743" lon="6.75435">
        <ele>1425.26</ele>
        <time>2022-10-08T14:25:52Z</time>
      </trkpt>
      <trkpt lat="44.40735" lon="6.75446">
        <ele>1425.94</ele>
        <time>2022-10-08T14:25:53Z</time>
      </trkpt>
      <trkpt lat="44.4073" lon="6.75457">
        <ele>1426.81</ele>
        <time>2022-10-08T14:25:54Z</time>
      </trkpt>
      <trkpt lat="44.40726" lon="6.75468">
        <ele>1426.82</ele>
        <time>2022-10-08T14:25:55Z</time>
      </trkpt>
      <trkpt lat="44.40723" lon="6.75479">
        <ele>1427.69</ele>
        <time>2022-10-08T14:25:56Z</time>
      </trkpt>
      <trkpt lat="44.40715" lon="6.75512">
        <ele>1428.72</ele>
        <time>2022-10-08T14:25:59Z</time>
      </trkpt>
      <trkpt lat="44.40711" lon="6.75521">
        <ele>1429.97</ele>
        <time>2022-10-08T14:26:00Z</time>
      </trkpt>
      <trkpt lat="44.40707" lon="6.75528">
        <ele>1429.22</ele>
        <time>2022-10-08T14:26:01Z</time>
      </trkpt>
      <trkpt lat="44.40702" lon="6.75533">
        <ele>1430.73</ele>
        <time>2022-10-08T14:26:02Z</time>
      </trkpt>
      <trkpt lat="44.40695" lon="6.75536">
        <ele>1430.81</ele>
        <time>2022-10-08T14:26:03Z</time>
      </trkpt>
      <trkpt lat="44.40688" lon="6.75539">
        <ele>1430.87</ele>
        <time>2022-10-08T14:26:04Z</time>
      </trkpt>
      <trkpt lat="44.40679" lon="6.75537">
        <ele>1432.76</ele>
        <time>2022-10-08T14:26:05Z</time>
      </trkpt>
      <trkpt lat="44.40671" lon="6.75532">
        <ele>1433.89</ele>
        <time>2022-10-08T14:26:06Z</time>
      </trkpt>
      <trkpt lat="44.40664" lon="6.75522">
        <ele>1433.95</ele>
        <time>2022-10-08T14:26:07Z</time>
      </trkpt>
      <trkpt lat="44.40658" lon="6.75509">
        <ele>1435.59</ele>
        <time>2022-10-08T14:26:08Z</time>
      </trkpt>
      <trkpt lat="44.40651" lon="6.75495">
        <ele>1435.65</ele>
        <time>2022-10-08T14:26:09Z</time>
      </trkpt>
      <trkpt lat="44.40645" lon="6.75481">
        <ele>1437.21</ele>
        <time>2022-10-08T14:26:10Z</time>
      </trkpt>
      <trkpt lat="44.40638" lon="6.7547">
        <ele>1438.15</ele>
        <time>2022-10-08T14:26:11Z</time>
      </trkpt>
      <trkpt lat="44.40629" lon="6.7546">
        <ele>1438.21</ele>
        <time>2022-10-08T14:26:12Z</time>
      </trkpt>
      <trkpt lat="44.40619" lon="6.75455">
        <ele>1439.36</ele>
        <time>2022-10-08T14:26:13Z</time>
      </trkpt>
      <trkpt lat="44.40608" lon="6.75453">
        <ele>1439.43</ele>
        <time>2022-10-08T14:26:14Z</time>
      </trkpt>
      <trkpt lat="44.40597" lon="6.75455">
        <ele>1439.44</ele>
        <time>2022-10-08T14:26:15Z</time>
      </trkpt>
      <trkpt lat="44.40586" lon="6.75462">
        <ele>1440.92</ele>
        <time>2022-10-08T14:26:16Z</time>
      </trkpt>
      <trkpt lat="44.40577" lon="6.75472">
        <ele>1440.98</ele>
        <time>2022-10-08T14:26:17Z</time>
      </trkpt>
      <trkpt lat="44.40569" lon="6.75486">
        <ele>1442.41</ele>
        <time>2022-10-08T14:26:18Z</time>
      </trkpt>
      <trkpt lat="44.40563" lon="6.75503">
        <ele>1443.71</ele>
        <time>2022-10-08T14:26:19Z</time>
      </trkpt>
      <trkpt lat="44.40559" lon="6.75521">
        <ele>1443.67</ele>
        <time>2022-10-08T14:26:20Z</time>
      </trkpt>
      <trkpt lat="44.40556" lon="6.75541">
        <ele>1445.35</ele>
        <time>2022-10-08T14:26:21Z</time>
      </trkpt>
      <trkpt lat="44.40555" lon="6.75561">
        <ele>1445.43</ele>
        <time>2022-10-08T14:26:22Z</time>
      </trkpt>
      <trkpt lat="44.40556" lon="6.7558">
        <ele>1446.47</ele>
        <time>2022-10-08T14:26:23Z</time>
      </trkpt>
      <trkpt lat="44.40558" lon="6.756">
        <ele>1446.52</ele>
        <time>2022-10-08T14:26:24Z</time>
      </trkpt>
      <trkpt lat="44.40559" lon="6.75617">
        <ele>1446.92</ele>
        <time>2022-10-08T14:26:25Z</time>
      </trkpt>
      <trkpt lat="44.40556" lon="6.75634">
        <ele>1446.92</ele>
        <time>2022-10-08T14:26:26Z</time>
      </trkpt>
      <trkpt lat="44.40551" lon="6.75651">
        <ele>1448.27</ele>
        <time>2022-10-08T14:26:27Z</time>
      </trkpt>
      <trkpt lat="44.40544" lon="6.75667">
        <ele>1449.53</ele>
        <time>2022-10-08T14:26:28Z</time>
      </trkpt>
      <trkpt lat="44.40536" lon="6.75683">
        <ele>1450.79</ele>
        <time>2022-10-08T14:26:29Z</time>
      </trkpt>
      <trkpt lat="44.40517" lon="6.75718">
        <ele>1452.18</ele>
        <time>2022-10-08T14:26:31Z</time>
      </trkpt>
      <trkpt lat="44.40503" lon="6.75749">
        <ele>1453.8</ele>
        <time>2022-10-08T14:26:33Z</time>
      </trkpt>
      <trkpt lat="44.405" lon="6.75766">
        <ele>1453.86</ele>
        <time>2022-10-08T14:26:34Z</time>
      </trkpt>
      <trkpt lat="44.40499" lon="6.75784">
        <ele>1455.9</ele>
        <time>2022-10-08T14:26:35Z</time>
      </trkpt>
      <trkpt lat="44.40501" lon="6.75803">
        <ele>1455.88</ele>
        <time>2022-10-08T14:26:36Z</time>
      </trkpt>
      <trkpt lat="44.40505" lon="6.75824">
        <ele>1457.68</ele>
        <time>2022-10-08T14:26:37Z</time>
      </trkpt>
      <trkpt lat="44.40511" lon="6.75866">
        <ele>1460.11</ele>
        <time>2022-10-08T14:26:39Z</time>
      </trkpt>
      <trkpt lat="44.40511" lon="6.75888">
        <ele>1461.04</ele>
        <time>2022-10-08T14:26:40Z</time>
      </trkpt>
      <trkpt lat="44.40508" lon="6.75908">
        <ele>1461.05</ele>
        <time>2022-10-08T14:26:41Z</time>
      </trkpt>
      <trkpt lat="44.40502" lon="6.75929">
        <ele>1463.25</ele>
        <time>2022-10-08T14:26:42Z</time>
      </trkpt>
      <trkpt lat="44.40495" lon="6.75949">
        <ele>1464.38</ele>
        <time>2022-10-08T14:26:43Z</time>
      </trkpt>
      <trkpt lat="44.40485" lon="6.75969">
        <ele>1465.71</ele>
        <time>2022-10-08T14:26:44Z</time>
      </trkpt>
      <trkpt lat="44.40457" lon="6.76026">
        <ele>1468.35</ele>
        <time>2022-10-08T14:26:47Z</time>
      </trkpt>
      <trkpt lat="44.40447" lon="6.76041">
        <ele>1469.32</ele>
        <time>2022-10-08T14:26:48Z</time>
      </trkpt>
      <trkpt lat="44.40435" lon="6.76054">
        <ele>1470.38</ele>
        <time>2022-10-08T14:26:49Z</time>
      </trkpt>
      <trkpt lat="44.40421" lon="6.76062">
        <ele>1471.21</ele>
        <time>2022-10-08T14:26:50Z</time>
      </trkpt>
      <trkpt lat="44.40406" lon="6.76068">
        <ele>1473.71</ele>
        <time>2022-10-08T14:26:51Z</time>
      </trkpt>
      <trkpt lat="44.40391" lon="6.76073">
        <ele>1473.71</ele>
        <time>2022-10-08T14:26:52Z</time>
      </trkpt>
      <trkpt lat="44.40377" lon="6.76079">
        <ele>1475.2</ele>
        <time>2022-10-08T14:26:53Z</time>
      </trkpt>
      <trkpt lat="44.40365" lon="6.76088">
        <ele>1475.27</ele>
        <time>2022-10-08T14:26:54Z</time>
      </trkpt>
      <trkpt lat="44.40355" lon="6.76101">
        <ele>1476.13</ele>
        <time>2022-10-08T14:26:55Z</time>
      </trkpt>
      <trkpt lat="44.40348" lon="6.76116">
        <ele>1476.21</ele>
        <time>2022-10-08T14:26:56Z</time>
      </trkpt>
      <trkpt lat="44.40343" lon="6.76133">
        <ele>1477.12</ele>
        <time>2022-10-08T14:26:57Z</time>
      </trkpt>
      <trkpt lat="44.40341" lon="6.76153">
        <ele>1477.21</ele>
        <time>2022-10-08T14:26:58Z</time>
      </trkpt>
      <trkpt lat="44.40341" lon="6.76174">
        <ele>1478.9</ele>
        <time>2022-10-08T14:26:59Z</time>
      </trkpt>
      <trkpt lat="44.40336" lon="6.76247">
        <ele>1482.53</ele>
        <time>2022-10-08T14:27:02Z</time>
      </trkpt>
      <trkpt lat="44.4033" lon="6.76272">
        <ele>1483.93</ele>
        <time>2022-10-08T14:27:03Z</time>
      </trkpt>
      <trkpt lat="44.40322" lon="6.76297">
        <ele>1485.13</ele>
        <time>2022-10-08T14:27:04Z</time>
      </trkpt>
      <trkpt lat="44.40295" lon="6.76367">
        <ele>1489</ele>
        <time>2022-10-08T14:27:07Z</time>
      </trkpt>
      <trkpt lat="44.40286" lon="6.76388">
        <ele>1489.1</ele>
        <time>2022-10-08T14:27:08Z</time>
      </trkpt>
      <trkpt lat="44.40264" lon="6.76452">
        <ele>1492.1</ele>
        <time>2022-10-08T14:27:11Z</time>
      </trkpt>
      <trkpt lat="44.4025" lon="6.76519">
        <ele>1494.99</ele>
        <time>2022-10-08T14:27:14Z</time>
      </trkpt>
      <trkpt lat="44.40236" lon="6.76574">
        <ele>1497.14</ele>
        <time>2022-10-08T14:27:17Z</time>
      </trkpt>
      <trkpt lat="44.40229" lon="6.76588">
        <ele>1498.52</ele>
        <time>2022-10-08T14:27:18Z</time>
      </trkpt>
      <trkpt lat="44.40221" lon="6.76597">
        <ele>1498.44</ele>
        <time>2022-10-08T14:27:19Z</time>
      </trkpt>
      <trkpt lat="44.40211" lon="6.76603">
        <ele>1499.62</ele>
        <time>2022-10-08T14:27:20Z</time>
      </trkpt>
      <trkpt lat="44.40199" lon="6.76604">
        <ele>1500.88</ele>
        <time>2022-10-08T14:27:21Z</time>
      </trkpt>
      <trkpt lat="44.40187" lon="6.76604">
        <ele>1502.47</ele>
        <time>2022-10-08T14:27:22Z</time>
      </trkpt>
      <trkpt lat="44.40173" lon="6.76602">
        <ele>1503.52</ele>
        <time>2022-10-08T14:27:23Z</time>
      </trkpt>
      <trkpt lat="44.4016" lon="6.76603">
        <ele>1504.6</ele>
        <time>2022-10-08T14:27:24Z</time>
      </trkpt>
      <trkpt lat="44.40147" lon="6.76607">
        <ele>1505.54</ele>
        <time>2022-10-08T14:27:25Z</time>
      </trkpt>
      <trkpt lat="44.40135" lon="6.76614">
        <ele>1507.14</ele>
        <time>2022-10-08T14:27:26Z</time>
      </trkpt>
      <trkpt lat="44.40124" lon="6.76625">
        <ele>1508.37</ele>
        <time>2022-10-08T14:27:27Z</time>
      </trkpt>
      <trkpt lat="44.40113" lon="6.7664">
        <ele>1510.1</ele>
        <time>2022-10-08T14:27:28Z</time>
      </trkpt>
      <trkpt lat="44.40102" lon="6.76658">
        <ele>1511.64</ele>
        <time>2022-10-08T14:27:29Z</time>
      </trkpt>
      <trkpt lat="44.40077" lon="6.76698">
        <ele>1515.66</ele>
        <time>2022-10-08T14:27:31Z</time>
      </trkpt>
      <trkpt lat="44.4005" lon="6.76736">
        <ele>1519.11</ele>
        <time>2022-10-08T14:27:33Z</time>
      </trkpt>
      <trkpt lat="44.40009" lon="6.76782">
        <ele>1522.93</ele>
        <time>2022-10-08T14:27:36Z</time>
      </trkpt>
      <trkpt lat="44.39996" lon="6.76793">
        <ele>1523.94</ele>
        <time>2022-10-08T14:27:37Z</time>
      </trkpt>
      <trkpt lat="44.39982" lon="6.76802">
        <ele>1524.71</ele>
        <time>2022-10-08T14:27:38Z</time>
      </trkpt>
      <trkpt lat="44.39953" lon="6.76816">
        <ele>1527.74</ele>
        <time>2022-10-08T14:27:40Z</time>
      </trkpt>
      <trkpt lat="44.39939" lon="6.76824">
        <ele>1527.67</ele>
        <time>2022-10-08T14:27:41Z</time>
      </trkpt>
      <trkpt lat="44.39927" lon="6.76835">
        <ele>1529.82</ele>
        <time>2022-10-08T14:27:42Z</time>
      </trkpt>
      <trkpt lat="44.39916" lon="6.76849">
        <ele>1531.21</ele>
        <time>2022-10-08T14:27:43Z</time>
      </trkpt>
      <trkpt lat="44.39896" lon="6.76877">
        <ele>1532.86</ele>
        <time>2022-10-08T14:27:45Z</time>
      </trkpt>
      <trkpt lat="44.39885" lon="6.76887">
        <ele>1532.86</ele>
        <time>2022-10-08T14:27:46Z</time>
      </trkpt>
      <trkpt lat="44.39874" lon="6.76894">
        <ele>1533.96</ele>
        <time>2022-10-08T14:27:47Z</time>
      </trkpt>
      <trkpt lat="44.39861" lon="6.76897">
        <ele>1535.42</ele>
        <time>2022-10-08T14:27:48Z</time>
      </trkpt>
      <trkpt lat="44.39847" lon="6.76896">
        <ele>1536.68</ele>
        <time>2022-10-08T14:27:49Z</time>
      </trkpt>
      <trkpt lat="44.39833" lon="6.76891">
        <ele>1538.15</ele>
        <time>2022-10-08T14:27:50Z</time>
      </trkpt>
      <trkpt lat="44.3982" lon="6.76883">
        <ele>1538.14</ele>
        <time>2022-10-08T14:27:51Z</time>
      </trkpt>
      <trkpt lat="44.39808" lon="6.7687">
        <ele>1541.06</ele>
        <time>2022-10-08T14:27:52Z</time>
      </trkpt>
      <trkpt lat="44.39798" lon="6.76855">
        <ele>1542.65</ele>
        <time>2022-10-08T14:27:53Z</time>
      </trkpt>
      <trkpt lat="44.39788" lon="6.76837">
        <ele>1544.32</ele>
        <time>2022-10-08T14:27:54Z</time>
      </trkpt>
      <trkpt lat="44.39767" lon="6.768">
        <ele>1546.35</ele>
        <time>2022-10-08T14:27:56Z</time>
      </trkpt>
      <trkpt lat="44.39748" lon="6.76769">
        <ele>1548.61</ele>
        <time>2022-10-08T14:27:58Z</time>
      </trkpt>
      <trkpt lat="44.3974" lon="6.76756">
        <ele>1548.62</ele>
        <time>2022-10-08T14:27:59Z</time>
      </trkpt>
      <trkpt lat="44.39731" lon="6.76747">
        <ele>1550.08</ele>
        <time>2022-10-08T14:28:00Z</time>
      </trkpt>
      <trkpt lat="44.39723" lon="6.76742">
        <ele>1551.49</ele>
        <time>2022-10-08T14:28:01Z</time>
      </trkpt>
      <trkpt lat="44.39716" lon="6.76738">
        <ele>1551.39</ele>
        <time>2022-10-08T14:28:02Z</time>
      </trkpt>
      <trkpt lat="44.3971" lon="6.76736">
        <ele>1551.49</ele>
        <time>2022-10-08T14:28:03Z</time>
      </trkpt>
      <trkpt lat="44.39706" lon="6.76735">
        <ele>1551.48</ele>
        <time>2022-10-08T14:28:04Z</time>
      </trkpt>
      <trkpt lat="44.397" lon="6.76735">
        <ele>1551.55</ele>
        <time>2022-10-08T14:28:06Z</time>
      </trkpt>
      <trkpt lat="44.397" lon="6.76737">
        <ele>1551.44</ele>
        <time>2022-10-08T14:28:07Z</time>
      </trkpt>
      <trkpt lat="44.39704" lon="6.7674">
        <ele>1550.8</ele>
        <time>2022-10-08T14:28:09Z</time>
      </trkpt>
      <trkpt lat="44.3971" lon="6.7674">
        <ele>1550.8</ele>
        <time>2022-10-08T14:28:10Z</time>
      </trkpt>
      <trkpt lat="44.39717" lon="6.76741">
        <ele>1551.71</ele>
        <time>2022-10-08T14:28:11Z</time>
      </trkpt>
      <trkpt lat="44.39726" lon="6.76745">
        <ele>1551.73</ele>
        <time>2022-10-08T14:28:12Z</time>
      </trkpt>
      <trkpt lat="44.39736" lon="6.76752">
        <ele>1551.73</ele>
        <time>2022-10-08T14:28:13Z</time>
      </trkpt>
      <trkpt lat="44.39745" lon="6.76764">
        <ele>1551.73</ele>
        <time>2022-10-08T14:28:14Z</time>
      </trkpt>
      <trkpt lat="44.39755" lon="6.76778">
        <ele>1551.73</ele>
        <time>2022-10-08T14:28:15Z</time>
      </trkpt>
      <trkpt lat="44.39764" lon="6.76795">
        <ele>1549.44</ele>
        <time>2022-10-08T14:28:16Z</time>
      </trkpt>
      <trkpt lat="44.3979" lon="6.76841">
        <ele>1545.33</ele>
        <time>2022-10-08T14:28:19Z</time>
      </trkpt>
      <trkpt lat="44.39808" lon="6.76868">
        <ele>1542.52</ele>
        <time>2022-10-08T14:28:21Z</time>
      </trkpt>
      <trkpt lat="44.39818" lon="6.76879">
        <ele>1540.98</ele>
        <time>2022-10-08T14:28:22Z</time>
      </trkpt>
      <trkpt lat="44.39829" lon="6.76888">
        <ele>1539.95</ele>
        <time>2022-10-08T14:28:23Z</time>
      </trkpt>
      <trkpt lat="44.39841" lon="6.76894">
        <ele>1538.62</ele>
        <time>2022-10-08T14:28:24Z</time>
      </trkpt>
      <trkpt lat="44.39854" lon="6.76896">
        <ele>1537.22</ele>
        <time>2022-10-08T14:28:25Z</time>
      </trkpt>
      <trkpt lat="44.39867" lon="6.76896">
        <ele>1537.21</ele>
        <time>2022-10-08T14:28:26Z</time>
      </trkpt>
      <trkpt lat="44.3988" lon="6.76894">
        <ele>1535.57</ele>
        <time>2022-10-08T14:28:27Z</time>
      </trkpt>
      <trkpt lat="44.39892" lon="6.76888">
        <ele>1534.79</ele>
        <time>2022-10-08T14:28:28Z</time>
      </trkpt>
      <trkpt lat="44.39904" lon="6.76878">
        <ele>1533.91</ele>
        <time>2022-10-08T14:28:29Z</time>
      </trkpt>
      <trkpt lat="44.39915" lon="6.76865">
        <ele>1532.55</ele>
        <time>2022-10-08T14:28:30Z</time>
      </trkpt>
      <trkpt lat="44.39924" lon="6.76851">
        <ele>1532.55</ele>
        <time>2022-10-08T14:28:31Z</time>
      </trkpt>
      <trkpt lat="44.39944" lon="6.76827">
        <ele>1528.85</ele>
        <time>2022-10-08T14:28:33Z</time>
      </trkpt>
      <trkpt lat="44.39955" lon="6.76818">
        <ele>1527.83</ele>
        <time>2022-10-08T14:28:34Z</time>
      </trkpt>
      <trkpt lat="44.39969" lon="6.76811">
        <ele>1527.61</ele>
        <time>2022-10-08T14:28:35Z</time>
      </trkpt>
      <trkpt lat="44.4001" lon="6.76788">
        <ele>1525.44</ele>
        <time>2022-10-08T14:28:38Z</time>
      </trkpt>
      <trkpt lat="44.40024" lon="6.76775">
        <ele>1523.68</ele>
        <time>2022-10-08T14:28:39Z</time>
      </trkpt>
      <trkpt lat="44.40063" lon="6.76729">
        <ele>1520.03</ele>
        <time>2022-10-08T14:28:42Z</time>
      </trkpt>
      <trkpt lat="44.40095" lon="6.76681">
        <ele>1515.54</ele>
        <time>2022-10-08T14:28:45Z</time>
      </trkpt>
      <trkpt lat="44.40122" lon="6.76635">
        <ele>1510.88</ele>
        <time>2022-10-08T14:28:48Z</time>
      </trkpt>
      <trkpt lat="44.40132" lon="6.76622">
        <ele>1509.39</ele>
        <time>2022-10-08T14:28:49Z</time>
      </trkpt>
      <trkpt lat="44.40142" lon="6.76611">
        <ele>1508.02</ele>
        <time>2022-10-08T14:28:50Z</time>
      </trkpt>
      <trkpt lat="44.40153" lon="6.76602">
        <ele>1508.02</ele>
        <time>2022-10-08T14:28:51Z</time>
      </trkpt>
      <trkpt lat="44.40164" lon="6.76597">
        <ele>1506.43</ele>
        <time>2022-10-08T14:28:52Z</time>
      </trkpt>
      <trkpt lat="44.40177" lon="6.76594">
        <ele>1505.3</ele>
        <time>2022-10-08T14:28:53Z</time>
      </trkpt>
      <trkpt lat="44.4019" lon="6.76595">
        <ele>1504.37</ele>
        <time>2022-10-08T14:28:54Z</time>
      </trkpt>
      <trkpt lat="44.40203" lon="6.76597">
        <ele>1503.27</ele>
        <time>2022-10-08T14:28:55Z</time>
      </trkpt>
      <trkpt lat="44.40215" lon="6.76597">
        <ele>1502.13</ele>
        <time>2022-10-08T14:28:56Z</time>
      </trkpt>
      <trkpt lat="44.40227" lon="6.76594">
        <ele>1500.97</ele>
        <time>2022-10-08T14:28:57Z</time>
      </trkpt>
      <trkpt lat="44.40237" lon="6.76586">
        <ele>1501.01</ele>
        <time>2022-10-08T14:28:58Z</time>
      </trkpt>
      <trkpt lat="44.40245" lon="6.76574">
        <ele>1498.81</ele>
        <time>2022-10-08T14:28:59Z</time>
      </trkpt>
      <trkpt lat="44.4025" lon="6.76559">
        <ele>1498.23</ele>
        <time>2022-10-08T14:29:00Z</time>
      </trkpt>
      <trkpt lat="44.40255" lon="6.76541">
        <ele>1498.23</ele>
        <time>2022-10-08T14:29:01Z</time>
      </trkpt>
      <trkpt lat="44.40259" lon="6.7652">
        <ele>1496.92</ele>
        <time>2022-10-08T14:29:02Z</time>
      </trkpt>
      <trkpt lat="44.40271" lon="6.7646">
        <ele>1494.79</ele>
        <time>2022-10-08T14:29:05Z</time>
      </trkpt>
      <trkpt lat="44.40286" lon="6.76409">
        <ele>1489.67</ele>
        <time>2022-10-08T14:29:08Z</time>
      </trkpt>
      <trkpt lat="44.40293" lon="6.76395">
        <ele>1488.81</ele>
        <time>2022-10-08T14:29:09Z</time>
      </trkpt>
      <trkpt lat="44.403" lon="6.76384">
        <ele>1487.75</ele>
        <time>2022-10-08T14:29:10Z</time>
      </trkpt>
      <trkpt lat="44.40307" lon="6.76374">
        <ele>1486.65</ele>
        <time>2022-10-08T14:29:11Z</time>
      </trkpt>
      <trkpt lat="44.40314" lon="6.76366">
        <ele>1486.55</ele>
        <time>2022-10-08T14:29:12Z</time>
      </trkpt>
      <trkpt lat="44.4032" lon="6.76357">
        <ele>1486.57</ele>
        <time>2022-10-08T14:29:13Z</time>
      </trkpt>
      <trkpt lat="44.40325" lon="6.76348">
        <ele>1486.51</ele>
        <time>2022-10-08T14:29:14Z</time>
      </trkpt>
      <trkpt lat="44.40348" lon="6.76299">
        <ele>1490.24</ele>
        <time>2022-10-08T14:29:18Z</time>
      </trkpt>
      <trkpt lat="44.40354" lon="6.76285">
        <ele>1490.26</ele>
        <time>2022-10-08T14:29:19Z</time>
      </trkpt>
      <trkpt lat="44.40366" lon="6.76255">
        <ele>1492.7</ele>
        <time>2022-10-08T14:29:21Z</time>
      </trkpt>
      <trkpt lat="44.40375" lon="6.76222">
        <ele>1494.12</ele>
        <time>2022-10-08T14:29:23Z</time>
      </trkpt>
      <trkpt lat="44.40384" lon="6.76192">
        <ele>1497.23</ele>
        <time>2022-10-08T14:29:25Z</time>
      </trkpt>
      <trkpt lat="44.4039" lon="6.76181">
        <ele>1497.23</ele>
        <time>2022-10-08T14:29:26Z</time>
      </trkpt>
      <trkpt lat="44.40396" lon="6.76171">
        <ele>1498.66</ele>
        <time>2022-10-08T14:29:27Z</time>
      </trkpt>
      <trkpt lat="44.40403" lon="6.76166">
        <ele>1498.66</ele>
        <time>2022-10-08T14:29:28Z</time>
      </trkpt>
      <trkpt lat="44.40411" lon="6.76164">
        <ele>1499.82</ele>
        <time>2022-10-08T14:29:29Z</time>
      </trkpt>
      <trkpt lat="44.40419" lon="6.76164">
        <ele>1500.78</ele>
        <time>2022-10-08T14:29:30Z</time>
      </trkpt>
      <trkpt lat="44.40426" lon="6.76166">
        <ele>1501.65</ele>
        <time>2022-10-08T14:29:31Z</time>
      </trkpt>
      <trkpt lat="44.40434" lon="6.76167">
        <ele>1502.61</ele>
        <time>2022-10-08T14:29:32Z</time>
      </trkpt>
      <trkpt lat="44.40442" lon="6.76168">
        <ele>1503.37</ele>
        <time>2022-10-08T14:29:33Z</time>
      </trkpt>
      <trkpt lat="44.40449" lon="6.76167">
        <ele>1504.62</ele>
        <time>2022-10-08T14:29:34Z</time>
      </trkpt>
      <trkpt lat="44.40457" lon="6.76165">
        <ele>1504.6</ele>
        <time>2022-10-08T14:29:35Z</time>
      </trkpt>
      <trkpt lat="44.40471" lon="6.76162">
        <ele>1506.58</ele>
        <time>2022-10-08T14:29:37Z</time>
      </trkpt>
      <trkpt lat="44.40478" lon="6.76163">
        <ele>1507.85</ele>
        <time>2022-10-08T14:29:38Z</time>
      </trkpt>
      <trkpt lat="44.40486" lon="6.76164">
        <ele>1507.95</ele>
        <time>2022-10-08T14:29:39Z</time>
      </trkpt>
      <trkpt lat="44.40494" lon="6.76165">
        <ele>1509.8</ele>
        <time>2022-10-08T14:29:40Z</time>
      </trkpt>
      <trkpt lat="44.40501" lon="6.76165">
        <ele>1510.6</ele>
        <time>2022-10-08T14:29:41Z</time>
      </trkpt>
      <trkpt lat="44.40507" lon="6.76165">
        <ele>1511.6</ele>
        <time>2022-10-08T14:29:42Z</time>
      </trkpt>
      <trkpt lat="44.40511" lon="6.76167">
        <ele>1511.67</ele>
        <time>2022-10-08T14:29:43Z</time>
      </trkpt>
      <trkpt lat="44.40512" lon="6.76172">
        <ele>1512.76</ele>
        <time>2022-10-08T14:29:44Z</time>
      </trkpt>
      <trkpt lat="44.40511" lon="6.76179">
        <ele>1512.9</ele>
        <time>2022-10-08T14:29:45Z</time>
      </trkpt>
      <trkpt lat="44.40508" lon="6.76185">
        <ele>1513.95</ele>
        <time>2022-10-08T14:29:46Z</time>
      </trkpt>
      <trkpt lat="44.40504" lon="6.76192">
        <ele>1514.76</ele>
        <time>2022-10-08T14:29:47Z</time>
      </trkpt>
      <trkpt lat="44.40498" lon="6.76199">
        <ele>1514.84</ele>
        <time>2022-10-08T14:29:48Z</time>
      </trkpt>
      <trkpt lat="44.40489" lon="6.76213">
        <ele>1516.06</ele>
        <time>2022-10-08T14:29:50Z</time>
      </trkpt>
      <trkpt lat="44.40486" lon="6.76221">
        <ele>1516.06</ele>
        <time>2022-10-08T14:29:51Z</time>
      </trkpt>
      <trkpt lat="44.40483" lon="6.7623">
        <ele>1517.09</ele>
        <time>2022-10-08T14:29:52Z</time>
      </trkpt>
      <trkpt lat="44.40483" lon="6.76238">
        <ele>1517.1</ele>
        <time>2022-10-08T14:29:53Z</time>
      </trkpt>
      <trkpt lat="44.40483" lon="6.76247">
        <ele>1518.49</ele>
        <time>2022-10-08T14:29:54Z</time>
      </trkpt>
      <trkpt lat="44.40485" lon="6.76256">
        <ele>1519.72</ele>
        <time>2022-10-08T14:29:55Z</time>
      </trkpt>
      <trkpt lat="44.40488" lon="6.76267">
        <ele>1521.01</ele>
        <time>2022-10-08T14:29:56Z</time>
      </trkpt>
      <trkpt lat="44.40496" lon="6.7629">
        <ele>1523.1</ele>
        <time>2022-10-08T14:29:58Z</time>
      </trkpt>
      <trkpt lat="44.40501" lon="6.76301">
        <ele>1524.82</ele>
        <time>2022-10-08T14:29:59Z</time>
      </trkpt>
      <trkpt lat="44.4052" lon="6.76334">
        <ele>1528.99</ele>
        <time>2022-10-08T14:30:02Z</time>
      </trkpt>
      <trkpt lat="44.40534" lon="6.76366">
        <ele>1531.53</ele>
        <time>2022-10-08T14:30:05Z</time>
      </trkpt>
      <trkpt lat="44.40547" lon="6.76399">
        <ele>1534.81</ele>
        <time>2022-10-08T14:30:08Z</time>
      </trkpt>
      <trkpt lat="44.40561" lon="6.76431">
        <ele>1537.95</ele>
        <time>2022-10-08T14:30:11Z</time>
      </trkpt>
      <trkpt lat="44.40566" lon="6.76439">
        <ele>1537.95</ele>
        <time>2022-10-08T14:30:12Z</time>
      </trkpt>
      <trkpt lat="44.40572" lon="6.76444">
        <ele>1538.82</ele>
        <time>2022-10-08T14:30:13Z</time>
      </trkpt>
      <trkpt lat="44.40579" lon="6.76447">
        <ele>1539.76</ele>
        <time>2022-10-08T14:30:14Z</time>
      </trkpt>
      <trkpt lat="44.40592" lon="6.76452">
        <ele>1541.09</ele>
        <time>2022-10-08T14:30:16Z</time>
      </trkpt>
      <trkpt lat="44.40597" lon="6.76457">
        <ele>1542.27</ele>
        <time>2022-10-08T14:30:17Z</time>
      </trkpt>
      <trkpt lat="44.40601" lon="6.76463">
        <ele>1542.36</ele>
        <time>2022-10-08T14:30:18Z</time>
      </trkpt>
      <trkpt lat="44.40603" lon="6.7647">
        <ele>1543.64</ele>
        <time>2022-10-08T14:30:19Z</time>
      </trkpt>
      <trkpt lat="44.40602" lon="6.76479">
        <ele>1544.74</ele>
        <time>2022-10-08T14:30:20Z</time>
      </trkpt>
      <trkpt lat="44.406" lon="6.76488">
        <ele>1545.82</ele>
        <time>2022-10-08T14:30:21Z</time>
      </trkpt>
      <trkpt lat="44.40598" lon="6.76497">
        <ele>1545.82</ele>
        <time>2022-10-08T14:30:22Z</time>
      </trkpt>
      <trkpt lat="44.40582" lon="6.76552">
        <ele>1548.8</ele>
        <time>2022-10-08T14:30:27Z</time>
      </trkpt>
      <trkpt lat="44.40576" lon="6.76574">
        <ele>1550.62</ele>
        <time>2022-10-08T14:30:29Z</time>
      </trkpt>
      <trkpt lat="44.40572" lon="6.76584">
        <ele>1550.7</ele>
        <time>2022-10-08T14:30:30Z</time>
      </trkpt>
      <trkpt lat="44.40566" lon="6.76593">
        <ele>1551.75</ele>
        <time>2022-10-08T14:30:31Z</time>
      </trkpt>
      <trkpt lat="44.4056" lon="6.76601">
        <ele>1551.8</ele>
        <time>2022-10-08T14:30:32Z</time>
      </trkpt>
      <trkpt lat="44.40552" lon="6.76606">
        <ele>1552.8</ele>
        <time>2022-10-08T14:30:33Z</time>
      </trkpt>
      <trkpt lat="44.40545" lon="6.76609">
        <ele>1553.6</ele>
        <time>2022-10-08T14:30:34Z</time>
      </trkpt>
      <trkpt lat="44.40537" lon="6.7661">
        <ele>1553.69</ele>
        <time>2022-10-08T14:30:35Z</time>
      </trkpt>
      <trkpt lat="44.4053" lon="6.76611">
        <ele>1554.71</ele>
        <time>2022-10-08T14:30:36Z</time>
      </trkpt>
      <trkpt lat="44.40522" lon="6.76612">
        <ele>1554.79</ele>
        <time>2022-10-08T14:30:37Z</time>
      </trkpt>
      <trkpt lat="44.40515" lon="6.76615">
        <ele>1555.97</ele>
        <time>2022-10-08T14:30:38Z</time>
      </trkpt>
      <trkpt lat="44.40508" lon="6.76619">
        <ele>1556.3</ele>
        <time>2022-10-08T14:30:39Z</time>
      </trkpt>
      <trkpt lat="44.40478" lon="6.7664">
        <ele>1558.28</ele>
        <time>2022-10-08T14:30:43Z</time>
      </trkpt>
      <trkpt lat="44.40465" lon="6.76651">
        <ele>1559.6</ele>
        <time>2022-10-08T14:30:45Z</time>
      </trkpt>
      <trkpt lat="44.40431" lon="6.76679">
        <ele>1563.21</ele>
        <time>2022-10-08T14:30:50Z</time>
      </trkpt>
      <trkpt lat="44.40426" lon="6.76684">
        <ele>1563.27</ele>
        <time>2022-10-08T14:30:51Z</time>
      </trkpt>
      <trkpt lat="44.40422" lon="6.76687">
        <ele>1563.26</ele>
        <time>2022-10-08T14:30:52Z</time>
      </trkpt>
      <trkpt lat="44.4042" lon="6.76691">
        <ele>1564.33</ele>
        <time>2022-10-08T14:30:53Z</time>
      </trkpt>
      <trkpt lat="44.4042" lon="6.76695">
        <ele>1564.35</ele>
        <time>2022-10-08T14:30:54Z</time>
      </trkpt>
      <trkpt lat="44.40421" lon="6.76699">
        <ele>1565.42</ele>
        <time>2022-10-08T14:30:55Z</time>
      </trkpt>
      <trkpt lat="44.40425" lon="6.76701">
        <ele>1565.46</ele>
        <time>2022-10-08T14:30:56Z</time>
      </trkpt>
      <trkpt lat="44.40429" lon="6.76702">
        <ele>1567.01</ele>
        <time>2022-10-08T14:30:57Z</time>
      </trkpt>
      <trkpt lat="44.40435" lon="6.76701">
        <ele>1567</ele>
        <time>2022-10-08T14:30:58Z</time>
      </trkpt>
      <trkpt lat="44.40442" lon="6.76699">
        <ele>1567.06</ele>
        <time>2022-10-08T14:30:59Z</time>
      </trkpt>
      <trkpt lat="44.40461" lon="6.76692">
        <ele>1568.98</ele>
        <time>2022-10-08T14:31:02Z</time>
      </trkpt>
      <trkpt lat="44.40467" lon="6.76688">
        <ele>1568.98</ele>
        <time>2022-10-08T14:31:03Z</time>
      </trkpt>
      <trkpt lat="44.40492" lon="6.76674">
        <ele>1571.87</ele>
        <time>2022-10-08T14:31:07Z</time>
      </trkpt>
      <trkpt lat="44.40498" lon="6.76673">
        <ele>1571.87</ele>
        <time>2022-10-08T14:31:08Z</time>
      </trkpt>
      <trkpt lat="44.40504" lon="6.76673">
        <ele>1572.81</ele>
        <time>2022-10-08T14:31:09Z</time>
      </trkpt>
      <trkpt lat="44.40511" lon="6.76674">
        <ele>1572.86</ele>
        <time>2022-10-08T14:31:10Z</time>
      </trkpt>
      <trkpt lat="44.40518" lon="6.76676">
        <ele>1574.25</ele>
        <time>2022-10-08T14:31:11Z</time>
      </trkpt>
      <trkpt lat="44.40525" lon="6.76679">
        <ele>1575.22</ele>
        <time>2022-10-08T14:31:12Z</time>
      </trkpt>
      <trkpt lat="44.40531" lon="6.76682">
        <ele>1575.3</ele>
        <time>2022-10-08T14:31:13Z</time>
      </trkpt>
      <trkpt lat="44.40544" lon="6.76691">
        <ele>1576.67</ele>
        <time>2022-10-08T14:31:15Z</time>
      </trkpt>
      <trkpt lat="44.40575" lon="6.76709">
        <ele>1579.25</ele>
        <time>2022-10-08T14:31:19Z</time>
      </trkpt>
      <trkpt lat="44.40584" lon="6.76712">
        <ele>1581.04</ele>
        <time>2022-10-08T14:31:20Z</time>
      </trkpt>
      <trkpt lat="44.40593" lon="6.76715">
        <ele>1581.03</ele>
        <time>2022-10-08T14:31:21Z</time>
      </trkpt>
      <trkpt lat="44.40603" lon="6.76716">
        <ele>1582.63</ele>
        <time>2022-10-08T14:31:22Z</time>
      </trkpt>
      <trkpt lat="44.40634" lon="6.76716">
        <ele>1584.47</ele>
        <time>2022-10-08T14:31:25Z</time>
      </trkpt>
      <trkpt lat="44.40644" lon="6.76715">
        <ele>1586.4</ele>
        <time>2022-10-08T14:31:26Z</time>
      </trkpt>
      <trkpt lat="44.40654" lon="6.76713">
        <ele>1587.25</ele>
        <time>2022-10-08T14:31:27Z</time>
      </trkpt>
      <trkpt lat="44.40664" lon="6.76709">
        <ele>1588.11</ele>
        <time>2022-10-08T14:31:28Z</time>
      </trkpt>
      <trkpt lat="44.40675" lon="6.76705">
        <ele>1588.19</ele>
        <time>2022-10-08T14:31:29Z</time>
      </trkpt>
      <trkpt lat="44.40685" lon="6.767">
        <ele>1589.61</ele>
        <time>2022-10-08T14:31:30Z</time>
      </trkpt>
      <trkpt lat="44.40706" lon="6.76689">
        <ele>1591.05</ele>
        <time>2022-10-08T14:31:32Z</time>
      </trkpt>
      <trkpt lat="44.40735" lon="6.76672">
        <ele>1594.73</ele>
        <time>2022-10-08T14:31:35Z</time>
      </trkpt>
      <trkpt lat="44.40744" lon="6.76667">
        <ele>1594.72</ele>
        <time>2022-10-08T14:31:36Z</time>
      </trkpt>
      <trkpt lat="44.40752" lon="6.76664">
        <ele>1595.58</ele>
        <time>2022-10-08T14:31:37Z</time>
      </trkpt>
      <trkpt lat="44.4076" lon="6.76662">
        <ele>1595.58</ele>
        <time>2022-10-08T14:31:38Z</time>
      </trkpt>
      <trkpt lat="44.40768" lon="6.76661">
        <ele>1597.21</ele>
        <time>2022-10-08T14:31:39Z</time>
      </trkpt>
      <trkpt lat="44.40786" lon="6.76662">
        <ele>1598.16</ele>
        <time>2022-10-08T14:31:41Z</time>
      </trkpt>
      <trkpt lat="44.40811" lon="6.76666">
        <ele>1600.18</ele>
        <time>2022-10-08T14:31:44Z</time>
      </trkpt>
      <trkpt lat="44.40819" lon="6.76667">
        <ele>1601.97</ele>
        <time>2022-10-08T14:31:45Z</time>
      </trkpt>
      <trkpt lat="44.40826" lon="6.76666">
        <ele>1603.02</ele>
        <time>2022-10-08T14:31:46Z</time>
      </trkpt>
      <trkpt lat="44.40831" lon="6.76667">
        <ele>1603.86</ele>
        <time>2022-10-08T14:31:47Z</time>
      </trkpt>
      <trkpt lat="44.40836" lon="6.7667">
        <ele>1603.86</ele>
        <time>2022-10-08T14:31:48Z</time>
      </trkpt>
      <trkpt lat="44.40841" lon="6.76674">
        <ele>1604.63</ele>
        <time>2022-10-08T14:31:49Z</time>
      </trkpt>
      <trkpt lat="44.40843" lon="6.76681">
        <ele>1604.7</ele>
        <time>2022-10-08T14:31:50Z</time>
      </trkpt>
      <trkpt lat="44.40844" lon="6.7669">
        <ele>1605.88</ele>
        <time>2022-10-08T14:31:51Z</time>
      </trkpt>
      <trkpt lat="44.40844" lon="6.76699">
        <ele>1605.9</ele>
        <time>2022-10-08T14:31:52Z</time>
      </trkpt>
      <trkpt lat="44.40843" lon="6.76709">
        <ele>1606.44</ele>
        <time>2022-10-08T14:31:53Z</time>
      </trkpt>
      <trkpt lat="44.40843" lon="6.76721">
        <ele>1608.04</ele>
        <time>2022-10-08T14:31:54Z</time>
      </trkpt>
      <trkpt lat="44.40842" lon="6.76732">
        <ele>1608.12</ele>
        <time>2022-10-08T14:31:55Z</time>
      </trkpt>
      <trkpt lat="44.40843" lon="6.76743">
        <ele>1609.46</ele>
        <time>2022-10-08T14:31:56Z</time>
      </trkpt>
      <trkpt lat="44.40846" lon="6.76753">
        <ele>1609.22</ele>
        <time>2022-10-08T14:31:57Z</time>
      </trkpt>
      <trkpt lat="44.40849" lon="6.76761">
        <ele>1611.07</ele>
        <time>2022-10-08T14:31:58Z</time>
      </trkpt>
      <trkpt lat="44.40851" lon="6.76768">
        <ele>1611.15</ele>
        <time>2022-10-08T14:31:59Z</time>
      </trkpt>
      <trkpt lat="44.40851" lon="6.76773">
        <ele>1611.16</ele>
        <time>2022-10-08T14:32:00Z</time>
      </trkpt>
      <trkpt lat="44.40849" lon="6.76776">
        <ele>1611.23</ele>
        <time>2022-10-08T14:32:01Z</time>
      </trkpt>
      <trkpt lat="44.40847" lon="6.76779">
        <ele>1611.94</ele>
        <time>2022-10-08T14:32:12Z</time>
      </trkpt>
      <trkpt lat="44.40843" lon="6.76779">
        <ele>1612.61</ele>
        <time>2022-10-08T14:32:22Z</time>
      </trkpt>
      <trkpt lat="44.40839" lon="6.76778">
        <ele>1612.61</ele>
        <time>2022-10-08T14:32:23Z</time>
      </trkpt>
      <trkpt lat="44.40834" lon="6.76774">
        <ele>1614.06</ele>
        <time>2022-10-08T14:32:24Z</time>
      </trkpt>
      <trkpt lat="44.40828" lon="6.76768">
        <ele>1615</ele>
        <time>2022-10-08T14:32:25Z</time>
      </trkpt>
      <trkpt lat="44.40823" lon="6.76761">
        <ele>1615.83</ele>
        <time>2022-10-08T14:32:26Z</time>
      </trkpt>
      <trkpt lat="44.40819" lon="6.76752">
        <ele>1615.84</ele>
        <time>2022-10-08T14:32:27Z</time>
      </trkpt>
      <trkpt lat="44.40815" lon="6.76743">
        <ele>1616.84</ele>
        <time>2022-10-08T14:32:28Z</time>
      </trkpt>
      <trkpt lat="44.40809" lon="6.7673">
        <ele>1617.71</ele>
        <time>2022-10-08T14:32:30Z</time>
      </trkpt>
      <trkpt lat="44.40805" lon="6.76727">
        <ele>1618.49</ele>
        <time>2022-10-08T14:32:31Z</time>
      </trkpt>
      <trkpt lat="44.408" lon="6.76726">
        <ele>1619.57</ele>
        <time>2022-10-08T14:32:32Z</time>
      </trkpt>
      <trkpt lat="44.40795" lon="6.76727">
        <ele>1619.57</ele>
        <time>2022-10-08T14:32:33Z</time>
      </trkpt>
      <trkpt lat="44.4079" lon="6.7673">
        <ele>1619.64</ele>
        <time>2022-10-08T14:32:34Z</time>
      </trkpt>
      <trkpt lat="44.40786" lon="6.76734">
        <ele>1621</ele>
        <time>2022-10-08T14:32:35Z</time>
      </trkpt>
      <trkpt lat="44.40782" lon="6.7674">
        <ele>1621.8</ele>
        <time>2022-10-08T14:32:36Z</time>
      </trkpt>
      <trkpt lat="44.40779" lon="6.76748">
        <ele>1621.86</ele>
        <time>2022-10-08T14:32:37Z</time>
      </trkpt>
      <trkpt lat="44.40776" lon="6.76757">
        <ele>1622.93</ele>
        <time>2022-10-08T14:32:38Z</time>
      </trkpt>
      <trkpt lat="44.40773" lon="6.76766">
        <ele>1623.84</ele>
        <time>2022-10-08T14:32:39Z</time>
      </trkpt>
      <trkpt lat="44.40768" lon="6.76775">
        <ele>1624.82</ele>
        <time>2022-10-08T14:32:40Z</time>
      </trkpt>
      <trkpt lat="44.40763" lon="6.76783">
        <ele>1624.86</ele>
        <time>2022-10-08T14:32:41Z</time>
      </trkpt>
      <trkpt lat="44.40757" lon="6.76789">
        <ele>1626.65</ele>
        <time>2022-10-08T14:32:42Z</time>
      </trkpt>
      <trkpt lat="44.40753" lon="6.76795">
        <ele>1626.71</ele>
        <time>2022-10-08T14:32:43Z</time>
      </trkpt>
      <trkpt lat="44.4075" lon="6.76801">
        <ele>1626.71</ele>
        <time>2022-10-08T14:32:44Z</time>
      </trkpt>
      <trkpt lat="44.40748" lon="6.76806">
        <ele>1626.71</ele>
        <time>2022-10-08T14:32:45Z</time>
      </trkpt>
      <trkpt lat="44.40747" lon="6.76809">
        <ele>1627.74</ele>
        <time>2022-10-08T14:32:46Z</time>
      </trkpt>
      <trkpt lat="44.40742" lon="6.76819">
        <ele>1627.78</ele>
        <time>2022-10-08T14:32:56Z</time>
      </trkpt>
      <trkpt lat="44.40738" lon="6.76827">
        <ele>1629.42</ele>
        <time>2022-10-08T14:32:57Z</time>
      </trkpt>
      <trkpt lat="44.40714" lon="6.76868">
        <ele>1633.5</ele>
        <time>2022-10-08T14:33:01Z</time>
      </trkpt>
      <trkpt lat="44.40701" lon="6.76886">
        <ele>1634.99</ele>
        <time>2022-10-08T14:33:03Z</time>
      </trkpt>
      <trkpt lat="44.40694" lon="6.76894">
        <ele>1637.19</ele>
        <time>2022-10-08T14:33:04Z</time>
      </trkpt>
      <trkpt lat="44.40688" lon="6.769">
        <ele>1637.2</ele>
        <time>2022-10-08T14:33:05Z</time>
      </trkpt>
      <trkpt lat="44.40681" lon="6.76903">
        <ele>1638.43</ele>
        <time>2022-10-08T14:33:06Z</time>
      </trkpt>
      <trkpt lat="44.40668" lon="6.76909">
        <ele>1639.71</ele>
        <time>2022-10-08T14:33:08Z</time>
      </trkpt>
      <trkpt lat="44.40662" lon="6.76914">
        <ele>1641.51</ele>
        <time>2022-10-08T14:33:09Z</time>
      </trkpt>
      <trkpt lat="44.40657" lon="6.76921">
        <ele>1641.57</ele>
        <time>2022-10-08T14:33:10Z</time>
      </trkpt>
      <trkpt lat="44.40648" lon="6.76939">
        <ele>1642.91</ele>
        <time>2022-10-08T14:33:12Z</time>
      </trkpt>
      <trkpt lat="44.40643" lon="6.76946">
        <ele>1644.13</ele>
        <time>2022-10-08T14:33:13Z</time>
      </trkpt>
      <trkpt lat="44.40637" lon="6.76952">
        <ele>1645</ele>
        <time>2022-10-08T14:33:14Z</time>
      </trkpt>
      <trkpt lat="44.40632" lon="6.76956">
        <ele>1645.08</ele>
        <time>2022-10-08T14:33:15Z</time>
      </trkpt>
      <trkpt lat="44.40621" lon="6.76965">
        <ele>1646.16</ele>
        <time>2022-10-08T14:33:17Z</time>
      </trkpt>
      <trkpt lat="44.40616" lon="6.76971">
        <ele>1647.01</ele>
        <time>2022-10-08T14:33:18Z</time>
      </trkpt>
      <trkpt lat="44.40604" lon="6.76984">
        <ele>1648.61</ele>
        <time>2022-10-08T14:33:20Z</time>
      </trkpt>
      <trkpt lat="44.40598" lon="6.76989">
        <ele>1649.69</ele>
        <time>2022-10-08T14:33:21Z</time>
      </trkpt>
      <trkpt lat="44.40587" lon="6.76997">
        <ele>1650.54</ele>
        <time>2022-10-08T14:33:23Z</time>
      </trkpt>
      <trkpt lat="44.4057" lon="6.7701">
        <ele>1652.46</ele>
        <time>2022-10-08T14:33:26Z</time>
      </trkpt>
      <trkpt lat="44.40564" lon="6.77016">
        <ele>1652.45</ele>
        <time>2022-10-08T14:33:27Z</time>
      </trkpt>
      <trkpt lat="44.40558" lon="6.77023">
        <ele>1653.45</ele>
        <time>2022-10-08T14:33:28Z</time>
      </trkpt>
      <trkpt lat="44.40553" lon="6.7703">
        <ele>1653.44</ele>
        <time>2022-10-08T14:33:29Z</time>
      </trkpt>
      <trkpt lat="44.40548" lon="6.77038">
        <ele>1655.03</ele>
        <time>2022-10-08T14:33:30Z</time>
      </trkpt>
      <trkpt lat="44.40544" lon="6.77045">
        <ele>1655.95</ele>
        <time>2022-10-08T14:33:31Z</time>
      </trkpt>
      <trkpt lat="44.40541" lon="6.77053">
        <ele>1657</ele>
        <time>2022-10-08T14:33:32Z</time>
      </trkpt>
      <trkpt lat="44.40538" lon="6.77061">
        <ele>1657.05</ele>
        <time>2022-10-08T14:33:33Z</time>
      </trkpt>
      <trkpt lat="44.40537" lon="6.77069">
        <ele>1658.06</ele>
        <time>2022-10-08T14:33:34Z</time>
      </trkpt>
      <trkpt lat="44.40537" lon="6.77078">
        <ele>1659.04</ele>
        <time>2022-10-08T14:33:35Z</time>
      </trkpt>
      <trkpt lat="44.40537" lon="6.77087">
        <ele>1659.11</ele>
        <time>2022-10-08T14:33:36Z</time>
      </trkpt>
      <trkpt lat="44.40538" lon="6.77097">
        <ele>1661.09</ele>
        <time>2022-10-08T14:33:37Z</time>
      </trkpt>
      <trkpt lat="44.40538" lon="6.77106">
        <ele>1661.68</ele>
        <time>2022-10-08T14:33:38Z</time>
      </trkpt>
      <trkpt lat="44.40538" lon="6.7712">
        <ele>1664.05</ele>
        <time>2022-10-08T14:33:40Z</time>
      </trkpt>
      <trkpt lat="44.40539" lon="6.77125">
        <ele>1664.77</ele>
        <time>2022-10-08T14:33:41Z</time>
      </trkpt>
      <trkpt lat="44.40542" lon="6.77128">
        <ele>1665.66</ele>
        <time>2022-10-08T14:33:42Z</time>
      </trkpt>
      <trkpt lat="44.40546" lon="6.77129">
        <ele>1665.83</ele>
        <time>2022-10-08T14:33:43Z</time>
      </trkpt>
      <trkpt lat="44.40551" lon="6.77127">
        <ele>1665.75</ele>
        <time>2022-10-08T14:33:44Z</time>
      </trkpt>
      <trkpt lat="44.40555" lon="6.77123">
        <ele>1667.54</ele>
        <time>2022-10-08T14:33:45Z</time>
      </trkpt>
      <trkpt lat="44.40559" lon="6.77121">
        <ele>1667.54</ele>
        <time>2022-10-08T14:33:46Z</time>
      </trkpt>
      <trkpt lat="44.40562" lon="6.7712">
        <ele>1668.52</ele>
        <time>2022-10-08T14:33:47Z</time>
      </trkpt>
      <trkpt lat="44.40565" lon="6.77123">
        <ele>1669.44</ele>
        <time>2022-10-08T14:33:48Z</time>
      </trkpt>
      <trkpt lat="44.40566" lon="6.77127">
        <ele>1669.51</ele>
        <time>2022-10-08T14:33:49Z</time>
      </trkpt>
      <trkpt lat="44.40567" lon="6.77133">
        <ele>1669.48</ele>
        <time>2022-10-08T14:33:50Z</time>
      </trkpt>
      <trkpt lat="44.40567" lon="6.77139">
        <ele>1670.78</ele>
        <time>2022-10-08T14:33:51Z</time>
      </trkpt>
      <trkpt lat="44.40565" lon="6.77146">
        <ele>1671.96</ele>
        <time>2022-10-08T14:33:52Z</time>
      </trkpt>
      <trkpt lat="44.40562" lon="6.77154">
        <ele>1672.74</ele>
        <time>2022-10-08T14:33:53Z</time>
      </trkpt>
      <trkpt lat="44.40558" lon="6.77161">
        <ele>1673.98</ele>
        <time>2022-10-08T14:33:54Z</time>
      </trkpt>
      <trkpt lat="44.40554" lon="6.77169">
        <ele>1673.98</ele>
        <time>2022-10-08T14:33:55Z</time>
      </trkpt>
      <trkpt lat="44.40547" lon="6.77183">
        <ele>1675.17</ele>
        <time>2022-10-08T14:33:57Z</time>
      </trkpt>
      <trkpt lat="44.40545" lon="6.7719">
        <ele>1676.67</ele>
        <time>2022-10-08T14:33:58Z</time>
      </trkpt>
      <trkpt lat="44.40543" lon="6.77198">
        <ele>1676.58</ele>
        <time>2022-10-08T14:33:59Z</time>
      </trkpt>
      <trkpt lat="44.40542" lon="6.77205">
        <ele>1676.55</ele>
        <time>2022-10-08T14:34:00Z</time>
      </trkpt>
      <trkpt lat="44.40542" lon="6.77213">
        <ele>1678.07</ele>
        <time>2022-10-08T14:34:01Z</time>
      </trkpt>
      <trkpt lat="44.40543" lon="6.77221">
        <ele>1678.08</ele>
        <time>2022-10-08T14:34:02Z</time>
      </trkpt>
      <trkpt lat="44.40544" lon="6.77243">
        <ele>1680.33</ele>
        <time>2022-10-08T14:34:05Z</time>
      </trkpt>
      <trkpt lat="44.40544" lon="6.77251">
        <ele>1681.78</ele>
        <time>2022-10-08T14:34:06Z</time>
      </trkpt>
      <trkpt lat="44.40543" lon="6.77258">
        <ele>1682.9</ele>
        <time>2022-10-08T14:34:07Z</time>
      </trkpt>
      <trkpt lat="44.40541" lon="6.77267">
        <ele>1682.91</ele>
        <time>2022-10-08T14:34:08Z</time>
      </trkpt>
      <trkpt lat="44.40538" lon="6.77275">
        <ele>1683.95</ele>
        <time>2022-10-08T14:34:09Z</time>
      </trkpt>
      <trkpt lat="44.40535" lon="6.77283">
        <ele>1685.08</ele>
        <time>2022-10-08T14:34:10Z</time>
      </trkpt>
      <trkpt lat="44.40531" lon="6.77292">
        <ele>1685.05</ele>
        <time>2022-10-08T14:34:11Z</time>
      </trkpt>
      <trkpt lat="44.40522" lon="6.77311">
        <ele>1686.32</ele>
        <time>2022-10-08T14:34:13Z</time>
      </trkpt>
      <trkpt lat="44.405" lon="6.77346">
        <ele>1688.12</ele>
        <time>2022-10-08T14:34:17Z</time>
      </trkpt>
      <trkpt lat="44.40493" lon="6.77354">
        <ele>1689.02</ele>
        <time>2022-10-08T14:34:18Z</time>
      </trkpt>
      <trkpt lat="44.40486" lon="6.77361">
        <ele>1689.05</ele>
        <time>2022-10-08T14:34:19Z</time>
      </trkpt>
      <trkpt lat="44.40441" lon="6.77407">
        <ele>1689.76</ele>
        <time>2022-10-08T14:34:25Z</time>
      </trkpt>
      <trkpt lat="44.40433" lon="6.77414">
        <ele>1690.22</ele>
        <time>2022-10-08T14:34:26Z</time>
      </trkpt>
      <trkpt lat="44.40406" lon="6.77435">
        <ele>1691.45</ele>
        <time>2022-10-08T14:34:29Z</time>
      </trkpt>
      <trkpt lat="44.40374" lon="6.77461">
        <ele>1691.49</ele>
        <time>2022-10-08T14:34:33Z</time>
      </trkpt>
      <trkpt lat="44.4037" lon="6.77467">
        <ele>1691.52</ele>
        <time>2022-10-08T14:34:34Z</time>
      </trkpt>
      <trkpt lat="44.40368" lon="6.77475">
        <ele>1691.52</ele>
        <time>2022-10-08T14:34:35Z</time>
      </trkpt>
      <trkpt lat="44.40368" lon="6.77483">
        <ele>1692.33</ele>
        <time>2022-10-08T14:34:36Z</time>
      </trkpt>
      <trkpt lat="44.40368" lon="6.77492">
        <ele>1693.24</ele>
        <time>2022-10-08T14:34:37Z</time>
      </trkpt>
      <trkpt lat="44.40368" lon="6.77502">
        <ele>1693.22</ele>
        <time>2022-10-08T14:34:38Z</time>
      </trkpt>
      <trkpt lat="44.40367" lon="6.77511">
        <ele>1694.92</ele>
        <time>2022-10-08T14:34:39Z</time>
      </trkpt>
      <trkpt lat="44.40366" lon="6.7752">
        <ele>1695.78</ele>
        <time>2022-10-08T14:34:40Z</time>
      </trkpt>
      <trkpt lat="44.40364" lon="6.77529">
        <ele>1696.98</ele>
        <time>2022-10-08T14:34:41Z</time>
      </trkpt>
      <trkpt lat="44.40361" lon="6.77538">
        <ele>1697.04</ele>
        <time>2022-10-08T14:34:42Z</time>
      </trkpt>
      <trkpt lat="44.40355" lon="6.77557">
        <ele>1700.53</ele>
        <time>2022-10-08T14:34:44Z</time>
      </trkpt>
      <trkpt lat="44.40352" lon="6.77567">
        <ele>1701.72</ele>
        <time>2022-10-08T14:34:45Z</time>
      </trkpt>
      <trkpt lat="44.40347" lon="6.77594">
        <ele>1705.75</ele>
        <time>2022-10-08T14:34:48Z</time>
      </trkpt>
      <trkpt lat="44.40343" lon="6.77601">
        <ele>1706.83</ele>
        <time>2022-10-08T14:34:49Z</time>
      </trkpt>
      <trkpt lat="44.40335" lon="6.77614">
        <ele>1708.39</ele>
        <time>2022-10-08T14:34:51Z</time>
      </trkpt>
      <trkpt lat="44.40326" lon="6.77628">
        <ele>1710.63</ele>
        <time>2022-10-08T14:34:53Z</time>
      </trkpt>
      <trkpt lat="44.40323" lon="6.77636">
        <ele>1712.69</ele>
        <time>2022-10-08T14:34:54Z</time>
      </trkpt>
      <trkpt lat="44.40322" lon="6.77646">
        <ele>1714.04</ele>
        <time>2022-10-08T14:34:55Z</time>
      </trkpt>
      <trkpt lat="44.40321" lon="6.77656">
        <ele>1715.32</ele>
        <time>2022-10-08T14:34:56Z</time>
      </trkpt>
      <trkpt lat="44.40321" lon="6.77667">
        <ele>1716.63</ele>
        <time>2022-10-08T14:34:57Z</time>
      </trkpt>
      <trkpt lat="44.4032" lon="6.77677">
        <ele>1717.87</ele>
        <time>2022-10-08T14:34:58Z</time>
      </trkpt>
      <trkpt lat="44.4032" lon="6.77695">
        <ele>1719.12</ele>
        <time>2022-10-08T14:35:00Z</time>
      </trkpt>
      <trkpt lat="44.40319" lon="6.77714">
        <ele>1722.66</ele>
        <time>2022-10-08T14:35:02Z</time>
      </trkpt>
      <trkpt lat="44.40317" lon="6.77743">
        <ele>1726.44</ele>
        <time>2022-10-08T14:35:05Z</time>
      </trkpt>
      <trkpt lat="44.40316" lon="6.77752">
        <ele>1726.45</ele>
        <time>2022-10-08T14:35:06Z</time>
      </trkpt>
      <trkpt lat="44.40314" lon="6.7776">
        <ele>1728.89</ele>
        <time>2022-10-08T14:35:07Z</time>
      </trkpt>
      <trkpt lat="44.40309" lon="6.7778">
        <ele>1732.27</ele>
        <time>2022-10-08T14:35:10Z</time>
      </trkpt>
      <trkpt lat="44.40305" lon="6.77785">
        <ele>1732.14</ele>
        <time>2022-10-08T14:35:11Z</time>
      </trkpt>
      <trkpt lat="44.40301" lon="6.77789">
        <ele>1734.22</ele>
        <time>2022-10-08T14:35:12Z</time>
      </trkpt>
      <trkpt lat="44.40292" lon="6.77797">
        <ele>1735.97</ele>
        <time>2022-10-08T14:35:14Z</time>
      </trkpt>
      <trkpt lat="44.40288" lon="6.77803">
        <ele>1737.46</ele>
        <time>2022-10-08T14:35:15Z</time>
      </trkpt>
      <trkpt lat="44.40285" lon="6.7781">
        <ele>1738.55</ele>
        <time>2022-10-08T14:35:16Z</time>
      </trkpt>
      <trkpt lat="44.40281" lon="6.77818">
        <ele>1738.5</ele>
        <time>2022-10-08T14:35:17Z</time>
      </trkpt>
      <trkpt lat="44.40278" lon="6.77825">
        <ele>1739.42</ele>
        <time>2022-10-08T14:35:18Z</time>
      </trkpt>
      <trkpt lat="44.40274" lon="6.77831">
        <ele>1740.52</ele>
        <time>2022-10-08T14:35:19Z</time>
      </trkpt>
      <trkpt lat="44.40271" lon="6.77836">
        <ele>1740.53</ele>
        <time>2022-10-08T14:35:20Z</time>
      </trkpt>
      <trkpt lat="44.40268" lon="6.77841">
        <ele>1742.22</ele>
        <time>2022-10-08T14:35:21Z</time>
      </trkpt>
      <trkpt lat="44.40266" lon="6.77847">
        <ele>1742.22</ele>
        <time>2022-10-08T14:35:22Z</time>
      </trkpt>
      <trkpt lat="44.40264" lon="6.77853">
        <ele>1744.15</ele>
        <time>2022-10-08T14:35:23Z</time>
      </trkpt>
      <trkpt lat="44.40261" lon="6.7786">
        <ele>1744.15</ele>
        <time>2022-10-08T14:35:24Z</time>
      </trkpt>
      <trkpt lat="44.40256" lon="6.77874">
        <ele>1745.47</ele>
        <time>2022-10-08T14:35:26Z</time>
      </trkpt>
      <trkpt lat="44.40249" lon="6.77898">
        <ele>1747.67</ele>
        <time>2022-10-08T14:35:29Z</time>
      </trkpt>
      <trkpt lat="44.40244" lon="6.77915">
        <ele>1749.33</ele>
        <time>2022-10-08T14:35:31Z</time>
      </trkpt>
      <trkpt lat="44.40233" lon="6.77942">
        <ele>1752.83</ele>
        <time>2022-10-08T14:35:34Z</time>
      </trkpt>
      <trkpt lat="44.40228" lon="6.77951">
        <ele>1753.94</ele>
        <time>2022-10-08T14:35:35Z</time>
      </trkpt>
      <trkpt lat="44.40222" lon="6.7796">
        <ele>1755.21</ele>
        <time>2022-10-08T14:35:36Z</time>
      </trkpt>
      <trkpt lat="44.40216" lon="6.77967">
        <ele>1756.74</ele>
        <time>2022-10-08T14:35:37Z</time>
      </trkpt>
      <trkpt lat="44.40209" lon="6.77975">
        <ele>1756.64</ele>
        <time>2022-10-08T14:35:38Z</time>
      </trkpt>
      <trkpt lat="44.40202" lon="6.77981">
        <ele>1757.87</ele>
        <time>2022-10-08T14:35:39Z</time>
      </trkpt>
      <trkpt lat="44.40188" lon="6.7799">
        <ele>1758.94</ele>
        <time>2022-10-08T14:35:41Z</time>
      </trkpt>
      <trkpt lat="44.40181" lon="6.77991">
        <ele>1759.76</ele>
        <time>2022-10-08T14:35:42Z</time>
      </trkpt>
      <trkpt lat="44.40171" lon="6.77994">
        <ele>1761.03</ele>
        <time>2022-10-08T14:35:44Z</time>
      </trkpt>
      <trkpt lat="44.40169" lon="6.77998">
        <ele>1761.03</ele>
        <time>2022-10-08T14:35:45Z</time>
      </trkpt>
      <trkpt lat="44.40169" lon="6.78003">
        <ele>1761.94</ele>
        <time>2022-10-08T14:35:46Z</time>
      </trkpt>
      <trkpt lat="44.4017" lon="6.78008">
        <ele>1762.06</ele>
        <time>2022-10-08T14:35:47Z</time>
      </trkpt>
      <trkpt lat="44.40174" lon="6.78011">
        <ele>1763.61</ele>
        <time>2022-10-08T14:35:48Z</time>
      </trkpt>
      <trkpt lat="44.40179" lon="6.78013">
        <ele>1763.7</ele>
        <time>2022-10-08T14:35:49Z</time>
      </trkpt>
      <trkpt lat="44.40184" lon="6.78015">
        <ele>1763.7</ele>
        <time>2022-10-08T14:35:50Z</time>
      </trkpt>
      <trkpt lat="44.40188" lon="6.78019">
        <ele>1764.95</ele>
        <time>2022-10-08T14:35:51Z</time>
      </trkpt>
      <trkpt lat="44.40192" lon="6.78022">
        <ele>1765.02</ele>
        <time>2022-10-08T14:35:52Z</time>
      </trkpt>
      <trkpt lat="44.40194" lon="6.78027">
        <ele>1764.98</ele>
        <time>2022-10-08T14:35:53Z</time>
      </trkpt>
      <trkpt lat="44.40194" lon="6.78032">
        <ele>1766.22</ele>
        <time>2022-10-08T14:35:54Z</time>
      </trkpt>
      <trkpt lat="44.40193" lon="6.78036">
        <ele>1766.25</ele>
        <time>2022-10-08T14:35:55Z</time>
      </trkpt>
      <trkpt lat="44.4019" lon="6.7804">
        <ele>1766.25</ele>
        <time>2022-10-08T14:35:56Z</time>
      </trkpt>
      <trkpt lat="44.40185" lon="6.78041">
        <ele>1767.25</ele>
        <time>2022-10-08T14:35:57Z</time>
      </trkpt>
      <trkpt lat="44.40178" lon="6.78041">
        <ele>1767.29</ele>
        <time>2022-10-08T14:35:58Z</time>
      </trkpt>
      <trkpt lat="44.40165" lon="6.78042">
        <ele>1768.16</ele>
        <time>2022-10-08T14:36:00Z</time>
      </trkpt>
      <trkpt lat="44.40156" lon="6.78044">
        <ele>1770.47</ele>
        <time>2022-10-08T14:36:02Z</time>
      </trkpt>
      <trkpt lat="44.40154" lon="6.78048">
        <ele>1770.44</ele>
        <time>2022-10-08T14:36:03Z</time>
      </trkpt>
      <trkpt lat="44.40154" lon="6.78053">
        <ele>1771.22</ele>
        <time>2022-10-08T14:36:04Z</time>
      </trkpt>
      <trkpt lat="44.40157" lon="6.78057">
        <ele>1771.21</ele>
        <time>2022-10-08T14:36:05Z</time>
      </trkpt>
      <trkpt lat="44.40161" lon="6.78061">
        <ele>1772.26</ele>
        <time>2022-10-08T14:36:06Z</time>
      </trkpt>
      <trkpt lat="44.40167" lon="6.78065">
        <ele>1772.52</ele>
        <time>2022-10-08T14:36:07Z</time>
      </trkpt>
      <trkpt lat="44.4019" lon="6.78087">
        <ele>1775.59</ele>
        <time>2022-10-08T14:36:11Z</time>
      </trkpt>
      <trkpt lat="44.40197" lon="6.78092">
        <ele>1775.58</ele>
        <time>2022-10-08T14:36:12Z</time>
      </trkpt>
      <trkpt lat="44.40205" lon="6.78096">
        <ele>1776.65</ele>
        <time>2022-10-08T14:36:13Z</time>
      </trkpt>
      <trkpt lat="44.40212" lon="6.78098">
        <ele>1776.66</ele>
        <time>2022-10-08T14:36:14Z</time>
      </trkpt>
      <trkpt lat="44.40219" lon="6.78098">
        <ele>1778.5</ele>
        <time>2022-10-08T14:36:15Z</time>
      </trkpt>
      <trkpt lat="44.40224" lon="6.78098">
        <ele>1778.56</ele>
        <time>2022-10-08T14:36:16Z</time>
      </trkpt>
      <trkpt lat="44.40227" lon="6.78099">
        <ele>1780.01</ele>
        <time>2022-10-08T14:36:17Z</time>
      </trkpt>
      <trkpt lat="44.4023" lon="6.78101">
        <ele>1780.03</ele>
        <time>2022-10-08T14:36:18Z</time>
      </trkpt>
      <trkpt lat="44.40231" lon="6.78105">
        <ele>1780.09</ele>
        <time>2022-10-08T14:36:19Z</time>
      </trkpt>
      <trkpt lat="44.40231" lon="6.7811">
        <ele>1780.13</ele>
        <time>2022-10-08T14:36:20Z</time>
      </trkpt>
      <trkpt lat="44.40227" lon="6.78114">
        <ele>1781.48</ele>
        <time>2022-10-08T14:36:21Z</time>
      </trkpt>
      <trkpt lat="44.40222" lon="6.78117">
        <ele>1781.52</ele>
        <time>2022-10-08T14:36:22Z</time>
      </trkpt>
      <trkpt lat="44.40217" lon="6.78118">
        <ele>1783.1</ele>
        <time>2022-10-08T14:36:23Z</time>
      </trkpt>
      <trkpt lat="44.40211" lon="6.78121">
        <ele>1783.14</ele>
        <time>2022-10-08T14:36:24Z</time>
      </trkpt>
      <trkpt lat="44.40196" lon="6.78129">
        <ele>1785.07</ele>
        <time>2022-10-08T14:36:26Z</time>
      </trkpt>
      <trkpt lat="44.40177" lon="6.78142">
        <ele>1789.29</ele>
        <time>2022-10-08T14:36:28Z</time>
      </trkpt>
      <trkpt lat="44.4016" lon="6.78151">
        <ele>1790.1</ele>
        <time>2022-10-08T14:36:30Z</time>
      </trkpt>
      <trkpt lat="44.40151" lon="6.78152">
        <ele>1792.09</ele>
        <time>2022-10-08T14:36:31Z</time>
      </trkpt>
      <trkpt lat="44.40143" lon="6.78154">
        <ele>1792.91</ele>
        <time>2022-10-08T14:36:32Z</time>
      </trkpt>
      <trkpt lat="44.40136" lon="6.78155">
        <ele>1792.91</ele>
        <time>2022-10-08T14:36:33Z</time>
      </trkpt>
      <trkpt lat="44.40129" lon="6.78156">
        <ele>1793.84</ele>
        <time>2022-10-08T14:36:34Z</time>
      </trkpt>
      <trkpt lat="44.40124" lon="6.78156">
        <ele>1793.83</ele>
        <time>2022-10-08T14:36:35Z</time>
      </trkpt>
      <trkpt lat="44.4012" lon="6.78157">
        <ele>1793.83</ele>
        <time>2022-10-08T14:36:36Z</time>
      </trkpt>
      <trkpt lat="44.40115" lon="6.78162">
        <ele>1795.27</ele>
        <time>2022-10-08T14:36:38Z</time>
      </trkpt>
      <trkpt lat="44.40114" lon="6.78166">
        <ele>1796.33</ele>
        <time>2022-10-08T14:36:39Z</time>
      </trkpt>
      <trkpt lat="44.40115" lon="6.7817">
        <ele>1797.27</ele>
        <time>2022-10-08T14:36:40Z</time>
      </trkpt>
      <trkpt lat="44.4012" lon="6.78173">
        <ele>1797.33</ele>
        <time>2022-10-08T14:36:41Z</time>
      </trkpt>
      <trkpt lat="44.40126" lon="6.78174">
        <ele>1797.33</ele>
        <time>2022-10-08T14:36:42Z</time>
      </trkpt>
      <trkpt lat="44.40134" lon="6.78173">
        <ele>1798.55</ele>
        <time>2022-10-08T14:36:43Z</time>
      </trkpt>
      <trkpt lat="44.40142" lon="6.78172">
        <ele>1799.48</ele>
        <time>2022-10-08T14:36:44Z</time>
      </trkpt>
      <trkpt lat="44.40151" lon="6.78174">
        <ele>1799.45</ele>
        <time>2022-10-08T14:36:45Z</time>
      </trkpt>
      <trkpt lat="44.40159" lon="6.78177">
        <ele>1801.18</ele>
        <time>2022-10-08T14:36:46Z</time>
      </trkpt>
      <trkpt lat="44.40168" lon="6.78179">
        <ele>1801.12</ele>
        <time>2022-10-08T14:36:47Z</time>
      </trkpt>
      <trkpt lat="44.40177" lon="6.78178">
        <ele>1802.51</ele>
        <time>2022-10-08T14:36:48Z</time>
      </trkpt>
      <trkpt lat="44.40185" lon="6.78175">
        <ele>1803.97</ele>
        <time>2022-10-08T14:36:49Z</time>
      </trkpt>
      <trkpt lat="44.40194" lon="6.78172">
        <ele>1803.85</ele>
        <time>2022-10-08T14:36:50Z</time>
      </trkpt>
      <trkpt lat="44.40211" lon="6.78167">
        <ele>1804.92</ele>
        <time>2022-10-08T14:36:52Z</time>
      </trkpt>
      <trkpt lat="44.40218" lon="6.78168">
        <ele>1805.99</ele>
        <time>2022-10-08T14:36:53Z</time>
      </trkpt>
      <trkpt lat="44.40225" lon="6.78171">
        <ele>1806</ele>
        <time>2022-10-08T14:36:54Z</time>
      </trkpt>
      <trkpt lat="44.40231" lon="6.78178">
        <ele>1807.13</ele>
        <time>2022-10-08T14:36:55Z</time>
      </trkpt>
      <trkpt lat="44.40237" lon="6.78187">
        <ele>1807.05</ele>
        <time>2022-10-08T14:36:56Z</time>
      </trkpt>
      <trkpt lat="44.40243" lon="6.78194">
        <ele>1808.02</ele>
        <time>2022-10-08T14:36:57Z</time>
      </trkpt>
      <trkpt lat="44.40249" lon="6.78198">
        <ele>1808.95</ele>
        <time>2022-10-08T14:36:58Z</time>
      </trkpt>
      <trkpt lat="44.40255" lon="6.782">
        <ele>1808.93</ele>
        <time>2022-10-08T14:36:59Z</time>
      </trkpt>
      <trkpt lat="44.40261" lon="6.782">
        <ele>1809.81</ele>
        <time>2022-10-08T14:37:00Z</time>
      </trkpt>
      <trkpt lat="44.40267" lon="6.78198">
        <ele>1810.48</ele>
        <time>2022-10-08T14:37:01Z</time>
      </trkpt>
      <trkpt lat="44.40272" lon="6.78193">
        <ele>1811</ele>
        <time>2022-10-08T14:37:02Z</time>
      </trkpt>
      <trkpt lat="44.40277" lon="6.78187">
        <ele>1811.58</ele>
        <time>2022-10-08T14:37:03Z</time>
      </trkpt>
      <trkpt lat="44.40288" lon="6.78176">
        <ele>1812.66</ele>
        <time>2022-10-08T14:37:05Z</time>
      </trkpt>
      <trkpt lat="44.40296" lon="6.78172">
        <ele>1813.54</ele>
        <time>2022-10-08T14:37:06Z</time>
      </trkpt>
      <trkpt lat="44.40304" lon="6.78168">
        <ele>1814.49</ele>
        <time>2022-10-08T14:37:07Z</time>
      </trkpt>
      <trkpt lat="44.40313" lon="6.78166">
        <ele>1814.49</ele>
        <time>2022-10-08T14:37:08Z</time>
      </trkpt>
      <trkpt lat="44.40321" lon="6.78164">
        <ele>1816.07</ele>
        <time>2022-10-08T14:37:09Z</time>
      </trkpt>
      <trkpt lat="44.4033" lon="6.78162">
        <ele>1816.2</ele>
        <time>2022-10-08T14:37:10Z</time>
      </trkpt>
      <trkpt lat="44.4035" lon="6.78159">
        <ele>1817.55</ele>
        <time>2022-10-08T14:37:12Z</time>
      </trkpt>
      <trkpt lat="44.40359" lon="6.78155">
        <ele>1818.98</ele>
        <time>2022-10-08T14:37:13Z</time>
      </trkpt>
      <trkpt lat="44.40368" lon="6.78148">
        <ele>1819.04</ele>
        <time>2022-10-08T14:37:14Z</time>
      </trkpt>
      <trkpt lat="44.40376" lon="6.78141">
        <ele>1820.32</ele>
        <time>2022-10-08T14:37:15Z</time>
      </trkpt>
      <trkpt lat="44.40384" lon="6.78132">
        <ele>1821.11</ele>
        <time>2022-10-08T14:37:16Z</time>
      </trkpt>
      <trkpt lat="44.40392" lon="6.78123">
        <ele>1822.16</ele>
        <time>2022-10-08T14:37:17Z</time>
      </trkpt>
      <trkpt lat="44.404" lon="6.78114">
        <ele>1822.16</ele>
        <time>2022-10-08T14:37:18Z</time>
      </trkpt>
      <trkpt lat="44.40408" lon="6.78107">
        <ele>1823.33</ele>
        <time>2022-10-08T14:37:19Z</time>
      </trkpt>
      <trkpt lat="44.40415" lon="6.78102">
        <ele>1824.47</ele>
        <time>2022-10-08T14:37:20Z</time>
      </trkpt>
      <trkpt lat="44.40423" lon="6.781">
        <ele>1825.63</ele>
        <time>2022-10-08T14:37:21Z</time>
      </trkpt>
      <trkpt lat="44.40432" lon="6.781">
        <ele>1825.7</ele>
        <time>2022-10-08T14:37:22Z</time>
      </trkpt>
      <trkpt lat="44.4044" lon="6.78103">
        <ele>1826.62</ele>
        <time>2022-10-08T14:37:23Z</time>
      </trkpt>
      <trkpt lat="44.40448" lon="6.78107">
        <ele>1826.7</ele>
        <time>2022-10-08T14:37:24Z</time>
      </trkpt>
      <trkpt lat="44.40456" lon="6.78109">
        <ele>1827.7</ele>
        <time>2022-10-08T14:37:25Z</time>
      </trkpt>
      <trkpt lat="44.40465" lon="6.78108">
        <ele>1828.31</ele>
        <time>2022-10-08T14:37:26Z</time>
      </trkpt>
      <trkpt lat="44.40474" lon="6.78106">
        <ele>1829.14</ele>
        <time>2022-10-08T14:37:27Z</time>
      </trkpt>
      <trkpt lat="44.40484" lon="6.78101">
        <ele>1829.21</ele>
        <time>2022-10-08T14:37:28Z</time>
      </trkpt>
      <trkpt lat="44.40493" lon="6.78096">
        <ele>1830.28</ele>
        <time>2022-10-08T14:37:29Z</time>
      </trkpt>
      <trkpt lat="44.40529" lon="6.78069">
        <ele>1832.83</ele>
        <time>2022-10-08T14:37:33Z</time>
      </trkpt>
      <trkpt lat="44.40547" lon="6.78052">
        <ele>1835.28</ele>
        <time>2022-10-08T14:37:35Z</time>
      </trkpt>
      <trkpt lat="44.40557" lon="6.78045">
        <ele>1835.29</ele>
        <time>2022-10-08T14:37:36Z</time>
      </trkpt>
      <trkpt lat="44.4059" lon="6.78022">
        <ele>1837.42</ele>
        <time>2022-10-08T14:37:39Z</time>
      </trkpt>
      <trkpt lat="44.40601" lon="6.78013">
        <ele>1839.54</ele>
        <time>2022-10-08T14:37:40Z</time>
      </trkpt>
      <trkpt lat="44.40633" lon="6.77985">
        <ele>1841.67</ele>
        <time>2022-10-08T14:37:43Z</time>
      </trkpt>
      <trkpt lat="44.40653" lon="6.77967">
        <ele>1843.32</ele>
        <time>2022-10-08T14:37:45Z</time>
      </trkpt>
      <trkpt lat="44.40686" lon="6.77943">
        <ele>1846.98</ele>
        <time>2022-10-08T14:37:48Z</time>
      </trkpt>
      <trkpt lat="44.40718" lon="6.77918">
        <ele>1850.36</ele>
        <time>2022-10-08T14:37:51Z</time>
      </trkpt>
      <trkpt lat="44.40738" lon="6.77901">
        <ele>1850.75</ele>
        <time>2022-10-08T14:37:53Z</time>
      </trkpt>
      <trkpt lat="44.40747" lon="6.77891">
        <ele>1852.59</ele>
        <time>2022-10-08T14:37:54Z</time>
      </trkpt>
      <trkpt lat="44.40756" lon="6.7788">
        <ele>1853.56</ele>
        <time>2022-10-08T14:37:55Z</time>
      </trkpt>
      <trkpt lat="44.40764" lon="6.77869">
        <ele>1853.65</ele>
        <time>2022-10-08T14:37:56Z</time>
      </trkpt>
      <trkpt lat="44.40786" lon="6.77836">
        <ele>1855.8</ele>
        <time>2022-10-08T14:37:59Z</time>
      </trkpt>
      <trkpt lat="44.40792" lon="6.77829">
        <ele>1856.94</ele>
        <time>2022-10-08T14:38:00Z</time>
      </trkpt>
      <trkpt lat="44.40797" lon="6.77824">
        <ele>1857.02</ele>
        <time>2022-10-08T14:38:01Z</time>
      </trkpt>
      <trkpt lat="44.40801" lon="6.77822">
        <ele>1858.33</ele>
        <time>2022-10-08T14:38:02Z</time>
      </trkpt>
      <trkpt lat="44.40805" lon="6.77822">
        <ele>1858.42</ele>
        <time>2022-10-08T14:38:03Z</time>
      </trkpt>
      <trkpt lat="44.40809" lon="6.77825">
        <ele>1859.96</ele>
        <time>2022-10-08T14:38:04Z</time>
      </trkpt>
      <trkpt lat="44.40811" lon="6.77831">
        <ele>1859.98</ele>
        <time>2022-10-08T14:38:05Z</time>
      </trkpt>
      <trkpt lat="44.40813" lon="6.77839">
        <ele>1861.04</ele>
        <time>2022-10-08T14:38:06Z</time>
      </trkpt>
      <trkpt lat="44.40814" lon="6.77851">
        <ele>1861.14</ele>
        <time>2022-10-08T14:38:07Z</time>
      </trkpt>
      <trkpt lat="44.40819" lon="6.77893">
        <ele>1861.07</ele>
        <time>2022-10-08T14:38:10Z</time>
      </trkpt>
      <trkpt lat="44.40822" lon="6.77908">
        <ele>1861.05</ele>
        <time>2022-10-08T14:38:11Z</time>
      </trkpt>
      <trkpt lat="44.40827" lon="6.77936">
        <ele>1861.09</ele>
        <time>2022-10-08T14:38:13Z</time>
      </trkpt>
      <trkpt lat="44.40834" lon="6.77981">
        <ele>1860.67</ele>
        <time>2022-10-08T14:38:16Z</time>
      </trkpt>
      <trkpt lat="44.40838" lon="6.77996">
        <ele>1860.67</ele>
        <time>2022-10-08T14:38:17Z</time>
      </trkpt>
      <trkpt lat="44.40843" lon="6.78009">
        <ele>1860.7</ele>
        <time>2022-10-08T14:38:18Z</time>
      </trkpt>
      <trkpt lat="44.40849" lon="6.78022">
        <ele>1860.72</ele>
        <time>2022-10-08T14:38:19Z</time>
      </trkpt>
      <trkpt lat="44.40856" lon="6.78035">
        <ele>1860.71</ele>
        <time>2022-10-08T14:38:20Z</time>
      </trkpt>
      <trkpt lat="44.40885" lon="6.78085">
        <ele>1860.73</ele>
        <time>2022-10-08T14:38:24Z</time>
      </trkpt>
      <trkpt lat="44.40893" lon="6.78096">
        <ele>1860.73</ele>
        <time>2022-10-08T14:38:25Z</time>
      </trkpt>
      <trkpt lat="44.40899" lon="6.78105">
        <ele>1860.72</ele>
        <time>2022-10-08T14:38:26Z</time>
      </trkpt>
      <trkpt lat="44.40905" lon="6.78116">
        <ele>1860.72</ele>
        <time>2022-10-08T14:38:27Z</time>
      </trkpt>
      <trkpt lat="44.40909" lon="6.78128">
        <ele>1860.71</ele>
        <time>2022-10-08T14:38:28Z</time>
      </trkpt>
      <trkpt lat="44.40912" lon="6.7814">
        <ele>1860.76</ele>
        <time>2022-10-08T14:38:29Z</time>
      </trkpt>
      <trkpt lat="44.40915" lon="6.78151">
        <ele>1860.76</ele>
        <time>2022-10-08T14:38:30Z</time>
      </trkpt>
      <trkpt lat="44.40915" lon="6.78162">
        <ele>1860.77</ele>
        <time>2022-10-08T14:38:31Z</time>
      </trkpt>
      <trkpt lat="44.40915" lon="6.78173">
        <ele>1860.75</ele>
        <time>2022-10-08T14:38:32Z</time>
      </trkpt>
      <trkpt lat="44.40913" lon="6.78185">
        <ele>1860.75</ele>
        <time>2022-10-08T14:38:33Z</time>
      </trkpt>
      <trkpt lat="44.40911" lon="6.78198">
        <ele>1860.75</ele>
        <time>2022-10-08T14:38:34Z</time>
      </trkpt>
      <trkpt lat="44.40899" lon="6.78326">
        <ele>1861.74</ele>
        <time>2022-10-08T14:38:42Z</time>
      </trkpt>
      <trkpt lat="44.40911" lon="6.7845">
        <ele>1862.6</ele>
        <time>2022-10-08T14:38:49Z</time>
      </trkpt>
      <trkpt lat="44.40915" lon="6.78466">
        <ele>1862.61</ele>
        <time>2022-10-08T14:38:50Z</time>
      </trkpt>
      <trkpt lat="44.4092" lon="6.78481">
        <ele>1862.62</ele>
        <time>2022-10-08T14:38:51Z</time>
      </trkpt>
      <trkpt lat="44.40956" lon="6.78595">
        <ele>1862.6</ele>
        <time>2022-10-08T14:38:59Z</time>
      </trkpt>
      <trkpt lat="44.40964" lon="6.78634">
        <ele>1862.62</ele>
        <time>2022-10-08T14:39:02Z</time>
      </trkpt>
      <trkpt lat="44.40977" lon="6.78679">
        <ele>1862.61</ele>
        <time>2022-10-08T14:39:07Z</time>
      </trkpt>
      <trkpt lat="44.40977" lon="6.78688">
        <ele>1862.62</ele>
        <time>2022-10-08T14:39:08Z</time>
      </trkpt>
      <trkpt lat="44.40976" lon="6.78696">
        <ele>1862.62</ele>
        <time>2022-10-08T14:39:09Z</time>
      </trkpt>
      <trkpt lat="44.40973" lon="6.78705">
        <ele>1862.61</ele>
        <time>2022-10-08T14:39:10Z</time>
      </trkpt>
      <trkpt lat="44.4097" lon="6.78713">
        <ele>1862.62</ele>
        <time>2022-10-08T14:39:11Z</time>
      </trkpt>
      <trkpt lat="44.40965" lon="6.78721">
        <ele>1862.62</ele>
        <time>2022-10-08T14:39:12Z</time>
      </trkpt>
      <trkpt lat="44.40959" lon="6.7873">
        <ele>1862.61</ele>
        <time>2022-10-08T14:39:13Z</time>
      </trkpt>
      <trkpt lat="44.40953" lon="6.78739">
        <ele>1862.61</ele>
        <time>2022-10-08T14:39:14Z</time>
      </trkpt>
      <trkpt lat="44.40946" lon="6.78749">
        <ele>1862.63</ele>
        <time>2022-10-08T14:39:15Z</time>
      </trkpt>
      <trkpt lat="44.40941" lon="6.78758">
        <ele>1862.63</ele>
        <time>2022-10-08T14:39:16Z</time>
      </trkpt>
      <trkpt lat="44.40937" lon="6.78769">
        <ele>1862.61</ele>
        <time>2022-10-08T14:39:17Z</time>
      </trkpt>
      <trkpt lat="44.40937" lon="6.7878">
        <ele>1862.59</ele>
        <time>2022-10-08T14:39:18Z</time>
      </trkpt>
      <trkpt lat="44.40938" lon="6.78791">
        <ele>1862.59</ele>
        <time>2022-10-08T14:39:19Z</time>
      </trkpt>
      <trkpt lat="44.40942" lon="6.78801">
        <ele>1862.6</ele>
        <time>2022-10-08T14:39:20Z</time>
      </trkpt>
      <trkpt lat="44.40948" lon="6.78811">
        <ele>1862.61</ele>
        <time>2022-10-08T14:39:21Z</time>
      </trkpt>
      <trkpt lat="44.40953" lon="6.7882">
        <ele>1862.61</ele>
        <time>2022-10-08T14:39:22Z</time>
      </trkpt>
      <trkpt lat="44.40959" lon="6.7883">
        <ele>1862.63</ele>
        <time>2022-10-08T14:39:23Z</time>
      </trkpt>
      <trkpt lat="44.40972" lon="6.78851">
        <ele>1863.43</ele>
        <time>2022-10-08T14:39:25Z</time>
      </trkpt>
      <trkpt lat="44.41018" lon="6.78906">
        <ele>1864.35</ele>
        <time>2022-10-08T14:39:31Z</time>
      </trkpt>
      <trkpt lat="44.41022" lon="6.78915">
        <ele>1864.36</ele>
        <time>2022-10-08T14:39:32Z</time>
      </trkpt>
      <trkpt lat="44.41025" lon="6.78925">
        <ele>1864.36</ele>
        <time>2022-10-08T14:39:33Z</time>
      </trkpt>
      <trkpt lat="44.41026" lon="6.78934">
        <ele>1864.35</ele>
        <time>2022-10-08T14:39:34Z</time>
      </trkpt>
      <trkpt lat="44.41028" lon="6.78944">
        <ele>1864.35</ele>
        <time>2022-10-08T14:39:35Z</time>
      </trkpt>
      <trkpt lat="44.4103" lon="6.78955">
        <ele>1864.35</ele>
        <time>2022-10-08T14:39:36Z</time>
      </trkpt>
      <trkpt lat="44.41034" lon="6.78965">
        <ele>1864.34</ele>
        <time>2022-10-08T14:39:37Z</time>
      </trkpt>
      <trkpt lat="44.4104" lon="6.78975">
        <ele>1864.35</ele>
        <time>2022-10-08T14:39:38Z</time>
      </trkpt>
      <trkpt lat="44.41048" lon="6.78983">
        <ele>1864.35</ele>
        <time>2022-10-08T14:39:39Z</time>
      </trkpt>
      <trkpt lat="44.41056" lon="6.78988">
        <ele>1864.34</ele>
        <time>2022-10-08T14:39:40Z</time>
      </trkpt>
      <trkpt lat="44.41066" lon="6.78993">
        <ele>1864.32</ele>
        <time>2022-10-08T14:39:41Z</time>
      </trkpt>
      <trkpt lat="44.41111" lon="6.79021">
        <ele>1864.3</ele>
        <time>2022-10-08T14:39:46Z</time>
      </trkpt>
      <trkpt lat="44.41118" lon="6.79028">
        <ele>1864.3</ele>
        <time>2022-10-08T14:39:47Z</time>
      </trkpt>
      <trkpt lat="44.41124" lon="6.79035">
        <ele>1864.3</ele>
        <time>2022-10-08T14:39:48Z</time>
      </trkpt>
      <trkpt lat="44.4113" lon="6.79044">
        <ele>1864.27</ele>
        <time>2022-10-08T14:39:49Z</time>
      </trkpt>
      <trkpt lat="44.41135" lon="6.79053">
        <ele>1864.3</ele>
        <time>2022-10-08T14:39:50Z</time>
      </trkpt>
      <trkpt lat="44.4114" lon="6.79063">
        <ele>1864.29</ele>
        <time>2022-10-08T14:39:51Z</time>
      </trkpt>
      <trkpt lat="44.41144" lon="6.79074">
        <ele>1864.29</ele>
        <time>2022-10-08T14:39:52Z</time>
      </trkpt>
      <trkpt lat="44.41148" lon="6.79085">
        <ele>1864.29</ele>
        <time>2022-10-08T14:39:53Z</time>
      </trkpt>
      <trkpt lat="44.41152" lon="6.79095">
        <ele>1864.34</ele>
        <time>2022-10-08T14:39:54Z</time>
      </trkpt>
      <trkpt lat="44.41157" lon="6.79105">
        <ele>1864.36</ele>
        <time>2022-10-08T14:39:55Z</time>
      </trkpt>
      <trkpt lat="44.41164" lon="6.79114">
        <ele>1864.34</ele>
        <time>2022-10-08T14:39:56Z</time>
      </trkpt>
      <trkpt lat="44.41172" lon="6.79121">
        <ele>1864.34</ele>
        <time>2022-10-08T14:39:57Z</time>
      </trkpt>
      <trkpt lat="44.41218" lon="6.79166">
        <ele>1864.36</ele>
        <time>2022-10-08T14:40:04Z</time>
      </trkpt>
      <trkpt lat="44.41221" lon="6.79175">
        <ele>1864.36</ele>
        <time>2022-10-08T14:40:05Z</time>
      </trkpt>
      <trkpt lat="44.41224" lon="6.79183">
        <ele>1864.36</ele>
        <time>2022-10-08T14:40:06Z</time>
      </trkpt>
      <trkpt lat="44.41225" lon="6.79191">
        <ele>1864.36</ele>
        <time>2022-10-08T14:40:07Z</time>
      </trkpt>
      <trkpt lat="44.41226" lon="6.792">
        <ele>1864.35</ele>
        <time>2022-10-08T14:40:08Z</time>
      </trkpt>
      <trkpt lat="44.41225" lon="6.7921">
        <ele>1864.35</ele>
        <time>2022-10-08T14:40:09Z</time>
      </trkpt>
      <trkpt lat="44.41226" lon="6.7922">
        <ele>1864.38</ele>
        <time>2022-10-08T14:40:10Z</time>
      </trkpt>
      <trkpt lat="44.41228" lon="6.79231">
        <ele>1864.38</ele>
        <time>2022-10-08T14:40:11Z</time>
      </trkpt>
      <trkpt lat="44.41231" lon="6.79242">
        <ele>1864.36</ele>
        <time>2022-10-08T14:40:12Z</time>
      </trkpt>
      <trkpt lat="44.41235" lon="6.79254">
        <ele>1864.37</ele>
        <time>2022-10-08T14:40:13Z</time>
      </trkpt>
      <trkpt lat="44.41243" lon="6.79264">
        <ele>1864.36</ele>
        <time>2022-10-08T14:40:14Z</time>
      </trkpt>
      <trkpt lat="44.41252" lon="6.79274">
        <ele>1864.37</ele>
        <time>2022-10-08T14:40:15Z</time>
      </trkpt>
      <trkpt lat="44.41261" lon="6.79283">
        <ele>1864.4</ele>
        <time>2022-10-08T14:40:16Z</time>
      </trkpt>
      <trkpt lat="44.41272" lon="6.79289">
        <ele>1864.41</ele>
        <time>2022-10-08T14:40:17Z</time>
      </trkpt>
      <trkpt lat="44.41284" lon="6.79293">
        <ele>1865.33</ele>
        <time>2022-10-08T14:40:18Z</time>
      </trkpt>
      <trkpt lat="44.41297" lon="6.79296">
        <ele>1865.33</ele>
        <time>2022-10-08T14:40:19Z</time>
      </trkpt>
      <trkpt lat="44.41415" lon="6.7931">
        <ele>1866.11</ele>
        <time>2022-10-08T14:40:29Z</time>
      </trkpt>
      <trkpt lat="44.41424" lon="6.79313">
        <ele>1866.12</ele>
        <time>2022-10-08T14:40:30Z</time>
      </trkpt>
      <trkpt lat="44.41431" lon="6.79319">
        <ele>1866.13</ele>
        <time>2022-10-08T14:40:31Z</time>
      </trkpt>
      <trkpt lat="44.41437" lon="6.79326">
        <ele>1866.13</ele>
        <time>2022-10-08T14:40:32Z</time>
      </trkpt>
      <trkpt lat="44.41442" lon="6.79334">
        <ele>1866.13</ele>
        <time>2022-10-08T14:40:33Z</time>
      </trkpt>
      <trkpt lat="44.41446" lon="6.79342">
        <ele>1866.13</ele>
        <time>2022-10-08T14:40:34Z</time>
      </trkpt>
      <trkpt lat="44.41449" lon="6.79351">
        <ele>1866.12</ele>
        <time>2022-10-08T14:40:35Z</time>
      </trkpt>
      <trkpt lat="44.41451" lon="6.7936">
        <ele>1866.11</ele>
        <time>2022-10-08T14:40:36Z</time>
      </trkpt>
      <trkpt lat="44.41454" lon="6.79369">
        <ele>1866.11</ele>
        <time>2022-10-08T14:40:37Z</time>
      </trkpt>
      <trkpt lat="44.41454" lon="6.7938">
        <ele>1866.11</ele>
        <time>2022-10-08T14:40:38Z</time>
      </trkpt>
      <trkpt lat="44.41459" lon="6.79482">
        <ele>1866.11</ele>
        <time>2022-10-08T14:40:45Z</time>
      </trkpt>
      <trkpt lat="44.41457" lon="6.79496">
        <ele>1866.12</ele>
        <time>2022-10-08T14:40:46Z</time>
      </trkpt>
      <trkpt lat="44.4145" lon="6.79524">
        <ele>1866.13</ele>
        <time>2022-10-08T14:40:48Z</time>
      </trkpt>
      <trkpt lat="44.41434" lon="6.79571">
        <ele>1867.11</ele>
        <time>2022-10-08T14:40:51Z</time>
      </trkpt>
      <trkpt lat="44.41431" lon="6.79587">
        <ele>1867.09</ele>
        <time>2022-10-08T14:40:52Z</time>
      </trkpt>
      <trkpt lat="44.41428" lon="6.79602">
        <ele>1867.06</ele>
        <time>2022-10-08T14:40:53Z</time>
      </trkpt>
      <trkpt lat="44.41424" lon="6.79616">
        <ele>1867.06</ele>
        <time>2022-10-08T14:40:54Z</time>
      </trkpt>
      <trkpt lat="44.41419" lon="6.79629">
        <ele>1867.06</ele>
        <time>2022-10-08T14:40:55Z</time>
      </trkpt>
      <trkpt lat="44.41413" lon="6.79642">
        <ele>1867.08</ele>
        <time>2022-10-08T14:40:56Z</time>
      </trkpt>
      <trkpt lat="44.41406" lon="6.79655">
        <ele>1867.08</ele>
        <time>2022-10-08T14:40:57Z</time>
      </trkpt>
      <trkpt lat="44.414" lon="6.79667">
        <ele>1867.08</ele>
        <time>2022-10-08T14:40:58Z</time>
      </trkpt>
      <trkpt lat="44.41395" lon="6.79679">
        <ele>1867.06</ele>
        <time>2022-10-08T14:40:59Z</time>
      </trkpt>
      <trkpt lat="44.41392" lon="6.7969">
        <ele>1867.04</ele>
        <time>2022-10-08T14:41:00Z</time>
      </trkpt>
      <trkpt lat="44.41391" lon="6.79702">
        <ele>1867.03</ele>
        <time>2022-10-08T14:41:01Z</time>
      </trkpt>
      <trkpt lat="44.41391" lon="6.79714">
        <ele>1867.03</ele>
        <time>2022-10-08T14:41:02Z</time>
      </trkpt>
      <trkpt lat="44.41394" lon="6.79728">
        <ele>1867.04</ele>
        <time>2022-10-08T14:41:03Z</time>
      </trkpt>
      <trkpt lat="44.41397" lon="6.79742">
        <ele>1867.04</ele>
        <time>2022-10-08T14:41:04Z</time>
      </trkpt>
      <trkpt lat="44.414" lon="6.79754">
        <ele>1867.02</ele>
        <time>2022-10-08T14:41:05Z</time>
      </trkpt>
      <trkpt lat="44.41405" lon="6.79778">
        <ele>1866.99</ele>
        <time>2022-10-08T14:41:07Z</time>
      </trkpt>
      <trkpt lat="44.41406" lon="6.79788">
        <ele>1866.99</ele>
        <time>2022-10-08T14:41:08Z</time>
      </trkpt>
      <trkpt lat="44.41408" lon="6.79849">
        <ele>1866.96</ele>
        <time>2022-10-08T14:41:13Z</time>
      </trkpt>
      <trkpt lat="44.41406" lon="6.79872">
        <ele>1867</ele>
        <time>2022-10-08T14:41:15Z</time>
      </trkpt>
      <trkpt lat="44.41395" lon="6.79947">
        <ele>1867.09</ele>
        <time>2022-10-08T14:41:20Z</time>
      </trkpt>
      <trkpt lat="44.41394" lon="6.79962">
        <ele>1867.09</ele>
        <time>2022-10-08T14:41:21Z</time>
      </trkpt>
      <trkpt lat="44.41396" lon="6.79977">
        <ele>1867.1</ele>
        <time>2022-10-08T14:41:22Z</time>
      </trkpt>
      <trkpt lat="44.414" lon="6.79991">
        <ele>1867.11</ele>
        <time>2022-10-08T14:41:23Z</time>
      </trkpt>
      <trkpt lat="44.41405" lon="6.80003">
        <ele>1867.11</ele>
        <time>2022-10-08T14:41:24Z</time>
      </trkpt>
      <trkpt lat="44.4141" lon="6.80014">
        <ele>1867.11</ele>
        <time>2022-10-08T14:41:25Z</time>
      </trkpt>
      <trkpt lat="44.41419" lon="6.80037">
        <ele>1867.15</ele>
        <time>2022-10-08T14:41:27Z</time>
      </trkpt>
      <trkpt lat="44.41444" lon="6.80124">
        <ele>1867.25</ele>
        <time>2022-10-08T14:41:33Z</time>
      </trkpt>
      <trkpt lat="44.41446" lon="6.80139">
        <ele>1867.24</ele>
        <time>2022-10-08T14:41:34Z</time>
      </trkpt>
      <trkpt lat="44.41445" lon="6.80302">
        <ele>1868.08</ele>
        <time>2022-10-08T14:41:43Z</time>
      </trkpt>
      <trkpt lat="44.41436" lon="6.80375">
        <ele>1868.09</ele>
        <time>2022-10-08T14:41:48Z</time>
      </trkpt>
      <trkpt lat="44.41433" lon="6.80384">
        <ele>1868.07</ele>
        <time>2022-10-08T14:41:49Z</time>
      </trkpt>
      <trkpt lat="44.41428" lon="6.80393">
        <ele>1868.04</ele>
        <time>2022-10-08T14:41:50Z</time>
      </trkpt>
      <trkpt lat="44.41421" lon="6.80403">
        <ele>1868.05</ele>
        <time>2022-10-08T14:41:51Z</time>
      </trkpt>
      <trkpt lat="44.41415" lon="6.80414">
        <ele>1868.1</ele>
        <time>2022-10-08T14:41:52Z</time>
      </trkpt>
      <trkpt lat="44.41409" lon="6.80427">
        <ele>1868.11</ele>
        <time>2022-10-08T14:41:53Z</time>
      </trkpt>
      <trkpt lat="44.41403" lon="6.80441">
        <ele>1868.16</ele>
        <time>2022-10-08T14:41:54Z</time>
      </trkpt>
      <trkpt lat="44.41379" lon="6.8051">
        <ele>1869.1</ele>
        <time>2022-10-08T14:41:59Z</time>
      </trkpt>
      <trkpt lat="44.41372" lon="6.80521">
        <ele>1869.13</ele>
        <time>2022-10-08T14:42:00Z</time>
      </trkpt>
      <trkpt lat="44.41317" lon="6.80609">
        <ele>1869.17</ele>
        <time>2022-10-08T14:42:07Z</time>
      </trkpt>
      <trkpt lat="44.41313" lon="6.80621">
        <ele>1869.18</ele>
        <time>2022-10-08T14:42:08Z</time>
      </trkpt>
      <trkpt lat="44.4131" lon="6.80633">
        <ele>1869.09</ele>
        <time>2022-10-08T14:42:09Z</time>
      </trkpt>
      <trkpt lat="44.41307" lon="6.80643">
        <ele>1869.1</ele>
        <time>2022-10-08T14:42:10Z</time>
      </trkpt>
      <trkpt lat="44.41303" lon="6.80651">
        <ele>1869.1</ele>
        <time>2022-10-08T14:42:11Z</time>
      </trkpt>
      <trkpt lat="44.41298" lon="6.80657">
        <ele>1869.11</ele>
        <time>2022-10-08T14:42:12Z</time>
      </trkpt>
      <trkpt lat="44.41292" lon="6.80662">
        <ele>1869.1</ele>
        <time>2022-10-08T14:42:13Z</time>
      </trkpt>
      <trkpt lat="44.41285" lon="6.80666">
        <ele>1869.1</ele>
        <time>2022-10-08T14:42:14Z</time>
      </trkpt>
      <trkpt lat="44.41277" lon="6.80668">
        <ele>1869.11</ele>
        <time>2022-10-08T14:42:15Z</time>
      </trkpt>
      <trkpt lat="44.41268" lon="6.80668">
        <ele>1869.11</ele>
        <time>2022-10-08T14:42:16Z</time>
      </trkpt>
      <trkpt lat="44.41259" lon="6.80666">
        <ele>1869.11</ele>
        <time>2022-10-08T14:42:17Z</time>
      </trkpt>
      <trkpt lat="44.41251" lon="6.80662">
        <ele>1869.12</ele>
        <time>2022-10-08T14:42:18Z</time>
      </trkpt>
      <trkpt lat="44.41244" lon="6.80661">
        <ele>1869.13</ele>
        <time>2022-10-08T14:42:19Z</time>
      </trkpt>
      <trkpt lat="44.41236" lon="6.8066">
        <ele>1869.13</ele>
        <time>2022-10-08T14:42:20Z</time>
      </trkpt>
      <trkpt lat="44.41231" lon="6.80665">
        <ele>1869.13</ele>
        <time>2022-10-08T14:42:21Z</time>
      </trkpt>
      <trkpt lat="44.41227" lon="6.80673">
        <ele>1869.12</ele>
        <time>2022-10-08T14:42:22Z</time>
      </trkpt>
      <trkpt lat="44.41225" lon="6.80682">
        <ele>1869.14</ele>
        <time>2022-10-08T14:42:23Z</time>
      </trkpt>
      <trkpt lat="44.41225" lon="6.80692">
        <ele>1869.14</ele>
        <time>2022-10-08T14:42:24Z</time>
      </trkpt>
      <trkpt lat="44.41224" lon="6.80703">
        <ele>1869.16</ele>
        <time>2022-10-08T14:42:25Z</time>
      </trkpt>
      <trkpt lat="44.41224" lon="6.80713">
        <ele>1869.14</ele>
        <time>2022-10-08T14:42:26Z</time>
      </trkpt>
      <trkpt lat="44.41222" lon="6.80722">
        <ele>1870.14</ele>
        <time>2022-10-08T14:42:27Z</time>
      </trkpt>
      <trkpt lat="44.4122" lon="6.80733">
        <ele>1870.18</ele>
        <time>2022-10-08T14:42:28Z</time>
      </trkpt>
      <trkpt lat="44.41216" lon="6.80745">
        <ele>1870.18</ele>
        <time>2022-10-08T14:42:29Z</time>
      </trkpt>
      <trkpt lat="44.41211" lon="6.80758">
        <ele>1870.19</ele>
        <time>2022-10-08T14:42:30Z</time>
      </trkpt>
      <trkpt lat="44.41207" lon="6.8077">
        <ele>1870.15</ele>
        <time>2022-10-08T14:42:31Z</time>
      </trkpt>
      <trkpt lat="44.41203" lon="6.80783">
        <ele>1870.2</ele>
        <time>2022-10-08T14:42:32Z</time>
      </trkpt>
      <trkpt lat="44.41198" lon="6.80794">
        <ele>1870.21</ele>
        <time>2022-10-08T14:42:33Z</time>
      </trkpt>
      <trkpt lat="44.41193" lon="6.80805">
        <ele>1871.09</ele>
        <time>2022-10-08T14:42:34Z</time>
      </trkpt>
      <trkpt lat="44.41186" lon="6.80815">
        <ele>1870.95</ele>
        <time>2022-10-08T14:42:35Z</time>
      </trkpt>
      <trkpt lat="44.41178" lon="6.80826">
        <ele>1870.95</ele>
        <time>2022-10-08T14:42:36Z</time>
      </trkpt>
      <trkpt lat="44.41169" lon="6.80836">
        <ele>1870.96</ele>
        <time>2022-10-08T14:42:37Z</time>
      </trkpt>
      <trkpt lat="44.4116" lon="6.80846">
        <ele>1870.96</ele>
        <time>2022-10-08T14:42:38Z</time>
      </trkpt>
      <trkpt lat="44.41127" lon="6.80878">
        <ele>1872.42</ele>
        <time>2022-10-08T14:42:41Z</time>
      </trkpt>
      <trkpt lat="44.41101" lon="6.8091">
        <ele>1873.34</ele>
        <time>2022-10-08T14:42:44Z</time>
      </trkpt>
      <trkpt lat="44.41096" lon="6.8092">
        <ele>1873.36</ele>
        <time>2022-10-08T14:42:45Z</time>
      </trkpt>
      <trkpt lat="44.41093" lon="6.80931">
        <ele>1873.35</ele>
        <time>2022-10-08T14:42:46Z</time>
      </trkpt>
      <trkpt lat="44.4109" lon="6.8094">
        <ele>1873.35</ele>
        <time>2022-10-08T14:42:47Z</time>
      </trkpt>
      <trkpt lat="44.41087" lon="6.80949">
        <ele>1873.37</ele>
        <time>2022-10-08T14:42:48Z</time>
      </trkpt>
      <trkpt lat="44.41082" lon="6.80958">
        <ele>1873.36</ele>
        <time>2022-10-08T14:42:49Z</time>
      </trkpt>
      <trkpt lat="44.41076" lon="6.80968">
        <ele>1873.33</ele>
        <time>2022-10-08T14:42:50Z</time>
      </trkpt>
      <trkpt lat="44.41062" lon="6.81001">
        <ele>1873.34</ele>
        <time>2022-10-08T14:42:53Z</time>
      </trkpt>
      <trkpt lat="44.41059" lon="6.81013">
        <ele>1873.27</ele>
        <time>2022-10-08T14:42:54Z</time>
      </trkpt>
      <trkpt lat="44.41057" lon="6.81026">
        <ele>1873.23</ele>
        <time>2022-10-08T14:42:55Z</time>
      </trkpt>
      <trkpt lat="44.41056" lon="6.81039">
        <ele>1873.27</ele>
        <time>2022-10-08T14:42:56Z</time>
      </trkpt>
      <trkpt lat="44.41055" lon="6.81052">
        <ele>1870.88</ele>
        <time>2022-10-08T14:42:57Z</time>
      </trkpt>
      <trkpt lat="44.41054" lon="6.81065">
        <ele>1870.92</ele>
        <time>2022-10-08T14:42:58Z</time>
      </trkpt>
      <trkpt lat="44.41053" lon="6.81075">
        <ele>1870.86</ele>
        <time>2022-10-08T14:42:59Z</time>
      </trkpt>
      <trkpt lat="44.41051" lon="6.81085">
        <ele>1870.85</ele>
        <time>2022-10-08T14:43:00Z</time>
      </trkpt>
      <trkpt lat="44.41048" lon="6.81092">
        <ele>1870.84</ele>
        <time>2022-10-08T14:43:01Z</time>
      </trkpt>
      <trkpt lat="44.41045" lon="6.81098">
        <ele>1870.83</ele>
        <time>2022-10-08T14:43:02Z</time>
      </trkpt>
      <trkpt lat="44.41041" lon="6.81103">
        <ele>1869.99</ele>
        <time>2022-10-08T14:43:03Z</time>
      </trkpt>
      <trkpt lat="44.41035" lon="6.81106">
        <ele>1869.99</ele>
        <time>2022-10-08T14:43:04Z</time>
      </trkpt>
      <trkpt lat="44.41029" lon="6.81109">
        <ele>1869.97</ele>
        <time>2022-10-08T14:43:05Z</time>
      </trkpt>
      <trkpt lat="44.41023" lon="6.81113">
        <ele>1869.97</ele>
        <time>2022-10-08T14:43:06Z</time>
      </trkpt>
      <trkpt lat="44.41018" lon="6.81118">
        <ele>1869.97</ele>
        <time>2022-10-08T14:43:07Z</time>
      </trkpt>
      <trkpt lat="44.41013" lon="6.81124">
        <ele>1869.99</ele>
        <time>2022-10-08T14:43:08Z</time>
      </trkpt>
      <trkpt lat="44.4101" lon="6.81132">
        <ele>1870.02</ele>
        <time>2022-10-08T14:43:09Z</time>
      </trkpt>
      <trkpt lat="44.41008" lon="6.8114">
        <ele>1870.03</ele>
        <time>2022-10-08T14:43:10Z</time>
      </trkpt>
      <trkpt lat="44.41008" lon="6.8115">
        <ele>1870.03</ele>
        <time>2022-10-08T14:43:11Z</time>
      </trkpt>
      <trkpt lat="44.41007" lon="6.8116">
        <ele>1870.03</ele>
        <time>2022-10-08T14:43:12Z</time>
      </trkpt>
      <trkpt lat="44.41006" lon="6.8117">
        <ele>1870.04</ele>
        <time>2022-10-08T14:43:13Z</time>
      </trkpt>
      <trkpt lat="44.41004" lon="6.81181">
        <ele>1870.03</ele>
        <time>2022-10-08T14:43:14Z</time>
      </trkpt>
      <trkpt lat="44.41001" lon="6.81192">
        <ele>1870.03</ele>
        <time>2022-10-08T14:43:15Z</time>
      </trkpt>
      <trkpt lat="44.40996" lon="6.81202">
        <ele>1870.03</ele>
        <time>2022-10-08T14:43:16Z</time>
      </trkpt>
      <trkpt lat="44.4099" lon="6.81213">
        <ele>1870.05</ele>
        <time>2022-10-08T14:43:17Z</time>
      </trkpt>
      <trkpt lat="44.40982" lon="6.81224">
        <ele>1873.04</ele>
        <time>2022-10-08T14:43:18Z</time>
      </trkpt>
      <trkpt lat="44.40972" lon="6.81235">
        <ele>1873.08</ele>
        <time>2022-10-08T14:43:19Z</time>
      </trkpt>
      <trkpt lat="44.40962" lon="6.81246">
        <ele>1873.08</ele>
        <time>2022-10-08T14:43:20Z</time>
      </trkpt>
      <trkpt lat="44.40954" lon="6.81258">
        <ele>1873.09</ele>
        <time>2022-10-08T14:43:21Z</time>
      </trkpt>
      <trkpt lat="44.40947" lon="6.8127">
        <ele>1873.95</ele>
        <time>2022-10-08T14:43:22Z</time>
      </trkpt>
      <trkpt lat="44.40942" lon="6.81282">
        <ele>1873.83</ele>
        <time>2022-10-08T14:43:23Z</time>
      </trkpt>
      <trkpt lat="44.40937" lon="6.81294">
        <ele>1873.83</ele>
        <time>2022-10-08T14:43:24Z</time>
      </trkpt>
      <trkpt lat="44.40933" lon="6.81304">
        <ele>1873.84</ele>
        <time>2022-10-08T14:43:25Z</time>
      </trkpt>
      <trkpt lat="44.40927" lon="6.81314">
        <ele>1873.84</ele>
        <time>2022-10-08T14:43:26Z</time>
      </trkpt>
      <trkpt lat="44.409" lon="6.81358">
        <ele>1873.85</ele>
        <time>2022-10-08T14:43:31Z</time>
      </trkpt>
      <trkpt lat="44.40896" lon="6.81367">
        <ele>1873.86</ele>
        <time>2022-10-08T14:43:32Z</time>
      </trkpt>
      <trkpt lat="44.4085" lon="6.81456">
        <ele>1873.88</ele>
        <time>2022-10-08T14:43:40Z</time>
      </trkpt>
      <trkpt lat="44.40844" lon="6.81466">
        <ele>1873.89</ele>
        <time>2022-10-08T14:43:41Z</time>
      </trkpt>
      <trkpt lat="44.40839" lon="6.81476">
        <ele>1873.93</ele>
        <time>2022-10-08T14:43:42Z</time>
      </trkpt>
      <trkpt lat="44.40835" lon="6.81486">
        <ele>1873.93</ele>
        <time>2022-10-08T14:43:43Z</time>
      </trkpt>
      <trkpt lat="44.40811" lon="6.8155">
        <ele>1873.97</ele>
        <time>2022-10-08T14:43:49Z</time>
      </trkpt>
      <trkpt lat="44.40808" lon="6.8156">
        <ele>1873.98</ele>
        <time>2022-10-08T14:43:50Z</time>
      </trkpt>
      <trkpt lat="44.40807" lon="6.81569">
        <ele>1873.99</ele>
        <time>2022-10-08T14:43:51Z</time>
      </trkpt>
      <trkpt lat="44.40806" lon="6.81579">
        <ele>1874</ele>
        <time>2022-10-08T14:43:52Z</time>
      </trkpt>
      <trkpt lat="44.40805" lon="6.81589">
        <ele>1873.99</ele>
        <time>2022-10-08T14:43:53Z</time>
      </trkpt>
      <trkpt lat="44.40803" lon="6.81615">
        <ele>1873.99</ele>
        <time>2022-10-08T14:43:56Z</time>
      </trkpt>
      <trkpt lat="44.40802" lon="6.81624">
        <ele>1873.98</ele>
        <time>2022-10-08T14:43:57Z</time>
      </trkpt>
      <trkpt lat="44.40801" lon="6.81633">
        <ele>1873.99</ele>
        <time>2022-10-08T14:43:58Z</time>
      </trkpt>
      <trkpt lat="44.40799" lon="6.81643">
        <ele>1874</ele>
        <time>2022-10-08T14:43:59Z</time>
      </trkpt>
      <trkpt lat="44.40797" lon="6.81654">
        <ele>1873.99</ele>
        <time>2022-10-08T14:44:00Z</time>
      </trkpt>
      <trkpt lat="44.40794" lon="6.81666">
        <ele>1874</ele>
        <time>2022-10-08T14:44:01Z</time>
      </trkpt>
      <trkpt lat="44.40781" lon="6.81698">
        <ele>1874.06</ele>
        <time>2022-10-08T14:44:04Z</time>
      </trkpt>
      <trkpt lat="44.40768" lon="6.81716">
        <ele>1874.07</ele>
        <time>2022-10-08T14:44:06Z</time>
      </trkpt>
      <trkpt lat="44.40761" lon="6.81724">
        <ele>1874.08</ele>
        <time>2022-10-08T14:44:07Z</time>
      </trkpt>
      <trkpt lat="44.40756" lon="6.81733">
        <ele>1874.08</ele>
        <time>2022-10-08T14:44:08Z</time>
      </trkpt>
      <trkpt lat="44.40753" lon="6.81742">
        <ele>1874.09</ele>
        <time>2022-10-08T14:44:09Z</time>
      </trkpt>
      <trkpt lat="44.4075" lon="6.81753">
        <ele>1874.07</ele>
        <time>2022-10-08T14:44:10Z</time>
      </trkpt>
      <trkpt lat="44.40749" lon="6.81766">
        <ele>1874.1</ele>
        <time>2022-10-08T14:44:11Z</time>
      </trkpt>
      <trkpt lat="44.40748" lon="6.81779">
        <ele>1874.09</ele>
        <time>2022-10-08T14:44:12Z</time>
      </trkpt>
      <trkpt lat="44.40749" lon="6.81793">
        <ele>1874.1</ele>
        <time>2022-10-08T14:44:13Z</time>
      </trkpt>
      <trkpt lat="44.4075" lon="6.81806">
        <ele>1874.11</ele>
        <time>2022-10-08T14:44:14Z</time>
      </trkpt>
      <trkpt lat="44.4075" lon="6.81819">
        <ele>1874.12</ele>
        <time>2022-10-08T14:44:15Z</time>
      </trkpt>
      <trkpt lat="44.40748" lon="6.81831">
        <ele>1874.12</ele>
        <time>2022-10-08T14:44:16Z</time>
      </trkpt>
      <trkpt lat="44.40746" lon="6.81844">
        <ele>1874.16</ele>
        <time>2022-10-08T14:44:17Z</time>
      </trkpt>
      <trkpt lat="44.4074" lon="6.8187">
        <ele>1875.49</ele>
        <time>2022-10-08T14:44:19Z</time>
      </trkpt>
      <trkpt lat="44.40736" lon="6.81891">
        <ele>1877.23</ele>
        <time>2022-10-08T14:44:21Z</time>
      </trkpt>
      <trkpt lat="44.40732" lon="6.81899">
        <ele>1877.25</ele>
        <time>2022-10-08T14:44:22Z</time>
      </trkpt>
      <trkpt lat="44.40728" lon="6.81907">
        <ele>1878.36</ele>
        <time>2022-10-08T14:44:23Z</time>
      </trkpt>
      <trkpt lat="44.40722" lon="6.81916">
        <ele>1878.36</ele>
        <time>2022-10-08T14:44:24Z</time>
      </trkpt>
      <trkpt lat="44.40715" lon="6.81924">
        <ele>1878.39</ele>
        <time>2022-10-08T14:44:25Z</time>
      </trkpt>
      <trkpt lat="44.40707" lon="6.81932">
        <ele>1878.39</ele>
        <time>2022-10-08T14:44:26Z</time>
      </trkpt>
      <trkpt lat="44.40683" lon="6.81954">
        <ele>1878.42</ele>
        <time>2022-10-08T14:44:29Z</time>
      </trkpt>
      <trkpt lat="44.40648" lon="6.81987">
        <ele>1875.59</ele>
        <time>2022-10-08T14:44:33Z</time>
      </trkpt>
      <trkpt lat="44.40623" lon="6.82019">
        <ele>1875.54</ele>
        <time>2022-10-08T14:44:36Z</time>
      </trkpt>
      <trkpt lat="44.40537" lon="6.82151">
        <ele>1875.58</ele>
        <time>2022-10-08T14:44:47Z</time>
      </trkpt>
      <trkpt lat="44.40529" lon="6.82158">
        <ele>1875.59</ele>
        <time>2022-10-08T14:44:48Z</time>
      </trkpt>
      <trkpt lat="44.40507" lon="6.82182">
        <ele>1875.62</ele>
        <time>2022-10-08T14:44:51Z</time>
      </trkpt>
      <trkpt lat="44.40503" lon="6.82194">
        <ele>1875.62</ele>
        <time>2022-10-08T14:44:52Z</time>
      </trkpt>
      <trkpt lat="44.40497" lon="6.82222">
        <ele>1875.63</ele>
        <time>2022-10-08T14:44:54Z</time>
      </trkpt>
      <trkpt lat="44.40493" lon="6.82236">
        <ele>1875.65</ele>
        <time>2022-10-08T14:44:55Z</time>
      </trkpt>
      <trkpt lat="44.40488" lon="6.8225">
        <ele>1875.67</ele>
        <time>2022-10-08T14:44:56Z</time>
      </trkpt>
      <trkpt lat="44.40458" lon="6.82322">
        <ele>1875.73</ele>
        <time>2022-10-08T14:45:01Z</time>
      </trkpt>
      <trkpt lat="44.40427" lon="6.82382">
        <ele>1875.68</ele>
        <time>2022-10-08T14:45:06Z</time>
      </trkpt>
      <trkpt lat="44.40419" lon="6.82389">
        <ele>1875.75</ele>
        <time>2022-10-08T14:45:07Z</time>
      </trkpt>
      <trkpt lat="44.40412" lon="6.82396">
        <ele>1875.69</ele>
        <time>2022-10-08T14:45:08Z</time>
      </trkpt>
      <trkpt lat="44.40405" lon="6.82403">
        <ele>1875.68</ele>
        <time>2022-10-08T14:45:09Z</time>
      </trkpt>
      <trkpt lat="44.40399" lon="6.82412">
        <ele>1875.69</ele>
        <time>2022-10-08T14:45:10Z</time>
      </trkpt>
      <trkpt lat="44.40393" lon="6.82422">
        <ele>1875.69</ele>
        <time>2022-10-08T14:45:11Z</time>
      </trkpt>
      <trkpt lat="44.40387" lon="6.82433">
        <ele>1875.7</ele>
        <time>2022-10-08T14:45:12Z</time>
      </trkpt>
      <trkpt lat="44.40381" lon="6.82443">
        <ele>1875.71</ele>
        <time>2022-10-08T14:45:13Z</time>
      </trkpt>
      <trkpt lat="44.40349" lon="6.8248">
        <ele>1875.7</ele>
        <time>2022-10-08T14:45:17Z</time>
      </trkpt>
      <trkpt lat="44.40339" lon="6.82487">
        <ele>1875.7</ele>
        <time>2022-10-08T14:45:18Z</time>
      </trkpt>
      <trkpt lat="44.40329" lon="6.82494">
        <ele>1875.72</ele>
        <time>2022-10-08T14:45:19Z</time>
      </trkpt>
      <trkpt lat="44.40303" lon="6.82513">
        <ele>1875.72</ele>
        <time>2022-10-08T14:45:22Z</time>
      </trkpt>
      <trkpt lat="44.40296" lon="6.82514">
        <ele>1875.72</ele>
        <time>2022-10-08T14:45:23Z</time>
      </trkpt>
      <trkpt lat="44.4029" lon="6.82513">
        <ele>1875.72</ele>
        <time>2022-10-08T14:45:24Z</time>
      </trkpt>
      <trkpt lat="44.40284" lon="6.82509">
        <ele>1875.72</ele>
        <time>2022-10-08T14:45:25Z</time>
      </trkpt>
      <trkpt lat="44.40277" lon="6.82503">
        <ele>1875.75</ele>
        <time>2022-10-08T14:45:26Z</time>
      </trkpt>
      <trkpt lat="44.4027" lon="6.82498">
        <ele>1875.81</ele>
        <time>2022-10-08T14:45:27Z</time>
      </trkpt>
      <trkpt lat="44.40263" lon="6.82494">
        <ele>1875.76</ele>
        <time>2022-10-08T14:45:28Z</time>
      </trkpt>
      <trkpt lat="44.40256" lon="6.82494">
        <ele>1875.76</ele>
        <time>2022-10-08T14:45:29Z</time>
      </trkpt>
      <trkpt lat="44.40248" lon="6.82497">
        <ele>1875.76</ele>
        <time>2022-10-08T14:45:30Z</time>
      </trkpt>
      <trkpt lat="44.4024" lon="6.82501">
        <ele>1875.76</ele>
        <time>2022-10-08T14:45:31Z</time>
      </trkpt>
      <trkpt lat="44.40219" lon="6.82514">
        <ele>1875.76</ele>
        <time>2022-10-08T14:45:33Z</time>
      </trkpt>
      <trkpt lat="44.40208" lon="6.82523">
        <ele>1875.77</ele>
        <time>2022-10-08T14:45:34Z</time>
      </trkpt>
      <trkpt lat="44.40174" lon="6.8255">
        <ele>1878.34</ele>
        <time>2022-10-08T14:45:37Z</time>
      </trkpt>
      <trkpt lat="44.40083" lon="6.826">
        <ele>1879.17</ele>
        <time>2022-10-08T14:45:45Z</time>
      </trkpt>
      <trkpt lat="44.40064" lon="6.82609">
        <ele>1879.19</ele>
        <time>2022-10-08T14:45:47Z</time>
      </trkpt>
      <trkpt lat="44.40055" lon="6.82611">
        <ele>1879.19</ele>
        <time>2022-10-08T14:45:48Z</time>
      </trkpt>
      <trkpt lat="44.40047" lon="6.82612">
        <ele>1879.2</ele>
        <time>2022-10-08T14:45:49Z</time>
      </trkpt>
      <trkpt lat="44.40041" lon="6.82612">
        <ele>1879.19</ele>
        <time>2022-10-08T14:45:50Z</time>
      </trkpt>
      <trkpt lat="44.40035" lon="6.82612">
        <ele>1879.25</ele>
        <time>2022-10-08T14:45:51Z</time>
      </trkpt>
      <trkpt lat="44.40022" lon="6.82613">
        <ele>1879.08</ele>
        <time>2022-10-08T14:45:57Z</time>
      </trkpt>
      <trkpt lat="44.40021" lon="6.82613">
        <ele>1876.52</ele>
        <time>2022-10-08T14:45:59Z</time>
      </trkpt>
      <trkpt lat="44.40011" lon="6.82612">
        <ele>1876.66</ele>
        <time>2022-10-08T14:46:07Z</time>
      </trkpt>
      <trkpt lat="44.40005" lon="6.82615">
        <ele>1876.69</ele>
        <time>2022-10-08T14:46:08Z</time>
      </trkpt>
      <trkpt lat="44.3998" lon="6.82626">
        <ele>1876.7</ele>
        <time>2022-10-08T14:46:11Z</time>
      </trkpt>
      <trkpt lat="44.39905" lon="6.82649">
        <ele>1876.73</ele>
        <time>2022-10-08T14:46:19Z</time>
      </trkpt>
      <trkpt lat="44.39895" lon="6.82652">
        <ele>1876.73</ele>
        <time>2022-10-08T14:46:20Z</time>
      </trkpt>
      <trkpt lat="44.39864" lon="6.82667">
        <ele>1879.12</ele>
        <time>2022-10-08T14:46:23Z</time>
      </trkpt>
      <trkpt lat="44.39832" lon="6.82679">
        <ele>1879.01</ele>
        <time>2022-10-08T14:46:26Z</time>
      </trkpt>
      <trkpt lat="44.39822" lon="6.82684">
        <ele>1879.01</ele>
        <time>2022-10-08T14:46:27Z</time>
      </trkpt>
      <trkpt lat="44.39814" lon="6.82691">
        <ele>1879.9</ele>
        <time>2022-10-08T14:46:28Z</time>
      </trkpt>
      <trkpt lat="44.39808" lon="6.82699">
        <ele>1879.9</ele>
        <time>2022-10-08T14:46:29Z</time>
      </trkpt>
      <trkpt lat="44.39803" lon="6.82708">
        <ele>1879.9</ele>
        <time>2022-10-08T14:46:30Z</time>
      </trkpt>
      <trkpt lat="44.39797" lon="6.82718">
        <ele>1879.9</ele>
        <time>2022-10-08T14:46:31Z</time>
      </trkpt>
      <trkpt lat="44.39792" lon="6.82727">
        <ele>1879.92</ele>
        <time>2022-10-08T14:46:32Z</time>
      </trkpt>
      <trkpt lat="44.39786" lon="6.82735">
        <ele>1879.93</ele>
        <time>2022-10-08T14:46:33Z</time>
      </trkpt>
      <trkpt lat="44.39778" lon="6.82741">
        <ele>1879.93</ele>
        <time>2022-10-08T14:46:34Z</time>
      </trkpt>
      <trkpt lat="44.3977" lon="6.82745">
        <ele>1879.92</ele>
        <time>2022-10-08T14:46:35Z</time>
      </trkpt>
      <trkpt lat="44.39761" lon="6.82748">
        <ele>1879.93</ele>
        <time>2022-10-08T14:46:36Z</time>
      </trkpt>
      <trkpt lat="44.39752" lon="6.82751">
        <ele>1879.94</ele>
        <time>2022-10-08T14:46:37Z</time>
      </trkpt>
      <trkpt lat="44.39743" lon="6.82756">
        <ele>1879.94</ele>
        <time>2022-10-08T14:46:38Z</time>
      </trkpt>
      <trkpt lat="44.39734" lon="6.82764">
        <ele>1879.96</ele>
        <time>2022-10-08T14:46:39Z</time>
      </trkpt>
      <trkpt lat="44.39726" lon="6.82773">
        <ele>1879.96</ele>
        <time>2022-10-08T14:46:40Z</time>
      </trkpt>
      <trkpt lat="44.39716" lon="6.82781">
        <ele>1879.97</ele>
        <time>2022-10-08T14:46:41Z</time>
      </trkpt>
      <trkpt lat="44.39682" lon="6.82811">
        <ele>1879.99</ele>
        <time>2022-10-08T14:46:45Z</time>
      </trkpt>
      <trkpt lat="44.39673" lon="6.82816">
        <ele>1879.98</ele>
        <time>2022-10-08T14:46:46Z</time>
      </trkpt>
      <trkpt lat="44.39664" lon="6.8282">
        <ele>1879.96</ele>
        <time>2022-10-08T14:46:47Z</time>
      </trkpt>
      <trkpt lat="44.39653" lon="6.82824">
        <ele>1879.97</ele>
        <time>2022-10-08T14:46:48Z</time>
      </trkpt>
      <trkpt lat="44.39643" lon="6.82828">
        <ele>1879.98</ele>
        <time>2022-10-08T14:46:49Z</time>
      </trkpt>
      <trkpt lat="44.39633" lon="6.82835">
        <ele>1879.99</ele>
        <time>2022-10-08T14:46:50Z</time>
      </trkpt>
      <trkpt lat="44.39622" lon="6.82842">
        <ele>1879.97</ele>
        <time>2022-10-08T14:46:51Z</time>
      </trkpt>
      <trkpt lat="44.39611" lon="6.82849">
        <ele>1880.81</ele>
        <time>2022-10-08T14:46:52Z</time>
      </trkpt>
      <trkpt lat="44.39599" lon="6.82858">
        <ele>1880.82</ele>
        <time>2022-10-08T14:46:53Z</time>
      </trkpt>
      <trkpt lat="44.39588" lon="6.82868">
        <ele>1880.82</ele>
        <time>2022-10-08T14:46:54Z</time>
      </trkpt>
      <trkpt lat="44.39577" lon="6.82879">
        <ele>1880.84</ele>
        <time>2022-10-08T14:46:55Z</time>
      </trkpt>
      <trkpt lat="44.39546" lon="6.82912">
        <ele>1881.67</ele>
        <time>2022-10-08T14:46:58Z</time>
      </trkpt>
      <trkpt lat="44.39515" lon="6.82949">
        <ele>1881.66</ele>
        <time>2022-10-08T14:47:02Z</time>
      </trkpt>
      <trkpt lat="44.39506" lon="6.82954">
        <ele>1881.69</ele>
        <time>2022-10-08T14:47:03Z</time>
      </trkpt>
      <trkpt lat="44.39496" lon="6.82959">
        <ele>1881.72</ele>
        <time>2022-10-08T14:47:04Z</time>
      </trkpt>
      <trkpt lat="44.39486" lon="6.82963">
        <ele>1881.73</ele>
        <time>2022-10-08T14:47:05Z</time>
      </trkpt>
      <trkpt lat="44.39475" lon="6.82966">
        <ele>1881.77</ele>
        <time>2022-10-08T14:47:06Z</time>
      </trkpt>
      <trkpt lat="44.39453" lon="6.82975">
        <ele>1881.82</ele>
        <time>2022-10-08T14:47:08Z</time>
      </trkpt>
      <trkpt lat="44.39407" lon="6.83">
        <ele>1881.81</ele>
        <time>2022-10-08T14:47:13Z</time>
      </trkpt>
      <trkpt lat="44.39396" lon="6.83004">
        <ele>1881.81</ele>
        <time>2022-10-08T14:47:14Z</time>
      </trkpt>
      <trkpt lat="44.39294" lon="6.83041">
        <ele>1881.75</ele>
        <time>2022-10-08T14:47:23Z</time>
      </trkpt>
      <trkpt lat="44.39252" lon="6.83073">
        <ele>1881.75</ele>
        <time>2022-10-08T14:47:28Z</time>
      </trkpt>
      <trkpt lat="44.39243" lon="6.83078">
        <ele>1881.7</ele>
        <time>2022-10-08T14:47:29Z</time>
      </trkpt>
      <trkpt lat="44.39233" lon="6.83081">
        <ele>1881.76</ele>
        <time>2022-10-08T14:47:30Z</time>
      </trkpt>
      <trkpt lat="44.39222" lon="6.83081">
        <ele>1881.77</ele>
        <time>2022-10-08T14:47:31Z</time>
      </trkpt>
      <trkpt lat="44.39212" lon="6.8308">
        <ele>1881.78</ele>
        <time>2022-10-08T14:47:32Z</time>
      </trkpt>
      <trkpt lat="44.39201" lon="6.83078">
        <ele>1881.79</ele>
        <time>2022-10-08T14:47:33Z</time>
      </trkpt>
      <trkpt lat="44.39189" lon="6.83076">
        <ele>1882.96</ele>
        <time>2022-10-08T14:47:34Z</time>
      </trkpt>
      <trkpt lat="44.39177" lon="6.83076">
        <ele>1882.96</ele>
        <time>2022-10-08T14:47:35Z</time>
      </trkpt>
      <trkpt lat="44.39165" lon="6.83079">
        <ele>1882.92</ele>
        <time>2022-10-08T14:47:36Z</time>
      </trkpt>
      <trkpt lat="44.39154" lon="6.83083">
        <ele>1882.92</ele>
        <time>2022-10-08T14:47:37Z</time>
      </trkpt>
      <trkpt lat="44.39142" lon="6.83087">
        <ele>1882.95</ele>
        <time>2022-10-08T14:47:38Z</time>
      </trkpt>
      <trkpt lat="44.39082" lon="6.83105">
        <ele>1882.87</ele>
        <time>2022-10-08T14:47:43Z</time>
      </trkpt>
      <trkpt lat="44.39071" lon="6.8311">
        <ele>1882.87</ele>
        <time>2022-10-08T14:47:44Z</time>
      </trkpt>
      <trkpt lat="44.39014" lon="6.83148">
        <ele>1882.93</ele>
        <time>2022-10-08T14:47:49Z</time>
      </trkpt>
      <trkpt lat="44.38974" lon="6.83193">
        <ele>1882.95</ele>
        <time>2022-10-08T14:47:54Z</time>
      </trkpt>
      <trkpt lat="44.38967" lon="6.83198">
        <ele>1882.93</ele>
        <time>2022-10-08T14:47:55Z</time>
      </trkpt>
      <trkpt lat="44.3896" lon="6.83201">
        <ele>1882.94</ele>
        <time>2022-10-08T14:47:56Z</time>
      </trkpt>
      <trkpt lat="44.38953" lon="6.83202">
        <ele>1882.95</ele>
        <time>2022-10-08T14:47:57Z</time>
      </trkpt>
      <trkpt lat="44.38947" lon="6.83203">
        <ele>1882.87</ele>
        <time>2022-10-08T14:47:58Z</time>
      </trkpt>
      <trkpt lat="44.38941" lon="6.83203">
        <ele>1882.95</ele>
        <time>2022-10-08T14:47:59Z</time>
      </trkpt>
      <trkpt lat="44.38902" lon="6.83203">
        <ele>1884.34</ele>
        <time>2022-10-08T14:48:04Z</time>
      </trkpt>
      <trkpt lat="44.38822" lon="6.83216">
        <ele>1885.31</ele>
        <time>2022-10-08T14:48:10Z</time>
      </trkpt>
      <trkpt lat="44.38757" lon="6.83231">
        <ele>1886.41</ele>
        <time>2022-10-08T14:48:17Z</time>
      </trkpt>
      <trkpt lat="44.38752" lon="6.83232">
        <ele>1886.38</ele>
        <time>2022-10-08T14:48:18Z</time>
      </trkpt>
      <trkpt lat="44.38748" lon="6.83231">
        <ele>1887.33</ele>
        <time>2022-10-08T14:48:19Z</time>
      </trkpt>
      <trkpt lat="44.38744" lon="6.83229">
        <ele>1887.32</ele>
        <time>2022-10-08T14:48:20Z</time>
      </trkpt>
      <trkpt lat="44.3874" lon="6.83228">
        <ele>1887.34</ele>
        <time>2022-10-08T14:48:21Z</time>
      </trkpt>
      <trkpt lat="44.38736" lon="6.83227">
        <ele>1887.34</ele>
        <time>2022-10-08T14:48:22Z</time>
      </trkpt>
      <trkpt lat="44.38732" lon="6.83227">
        <ele>1887.36</ele>
        <time>2022-10-08T14:48:23Z</time>
      </trkpt>
      <trkpt lat="44.3873" lon="6.83228">
        <ele>1887.36</ele>
        <time>2022-10-08T14:48:24Z</time>
      </trkpt>
      <trkpt lat="44.3873" lon="6.83228">
        <ele>1888.09</ele>
        <time>2022-10-08T14:48:36Z</time>
      </trkpt>
      <trkpt lat="44.38735" lon="6.83234">
        <ele>1888.2</ele>
        <time>2022-10-08T14:49:00Z</time>
      </trkpt>
      <trkpt lat="44.38735" lon="6.83233">
        <ele>1892.03</ele>
        <time>2022-10-08T14:49:02Z</time>
      </trkpt>
      <trkpt lat="44.38831" lon="6.83226">
        <ele>1885.52</ele>
        <time>2022-10-08T15:12:07Z</time>
      </trkpt>
      <trkpt lat="44.38885" lon="6.8321">
        <ele>1884.83</ele>
        <time>2022-10-08T15:12:15Z</time>
      </trkpt>
      <trkpt lat="44.38959" lon="6.83204">
        <ele>1883.93</ele>
        <time>2022-10-08T15:12:25Z</time>
      </trkpt>
      <trkpt lat="44.38965" lon="6.83202">
        <ele>1883.95</ele>
        <time>2022-10-08T15:12:26Z</time>
      </trkpt>
      <trkpt lat="44.38972" lon="6.832">
        <ele>1883.99</ele>
        <time>2022-10-08T15:12:27Z</time>
      </trkpt>
      <trkpt lat="44.38978" lon="6.83197">
        <ele>1883.95</ele>
        <time>2022-10-08T15:12:28Z</time>
      </trkpt>
      <trkpt lat="44.38984" lon="6.83191">
        <ele>1883.95</ele>
        <time>2022-10-08T15:12:29Z</time>
      </trkpt>
      <trkpt lat="44.3899" lon="6.83185">
        <ele>1884</ele>
        <time>2022-10-08T15:12:30Z</time>
      </trkpt>
      <trkpt lat="44.39002" lon="6.83172">
        <ele>1883.95</ele>
        <time>2022-10-08T15:12:32Z</time>
      </trkpt>
      <trkpt lat="44.3902" lon="6.8315">
        <ele>1883.97</ele>
        <time>2022-10-08T15:12:35Z</time>
      </trkpt>
      <trkpt lat="44.39034" lon="6.83138">
        <ele>1883.97</ele>
        <time>2022-10-08T15:12:37Z</time>
      </trkpt>
      <trkpt lat="44.39072" lon="6.83111">
        <ele>1882.09</ele>
        <time>2022-10-08T15:12:42Z</time>
      </trkpt>
      <trkpt lat="44.39096" lon="6.831">
        <ele>1881.04</ele>
        <time>2022-10-08T15:12:45Z</time>
      </trkpt>
      <trkpt lat="44.39121" lon="6.83097">
        <ele>1880.16</ele>
        <time>2022-10-08T15:12:48Z</time>
      </trkpt>
      <trkpt lat="44.39129" lon="6.83094">
        <ele>1879.92</ele>
        <time>2022-10-08T15:12:49Z</time>
      </trkpt>
      <trkpt lat="44.39186" lon="6.83075">
        <ele>1878.59</ele>
        <time>2022-10-08T15:12:56Z</time>
      </trkpt>
      <trkpt lat="44.39195" lon="6.83074">
        <ele>1878.59</ele>
        <time>2022-10-08T15:12:57Z</time>
      </trkpt>
      <trkpt lat="44.39204" lon="6.83075">
        <ele>1878.53</ele>
        <time>2022-10-08T15:12:58Z</time>
      </trkpt>
      <trkpt lat="44.39254" lon="6.83074">
        <ele>1878.64</ele>
        <time>2022-10-08T15:13:04Z</time>
      </trkpt>
      <trkpt lat="44.39262" lon="6.8307">
        <ele>1878.63</ele>
        <time>2022-10-08T15:13:05Z</time>
      </trkpt>
      <trkpt lat="44.39269" lon="6.83065">
        <ele>1878.63</ele>
        <time>2022-10-08T15:13:06Z</time>
      </trkpt>
      <trkpt lat="44.39276" lon="6.83059">
        <ele>1878.67</ele>
        <time>2022-10-08T15:13:07Z</time>
      </trkpt>
      <trkpt lat="44.39282" lon="6.83054">
        <ele>1878.63</ele>
        <time>2022-10-08T15:13:08Z</time>
      </trkpt>
      <trkpt lat="44.39289" lon="6.83048">
        <ele>1878.67</ele>
        <time>2022-10-08T15:13:09Z</time>
      </trkpt>
      <trkpt lat="44.39304" lon="6.83039">
        <ele>1878.7</ele>
        <time>2022-10-08T15:13:11Z</time>
      </trkpt>
      <trkpt lat="44.39387" lon="6.83008">
        <ele>1878.68</ele>
        <time>2022-10-08T15:13:20Z</time>
      </trkpt>
      <trkpt lat="44.3943" lon="6.82996">
        <ele>1878.65</ele>
        <time>2022-10-08T15:13:25Z</time>
      </trkpt>
      <trkpt lat="44.39459" lon="6.82986">
        <ele>1876.17</ele>
        <time>2022-10-08T15:13:29Z</time>
      </trkpt>
      <trkpt lat="44.39465" lon="6.82984">
        <ele>1875.22</ele>
        <time>2022-10-08T15:13:30Z</time>
      </trkpt>
      <trkpt lat="44.39472" lon="6.82982">
        <ele>1875.21</ele>
        <time>2022-10-08T15:13:31Z</time>
      </trkpt>
      <trkpt lat="44.39478" lon="6.82981">
        <ele>1873.67</ele>
        <time>2022-10-08T15:13:32Z</time>
      </trkpt>
      <trkpt lat="44.39485" lon="6.82978">
        <ele>1873.62</ele>
        <time>2022-10-08T15:13:33Z</time>
      </trkpt>
      <trkpt lat="44.39492" lon="6.82976">
        <ele>1872.59</ele>
        <time>2022-10-08T15:13:34Z</time>
      </trkpt>
      <trkpt lat="44.39532" lon="6.82964">
        <ele>1869.46</ele>
        <time>2022-10-08T15:13:40Z</time>
      </trkpt>
      <trkpt lat="44.39538" lon="6.82961">
        <ele>1869.46</ele>
        <time>2022-10-08T15:13:41Z</time>
      </trkpt>
      <trkpt lat="44.39557" lon="6.8295">
        <ele>1867.97</ele>
        <time>2022-10-08T15:13:44Z</time>
      </trkpt>
      <trkpt lat="44.39569" lon="6.82942">
        <ele>1865.77</ele>
        <time>2022-10-08T15:13:46Z</time>
      </trkpt>
      <trkpt lat="44.39574" lon="6.82937">
        <ele>1865.8</ele>
        <time>2022-10-08T15:13:47Z</time>
      </trkpt>
      <trkpt lat="44.39593" lon="6.82917">
        <ele>1863.43</ele>
        <time>2022-10-08T15:13:50Z</time>
      </trkpt>
      <trkpt lat="44.396" lon="6.82911">
        <ele>1863.42</ele>
        <time>2022-10-08T15:13:51Z</time>
      </trkpt>
      <trkpt lat="44.39619" lon="6.82898">
        <ele>1861.6</ele>
        <time>2022-10-08T15:13:54Z</time>
      </trkpt>
      <trkpt lat="44.39624" lon="6.82892">
        <ele>1860.77</ele>
        <time>2022-10-08T15:13:55Z</time>
      </trkpt>
      <trkpt lat="44.3963" lon="6.82888">
        <ele>1859.75</ele>
        <time>2022-10-08T15:13:56Z</time>
      </trkpt>
      <trkpt lat="44.39637" lon="6.82882">
        <ele>1858.9</ele>
        <time>2022-10-08T15:13:57Z</time>
      </trkpt>
      <trkpt lat="44.39645" lon="6.82877">
        <ele>1858.9</ele>
        <time>2022-10-08T15:13:58Z</time>
      </trkpt>
      <trkpt lat="44.39652" lon="6.82871">
        <ele>1858.03</ele>
        <time>2022-10-08T15:13:59Z</time>
      </trkpt>
      <trkpt lat="44.39673" lon="6.82856">
        <ele>1857.2</ele>
        <time>2022-10-08T15:14:02Z</time>
      </trkpt>
      <trkpt lat="44.39719" lon="6.8283">
        <ele>1854.77</ele>
        <time>2022-10-08T15:14:07Z</time>
      </trkpt>
      <trkpt lat="44.39726" lon="6.82824">
        <ele>1854.74</ele>
        <time>2022-10-08T15:14:08Z</time>
      </trkpt>
      <trkpt lat="44.39735" lon="6.82818">
        <ele>1853.48</ele>
        <time>2022-10-08T15:14:09Z</time>
      </trkpt>
      <trkpt lat="44.39743" lon="6.82811">
        <ele>1853.44</ele>
        <time>2022-10-08T15:14:10Z</time>
      </trkpt>
      <trkpt lat="44.39751" lon="6.82807">
        <ele>1853.44</ele>
        <time>2022-10-08T15:14:11Z</time>
      </trkpt>
      <trkpt lat="44.39759" lon="6.82805">
        <ele>1853.46</ele>
        <time>2022-10-08T15:14:12Z</time>
      </trkpt>
      <trkpt lat="44.39826" lon="6.82776">
        <ele>1853.77</ele>
        <time>2022-10-08T15:14:20Z</time>
      </trkpt>
      <trkpt lat="44.39833" lon="6.82768">
        <ele>1853.78</ele>
        <time>2022-10-08T15:14:21Z</time>
      </trkpt>
      <trkpt lat="44.39857" lon="6.82745">
        <ele>1853.78</ele>
        <time>2022-10-08T15:14:24Z</time>
      </trkpt>
      <trkpt lat="44.39873" lon="6.82736">
        <ele>1853.78</ele>
        <time>2022-10-08T15:14:26Z</time>
      </trkpt>
      <trkpt lat="44.3988" lon="6.82733">
        <ele>1853.77</ele>
        <time>2022-10-08T15:14:27Z</time>
      </trkpt>
      <trkpt lat="44.39893" lon="6.82726">
        <ele>1852.85</ele>
        <time>2022-10-08T15:14:29Z</time>
      </trkpt>
      <trkpt lat="44.39899" lon="6.82721">
        <ele>1852.8</ele>
        <time>2022-10-08T15:14:30Z</time>
      </trkpt>
      <trkpt lat="44.3991" lon="6.82711">
        <ele>1850.92</ele>
        <time>2022-10-08T15:14:32Z</time>
      </trkpt>
      <trkpt lat="44.39917" lon="6.82709">
        <ele>1850.87</ele>
        <time>2022-10-08T15:14:33Z</time>
      </trkpt>
      <trkpt lat="44.39932" lon="6.82704">
        <ele>1849.91</ele>
        <time>2022-10-08T15:14:35Z</time>
      </trkpt>
      <trkpt lat="44.39939" lon="6.82701">
        <ele>1849.82</ele>
        <time>2022-10-08T15:14:36Z</time>
      </trkpt>
      <trkpt lat="44.39946" lon="6.82699">
        <ele>1849.81</ele>
        <time>2022-10-08T15:14:37Z</time>
      </trkpt>
      <trkpt lat="44.39953" lon="6.82697">
        <ele>1847.96</ele>
        <time>2022-10-08T15:14:38Z</time>
      </trkpt>
      <trkpt lat="44.3996" lon="6.82695">
        <ele>1847.96</ele>
        <time>2022-10-08T15:14:39Z</time>
      </trkpt>
      <trkpt lat="44.39989" lon="6.82685">
        <ele>1845.61</ele>
        <time>2022-10-08T15:14:43Z</time>
      </trkpt>
      <trkpt lat="44.40007" lon="6.8268">
        <ele>1843.66</ele>
        <time>2022-10-08T15:14:46Z</time>
      </trkpt>
      <trkpt lat="44.40014" lon="6.82682">
        <ele>1843.64</ele>
        <time>2022-10-08T15:14:47Z</time>
      </trkpt>
      <trkpt lat="44.4002" lon="6.82685">
        <ele>1842.74</ele>
        <time>2022-10-08T15:14:48Z</time>
      </trkpt>
      <trkpt lat="44.4004" lon="6.82699">
        <ele>1840.48</ele>
        <time>2022-10-08T15:14:52Z</time>
      </trkpt>
      <trkpt lat="44.40046" lon="6.82701">
        <ele>1840.37</ele>
        <time>2022-10-08T15:14:53Z</time>
      </trkpt>
      <trkpt lat="44.40058" lon="6.82705">
        <ele>1838.66</ele>
        <time>2022-10-08T15:14:55Z</time>
      </trkpt>
      <trkpt lat="44.40063" lon="6.82707">
        <ele>1837.36</ele>
        <time>2022-10-08T15:14:56Z</time>
      </trkpt>
      <trkpt lat="44.40069" lon="6.82709">
        <ele>1836.26</ele>
        <time>2022-10-08T15:14:57Z</time>
      </trkpt>
      <trkpt lat="44.40076" lon="6.8271">
        <ele>1836.25</ele>
        <time>2022-10-08T15:14:58Z</time>
      </trkpt>
      <trkpt lat="44.40098" lon="6.82714">
        <ele>1833.13</ele>
        <time>2022-10-08T15:15:01Z</time>
      </trkpt>
      <trkpt lat="44.40113" lon="6.82716">
        <ele>1832.05</ele>
        <time>2022-10-08T15:15:03Z</time>
      </trkpt>
      <trkpt lat="44.40127" lon="6.82716">
        <ele>1830.67</ele>
        <time>2022-10-08T15:15:05Z</time>
      </trkpt>
      <trkpt lat="44.40134" lon="6.82714">
        <ele>1829.74</ele>
        <time>2022-10-08T15:15:06Z</time>
      </trkpt>
      <trkpt lat="44.40148" lon="6.82709">
        <ele>1828.86</ele>
        <time>2022-10-08T15:15:08Z</time>
      </trkpt>
      <trkpt lat="44.4018" lon="6.82699">
        <ele>1826.6</ele>
        <time>2022-10-08T15:15:12Z</time>
      </trkpt>
      <trkpt lat="44.40204" lon="6.82695">
        <ele>1825.09</ele>
        <time>2022-10-08T15:15:15Z</time>
      </trkpt>
      <trkpt lat="44.40212" lon="6.82694">
        <ele>1825.1</ele>
        <time>2022-10-08T15:15:16Z</time>
      </trkpt>
      <trkpt lat="44.4022" lon="6.82696">
        <ele>1824.26</ele>
        <time>2022-10-08T15:15:17Z</time>
      </trkpt>
      <trkpt lat="44.40228" lon="6.82699">
        <ele>1824.22</ele>
        <time>2022-10-08T15:15:18Z</time>
      </trkpt>
      <trkpt lat="44.40235" lon="6.82702">
        <ele>1824.26</ele>
        <time>2022-10-08T15:15:19Z</time>
      </trkpt>
      <trkpt lat="44.40249" lon="6.82707">
        <ele>1823.2</ele>
        <time>2022-10-08T15:15:21Z</time>
      </trkpt>
      <trkpt lat="44.40255" lon="6.82708">
        <ele>1822.32</ele>
        <time>2022-10-08T15:15:22Z</time>
      </trkpt>
      <trkpt lat="44.40262" lon="6.82708">
        <ele>1822.29</ele>
        <time>2022-10-08T15:15:23Z</time>
      </trkpt>
      <trkpt lat="44.40267" lon="6.82707">
        <ele>1821.57</ele>
        <time>2022-10-08T15:15:24Z</time>
      </trkpt>
      <trkpt lat="44.40272" lon="6.82704">
        <ele>1821.2</ele>
        <time>2022-10-08T15:15:25Z</time>
      </trkpt>
      <trkpt lat="44.40278" lon="6.827">
        <ele>1821.3</ele>
        <time>2022-10-08T15:15:26Z</time>
      </trkpt>
      <trkpt lat="44.40282" lon="6.82694">
        <ele>1821.61</ele>
        <time>2022-10-08T15:15:27Z</time>
      </trkpt>
      <trkpt lat="44.40286" lon="6.82688">
        <ele>1819.64</ele>
        <time>2022-10-08T15:15:28Z</time>
      </trkpt>
      <trkpt lat="44.40292" lon="6.82682">
        <ele>1819.6</ele>
        <time>2022-10-08T15:15:29Z</time>
      </trkpt>
      <trkpt lat="44.40298" lon="6.82676">
        <ele>1818.78</ele>
        <time>2022-10-08T15:15:30Z</time>
      </trkpt>
      <trkpt lat="44.40307" lon="6.82675">
        <ele>1817.82</ele>
        <time>2022-10-08T15:15:31Z</time>
      </trkpt>
      <trkpt lat="44.40322" lon="6.82672">
        <ele>1816.94</ele>
        <time>2022-10-08T15:15:33Z</time>
      </trkpt>
      <trkpt lat="44.40329" lon="6.82672">
        <ele>1815.57</ele>
        <time>2022-10-08T15:15:34Z</time>
      </trkpt>
      <trkpt lat="44.40337" lon="6.82673">
        <ele>1815.53</ele>
        <time>2022-10-08T15:15:35Z</time>
      </trkpt>
      <trkpt lat="44.40354" lon="6.82675">
        <ele>1814.68</ele>
        <time>2022-10-08T15:15:37Z</time>
      </trkpt>
      <trkpt lat="44.40378" lon="6.82673">
        <ele>1813.53</ele>
        <time>2022-10-08T15:15:40Z</time>
      </trkpt>
      <trkpt lat="44.40385" lon="6.82672">
        <ele>1812.13</ele>
        <time>2022-10-08T15:15:41Z</time>
      </trkpt>
      <trkpt lat="44.40392" lon="6.8267">
        <ele>1812.07</ele>
        <time>2022-10-08T15:15:42Z</time>
      </trkpt>
      <trkpt lat="44.40399" lon="6.82667">
        <ele>1812.08</ele>
        <time>2022-10-08T15:15:43Z</time>
      </trkpt>
      <trkpt lat="44.40404" lon="6.82661">
        <ele>1811.21</ele>
        <time>2022-10-08T15:15:44Z</time>
      </trkpt>
      <trkpt lat="44.4041" lon="6.82656">
        <ele>1811.14</ele>
        <time>2022-10-08T15:15:45Z</time>
      </trkpt>
      <trkpt lat="44.40417" lon="6.82649">
        <ele>1810.28</ele>
        <time>2022-10-08T15:15:46Z</time>
      </trkpt>
      <trkpt lat="44.40424" lon="6.82642">
        <ele>1810.22</ele>
        <time>2022-10-08T15:15:47Z</time>
      </trkpt>
      <trkpt lat="44.40431" lon="6.82637">
        <ele>1808.88</ele>
        <time>2022-10-08T15:15:48Z</time>
      </trkpt>
      <trkpt lat="44.40439" lon="6.82631">
        <ele>1807.32</ele>
        <time>2022-10-08T15:15:49Z</time>
      </trkpt>
      <trkpt lat="44.40445" lon="6.82624">
        <ele>1807.31</ele>
        <time>2022-10-08T15:15:50Z</time>
      </trkpt>
      <trkpt lat="44.40452" lon="6.82618">
        <ele>1806.38</ele>
        <time>2022-10-08T15:15:51Z</time>
      </trkpt>
      <trkpt lat="44.4046" lon="6.82613">
        <ele>1804.64</ele>
        <time>2022-10-08T15:15:52Z</time>
      </trkpt>
      <trkpt lat="44.40466" lon="6.82607">
        <ele>1804.59</ele>
        <time>2022-10-08T15:15:53Z</time>
      </trkpt>
      <trkpt lat="44.40472" lon="6.82601">
        <ele>1802.92</ele>
        <time>2022-10-08T15:15:54Z</time>
      </trkpt>
      <trkpt lat="44.40479" lon="6.82596">
        <ele>1802.85</ele>
        <time>2022-10-08T15:15:55Z</time>
      </trkpt>
      <trkpt lat="44.40486" lon="6.82591">
        <ele>1800.89</ele>
        <time>2022-10-08T15:15:56Z</time>
      </trkpt>
      <trkpt lat="44.40493" lon="6.82588">
        <ele>1800.89</ele>
        <time>2022-10-08T15:15:57Z</time>
      </trkpt>
      <trkpt lat="44.405" lon="6.82581">
        <ele>1799.75</ele>
        <time>2022-10-08T15:15:58Z</time>
      </trkpt>
      <trkpt lat="44.40506" lon="6.82575">
        <ele>1798.82</ele>
        <time>2022-10-08T15:15:59Z</time>
      </trkpt>
      <trkpt lat="44.40512" lon="6.82569">
        <ele>1798.73</ele>
        <time>2022-10-08T15:16:00Z</time>
      </trkpt>
      <trkpt lat="44.40516" lon="6.82561">
        <ele>1797.92</ele>
        <time>2022-10-08T15:16:01Z</time>
      </trkpt>
      <trkpt lat="44.40522" lon="6.82547">
        <ele>1796.9</ele>
        <time>2022-10-08T15:16:03Z</time>
      </trkpt>
      <trkpt lat="44.40524" lon="6.82541">
        <ele>1795.72</ele>
        <time>2022-10-08T15:16:04Z</time>
      </trkpt>
      <trkpt lat="44.40526" lon="6.82533">
        <ele>1795.72</ele>
        <time>2022-10-08T15:16:05Z</time>
      </trkpt>
      <trkpt lat="44.40525" lon="6.82526">
        <ele>1794.63</ele>
        <time>2022-10-08T15:16:06Z</time>
      </trkpt>
      <trkpt lat="44.40525" lon="6.82521">
        <ele>1794.64</ele>
        <time>2022-10-08T15:16:07Z</time>
      </trkpt>
      <trkpt lat="44.40537" lon="6.82511">
        <ele>1794.12</ele>
        <time>2022-10-08T15:16:14Z</time>
      </trkpt>
      <trkpt lat="44.40541" lon="6.82509">
        <ele>1793.01</ele>
        <time>2022-10-08T15:16:21Z</time>
      </trkpt>
      <trkpt lat="44.40542" lon="6.82503">
        <ele>1792.77</ele>
        <time>2022-10-08T15:16:22Z</time>
      </trkpt>
      <trkpt lat="44.40543" lon="6.82497">
        <ele>1792.76</ele>
        <time>2022-10-08T15:16:23Z</time>
      </trkpt>
      <trkpt lat="44.40545" lon="6.82486">
        <ele>1792.72</ele>
        <time>2022-10-08T15:16:24Z</time>
      </trkpt>
      <trkpt lat="44.40547" lon="6.82475">
        <ele>1791.66</ele>
        <time>2022-10-08T15:16:25Z</time>
      </trkpt>
      <trkpt lat="44.40549" lon="6.82466">
        <ele>1790.72</ele>
        <time>2022-10-08T15:16:26Z</time>
      </trkpt>
      <trkpt lat="44.40558" lon="6.82456">
        <ele>1790.68</ele>
        <time>2022-10-08T15:16:27Z</time>
      </trkpt>
      <trkpt lat="44.40561" lon="6.82448">
        <ele>1789.84</ele>
        <time>2022-10-08T15:16:28Z</time>
      </trkpt>
      <trkpt lat="44.40567" lon="6.82439">
        <ele>1789.83</ele>
        <time>2022-10-08T15:16:29Z</time>
      </trkpt>
      <trkpt lat="44.40572" lon="6.82428">
        <ele>1789.79</ele>
        <time>2022-10-08T15:16:30Z</time>
      </trkpt>
      <trkpt lat="44.40578" lon="6.82418">
        <ele>1789.77</ele>
        <time>2022-10-08T15:16:31Z</time>
      </trkpt>
      <trkpt lat="44.40584" lon="6.82408">
        <ele>1788.59</ele>
        <time>2022-10-08T15:16:32Z</time>
      </trkpt>
      <trkpt lat="44.40595" lon="6.82392">
        <ele>1787.66</ele>
        <time>2022-10-08T15:16:34Z</time>
      </trkpt>
      <trkpt lat="44.40601" lon="6.82387">
        <ele>1787.67</ele>
        <time>2022-10-08T15:16:35Z</time>
      </trkpt>
      <trkpt lat="44.40608" lon="6.82386">
        <ele>1787.66</ele>
        <time>2022-10-08T15:16:36Z</time>
      </trkpt>
      <trkpt lat="44.40617" lon="6.82383">
        <ele>1787.59</ele>
        <time>2022-10-08T15:16:37Z</time>
      </trkpt>
      <trkpt lat="44.40629" lon="6.82378">
        <ele>1787.58</ele>
        <time>2022-10-08T15:16:38Z</time>
      </trkpt>
      <trkpt lat="44.4064" lon="6.82373">
        <ele>1787.55</ele>
        <time>2022-10-08T15:16:39Z</time>
      </trkpt>
      <trkpt lat="44.40649" lon="6.82366">
        <ele>1787.54</ele>
        <time>2022-10-08T15:16:40Z</time>
      </trkpt>
      <trkpt lat="44.40657" lon="6.82358">
        <ele>1787.55</ele>
        <time>2022-10-08T15:16:41Z</time>
      </trkpt>
      <trkpt lat="44.40664" lon="6.82349">
        <ele>1787.52</ele>
        <time>2022-10-08T15:16:42Z</time>
      </trkpt>
      <trkpt lat="44.40672" lon="6.8234">
        <ele>1787.55</ele>
        <time>2022-10-08T15:16:43Z</time>
      </trkpt>
      <trkpt lat="44.40679" lon="6.82334">
        <ele>1787.54</ele>
        <time>2022-10-08T15:16:44Z</time>
      </trkpt>
      <trkpt lat="44.40694" lon="6.82319">
        <ele>1787.56</ele>
        <time>2022-10-08T15:16:46Z</time>
      </trkpt>
      <trkpt lat="44.407" lon="6.82309">
        <ele>1787.63</ele>
        <time>2022-10-08T15:16:47Z</time>
      </trkpt>
      <trkpt lat="44.40706" lon="6.823">
        <ele>1787.52</ele>
        <time>2022-10-08T15:16:48Z</time>
      </trkpt>
      <trkpt lat="44.40712" lon="6.82291">
        <ele>1787.48</ele>
        <time>2022-10-08T15:16:49Z</time>
      </trkpt>
      <trkpt lat="44.40717" lon="6.8228">
        <ele>1785.95</ele>
        <time>2022-10-08T15:16:50Z</time>
      </trkpt>
      <trkpt lat="44.40721" lon="6.82269">
        <ele>1785.95</ele>
        <time>2022-10-08T15:16:51Z</time>
      </trkpt>
      <trkpt lat="44.40725" lon="6.82256">
        <ele>1785.94</ele>
        <time>2022-10-08T15:16:52Z</time>
      </trkpt>
      <trkpt lat="44.40745" lon="6.82199">
        <ele>1783.69</ele>
        <time>2022-10-08T15:16:56Z</time>
      </trkpt>
      <trkpt lat="44.4076" lon="6.82159">
        <ele>1781.74</ele>
        <time>2022-10-08T15:16:59Z</time>
      </trkpt>
      <trkpt lat="44.40767" lon="6.82147">
        <ele>1781.73</ele>
        <time>2022-10-08T15:17:00Z</time>
      </trkpt>
      <trkpt lat="44.40774" lon="6.82135">
        <ele>1780.82</ele>
        <time>2022-10-08T15:17:01Z</time>
      </trkpt>
      <trkpt lat="44.40781" lon="6.82122">
        <ele>1780.76</ele>
        <time>2022-10-08T15:17:02Z</time>
      </trkpt>
      <trkpt lat="44.40787" lon="6.82108">
        <ele>1779.58</ele>
        <time>2022-10-08T15:17:03Z</time>
      </trkpt>
      <trkpt lat="44.40793" lon="6.82096">
        <ele>1778.59</ele>
        <time>2022-10-08T15:17:04Z</time>
      </trkpt>
      <trkpt lat="44.408" lon="6.82084">
        <ele>1778.56</ele>
        <time>2022-10-08T15:17:05Z</time>
      </trkpt>
      <trkpt lat="44.40825" lon="6.82038">
        <ele>1777.55</ele>
        <time>2022-10-08T15:17:09Z</time>
      </trkpt>
      <trkpt lat="44.40843" lon="6.82002">
        <ele>1776.32</ele>
        <time>2022-10-08T15:17:12Z</time>
      </trkpt>
      <trkpt lat="44.40856" lon="6.81982">
        <ele>1776.74</ele>
        <time>2022-10-08T15:17:14Z</time>
      </trkpt>
      <trkpt lat="44.40864" lon="6.81976">
        <ele>1776.71</ele>
        <time>2022-10-08T15:17:15Z</time>
      </trkpt>
      <trkpt lat="44.40873" lon="6.81973">
        <ele>1775.84</ele>
        <time>2022-10-08T15:17:16Z</time>
      </trkpt>
      <trkpt lat="44.40898" lon="6.81966">
        <ele>1775.82</ele>
        <time>2022-10-08T15:17:19Z</time>
      </trkpt>
      <trkpt lat="44.40903" lon="6.81961">
        <ele>1775.83</ele>
        <time>2022-10-08T15:17:20Z</time>
      </trkpt>
      <trkpt lat="44.40907" lon="6.81953">
        <ele>1775.84</ele>
        <time>2022-10-08T15:17:21Z</time>
      </trkpt>
      <trkpt lat="44.40909" lon="6.81944">
        <ele>1775.85</ele>
        <time>2022-10-08T15:17:22Z</time>
      </trkpt>
      <trkpt lat="44.40912" lon="6.81935">
        <ele>1775.84</ele>
        <time>2022-10-08T15:17:23Z</time>
      </trkpt>
      <trkpt lat="44.40916" lon="6.81928">
        <ele>1775.85</ele>
        <time>2022-10-08T15:17:24Z</time>
      </trkpt>
      <trkpt lat="44.40921" lon="6.81924">
        <ele>1775.82</ele>
        <time>2022-10-08T15:17:25Z</time>
      </trkpt>
      <trkpt lat="44.40926" lon="6.81923">
        <ele>1775.84</ele>
        <time>2022-10-08T15:17:26Z</time>
      </trkpt>
      <trkpt lat="44.40933" lon="6.81921">
        <ele>1775.82</ele>
        <time>2022-10-08T15:17:27Z</time>
      </trkpt>
      <trkpt lat="44.40939" lon="6.81916">
        <ele>1775.84</ele>
        <time>2022-10-08T15:17:28Z</time>
      </trkpt>
      <trkpt lat="44.40945" lon="6.81909">
        <ele>1775.87</ele>
        <time>2022-10-08T15:17:29Z</time>
      </trkpt>
      <trkpt lat="44.4095" lon="6.81898">
        <ele>1775.88</ele>
        <time>2022-10-08T15:17:30Z</time>
      </trkpt>
      <trkpt lat="44.40955" lon="6.81887">
        <ele>1775.88</ele>
        <time>2022-10-08T15:17:31Z</time>
      </trkpt>
      <trkpt lat="44.40961" lon="6.81878">
        <ele>1775.88</ele>
        <time>2022-10-08T15:17:32Z</time>
      </trkpt>
      <trkpt lat="44.40968" lon="6.8187">
        <ele>1775.9</ele>
        <time>2022-10-08T15:17:33Z</time>
      </trkpt>
      <trkpt lat="44.40991" lon="6.81844">
        <ele>1774.6</ele>
        <time>2022-10-08T15:17:36Z</time>
      </trkpt>
      <trkpt lat="44.41004" lon="6.81821">
        <ele>1773.22</ele>
        <time>2022-10-08T15:17:38Z</time>
      </trkpt>
      <trkpt lat="44.41009" lon="6.81807">
        <ele>1772.57</ele>
        <time>2022-10-08T15:17:39Z</time>
      </trkpt>
      <trkpt lat="44.41019" lon="6.81782">
        <ele>1771.42</ele>
        <time>2022-10-08T15:17:41Z</time>
      </trkpt>
      <trkpt lat="44.41024" lon="6.81771">
        <ele>1771.46</ele>
        <time>2022-10-08T15:17:42Z</time>
      </trkpt>
      <trkpt lat="44.4103" lon="6.81759">
        <ele>1771.44</ele>
        <time>2022-10-08T15:17:43Z</time>
      </trkpt>
      <trkpt lat="44.41035" lon="6.81746">
        <ele>1771.42</ele>
        <time>2022-10-08T15:17:44Z</time>
      </trkpt>
      <trkpt lat="44.41041" lon="6.81733">
        <ele>1771.43</ele>
        <time>2022-10-08T15:17:45Z</time>
      </trkpt>
      <trkpt lat="44.41046" lon="6.81721">
        <ele>1771.44</ele>
        <time>2022-10-08T15:17:46Z</time>
      </trkpt>
      <trkpt lat="44.41052" lon="6.81711">
        <ele>1771.42</ele>
        <time>2022-10-08T15:17:47Z</time>
      </trkpt>
      <trkpt lat="44.41059" lon="6.81702">
        <ele>1770.65</ele>
        <time>2022-10-08T15:17:48Z</time>
      </trkpt>
      <trkpt lat="44.41066" lon="6.81694">
        <ele>1770.63</ele>
        <time>2022-10-08T15:17:49Z</time>
      </trkpt>
      <trkpt lat="44.41079" lon="6.81681">
        <ele>1769.74</ele>
        <time>2022-10-08T15:17:51Z</time>
      </trkpt>
      <trkpt lat="44.4109" lon="6.81667">
        <ele>1768.24</ele>
        <time>2022-10-08T15:17:53Z</time>
      </trkpt>
      <trkpt lat="44.41095" lon="6.81658">
        <ele>1768.23</ele>
        <time>2022-10-08T15:17:54Z</time>
      </trkpt>
      <trkpt lat="44.411" lon="6.81649">
        <ele>1767.49</ele>
        <time>2022-10-08T15:17:55Z</time>
      </trkpt>
      <trkpt lat="44.41104" lon="6.81639">
        <ele>1766.66</ele>
        <time>2022-10-08T15:17:56Z</time>
      </trkpt>
      <trkpt lat="44.41116" lon="6.81608">
        <ele>1763.42</ele>
        <time>2022-10-08T15:17:59Z</time>
      </trkpt>
      <trkpt lat="44.41122" lon="6.81599">
        <ele>1762.59</ele>
        <time>2022-10-08T15:18:00Z</time>
      </trkpt>
      <trkpt lat="44.41127" lon="6.81589">
        <ele>1762.6</ele>
        <time>2022-10-08T15:18:01Z</time>
      </trkpt>
      <trkpt lat="44.41132" lon="6.81577">
        <ele>1761.41</ele>
        <time>2022-10-08T15:18:02Z</time>
      </trkpt>
      <trkpt lat="44.41136" lon="6.81563">
        <ele>1761.34</ele>
        <time>2022-10-08T15:18:03Z</time>
      </trkpt>
      <trkpt lat="44.41138" lon="6.8155">
        <ele>1759.31</ele>
        <time>2022-10-08T15:18:04Z</time>
      </trkpt>
      <trkpt lat="44.41142" lon="6.81539">
        <ele>1759.31</ele>
        <time>2022-10-08T15:18:05Z</time>
      </trkpt>
      <trkpt lat="44.41151" lon="6.8152">
        <ele>1757.86</ele>
        <time>2022-10-08T15:18:07Z</time>
      </trkpt>
      <trkpt lat="44.41169" lon="6.81495">
        <ele>1755.5</ele>
        <time>2022-10-08T15:18:10Z</time>
      </trkpt>
      <trkpt lat="44.41184" lon="6.81474">
        <ele>1754.19</ele>
        <time>2022-10-08T15:18:12Z</time>
      </trkpt>
      <trkpt lat="44.41192" lon="6.81464">
        <ele>1752.66</ele>
        <time>2022-10-08T15:18:13Z</time>
      </trkpt>
      <trkpt lat="44.41199" lon="6.81455">
        <ele>1750.84</ele>
        <time>2022-10-08T15:18:14Z</time>
      </trkpt>
      <trkpt lat="44.41215" lon="6.81429">
        <ele>1748.32</ele>
        <time>2022-10-08T15:18:17Z</time>
      </trkpt>
      <trkpt lat="44.41223" lon="6.81409">
        <ele>1746.54</ele>
        <time>2022-10-08T15:18:19Z</time>
      </trkpt>
      <trkpt lat="44.41226" lon="6.81399">
        <ele>1745.39</ele>
        <time>2022-10-08T15:18:20Z</time>
      </trkpt>
      <trkpt lat="44.41231" lon="6.81389">
        <ele>1744.49</ele>
        <time>2022-10-08T15:18:21Z</time>
      </trkpt>
      <trkpt lat="44.41236" lon="6.8138">
        <ele>1744.5</ele>
        <time>2022-10-08T15:18:22Z</time>
      </trkpt>
      <trkpt lat="44.41252" lon="6.81354">
        <ele>1742.96</ele>
        <time>2022-10-08T15:18:25Z</time>
      </trkpt>
      <trkpt lat="44.4126" lon="6.81339">
        <ele>1742.18</ele>
        <time>2022-10-08T15:18:27Z</time>
      </trkpt>
      <trkpt lat="44.41264" lon="6.81331">
        <ele>1741.18</ele>
        <time>2022-10-08T15:18:28Z</time>
      </trkpt>
      <trkpt lat="44.41277" lon="6.81291">
        <ele>1741.22</ele>
        <time>2022-10-08T15:18:32Z</time>
      </trkpt>
      <trkpt lat="44.41283" lon="6.81271">
        <ele>1741.21</ele>
        <time>2022-10-08T15:18:34Z</time>
      </trkpt>
      <trkpt lat="44.41286" lon="6.81263">
        <ele>1739.92</ele>
        <time>2022-10-08T15:18:35Z</time>
      </trkpt>
      <trkpt lat="44.4129" lon="6.81253">
        <ele>1739.93</ele>
        <time>2022-10-08T15:18:36Z</time>
      </trkpt>
      <trkpt lat="44.41295" lon="6.81231">
        <ele>1739.14</ele>
        <time>2022-10-08T15:18:38Z</time>
      </trkpt>
      <trkpt lat="44.41303" lon="6.8121">
        <ele>1739.15</ele>
        <time>2022-10-08T15:18:40Z</time>
      </trkpt>
      <trkpt lat="44.41307" lon="6.81199">
        <ele>1738.29</ele>
        <time>2022-10-08T15:18:41Z</time>
      </trkpt>
      <trkpt lat="44.41309" lon="6.81188">
        <ele>1738.32</ele>
        <time>2022-10-08T15:18:42Z</time>
      </trkpt>
      <trkpt lat="44.41309" lon="6.81177">
        <ele>1738.33</ele>
        <time>2022-10-08T15:18:43Z</time>
      </trkpt>
      <trkpt lat="44.41308" lon="6.81167">
        <ele>1738.33</ele>
        <time>2022-10-08T15:18:44Z</time>
      </trkpt>
      <trkpt lat="44.41306" lon="6.81156">
        <ele>1738.38</ele>
        <time>2022-10-08T15:18:45Z</time>
      </trkpt>
      <trkpt lat="44.41304" lon="6.81144">
        <ele>1738.42</ele>
        <time>2022-10-08T15:18:46Z</time>
      </trkpt>
      <trkpt lat="44.41302" lon="6.81134">
        <ele>1738.42</ele>
        <time>2022-10-08T15:18:47Z</time>
      </trkpt>
      <trkpt lat="44.41302" lon="6.81125">
        <ele>1738.43</ele>
        <time>2022-10-08T15:18:48Z</time>
      </trkpt>
      <trkpt lat="44.41303" lon="6.81117">
        <ele>1738.5</ele>
        <time>2022-10-08T15:18:49Z</time>
      </trkpt>
      <trkpt lat="44.41306" lon="6.8111">
        <ele>1738.54</ele>
        <time>2022-10-08T15:18:50Z</time>
      </trkpt>
      <trkpt lat="44.4131" lon="6.81105">
        <ele>1740.82</ele>
        <time>2022-10-08T15:18:51Z</time>
      </trkpt>
      <trkpt lat="44.41315" lon="6.81103">
        <ele>1740.83</ele>
        <time>2022-10-08T15:18:52Z</time>
      </trkpt>
      <trkpt lat="44.41322" lon="6.81103">
        <ele>1740.84</ele>
        <time>2022-10-08T15:18:53Z</time>
      </trkpt>
      <trkpt lat="44.41328" lon="6.81102">
        <ele>1740.9</ele>
        <time>2022-10-08T15:18:54Z</time>
      </trkpt>
      <trkpt lat="44.41334" lon="6.81098">
        <ele>1740.9</ele>
        <time>2022-10-08T15:18:55Z</time>
      </trkpt>
      <trkpt lat="44.41338" lon="6.81091">
        <ele>1740.91</ele>
        <time>2022-10-08T15:18:56Z</time>
      </trkpt>
      <trkpt lat="44.4134" lon="6.81083">
        <ele>1740.92</ele>
        <time>2022-10-08T15:18:57Z</time>
      </trkpt>
      <trkpt lat="44.41342" lon="6.81075">
        <ele>1740.93</ele>
        <time>2022-10-08T15:18:58Z</time>
      </trkpt>
      <trkpt lat="44.41345" lon="6.81069">
        <ele>1740.94</ele>
        <time>2022-10-08T15:18:59Z</time>
      </trkpt>
      <trkpt lat="44.4135" lon="6.81065">
        <ele>1738.44</ele>
        <time>2022-10-08T15:19:00Z</time>
      </trkpt>
      <trkpt lat="44.41355" lon="6.81061">
        <ele>1738.44</ele>
        <time>2022-10-08T15:19:01Z</time>
      </trkpt>
      <trkpt lat="44.41361" lon="6.81059">
        <ele>1737.33</ele>
        <time>2022-10-08T15:19:02Z</time>
      </trkpt>
      <trkpt lat="44.4137" lon="6.8106">
        <ele>1737.33</ele>
        <time>2022-10-08T15:19:03Z</time>
      </trkpt>
      <trkpt lat="44.41378" lon="6.81057">
        <ele>1737.28</ele>
        <time>2022-10-08T15:19:04Z</time>
      </trkpt>
      <trkpt lat="44.41387" lon="6.81053">
        <ele>1736.32</ele>
        <time>2022-10-08T15:19:05Z</time>
      </trkpt>
      <trkpt lat="44.41397" lon="6.81047">
        <ele>1736.37</ele>
        <time>2022-10-08T15:19:06Z</time>
      </trkpt>
      <trkpt lat="44.41406" lon="6.81038">
        <ele>1736.39</ele>
        <time>2022-10-08T15:19:07Z</time>
      </trkpt>
      <trkpt lat="44.41414" lon="6.81029">
        <ele>1736.36</ele>
        <time>2022-10-08T15:19:08Z</time>
      </trkpt>
      <trkpt lat="44.41422" lon="6.81017">
        <ele>1736.37</ele>
        <time>2022-10-08T15:19:09Z</time>
      </trkpt>
      <trkpt lat="44.41474" lon="6.80937">
        <ele>1736.44</ele>
        <time>2022-10-08T15:19:15Z</time>
      </trkpt>
      <trkpt lat="44.41483" lon="6.80924">
        <ele>1736.44</ele>
        <time>2022-10-08T15:19:16Z</time>
      </trkpt>
      <trkpt lat="44.4149" lon="6.80911">
        <ele>1736.44</ele>
        <time>2022-10-08T15:19:17Z</time>
      </trkpt>
      <trkpt lat="44.41496" lon="6.80898">
        <ele>1736.64</ele>
        <time>2022-10-08T15:19:18Z</time>
      </trkpt>
      <trkpt lat="44.41503" lon="6.80886">
        <ele>1736.64</ele>
        <time>2022-10-08T15:19:19Z</time>
      </trkpt>
      <trkpt lat="44.41509" lon="6.80876">
        <ele>1736.65</ele>
        <time>2022-10-08T15:19:20Z</time>
      </trkpt>
      <trkpt lat="44.41517" lon="6.80867">
        <ele>1736.66</ele>
        <time>2022-10-08T15:19:21Z</time>
      </trkpt>
      <trkpt lat="44.41524" lon="6.80858">
        <ele>1736.68</ele>
        <time>2022-10-08T15:19:22Z</time>
      </trkpt>
      <trkpt lat="44.41538" lon="6.80837">
        <ele>1736.71</ele>
        <time>2022-10-08T15:19:24Z</time>
      </trkpt>
      <trkpt lat="44.41544" lon="6.80825">
        <ele>1736.72</ele>
        <time>2022-10-08T15:19:25Z</time>
      </trkpt>
      <trkpt lat="44.4155" lon="6.80811">
        <ele>1736.75</ele>
        <time>2022-10-08T15:19:26Z</time>
      </trkpt>
      <trkpt lat="44.41553" lon="6.80796">
        <ele>1736.77</ele>
        <time>2022-10-08T15:19:27Z</time>
      </trkpt>
      <trkpt lat="44.41557" lon="6.80781">
        <ele>1736.77</ele>
        <time>2022-10-08T15:19:28Z</time>
      </trkpt>
      <trkpt lat="44.41566" lon="6.80749">
        <ele>1736.79</ele>
        <time>2022-10-08T15:19:30Z</time>
      </trkpt>
      <trkpt lat="44.41574" lon="6.80735">
        <ele>1736.81</ele>
        <time>2022-10-08T15:19:31Z</time>
      </trkpt>
      <trkpt lat="44.41584" lon="6.80723">
        <ele>1736.82</ele>
        <time>2022-10-08T15:19:32Z</time>
      </trkpt>
      <trkpt lat="44.41595" lon="6.80713">
        <ele>1736.82</ele>
        <time>2022-10-08T15:19:33Z</time>
      </trkpt>
      <trkpt lat="44.41607" lon="6.80703">
        <ele>1736.83</ele>
        <time>2022-10-08T15:19:34Z</time>
      </trkpt>
      <trkpt lat="44.41618" lon="6.80695">
        <ele>1736.87</ele>
        <time>2022-10-08T15:19:35Z</time>
      </trkpt>
      <trkpt lat="44.41629" lon="6.80688">
        <ele>1736.92</ele>
        <time>2022-10-08T15:19:36Z</time>
      </trkpt>
      <trkpt lat="44.41638" lon="6.8068">
        <ele>1736.9</ele>
        <time>2022-10-08T15:19:37Z</time>
      </trkpt>
      <trkpt lat="44.41645" lon="6.8067">
        <ele>1736.92</ele>
        <time>2022-10-08T15:19:38Z</time>
      </trkpt>
      <trkpt lat="44.4165" lon="6.80661">
        <ele>1736.93</ele>
        <time>2022-10-08T15:19:39Z</time>
      </trkpt>
      <trkpt lat="44.41655" lon="6.80649">
        <ele>1736.91</ele>
        <time>2022-10-08T15:19:40Z</time>
      </trkpt>
      <trkpt lat="44.41658" lon="6.80636">
        <ele>1736.9</ele>
        <time>2022-10-08T15:19:41Z</time>
      </trkpt>
      <trkpt lat="44.41661" lon="6.80622">
        <ele>1736.94</ele>
        <time>2022-10-08T15:19:42Z</time>
      </trkpt>
      <trkpt lat="44.41665" lon="6.80607">
        <ele>1736.19</ele>
        <time>2022-10-08T15:19:43Z</time>
      </trkpt>
      <trkpt lat="44.4167" lon="6.80591">
        <ele>1736.19</ele>
        <time>2022-10-08T15:19:44Z</time>
      </trkpt>
      <trkpt lat="44.41677" lon="6.80558">
        <ele>1733.12</ele>
        <time>2022-10-08T15:19:46Z</time>
      </trkpt>
      <trkpt lat="44.41685" lon="6.80527">
        <ele>1730.73</ele>
        <time>2022-10-08T15:19:48Z</time>
      </trkpt>
      <trkpt lat="44.4169" lon="6.80514">
        <ele>1729.86</ele>
        <time>2022-10-08T15:19:49Z</time>
      </trkpt>
      <trkpt lat="44.41694" lon="6.80501">
        <ele>1728.59</ele>
        <time>2022-10-08T15:19:50Z</time>
      </trkpt>
      <trkpt lat="44.41697" lon="6.80488">
        <ele>1727.57</ele>
        <time>2022-10-08T15:19:51Z</time>
      </trkpt>
      <trkpt lat="44.41699" lon="6.80475">
        <ele>1727.59</ele>
        <time>2022-10-08T15:19:52Z</time>
      </trkpt>
      <trkpt lat="44.41701" lon="6.80463">
        <ele>1727.74</ele>
        <time>2022-10-08T15:19:53Z</time>
      </trkpt>
      <trkpt lat="44.41702" lon="6.80449">
        <ele>1727.68</ele>
        <time>2022-10-08T15:19:54Z</time>
      </trkpt>
      <trkpt lat="44.41702" lon="6.80435">
        <ele>1727.69</ele>
        <time>2022-10-08T15:19:55Z</time>
      </trkpt>
      <trkpt lat="44.41703" lon="6.80421">
        <ele>1726.55</ele>
        <time>2022-10-08T15:19:56Z</time>
      </trkpt>
      <trkpt lat="44.41703" lon="6.80391">
        <ele>1726.5</ele>
        <time>2022-10-08T15:19:58Z</time>
      </trkpt>
      <trkpt lat="44.41705" lon="6.80364">
        <ele>1726.53</ele>
        <time>2022-10-08T15:20:00Z</time>
      </trkpt>
      <trkpt lat="44.41706" lon="6.80351">
        <ele>1726.5</ele>
        <time>2022-10-08T15:20:01Z</time>
      </trkpt>
      <trkpt lat="44.41708" lon="6.80338">
        <ele>1726.58</ele>
        <time>2022-10-08T15:20:02Z</time>
      </trkpt>
      <trkpt lat="44.41711" lon="6.80324">
        <ele>1726.6</ele>
        <time>2022-10-08T15:20:03Z</time>
      </trkpt>
      <trkpt lat="44.41714" lon="6.8031">
        <ele>1726.67</ele>
        <time>2022-10-08T15:20:04Z</time>
      </trkpt>
      <trkpt lat="44.41718" lon="6.80298">
        <ele>1725.42</ele>
        <time>2022-10-08T15:20:05Z</time>
      </trkpt>
      <trkpt lat="44.41722" lon="6.80277">
        <ele>1725.51</ele>
        <time>2022-10-08T15:20:07Z</time>
      </trkpt>
      <trkpt lat="44.41724" lon="6.80266">
        <ele>1725.54</ele>
        <time>2022-10-08T15:20:08Z</time>
      </trkpt>
      <trkpt lat="44.4173" lon="6.80233">
        <ele>1725.6</ele>
        <time>2022-10-08T15:20:11Z</time>
      </trkpt>
      <trkpt lat="44.4173" lon="6.80181">
        <ele>1725.75</ele>
        <time>2022-10-08T15:20:15Z</time>
      </trkpt>
      <trkpt lat="44.41726" lon="6.80157">
        <ele>1725.77</ele>
        <time>2022-10-08T15:20:17Z</time>
      </trkpt>
      <trkpt lat="44.41709" lon="6.80103">
        <ele>1725.87</ele>
        <time>2022-10-08T15:20:22Z</time>
      </trkpt>
      <trkpt lat="44.417" lon="6.80081">
        <ele>1725.98</ele>
        <time>2022-10-08T15:20:25Z</time>
      </trkpt>
      <trkpt lat="44.417" lon="6.80073">
        <ele>1725.94</ele>
        <time>2022-10-08T15:20:26Z</time>
      </trkpt>
      <trkpt lat="44.41703" lon="6.80066">
        <ele>1728.39</ele>
        <time>2022-10-08T15:20:27Z</time>
      </trkpt>
      <trkpt lat="44.41708" lon="6.80058">
        <ele>1728.39</ele>
        <time>2022-10-08T15:20:28Z</time>
      </trkpt>
      <trkpt lat="44.41712" lon="6.8005">
        <ele>1729.54</ele>
        <time>2022-10-08T15:20:29Z</time>
      </trkpt>
      <trkpt lat="44.41726" lon="6.80018">
        <ele>1729.52</ele>
        <time>2022-10-08T15:20:32Z</time>
      </trkpt>
      <trkpt lat="44.41729" lon="6.80004">
        <ele>1729.58</ele>
        <time>2022-10-08T15:20:33Z</time>
      </trkpt>
      <trkpt lat="44.41732" lon="6.79989">
        <ele>1729.61</ele>
        <time>2022-10-08T15:20:34Z</time>
      </trkpt>
      <trkpt lat="44.41733" lon="6.79973">
        <ele>1731.37</ele>
        <time>2022-10-08T15:20:35Z</time>
      </trkpt>
      <trkpt lat="44.41733" lon="6.79958">
        <ele>1731.46</ele>
        <time>2022-10-08T15:20:36Z</time>
      </trkpt>
      <trkpt lat="44.41732" lon="6.79946">
        <ele>1731.22</ele>
        <time>2022-10-08T15:20:37Z</time>
      </trkpt>
      <trkpt lat="44.41731" lon="6.79934">
        <ele>1731.24</ele>
        <time>2022-10-08T15:20:38Z</time>
      </trkpt>
      <trkpt lat="44.41729" lon="6.79925">
        <ele>1731.24</ele>
        <time>2022-10-08T15:20:39Z</time>
      </trkpt>
      <trkpt lat="44.41726" lon="6.79914">
        <ele>1731.25</ele>
        <time>2022-10-08T15:20:40Z</time>
      </trkpt>
      <trkpt lat="44.41721" lon="6.79903">
        <ele>1731.26</ele>
        <time>2022-10-08T15:20:41Z</time>
      </trkpt>
      <trkpt lat="44.41716" lon="6.79893">
        <ele>1731.28</ele>
        <time>2022-10-08T15:20:42Z</time>
      </trkpt>
      <trkpt lat="44.41701" lon="6.79863">
        <ele>1731.3</ele>
        <time>2022-10-08T15:20:45Z</time>
      </trkpt>
      <trkpt lat="44.417" lon="6.79853">
        <ele>1731.28</ele>
        <time>2022-10-08T15:20:46Z</time>
      </trkpt>
      <trkpt lat="44.41699" lon="6.79842">
        <ele>1731.27</ele>
        <time>2022-10-08T15:20:47Z</time>
      </trkpt>
      <trkpt lat="44.417" lon="6.79828">
        <ele>1731.28</ele>
        <time>2022-10-08T15:20:48Z</time>
      </trkpt>
      <trkpt lat="44.41701" lon="6.79814">
        <ele>1731.29</ele>
        <time>2022-10-08T15:20:49Z</time>
      </trkpt>
      <trkpt lat="44.41705" lon="6.79786">
        <ele>1729.01</ele>
        <time>2022-10-08T15:20:51Z</time>
      </trkpt>
      <trkpt lat="44.41709" lon="6.79739">
        <ele>1729.03</ele>
        <time>2022-10-08T15:20:54Z</time>
      </trkpt>
      <trkpt lat="44.41712" lon="6.79696">
        <ele>1728.91</ele>
        <time>2022-10-08T15:20:57Z</time>
      </trkpt>
      <trkpt lat="44.41716" lon="6.79684">
        <ele>1728.98</ele>
        <time>2022-10-08T15:20:58Z</time>
      </trkpt>
      <trkpt lat="44.41721" lon="6.79671">
        <ele>1728.98</ele>
        <time>2022-10-08T15:20:59Z</time>
      </trkpt>
      <trkpt lat="44.41726" lon="6.79659">
        <ele>1729.07</ele>
        <time>2022-10-08T15:21:00Z</time>
      </trkpt>
      <trkpt lat="44.4173" lon="6.79644">
        <ele>1729.16</ele>
        <time>2022-10-08T15:21:01Z</time>
      </trkpt>
      <trkpt lat="44.41734" lon="6.79629">
        <ele>1731.54</ele>
        <time>2022-10-08T15:21:02Z</time>
      </trkpt>
      <trkpt lat="44.41737" lon="6.79613">
        <ele>1731.54</ele>
        <time>2022-10-08T15:21:03Z</time>
      </trkpt>
      <trkpt lat="44.41747" lon="6.79557">
        <ele>1731.57</ele>
        <time>2022-10-08T15:21:07Z</time>
      </trkpt>
      <trkpt lat="44.41748" lon="6.79544">
        <ele>1731.58</ele>
        <time>2022-10-08T15:21:08Z</time>
      </trkpt>
      <trkpt lat="44.41747" lon="6.79531">
        <ele>1729.15</ele>
        <time>2022-10-08T15:21:09Z</time>
      </trkpt>
      <trkpt lat="44.41746" lon="6.79518">
        <ele>1729.13</ele>
        <time>2022-10-08T15:21:10Z</time>
      </trkpt>
      <trkpt lat="44.41744" lon="6.79507">
        <ele>1729.14</ele>
        <time>2022-10-08T15:21:11Z</time>
      </trkpt>
      <trkpt lat="44.4174" lon="6.79496">
        <ele>1727.83</ele>
        <time>2022-10-08T15:21:12Z</time>
      </trkpt>
      <trkpt lat="44.41735" lon="6.79483">
        <ele>1727.82</ele>
        <time>2022-10-08T15:21:13Z</time>
      </trkpt>
      <trkpt lat="44.41726" lon="6.79454">
        <ele>1726.82</ele>
        <time>2022-10-08T15:21:15Z</time>
      </trkpt>
      <trkpt lat="44.41723" lon="6.79438">
        <ele>1725.72</ele>
        <time>2022-10-08T15:21:16Z</time>
      </trkpt>
      <trkpt lat="44.4172" lon="6.79421">
        <ele>1725.67</ele>
        <time>2022-10-08T15:21:17Z</time>
      </trkpt>
      <trkpt lat="44.41719" lon="6.79405">
        <ele>1724.69</ele>
        <time>2022-10-08T15:21:18Z</time>
      </trkpt>
      <trkpt lat="44.4172" lon="6.7939">
        <ele>1723.12</ele>
        <time>2022-10-08T15:21:19Z</time>
      </trkpt>
      <trkpt lat="44.41719" lon="6.79375">
        <ele>1723.06</ele>
        <time>2022-10-08T15:21:20Z</time>
      </trkpt>
      <trkpt lat="44.41707" lon="6.79295">
        <ele>1719.82</ele>
        <time>2022-10-08T15:21:25Z</time>
      </trkpt>
      <trkpt lat="44.417" lon="6.79249">
        <ele>1719.44</ele>
        <time>2022-10-08T15:21:28Z</time>
      </trkpt>
      <trkpt lat="44.41696" lon="6.79234">
        <ele>1718.12</ele>
        <time>2022-10-08T15:21:29Z</time>
      </trkpt>
      <trkpt lat="44.41691" lon="6.79218">
        <ele>1718.13</ele>
        <time>2022-10-08T15:21:30Z</time>
      </trkpt>
      <trkpt lat="44.41686" lon="6.79202">
        <ele>1718.14</ele>
        <time>2022-10-08T15:21:31Z</time>
      </trkpt>
      <trkpt lat="44.41682" lon="6.79185">
        <ele>1718.09</ele>
        <time>2022-10-08T15:21:32Z</time>
      </trkpt>
      <trkpt lat="44.41679" lon="6.79169">
        <ele>1716.57</ele>
        <time>2022-10-08T15:21:33Z</time>
      </trkpt>
      <trkpt lat="44.41675" lon="6.79154">
        <ele>1716.53</ele>
        <time>2022-10-08T15:21:34Z</time>
      </trkpt>
      <trkpt lat="44.41666" lon="6.79126">
        <ele>1715.4</ele>
        <time>2022-10-08T15:21:36Z</time>
      </trkpt>
      <trkpt lat="44.4166" lon="6.79114">
        <ele>1715.37</ele>
        <time>2022-10-08T15:21:37Z</time>
      </trkpt>
      <trkpt lat="44.41649" lon="6.79089">
        <ele>1715.34</ele>
        <time>2022-10-08T15:21:39Z</time>
      </trkpt>
      <trkpt lat="44.41644" lon="6.79078">
        <ele>1715.37</ele>
        <time>2022-10-08T15:21:40Z</time>
      </trkpt>
      <trkpt lat="44.41631" lon="6.79045">
        <ele>1714.63</ele>
        <time>2022-10-08T15:21:43Z</time>
      </trkpt>
      <trkpt lat="44.41628" lon="6.79034">
        <ele>1713.84</ele>
        <time>2022-10-08T15:21:44Z</time>
      </trkpt>
      <trkpt lat="44.41627" lon="6.79024">
        <ele>1713.81</ele>
        <time>2022-10-08T15:21:45Z</time>
      </trkpt>
      <trkpt lat="44.41627" lon="6.79013">
        <ele>1713.88</ele>
        <time>2022-10-08T15:21:46Z</time>
      </trkpt>
      <trkpt lat="44.41628" lon="6.79002">
        <ele>1713.86</ele>
        <time>2022-10-08T15:21:47Z</time>
      </trkpt>
      <trkpt lat="44.4163" lon="6.7899">
        <ele>1713.92</ele>
        <time>2022-10-08T15:21:48Z</time>
      </trkpt>
      <trkpt lat="44.4163" lon="6.78979">
        <ele>1713.89</ele>
        <time>2022-10-08T15:21:49Z</time>
      </trkpt>
      <trkpt lat="44.4163" lon="6.78967">
        <ele>1713.88</ele>
        <time>2022-10-08T15:21:50Z</time>
      </trkpt>
      <trkpt lat="44.4163" lon="6.78955">
        <ele>1714.07</ele>
        <time>2022-10-08T15:21:51Z</time>
      </trkpt>
      <trkpt lat="44.41625" lon="6.78873">
        <ele>1714.06</ele>
        <time>2022-10-08T15:21:57Z</time>
      </trkpt>
      <trkpt lat="44.41622" lon="6.78862">
        <ele>1712.39</ele>
        <time>2022-10-08T15:21:58Z</time>
      </trkpt>
      <trkpt lat="44.41617" lon="6.7885">
        <ele>1711.2</ele>
        <time>2022-10-08T15:21:59Z</time>
      </trkpt>
      <trkpt lat="44.4161" lon="6.78839">
        <ele>1711.19</ele>
        <time>2022-10-08T15:22:00Z</time>
      </trkpt>
      <trkpt lat="44.41602" lon="6.78828">
        <ele>1709.98</ele>
        <time>2022-10-08T15:22:01Z</time>
      </trkpt>
      <trkpt lat="44.41596" lon="6.78816">
        <ele>1708.69</ele>
        <time>2022-10-08T15:22:02Z</time>
      </trkpt>
      <trkpt lat="44.41591" lon="6.78804">
        <ele>1707.82</ele>
        <time>2022-10-08T15:22:03Z</time>
      </trkpt>
      <trkpt lat="44.41588" lon="6.7879">
        <ele>1706.91</ele>
        <time>2022-10-08T15:22:04Z</time>
      </trkpt>
      <trkpt lat="44.41585" lon="6.78773">
        <ele>1705.81</ele>
        <time>2022-10-08T15:22:05Z</time>
      </trkpt>
      <trkpt lat="44.41583" lon="6.78757">
        <ele>1705.75</ele>
        <time>2022-10-08T15:22:06Z</time>
      </trkpt>
      <trkpt lat="44.41582" lon="6.78741">
        <ele>1704.48</ele>
        <time>2022-10-08T15:22:07Z</time>
      </trkpt>
      <trkpt lat="44.41582" lon="6.78725">
        <ele>1703.22</ele>
        <time>2022-10-08T15:22:08Z</time>
      </trkpt>
      <trkpt lat="44.41583" lon="6.7871">
        <ele>1703.15</ele>
        <time>2022-10-08T15:22:09Z</time>
      </trkpt>
      <trkpt lat="44.41586" lon="6.78682">
        <ele>1699.79</ele>
        <time>2022-10-08T15:22:11Z</time>
      </trkpt>
      <trkpt lat="44.41588" lon="6.78669">
        <ele>1699.9</ele>
        <time>2022-10-08T15:22:12Z</time>
      </trkpt>
      <trkpt lat="44.41589" lon="6.78658">
        <ele>1698.83</ele>
        <time>2022-10-08T15:22:13Z</time>
      </trkpt>
      <trkpt lat="44.41589" lon="6.78648">
        <ele>1697.49</ele>
        <time>2022-10-08T15:22:14Z</time>
      </trkpt>
      <trkpt lat="44.41587" lon="6.78638">
        <ele>1697.49</ele>
        <time>2022-10-08T15:22:15Z</time>
      </trkpt>
      <trkpt lat="44.41583" lon="6.7863">
        <ele>1695.7</ele>
        <time>2022-10-08T15:22:16Z</time>
      </trkpt>
      <trkpt lat="44.41577" lon="6.78624">
        <ele>1695.7</ele>
        <time>2022-10-08T15:22:17Z</time>
      </trkpt>
      <trkpt lat="44.4157" lon="6.78618">
        <ele>1694.76</ele>
        <time>2022-10-08T15:22:18Z</time>
      </trkpt>
      <trkpt lat="44.41557" lon="6.78607">
        <ele>1693.82</ele>
        <time>2022-10-08T15:22:20Z</time>
      </trkpt>
      <trkpt lat="44.41552" lon="6.786">
        <ele>1693.75</ele>
        <time>2022-10-08T15:22:21Z</time>
      </trkpt>
      <trkpt lat="44.41547" lon="6.78592">
        <ele>1692.62</ele>
        <time>2022-10-08T15:22:22Z</time>
      </trkpt>
      <trkpt lat="44.41542" lon="6.78583">
        <ele>1692.55</ele>
        <time>2022-10-08T15:22:23Z</time>
      </trkpt>
      <trkpt lat="44.41538" lon="6.78573">
        <ele>1691.27</ele>
        <time>2022-10-08T15:22:24Z</time>
      </trkpt>
      <trkpt lat="44.41532" lon="6.78564">
        <ele>1691.29</ele>
        <time>2022-10-08T15:22:25Z</time>
      </trkpt>
      <trkpt lat="44.41526" lon="6.78556">
        <ele>1689.75</ele>
        <time>2022-10-08T15:22:26Z</time>
      </trkpt>
      <trkpt lat="44.41519" lon="6.78551">
        <ele>1689.69</ele>
        <time>2022-10-08T15:22:27Z</time>
      </trkpt>
      <trkpt lat="44.4151" lon="6.78547">
        <ele>1689.72</ele>
        <time>2022-10-08T15:22:28Z</time>
      </trkpt>
      <trkpt lat="44.41499" lon="6.78544">
        <ele>1689.76</ele>
        <time>2022-10-08T15:22:29Z</time>
      </trkpt>
      <trkpt lat="44.41478" lon="6.78538">
        <ele>1687.8</ele>
        <time>2022-10-08T15:22:31Z</time>
      </trkpt>
      <trkpt lat="44.41452" lon="6.78528">
        <ele>1684.26</ele>
        <time>2022-10-08T15:22:34Z</time>
      </trkpt>
      <trkpt lat="44.41445" lon="6.78524">
        <ele>1684.31</ele>
        <time>2022-10-08T15:22:35Z</time>
      </trkpt>
      <trkpt lat="44.41439" lon="6.78518">
        <ele>1683.25</ele>
        <time>2022-10-08T15:22:36Z</time>
      </trkpt>
      <trkpt lat="44.41426" lon="6.78502">
        <ele>1682.07</ele>
        <time>2022-10-08T15:22:38Z</time>
      </trkpt>
      <trkpt lat="44.41412" lon="6.78485">
        <ele>1680.22</ele>
        <time>2022-10-08T15:22:40Z</time>
      </trkpt>
      <trkpt lat="44.41402" lon="6.78477">
        <ele>1680.04</ele>
        <time>2022-10-08T15:22:41Z</time>
      </trkpt>
      <trkpt lat="44.41392" lon="6.78471">
        <ele>1678.74</ele>
        <time>2022-10-08T15:22:42Z</time>
      </trkpt>
      <trkpt lat="44.41382" lon="6.78465">
        <ele>1677.65</ele>
        <time>2022-10-08T15:22:43Z</time>
      </trkpt>
      <trkpt lat="44.41374" lon="6.78459">
        <ele>1677.67</ele>
        <time>2022-10-08T15:22:44Z</time>
      </trkpt>
      <trkpt lat="44.41367" lon="6.78452">
        <ele>1676.02</ele>
        <time>2022-10-08T15:22:45Z</time>
      </trkpt>
      <trkpt lat="44.41359" lon="6.78444">
        <ele>1676.02</ele>
        <time>2022-10-08T15:22:46Z</time>
      </trkpt>
      <trkpt lat="44.4135" lon="6.78437">
        <ele>1675.02</ele>
        <time>2022-10-08T15:22:47Z</time>
      </trkpt>
      <trkpt lat="44.41341" lon="6.78431">
        <ele>1673.9</ele>
        <time>2022-10-08T15:22:48Z</time>
      </trkpt>
      <trkpt lat="44.41332" lon="6.78426">
        <ele>1673.91</ele>
        <time>2022-10-08T15:22:49Z</time>
      </trkpt>
      <trkpt lat="44.41316" lon="6.7842">
        <ele>1671.77</ele>
        <time>2022-10-08T15:22:51Z</time>
      </trkpt>
      <trkpt lat="44.41309" lon="6.78419">
        <ele>1670.75</ele>
        <time>2022-10-08T15:22:52Z</time>
      </trkpt>
      <trkpt lat="44.41302" lon="6.78421">
        <ele>1670.68</ele>
        <time>2022-10-08T15:22:53Z</time>
      </trkpt>
      <trkpt lat="44.41296" lon="6.78423">
        <ele>1669.76</ele>
        <time>2022-10-08T15:22:54Z</time>
      </trkpt>
      <trkpt lat="44.41291" lon="6.78426">
        <ele>1669.68</ele>
        <time>2022-10-08T15:22:55Z</time>
      </trkpt>
      <trkpt lat="44.41286" lon="6.78426">
        <ele>1669.7</ele>
        <time>2022-10-08T15:22:56Z</time>
      </trkpt>
      <trkpt lat="44.41282" lon="6.78425">
        <ele>1669.78</ele>
        <time>2022-10-08T15:22:57Z</time>
      </trkpt>
      <trkpt lat="44.41279" lon="6.78421">
        <ele>1668.99</ele>
        <time>2022-10-08T15:22:58Z</time>
      </trkpt>
      <trkpt lat="44.41278" lon="6.78418">
        <ele>1669.06</ele>
        <time>2022-10-08T15:22:59Z</time>
      </trkpt>
      <trkpt lat="44.41279" lon="6.78411">
        <ele>1669.06</ele>
        <time>2022-10-08T15:23:00Z</time>
      </trkpt>
      <trkpt lat="44.41282" lon="6.78402">
        <ele>1669.04</ele>
        <time>2022-10-08T15:23:01Z</time>
      </trkpt>
      <trkpt lat="44.41283" lon="6.78391">
        <ele>1667.45</ele>
        <time>2022-10-08T15:23:02Z</time>
      </trkpt>
      <trkpt lat="44.41284" lon="6.78379">
        <ele>1667.38</ele>
        <time>2022-10-08T15:23:03Z</time>
      </trkpt>
      <trkpt lat="44.41284" lon="6.78346">
        <ele>1664.12</ele>
        <time>2022-10-08T15:23:06Z</time>
      </trkpt>
      <trkpt lat="44.41284" lon="6.78336">
        <ele>1664.07</ele>
        <time>2022-10-08T15:23:07Z</time>
      </trkpt>
      <trkpt lat="44.41284" lon="6.78326">
        <ele>1662.66</ele>
        <time>2022-10-08T15:23:08Z</time>
      </trkpt>
      <trkpt lat="44.41286" lon="6.78317">
        <ele>1661.15</ele>
        <time>2022-10-08T15:23:09Z</time>
      </trkpt>
      <trkpt lat="44.4129" lon="6.78307">
        <ele>1660.19</ele>
        <time>2022-10-08T15:23:10Z</time>
      </trkpt>
      <trkpt lat="44.41296" lon="6.78298">
        <ele>1659.41</ele>
        <time>2022-10-08T15:23:11Z</time>
      </trkpt>
      <trkpt lat="44.41303" lon="6.78294">
        <ele>1658.18</ele>
        <time>2022-10-08T15:23:12Z</time>
      </trkpt>
      <trkpt lat="44.4131" lon="6.78291">
        <ele>1658.1</ele>
        <time>2022-10-08T15:23:13Z</time>
      </trkpt>
      <trkpt lat="44.41319" lon="6.7829">
        <ele>1656.87</ele>
        <time>2022-10-08T15:23:14Z</time>
      </trkpt>
      <trkpt lat="44.41328" lon="6.78291">
        <ele>1656.04</ele>
        <time>2022-10-08T15:23:15Z</time>
      </trkpt>
      <trkpt lat="44.41337" lon="6.78289">
        <ele>1655.11</ele>
        <time>2022-10-08T15:23:16Z</time>
      </trkpt>
      <trkpt lat="44.41346" lon="6.78285">
        <ele>1655.11</ele>
        <time>2022-10-08T15:23:17Z</time>
      </trkpt>
      <trkpt lat="44.41355" lon="6.78279">
        <ele>1653.65</ele>
        <time>2022-10-08T15:23:18Z</time>
      </trkpt>
      <trkpt lat="44.41365" lon="6.78271">
        <ele>1653.66</ele>
        <time>2022-10-08T15:23:19Z</time>
      </trkpt>
      <trkpt lat="44.41375" lon="6.78261">
        <ele>1651.88</ele>
        <time>2022-10-08T15:23:20Z</time>
      </trkpt>
      <trkpt lat="44.41384" lon="6.78251">
        <ele>1651.88</ele>
        <time>2022-10-08T15:23:21Z</time>
      </trkpt>
      <trkpt lat="44.41398" lon="6.78232">
        <ele>1649.21</ele>
        <time>2022-10-08T15:23:23Z</time>
      </trkpt>
      <trkpt lat="44.41407" lon="6.78217">
        <ele>1646.74</ele>
        <time>2022-10-08T15:23:25Z</time>
      </trkpt>
      <trkpt lat="44.4141" lon="6.78207">
        <ele>1645.57</ele>
        <time>2022-10-08T15:23:26Z</time>
      </trkpt>
      <trkpt lat="44.41409" lon="6.78198">
        <ele>1644.62</ele>
        <time>2022-10-08T15:23:27Z</time>
      </trkpt>
      <trkpt lat="44.41405" lon="6.78189">
        <ele>1644.57</ele>
        <time>2022-10-08T15:23:28Z</time>
      </trkpt>
      <trkpt lat="44.414" lon="6.7818">
        <ele>1642.83</ele>
        <time>2022-10-08T15:23:29Z</time>
      </trkpt>
      <trkpt lat="44.41394" lon="6.78171">
        <ele>1643.67</ele>
        <time>2022-10-08T15:23:30Z</time>
      </trkpt>
      <trkpt lat="44.41389" lon="6.78158">
        <ele>1641.84</ele>
        <time>2022-10-08T15:23:31Z</time>
      </trkpt>
      <trkpt lat="44.41385" lon="6.78145">
        <ele>1641.84</ele>
        <time>2022-10-08T15:23:32Z</time>
      </trkpt>
      <trkpt lat="44.41381" lon="6.7813">
        <ele>1640.04</ele>
        <time>2022-10-08T15:23:33Z</time>
      </trkpt>
      <trkpt lat="44.41376" lon="6.78115">
        <ele>1640.05</ele>
        <time>2022-10-08T15:23:34Z</time>
      </trkpt>
      <trkpt lat="44.41371" lon="6.78102">
        <ele>1638.03</ele>
        <time>2022-10-08T15:23:35Z</time>
      </trkpt>
      <trkpt lat="44.41355" lon="6.78068">
        <ele>1636.02</ele>
        <time>2022-10-08T15:23:38Z</time>
      </trkpt>
      <trkpt lat="44.41349" lon="6.78058">
        <ele>1634.53</ele>
        <time>2022-10-08T15:23:39Z</time>
      </trkpt>
      <trkpt lat="44.41344" lon="6.7805">
        <ele>1634.55</ele>
        <time>2022-10-08T15:23:40Z</time>
      </trkpt>
      <trkpt lat="44.41337" lon="6.78036">
        <ele>1633.32</ele>
        <time>2022-10-08T15:23:42Z</time>
      </trkpt>
      <trkpt lat="44.41338" lon="6.78028">
        <ele>1631.36</ele>
        <time>2022-10-08T15:23:43Z</time>
      </trkpt>
      <trkpt lat="44.41341" lon="6.7802">
        <ele>1630.42</ele>
        <time>2022-10-08T15:23:44Z</time>
      </trkpt>
      <trkpt lat="44.41346" lon="6.78014">
        <ele>1630.37</ele>
        <time>2022-10-08T15:23:45Z</time>
      </trkpt>
      <trkpt lat="44.41353" lon="6.78008">
        <ele>1630.3</ele>
        <time>2022-10-08T15:23:46Z</time>
      </trkpt>
      <trkpt lat="44.4136" lon="6.78002">
        <ele>1630.32</ele>
        <time>2022-10-08T15:23:47Z</time>
      </trkpt>
      <trkpt lat="44.41381" lon="6.77982">
        <ele>1627.09</ele>
        <time>2022-10-08T15:23:50Z</time>
      </trkpt>
      <trkpt lat="44.41388" lon="6.77976">
        <ele>1627.09</ele>
        <time>2022-10-08T15:23:51Z</time>
      </trkpt>
      <trkpt lat="44.41393" lon="6.77971">
        <ele>1625.83</ele>
        <time>2022-10-08T15:23:52Z</time>
      </trkpt>
      <trkpt lat="44.41399" lon="6.77965">
        <ele>1624.67</ele>
        <time>2022-10-08T15:23:53Z</time>
      </trkpt>
      <trkpt lat="44.41406" lon="6.77962">
        <ele>1623.61</ele>
        <time>2022-10-08T15:23:54Z</time>
      </trkpt>
      <trkpt lat="44.4143" lon="6.7795">
        <ele>1621.86</ele>
        <time>2022-10-08T15:23:57Z</time>
      </trkpt>
      <trkpt lat="44.41438" lon="6.77945">
        <ele>1620.38</ele>
        <time>2022-10-08T15:23:58Z</time>
      </trkpt>
      <trkpt lat="44.41444" lon="6.77938">
        <ele>1619.24</ele>
        <time>2022-10-08T15:23:59Z</time>
      </trkpt>
      <trkpt lat="44.41451" lon="6.7793">
        <ele>1619.23</ele>
        <time>2022-10-08T15:24:00Z</time>
      </trkpt>
      <trkpt lat="44.41458" lon="6.77919">
        <ele>1617.51</ele>
        <time>2022-10-08T15:24:01Z</time>
      </trkpt>
      <trkpt lat="44.41463" lon="6.77906">
        <ele>1617.43</ele>
        <time>2022-10-08T15:24:02Z</time>
      </trkpt>
      <trkpt lat="44.41467" lon="6.77891">
        <ele>1615.32</ele>
        <time>2022-10-08T15:24:03Z</time>
      </trkpt>
      <trkpt lat="44.41469" lon="6.77877">
        <ele>1615.32</ele>
        <time>2022-10-08T15:24:04Z</time>
      </trkpt>
      <trkpt lat="44.41471" lon="6.77864">
        <ele>1614.13</ele>
        <time>2022-10-08T15:24:05Z</time>
      </trkpt>
      <trkpt lat="44.41474" lon="6.77853">
        <ele>1614.13</ele>
        <time>2022-10-08T15:24:06Z</time>
      </trkpt>
      <trkpt lat="44.41479" lon="6.77841">
        <ele>1612.13</ele>
        <time>2022-10-08T15:24:07Z</time>
      </trkpt>
      <trkpt lat="44.41487" lon="6.7782">
        <ele>1610.06</ele>
        <time>2022-10-08T15:24:09Z</time>
      </trkpt>
      <trkpt lat="44.41491" lon="6.7781">
        <ele>1608.62</ele>
        <time>2022-10-08T15:24:10Z</time>
      </trkpt>
      <trkpt lat="44.41492" lon="6.778">
        <ele>1607.4</ele>
        <time>2022-10-08T15:24:11Z</time>
      </trkpt>
      <trkpt lat="44.4149" lon="6.77791">
        <ele>1606.25</ele>
        <time>2022-10-08T15:24:12Z</time>
      </trkpt>
      <trkpt lat="44.41485" lon="6.77783">
        <ele>1606.27</ele>
        <time>2022-10-08T15:24:13Z</time>
      </trkpt>
      <trkpt lat="44.4148" lon="6.77778">
        <ele>1606.27</ele>
        <time>2022-10-08T15:24:14Z</time>
      </trkpt>
      <trkpt lat="44.41474" lon="6.77772">
        <ele>1603.17</ele>
        <time>2022-10-08T15:24:15Z</time>
      </trkpt>
      <trkpt lat="44.41468" lon="6.77767">
        <ele>1603.17</ele>
        <time>2022-10-08T15:24:16Z</time>
      </trkpt>
      <trkpt lat="44.41444" lon="6.77752">
        <ele>1600.66</ele>
        <time>2022-10-08T15:24:20Z</time>
      </trkpt>
      <trkpt lat="44.41435" lon="6.77745">
        <ele>1598.42</ele>
        <time>2022-10-08T15:24:23Z</time>
      </trkpt>
      <trkpt lat="44.41434" lon="6.77741">
        <ele>1596.84</ele>
        <time>2022-10-08T15:24:35Z</time>
      </trkpt>
      <trkpt lat="44.41428" lon="6.77736">
        <ele>1597.1</ele>
        <time>2022-10-08T15:24:55Z</time>
      </trkpt>
      <trkpt lat="44.41426" lon="6.77734">
        <ele>1597.19</ele>
        <time>2022-10-08T15:25:22Z</time>
      </trkpt>
      <trkpt lat="44.41424" lon="6.77732">
        <ele>1597.41</ele>
        <time>2022-10-08T15:26:18Z</time>
      </trkpt>
      <trkpt lat="44.41426" lon="6.77732">
        <ele>1597.64</ele>
        <time>2022-10-08T15:27:18Z</time>
      </trkpt>
      <trkpt lat="44.41419" lon="6.77719">
        <ele>1596.82</ele>
        <time>2022-10-08T15:27:39Z</time>
      </trkpt>
      <trkpt lat="44.41417" lon="6.77714">
        <ele>1596.86</ele>
        <time>2022-10-08T15:27:51Z</time>
      </trkpt>
      <trkpt lat="44.41416" lon="6.77712">
        <ele>1596.88</ele>
        <time>2022-10-08T15:27:56Z</time>
      </trkpt>
      <trkpt lat="44.41415" lon="6.77707">
        <ele>1596.89</ele>
        <time>2022-10-08T15:27:57Z</time>
      </trkpt>
      <trkpt lat="44.41413" lon="6.77701">
        <ele>1596.09</ele>
        <time>2022-10-08T15:27:58Z</time>
      </trkpt>
      <trkpt lat="44.41413" lon="6.77693">
        <ele>1596.08</ele>
        <time>2022-10-08T15:27:59Z</time>
      </trkpt>
      <trkpt lat="44.41414" lon="6.77686">
        <ele>1595.2</ele>
        <time>2022-10-08T15:28:00Z</time>
      </trkpt>
      <trkpt lat="44.41417" lon="6.77679">
        <ele>1595.2</ele>
        <time>2022-10-08T15:28:01Z</time>
      </trkpt>
      <trkpt lat="44.4142" lon="6.77673">
        <ele>1595.14</ele>
        <time>2022-10-08T15:28:02Z</time>
      </trkpt>
      <trkpt lat="44.41425" lon="6.77669">
        <ele>1593</ele>
        <time>2022-10-08T15:28:03Z</time>
      </trkpt>
      <trkpt lat="44.41431" lon="6.77667">
        <ele>1592.2</ele>
        <time>2022-10-08T15:28:04Z</time>
      </trkpt>
      <trkpt lat="44.41438" lon="6.77665">
        <ele>1592.22</ele>
        <time>2022-10-08T15:28:05Z</time>
      </trkpt>
      <trkpt lat="44.41446" lon="6.77663">
        <ele>1592.2</ele>
        <time>2022-10-08T15:28:06Z</time>
      </trkpt>
      <trkpt lat="44.4148" lon="6.77656">
        <ele>1589.49</ele>
        <time>2022-10-08T15:28:10Z</time>
      </trkpt>
      <trkpt lat="44.41494" lon="6.77652">
        <ele>1586.81</ele>
        <time>2022-10-08T15:28:12Z</time>
      </trkpt>
      <trkpt lat="44.415" lon="6.77649">
        <ele>1586.81</ele>
        <time>2022-10-08T15:28:13Z</time>
      </trkpt>
      <trkpt lat="44.41505" lon="6.77643">
        <ele>1585.71</ele>
        <time>2022-10-08T15:28:14Z</time>
      </trkpt>
      <trkpt lat="44.41508" lon="6.77635">
        <ele>1585.72</ele>
        <time>2022-10-08T15:28:15Z</time>
      </trkpt>
      <trkpt lat="44.41509" lon="6.77625">
        <ele>1583.74</ele>
        <time>2022-10-08T15:28:16Z</time>
      </trkpt>
      <trkpt lat="44.41507" lon="6.77616">
        <ele>1583.75</ele>
        <time>2022-10-08T15:28:17Z</time>
      </trkpt>
      <trkpt lat="44.41504" lon="6.77605">
        <ele>1582.29</ele>
        <time>2022-10-08T15:28:18Z</time>
      </trkpt>
      <trkpt lat="44.41498" lon="6.77593">
        <ele>1582.29</ele>
        <time>2022-10-08T15:28:19Z</time>
      </trkpt>
      <trkpt lat="44.41492" lon="6.77582">
        <ele>1582.22</ele>
        <time>2022-10-08T15:28:20Z</time>
      </trkpt>
      <trkpt lat="44.41478" lon="6.7755">
        <ele>1579.78</ele>
        <time>2022-10-08T15:28:23Z</time>
      </trkpt>
      <trkpt lat="44.41475" lon="6.7754">
        <ele>1578.87</ele>
        <time>2022-10-08T15:28:24Z</time>
      </trkpt>
      <trkpt lat="44.41472" lon="6.7753">
        <ele>1578.82</ele>
        <time>2022-10-08T15:28:25Z</time>
      </trkpt>
      <trkpt lat="44.41469" lon="6.7752">
        <ele>1576.86</ele>
        <time>2022-10-08T15:28:26Z</time>
      </trkpt>
      <trkpt lat="44.41465" lon="6.7751">
        <ele>1576.81</ele>
        <time>2022-10-08T15:28:27Z</time>
      </trkpt>
      <trkpt lat="44.41462" lon="6.775">
        <ele>1574.82</ele>
        <time>2022-10-08T15:28:28Z</time>
      </trkpt>
      <trkpt lat="44.41461" lon="6.7749">
        <ele>1574.83</ele>
        <time>2022-10-08T15:28:29Z</time>
      </trkpt>
      <trkpt lat="44.41461" lon="6.7748">
        <ele>1573.63</ele>
        <time>2022-10-08T15:28:30Z</time>
      </trkpt>
      <trkpt lat="44.41462" lon="6.7747">
        <ele>1572.62</ele>
        <time>2022-10-08T15:28:31Z</time>
      </trkpt>
      <trkpt lat="44.41463" lon="6.7746">
        <ele>1572.54</ele>
        <time>2022-10-08T15:28:32Z</time>
      </trkpt>
      <trkpt lat="44.41467" lon="6.77422">
        <ele>1568.74</ele>
        <time>2022-10-08T15:28:36Z</time>
      </trkpt>
      <trkpt lat="44.41467" lon="6.7741">
        <ele>1568.68</ele>
        <time>2022-10-08T15:28:37Z</time>
      </trkpt>
      <trkpt lat="44.41471" lon="6.7738">
        <ele>1567.02</ele>
        <time>2022-10-08T15:28:39Z</time>
      </trkpt>
      <trkpt lat="44.41476" lon="6.77335">
        <ele>1563.23</ele>
        <time>2022-10-08T15:28:42Z</time>
      </trkpt>
      <trkpt lat="44.41477" lon="6.77322">
        <ele>1563.29</ele>
        <time>2022-10-08T15:28:43Z</time>
      </trkpt>
      <trkpt lat="44.41477" lon="6.7731">
        <ele>1562.87</ele>
        <time>2022-10-08T15:28:44Z</time>
      </trkpt>
      <trkpt lat="44.41475" lon="6.77298">
        <ele>1561.57</ele>
        <time>2022-10-08T15:28:45Z</time>
      </trkpt>
      <trkpt lat="44.41472" lon="6.77285">
        <ele>1561.5</ele>
        <time>2022-10-08T15:28:46Z</time>
      </trkpt>
      <trkpt lat="44.41469" lon="6.77271">
        <ele>1561.51</ele>
        <time>2022-10-08T15:28:47Z</time>
      </trkpt>
      <trkpt lat="44.41454" lon="6.77212">
        <ele>1558.4</ele>
        <time>2022-10-08T15:28:51Z</time>
      </trkpt>
      <trkpt lat="44.41454" lon="6.772">
        <ele>1557.1</ele>
        <time>2022-10-08T15:28:52Z</time>
      </trkpt>
      <trkpt lat="44.41456" lon="6.77188">
        <ele>1557.12</ele>
        <time>2022-10-08T15:28:53Z</time>
      </trkpt>
      <trkpt lat="44.41459" lon="6.77177">
        <ele>1555.5</ele>
        <time>2022-10-08T15:28:54Z</time>
      </trkpt>
      <trkpt lat="44.41463" lon="6.77166">
        <ele>1555.44</ele>
        <time>2022-10-08T15:28:55Z</time>
      </trkpt>
      <trkpt lat="44.41468" lon="6.77157">
        <ele>1553.67</ele>
        <time>2022-10-08T15:28:56Z</time>
      </trkpt>
      <trkpt lat="44.41474" lon="6.77149">
        <ele>1553.69</ele>
        <time>2022-10-08T15:28:57Z</time>
      </trkpt>
      <trkpt lat="44.41486" lon="6.77132">
        <ele>1551.5</ele>
        <time>2022-10-08T15:28:59Z</time>
      </trkpt>
      <trkpt lat="44.41491" lon="6.77123">
        <ele>1551.47</ele>
        <time>2022-10-08T15:29:00Z</time>
      </trkpt>
      <trkpt lat="44.41495" lon="6.77112">
        <ele>1550.24</ele>
        <time>2022-10-08T15:29:01Z</time>
      </trkpt>
      <trkpt lat="44.41497" lon="6.77101">
        <ele>1549.22</ele>
        <time>2022-10-08T15:29:02Z</time>
      </trkpt>
      <trkpt lat="44.41497" lon="6.77091">
        <ele>1549.15</ele>
        <time>2022-10-08T15:29:03Z</time>
      </trkpt>
      <trkpt lat="44.41495" lon="6.77081">
        <ele>1549.18</ele>
        <time>2022-10-08T15:29:04Z</time>
      </trkpt>
      <trkpt lat="44.41491" lon="6.77071">
        <ele>1547.38</ele>
        <time>2022-10-08T15:29:05Z</time>
      </trkpt>
      <trkpt lat="44.41487" lon="6.77059">
        <ele>1547.31</ele>
        <time>2022-10-08T15:29:06Z</time>
      </trkpt>
      <trkpt lat="44.41484" lon="6.77045">
        <ele>1546.03</ele>
        <time>2022-10-08T15:29:07Z</time>
      </trkpt>
      <trkpt lat="44.41481" lon="6.77029">
        <ele>1545.84</ele>
        <time>2022-10-08T15:29:08Z</time>
      </trkpt>
      <trkpt lat="44.41479" lon="6.77013">
        <ele>1544.87</ele>
        <time>2022-10-08T15:29:09Z</time>
      </trkpt>
      <trkpt lat="44.41468" lon="6.76962">
        <ele>1541.27</ele>
        <time>2022-10-08T15:29:12Z</time>
      </trkpt>
      <trkpt lat="44.41458" lon="6.76921">
        <ele>1538.28</ele>
        <time>2022-10-08T15:29:15Z</time>
      </trkpt>
      <trkpt lat="44.41451" lon="6.76912">
        <ele>1538.29</ele>
        <time>2022-10-08T15:29:16Z</time>
      </trkpt>
      <trkpt lat="44.41433" lon="6.76894">
        <ele>1536.17</ele>
        <time>2022-10-08T15:29:18Z</time>
      </trkpt>
      <trkpt lat="44.41416" lon="6.76877">
        <ele>1533.87</ele>
        <time>2022-10-08T15:29:20Z</time>
      </trkpt>
      <trkpt lat="44.41409" lon="6.76868">
        <ele>1532.59</ele>
        <time>2022-10-08T15:29:21Z</time>
      </trkpt>
      <trkpt lat="44.41403" lon="6.76857">
        <ele>1531.14</ele>
        <time>2022-10-08T15:29:22Z</time>
      </trkpt>
      <trkpt lat="44.41401" lon="6.76847">
        <ele>1529.98</ele>
        <time>2022-10-08T15:29:23Z</time>
      </trkpt>
      <trkpt lat="44.41399" lon="6.76836">
        <ele>1529.98</ele>
        <time>2022-10-08T15:29:24Z</time>
      </trkpt>
      <trkpt lat="44.41397" lon="6.76823">
        <ele>1528.31</ele>
        <time>2022-10-08T15:29:25Z</time>
      </trkpt>
      <trkpt lat="44.41395" lon="6.7681">
        <ele>1528.31</ele>
        <time>2022-10-08T15:29:26Z</time>
      </trkpt>
      <trkpt lat="44.41391" lon="6.76797">
        <ele>1527.5</ele>
        <time>2022-10-08T15:29:27Z</time>
      </trkpt>
      <trkpt lat="44.41371" lon="6.76755">
        <ele>1525.19</ele>
        <time>2022-10-08T15:29:30Z</time>
      </trkpt>
      <trkpt lat="44.41358" lon="6.76726">
        <ele>1521.87</ele>
        <time>2022-10-08T15:29:32Z</time>
      </trkpt>
      <trkpt lat="44.41352" lon="6.76712">
        <ele>1521.77</ele>
        <time>2022-10-08T15:29:33Z</time>
      </trkpt>
      <trkpt lat="44.41343" lon="6.76686">
        <ele>1518.43</ele>
        <time>2022-10-08T15:29:35Z</time>
      </trkpt>
      <trkpt lat="44.41338" lon="6.76675">
        <ele>1518.54</ele>
        <time>2022-10-08T15:29:36Z</time>
      </trkpt>
      <trkpt lat="44.41333" lon="6.76659">
        <ele>1515.43</ele>
        <time>2022-10-08T15:29:38Z</time>
      </trkpt>
      <trkpt lat="44.41334" lon="6.76654">
        <ele>1515.44</ele>
        <time>2022-10-08T15:29:39Z</time>
      </trkpt>
      <trkpt lat="44.41335" lon="6.76648">
        <ele>1513.78</ele>
        <time>2022-10-08T15:29:40Z</time>
      </trkpt>
      <trkpt lat="44.41338" lon="6.76644">
        <ele>1513.01</ele>
        <time>2022-10-08T15:29:41Z</time>
      </trkpt>
      <trkpt lat="44.4134" lon="6.76643">
        <ele>1512.91</ele>
        <time>2022-10-08T15:29:42Z</time>
      </trkpt>
      <trkpt lat="44.41342" lon="6.76644">
        <ele>1512.93</ele>
        <time>2022-10-08T15:29:43Z</time>
      </trkpt>
      <trkpt lat="44.41344" lon="6.76647">
        <ele>1512.93</ele>
        <time>2022-10-08T15:29:44Z</time>
      </trkpt>
      <trkpt lat="44.41346" lon="6.76653">
        <ele>1512.84</ele>
        <time>2022-10-08T15:29:45Z</time>
      </trkpt>
      <trkpt lat="44.41349" lon="6.76663">
        <ele>1512.87</ele>
        <time>2022-10-08T15:29:46Z</time>
      </trkpt>
      <trkpt lat="44.41354" lon="6.76674">
        <ele>1512.82</ele>
        <time>2022-10-08T15:29:47Z</time>
      </trkpt>
      <trkpt lat="44.41358" lon="6.76685">
        <ele>1512.85</ele>
        <time>2022-10-08T15:29:48Z</time>
      </trkpt>
      <trkpt lat="44.41361" lon="6.76696">
        <ele>1512.91</ele>
        <time>2022-10-08T15:29:49Z</time>
      </trkpt>
      <trkpt lat="44.41369" lon="6.76716">
        <ele>1510.39</ele>
        <time>2022-10-08T15:29:51Z</time>
      </trkpt>
      <trkpt lat="44.41374" lon="6.76725">
        <ele>1510.48</ele>
        <time>2022-10-08T15:29:52Z</time>
      </trkpt>
      <trkpt lat="44.4138" lon="6.76733">
        <ele>1509.49</ele>
        <time>2022-10-08T15:29:53Z</time>
      </trkpt>
      <trkpt lat="44.41387" lon="6.76741">
        <ele>1509.5</ele>
        <time>2022-10-08T15:29:54Z</time>
      </trkpt>
      <trkpt lat="44.4141" lon="6.76764">
        <ele>1507.8</ele>
        <time>2022-10-08T15:29:57Z</time>
      </trkpt>
      <trkpt lat="44.41418" lon="6.76769">
        <ele>1506.88</ele>
        <time>2022-10-08T15:29:58Z</time>
      </trkpt>
      <trkpt lat="44.41426" lon="6.76774">
        <ele>1506.88</ele>
        <time>2022-10-08T15:29:59Z</time>
      </trkpt>
      <trkpt lat="44.41433" lon="6.7678">
        <ele>1505.49</ele>
        <time>2022-10-08T15:30:00Z</time>
      </trkpt>
      <trkpt lat="44.4144" lon="6.76788">
        <ele>1504.89</ele>
        <time>2022-10-08T15:30:01Z</time>
      </trkpt>
      <trkpt lat="44.41447" lon="6.76798">
        <ele>1504.85</ele>
        <time>2022-10-08T15:30:02Z</time>
      </trkpt>
      <trkpt lat="44.41455" lon="6.76809">
        <ele>1503.1</ele>
        <time>2022-10-08T15:30:03Z</time>
      </trkpt>
      <trkpt lat="44.41464" lon="6.76817">
        <ele>1503.04</ele>
        <time>2022-10-08T15:30:04Z</time>
      </trkpt>
      <trkpt lat="44.41473" lon="6.76825">
        <ele>1502.03</ele>
        <time>2022-10-08T15:30:05Z</time>
      </trkpt>
      <trkpt lat="44.41484" lon="6.76831">
        <ele>1500.75</ele>
        <time>2022-10-08T15:30:06Z</time>
      </trkpt>
      <trkpt lat="44.41493" lon="6.76837">
        <ele>1500.69</ele>
        <time>2022-10-08T15:30:07Z</time>
      </trkpt>
      <trkpt lat="44.41502" lon="6.76843">
        <ele>1500.65</ele>
        <time>2022-10-08T15:30:08Z</time>
      </trkpt>
      <trkpt lat="44.41518" lon="6.76857">
        <ele>1499.47</ele>
        <time>2022-10-08T15:30:10Z</time>
      </trkpt>
      <trkpt lat="44.41527" lon="6.76863">
        <ele>1497.94</ele>
        <time>2022-10-08T15:30:11Z</time>
      </trkpt>
      <trkpt lat="44.41537" lon="6.76866">
        <ele>1497.87</ele>
        <time>2022-10-08T15:30:12Z</time>
      </trkpt>
      <trkpt lat="44.41546" lon="6.76868">
        <ele>1497.9</ele>
        <time>2022-10-08T15:30:13Z</time>
      </trkpt>
      <trkpt lat="44.41555" lon="6.76869">
        <ele>1496.27</ele>
        <time>2022-10-08T15:30:14Z</time>
      </trkpt>
      <trkpt lat="44.41563" lon="6.76871">
        <ele>1495.16</ele>
        <time>2022-10-08T15:30:15Z</time>
      </trkpt>
      <trkpt lat="44.41569" lon="6.76875">
        <ele>1495.26</ele>
        <time>2022-10-08T15:30:16Z</time>
      </trkpt>
      <trkpt lat="44.41574" lon="6.76881">
        <ele>1494.18</ele>
        <time>2022-10-08T15:30:17Z</time>
      </trkpt>
      <trkpt lat="44.41579" lon="6.76889">
        <ele>1494.22</ele>
        <time>2022-10-08T15:30:18Z</time>
      </trkpt>
      <trkpt lat="44.41584" lon="6.769">
        <ele>1494.15</ele>
        <time>2022-10-08T15:30:19Z</time>
      </trkpt>
      <trkpt lat="44.41589" lon="6.76914">
        <ele>1493.32</ele>
        <time>2022-10-08T15:30:20Z</time>
      </trkpt>
      <trkpt lat="44.41601" lon="6.76938">
        <ele>1491.85</ele>
        <time>2022-10-08T15:30:22Z</time>
      </trkpt>
      <trkpt lat="44.41607" lon="6.76948">
        <ele>1491.75</ele>
        <time>2022-10-08T15:30:23Z</time>
      </trkpt>
      <trkpt lat="44.41619" lon="6.76968">
        <ele>1488.68</ele>
        <time>2022-10-08T15:30:25Z</time>
      </trkpt>
      <trkpt lat="44.41623" lon="6.76982">
        <ele>1487.9</ele>
        <time>2022-10-08T15:30:26Z</time>
      </trkpt>
      <trkpt lat="44.41626" lon="6.76999">
        <ele>1487.84</ele>
        <time>2022-10-08T15:30:27Z</time>
      </trkpt>
      <trkpt lat="44.41633" lon="6.77049">
        <ele>1484.3</ele>
        <time>2022-10-08T15:30:30Z</time>
      </trkpt>
      <trkpt lat="44.41637" lon="6.77076">
        <ele>1482.56</ele>
        <time>2022-10-08T15:30:32Z</time>
      </trkpt>
      <trkpt lat="44.41638" lon="6.77087">
        <ele>1482.56</ele>
        <time>2022-10-08T15:30:33Z</time>
      </trkpt>
      <trkpt lat="44.41641" lon="6.77104">
        <ele>1480.62</ele>
        <time>2022-10-08T15:30:35Z</time>
      </trkpt>
      <trkpt lat="44.41644" lon="6.77108">
        <ele>1480.62</ele>
        <time>2022-10-08T15:30:36Z</time>
      </trkpt>
      <trkpt lat="44.41648" lon="6.77108">
        <ele>1479.02</ele>
        <time>2022-10-08T15:30:37Z</time>
      </trkpt>
      <trkpt lat="44.41651" lon="6.77106">
        <ele>1479.01</ele>
        <time>2022-10-08T15:30:38Z</time>
      </trkpt>
      <trkpt lat="44.41653" lon="6.771">
        <ele>1478.93</ele>
        <time>2022-10-08T15:30:39Z</time>
      </trkpt>
      <trkpt lat="44.41653" lon="6.77092">
        <ele>1478.93</ele>
        <time>2022-10-08T15:30:40Z</time>
      </trkpt>
      <trkpt lat="44.41653" lon="6.77082">
        <ele>1478.05</ele>
        <time>2022-10-08T15:30:41Z</time>
      </trkpt>
      <trkpt lat="44.41656" lon="6.77021">
        <ele>1477.97</ele>
        <time>2022-10-08T15:30:45Z</time>
      </trkpt>
      <trkpt lat="44.41659" lon="6.77007">
        <ele>1476.42</ele>
        <time>2022-10-08T15:30:46Z</time>
      </trkpt>
      <trkpt lat="44.41662" lon="6.76994">
        <ele>1476.4</ele>
        <time>2022-10-08T15:30:47Z</time>
      </trkpt>
      <trkpt lat="44.41664" lon="6.76982">
        <ele>1474.53</ele>
        <time>2022-10-08T15:30:48Z</time>
      </trkpt>
      <trkpt lat="44.41664" lon="6.7697">
        <ele>1473.78</ele>
        <time>2022-10-08T15:30:49Z</time>
      </trkpt>
      <trkpt lat="44.41664" lon="6.76959">
        <ele>1473.72</ele>
        <time>2022-10-08T15:30:50Z</time>
      </trkpt>
      <trkpt lat="44.41661" lon="6.76947">
        <ele>1472.35</ele>
        <time>2022-10-08T15:30:51Z</time>
      </trkpt>
      <trkpt lat="44.41657" lon="6.76934">
        <ele>1472.28</ele>
        <time>2022-10-08T15:30:52Z</time>
      </trkpt>
      <trkpt lat="44.41651" lon="6.76921">
        <ele>1471.43</ele>
        <time>2022-10-08T15:30:53Z</time>
      </trkpt>
      <trkpt lat="44.41637" lon="6.76882">
        <ele>1469.64</ele>
        <time>2022-10-08T15:30:56Z</time>
      </trkpt>
      <trkpt lat="44.41634" lon="6.76868">
        <ele>1468.75</ele>
        <time>2022-10-08T15:30:57Z</time>
      </trkpt>
      <trkpt lat="44.41629" lon="6.76841">
        <ele>1466.97</ele>
        <time>2022-10-08T15:30:59Z</time>
      </trkpt>
      <trkpt lat="44.41625" lon="6.76829">
        <ele>1466.97</ele>
        <time>2022-10-08T15:31:00Z</time>
      </trkpt>
      <trkpt lat="44.41616" lon="6.76805">
        <ele>1465.6</ele>
        <time>2022-10-08T15:31:02Z</time>
      </trkpt>
      <trkpt lat="44.41613" lon="6.76793">
        <ele>1464.39</ele>
        <time>2022-10-08T15:31:03Z</time>
      </trkpt>
      <trkpt lat="44.41612" lon="6.76778">
        <ele>1464.33</ele>
        <time>2022-10-08T15:31:04Z</time>
      </trkpt>
      <trkpt lat="44.4161" lon="6.76764">
        <ele>1463.13</ele>
        <time>2022-10-08T15:31:05Z</time>
      </trkpt>
      <trkpt lat="44.41608" lon="6.7675">
        <ele>1461.34</ele>
        <time>2022-10-08T15:31:06Z</time>
      </trkpt>
      <trkpt lat="44.41605" lon="6.76736">
        <ele>1461.28</ele>
        <time>2022-10-08T15:31:07Z</time>
      </trkpt>
      <trkpt lat="44.41601" lon="6.7672">
        <ele>1459.82</ele>
        <time>2022-10-08T15:31:08Z</time>
      </trkpt>
      <trkpt lat="44.41598" lon="6.76706">
        <ele>1459.81</ele>
        <time>2022-10-08T15:31:09Z</time>
      </trkpt>
      <trkpt lat="44.41594" lon="6.76668">
        <ele>1455.88</ele>
        <time>2022-10-08T15:31:12Z</time>
      </trkpt>
      <trkpt lat="44.41592" lon="6.76658">
        <ele>1455.88</ele>
        <time>2022-10-08T15:31:13Z</time>
      </trkpt>
      <trkpt lat="44.41588" lon="6.7665">
        <ele>1454.35</ele>
        <time>2022-10-08T15:31:14Z</time>
      </trkpt>
      <trkpt lat="44.41584" lon="6.76643">
        <ele>1453.89</ele>
        <time>2022-10-08T15:31:15Z</time>
      </trkpt>
      <trkpt lat="44.41568" lon="6.76626">
        <ele>1452.25</ele>
        <time>2022-10-08T15:31:18Z</time>
      </trkpt>
      <trkpt lat="44.41564" lon="6.76619">
        <ele>1450.65</ele>
        <time>2022-10-08T15:31:19Z</time>
      </trkpt>
      <trkpt lat="44.41561" lon="6.7661">
        <ele>1450.65</ele>
        <time>2022-10-08T15:31:20Z</time>
      </trkpt>
      <trkpt lat="44.4156" lon="6.76601">
        <ele>1449.03</ele>
        <time>2022-10-08T15:31:21Z</time>
      </trkpt>
      <trkpt lat="44.41561" lon="6.76592">
        <ele>1448.3</ele>
        <time>2022-10-08T15:31:22Z</time>
      </trkpt>
      <trkpt lat="44.41563" lon="6.76583">
        <ele>1448.38</ele>
        <time>2022-10-08T15:31:23Z</time>
      </trkpt>
      <trkpt lat="44.41569" lon="6.76556">
        <ele>1445.49</ele>
        <time>2022-10-08T15:31:26Z</time>
      </trkpt>
      <trkpt lat="44.41573" lon="6.7654">
        <ele>1443.23</ele>
        <time>2022-10-08T15:31:28Z</time>
      </trkpt>
      <trkpt lat="44.41573" lon="6.76531">
        <ele>1443.24</ele>
        <time>2022-10-08T15:31:29Z</time>
      </trkpt>
      <trkpt lat="44.41572" lon="6.76523">
        <ele>1443.25</ele>
        <time>2022-10-08T15:31:30Z</time>
      </trkpt>
      <trkpt lat="44.41568" lon="6.76516">
        <ele>1442.17</ele>
        <time>2022-10-08T15:31:31Z</time>
      </trkpt>
      <trkpt lat="44.41564" lon="6.7651">
        <ele>1442.17</ele>
        <time>2022-10-08T15:31:32Z</time>
      </trkpt>
      <trkpt lat="44.41557" lon="6.76505">
        <ele>1441.23</ele>
        <time>2022-10-08T15:31:33Z</time>
      </trkpt>
      <trkpt lat="44.41549" lon="6.76501">
        <ele>1441.23</ele>
        <time>2022-10-08T15:31:34Z</time>
      </trkpt>
      <trkpt lat="44.4154" lon="6.76498">
        <ele>1439.94</ele>
        <time>2022-10-08T15:31:35Z</time>
      </trkpt>
      <trkpt lat="44.41532" lon="6.76496">
        <ele>1439.03</ele>
        <time>2022-10-08T15:31:36Z</time>
      </trkpt>
      <trkpt lat="44.41525" lon="6.76492">
        <ele>1437.97</ele>
        <time>2022-10-08T15:31:37Z</time>
      </trkpt>
      <trkpt lat="44.41518" lon="6.76485">
        <ele>1437.86</ele>
        <time>2022-10-08T15:31:38Z</time>
      </trkpt>
      <trkpt lat="44.41511" lon="6.76478">
        <ele>1437.91</ele>
        <time>2022-10-08T15:31:39Z</time>
      </trkpt>
      <trkpt lat="44.41503" lon="6.76471">
        <ele>1435.9</ele>
        <time>2022-10-08T15:31:40Z</time>
      </trkpt>
      <trkpt lat="44.41495" lon="6.76465">
        <ele>1435.91</ele>
        <time>2022-10-08T15:31:41Z</time>
      </trkpt>
      <trkpt lat="44.41477" lon="6.76457">
        <ele>1434.18</ele>
        <time>2022-10-08T15:31:43Z</time>
      </trkpt>
      <trkpt lat="44.41464" lon="6.76449">
        <ele>1432.02</ele>
        <time>2022-10-08T15:31:45Z</time>
      </trkpt>
      <trkpt lat="44.41459" lon="6.76443">
        <ele>1431.03</ele>
        <time>2022-10-08T15:31:46Z</time>
      </trkpt>
      <trkpt lat="44.41457" lon="6.76435">
        <ele>1430.38</ele>
        <time>2022-10-08T15:31:47Z</time>
      </trkpt>
      <trkpt lat="44.41457" lon="6.76425">
        <ele>1429.31</ele>
        <time>2022-10-08T15:31:48Z</time>
      </trkpt>
      <trkpt lat="44.41458" lon="6.76415">
        <ele>1428.51</ele>
        <time>2022-10-08T15:31:49Z</time>
      </trkpt>
      <trkpt lat="44.4146" lon="6.76402">
        <ele>1428.44</ele>
        <time>2022-10-08T15:31:50Z</time>
      </trkpt>
      <trkpt lat="44.41461" lon="6.76388">
        <ele>1426.8</ele>
        <time>2022-10-08T15:31:51Z</time>
      </trkpt>
      <trkpt lat="44.4146" lon="6.76375">
        <ele>1425.57</ele>
        <time>2022-10-08T15:31:52Z</time>
      </trkpt>
      <trkpt lat="44.41458" lon="6.76362">
        <ele>1424.95</ele>
        <time>2022-10-08T15:31:53Z</time>
      </trkpt>
      <trkpt lat="44.41454" lon="6.7635">
        <ele>1424.88</ele>
        <time>2022-10-08T15:31:54Z</time>
      </trkpt>
      <trkpt lat="44.4145" lon="6.76339">
        <ele>1422.69</ele>
        <time>2022-10-08T15:31:55Z</time>
      </trkpt>
      <trkpt lat="44.41444" lon="6.76327">
        <ele>1421.15</ele>
        <time>2022-10-08T15:31:56Z</time>
      </trkpt>
      <trkpt lat="44.41426" lon="6.76286">
        <ele>1417.06</ele>
        <time>2022-10-08T15:31:59Z</time>
      </trkpt>
      <trkpt lat="44.41419" lon="6.76273">
        <ele>1416.17</ele>
        <time>2022-10-08T15:32:00Z</time>
      </trkpt>
      <trkpt lat="44.41401" lon="6.76238">
        <ele>1413.22</ele>
        <time>2022-10-08T15:32:03Z</time>
      </trkpt>
      <trkpt lat="44.41398" lon="6.76226">
        <ele>1412.33</ele>
        <time>2022-10-08T15:32:04Z</time>
      </trkpt>
      <trkpt lat="44.41397" lon="6.76214">
        <ele>1412.4</ele>
        <time>2022-10-08T15:32:05Z</time>
      </trkpt>
      <trkpt lat="44.41397" lon="6.76202">
        <ele>1410.81</ele>
        <time>2022-10-08T15:32:06Z</time>
      </trkpt>
      <trkpt lat="44.414" lon="6.76189">
        <ele>1410.81</ele>
        <time>2022-10-08T15:32:07Z</time>
      </trkpt>
      <trkpt lat="44.41404" lon="6.76177">
        <ele>1410.66</ele>
        <time>2022-10-08T15:32:08Z</time>
      </trkpt>
      <trkpt lat="44.41409" lon="6.76164">
        <ele>1408.46</ele>
        <time>2022-10-08T15:32:09Z</time>
      </trkpt>
      <trkpt lat="44.41417" lon="6.76152">
        <ele>1408.58</ele>
        <time>2022-10-08T15:32:10Z</time>
      </trkpt>
      <trkpt lat="44.41425" lon="6.76139">
        <ele>1407.22</ele>
        <time>2022-10-08T15:32:11Z</time>
      </trkpt>
      <trkpt lat="44.41432" lon="6.76126">
        <ele>1406.23</ele>
        <time>2022-10-08T15:32:12Z</time>
      </trkpt>
      <trkpt lat="44.41437" lon="6.76114">
        <ele>1406.15</ele>
        <time>2022-10-08T15:32:13Z</time>
      </trkpt>
      <trkpt lat="44.41446" lon="6.76093">
        <ele>1404.25</ele>
        <time>2022-10-08T15:32:15Z</time>
      </trkpt>
      <trkpt lat="44.41447" lon="6.76081">
        <ele>1403.23</ele>
        <time>2022-10-08T15:32:16Z</time>
      </trkpt>
      <trkpt lat="44.41447" lon="6.76068">
        <ele>1403.15</ele>
        <time>2022-10-08T15:32:17Z</time>
      </trkpt>
      <trkpt lat="44.41445" lon="6.76055">
        <ele>1402.03</ele>
        <time>2022-10-08T15:32:18Z</time>
      </trkpt>
      <trkpt lat="44.41443" lon="6.76041">
        <ele>1401.27</ele>
        <time>2022-10-08T15:32:19Z</time>
      </trkpt>
      <trkpt lat="44.41442" lon="6.76027">
        <ele>1399.81</ele>
        <time>2022-10-08T15:32:20Z</time>
      </trkpt>
      <trkpt lat="44.41443" lon="6.76012">
        <ele>1399.81</ele>
        <time>2022-10-08T15:32:21Z</time>
      </trkpt>
      <trkpt lat="44.41445" lon="6.7599">
        <ele>1398.62</ele>
        <time>2022-10-08T15:32:23Z</time>
      </trkpt>
      <trkpt lat="44.41446" lon="6.75981">
        <ele>1397.65</ele>
        <time>2022-10-08T15:32:24Z</time>
      </trkpt>
      <trkpt lat="44.41445" lon="6.75974">
        <ele>1397.66</ele>
        <time>2022-10-08T15:32:25Z</time>
      </trkpt>
      <trkpt lat="44.41443" lon="6.75968">
        <ele>1396.7</ele>
        <time>2022-10-08T15:32:26Z</time>
      </trkpt>
      <trkpt lat="44.41441" lon="6.75964">
        <ele>1395.7</ele>
        <time>2022-10-08T15:32:27Z</time>
      </trkpt>
      <trkpt lat="44.41437" lon="6.75961">
        <ele>1395.77</ele>
        <time>2022-10-08T15:32:28Z</time>
      </trkpt>
      <trkpt lat="44.41432" lon="6.7596">
        <ele>1394.97</ele>
        <time>2022-10-08T15:32:29Z</time>
      </trkpt>
      <trkpt lat="44.41425" lon="6.75959">
        <ele>1395</ele>
        <time>2022-10-08T15:32:30Z</time>
      </trkpt>
      <trkpt lat="44.41407" lon="6.75956">
        <ele>1392.58</ele>
        <time>2022-10-08T15:32:33Z</time>
      </trkpt>
      <trkpt lat="44.41402" lon="6.75953">
        <ele>1392.58</ele>
        <time>2022-10-08T15:32:34Z</time>
      </trkpt>
      <trkpt lat="44.41398" lon="6.75949">
        <ele>1392.57</ele>
        <time>2022-10-08T15:32:35Z</time>
      </trkpt>
      <trkpt lat="44.41393" lon="6.75943">
        <ele>1391.65</ele>
        <time>2022-10-08T15:32:36Z</time>
      </trkpt>
      <trkpt lat="44.4139" lon="6.75938">
        <ele>1391.71</ele>
        <time>2022-10-08T15:32:37Z</time>
      </trkpt>
      <trkpt lat="44.41386" lon="6.75931">
        <ele>1391.7</ele>
        <time>2022-10-08T15:32:38Z</time>
      </trkpt>
      <trkpt lat="44.41383" lon="6.75924">
        <ele>1391.73</ele>
        <time>2022-10-08T15:32:39Z</time>
      </trkpt>
      <trkpt lat="44.4138" lon="6.75916">
        <ele>1391.75</ele>
        <time>2022-10-08T15:32:40Z</time>
      </trkpt>
      <trkpt lat="44.41378" lon="6.75908">
        <ele>1390.45</ele>
        <time>2022-10-08T15:32:41Z</time>
      </trkpt>
      <trkpt lat="44.41371" lon="6.75888">
        <ele>1389.53</ele>
        <time>2022-10-08T15:32:43Z</time>
      </trkpt>
      <trkpt lat="44.41366" lon="6.75879">
        <ele>1388.75</ele>
        <time>2022-10-08T15:32:44Z</time>
      </trkpt>
      <trkpt lat="44.41361" lon="6.75872">
        <ele>1388.75</ele>
        <time>2022-10-08T15:32:45Z</time>
      </trkpt>
      <trkpt lat="44.41354" lon="6.75866">
        <ele>1387.8</ele>
        <time>2022-10-08T15:32:46Z</time>
      </trkpt>
      <trkpt lat="44.41345" lon="6.75861">
        <ele>1387.79</ele>
        <time>2022-10-08T15:32:47Z</time>
      </trkpt>
      <trkpt lat="44.41336" lon="6.75857">
        <ele>1385.81</ele>
        <time>2022-10-08T15:32:48Z</time>
      </trkpt>
      <trkpt lat="44.41327" lon="6.75852">
        <ele>1384.37</ele>
        <time>2022-10-08T15:32:49Z</time>
      </trkpt>
      <trkpt lat="44.41319" lon="6.75848">
        <ele>1382.98</ele>
        <time>2022-10-08T15:32:50Z</time>
      </trkpt>
      <trkpt lat="44.41311" lon="6.75842">
        <ele>1381.41</ele>
        <time>2022-10-08T15:32:51Z</time>
      </trkpt>
      <trkpt lat="44.41305" lon="6.75833">
        <ele>1380.11</ele>
        <time>2022-10-08T15:32:52Z</time>
      </trkpt>
      <trkpt lat="44.41297" lon="6.75824">
        <ele>1378.94</ele>
        <time>2022-10-08T15:32:53Z</time>
      </trkpt>
      <trkpt lat="44.41288" lon="6.75814">
        <ele>1379</ele>
        <time>2022-10-08T15:32:54Z</time>
      </trkpt>
      <trkpt lat="44.41277" lon="6.75804">
        <ele>1377.03</ele>
        <time>2022-10-08T15:32:55Z</time>
      </trkpt>
      <trkpt lat="44.41264" lon="6.75796">
        <ele>1376.95</ele>
        <time>2022-10-08T15:32:56Z</time>
      </trkpt>
      <trkpt lat="44.4123" lon="6.75767">
        <ele>1376.87</ele>
        <time>2022-10-08T15:32:59Z</time>
      </trkpt>
      <trkpt lat="44.41222" lon="6.75757">
        <ele>1376.87</ele>
        <time>2022-10-08T15:33:00Z</time>
      </trkpt>
      <trkpt lat="44.41216" lon="6.75746">
        <ele>1375.05</ele>
        <time>2022-10-08T15:33:01Z</time>
      </trkpt>
      <trkpt lat="44.41212" lon="6.75736">
        <ele>1373.9</ele>
        <time>2022-10-08T15:33:02Z</time>
      </trkpt>
      <trkpt lat="44.4121" lon="6.75725">
        <ele>1372.62</ele>
        <time>2022-10-08T15:33:03Z</time>
      </trkpt>
      <trkpt lat="44.4121" lon="6.75715">
        <ele>1371.77</ele>
        <time>2022-10-08T15:33:04Z</time>
      </trkpt>
      <trkpt lat="44.41212" lon="6.75705">
        <ele>1371.87</ele>
        <time>2022-10-08T15:33:05Z</time>
      </trkpt>
      <trkpt lat="44.41214" lon="6.75696">
        <ele>1370.7</ele>
        <time>2022-10-08T15:33:06Z</time>
      </trkpt>
      <trkpt lat="44.41214" lon="6.75686">
        <ele>1370.7</ele>
        <time>2022-10-08T15:33:07Z</time>
      </trkpt>
      <trkpt lat="44.41214" lon="6.75679">
        <ele>1369.75</ele>
        <time>2022-10-08T15:33:08Z</time>
      </trkpt>
      <trkpt lat="44.41212" lon="6.75672">
        <ele>1369.77</ele>
        <time>2022-10-08T15:33:09Z</time>
      </trkpt>
      <trkpt lat="44.4121" lon="6.75668">
        <ele>1369.78</ele>
        <time>2022-10-08T15:33:10Z</time>
      </trkpt>
      <trkpt lat="44.41208" lon="6.75665">
        <ele>1369.73</ele>
        <time>2022-10-08T15:33:11Z</time>
      </trkpt>
      <trkpt lat="44.41207" lon="6.75666">
        <ele>1369.71</ele>
        <time>2022-10-08T15:33:19Z</time>
      </trkpt>
      <trkpt lat="44.41209" lon="6.75666">
        <ele>1369.78</ele>
        <time>2022-10-08T15:33:21Z</time>
      </trkpt>
      <trkpt lat="44.41212" lon="6.75668">
        <ele>1369.83</ele>
        <time>2022-10-08T15:33:22Z</time>
      </trkpt>
      <trkpt lat="44.41226" lon="6.7567">
        <ele>1368.57</ele>
        <time>2022-10-08T15:33:26Z</time>
      </trkpt>
      <trkpt lat="44.41228" lon="6.75666">
        <ele>1368.63</ele>
        <time>2022-10-08T15:33:27Z</time>
      </trkpt>
      <trkpt lat="44.4123" lon="6.75659">
        <ele>1368.57</ele>
        <time>2022-10-08T15:33:28Z</time>
      </trkpt>
      <trkpt lat="44.4123" lon="6.75649">
        <ele>1368.57</ele>
        <time>2022-10-08T15:33:29Z</time>
      </trkpt>
      <trkpt lat="44.41228" lon="6.75638">
        <ele>1367.53</ele>
        <time>2022-10-08T15:33:30Z</time>
      </trkpt>
      <trkpt lat="44.41226" lon="6.75626">
        <ele>1367.51</ele>
        <time>2022-10-08T15:33:31Z</time>
      </trkpt>
      <trkpt lat="44.41224" lon="6.75615">
        <ele>1366.1</ele>
        <time>2022-10-08T15:33:32Z</time>
      </trkpt>
      <trkpt lat="44.41223" lon="6.75604">
        <ele>1366.1</ele>
        <time>2022-10-08T15:33:33Z</time>
      </trkpt>
      <trkpt lat="44.41223" lon="6.75594">
        <ele>1364.53</ele>
        <time>2022-10-08T15:33:34Z</time>
      </trkpt>
      <trkpt lat="44.41225" lon="6.75587">
        <ele>1364.5</ele>
        <time>2022-10-08T15:33:35Z</time>
      </trkpt>
      <trkpt lat="44.41228" lon="6.7558">
        <ele>1362.88</ele>
        <time>2022-10-08T15:33:36Z</time>
      </trkpt>
      <trkpt lat="44.41232" lon="6.75577">
        <ele>1362.88</ele>
        <time>2022-10-08T15:33:37Z</time>
      </trkpt>
      <trkpt lat="44.41237" lon="6.75576">
        <ele>1361.74</ele>
        <time>2022-10-08T15:33:38Z</time>
      </trkpt>
      <trkpt lat="44.41243" lon="6.75579">
        <ele>1361.67</ele>
        <time>2022-10-08T15:33:39Z</time>
      </trkpt>
      <trkpt lat="44.41248" lon="6.75585">
        <ele>1360.45</ele>
        <time>2022-10-08T15:33:40Z</time>
      </trkpt>
      <trkpt lat="44.41251" lon="6.75592">
        <ele>1360.43</ele>
        <time>2022-10-08T15:33:41Z</time>
      </trkpt>
      <trkpt lat="44.41255" lon="6.75598">
        <ele>1359.46</ele>
        <time>2022-10-08T15:33:42Z</time>
      </trkpt>
      <trkpt lat="44.41259" lon="6.75603">
        <ele>1359.38</ele>
        <time>2022-10-08T15:33:43Z</time>
      </trkpt>
      <trkpt lat="44.41264" lon="6.75605">
        <ele>1357.86</ele>
        <time>2022-10-08T15:33:44Z</time>
      </trkpt>
      <trkpt lat="44.41268" lon="6.75604">
        <ele>1356.87</ele>
        <time>2022-10-08T15:33:45Z</time>
      </trkpt>
      <trkpt lat="44.41273" lon="6.75601">
        <ele>1356.08</ele>
        <time>2022-10-08T15:33:46Z</time>
      </trkpt>
      <trkpt lat="44.41277" lon="6.75598">
        <ele>1356.01</ele>
        <time>2022-10-08T15:33:47Z</time>
      </trkpt>
      <trkpt lat="44.41279" lon="6.75595">
        <ele>1356.01</ele>
        <time>2022-10-08T15:33:48Z</time>
      </trkpt>
      <trkpt lat="44.41283" lon="6.75591">
        <ele>1354.61</ele>
        <time>2022-10-08T15:33:57Z</time>
      </trkpt>
      <trkpt lat="44.41291" lon="6.75577">
        <ele>1353.87</ele>
        <time>2022-10-08T15:34:20Z</time>
      </trkpt>
      <trkpt lat="44.41309" lon="6.75524">
        <ele>1353.01</ele>
        <time>2022-10-08T15:34:26Z</time>
      </trkpt>
      <trkpt lat="44.4131" lon="6.7551">
        <ele>1353.01</ele>
        <time>2022-10-08T15:34:27Z</time>
      </trkpt>
      <trkpt lat="44.4131" lon="6.75494">
        <ele>1352.12</ele>
        <time>2022-10-08T15:34:28Z</time>
      </trkpt>
      <trkpt lat="44.41308" lon="6.75478">
        <ele>1352.11</ele>
        <time>2022-10-08T15:34:29Z</time>
      </trkpt>
      <trkpt lat="44.41304" lon="6.7546">
        <ele>1350.67</ele>
        <time>2022-10-08T15:34:30Z</time>
      </trkpt>
      <trkpt lat="44.41298" lon="6.75441">
        <ele>1350.63</ele>
        <time>2022-10-08T15:34:31Z</time>
      </trkpt>
      <trkpt lat="44.41279" lon="6.75381">
        <ele>1346.94</ele>
        <time>2022-10-08T15:34:34Z</time>
      </trkpt>
      <trkpt lat="44.41258" lon="6.7533">
        <ele>1343.32</ele>
        <time>2022-10-08T15:34:37Z</time>
      </trkpt>
      <trkpt lat="44.41246" lon="6.75306">
        <ele>1340.33</ele>
        <time>2022-10-08T15:34:39Z</time>
      </trkpt>
      <trkpt lat="44.41243" lon="6.75296">
        <ele>1339.05</ele>
        <time>2022-10-08T15:34:40Z</time>
      </trkpt>
      <trkpt lat="44.41242" lon="6.75286">
        <ele>1337.59</ele>
        <time>2022-10-08T15:34:41Z</time>
      </trkpt>
      <trkpt lat="44.41245" lon="6.75278">
        <ele>1336.94</ele>
        <time>2022-10-08T15:34:42Z</time>
      </trkpt>
      <trkpt lat="44.41251" lon="6.75273">
        <ele>1336.84</ele>
        <time>2022-10-08T15:34:43Z</time>
      </trkpt>
      <trkpt lat="44.41258" lon="6.75272">
        <ele>1335.8</ele>
        <time>2022-10-08T15:34:44Z</time>
      </trkpt>
      <trkpt lat="44.41265" lon="6.75277">
        <ele>1335.8</ele>
        <time>2022-10-08T15:34:45Z</time>
      </trkpt>
      <trkpt lat="44.41273" lon="6.75286">
        <ele>1335.8</ele>
        <time>2022-10-08T15:34:46Z</time>
      </trkpt>
      <trkpt lat="44.4128" lon="6.75297">
        <ele>1335.71</ele>
        <time>2022-10-08T15:34:47Z</time>
      </trkpt>
      <trkpt lat="44.41288" lon="6.75308">
        <ele>1335.71</ele>
        <time>2022-10-08T15:34:48Z</time>
      </trkpt>
      <trkpt lat="44.41312" lon="6.75343">
        <ele>1332.79</ele>
        <time>2022-10-08T15:34:51Z</time>
      </trkpt>
      <trkpt lat="44.41331" lon="6.75381">
        <ele>1330.4</ele>
        <time>2022-10-08T15:34:54Z</time>
      </trkpt>
      <trkpt lat="44.41343" lon="6.75402">
        <ele>1327.58</ele>
        <time>2022-10-08T15:34:56Z</time>
      </trkpt>
      <trkpt lat="44.4135" lon="6.75408">
        <ele>1327.59</ele>
        <time>2022-10-08T15:34:57Z</time>
      </trkpt>
      <trkpt lat="44.41357" lon="6.7541">
        <ele>1326.31</ele>
        <time>2022-10-08T15:34:58Z</time>
      </trkpt>
      <trkpt lat="44.41364" lon="6.75407">
        <ele>1326.31</ele>
        <time>2022-10-08T15:34:59Z</time>
      </trkpt>
      <trkpt lat="44.41368" lon="6.754">
        <ele>1325.11</ele>
        <time>2022-10-08T15:35:00Z</time>
      </trkpt>
      <trkpt lat="44.41369" lon="6.7539">
        <ele>1324.25</ele>
        <time>2022-10-08T15:35:01Z</time>
      </trkpt>
      <trkpt lat="44.41368" lon="6.7538">
        <ele>1324.31</ele>
        <time>2022-10-08T15:35:02Z</time>
      </trkpt>
      <trkpt lat="44.41366" lon="6.75346">
        <ele>1322.83</ele>
        <time>2022-10-08T15:35:05Z</time>
      </trkpt>
      <trkpt lat="44.41365" lon="6.75316">
        <ele>1321.91</ele>
        <time>2022-10-08T15:35:07Z</time>
      </trkpt>
      <trkpt lat="44.41362" lon="6.75301">
        <ele>1320.9</ele>
        <time>2022-10-08T15:35:08Z</time>
      </trkpt>
      <trkpt lat="44.41358" lon="6.75285">
        <ele>1320.9</ele>
        <time>2022-10-08T15:35:09Z</time>
      </trkpt>
      <trkpt lat="44.41345" lon="6.7525">
        <ele>1316.69</ele>
        <time>2022-10-08T15:35:12Z</time>
      </trkpt>
      <trkpt lat="44.4134" lon="6.75231">
        <ele>1315.05</ele>
        <time>2022-10-08T15:35:14Z</time>
      </trkpt>
      <trkpt lat="44.41339" lon="6.75221">
        <ele>1315.05</ele>
        <time>2022-10-08T15:35:15Z</time>
      </trkpt>
      <trkpt lat="44.41333" lon="6.75184">
        <ele>1314.03</ele>
        <time>2022-10-08T15:35:18Z</time>
      </trkpt>
      <trkpt lat="44.41328" lon="6.75169">
        <ele>1312.99</ele>
        <time>2022-10-08T15:35:19Z</time>
      </trkpt>
      <trkpt lat="44.4132" lon="6.75156">
        <ele>1312.99</ele>
        <time>2022-10-08T15:35:20Z</time>
      </trkpt>
      <trkpt lat="44.4131" lon="6.75146">
        <ele>1311.44</ele>
        <time>2022-10-08T15:35:21Z</time>
      </trkpt>
      <trkpt lat="44.413" lon="6.75139">
        <ele>1310.41</ele>
        <time>2022-10-08T15:35:22Z</time>
      </trkpt>
      <trkpt lat="44.4129" lon="6.75135">
        <ele>1309.43</ele>
        <time>2022-10-08T15:35:23Z</time>
      </trkpt>
      <trkpt lat="44.41282" lon="6.7513">
        <ele>1308.38</ele>
        <time>2022-10-08T15:35:24Z</time>
      </trkpt>
      <trkpt lat="44.41277" lon="6.75123">
        <ele>1307.2</ele>
        <time>2022-10-08T15:35:25Z</time>
      </trkpt>
      <trkpt lat="44.41275" lon="6.75116">
        <ele>1305.93</ele>
        <time>2022-10-08T15:35:26Z</time>
      </trkpt>
      <trkpt lat="44.41278" lon="6.7511">
        <ele>1305.93</ele>
        <time>2022-10-08T15:35:27Z</time>
      </trkpt>
      <trkpt lat="44.41283" lon="6.75107">
        <ele>1306.02</ele>
        <time>2022-10-08T15:35:28Z</time>
      </trkpt>
      <trkpt lat="44.41291" lon="6.75108">
        <ele>1306.01</ele>
        <time>2022-10-08T15:35:29Z</time>
      </trkpt>
      <trkpt lat="44.41301" lon="6.75113">
        <ele>1305.03</ele>
        <time>2022-10-08T15:35:30Z</time>
      </trkpt>
      <trkpt lat="44.41312" lon="6.7512">
        <ele>1305.03</ele>
        <time>2022-10-08T15:35:31Z</time>
      </trkpt>
      <trkpt lat="44.41323" lon="6.75129">
        <ele>1305.03</ele>
        <time>2022-10-08T15:35:32Z</time>
      </trkpt>
      <trkpt lat="44.41365" lon="6.75157">
        <ele>1303.3</ele>
        <time>2022-10-08T15:35:35Z</time>
      </trkpt>
      <trkpt lat="44.41393" lon="6.75176">
        <ele>1301.35</ele>
        <time>2022-10-08T15:35:37Z</time>
      </trkpt>
      <trkpt lat="44.4142" lon="6.75196">
        <ele>1297.7</ele>
        <time>2022-10-08T15:35:39Z</time>
      </trkpt>
      <trkpt lat="44.41443" lon="6.75218">
        <ele>1295.17</ele>
        <time>2022-10-08T15:35:41Z</time>
      </trkpt>
      <trkpt lat="44.41453" lon="6.75233">
        <ele>1294.01</ele>
        <time>2022-10-08T15:35:42Z</time>
      </trkpt>
      <trkpt lat="44.41461" lon="6.75248">
        <ele>1294.1</ele>
        <time>2022-10-08T15:35:43Z</time>
      </trkpt>
      <trkpt lat="44.41473" lon="6.75276">
        <ele>1290.58</ele>
        <time>2022-10-08T15:35:45Z</time>
      </trkpt>
      <trkpt lat="44.41485" lon="6.7529">
        <ele>1289.09</ele>
        <time>2022-10-08T15:35:47Z</time>
      </trkpt>
      <trkpt lat="44.41493" lon="6.75288">
        <ele>1287.36</ele>
        <time>2022-10-08T15:35:48Z</time>
      </trkpt>
      <trkpt lat="44.41499" lon="6.75281">
        <ele>1287.25</ele>
        <time>2022-10-08T15:35:49Z</time>
      </trkpt>
      <trkpt lat="44.41501" lon="6.7527">
        <ele>1286.56</ele>
        <time>2022-10-08T15:35:50Z</time>
      </trkpt>
      <trkpt lat="44.415" lon="6.75257">
        <ele>1286.44</ele>
        <time>2022-10-08T15:35:51Z</time>
      </trkpt>
      <trkpt lat="44.41494" lon="6.75243">
        <ele>1286.34</ele>
        <time>2022-10-08T15:35:52Z</time>
      </trkpt>
      <trkpt lat="44.41487" lon="6.75229">
        <ele>1286.34</ele>
        <time>2022-10-08T15:35:53Z</time>
      </trkpt>
      <trkpt lat="44.41468" lon="6.75187">
        <ele>1282.77</ele>
        <time>2022-10-08T15:35:56Z</time>
      </trkpt>
      <trkpt lat="44.41464" lon="6.75173">
        <ele>1281.54</ele>
        <time>2022-10-08T15:35:57Z</time>
      </trkpt>
      <trkpt lat="44.41463" lon="6.75161">
        <ele>1279.97</ele>
        <time>2022-10-08T15:35:58Z</time>
      </trkpt>
      <trkpt lat="44.41465" lon="6.75152">
        <ele>1279.11</ele>
        <time>2022-10-08T15:35:59Z</time>
      </trkpt>
      <trkpt lat="44.41471" lon="6.75145">
        <ele>1279.15</ele>
        <time>2022-10-08T15:36:00Z</time>
      </trkpt>
      <trkpt lat="44.41479" lon="6.75141">
        <ele>1278.05</ele>
        <time>2022-10-08T15:36:01Z</time>
      </trkpt>
      <trkpt lat="44.4149" lon="6.75139">
        <ele>1278.05</ele>
        <time>2022-10-08T15:36:02Z</time>
      </trkpt>
      <trkpt lat="44.41501" lon="6.75136">
        <ele>1278.07</ele>
        <time>2022-10-08T15:36:03Z</time>
      </trkpt>
      <trkpt lat="44.41512" lon="6.75132">
        <ele>1276.69</ele>
        <time>2022-10-08T15:36:04Z</time>
      </trkpt>
      <trkpt lat="44.41521" lon="6.75126">
        <ele>1276.77</ele>
        <time>2022-10-08T15:36:05Z</time>
      </trkpt>
      <trkpt lat="44.4153" lon="6.75118">
        <ele>1276.28</ele>
        <time>2022-10-08T15:36:06Z</time>
      </trkpt>
      <trkpt lat="44.41546" lon="6.75103">
        <ele>1275.28</ele>
        <time>2022-10-08T15:36:08Z</time>
      </trkpt>
      <trkpt lat="44.41553" lon="6.75095">
        <ele>1275.29</ele>
        <time>2022-10-08T15:36:09Z</time>
      </trkpt>
      <trkpt lat="44.41555" lon="6.75084">
        <ele>1275.23</ele>
        <time>2022-10-08T15:36:10Z</time>
      </trkpt>
      <trkpt lat="44.41555" lon="6.75073">
        <ele>1274.28</ele>
        <time>2022-10-08T15:36:11Z</time>
      </trkpt>
      <trkpt lat="44.4155" lon="6.7506">
        <ele>1274.26</ele>
        <time>2022-10-08T15:36:12Z</time>
      </trkpt>
      <trkpt lat="44.41543" lon="6.75048">
        <ele>1274.28</ele>
        <time>2022-10-08T15:36:13Z</time>
      </trkpt>
      <trkpt lat="44.41536" lon="6.75036">
        <ele>1272.83</ele>
        <time>2022-10-08T15:36:14Z</time>
      </trkpt>
      <trkpt lat="44.41528" lon="6.75023">
        <ele>1272.82</ele>
        <time>2022-10-08T15:36:15Z</time>
      </trkpt>
      <trkpt lat="44.41521" lon="6.75007">
        <ele>1272.84</ele>
        <time>2022-10-08T15:36:16Z</time>
      </trkpt>
      <trkpt lat="44.41492" lon="6.74934">
        <ele>1269.3</ele>
        <time>2022-10-08T15:36:20Z</time>
      </trkpt>
      <trkpt lat="44.41478" lon="6.749">
        <ele>1268.19</ele>
        <time>2022-10-08T15:36:22Z</time>
      </trkpt>
      <trkpt lat="44.41466" lon="6.74868">
        <ele>1266.02</ele>
        <time>2022-10-08T15:36:24Z</time>
      </trkpt>
      <trkpt lat="44.41461" lon="6.74852">
        <ele>1264.4</ele>
        <time>2022-10-08T15:36:25Z</time>
      </trkpt>
      <trkpt lat="44.41459" lon="6.74836">
        <ele>1263.28</ele>
        <time>2022-10-08T15:36:26Z</time>
      </trkpt>
      <trkpt lat="44.41459" lon="6.74821">
        <ele>1262.37</ele>
        <time>2022-10-08T15:36:27Z</time>
      </trkpt>
      <trkpt lat="44.41462" lon="6.74805">
        <ele>1261.36</ele>
        <time>2022-10-08T15:36:28Z</time>
      </trkpt>
      <trkpt lat="44.41466" lon="6.74791">
        <ele>1260.48</ele>
        <time>2022-10-08T15:36:29Z</time>
      </trkpt>
      <trkpt lat="44.41472" lon="6.74776">
        <ele>1259.41</ele>
        <time>2022-10-08T15:36:30Z</time>
      </trkpt>
      <trkpt lat="44.41477" lon="6.74761">
        <ele>1259.32</ele>
        <time>2022-10-08T15:36:31Z</time>
      </trkpt>
      <trkpt lat="44.41482" lon="6.74745">
        <ele>1258.46</ele>
        <time>2022-10-08T15:36:32Z</time>
      </trkpt>
      <trkpt lat="44.41485" lon="6.74729">
        <ele>1258.46</ele>
        <time>2022-10-08T15:36:33Z</time>
      </trkpt>
      <trkpt lat="44.41489" lon="6.74697">
        <ele>1256.77</ele>
        <time>2022-10-08T15:36:35Z</time>
      </trkpt>
      <trkpt lat="44.41499" lon="6.74652">
        <ele>1254.6</ele>
        <time>2022-10-08T15:36:38Z</time>
      </trkpt>
      <trkpt lat="44.41516" lon="6.74599">
        <ele>1251.23</ele>
        <time>2022-10-08T15:36:42Z</time>
      </trkpt>
      <trkpt lat="44.41519" lon="6.74585">
        <ele>1251.24</ele>
        <time>2022-10-08T15:36:43Z</time>
      </trkpt>
      <trkpt lat="44.41521" lon="6.7457">
        <ele>1250.47</ele>
        <time>2022-10-08T15:36:44Z</time>
      </trkpt>
      <trkpt lat="44.41522" lon="6.74554">
        <ele>1249.17</ele>
        <time>2022-10-08T15:36:45Z</time>
      </trkpt>
      <trkpt lat="44.41523" lon="6.74536">
        <ele>1249.14</ele>
        <time>2022-10-08T15:36:46Z</time>
      </trkpt>
      <trkpt lat="44.41526" lon="6.74503">
        <ele>1247.49</ele>
        <time>2022-10-08T15:36:48Z</time>
      </trkpt>
      <trkpt lat="44.41529" lon="6.74487">
        <ele>1247.48</ele>
        <time>2022-10-08T15:36:49Z</time>
      </trkpt>
      <trkpt lat="44.41533" lon="6.74472">
        <ele>1246.76</ele>
        <time>2022-10-08T15:36:50Z</time>
      </trkpt>
      <trkpt lat="44.41537" lon="6.74457">
        <ele>1245.88</ele>
        <time>2022-10-08T15:36:51Z</time>
      </trkpt>
      <trkpt lat="44.41542" lon="6.74443">
        <ele>1245.89</ele>
        <time>2022-10-08T15:36:52Z</time>
      </trkpt>
      <trkpt lat="44.41552" lon="6.74415">
        <ele>1244.63</ele>
        <time>2022-10-08T15:36:54Z</time>
      </trkpt>
      <trkpt lat="44.41563" lon="6.74385">
        <ele>1243.23</ele>
        <time>2022-10-08T15:36:56Z</time>
      </trkpt>
      <trkpt lat="44.41586" lon="6.74336">
        <ele>1240.14</ele>
        <time>2022-10-08T15:37:00Z</time>
      </trkpt>
      <trkpt lat="44.41593" lon="6.74327">
        <ele>1240.09</ele>
        <time>2022-10-08T15:37:01Z</time>
      </trkpt>
      <trkpt lat="44.41601" lon="6.7432">
        <ele>1239.2</ele>
        <time>2022-10-08T15:37:02Z</time>
      </trkpt>
      <trkpt lat="44.41609" lon="6.74315">
        <ele>1239.15</ele>
        <time>2022-10-08T15:37:03Z</time>
      </trkpt>
      <trkpt lat="44.41618" lon="6.74309">
        <ele>1239.09</ele>
        <time>2022-10-08T15:37:04Z</time>
      </trkpt>
      <trkpt lat="44.41627" lon="6.74302">
        <ele>1237.86</ele>
        <time>2022-10-08T15:37:05Z</time>
      </trkpt>
      <trkpt lat="44.41635" lon="6.74292">
        <ele>1237.88</ele>
        <time>2022-10-08T15:37:06Z</time>
      </trkpt>
      <trkpt lat="44.4166" lon="6.74262">
        <ele>1236.18</ele>
        <time>2022-10-08T15:37:09Z</time>
      </trkpt>
      <trkpt lat="44.41666" lon="6.74252">
        <ele>1236.12</ele>
        <time>2022-10-08T15:37:10Z</time>
      </trkpt>
      <trkpt lat="44.41671" lon="6.74242">
        <ele>1235.3</ele>
        <time>2022-10-08T15:37:11Z</time>
      </trkpt>
      <trkpt lat="44.41677" lon="6.74234">
        <ele>1235.31</ele>
        <time>2022-10-08T15:37:12Z</time>
      </trkpt>
      <trkpt lat="44.41681" lon="6.7423">
        <ele>1234.23</ele>
        <time>2022-10-08T15:37:13Z</time>
      </trkpt>
      <trkpt lat="44.41685" lon="6.74228">
        <ele>1233.26</ele>
        <time>2022-10-08T15:37:14Z</time>
      </trkpt>
      <trkpt lat="44.41688" lon="6.74229">
        <ele>1233.28</ele>
        <time>2022-10-08T15:37:15Z</time>
      </trkpt>
      <trkpt lat="44.41691" lon="6.7423">
        <ele>1233.24</ele>
        <time>2022-10-08T15:37:16Z</time>
      </trkpt>
      <trkpt lat="44.41694" lon="6.74231">
        <ele>1233.27</ele>
        <time>2022-10-08T15:37:17Z</time>
      </trkpt>
      <trkpt lat="44.41696" lon="6.74228">
        <ele>1233.31</ele>
        <time>2022-10-08T15:37:18Z</time>
      </trkpt>
      <trkpt lat="44.41697" lon="6.74225">
        <ele>1233.3</ele>
        <time>2022-10-08T15:37:19Z</time>
      </trkpt>
      <trkpt lat="44.41697" lon="6.7422">
        <ele>1233.65</ele>
        <time>2022-10-08T15:37:20Z</time>
      </trkpt>
      <trkpt lat="44.41697" lon="6.74216">
        <ele>1233.61</ele>
        <time>2022-10-08T15:37:21Z</time>
      </trkpt>
      <trkpt lat="44.41699" lon="6.74215">
        <ele>1233.62</ele>
        <time>2022-10-08T15:37:22Z</time>
      </trkpt>
      <trkpt lat="44.417" lon="6.74218">
        <ele>1233.66</ele>
        <time>2022-10-08T15:37:32Z</time>
      </trkpt>
      <trkpt lat="44.41701" lon="6.74219">
        <ele>1233.69</ele>
        <time>2022-10-08T15:37:35Z</time>
      </trkpt>
      <trkpt lat="44.41704" lon="6.74229">
        <ele>1233.85</ele>
        <time>2022-10-08T15:38:03Z</time>
      </trkpt>
      <trkpt lat="44.41703" lon="6.7424">
        <ele>1233.63</ele>
        <time>2022-10-08T15:39:21Z</time>
      </trkpt>
      <trkpt lat="44.41702" lon="6.74239">
        <ele>1233.64</ele>
        <time>2022-10-08T15:39:23Z</time>
      </trkpt>
      <trkpt lat="44.42014" lon="6.73925">
        <ele>1217.53</ele>
        <time>2022-10-08T17:14:13Z</time>
      </trkpt>
      <trkpt lat="44.42016" lon="6.73907">
        <ele>1215.7</ele>
        <time>2022-10-08T17:14:14Z</time>
      </trkpt>
      <trkpt lat="44.4204" lon="6.73725">
        <ele>1213.98</ele>
        <time>2022-10-08T17:14:24Z</time>
      </trkpt>
      <trkpt lat="44.42044" lon="6.73712">
        <ele>1213.96</ele>
        <time>2022-10-08T17:14:25Z</time>
      </trkpt>
      <trkpt lat="44.42059" lon="6.73669">
        <ele>1210.73</ele>
        <time>2022-10-08T17:14:31Z</time>
      </trkpt>
      <trkpt lat="44.42059" lon="6.73663">
        <ele>1210.71</ele>
        <time>2022-10-08T17:14:33Z</time>
      </trkpt>
      <trkpt lat="44.42057" lon="6.73657">
        <ele>1210.69</ele>
        <time>2022-10-08T17:14:34Z</time>
      </trkpt>
      <trkpt lat="44.42052" lon="6.73652">
        <ele>1210.7</ele>
        <time>2022-10-08T17:14:35Z</time>
      </trkpt>
      <trkpt lat="44.42046" lon="6.73647">
        <ele>1210.71</ele>
        <time>2022-10-08T17:14:36Z</time>
      </trkpt>
      <trkpt lat="44.42039" lon="6.73641">
        <ele>1210.69</ele>
        <time>2022-10-08T17:14:37Z</time>
      </trkpt>
      <trkpt lat="44.42026" lon="6.73628">
        <ele>1210.68</ele>
        <time>2022-10-08T17:14:39Z</time>
      </trkpt>
      <trkpt lat="44.42021" lon="6.73621">
        <ele>1210.69</ele>
        <time>2022-10-08T17:14:40Z</time>
      </trkpt>
      <trkpt lat="44.42017" lon="6.73613">
        <ele>1210.7</ele>
        <time>2022-10-08T17:14:41Z</time>
      </trkpt>
      <trkpt lat="44.42015" lon="6.73603">
        <ele>1210.72</ele>
        <time>2022-10-08T17:14:42Z</time>
      </trkpt>
      <trkpt lat="44.42014" lon="6.73593">
        <ele>1210.7</ele>
        <time>2022-10-08T17:14:43Z</time>
      </trkpt>
      <trkpt lat="44.42014" lon="6.73583">
        <ele>1210.72</ele>
        <time>2022-10-08T17:14:44Z</time>
      </trkpt>
      <trkpt lat="44.42013" lon="6.73562">
        <ele>1210.72</ele>
        <time>2022-10-08T17:14:46Z</time>
      </trkpt>
      <trkpt lat="44.42012" lon="6.73552">
        <ele>1209.83</ele>
        <time>2022-10-08T17:14:47Z</time>
      </trkpt>
      <trkpt lat="44.4201" lon="6.73543">
        <ele>1209.85</ele>
        <time>2022-10-08T17:14:48Z</time>
      </trkpt>
      <trkpt lat="44.41991" lon="6.73502">
        <ele>1209.05</ele>
        <time>2022-10-08T17:14:56Z</time>
      </trkpt>
      <trkpt lat="44.41987" lon="6.73502">
        <ele>1209.06</ele>
        <time>2022-10-08T17:14:57Z</time>
      </trkpt>
      <trkpt lat="44.41979" lon="6.73504">
        <ele>1209.05</ele>
        <time>2022-10-08T17:14:59Z</time>
      </trkpt>
      <trkpt lat="44.41952" lon="6.73515">
        <ele>1208.16</ele>
        <time>2022-10-08T17:15:08Z</time>
      </trkpt>
      <trkpt lat="44.4195" lon="6.73513">
        <ele>1208.18</ele>
        <time>2022-10-08T17:15:09Z</time>
      </trkpt>
      <trkpt lat="44.41949" lon="6.7351">
        <ele>1208.21</ele>
        <time>2022-10-08T17:15:10Z</time>
      </trkpt>
      <trkpt lat="44.41938" lon="6.73488">
        <ele>1208.22</ele>
        <time>2022-10-08T17:15:17Z</time>
      </trkpt>
      <trkpt lat="44.41939" lon="6.73486">
        <ele>1208.22</ele>
        <time>2022-10-08T17:15:18Z</time>
      </trkpt>
      <trkpt lat="44.41939" lon="6.73478">
        <ele>1207.35</ele>
        <time>2022-10-08T17:15:32Z</time>
      </trkpt>
      <trkpt lat="44.42083" lon="6.73599">
        <ele>1206.85</ele>
        <time>2022-10-08T18:37:25Z</time>
      </trkpt>
      <trkpt lat="44.42088" lon="6.73606">
        <ele>1127.53</ele>
        <time>2022-10-08T18:37:26Z</time>
      </trkpt>
      <trkpt lat="44.4215" lon="6.73651">
        <ele>1129.6</ele>
        <time>2022-10-08T18:37:34Z</time>
      </trkpt>
      <trkpt lat="44.4216" lon="6.73656">
        <ele>1129.78</ele>
        <time>2022-10-08T18:37:35Z</time>
      </trkpt>
      <trkpt lat="44.42283" lon="6.73728">
        <ele>1132.52</ele>
        <time>2022-10-08T18:37:47Z</time>
      </trkpt>
      <trkpt lat="44.42304" lon="6.7373">
        <ele>1133.87</ele>
        <time>2022-10-08T18:37:49Z</time>
      </trkpt>
      <trkpt lat="44.4234" lon="6.73731">
        <ele>1135.91</ele>
        <time>2022-10-08T18:37:52Z</time>
      </trkpt>
      <trkpt lat="44.42432" lon="6.73725">
        <ele>1139.65</ele>
        <time>2022-10-08T18:38:00Z</time>
      </trkpt>
      <trkpt lat="44.42538" lon="6.7372">
        <ele>1140.44</ele>
        <time>2022-10-08T18:38:09Z</time>
      </trkpt>
      <trkpt lat="44.42665" lon="6.73713">
        <ele>1141.42</ele>
        <time>2022-10-08T18:38:19Z</time>
      </trkpt>
      <trkpt lat="44.42784" lon="6.73684">
        <ele>1142.24</ele>
        <time>2022-10-08T18:38:29Z</time>
      </trkpt>
      <trkpt lat="44.42876" lon="6.73643">
        <ele>1144.35</ele>
        <time>2022-10-08T18:38:37Z</time>
      </trkpt>
      <trkpt lat="44.42899" lon="6.7364">
        <ele>1144.34</ele>
        <time>2022-10-08T18:38:39Z</time>
      </trkpt>
      <trkpt lat="44.42911" lon="6.73642">
        <ele>1144.33</ele>
        <time>2022-10-08T18:38:40Z</time>
      </trkpt>
      <trkpt lat="44.42935" lon="6.73647">
        <ele>1144.36</ele>
        <time>2022-10-08T18:38:42Z</time>
      </trkpt>
      <trkpt lat="44.42946" lon="6.73651">
        <ele>1144.37</ele>
        <time>2022-10-08T18:38:43Z</time>
      </trkpt>
      <trkpt lat="44.42967" lon="6.73663">
        <ele>1144.43</ele>
        <time>2022-10-08T18:38:45Z</time>
      </trkpt>
      <trkpt lat="44.42977" lon="6.73671">
        <ele>1144.5</ele>
        <time>2022-10-08T18:38:46Z</time>
      </trkpt>
      <trkpt lat="44.42986" lon="6.7368">
        <ele>1144.52</ele>
        <time>2022-10-08T18:38:47Z</time>
      </trkpt>
      <trkpt lat="44.43003" lon="6.73699">
        <ele>1144.61</ele>
        <time>2022-10-08T18:38:49Z</time>
      </trkpt>
      <trkpt lat="44.43042" lon="6.73767">
        <ele>1144.93</ele>
        <time>2022-10-08T18:38:57Z</time>
      </trkpt>
      <trkpt lat="44.43046" lon="6.73777">
        <ele>1142.65</ele>
        <time>2022-10-08T18:39:00Z</time>
      </trkpt>
      <trkpt lat="44.4305" lon="6.73784">
        <ele>1143.24</ele>
        <time>2022-10-08T18:39:13Z</time>
      </trkpt>
      <trkpt lat="44.43052" lon="6.73787">
        <ele>1143.31</ele>
        <time>2022-10-08T18:39:14Z</time>
      </trkpt>
      <trkpt lat="44.43054" lon="6.73791">
        <ele>1143.34</ele>
        <time>2022-10-08T18:39:15Z</time>
      </trkpt>
      <trkpt lat="44.43055" lon="6.73794">
        <ele>1143.4</ele>
        <time>2022-10-08T18:39:16Z</time>
      </trkpt>
      <trkpt lat="44.43056" lon="6.73796">
        <ele>1143.45</ele>
        <time>2022-10-08T18:39:17Z</time>
      </trkpt>
      <trkpt lat="44.43058" lon="6.73796">
        <ele>1143.5</ele>
        <time>2022-10-08T18:39:18Z</time>
      </trkpt>
      <trkpt lat="44.43059" lon="6.73789">
        <ele>1143.7</ele>
        <time>2022-10-08T18:39:20Z</time>
      </trkpt>
      <trkpt lat="44.43057" lon="6.73783">
        <ele>1143.72</ele>
        <time>2022-10-08T18:39:21Z</time>
      </trkpt>
      <trkpt lat="44.43054" lon="6.73775">
        <ele>1143.77</ele>
        <time>2022-10-08T18:39:22Z</time>
      </trkpt>
      <trkpt lat="44.43025" lon="6.73722">
        <ele>1146.4</ele>
        <time>2022-10-08T18:39:27Z</time>
      </trkpt>
      <trkpt lat="44.42976" lon="6.73664">
        <ele>1147.46</ele>
        <time>2022-10-08T18:39:32Z</time>
      </trkpt>
      <trkpt lat="44.42964" lon="6.73655">
        <ele>1147.52</ele>
        <time>2022-10-08T18:39:33Z</time>
      </trkpt>
      <trkpt lat="44.42951" lon="6.73648">
        <ele>1147.57</ele>
        <time>2022-10-08T18:39:34Z</time>
      </trkpt>
      <trkpt lat="44.42938" lon="6.73642">
        <ele>1147.62</ele>
        <time>2022-10-08T18:39:35Z</time>
      </trkpt>
      <trkpt lat="44.42925" lon="6.73637">
        <ele>1147.68</ele>
        <time>2022-10-08T18:39:36Z</time>
      </trkpt>
      <trkpt lat="44.42911" lon="6.73634">
        <ele>1147.72</ele>
        <time>2022-10-08T18:39:37Z</time>
      </trkpt>
      <trkpt lat="44.42898" lon="6.73632">
        <ele>1147.77</ele>
        <time>2022-10-08T18:39:38Z</time>
      </trkpt>
      <trkpt lat="44.42884" lon="6.73632">
        <ele>1147.84</ele>
        <time>2022-10-08T18:39:39Z</time>
      </trkpt>
      <trkpt lat="44.4287" lon="6.73635">
        <ele>1147.88</ele>
        <time>2022-10-08T18:39:40Z</time>
      </trkpt>
      <trkpt lat="44.42857" lon="6.73639">
        <ele>1147.91</ele>
        <time>2022-10-08T18:39:41Z</time>
      </trkpt>
      <trkpt lat="44.42843" lon="6.73644">
        <ele>1147.91</ele>
        <time>2022-10-08T18:39:42Z</time>
      </trkpt>
      <trkpt lat="44.4283" lon="6.7365">
        <ele>1147.97</ele>
        <time>2022-10-08T18:39:43Z</time>
      </trkpt>
      <trkpt lat="44.427" lon="6.73696">
        <ele>1148.42</ele>
        <time>2022-10-08T18:39:53Z</time>
      </trkpt>
      <trkpt lat="44.42587" lon="6.73703">
        <ele>1146.22</ele>
        <time>2022-10-08T18:40:01Z</time>
      </trkpt>
      <trkpt lat="44.42459" lon="6.73714">
        <ele>1144.7</ele>
        <time>2022-10-08T18:40:12Z</time>
      </trkpt>
      <trkpt lat="44.42301" lon="6.7372">
        <ele>1142.44</ele>
        <time>2022-10-08T18:40:25Z</time>
      </trkpt>
      <trkpt lat="44.42276" lon="6.73721">
        <ele>1140.77</ele>
        <time>2022-10-08T18:40:27Z</time>
      </trkpt>
      <trkpt lat="44.42146" lon="6.73703">
        <ele>1137.57</ele>
        <time>2022-10-08T18:40:37Z</time>
      </trkpt>
      <trkpt lat="44.42063" lon="6.73667">
        <ele>1133.66</ele>
        <time>2022-10-08T18:40:45Z</time>
      </trkpt>
      <trkpt lat="44.42056" lon="6.73664">
        <ele>1133.71</ele>
        <time>2022-10-08T18:40:46Z</time>
      </trkpt>
      <trkpt lat="44.42051" lon="6.73664">
        <ele>1133.76</ele>
        <time>2022-10-08T18:40:47Z</time>
      </trkpt>
      <trkpt lat="44.42047" lon="6.73667">
        <ele>1133.78</ele>
        <time>2022-10-08T18:40:48Z</time>
      </trkpt>
      <trkpt lat="44.42045" lon="6.73672">
        <ele>1133.84</ele>
        <time>2022-10-08T18:40:49Z</time>
      </trkpt>
      <trkpt lat="44.42043" lon="6.7368">
        <ele>1133.85</ele>
        <time>2022-10-08T18:40:50Z</time>
      </trkpt>
      <trkpt lat="44.42041" lon="6.73691">
        <ele>1133.9</ele>
        <time>2022-10-08T18:40:51Z</time>
      </trkpt>
      <trkpt lat="44.42038" lon="6.73702">
        <ele>1133.94</ele>
        <time>2022-10-08T18:40:52Z</time>
      </trkpt>
      <trkpt lat="44.42035" lon="6.73715">
        <ele>1133.99</ele>
        <time>2022-10-08T18:40:53Z</time>
      </trkpt>
      <trkpt lat="44.42024" lon="6.73757">
        <ele>1137.18</ele>
        <time>2022-10-08T18:40:56Z</time>
      </trkpt>
      <trkpt lat="44.42021" lon="6.73772">
        <ele>1137.3</ele>
        <time>2022-10-08T18:40:57Z</time>
      </trkpt>
      <trkpt lat="44.42015" lon="6.73818">
        <ele>1139.11</ele>
        <time>2022-10-08T18:41:00Z</time>
      </trkpt>
      <trkpt lat="44.41996" lon="6.73939">
        <ele>1140.42</ele>
        <time>2022-10-08T18:41:08Z</time>
      </trkpt>
      <trkpt lat="44.41992" lon="6.73952">
        <ele>1140.46</ele>
        <time>2022-10-08T18:41:09Z</time>
      </trkpt>
      <trkpt lat="44.41986" lon="6.73962">
        <ele>1140.47</ele>
        <time>2022-10-08T18:41:10Z</time>
      </trkpt>
      <trkpt lat="44.41979" lon="6.73972">
        <ele>1140.51</ele>
        <time>2022-10-08T18:41:11Z</time>
      </trkpt>
      <trkpt lat="44.41971" lon="6.73982">
        <ele>1140.56</ele>
        <time>2022-10-08T18:41:12Z</time>
      </trkpt>
      <trkpt lat="44.41962" lon="6.73991">
        <ele>1140.62</ele>
        <time>2022-10-08T18:41:13Z</time>
      </trkpt>
      <trkpt lat="44.41952" lon="6.74">
        <ele>1140.67</ele>
        <time>2022-10-08T18:41:14Z</time>
      </trkpt>
      <trkpt lat="44.41942" lon="6.74008">
        <ele>1140.71</ele>
        <time>2022-10-08T18:41:15Z</time>
      </trkpt>
      <trkpt lat="44.41931" lon="6.74016">
        <ele>1140.77</ele>
        <time>2022-10-08T18:41:16Z</time>
      </trkpt>
      <trkpt lat="44.41842" lon="6.74084">
        <ele>1143.99</ele>
        <time>2022-10-08T18:41:24Z</time>
      </trkpt>
      <trkpt lat="44.41783" lon="6.74134">
        <ele>1146.34</ele>
        <time>2022-10-08T18:41:32Z</time>
      </trkpt>
      <trkpt lat="44.41764" lon="6.74147">
        <ele>1147.63</ele>
        <time>2022-10-08T18:41:34Z</time>
      </trkpt>
      <trkpt lat="44.41714" lon="6.74192">
        <ele>1148.8</ele>
        <time>2022-10-08T18:41:41Z</time>
      </trkpt>
      <trkpt lat="44.41707" lon="6.74202">
        <ele>1150.1</ele>
        <time>2022-10-08T18:41:43Z</time>
      </trkpt>
      <trkpt lat="44.41695" lon="6.74221">
        <ele>1151.54</ele>
        <time>2022-10-08T18:41:46Z</time>
      </trkpt>
      <trkpt lat="44.41692" lon="6.74227">
        <ele>1152.55</ele>
        <time>2022-10-08T18:41:47Z</time>
      </trkpt>
      <trkpt lat="44.41691" lon="6.74233">
        <ele>1152.6</ele>
        <time>2022-10-08T18:41:48Z</time>
      </trkpt>
      <trkpt lat="44.41692" lon="6.74238">
        <ele>1152.33</ele>
        <time>2022-10-08T18:41:49Z</time>
      </trkpt>
      <trkpt lat="44.41693" lon="6.74241">
        <ele>1152.67</ele>
        <time>2022-10-08T18:41:50Z</time>
      </trkpt>
      <trkpt lat="44.41695" lon="6.74243">
        <ele>1152.42</ele>
        <time>2022-10-08T18:41:51Z</time>
      </trkpt>
      <trkpt lat="44.41697" lon="6.74242">
        <ele>1153.25</ele>
        <time>2022-10-08T18:41:52Z</time>
      </trkpt>
      <trkpt lat="44.41703" lon="6.74234">
        <ele>1153.79</ele>
        <time>2022-10-08T18:42:02Z</time>
      </trkpt>
      <trkpt lat="44.4171" lon="6.7423">
        <ele>1163.56</ele>
        <time>2022-10-08T18:42:13Z</time>
      </trkpt>
    </trkseg>
  </trk>
</gpx>